<?xml version="1.0" encoding="UTF-8" standalone="no" ?>
<gpx xmlns="http://www.topografix.com/GPX/1/1" xmlns:xsi="http://www.w3.org/2001/XMLSchema-instance" xsi:schemaLocation="http://www.topografix.com/GPX/1/1 http://www.topografix.com/GPX/1/1/gpx.xsd" version="1.1" creator="VisuGPX - https://www.visugpx.com">
  <metadata>
    <name>OC-Gif-Baie-de-Somme_J1</name>
    <desc><![CDATA[Boucle au départ du Crotoy de la baie de Somme à la baie de l'Authie, aller par la plage et retour par les terres.]]></desc>
  </metadata>
  <trk>
    <name><![CDATA[2023-06-10 09:30]]></name>
    <desc><![CDATA[<p>Heure de départ: 06/10/2023 10:30<br/>Heure d'arrivée: 06/10/2023 19:12<br/>Distance: 58,6 km (08:42)<br/>Temps déplacement: 05:13<br/>Vitesse moyenne: 6,73 km/h<br/>Vitesse moyenne mouv.: 11,21 km/h<br/>Vitesse Max.: 27,76 km/h<br/>Altitude minimale: 45 m<br/>Altitude maximale: 72 m<br/>Vitesse de montée: 73,7 m/h<br/>Vitesse de descente: -73,5 m/h<br/>Gain d'altitude: 288 m<br/>Perte d'altitude: -297 m<br/>Temps de montée: 03:54<br/>Temps de descente: 04:02<br/></p><hr align="center" width="480" style="height: 2px; width: 517px"/>]]></desc>
    <trkseg>
      <trkpt lat="50.21813" lon="1.61953">
        <ele>8.7</ele>
        <time>2023-06-10T07:30:43Z</time>
      </trkpt>
      <trkpt lat="50.21809" lon="1.61956">
        <ele>8.6</ele>
        <time>2023-06-10T07:31:57Z</time>
      </trkpt>
      <trkpt lat="50.21811" lon="1.61964">
        <ele>8.3</ele>
        <time>2023-06-10T07:35:03Z</time>
      </trkpt>
      <trkpt lat="50.21815" lon="1.61969">
        <ele>8.1</ele>
        <time>2023-06-10T07:35:17Z</time>
      </trkpt>
      <trkpt lat="50.21819" lon="1.61972">
        <ele>8</ele>
        <time>2023-06-10T07:38:37Z</time>
      </trkpt>
      <trkpt lat="50.21823" lon="1.61967">
        <ele>8.2</ele>
        <time>2023-06-10T07:38:49Z</time>
      </trkpt>
      <trkpt lat="50.21824" lon="1.61959">
        <ele>8.5</ele>
        <time>2023-06-10T07:38:57Z</time>
      </trkpt>
      <trkpt lat="50.21828" lon="1.61954">
        <ele>8.7</ele>
        <time>2023-06-10T07:39:19Z</time>
      </trkpt>
      <trkpt lat="50.21832" lon="1.61948">
        <ele>8.9</ele>
        <time>2023-06-10T07:39:27Z</time>
      </trkpt>
      <trkpt lat="50.21837" lon="1.61944">
        <ele>9</ele>
        <time>2023-06-10T07:39:37Z</time>
      </trkpt>
      <trkpt lat="50.21842" lon="1.61942">
        <ele>9</ele>
        <time>2023-06-10T07:39:47Z</time>
      </trkpt>
      <trkpt lat="50.21847" lon="1.61942">
        <ele>9</ele>
        <time>2023-06-10T07:41:27Z</time>
      </trkpt>
      <trkpt lat="50.21853" lon="1.61934">
        <ele>9</ele>
        <time>2023-06-10T07:41:45Z</time>
      </trkpt>
      <trkpt lat="50.21857" lon="1.61929">
        <ele>9</ele>
        <time>2023-06-10T07:41:47Z</time>
      </trkpt>
      <trkpt lat="50.2186" lon="1.61924">
        <ele>9</ele>
        <time>2023-06-10T07:41:49Z</time>
      </trkpt>
      <trkpt lat="50.21864" lon="1.61918">
        <ele>9</ele>
        <time>2023-06-10T07:41:51Z</time>
      </trkpt>
      <trkpt lat="50.21864" lon="1.61905">
        <ele>8.6</ele>
        <time>2023-06-10T07:41:55Z</time>
      </trkpt>
      <trkpt lat="50.2186" lon="1.61894">
        <ele>8.2</ele>
        <time>2023-06-10T07:41:59Z</time>
      </trkpt>
      <trkpt lat="50.21856" lon="1.61883">
        <ele>8</ele>
        <time>2023-06-10T07:42:03Z</time>
      </trkpt>
      <trkpt lat="50.21853" lon="1.61875">
        <ele>7.8</ele>
        <time>2023-06-10T07:42:07Z</time>
      </trkpt>
      <trkpt lat="50.21849" lon="1.61865">
        <ele>7.6</ele>
        <time>2023-06-10T07:43:39Z</time>
      </trkpt>
      <trkpt lat="50.21847" lon="1.61858">
        <ele>7.5</ele>
        <time>2023-06-10T07:43:41Z</time>
      </trkpt>
      <trkpt lat="50.21844" lon="1.61851">
        <ele>7.3</ele>
        <time>2023-06-10T07:43:43Z</time>
      </trkpt>
      <trkpt lat="50.21842" lon="1.61839">
        <ele>7</ele>
        <time>2023-06-10T07:43:47Z</time>
      </trkpt>
      <trkpt lat="50.2184" lon="1.61832">
        <ele>6.7</ele>
        <time>2023-06-10T07:43:49Z</time>
      </trkpt>
      <trkpt lat="50.21842" lon="1.61824">
        <ele>6.5</ele>
        <time>2023-06-10T07:43:51Z</time>
      </trkpt>
      <trkpt lat="50.21844" lon="1.61816">
        <ele>6.3</ele>
        <time>2023-06-10T07:43:53Z</time>
      </trkpt>
      <trkpt lat="50.21848" lon="1.61809">
        <ele>6.3</ele>
        <time>2023-06-10T07:43:55Z</time>
      </trkpt>
      <trkpt lat="50.21853" lon="1.61803">
        <ele>6.4</ele>
        <time>2023-06-10T07:43:57Z</time>
      </trkpt>
      <trkpt lat="50.21859" lon="1.61796">
        <ele>6.5</ele>
        <time>2023-06-10T07:43:59Z</time>
      </trkpt>
      <trkpt lat="50.21864" lon="1.6179">
        <ele>6.5</ele>
        <time>2023-06-10T07:44:01Z</time>
      </trkpt>
      <trkpt lat="50.2187" lon="1.61783">
        <ele>6.5</ele>
        <time>2023-06-10T07:44:03Z</time>
      </trkpt>
      <trkpt lat="50.21876" lon="1.61776">
        <ele>6.5</ele>
        <time>2023-06-10T07:44:05Z</time>
      </trkpt>
      <trkpt lat="50.21882" lon="1.6177">
        <ele>6.5</ele>
        <time>2023-06-10T07:44:07Z</time>
      </trkpt>
      <trkpt lat="50.21887" lon="1.61764">
        <ele>6.4</ele>
        <time>2023-06-10T07:44:09Z</time>
      </trkpt>
      <trkpt lat="50.21893" lon="1.61757">
        <ele>6.5</ele>
        <time>2023-06-10T07:44:11Z</time>
      </trkpt>
      <trkpt lat="50.21898" lon="1.61751">
        <ele>6.7</ele>
        <time>2023-06-10T07:44:13Z</time>
      </trkpt>
      <trkpt lat="50.21904" lon="1.61744">
        <ele>6.9</ele>
        <time>2023-06-10T07:44:15Z</time>
      </trkpt>
      <trkpt lat="50.2191" lon="1.61737">
        <ele>7</ele>
        <time>2023-06-10T07:44:17Z</time>
      </trkpt>
      <trkpt lat="50.21916" lon="1.6173">
        <ele>7.2</ele>
        <time>2023-06-10T07:44:19Z</time>
      </trkpt>
      <trkpt lat="50.21922" lon="1.61722">
        <ele>7.4</ele>
        <time>2023-06-10T07:44:21Z</time>
      </trkpt>
      <trkpt lat="50.21928" lon="1.61715">
        <ele>7.3</ele>
        <time>2023-06-10T07:44:23Z</time>
      </trkpt>
      <trkpt lat="50.21934" lon="1.61707">
        <ele>7.2</ele>
        <time>2023-06-10T07:44:25Z</time>
      </trkpt>
      <trkpt lat="50.2194" lon="1.617">
        <ele>7.1</ele>
        <time>2023-06-10T07:44:27Z</time>
      </trkpt>
      <trkpt lat="50.21947" lon="1.61693">
        <ele>7</ele>
        <time>2023-06-10T07:44:29Z</time>
      </trkpt>
      <trkpt lat="50.21953" lon="1.61687">
        <ele>6.9</ele>
        <time>2023-06-10T07:44:31Z</time>
      </trkpt>
      <trkpt lat="50.21959" lon="1.6168">
        <ele>7</ele>
        <time>2023-06-10T07:44:33Z</time>
      </trkpt>
      <trkpt lat="50.21965" lon="1.61674">
        <ele>7.3</ele>
        <time>2023-06-10T07:44:35Z</time>
      </trkpt>
      <trkpt lat="50.21971" lon="1.61668">
        <ele>7.8</ele>
        <time>2023-06-10T07:44:37Z</time>
      </trkpt>
      <trkpt lat="50.21977" lon="1.61661">
        <ele>7.5</ele>
        <time>2023-06-10T07:44:39Z</time>
      </trkpt>
      <trkpt lat="50.21983" lon="1.61654">
        <ele>7.1</ele>
        <time>2023-06-10T07:44:41Z</time>
      </trkpt>
      <trkpt lat="50.21989" lon="1.61648">
        <ele>7.2</ele>
        <time>2023-06-10T07:44:43Z</time>
      </trkpt>
      <trkpt lat="50.21995" lon="1.61642">
        <ele>7.5</ele>
        <time>2023-06-10T07:44:45Z</time>
      </trkpt>
      <trkpt lat="50.22001" lon="1.61635">
        <ele>7.6</ele>
        <time>2023-06-10T07:44:47Z</time>
      </trkpt>
      <trkpt lat="50.22007" lon="1.61629">
        <ele>7.2</ele>
        <time>2023-06-10T07:44:49Z</time>
      </trkpt>
      <trkpt lat="50.22013" lon="1.61623">
        <ele>7.1</ele>
        <time>2023-06-10T07:44:51Z</time>
      </trkpt>
      <trkpt lat="50.22019" lon="1.61617">
        <ele>7.2</ele>
        <time>2023-06-10T07:44:53Z</time>
      </trkpt>
      <trkpt lat="50.22025" lon="1.61611">
        <ele>7.6</ele>
        <time>2023-06-10T07:44:55Z</time>
      </trkpt>
      <trkpt lat="50.22031" lon="1.61604">
        <ele>7.3</ele>
        <time>2023-06-10T07:44:57Z</time>
      </trkpt>
      <trkpt lat="50.22037" lon="1.61598">
        <ele>7.1</ele>
        <time>2023-06-10T07:44:59Z</time>
      </trkpt>
      <trkpt lat="50.22044" lon="1.61592">
        <ele>7.1</ele>
        <time>2023-06-10T07:45:01Z</time>
      </trkpt>
      <trkpt lat="50.2205" lon="1.61586">
        <ele>7.4</ele>
        <time>2023-06-10T07:45:03Z</time>
      </trkpt>
      <trkpt lat="50.22056" lon="1.6158">
        <ele>7.7</ele>
        <time>2023-06-10T07:45:05Z</time>
      </trkpt>
      <trkpt lat="50.22062" lon="1.61574">
        <ele>7.7</ele>
        <time>2023-06-10T07:45:07Z</time>
      </trkpt>
      <trkpt lat="50.22068" lon="1.61569">
        <ele>7.8</ele>
        <time>2023-06-10T07:45:09Z</time>
      </trkpt>
      <trkpt lat="50.22074" lon="1.61563">
        <ele>8.1</ele>
        <time>2023-06-10T07:45:11Z</time>
      </trkpt>
      <trkpt lat="50.22081" lon="1.61557">
        <ele>8.7</ele>
        <time>2023-06-10T07:45:13Z</time>
      </trkpt>
      <trkpt lat="50.22087" lon="1.61551">
        <ele>8.6</ele>
        <time>2023-06-10T07:45:15Z</time>
      </trkpt>
      <trkpt lat="50.22093" lon="1.61545">
        <ele>8.4</ele>
        <time>2023-06-10T07:45:17Z</time>
      </trkpt>
      <trkpt lat="50.22099" lon="1.61539">
        <ele>8.4</ele>
        <time>2023-06-10T07:45:19Z</time>
      </trkpt>
      <trkpt lat="50.22105" lon="1.61533">
        <ele>8.6</ele>
        <time>2023-06-10T07:45:21Z</time>
      </trkpt>
      <trkpt lat="50.2211" lon="1.61527">
        <ele>8.8</ele>
        <time>2023-06-10T07:45:23Z</time>
      </trkpt>
      <trkpt lat="50.22116" lon="1.61522">
        <ele>8.6</ele>
        <time>2023-06-10T07:45:25Z</time>
      </trkpt>
      <trkpt lat="50.22122" lon="1.61516">
        <ele>8.6</ele>
        <time>2023-06-10T07:45:27Z</time>
      </trkpt>
      <trkpt lat="50.22128" lon="1.6151">
        <ele>8.8</ele>
        <time>2023-06-10T07:45:29Z</time>
      </trkpt>
      <trkpt lat="50.22135" lon="1.61505">
        <ele>9.5</ele>
        <time>2023-06-10T07:45:31Z</time>
      </trkpt>
      <trkpt lat="50.22141" lon="1.61499">
        <ele>9.9</ele>
        <time>2023-06-10T07:45:33Z</time>
      </trkpt>
      <trkpt lat="50.22147" lon="1.61493">
        <ele>9.6</ele>
        <time>2023-06-10T07:45:35Z</time>
      </trkpt>
      <trkpt lat="50.22154" lon="1.61487">
        <ele>9.4</ele>
        <time>2023-06-10T07:45:37Z</time>
      </trkpt>
      <trkpt lat="50.2216" lon="1.61481">
        <ele>9.6</ele>
        <time>2023-06-10T07:45:39Z</time>
      </trkpt>
      <trkpt lat="50.22166" lon="1.61475">
        <ele>10.1</ele>
        <time>2023-06-10T07:45:41Z</time>
      </trkpt>
      <trkpt lat="50.22173" lon="1.6147">
        <ele>9.7</ele>
        <time>2023-06-10T07:45:43Z</time>
      </trkpt>
      <trkpt lat="50.22179" lon="1.61464">
        <ele>9.2</ele>
        <time>2023-06-10T07:45:45Z</time>
      </trkpt>
      <trkpt lat="50.22186" lon="1.61457">
        <ele>9.2</ele>
        <time>2023-06-10T07:45:47Z</time>
      </trkpt>
      <trkpt lat="50.22193" lon="1.61452">
        <ele>9.9</ele>
        <time>2023-06-10T07:45:49Z</time>
      </trkpt>
      <trkpt lat="50.22201" lon="1.61446">
        <ele>9.8</ele>
        <time>2023-06-10T07:45:51Z</time>
      </trkpt>
      <trkpt lat="50.22208" lon="1.6144">
        <ele>9.1</ele>
        <time>2023-06-10T07:45:53Z</time>
      </trkpt>
      <trkpt lat="50.22216" lon="1.61433">
        <ele>8.8</ele>
        <time>2023-06-10T07:45:55Z</time>
      </trkpt>
      <trkpt lat="50.22223" lon="1.61427">
        <ele>9</ele>
        <time>2023-06-10T07:45:57Z</time>
      </trkpt>
      <trkpt lat="50.22231" lon="1.61421">
        <ele>9.3</ele>
        <time>2023-06-10T07:45:59Z</time>
      </trkpt>
      <trkpt lat="50.22238" lon="1.61415">
        <ele>9.4</ele>
        <time>2023-06-10T07:46:01Z</time>
      </trkpt>
      <trkpt lat="50.22246" lon="1.61409">
        <ele>9.1</ele>
        <time>2023-06-10T07:46:03Z</time>
      </trkpt>
      <trkpt lat="50.22253" lon="1.61402">
        <ele>9.1</ele>
        <time>2023-06-10T07:46:05Z</time>
      </trkpt>
      <trkpt lat="50.22261" lon="1.61396">
        <ele>9.2</ele>
        <time>2023-06-10T07:46:07Z</time>
      </trkpt>
      <trkpt lat="50.22269" lon="1.61389">
        <ele>9.4</ele>
        <time>2023-06-10T07:46:09Z</time>
      </trkpt>
      <trkpt lat="50.22276" lon="1.61383">
        <ele>9</ele>
        <time>2023-06-10T07:46:11Z</time>
      </trkpt>
      <trkpt lat="50.22284" lon="1.61376">
        <ele>8.5</ele>
        <time>2023-06-10T07:46:13Z</time>
      </trkpt>
      <trkpt lat="50.22292" lon="1.6137">
        <ele>8.3</ele>
        <time>2023-06-10T07:46:15Z</time>
      </trkpt>
      <trkpt lat="50.22301" lon="1.61363">
        <ele>8.6</ele>
        <time>2023-06-10T07:46:17Z</time>
      </trkpt>
      <trkpt lat="50.22309" lon="1.61356">
        <ele>8.4</ele>
        <time>2023-06-10T07:46:19Z</time>
      </trkpt>
      <trkpt lat="50.22318" lon="1.6135">
        <ele>8.1</ele>
        <time>2023-06-10T07:46:21Z</time>
      </trkpt>
      <trkpt lat="50.22327" lon="1.61344">
        <ele>8.4</ele>
        <time>2023-06-10T07:46:23Z</time>
      </trkpt>
      <trkpt lat="50.22337" lon="1.61339">
        <ele>8.9</ele>
        <time>2023-06-10T07:46:25Z</time>
      </trkpt>
      <trkpt lat="50.22347" lon="1.61333">
        <ele>8.5</ele>
        <time>2023-06-10T07:46:27Z</time>
      </trkpt>
      <trkpt lat="50.22357" lon="1.61328">
        <ele>7.7</ele>
        <time>2023-06-10T07:46:29Z</time>
      </trkpt>
      <trkpt lat="50.22366" lon="1.61322">
        <ele>7.4</ele>
        <time>2023-06-10T07:46:31Z</time>
      </trkpt>
      <trkpt lat="50.22376" lon="1.61317">
        <ele>7.4</ele>
        <time>2023-06-10T07:46:33Z</time>
      </trkpt>
      <trkpt lat="50.22386" lon="1.6131">
        <ele>7.8</ele>
        <time>2023-06-10T07:46:35Z</time>
      </trkpt>
      <trkpt lat="50.22395" lon="1.61305">
        <ele>8</ele>
        <time>2023-06-10T07:46:37Z</time>
      </trkpt>
      <trkpt lat="50.22404" lon="1.61301">
        <ele>7.7</ele>
        <time>2023-06-10T07:46:39Z</time>
      </trkpt>
      <trkpt lat="50.2241" lon="1.61295">
        <ele>7.4</ele>
        <time>2023-06-10T07:46:41Z</time>
      </trkpt>
      <trkpt lat="50.22405" lon="1.61286">
        <ele>6.7</ele>
        <time>2023-06-10T07:46:45Z</time>
      </trkpt>
      <trkpt lat="50.22399" lon="1.61289">
        <ele>6.7</ele>
        <time>2023-06-10T07:46:47Z</time>
      </trkpt>
      <trkpt lat="50.22393" lon="1.61292">
        <ele>6.7</ele>
        <time>2023-06-10T07:46:49Z</time>
      </trkpt>
      <trkpt lat="50.22385" lon="1.61295">
        <ele>6.6</ele>
        <time>2023-06-10T07:46:51Z</time>
      </trkpt>
      <trkpt lat="50.22378" lon="1.61298">
        <ele>6.5</ele>
        <time>2023-06-10T07:46:53Z</time>
      </trkpt>
      <trkpt lat="50.22371" lon="1.61301">
        <ele>6.3</ele>
        <time>2023-06-10T07:46:55Z</time>
      </trkpt>
      <trkpt lat="50.22366" lon="1.61302">
        <ele>6.1</ele>
        <time>2023-06-10T07:46:57Z</time>
      </trkpt>
      <trkpt lat="50.22359" lon="1.61297">
        <ele>5.3</ele>
        <time>2023-06-10T07:47:01Z</time>
      </trkpt>
      <trkpt lat="50.22362" lon="1.6129">
        <ele>5</ele>
        <time>2023-06-10T07:47:03Z</time>
      </trkpt>
      <trkpt lat="50.22367" lon="1.61286">
        <ele>4.9</ele>
        <time>2023-06-10T07:47:05Z</time>
      </trkpt>
      <trkpt lat="50.22373" lon="1.61281">
        <ele>4.7</ele>
        <time>2023-06-10T07:47:07Z</time>
      </trkpt>
      <trkpt lat="50.2238" lon="1.61277">
        <ele>4.7</ele>
        <time>2023-06-10T07:47:09Z</time>
      </trkpt>
      <trkpt lat="50.22387" lon="1.61273">
        <ele>4.8</ele>
        <time>2023-06-10T07:47:11Z</time>
      </trkpt>
      <trkpt lat="50.22394" lon="1.61269">
        <ele>4.9</ele>
        <time>2023-06-10T07:47:13Z</time>
      </trkpt>
      <trkpt lat="50.22401" lon="1.61265">
        <ele>5</ele>
        <time>2023-06-10T07:47:15Z</time>
      </trkpt>
      <trkpt lat="50.22408" lon="1.61261">
        <ele>4.9</ele>
        <time>2023-06-10T07:47:17Z</time>
      </trkpt>
      <trkpt lat="50.22415" lon="1.61256">
        <ele>4.6</ele>
        <time>2023-06-10T07:47:19Z</time>
      </trkpt>
      <trkpt lat="50.22423" lon="1.61251">
        <ele>4.3</ele>
        <time>2023-06-10T07:47:21Z</time>
      </trkpt>
      <trkpt lat="50.2243" lon="1.61246">
        <ele>4.4</ele>
        <time>2023-06-10T07:47:23Z</time>
      </trkpt>
      <trkpt lat="50.22438" lon="1.61241">
        <ele>4.5</ele>
        <time>2023-06-10T07:47:25Z</time>
      </trkpt>
      <trkpt lat="50.22446" lon="1.61236">
        <ele>4.6</ele>
        <time>2023-06-10T07:47:27Z</time>
      </trkpt>
      <trkpt lat="50.22454" lon="1.61231">
        <ele>4.6</ele>
        <time>2023-06-10T07:47:29Z</time>
      </trkpt>
      <trkpt lat="50.22462" lon="1.61225">
        <ele>4.7</ele>
        <time>2023-06-10T07:47:31Z</time>
      </trkpt>
      <trkpt lat="50.2247" lon="1.6122">
        <ele>4.8</ele>
        <time>2023-06-10T07:47:33Z</time>
      </trkpt>
      <trkpt lat="50.22478" lon="1.61214">
        <ele>4.7</ele>
        <time>2023-06-10T07:47:35Z</time>
      </trkpt>
      <trkpt lat="50.22486" lon="1.61209">
        <ele>4.5</ele>
        <time>2023-06-10T07:47:37Z</time>
      </trkpt>
      <trkpt lat="50.22494" lon="1.61203">
        <ele>4.3</ele>
        <time>2023-06-10T07:47:39Z</time>
      </trkpt>
      <trkpt lat="50.22501" lon="1.61197">
        <ele>4.1</ele>
        <time>2023-06-10T07:47:41Z</time>
      </trkpt>
      <trkpt lat="50.22509" lon="1.6119">
        <ele>4.3</ele>
        <time>2023-06-10T07:47:43Z</time>
      </trkpt>
      <trkpt lat="50.22517" lon="1.61185">
        <ele>4.4</ele>
        <time>2023-06-10T07:47:45Z</time>
      </trkpt>
      <trkpt lat="50.22524" lon="1.6118">
        <ele>4.4</ele>
        <time>2023-06-10T07:47:47Z</time>
      </trkpt>
      <trkpt lat="50.22532" lon="1.61175">
        <ele>4.4</ele>
        <time>2023-06-10T07:47:49Z</time>
      </trkpt>
      <trkpt lat="50.2254" lon="1.61169">
        <ele>4.5</ele>
        <time>2023-06-10T07:47:51Z</time>
      </trkpt>
      <trkpt lat="50.22548" lon="1.61164">
        <ele>4.7</ele>
        <time>2023-06-10T07:47:53Z</time>
      </trkpt>
      <trkpt lat="50.22556" lon="1.61159">
        <ele>4.7</ele>
        <time>2023-06-10T07:47:55Z</time>
      </trkpt>
      <trkpt lat="50.22564" lon="1.61153">
        <ele>4.7</ele>
        <time>2023-06-10T07:47:57Z</time>
      </trkpt>
      <trkpt lat="50.22572" lon="1.61148">
        <ele>4.7</ele>
        <time>2023-06-10T07:47:59Z</time>
      </trkpt>
      <trkpt lat="50.22581" lon="1.61142">
        <ele>4.9</ele>
        <time>2023-06-10T07:48:01Z</time>
      </trkpt>
      <trkpt lat="50.22589" lon="1.61136">
        <ele>4.9</ele>
        <time>2023-06-10T07:48:03Z</time>
      </trkpt>
      <trkpt lat="50.22598" lon="1.61131">
        <ele>4.7</ele>
        <time>2023-06-10T07:48:05Z</time>
      </trkpt>
      <trkpt lat="50.22606" lon="1.61127">
        <ele>4.6</ele>
        <time>2023-06-10T07:48:07Z</time>
      </trkpt>
      <trkpt lat="50.22615" lon="1.61121">
        <ele>4.5</ele>
        <time>2023-06-10T07:48:09Z</time>
      </trkpt>
      <trkpt lat="50.22624" lon="1.61116">
        <ele>4.6</ele>
        <time>2023-06-10T07:48:11Z</time>
      </trkpt>
      <trkpt lat="50.22633" lon="1.6111">
        <ele>4.7</ele>
        <time>2023-06-10T07:48:13Z</time>
      </trkpt>
      <trkpt lat="50.22642" lon="1.61104">
        <ele>4.8</ele>
        <time>2023-06-10T07:48:15Z</time>
      </trkpt>
      <trkpt lat="50.2265" lon="1.61099">
        <ele>4.7</ele>
        <time>2023-06-10T07:48:17Z</time>
      </trkpt>
      <trkpt lat="50.22659" lon="1.61094">
        <ele>4.8</ele>
        <time>2023-06-10T07:48:19Z</time>
      </trkpt>
      <trkpt lat="50.22667" lon="1.61088">
        <ele>5</ele>
        <time>2023-06-10T07:48:21Z</time>
      </trkpt>
      <trkpt lat="50.22675" lon="1.61082">
        <ele>5</ele>
        <time>2023-06-10T07:48:23Z</time>
      </trkpt>
      <trkpt lat="50.22683" lon="1.61076">
        <ele>4.7</ele>
        <time>2023-06-10T07:48:25Z</time>
      </trkpt>
      <trkpt lat="50.22691" lon="1.6107">
        <ele>4.5</ele>
        <time>2023-06-10T07:48:27Z</time>
      </trkpt>
      <trkpt lat="50.227" lon="1.61064">
        <ele>4.4</ele>
        <time>2023-06-10T07:48:29Z</time>
      </trkpt>
      <trkpt lat="50.22708" lon="1.61058">
        <ele>4.5</ele>
        <time>2023-06-10T07:48:31Z</time>
      </trkpt>
      <trkpt lat="50.22717" lon="1.61052">
        <ele>4.7</ele>
        <time>2023-06-10T07:48:33Z</time>
      </trkpt>
      <trkpt lat="50.22724" lon="1.61046">
        <ele>4.7</ele>
        <time>2023-06-10T07:48:35Z</time>
      </trkpt>
      <trkpt lat="50.22732" lon="1.61041">
        <ele>4.7</ele>
        <time>2023-06-10T07:48:37Z</time>
      </trkpt>
      <trkpt lat="50.22741" lon="1.61035">
        <ele>4.8</ele>
        <time>2023-06-10T07:48:39Z</time>
      </trkpt>
      <trkpt lat="50.2275" lon="1.6103">
        <ele>5</ele>
        <time>2023-06-10T07:48:41Z</time>
      </trkpt>
      <trkpt lat="50.22757" lon="1.61024">
        <ele>4.9</ele>
        <time>2023-06-10T07:48:43Z</time>
      </trkpt>
      <trkpt lat="50.22765" lon="1.61018">
        <ele>4.7</ele>
        <time>2023-06-10T07:48:45Z</time>
      </trkpt>
      <trkpt lat="50.22773" lon="1.61012">
        <ele>4.4</ele>
        <time>2023-06-10T07:48:47Z</time>
      </trkpt>
      <trkpt lat="50.2278" lon="1.61007">
        <ele>4.3</ele>
        <time>2023-06-10T07:48:49Z</time>
      </trkpt>
      <trkpt lat="50.22787" lon="1.61002">
        <ele>4.4</ele>
        <time>2023-06-10T07:48:51Z</time>
      </trkpt>
      <trkpt lat="50.22793" lon="1.60997">
        <ele>4.5</ele>
        <time>2023-06-10T07:48:53Z</time>
      </trkpt>
      <trkpt lat="50.228" lon="1.60992">
        <ele>4.6</ele>
        <time>2023-06-10T07:48:55Z</time>
      </trkpt>
      <trkpt lat="50.22806" lon="1.60988">
        <ele>4.6</ele>
        <time>2023-06-10T07:48:57Z</time>
      </trkpt>
      <trkpt lat="50.22813" lon="1.60982">
        <ele>4.5</ele>
        <time>2023-06-10T07:48:59Z</time>
      </trkpt>
      <trkpt lat="50.22819" lon="1.60978">
        <ele>4.3</ele>
        <time>2023-06-10T07:49:01Z</time>
      </trkpt>
      <trkpt lat="50.22826" lon="1.60973">
        <ele>4.1</ele>
        <time>2023-06-10T07:49:03Z</time>
      </trkpt>
      <trkpt lat="50.22832" lon="1.60969">
        <ele>4</ele>
        <time>2023-06-10T07:49:05Z</time>
      </trkpt>
      <trkpt lat="50.22839" lon="1.60966">
        <ele>4.2</ele>
        <time>2023-06-10T07:49:07Z</time>
      </trkpt>
      <trkpt lat="50.22846" lon="1.60963">
        <ele>4.3</ele>
        <time>2023-06-10T07:49:09Z</time>
      </trkpt>
      <trkpt lat="50.22853" lon="1.60958">
        <ele>4.3</ele>
        <time>2023-06-10T07:49:11Z</time>
      </trkpt>
      <trkpt lat="50.2286" lon="1.60954">
        <ele>4.3</ele>
        <time>2023-06-10T07:49:13Z</time>
      </trkpt>
      <trkpt lat="50.22868" lon="1.60948">
        <ele>4.4</ele>
        <time>2023-06-10T07:49:15Z</time>
      </trkpt>
      <trkpt lat="50.22875" lon="1.60943">
        <ele>4.5</ele>
        <time>2023-06-10T07:49:17Z</time>
      </trkpt>
      <trkpt lat="50.22882" lon="1.6094">
        <ele>4.6</ele>
        <time>2023-06-10T07:49:19Z</time>
      </trkpt>
      <trkpt lat="50.22888" lon="1.60936">
        <ele>4.7</ele>
        <time>2023-06-10T07:49:21Z</time>
      </trkpt>
      <trkpt lat="50.22895" lon="1.60931">
        <ele>4.7</ele>
        <time>2023-06-10T07:49:23Z</time>
      </trkpt>
      <trkpt lat="50.22901" lon="1.60927">
        <ele>4.8</ele>
        <time>2023-06-10T07:49:25Z</time>
      </trkpt>
      <trkpt lat="50.22908" lon="1.60922">
        <ele>4.9</ele>
        <time>2023-06-10T07:49:27Z</time>
      </trkpt>
      <trkpt lat="50.22915" lon="1.60917">
        <ele>5</ele>
        <time>2023-06-10T07:49:29Z</time>
      </trkpt>
      <trkpt lat="50.22922" lon="1.60912">
        <ele>4.8</ele>
        <time>2023-06-10T07:49:31Z</time>
      </trkpt>
      <trkpt lat="50.22929" lon="1.60906">
        <ele>4.6</ele>
        <time>2023-06-10T07:49:33Z</time>
      </trkpt>
      <trkpt lat="50.22936" lon="1.60902">
        <ele>4.5</ele>
        <time>2023-06-10T07:49:35Z</time>
      </trkpt>
      <trkpt lat="50.22944" lon="1.60898">
        <ele>4.3</ele>
        <time>2023-06-10T07:49:37Z</time>
      </trkpt>
      <trkpt lat="50.22951" lon="1.60893">
        <ele>4.4</ele>
        <time>2023-06-10T07:49:39Z</time>
      </trkpt>
      <trkpt lat="50.22958" lon="1.60888">
        <ele>4.5</ele>
        <time>2023-06-10T07:49:41Z</time>
      </trkpt>
      <trkpt lat="50.22966" lon="1.60883">
        <ele>4.6</ele>
        <time>2023-06-10T07:49:43Z</time>
      </trkpt>
      <trkpt lat="50.22973" lon="1.60878">
        <ele>4.6</ele>
        <time>2023-06-10T07:49:45Z</time>
      </trkpt>
      <trkpt lat="50.22981" lon="1.60873">
        <ele>4.7</ele>
        <time>2023-06-10T07:49:47Z</time>
      </trkpt>
      <trkpt lat="50.22988" lon="1.60868">
        <ele>4.8</ele>
        <time>2023-06-10T07:49:49Z</time>
      </trkpt>
      <trkpt lat="50.22995" lon="1.60863">
        <ele>4.9</ele>
        <time>2023-06-10T07:49:51Z</time>
      </trkpt>
      <trkpt lat="50.23003" lon="1.60857">
        <ele>4.9</ele>
        <time>2023-06-10T07:49:53Z</time>
      </trkpt>
      <trkpt lat="50.23011" lon="1.60852">
        <ele>4.9</ele>
        <time>2023-06-10T07:49:55Z</time>
      </trkpt>
      <trkpt lat="50.23019" lon="1.60847">
        <ele>4.8</ele>
        <time>2023-06-10T07:49:57Z</time>
      </trkpt>
      <trkpt lat="50.23027" lon="1.60842">
        <ele>4.6</ele>
        <time>2023-06-10T07:49:59Z</time>
      </trkpt>
      <trkpt lat="50.23035" lon="1.60838">
        <ele>4.6</ele>
        <time>2023-06-10T07:50:01Z</time>
      </trkpt>
      <trkpt lat="50.23042" lon="1.60834">
        <ele>4.5</ele>
        <time>2023-06-10T07:50:03Z</time>
      </trkpt>
      <trkpt lat="50.23049" lon="1.60829">
        <ele>4.6</ele>
        <time>2023-06-10T07:50:05Z</time>
      </trkpt>
      <trkpt lat="50.23056" lon="1.60823">
        <ele>4.7</ele>
        <time>2023-06-10T07:50:07Z</time>
      </trkpt>
      <trkpt lat="50.23063" lon="1.60819">
        <ele>4.8</ele>
        <time>2023-06-10T07:50:09Z</time>
      </trkpt>
      <trkpt lat="50.23071" lon="1.60814">
        <ele>4.8</ele>
        <time>2023-06-10T07:50:11Z</time>
      </trkpt>
      <trkpt lat="50.23078" lon="1.60809">
        <ele>4.9</ele>
        <time>2023-06-10T07:50:13Z</time>
      </trkpt>
      <trkpt lat="50.23085" lon="1.60803">
        <ele>5</ele>
        <time>2023-06-10T07:50:15Z</time>
      </trkpt>
      <trkpt lat="50.23092" lon="1.60798">
        <ele>5</ele>
        <time>2023-06-10T07:50:17Z</time>
      </trkpt>
      <trkpt lat="50.23099" lon="1.60793">
        <ele>5.1</ele>
        <time>2023-06-10T07:50:19Z</time>
      </trkpt>
      <trkpt lat="50.23106" lon="1.60789">
        <ele>5.2</ele>
        <time>2023-06-10T07:50:21Z</time>
      </trkpt>
      <trkpt lat="50.23114" lon="1.60784">
        <ele>5.3</ele>
        <time>2023-06-10T07:50:23Z</time>
      </trkpt>
      <trkpt lat="50.23121" lon="1.60779">
        <ele>5.1</ele>
        <time>2023-06-10T07:50:25Z</time>
      </trkpt>
      <trkpt lat="50.23128" lon="1.60774">
        <ele>4.9</ele>
        <time>2023-06-10T07:50:27Z</time>
      </trkpt>
      <trkpt lat="50.23136" lon="1.60769">
        <ele>5</ele>
        <time>2023-06-10T07:50:29Z</time>
      </trkpt>
      <trkpt lat="50.23143" lon="1.60764">
        <ele>5.1</ele>
        <time>2023-06-10T07:50:31Z</time>
      </trkpt>
      <trkpt lat="50.23151" lon="1.60758">
        <ele>5.1</ele>
        <time>2023-06-10T07:50:33Z</time>
      </trkpt>
      <trkpt lat="50.23159" lon="1.60753">
        <ele>5.1</ele>
        <time>2023-06-10T07:50:35Z</time>
      </trkpt>
      <trkpt lat="50.23166" lon="1.60748">
        <ele>4.9</ele>
        <time>2023-06-10T07:50:37Z</time>
      </trkpt>
      <trkpt lat="50.23173" lon="1.60743">
        <ele>5</ele>
        <time>2023-06-10T07:50:39Z</time>
      </trkpt>
      <trkpt lat="50.2318" lon="1.60737">
        <ele>5</ele>
        <time>2023-06-10T07:50:41Z</time>
      </trkpt>
      <trkpt lat="50.23188" lon="1.60732">
        <ele>5.1</ele>
        <time>2023-06-10T07:50:43Z</time>
      </trkpt>
      <trkpt lat="50.23195" lon="1.60726">
        <ele>5.2</ele>
        <time>2023-06-10T07:50:45Z</time>
      </trkpt>
      <trkpt lat="50.23203" lon="1.60721">
        <ele>5.3</ele>
        <time>2023-06-10T07:50:47Z</time>
      </trkpt>
      <trkpt lat="50.2321" lon="1.60717">
        <ele>5.4</ele>
        <time>2023-06-10T07:50:49Z</time>
      </trkpt>
      <trkpt lat="50.23216" lon="1.60711">
        <ele>5.5</ele>
        <time>2023-06-10T07:50:51Z</time>
      </trkpt>
      <trkpt lat="50.23223" lon="1.60706">
        <ele>5.4</ele>
        <time>2023-06-10T07:50:53Z</time>
      </trkpt>
      <trkpt lat="50.23231" lon="1.607">
        <ele>5.3</ele>
        <time>2023-06-10T07:50:55Z</time>
      </trkpt>
      <trkpt lat="50.23239" lon="1.60694">
        <ele>5</ele>
        <time>2023-06-10T07:50:57Z</time>
      </trkpt>
      <trkpt lat="50.23246" lon="1.60689">
        <ele>5</ele>
        <time>2023-06-10T07:50:59Z</time>
      </trkpt>
      <trkpt lat="50.23254" lon="1.60684">
        <ele>5.1</ele>
        <time>2023-06-10T07:51:01Z</time>
      </trkpt>
      <trkpt lat="50.23261" lon="1.60679">
        <ele>5.2</ele>
        <time>2023-06-10T07:51:03Z</time>
      </trkpt>
      <trkpt lat="50.23269" lon="1.60674">
        <ele>5.2</ele>
        <time>2023-06-10T07:51:05Z</time>
      </trkpt>
      <trkpt lat="50.23277" lon="1.6067">
        <ele>5.1</ele>
        <time>2023-06-10T07:51:07Z</time>
      </trkpt>
      <trkpt lat="50.23285" lon="1.60665">
        <ele>5.2</ele>
        <time>2023-06-10T07:51:09Z</time>
      </trkpt>
      <trkpt lat="50.23292" lon="1.60659">
        <ele>5.4</ele>
        <time>2023-06-10T07:51:11Z</time>
      </trkpt>
      <trkpt lat="50.233" lon="1.60655">
        <ele>5.4</ele>
        <time>2023-06-10T07:51:13Z</time>
      </trkpt>
      <trkpt lat="50.23307" lon="1.6065">
        <ele>5.4</ele>
        <time>2023-06-10T07:51:15Z</time>
      </trkpt>
      <trkpt lat="50.23315" lon="1.60644">
        <ele>5.3</ele>
        <time>2023-06-10T07:51:17Z</time>
      </trkpt>
      <trkpt lat="50.23323" lon="1.60639">
        <ele>5</ele>
        <time>2023-06-10T07:51:19Z</time>
      </trkpt>
      <trkpt lat="50.23331" lon="1.60634">
        <ele>5</ele>
        <time>2023-06-10T07:51:21Z</time>
      </trkpt>
      <trkpt lat="50.23338" lon="1.60628">
        <ele>5.2</ele>
        <time>2023-06-10T07:51:23Z</time>
      </trkpt>
      <trkpt lat="50.23346" lon="1.60622">
        <ele>5.4</ele>
        <time>2023-06-10T07:51:25Z</time>
      </trkpt>
      <trkpt lat="50.23353" lon="1.60617">
        <ele>5.3</ele>
        <time>2023-06-10T07:51:27Z</time>
      </trkpt>
      <trkpt lat="50.23361" lon="1.60612">
        <ele>5.1</ele>
        <time>2023-06-10T07:51:29Z</time>
      </trkpt>
      <trkpt lat="50.23368" lon="1.60607">
        <ele>5.1</ele>
        <time>2023-06-10T07:51:31Z</time>
      </trkpt>
      <trkpt lat="50.23375" lon="1.60601">
        <ele>5.1</ele>
        <time>2023-06-10T07:51:33Z</time>
      </trkpt>
      <trkpt lat="50.23383" lon="1.60595">
        <ele>5.2</ele>
        <time>2023-06-10T07:51:35Z</time>
      </trkpt>
      <trkpt lat="50.2339" lon="1.60589">
        <ele>5.3</ele>
        <time>2023-06-10T07:51:37Z</time>
      </trkpt>
      <trkpt lat="50.23397" lon="1.60584">
        <ele>5.3</ele>
        <time>2023-06-10T07:51:39Z</time>
      </trkpt>
      <trkpt lat="50.23404" lon="1.60578">
        <ele>5.3</ele>
        <time>2023-06-10T07:51:41Z</time>
      </trkpt>
      <trkpt lat="50.23411" lon="1.60572">
        <ele>5.4</ele>
        <time>2023-06-10T07:51:43Z</time>
      </trkpt>
      <trkpt lat="50.23418" lon="1.60566">
        <ele>5.4</ele>
        <time>2023-06-10T07:51:45Z</time>
      </trkpt>
      <trkpt lat="50.23425" lon="1.60559">
        <ele>5.5</ele>
        <time>2023-06-10T07:51:47Z</time>
      </trkpt>
      <trkpt lat="50.23432" lon="1.60553">
        <ele>5.5</ele>
        <time>2023-06-10T07:51:49Z</time>
      </trkpt>
      <trkpt lat="50.23439" lon="1.60548">
        <ele>5.5</ele>
        <time>2023-06-10T07:51:51Z</time>
      </trkpt>
      <trkpt lat="50.23446" lon="1.60542">
        <ele>5.6</ele>
        <time>2023-06-10T07:51:53Z</time>
      </trkpt>
      <trkpt lat="50.23453" lon="1.60535">
        <ele>5.6</ele>
        <time>2023-06-10T07:51:55Z</time>
      </trkpt>
      <trkpt lat="50.2346" lon="1.6053">
        <ele>5.7</ele>
        <time>2023-06-10T07:51:57Z</time>
      </trkpt>
      <trkpt lat="50.23467" lon="1.60525">
        <ele>5.7</ele>
        <time>2023-06-10T07:51:59Z</time>
      </trkpt>
      <trkpt lat="50.23473" lon="1.60518">
        <ele>5.7</ele>
        <time>2023-06-10T07:52:01Z</time>
      </trkpt>
      <trkpt lat="50.2348" lon="1.60512">
        <ele>5.9</ele>
        <time>2023-06-10T07:52:03Z</time>
      </trkpt>
      <trkpt lat="50.23487" lon="1.60505">
        <ele>5.9</ele>
        <time>2023-06-10T07:52:05Z</time>
      </trkpt>
      <trkpt lat="50.23494" lon="1.60498">
        <ele>5.7</ele>
        <time>2023-06-10T07:52:07Z</time>
      </trkpt>
      <trkpt lat="50.23501" lon="1.60493">
        <ele>5.8</ele>
        <time>2023-06-10T07:52:09Z</time>
      </trkpt>
      <trkpt lat="50.23508" lon="1.60487">
        <ele>6.1</ele>
        <time>2023-06-10T07:52:11Z</time>
      </trkpt>
      <trkpt lat="50.23515" lon="1.60481">
        <ele>6.2</ele>
        <time>2023-06-10T07:52:13Z</time>
      </trkpt>
      <trkpt lat="50.23523" lon="1.60474">
        <ele>6</ele>
        <time>2023-06-10T07:52:15Z</time>
      </trkpt>
      <trkpt lat="50.2353" lon="1.60468">
        <ele>6</ele>
        <time>2023-06-10T07:52:17Z</time>
      </trkpt>
      <trkpt lat="50.23536" lon="1.60462">
        <ele>6</ele>
        <time>2023-06-10T07:52:19Z</time>
      </trkpt>
      <trkpt lat="50.23542" lon="1.60456">
        <ele>5.8</ele>
        <time>2023-06-10T07:52:21Z</time>
      </trkpt>
      <trkpt lat="50.23548" lon="1.6045">
        <ele>5.5</ele>
        <time>2023-06-10T07:52:23Z</time>
      </trkpt>
      <trkpt lat="50.23554" lon="1.60444">
        <ele>5</ele>
        <time>2023-06-10T07:52:25Z</time>
      </trkpt>
      <trkpt lat="50.23561" lon="1.60438">
        <ele>5.4</ele>
        <time>2023-06-10T07:52:27Z</time>
      </trkpt>
      <trkpt lat="50.23566" lon="1.60432">
        <ele>5.6</ele>
        <time>2023-06-10T07:52:29Z</time>
      </trkpt>
      <trkpt lat="50.23572" lon="1.60427">
        <ele>5.6</ele>
        <time>2023-06-10T07:52:31Z</time>
      </trkpt>
      <trkpt lat="50.23577" lon="1.60421">
        <ele>5.4</ele>
        <time>2023-06-10T07:52:33Z</time>
      </trkpt>
      <trkpt lat="50.23583" lon="1.60415">
        <ele>5</ele>
        <time>2023-06-10T07:52:35Z</time>
      </trkpt>
      <trkpt lat="50.2359" lon="1.60409">
        <ele>5.5</ele>
        <time>2023-06-10T07:52:37Z</time>
      </trkpt>
      <trkpt lat="50.23596" lon="1.60403">
        <ele>5.7</ele>
        <time>2023-06-10T07:52:39Z</time>
      </trkpt>
      <trkpt lat="50.23602" lon="1.60398">
        <ele>5.6</ele>
        <time>2023-06-10T07:52:41Z</time>
      </trkpt>
      <trkpt lat="50.23608" lon="1.60392">
        <ele>5.3</ele>
        <time>2023-06-10T07:52:43Z</time>
      </trkpt>
      <trkpt lat="50.23615" lon="1.60386">
        <ele>5.2</ele>
        <time>2023-06-10T07:52:45Z</time>
      </trkpt>
      <trkpt lat="50.23621" lon="1.6038">
        <ele>5.5</ele>
        <time>2023-06-10T07:52:47Z</time>
      </trkpt>
      <trkpt lat="50.23627" lon="1.60374">
        <ele>5.5</ele>
        <time>2023-06-10T07:52:49Z</time>
      </trkpt>
      <trkpt lat="50.23632" lon="1.60367">
        <ele>5.3</ele>
        <time>2023-06-10T07:52:51Z</time>
      </trkpt>
      <trkpt lat="50.23639" lon="1.60362">
        <ele>5</ele>
        <time>2023-06-10T07:52:53Z</time>
      </trkpt>
      <trkpt lat="50.23644" lon="1.60357">
        <ele>5.3</ele>
        <time>2023-06-10T07:52:55Z</time>
      </trkpt>
      <trkpt lat="50.2365" lon="1.60352">
        <ele>5.5</ele>
        <time>2023-06-10T07:52:57Z</time>
      </trkpt>
      <trkpt lat="50.23655" lon="1.60346">
        <ele>5.5</ele>
        <time>2023-06-10T07:52:59Z</time>
      </trkpt>
      <trkpt lat="50.23661" lon="1.6034">
        <ele>5.4</ele>
        <time>2023-06-10T07:53:01Z</time>
      </trkpt>
      <trkpt lat="50.23667" lon="1.60334">
        <ele>5</ele>
        <time>2023-06-10T07:53:03Z</time>
      </trkpt>
      <trkpt lat="50.23672" lon="1.60328">
        <ele>5.5</ele>
        <time>2023-06-10T07:53:05Z</time>
      </trkpt>
      <trkpt lat="50.23679" lon="1.60321">
        <ele>5.7</ele>
        <time>2023-06-10T07:53:07Z</time>
      </trkpt>
      <trkpt lat="50.23685" lon="1.60315">
        <ele>5.6</ele>
        <time>2023-06-10T07:53:09Z</time>
      </trkpt>
      <trkpt lat="50.23691" lon="1.60308">
        <ele>5.2</ele>
        <time>2023-06-10T07:53:11Z</time>
      </trkpt>
      <trkpt lat="50.23697" lon="1.60301">
        <ele>5.3</ele>
        <time>2023-06-10T07:53:13Z</time>
      </trkpt>
      <trkpt lat="50.23704" lon="1.60293">
        <ele>5.7</ele>
        <time>2023-06-10T07:53:15Z</time>
      </trkpt>
      <trkpt lat="50.2371" lon="1.60285">
        <ele>5.8</ele>
        <time>2023-06-10T07:53:17Z</time>
      </trkpt>
      <trkpt lat="50.23716" lon="1.60278">
        <ele>5.8</ele>
        <time>2023-06-10T07:53:19Z</time>
      </trkpt>
      <trkpt lat="50.2372" lon="1.60271">
        <ele>5.7</ele>
        <time>2023-06-10T07:53:21Z</time>
      </trkpt>
      <trkpt lat="50.23725" lon="1.60264">
        <ele>5.7</ele>
        <time>2023-06-10T07:53:23Z</time>
      </trkpt>
      <trkpt lat="50.23729" lon="1.60254">
        <ele>5.7</ele>
        <time>2023-06-10T07:53:25Z</time>
      </trkpt>
      <trkpt lat="50.23734" lon="1.60247">
        <ele>5.8</ele>
        <time>2023-06-10T07:53:27Z</time>
      </trkpt>
      <trkpt lat="50.23739" lon="1.60237">
        <ele>5.7</ele>
        <time>2023-06-10T07:53:29Z</time>
      </trkpt>
      <trkpt lat="50.23744" lon="1.60228">
        <ele>5.3</ele>
        <time>2023-06-10T07:53:31Z</time>
      </trkpt>
      <trkpt lat="50.2375" lon="1.60221">
        <ele>5</ele>
        <time>2023-06-10T07:53:33Z</time>
      </trkpt>
      <trkpt lat="50.23756" lon="1.60215">
        <ele>5.3</ele>
        <time>2023-06-10T07:53:35Z</time>
      </trkpt>
      <trkpt lat="50.23762" lon="1.60209">
        <ele>5.4</ele>
        <time>2023-06-10T07:53:37Z</time>
      </trkpt>
      <trkpt lat="50.23768" lon="1.60204">
        <ele>5.5</ele>
        <time>2023-06-10T07:53:39Z</time>
      </trkpt>
      <trkpt lat="50.23774" lon="1.602">
        <ele>5.4</ele>
        <time>2023-06-10T07:53:41Z</time>
      </trkpt>
      <trkpt lat="50.2378" lon="1.60194">
        <ele>5.2</ele>
        <time>2023-06-10T07:53:43Z</time>
      </trkpt>
      <trkpt lat="50.23785" lon="1.60187">
        <ele>5.7</ele>
        <time>2023-06-10T07:53:45Z</time>
      </trkpt>
      <trkpt lat="50.2379" lon="1.60178">
        <ele>5.8</ele>
        <time>2023-06-10T07:53:47Z</time>
      </trkpt>
      <trkpt lat="50.23796" lon="1.6017">
        <ele>5.8</ele>
        <time>2023-06-10T07:53:49Z</time>
      </trkpt>
      <trkpt lat="50.23801" lon="1.60161">
        <ele>5.7</ele>
        <time>2023-06-10T07:53:51Z</time>
      </trkpt>
      <trkpt lat="50.23807" lon="1.60152">
        <ele>5.6</ele>
        <time>2023-06-10T07:53:53Z</time>
      </trkpt>
      <trkpt lat="50.23812" lon="1.60143">
        <ele>5.5</ele>
        <time>2023-06-10T07:53:55Z</time>
      </trkpt>
      <trkpt lat="50.23817" lon="1.60135">
        <ele>5.4</ele>
        <time>2023-06-10T07:53:57Z</time>
      </trkpt>
      <trkpt lat="50.23823" lon="1.60126">
        <ele>5.3</ele>
        <time>2023-06-10T07:53:59Z</time>
      </trkpt>
      <trkpt lat="50.23829" lon="1.60118">
        <ele>5.2</ele>
        <time>2023-06-10T07:54:01Z</time>
      </trkpt>
      <trkpt lat="50.23836" lon="1.60111">
        <ele>5.2</ele>
        <time>2023-06-10T07:54:03Z</time>
      </trkpt>
      <trkpt lat="50.23842" lon="1.60105">
        <ele>5.5</ele>
        <time>2023-06-10T07:54:05Z</time>
      </trkpt>
      <trkpt lat="50.23848" lon="1.60101">
        <ele>5.7</ele>
        <time>2023-06-10T07:54:07Z</time>
      </trkpt>
      <trkpt lat="50.23854" lon="1.60096">
        <ele>5.7</ele>
        <time>2023-06-10T07:54:09Z</time>
      </trkpt>
      <trkpt lat="50.23859" lon="1.6009">
        <ele>5.5</ele>
        <time>2023-06-10T07:54:11Z</time>
      </trkpt>
      <trkpt lat="50.23865" lon="1.60083">
        <ele>5.3</ele>
        <time>2023-06-10T07:54:13Z</time>
      </trkpt>
      <trkpt lat="50.23872" lon="1.60076">
        <ele>5.6</ele>
        <time>2023-06-10T07:54:15Z</time>
      </trkpt>
      <trkpt lat="50.23879" lon="1.60069">
        <ele>5.6</ele>
        <time>2023-06-10T07:54:17Z</time>
      </trkpt>
      <trkpt lat="50.23885" lon="1.60061">
        <ele>5.4</ele>
        <time>2023-06-10T07:54:19Z</time>
      </trkpt>
      <trkpt lat="50.23892" lon="1.60054">
        <ele>5.2</ele>
        <time>2023-06-10T07:54:21Z</time>
      </trkpt>
      <trkpt lat="50.23899" lon="1.60047">
        <ele>5.5</ele>
        <time>2023-06-10T07:54:23Z</time>
      </trkpt>
      <trkpt lat="50.23907" lon="1.6004">
        <ele>5.6</ele>
        <time>2023-06-10T07:54:25Z</time>
      </trkpt>
      <trkpt lat="50.23914" lon="1.60033">
        <ele>5.3</ele>
        <time>2023-06-10T07:54:27Z</time>
      </trkpt>
      <trkpt lat="50.23921" lon="1.60027">
        <ele>5.3</ele>
        <time>2023-06-10T07:54:29Z</time>
      </trkpt>
      <trkpt lat="50.23928" lon="1.6002">
        <ele>5.6</ele>
        <time>2023-06-10T07:54:31Z</time>
      </trkpt>
      <trkpt lat="50.23935" lon="1.60013">
        <ele>5.6</ele>
        <time>2023-06-10T07:54:33Z</time>
      </trkpt>
      <trkpt lat="50.23942" lon="1.60005">
        <ele>5.3</ele>
        <time>2023-06-10T07:54:35Z</time>
      </trkpt>
      <trkpt lat="50.23948" lon="1.59997">
        <ele>5.3</ele>
        <time>2023-06-10T07:54:37Z</time>
      </trkpt>
      <trkpt lat="50.23954" lon="1.59988">
        <ele>5.7</ele>
        <time>2023-06-10T07:54:39Z</time>
      </trkpt>
      <trkpt lat="50.23959" lon="1.5998">
        <ele>5.8</ele>
        <time>2023-06-10T07:54:41Z</time>
      </trkpt>
      <trkpt lat="50.23964" lon="1.59973">
        <ele>5.8</ele>
        <time>2023-06-10T07:54:43Z</time>
      </trkpt>
      <trkpt lat="50.23969" lon="1.59966">
        <ele>5.7</ele>
        <time>2023-06-10T07:54:45Z</time>
      </trkpt>
      <trkpt lat="50.23974" lon="1.59959">
        <ele>5.6</ele>
        <time>2023-06-10T07:54:47Z</time>
      </trkpt>
      <trkpt lat="50.2398" lon="1.59953">
        <ele>5.7</ele>
        <time>2023-06-10T07:54:49Z</time>
      </trkpt>
      <trkpt lat="50.23986" lon="1.59947">
        <ele>5.6</ele>
        <time>2023-06-10T07:54:51Z</time>
      </trkpt>
      <trkpt lat="50.23992" lon="1.5994">
        <ele>5.6</ele>
        <time>2023-06-10T07:54:53Z</time>
      </trkpt>
      <trkpt lat="50.23998" lon="1.59934">
        <ele>5.6</ele>
        <time>2023-06-10T07:54:55Z</time>
      </trkpt>
      <trkpt lat="50.24005" lon="1.59928">
        <ele>5.7</ele>
        <time>2023-06-10T07:54:57Z</time>
      </trkpt>
      <trkpt lat="50.24011" lon="1.59921">
        <ele>5.7</ele>
        <time>2023-06-10T07:54:59Z</time>
      </trkpt>
      <trkpt lat="50.24017" lon="1.59915">
        <ele>5.6</ele>
        <time>2023-06-10T07:55:01Z</time>
      </trkpt>
      <trkpt lat="50.24022" lon="1.5991">
        <ele>5.6</ele>
        <time>2023-06-10T07:55:03Z</time>
      </trkpt>
      <trkpt lat="50.24029" lon="1.59904">
        <ele>5.6</ele>
        <time>2023-06-10T07:55:05Z</time>
      </trkpt>
      <trkpt lat="50.24035" lon="1.59898">
        <ele>5.8</ele>
        <time>2023-06-10T07:55:07Z</time>
      </trkpt>
      <trkpt lat="50.24041" lon="1.59891">
        <ele>5.7</ele>
        <time>2023-06-10T07:55:09Z</time>
      </trkpt>
      <trkpt lat="50.24048" lon="1.59885">
        <ele>5.6</ele>
        <time>2023-06-10T07:55:11Z</time>
      </trkpt>
      <trkpt lat="50.24054" lon="1.59878">
        <ele>5.6</ele>
        <time>2023-06-10T07:55:13Z</time>
      </trkpt>
      <trkpt lat="50.24059" lon="1.59871">
        <ele>5.8</ele>
        <time>2023-06-10T07:55:15Z</time>
      </trkpt>
      <trkpt lat="50.24065" lon="1.59863">
        <ele>6.1</ele>
        <time>2023-06-10T07:55:17Z</time>
      </trkpt>
      <trkpt lat="50.2407" lon="1.59855">
        <ele>6.3</ele>
        <time>2023-06-10T07:55:19Z</time>
      </trkpt>
      <trkpt lat="50.24075" lon="1.59847">
        <ele>6</ele>
        <time>2023-06-10T07:55:21Z</time>
      </trkpt>
      <trkpt lat="50.2408" lon="1.59838">
        <ele>5.4</ele>
        <time>2023-06-10T07:55:23Z</time>
      </trkpt>
      <trkpt lat="50.24084" lon="1.59827">
        <ele>5</ele>
        <time>2023-06-10T07:55:25Z</time>
      </trkpt>
      <trkpt lat="50.24087" lon="1.59817">
        <ele>5.3</ele>
        <time>2023-06-10T07:55:27Z</time>
      </trkpt>
      <trkpt lat="50.24092" lon="1.59807">
        <ele>5.4</ele>
        <time>2023-06-10T07:55:29Z</time>
      </trkpt>
      <trkpt lat="50.24097" lon="1.59797">
        <ele>5.4</ele>
        <time>2023-06-10T07:55:31Z</time>
      </trkpt>
      <trkpt lat="50.24103" lon="1.5979">
        <ele>5.3</ele>
        <time>2023-06-10T07:55:33Z</time>
      </trkpt>
      <trkpt lat="50.24109" lon="1.59782">
        <ele>5.1</ele>
        <time>2023-06-10T07:55:35Z</time>
      </trkpt>
      <trkpt lat="50.24115" lon="1.59775">
        <ele>5.3</ele>
        <time>2023-06-10T07:55:37Z</time>
      </trkpt>
      <trkpt lat="50.24121" lon="1.59768">
        <ele>5.5</ele>
        <time>2023-06-10T07:55:39Z</time>
      </trkpt>
      <trkpt lat="50.24127" lon="1.59761">
        <ele>5.4</ele>
        <time>2023-06-10T07:55:41Z</time>
      </trkpt>
      <trkpt lat="50.24132" lon="1.59753">
        <ele>5.2</ele>
        <time>2023-06-10T07:55:43Z</time>
      </trkpt>
      <trkpt lat="50.24137" lon="1.59746">
        <ele>5</ele>
        <time>2023-06-10T07:55:45Z</time>
      </trkpt>
      <trkpt lat="50.24141" lon="1.59739">
        <ele>5.2</ele>
        <time>2023-06-10T07:55:47Z</time>
      </trkpt>
      <trkpt lat="50.24146" lon="1.59732">
        <ele>5.5</ele>
        <time>2023-06-10T07:55:49Z</time>
      </trkpt>
      <trkpt lat="50.24152" lon="1.59724">
        <ele>5.5</ele>
        <time>2023-06-10T07:55:51Z</time>
      </trkpt>
      <trkpt lat="50.24158" lon="1.59716">
        <ele>5.5</ele>
        <time>2023-06-10T07:55:53Z</time>
      </trkpt>
      <trkpt lat="50.24164" lon="1.59708">
        <ele>5.4</ele>
        <time>2023-06-10T07:55:55Z</time>
      </trkpt>
      <trkpt lat="50.2417" lon="1.597">
        <ele>5.4</ele>
        <time>2023-06-10T07:55:57Z</time>
      </trkpt>
      <trkpt lat="50.24175" lon="1.59693">
        <ele>5.3</ele>
        <time>2023-06-10T07:55:59Z</time>
      </trkpt>
      <trkpt lat="50.24181" lon="1.59686">
        <ele>5.4</ele>
        <time>2023-06-10T07:56:01Z</time>
      </trkpt>
      <trkpt lat="50.24188" lon="1.59679">
        <ele>5.3</ele>
        <time>2023-06-10T07:56:03Z</time>
      </trkpt>
      <trkpt lat="50.24194" lon="1.59671">
        <ele>5.2</ele>
        <time>2023-06-10T07:56:05Z</time>
      </trkpt>
      <trkpt lat="50.242" lon="1.59664">
        <ele>5.2</ele>
        <time>2023-06-10T07:56:07Z</time>
      </trkpt>
      <trkpt lat="50.24207" lon="1.59656">
        <ele>5.3</ele>
        <time>2023-06-10T07:56:09Z</time>
      </trkpt>
      <trkpt lat="50.24213" lon="1.5965">
        <ele>5.3</ele>
        <time>2023-06-10T07:56:11Z</time>
      </trkpt>
      <trkpt lat="50.24219" lon="1.59643">
        <ele>5.1</ele>
        <time>2023-06-10T07:56:13Z</time>
      </trkpt>
      <trkpt lat="50.24225" lon="1.59639">
        <ele>5.1</ele>
        <time>2023-06-10T07:56:15Z</time>
      </trkpt>
      <trkpt lat="50.24231" lon="1.59633">
        <ele>5.2</ele>
        <time>2023-06-10T07:56:17Z</time>
      </trkpt>
      <trkpt lat="50.24235" lon="1.59628">
        <ele>5.3</ele>
        <time>2023-06-10T07:56:19Z</time>
      </trkpt>
      <trkpt lat="50.24241" lon="1.59623">
        <ele>5.3</ele>
        <time>2023-06-10T07:56:21Z</time>
      </trkpt>
      <trkpt lat="50.24246" lon="1.59618">
        <ele>5.2</ele>
        <time>2023-06-10T07:56:23Z</time>
      </trkpt>
      <trkpt lat="50.24251" lon="1.59613">
        <ele>5.1</ele>
        <time>2023-06-10T07:56:25Z</time>
      </trkpt>
      <trkpt lat="50.24255" lon="1.59604">
        <ele>5.1</ele>
        <time>2023-06-10T07:56:27Z</time>
      </trkpt>
      <trkpt lat="50.2426" lon="1.59596">
        <ele>5.2</ele>
        <time>2023-06-10T07:56:29Z</time>
      </trkpt>
      <trkpt lat="50.24267" lon="1.59589">
        <ele>5.1</ele>
        <time>2023-06-10T07:56:31Z</time>
      </trkpt>
      <trkpt lat="50.24273" lon="1.59583">
        <ele>5</ele>
        <time>2023-06-10T07:56:33Z</time>
      </trkpt>
      <trkpt lat="50.2428" lon="1.59577">
        <ele>5.1</ele>
        <time>2023-06-10T07:56:35Z</time>
      </trkpt>
      <trkpt lat="50.24286" lon="1.5957">
        <ele>5.2</ele>
        <time>2023-06-10T07:56:37Z</time>
      </trkpt>
      <trkpt lat="50.24292" lon="1.59564">
        <ele>5.2</ele>
        <time>2023-06-10T07:56:39Z</time>
      </trkpt>
      <trkpt lat="50.24299" lon="1.59558">
        <ele>5.1</ele>
        <time>2023-06-10T07:56:41Z</time>
      </trkpt>
      <trkpt lat="50.24304" lon="1.59551">
        <ele>5</ele>
        <time>2023-06-10T07:56:43Z</time>
      </trkpt>
      <trkpt lat="50.24311" lon="1.59545">
        <ele>5.2</ele>
        <time>2023-06-10T07:56:45Z</time>
      </trkpt>
      <trkpt lat="50.24317" lon="1.59539">
        <ele>5.3</ele>
        <time>2023-06-10T07:56:47Z</time>
      </trkpt>
      <trkpt lat="50.24322" lon="1.59532">
        <ele>5.2</ele>
        <time>2023-06-10T07:56:49Z</time>
      </trkpt>
      <trkpt lat="50.24329" lon="1.59526">
        <ele>5</ele>
        <time>2023-06-10T07:56:51Z</time>
      </trkpt>
      <trkpt lat="50.24335" lon="1.59519">
        <ele>5.1</ele>
        <time>2023-06-10T07:56:53Z</time>
      </trkpt>
      <trkpt lat="50.24342" lon="1.59512">
        <ele>5.3</ele>
        <time>2023-06-10T07:56:55Z</time>
      </trkpt>
      <trkpt lat="50.24348" lon="1.59507">
        <ele>5.3</ele>
        <time>2023-06-10T07:56:57Z</time>
      </trkpt>
      <trkpt lat="50.24355" lon="1.59502">
        <ele>5.1</ele>
        <time>2023-06-10T07:56:59Z</time>
      </trkpt>
      <trkpt lat="50.24361" lon="1.59496">
        <ele>5</ele>
        <time>2023-06-10T07:57:01Z</time>
      </trkpt>
      <trkpt lat="50.24368" lon="1.59491">
        <ele>5.3</ele>
        <time>2023-06-10T07:57:03Z</time>
      </trkpt>
      <trkpt lat="50.24374" lon="1.59484">
        <ele>5.4</ele>
        <time>2023-06-10T07:57:05Z</time>
      </trkpt>
      <trkpt lat="50.24381" lon="1.59478">
        <ele>5.3</ele>
        <time>2023-06-10T07:57:07Z</time>
      </trkpt>
      <trkpt lat="50.24387" lon="1.5947">
        <ele>5</ele>
        <time>2023-06-10T07:57:09Z</time>
      </trkpt>
      <trkpt lat="50.24393" lon="1.59464">
        <ele>5.2</ele>
        <time>2023-06-10T07:57:11Z</time>
      </trkpt>
      <trkpt lat="50.244" lon="1.59457">
        <ele>5.3</ele>
        <time>2023-06-10T07:57:13Z</time>
      </trkpt>
      <trkpt lat="50.24405" lon="1.5945">
        <ele>5.2</ele>
        <time>2023-06-10T07:57:15Z</time>
      </trkpt>
      <trkpt lat="50.24412" lon="1.59443">
        <ele>5</ele>
        <time>2023-06-10T07:57:17Z</time>
      </trkpt>
      <trkpt lat="50.24418" lon="1.59437">
        <ele>5.1</ele>
        <time>2023-06-10T07:57:19Z</time>
      </trkpt>
      <trkpt lat="50.24425" lon="1.5943">
        <ele>5.3</ele>
        <time>2023-06-10T07:57:21Z</time>
      </trkpt>
      <trkpt lat="50.24432" lon="1.59425">
        <ele>5.3</ele>
        <time>2023-06-10T07:57:23Z</time>
      </trkpt>
      <trkpt lat="50.24439" lon="1.5942">
        <ele>5.2</ele>
        <time>2023-06-10T07:57:25Z</time>
      </trkpt>
      <trkpt lat="50.24445" lon="1.59414">
        <ele>5.1</ele>
        <time>2023-06-10T07:57:27Z</time>
      </trkpt>
      <trkpt lat="50.24452" lon="1.59408">
        <ele>5.4</ele>
        <time>2023-06-10T07:57:29Z</time>
      </trkpt>
      <trkpt lat="50.24459" lon="1.59403">
        <ele>5.5</ele>
        <time>2023-06-10T07:57:31Z</time>
      </trkpt>
      <trkpt lat="50.24466" lon="1.59397">
        <ele>5.5</ele>
        <time>2023-06-10T07:57:33Z</time>
      </trkpt>
      <trkpt lat="50.24474" lon="1.59392">
        <ele>5.3</ele>
        <time>2023-06-10T07:57:35Z</time>
      </trkpt>
      <trkpt lat="50.24481" lon="1.59387">
        <ele>5.3</ele>
        <time>2023-06-10T07:57:37Z</time>
      </trkpt>
      <trkpt lat="50.24488" lon="1.59382">
        <ele>5.4</ele>
        <time>2023-06-10T07:57:39Z</time>
      </trkpt>
      <trkpt lat="50.24495" lon="1.59377">
        <ele>5.5</ele>
        <time>2023-06-10T07:57:41Z</time>
      </trkpt>
      <trkpt lat="50.24503" lon="1.59372">
        <ele>5.5</ele>
        <time>2023-06-10T07:57:43Z</time>
      </trkpt>
      <trkpt lat="50.2451" lon="1.59367">
        <ele>5.4</ele>
        <time>2023-06-10T07:57:45Z</time>
      </trkpt>
      <trkpt lat="50.24517" lon="1.59362">
        <ele>5.1</ele>
        <time>2023-06-10T07:57:47Z</time>
      </trkpt>
      <trkpt lat="50.24524" lon="1.59359">
        <ele>5</ele>
        <time>2023-06-10T07:57:49Z</time>
      </trkpt>
      <trkpt lat="50.24529" lon="1.59355">
        <ele>5</ele>
        <time>2023-06-10T07:57:51Z</time>
      </trkpt>
      <trkpt lat="50.24535" lon="1.59353">
        <ele>5.2</ele>
        <time>2023-06-10T07:57:53Z</time>
      </trkpt>
      <trkpt lat="50.2454" lon="1.59349">
        <ele>5.3</ele>
        <time>2023-06-10T07:57:55Z</time>
      </trkpt>
      <trkpt lat="50.24546" lon="1.59346">
        <ele>5.3</ele>
        <time>2023-06-10T07:57:57Z</time>
      </trkpt>
      <trkpt lat="50.24552" lon="1.59343">
        <ele>5.3</ele>
        <time>2023-06-10T07:57:59Z</time>
      </trkpt>
      <trkpt lat="50.24557" lon="1.59339">
        <ele>5.2</ele>
        <time>2023-06-10T07:58:01Z</time>
      </trkpt>
      <trkpt lat="50.24563" lon="1.59336">
        <ele>5.1</ele>
        <time>2023-06-10T07:58:03Z</time>
      </trkpt>
      <trkpt lat="50.24569" lon="1.59333">
        <ele>5</ele>
        <time>2023-06-10T07:58:05Z</time>
      </trkpt>
      <trkpt lat="50.24576" lon="1.59332">
        <ele>5</ele>
        <time>2023-06-10T07:58:07Z</time>
      </trkpt>
      <trkpt lat="50.24582" lon="1.59333">
        <ele>5</ele>
        <time>2023-06-10T07:58:09Z</time>
      </trkpt>
      <trkpt lat="50.24589" lon="1.59333">
        <ele>5</ele>
        <time>2023-06-10T07:58:11Z</time>
      </trkpt>
      <trkpt lat="50.24595" lon="1.59332">
        <ele>5</ele>
        <time>2023-06-10T07:58:13Z</time>
      </trkpt>
      <trkpt lat="50.24601" lon="1.59331">
        <ele>5</ele>
        <time>2023-06-10T07:58:15Z</time>
      </trkpt>
      <trkpt lat="50.24607" lon="1.5933">
        <ele>5</ele>
        <time>2023-06-10T07:58:17Z</time>
      </trkpt>
      <trkpt lat="50.24613" lon="1.5933">
        <ele>5</ele>
        <time>2023-06-10T07:58:19Z</time>
      </trkpt>
      <trkpt lat="50.2462" lon="1.59329">
        <ele>5</ele>
        <time>2023-06-10T07:58:21Z</time>
      </trkpt>
      <trkpt lat="50.24626" lon="1.59329">
        <ele>5</ele>
        <time>2023-06-10T07:58:23Z</time>
      </trkpt>
      <trkpt lat="50.24632" lon="1.59328">
        <ele>5</ele>
        <time>2023-06-10T07:58:25Z</time>
      </trkpt>
      <trkpt lat="50.24638" lon="1.59328">
        <ele>5</ele>
        <time>2023-06-10T07:58:27Z</time>
      </trkpt>
      <trkpt lat="50.24645" lon="1.59327">
        <ele>5.2</ele>
        <time>2023-06-10T07:58:29Z</time>
      </trkpt>
      <trkpt lat="50.24653" lon="1.59326">
        <ele>5.4</ele>
        <time>2023-06-10T07:58:31Z</time>
      </trkpt>
      <trkpt lat="50.2466" lon="1.59325">
        <ele>5.5</ele>
        <time>2023-06-10T07:58:33Z</time>
      </trkpt>
      <trkpt lat="50.24667" lon="1.59324">
        <ele>5.7</ele>
        <time>2023-06-10T07:58:35Z</time>
      </trkpt>
      <trkpt lat="50.24673" lon="1.59323">
        <ele>5.6</ele>
        <time>2023-06-10T07:58:37Z</time>
      </trkpt>
      <trkpt lat="50.2468" lon="1.59322">
        <ele>5.6</ele>
        <time>2023-06-10T07:58:39Z</time>
      </trkpt>
      <trkpt lat="50.24688" lon="1.59321">
        <ele>5.6</ele>
        <time>2023-06-10T07:58:41Z</time>
      </trkpt>
      <trkpt lat="50.24695" lon="1.5932">
        <ele>5.5</ele>
        <time>2023-06-10T07:58:43Z</time>
      </trkpt>
      <trkpt lat="50.24702" lon="1.59319">
        <ele>5.5</ele>
        <time>2023-06-10T07:58:45Z</time>
      </trkpt>
      <trkpt lat="50.24709" lon="1.59317">
        <ele>5.4</ele>
        <time>2023-06-10T07:58:47Z</time>
      </trkpt>
      <trkpt lat="50.24717" lon="1.59316">
        <ele>5.4</ele>
        <time>2023-06-10T07:58:49Z</time>
      </trkpt>
      <trkpt lat="50.24724" lon="1.59314">
        <ele>5.4</ele>
        <time>2023-06-10T07:58:51Z</time>
      </trkpt>
      <trkpt lat="50.24731" lon="1.59313">
        <ele>5.4</ele>
        <time>2023-06-10T07:58:53Z</time>
      </trkpt>
      <trkpt lat="50.24739" lon="1.59311">
        <ele>5.5</ele>
        <time>2023-06-10T07:58:55Z</time>
      </trkpt>
      <trkpt lat="50.24746" lon="1.59311">
        <ele>5.5</ele>
        <time>2023-06-10T07:58:57Z</time>
      </trkpt>
      <trkpt lat="50.24754" lon="1.59309">
        <ele>5.4</ele>
        <time>2023-06-10T07:58:59Z</time>
      </trkpt>
      <trkpt lat="50.24761" lon="1.59307">
        <ele>5.2</ele>
        <time>2023-06-10T07:59:01Z</time>
      </trkpt>
      <trkpt lat="50.24768" lon="1.59305">
        <ele>5</ele>
        <time>2023-06-10T07:59:03Z</time>
      </trkpt>
      <trkpt lat="50.24775" lon="1.59302">
        <ele>5</ele>
        <time>2023-06-10T07:59:05Z</time>
      </trkpt>
      <trkpt lat="50.24782" lon="1.59298">
        <ele>5.1</ele>
        <time>2023-06-10T07:59:07Z</time>
      </trkpt>
      <trkpt lat="50.2479" lon="1.59296">
        <ele>5.3</ele>
        <time>2023-06-10T07:59:09Z</time>
      </trkpt>
      <trkpt lat="50.24797" lon="1.59294">
        <ele>5.4</ele>
        <time>2023-06-10T07:59:11Z</time>
      </trkpt>
      <trkpt lat="50.24804" lon="1.59291">
        <ele>5.4</ele>
        <time>2023-06-10T07:59:13Z</time>
      </trkpt>
      <trkpt lat="50.24811" lon="1.59287">
        <ele>5.3</ele>
        <time>2023-06-10T07:59:15Z</time>
      </trkpt>
      <trkpt lat="50.24818" lon="1.59284">
        <ele>5.2</ele>
        <time>2023-06-10T07:59:17Z</time>
      </trkpt>
      <trkpt lat="50.24825" lon="1.59282">
        <ele>5.1</ele>
        <time>2023-06-10T07:59:19Z</time>
      </trkpt>
      <trkpt lat="50.24831" lon="1.59278">
        <ele>5</ele>
        <time>2023-06-10T07:59:21Z</time>
      </trkpt>
      <trkpt lat="50.24837" lon="1.59276">
        <ele>5</ele>
        <time>2023-06-10T07:59:23Z</time>
      </trkpt>
      <trkpt lat="50.24842" lon="1.59274">
        <ele>5</ele>
        <time>2023-06-10T07:59:25Z</time>
      </trkpt>
      <trkpt lat="50.24847" lon="1.59272">
        <ele>5</ele>
        <time>2023-06-10T07:59:27Z</time>
      </trkpt>
      <trkpt lat="50.24855" lon="1.5927">
        <ele>5</ele>
        <time>2023-06-10T07:59:31Z</time>
      </trkpt>
      <trkpt lat="50.2486" lon="1.5926">
        <ele>5</ele>
        <time>2023-06-10T07:59:35Z</time>
      </trkpt>
      <trkpt lat="50.24851" lon="1.59253">
        <ele>5</ele>
        <time>2023-06-10T07:59:39Z</time>
      </trkpt>
      <trkpt lat="50.24846" lon="1.59248">
        <ele>5</ele>
        <time>2023-06-10T07:59:41Z</time>
      </trkpt>
      <trkpt lat="50.2484" lon="1.59243">
        <ele>5</ele>
        <time>2023-06-10T07:59:43Z</time>
      </trkpt>
      <trkpt lat="50.24834" lon="1.59238">
        <ele>5</ele>
        <time>2023-06-10T07:59:45Z</time>
      </trkpt>
      <trkpt lat="50.24828" lon="1.59234">
        <ele>5</ele>
        <time>2023-06-10T07:59:47Z</time>
      </trkpt>
      <trkpt lat="50.24822" lon="1.59229">
        <ele>5</ele>
        <time>2023-06-10T07:59:49Z</time>
      </trkpt>
      <trkpt lat="50.24816" lon="1.59224">
        <ele>5</ele>
        <time>2023-06-10T07:59:51Z</time>
      </trkpt>
      <trkpt lat="50.24811" lon="1.59219">
        <ele>5</ele>
        <time>2023-06-10T07:59:53Z</time>
      </trkpt>
      <trkpt lat="50.24806" lon="1.59215">
        <ele>5</ele>
        <time>2023-06-10T07:59:55Z</time>
      </trkpt>
      <trkpt lat="50.24801" lon="1.59211">
        <ele>5</ele>
        <time>2023-06-10T07:59:57Z</time>
      </trkpt>
      <trkpt lat="50.24797" lon="1.59207">
        <ele>5</ele>
        <time>2023-06-10T07:59:59Z</time>
      </trkpt>
      <trkpt lat="50.24792" lon="1.59205">
        <ele>5</ele>
        <time>2023-06-10T08:00:01Z</time>
      </trkpt>
      <trkpt lat="50.24787" lon="1.592">
        <ele>5</ele>
        <time>2023-06-10T08:00:03Z</time>
      </trkpt>
      <trkpt lat="50.24782" lon="1.59195">
        <ele>5</ele>
        <time>2023-06-10T08:00:05Z</time>
      </trkpt>
      <trkpt lat="50.24777" lon="1.5919">
        <ele>5</ele>
        <time>2023-06-10T08:00:07Z</time>
      </trkpt>
      <trkpt lat="50.24772" lon="1.59184">
        <ele>5</ele>
        <time>2023-06-10T08:00:09Z</time>
      </trkpt>
      <trkpt lat="50.24766" lon="1.5918">
        <ele>5</ele>
        <time>2023-06-10T08:00:11Z</time>
      </trkpt>
      <trkpt lat="50.24761" lon="1.59176">
        <ele>5</ele>
        <time>2023-06-10T08:00:13Z</time>
      </trkpt>
      <trkpt lat="50.24756" lon="1.59173">
        <ele>5</ele>
        <time>2023-06-10T08:00:15Z</time>
      </trkpt>
      <trkpt lat="50.2475" lon="1.59169">
        <ele>5</ele>
        <time>2023-06-10T08:00:17Z</time>
      </trkpt>
      <trkpt lat="50.24744" lon="1.59166">
        <ele>5</ele>
        <time>2023-06-10T08:00:19Z</time>
      </trkpt>
      <trkpt lat="50.24739" lon="1.59161">
        <ele>5</ele>
        <time>2023-06-10T08:00:21Z</time>
      </trkpt>
      <trkpt lat="50.24733" lon="1.59157">
        <ele>5</ele>
        <time>2023-06-10T08:00:23Z</time>
      </trkpt>
      <trkpt lat="50.24728" lon="1.59151">
        <ele>5</ele>
        <time>2023-06-10T08:00:25Z</time>
      </trkpt>
      <trkpt lat="50.24722" lon="1.59145">
        <ele>5</ele>
        <time>2023-06-10T08:00:27Z</time>
      </trkpt>
      <trkpt lat="50.24717" lon="1.59137">
        <ele>5</ele>
        <time>2023-06-10T08:00:29Z</time>
      </trkpt>
      <trkpt lat="50.24714" lon="1.59129">
        <ele>5</ele>
        <time>2023-06-10T08:00:31Z</time>
      </trkpt>
      <trkpt lat="50.24711" lon="1.59121">
        <ele>5</ele>
        <time>2023-06-10T08:00:33Z</time>
      </trkpt>
      <trkpt lat="50.24706" lon="1.59116">
        <ele>5</ele>
        <time>2023-06-10T08:00:35Z</time>
      </trkpt>
      <trkpt lat="50.247" lon="1.59111">
        <ele>5</ele>
        <time>2023-06-10T08:00:37Z</time>
      </trkpt>
      <trkpt lat="50.24694" lon="1.59106">
        <ele>5</ele>
        <time>2023-06-10T08:00:39Z</time>
      </trkpt>
      <trkpt lat="50.24688" lon="1.59103">
        <ele>5</ele>
        <time>2023-06-10T08:00:41Z</time>
      </trkpt>
      <trkpt lat="50.24683" lon="1.59099">
        <ele>5</ele>
        <time>2023-06-10T08:00:43Z</time>
      </trkpt>
      <trkpt lat="50.24677" lon="1.59095">
        <ele>5</ele>
        <time>2023-06-10T08:00:45Z</time>
      </trkpt>
      <trkpt lat="50.24671" lon="1.59092">
        <ele>5</ele>
        <time>2023-06-10T08:00:47Z</time>
      </trkpt>
      <trkpt lat="50.24666" lon="1.59088">
        <ele>5</ele>
        <time>2023-06-10T08:00:49Z</time>
      </trkpt>
      <trkpt lat="50.24661" lon="1.59083">
        <ele>5</ele>
        <time>2023-06-10T08:00:51Z</time>
      </trkpt>
      <trkpt lat="50.24657" lon="1.59079">
        <ele>5</ele>
        <time>2023-06-10T08:00:53Z</time>
      </trkpt>
      <trkpt lat="50.24651" lon="1.59076">
        <ele>5</ele>
        <time>2023-06-10T08:00:57Z</time>
      </trkpt>
      <trkpt lat="50.24645" lon="1.59072">
        <ele>5</ele>
        <time>2023-06-10T08:01:01Z</time>
      </trkpt>
      <trkpt lat="50.24641" lon="1.59068">
        <ele>5</ele>
        <time>2023-06-10T08:01:03Z</time>
      </trkpt>
      <trkpt lat="50.24637" lon="1.59065">
        <ele>5</ele>
        <time>2023-06-10T08:01:05Z</time>
      </trkpt>
      <trkpt lat="50.24631" lon="1.59063">
        <ele>5</ele>
        <time>2023-06-10T08:01:07Z</time>
      </trkpt>
      <trkpt lat="50.24626" lon="1.59059">
        <ele>5</ele>
        <time>2023-06-10T08:01:09Z</time>
      </trkpt>
      <trkpt lat="50.24621" lon="1.59053">
        <ele>4.9</ele>
        <time>2023-06-10T08:01:11Z</time>
      </trkpt>
      <trkpt lat="50.24616" lon="1.59047">
        <ele>4.7</ele>
        <time>2023-06-10T08:01:13Z</time>
      </trkpt>
      <trkpt lat="50.24611" lon="1.59041">
        <ele>4.5</ele>
        <time>2023-06-10T08:01:15Z</time>
      </trkpt>
      <trkpt lat="50.24605" lon="1.59036">
        <ele>4.3</ele>
        <time>2023-06-10T08:01:17Z</time>
      </trkpt>
      <trkpt lat="50.24598" lon="1.59032">
        <ele>4.2</ele>
        <time>2023-06-10T08:01:19Z</time>
      </trkpt>
      <trkpt lat="50.24592" lon="1.59029">
        <ele>4</ele>
        <time>2023-06-10T08:01:21Z</time>
      </trkpt>
      <trkpt lat="50.24587" lon="1.59026">
        <ele>4</ele>
        <time>2023-06-10T08:01:23Z</time>
      </trkpt>
      <trkpt lat="50.24581" lon="1.59025">
        <ele>4</ele>
        <time>2023-06-10T08:01:25Z</time>
      </trkpt>
      <trkpt lat="50.24577" lon="1.59022">
        <ele>4.1</ele>
        <time>2023-06-10T08:01:27Z</time>
      </trkpt>
      <trkpt lat="50.24572" lon="1.59017">
        <ele>4.1</ele>
        <time>2023-06-10T08:01:29Z</time>
      </trkpt>
      <trkpt lat="50.24567" lon="1.59013">
        <ele>4.3</ele>
        <time>2023-06-10T08:01:31Z</time>
      </trkpt>
      <trkpt lat="50.24562" lon="1.59009">
        <ele>4.5</ele>
        <time>2023-06-10T08:01:33Z</time>
      </trkpt>
      <trkpt lat="50.24556" lon="1.59004">
        <ele>4.8</ele>
        <time>2023-06-10T08:01:35Z</time>
      </trkpt>
      <trkpt lat="50.2455" lon="1.58999">
        <ele>5</ele>
        <time>2023-06-10T08:01:37Z</time>
      </trkpt>
      <trkpt lat="50.24545" lon="1.58994">
        <ele>4.8</ele>
        <time>2023-06-10T08:01:39Z</time>
      </trkpt>
      <trkpt lat="50.2454" lon="1.58991">
        <ele>4.7</ele>
        <time>2023-06-10T08:01:41Z</time>
      </trkpt>
      <trkpt lat="50.24532" lon="1.58984">
        <ele>4.4</ele>
        <time>2023-06-10T08:01:45Z</time>
      </trkpt>
      <trkpt lat="50.24528" lon="1.58981">
        <ele>4.3</ele>
        <time>2023-06-10T08:01:47Z</time>
      </trkpt>
      <trkpt lat="50.24524" lon="1.58978">
        <ele>4.3</ele>
        <time>2023-06-10T08:01:49Z</time>
      </trkpt>
      <trkpt lat="50.24517" lon="1.58974">
        <ele>4.4</ele>
        <time>2023-06-10T08:01:53Z</time>
      </trkpt>
      <trkpt lat="50.24512" lon="1.58971">
        <ele>4.6</ele>
        <time>2023-06-10T08:01:57Z</time>
      </trkpt>
      <trkpt lat="50.24515" lon="1.58981">
        <ele>4.6</ele>
        <time>2023-06-10T08:03:28Z</time>
      </trkpt>
      <trkpt lat="50.24522" lon="1.58987">
        <ele>4.6</ele>
        <time>2023-06-10T08:03:32Z</time>
      </trkpt>
      <trkpt lat="50.24529" lon="1.58992">
        <ele>4.7</ele>
        <time>2023-06-10T08:03:36Z</time>
      </trkpt>
      <trkpt lat="50.24537" lon="1.58999">
        <ele>5</ele>
        <time>2023-06-10T08:03:40Z</time>
      </trkpt>
      <trkpt lat="50.24541" lon="1.59003">
        <ele>5</ele>
        <time>2023-06-10T08:03:42Z</time>
      </trkpt>
      <trkpt lat="50.24545" lon="1.59006">
        <ele>4.9</ele>
        <time>2023-06-10T08:03:44Z</time>
      </trkpt>
      <trkpt lat="50.24555" lon="1.59011">
        <ele>4.6</ele>
        <time>2023-06-10T08:03:48Z</time>
      </trkpt>
      <trkpt lat="50.24559" lon="1.59015">
        <ele>4.4</ele>
        <time>2023-06-10T08:03:50Z</time>
      </trkpt>
      <trkpt lat="50.24564" lon="1.59018">
        <ele>4.2</ele>
        <time>2023-06-10T08:03:52Z</time>
      </trkpt>
      <trkpt lat="50.24569" lon="1.59022">
        <ele>4.1</ele>
        <time>2023-06-10T08:03:54Z</time>
      </trkpt>
      <trkpt lat="50.24574" lon="1.59026">
        <ele>4</ele>
        <time>2023-06-10T08:03:56Z</time>
      </trkpt>
      <trkpt lat="50.2458" lon="1.5903">
        <ele>4.1</ele>
        <time>2023-06-10T08:03:58Z</time>
      </trkpt>
      <trkpt lat="50.24585" lon="1.59034">
        <ele>4.2</ele>
        <time>2023-06-10T08:04:00Z</time>
      </trkpt>
      <trkpt lat="50.24591" lon="1.59038">
        <ele>4.4</ele>
        <time>2023-06-10T08:04:02Z</time>
      </trkpt>
      <trkpt lat="50.24596" lon="1.59042">
        <ele>4.5</ele>
        <time>2023-06-10T08:04:04Z</time>
      </trkpt>
      <trkpt lat="50.24601" lon="1.59047">
        <ele>4.7</ele>
        <time>2023-06-10T08:04:06Z</time>
      </trkpt>
      <trkpt lat="50.24606" lon="1.59052">
        <ele>4.9</ele>
        <time>2023-06-10T08:04:08Z</time>
      </trkpt>
      <trkpt lat="50.24611" lon="1.59056">
        <ele>5</ele>
        <time>2023-06-10T08:04:10Z</time>
      </trkpt>
      <trkpt lat="50.24616" lon="1.59061">
        <ele>5</ele>
        <time>2023-06-10T08:04:12Z</time>
      </trkpt>
      <trkpt lat="50.24622" lon="1.59066">
        <ele>5</ele>
        <time>2023-06-10T08:04:14Z</time>
      </trkpt>
      <trkpt lat="50.24627" lon="1.59071">
        <ele>5</ele>
        <time>2023-06-10T08:04:16Z</time>
      </trkpt>
      <trkpt lat="50.24636" lon="1.5907">
        <ele>5</ele>
        <time>2023-06-10T08:04:20Z</time>
      </trkpt>
      <trkpt lat="50.24645" lon="1.59072">
        <ele>5</ele>
        <time>2023-06-10T08:04:24Z</time>
      </trkpt>
      <trkpt lat="50.24649" lon="1.59077">
        <ele>5</ele>
        <time>2023-06-10T08:04:26Z</time>
      </trkpt>
      <trkpt lat="50.24654" lon="1.5908">
        <ele>5</ele>
        <time>2023-06-10T08:04:28Z</time>
      </trkpt>
      <trkpt lat="50.24658" lon="1.59082">
        <ele>5</ele>
        <time>2023-06-10T08:04:30Z</time>
      </trkpt>
      <trkpt lat="50.24663" lon="1.59085">
        <ele>5</ele>
        <time>2023-06-10T08:04:32Z</time>
      </trkpt>
      <trkpt lat="50.24668" lon="1.59089">
        <ele>5</ele>
        <time>2023-06-10T08:04:34Z</time>
      </trkpt>
      <trkpt lat="50.24672" lon="1.59091">
        <ele>5</ele>
        <time>2023-06-10T08:04:36Z</time>
      </trkpt>
      <trkpt lat="50.24677" lon="1.59094">
        <ele>5</ele>
        <time>2023-06-10T08:04:52Z</time>
      </trkpt>
      <trkpt lat="50.24682" lon="1.59098">
        <ele>5</ele>
        <time>2023-06-10T08:06:41Z</time>
      </trkpt>
      <trkpt lat="50.24687" lon="1.59101">
        <ele>5</ele>
        <time>2023-06-10T08:06:43Z</time>
      </trkpt>
      <trkpt lat="50.24692" lon="1.59104">
        <ele>5</ele>
        <time>2023-06-10T08:06:45Z</time>
      </trkpt>
      <trkpt lat="50.24699" lon="1.59108">
        <ele>5</ele>
        <time>2023-06-10T08:06:47Z</time>
      </trkpt>
      <trkpt lat="50.24704" lon="1.59113">
        <ele>5</ele>
        <time>2023-06-10T08:06:49Z</time>
      </trkpt>
      <trkpt lat="50.2471" lon="1.59118">
        <ele>5</ele>
        <time>2023-06-10T08:06:51Z</time>
      </trkpt>
      <trkpt lat="50.24717" lon="1.59124">
        <ele>5</ele>
        <time>2023-06-10T08:06:53Z</time>
      </trkpt>
      <trkpt lat="50.24723" lon="1.5913">
        <ele>5</ele>
        <time>2023-06-10T08:06:55Z</time>
      </trkpt>
      <trkpt lat="50.24726" lon="1.59138">
        <ele>5</ele>
        <time>2023-06-10T08:06:57Z</time>
      </trkpt>
      <trkpt lat="50.24731" lon="1.59145">
        <ele>5</ele>
        <time>2023-06-10T08:06:59Z</time>
      </trkpt>
      <trkpt lat="50.24738" lon="1.59149">
        <ele>5</ele>
        <time>2023-06-10T08:07:01Z</time>
      </trkpt>
      <trkpt lat="50.24745" lon="1.59154">
        <ele>5</ele>
        <time>2023-06-10T08:07:03Z</time>
      </trkpt>
      <trkpt lat="50.24752" lon="1.59159">
        <ele>5</ele>
        <time>2023-06-10T08:07:05Z</time>
      </trkpt>
      <trkpt lat="50.24758" lon="1.59167">
        <ele>5</ele>
        <time>2023-06-10T08:07:07Z</time>
      </trkpt>
      <trkpt lat="50.24765" lon="1.59171">
        <ele>5</ele>
        <time>2023-06-10T08:07:09Z</time>
      </trkpt>
      <trkpt lat="50.24772" lon="1.59174">
        <ele>5</ele>
        <time>2023-06-10T08:07:11Z</time>
      </trkpt>
      <trkpt lat="50.24779" lon="1.5918">
        <ele>5</ele>
        <time>2023-06-10T08:07:13Z</time>
      </trkpt>
      <trkpt lat="50.24786" lon="1.59186">
        <ele>5</ele>
        <time>2023-06-10T08:07:15Z</time>
      </trkpt>
      <trkpt lat="50.24793" lon="1.59191">
        <ele>5</ele>
        <time>2023-06-10T08:07:17Z</time>
      </trkpt>
      <trkpt lat="50.248" lon="1.59197">
        <ele>5</ele>
        <time>2023-06-10T08:07:19Z</time>
      </trkpt>
      <trkpt lat="50.24807" lon="1.59201">
        <ele>5</ele>
        <time>2023-06-10T08:07:21Z</time>
      </trkpt>
      <trkpt lat="50.24815" lon="1.59207">
        <ele>5</ele>
        <time>2023-06-10T08:07:23Z</time>
      </trkpt>
      <trkpt lat="50.24822" lon="1.59213">
        <ele>5</ele>
        <time>2023-06-10T08:07:25Z</time>
      </trkpt>
      <trkpt lat="50.24829" lon="1.59218">
        <ele>5</ele>
        <time>2023-06-10T08:07:27Z</time>
      </trkpt>
      <trkpt lat="50.24836" lon="1.59223">
        <ele>5</ele>
        <time>2023-06-10T08:07:29Z</time>
      </trkpt>
      <trkpt lat="50.24843" lon="1.59228">
        <ele>5</ele>
        <time>2023-06-10T08:07:31Z</time>
      </trkpt>
      <trkpt lat="50.2485" lon="1.59233">
        <ele>5</ele>
        <time>2023-06-10T08:07:33Z</time>
      </trkpt>
      <trkpt lat="50.24858" lon="1.59239">
        <ele>5</ele>
        <time>2023-06-10T08:07:35Z</time>
      </trkpt>
      <trkpt lat="50.24865" lon="1.59243">
        <ele>5</ele>
        <time>2023-06-10T08:07:37Z</time>
      </trkpt>
      <trkpt lat="50.24872" lon="1.59248">
        <ele>5</ele>
        <time>2023-06-10T08:07:39Z</time>
      </trkpt>
      <trkpt lat="50.24879" lon="1.59254">
        <ele>5</ele>
        <time>2023-06-10T08:07:41Z</time>
      </trkpt>
      <trkpt lat="50.24887" lon="1.5926">
        <ele>5</ele>
        <time>2023-06-10T08:07:43Z</time>
      </trkpt>
      <trkpt lat="50.24894" lon="1.59265">
        <ele>5.1</ele>
        <time>2023-06-10T08:07:45Z</time>
      </trkpt>
      <trkpt lat="50.24901" lon="1.59267">
        <ele>5.3</ele>
        <time>2023-06-10T08:07:47Z</time>
      </trkpt>
      <trkpt lat="50.24909" lon="1.59269">
        <ele>5.5</ele>
        <time>2023-06-10T08:07:49Z</time>
      </trkpt>
      <trkpt lat="50.24916" lon="1.59265">
        <ele>5.5</ele>
        <time>2023-06-10T08:07:51Z</time>
      </trkpt>
      <trkpt lat="50.24923" lon="1.5926">
        <ele>5.4</ele>
        <time>2023-06-10T08:07:53Z</time>
      </trkpt>
      <trkpt lat="50.2493" lon="1.59255">
        <ele>5.2</ele>
        <time>2023-06-10T08:07:55Z</time>
      </trkpt>
      <trkpt lat="50.24938" lon="1.59253">
        <ele>5.1</ele>
        <time>2023-06-10T08:07:57Z</time>
      </trkpt>
      <trkpt lat="50.24946" lon="1.5925">
        <ele>5.1</ele>
        <time>2023-06-10T08:07:59Z</time>
      </trkpt>
      <trkpt lat="50.24954" lon="1.59248">
        <ele>5.3</ele>
        <time>2023-06-10T08:08:01Z</time>
      </trkpt>
      <trkpt lat="50.24962" lon="1.59244">
        <ele>5.5</ele>
        <time>2023-06-10T08:08:03Z</time>
      </trkpt>
      <trkpt lat="50.24969" lon="1.5924">
        <ele>5.6</ele>
        <time>2023-06-10T08:08:05Z</time>
      </trkpt>
      <trkpt lat="50.24977" lon="1.59235">
        <ele>5.4</ele>
        <time>2023-06-10T08:08:07Z</time>
      </trkpt>
      <trkpt lat="50.24985" lon="1.59233">
        <ele>5.4</ele>
        <time>2023-06-10T08:08:09Z</time>
      </trkpt>
      <trkpt lat="50.24993" lon="1.59232">
        <ele>5.3</ele>
        <time>2023-06-10T08:08:11Z</time>
      </trkpt>
      <trkpt lat="50.25" lon="1.5923">
        <ele>5.3</ele>
        <time>2023-06-10T08:08:13Z</time>
      </trkpt>
      <trkpt lat="50.25007" lon="1.59226">
        <ele>5.4</ele>
        <time>2023-06-10T08:08:15Z</time>
      </trkpt>
      <trkpt lat="50.25015" lon="1.59221">
        <ele>5.5</ele>
        <time>2023-06-10T08:08:17Z</time>
      </trkpt>
      <trkpt lat="50.25022" lon="1.59217">
        <ele>5.6</ele>
        <time>2023-06-10T08:08:19Z</time>
      </trkpt>
      <trkpt lat="50.25029" lon="1.59212">
        <ele>5.6</ele>
        <time>2023-06-10T08:08:21Z</time>
      </trkpt>
      <trkpt lat="50.25036" lon="1.59207">
        <ele>5.5</ele>
        <time>2023-06-10T08:08:23Z</time>
      </trkpt>
      <trkpt lat="50.25043" lon="1.59204">
        <ele>5.3</ele>
        <time>2023-06-10T08:08:25Z</time>
      </trkpt>
      <trkpt lat="50.2505" lon="1.59201">
        <ele>5.2</ele>
        <time>2023-06-10T08:08:27Z</time>
      </trkpt>
      <trkpt lat="50.25057" lon="1.59199">
        <ele>5.2</ele>
        <time>2023-06-10T08:08:29Z</time>
      </trkpt>
      <trkpt lat="50.25064" lon="1.59199">
        <ele>5.2</ele>
        <time>2023-06-10T08:08:31Z</time>
      </trkpt>
      <trkpt lat="50.25072" lon="1.59199">
        <ele>5.2</ele>
        <time>2023-06-10T08:08:33Z</time>
      </trkpt>
      <trkpt lat="50.25078" lon="1.59202">
        <ele>5.3</ele>
        <time>2023-06-10T08:08:35Z</time>
      </trkpt>
      <trkpt lat="50.25085" lon="1.59204">
        <ele>5.3</ele>
        <time>2023-06-10T08:08:37Z</time>
      </trkpt>
      <trkpt lat="50.25092" lon="1.59207">
        <ele>5.4</ele>
        <time>2023-06-10T08:08:39Z</time>
      </trkpt>
      <trkpt lat="50.25099" lon="1.59207">
        <ele>5.5</ele>
        <time>2023-06-10T08:08:41Z</time>
      </trkpt>
      <trkpt lat="50.25106" lon="1.59206">
        <ele>5.4</ele>
        <time>2023-06-10T08:08:43Z</time>
      </trkpt>
      <trkpt lat="50.25113" lon="1.59204">
        <ele>5.4</ele>
        <time>2023-06-10T08:08:45Z</time>
      </trkpt>
      <trkpt lat="50.25119" lon="1.59205">
        <ele>5.4</ele>
        <time>2023-06-10T08:08:47Z</time>
      </trkpt>
      <trkpt lat="50.25125" lon="1.59206">
        <ele>5.4</ele>
        <time>2023-06-10T08:08:49Z</time>
      </trkpt>
      <trkpt lat="50.2513" lon="1.59205">
        <ele>5.4</ele>
        <time>2023-06-10T08:08:51Z</time>
      </trkpt>
      <trkpt lat="50.25137" lon="1.59204">
        <ele>5.3</ele>
        <time>2023-06-10T08:08:53Z</time>
      </trkpt>
      <trkpt lat="50.25143" lon="1.59203">
        <ele>5.3</ele>
        <time>2023-06-10T08:08:55Z</time>
      </trkpt>
      <trkpt lat="50.2515" lon="1.59203">
        <ele>5.3</ele>
        <time>2023-06-10T08:08:57Z</time>
      </trkpt>
      <trkpt lat="50.25156" lon="1.59202">
        <ele>5.3</ele>
        <time>2023-06-10T08:08:59Z</time>
      </trkpt>
      <trkpt lat="50.25162" lon="1.59203">
        <ele>5.3</ele>
        <time>2023-06-10T08:09:01Z</time>
      </trkpt>
      <trkpt lat="50.25167" lon="1.59203">
        <ele>5.3</ele>
        <time>2023-06-10T08:09:03Z</time>
      </trkpt>
      <trkpt lat="50.25172" lon="1.59203">
        <ele>5.4</ele>
        <time>2023-06-10T08:09:05Z</time>
      </trkpt>
      <trkpt lat="50.2518" lon="1.59203">
        <ele>5.5</ele>
        <time>2023-06-10T08:09:09Z</time>
      </trkpt>
      <trkpt lat="50.25185" lon="1.59196">
        <ele>5.1</ele>
        <time>2023-06-10T08:09:13Z</time>
      </trkpt>
      <trkpt lat="50.25194" lon="1.59198">
        <ele>5.2</ele>
        <time>2023-06-10T08:09:17Z</time>
      </trkpt>
      <trkpt lat="50.25201" lon="1.592">
        <ele>5.6</ele>
        <time>2023-06-10T08:09:21Z</time>
      </trkpt>
      <trkpt lat="50.25207" lon="1.59201">
        <ele>5.7</ele>
        <time>2023-06-10T08:09:25Z</time>
      </trkpt>
      <trkpt lat="50.25214" lon="1.59198">
        <ele>5.8</ele>
        <time>2023-06-10T08:09:29Z</time>
      </trkpt>
      <trkpt lat="50.25223" lon="1.592">
        <ele>6</ele>
        <time>2023-06-10T08:09:33Z</time>
      </trkpt>
      <trkpt lat="50.25228" lon="1.59199">
        <ele>6</ele>
        <time>2023-06-10T08:09:35Z</time>
      </trkpt>
      <trkpt lat="50.25233" lon="1.59202">
        <ele>6</ele>
        <time>2023-06-10T08:09:37Z</time>
      </trkpt>
      <trkpt lat="50.25238" lon="1.59205">
        <ele>6</ele>
        <time>2023-06-10T08:09:39Z</time>
      </trkpt>
      <trkpt lat="50.25243" lon="1.59207">
        <ele>6</ele>
        <time>2023-06-10T08:09:41Z</time>
      </trkpt>
      <trkpt lat="50.25248" lon="1.5921">
        <ele>6</ele>
        <time>2023-06-10T08:09:43Z</time>
      </trkpt>
      <trkpt lat="50.25253" lon="1.59212">
        <ele>5.9</ele>
        <time>2023-06-10T08:09:45Z</time>
      </trkpt>
      <trkpt lat="50.25257" lon="1.59217">
        <ele>5.8</ele>
        <time>2023-06-10T08:09:47Z</time>
      </trkpt>
      <trkpt lat="50.25259" lon="1.59224">
        <ele>5.7</ele>
        <time>2023-06-10T08:09:51Z</time>
      </trkpt>
      <trkpt lat="50.25261" lon="1.59233">
        <ele>5.8</ele>
        <time>2023-06-10T08:10:02Z</time>
      </trkpt>
      <trkpt lat="50.25263" lon="1.59245">
        <ele>6</ele>
        <time>2023-06-10T08:10:10Z</time>
      </trkpt>
      <trkpt lat="50.25265" lon="1.59256">
        <ele>5.8</ele>
        <time>2023-06-10T08:10:14Z</time>
      </trkpt>
      <trkpt lat="50.25264" lon="1.59265">
        <ele>5.7</ele>
        <time>2023-06-10T08:10:18Z</time>
      </trkpt>
      <trkpt lat="50.25262" lon="1.59274">
        <ele>5.6</ele>
        <time>2023-06-10T08:10:24Z</time>
      </trkpt>
      <trkpt lat="50.2526" lon="1.59281">
        <ele>5.7</ele>
        <time>2023-06-10T08:10:26Z</time>
      </trkpt>
      <trkpt lat="50.25258" lon="1.5929">
        <ele>5.7</ele>
        <time>2023-06-10T08:10:28Z</time>
      </trkpt>
      <trkpt lat="50.25258" lon="1.59297">
        <ele>5.7</ele>
        <time>2023-06-10T08:10:30Z</time>
      </trkpt>
      <trkpt lat="50.25256" lon="1.59305">
        <ele>5.8</ele>
        <time>2023-06-10T08:10:32Z</time>
      </trkpt>
      <trkpt lat="50.25255" lon="1.59314">
        <ele>5.6</ele>
        <time>2023-06-10T08:10:34Z</time>
      </trkpt>
      <trkpt lat="50.25253" lon="1.59323">
        <ele>5.3</ele>
        <time>2023-06-10T08:10:36Z</time>
      </trkpt>
      <trkpt lat="50.2525" lon="1.59334">
        <ele>5</ele>
        <time>2023-06-10T08:10:38Z</time>
      </trkpt>
      <trkpt lat="50.2525" lon="1.59345">
        <ele>5.4</ele>
        <time>2023-06-10T08:10:40Z</time>
      </trkpt>
      <trkpt lat="50.2525" lon="1.59355">
        <ele>5.8</ele>
        <time>2023-06-10T08:10:42Z</time>
      </trkpt>
      <trkpt lat="50.25251" lon="1.59364">
        <ele>5.9</ele>
        <time>2023-06-10T08:10:44Z</time>
      </trkpt>
      <trkpt lat="50.25253" lon="1.59372">
        <ele>5.6</ele>
        <time>2023-06-10T08:10:46Z</time>
      </trkpt>
      <trkpt lat="50.25255" lon="1.59379">
        <ele>5.3</ele>
        <time>2023-06-10T08:10:48Z</time>
      </trkpt>
      <trkpt lat="50.25258" lon="1.59385">
        <ele>5.1</ele>
        <time>2023-06-10T08:10:50Z</time>
      </trkpt>
      <trkpt lat="50.25263" lon="1.59394">
        <ele>5</ele>
        <time>2023-06-10T08:10:54Z</time>
      </trkpt>
      <trkpt lat="50.25269" lon="1.59404">
        <ele>5</ele>
        <time>2023-06-10T08:10:58Z</time>
      </trkpt>
      <trkpt lat="50.25274" lon="1.59409">
        <ele>5</ele>
        <time>2023-06-10T08:11:00Z</time>
      </trkpt>
      <trkpt lat="50.25279" lon="1.59414">
        <ele>5</ele>
        <time>2023-06-10T08:11:02Z</time>
      </trkpt>
      <trkpt lat="50.25286" lon="1.59418">
        <ele>5</ele>
        <time>2023-06-10T08:11:04Z</time>
      </trkpt>
      <trkpt lat="50.25292" lon="1.59422">
        <ele>5.1</ele>
        <time>2023-06-10T08:11:06Z</time>
      </trkpt>
      <trkpt lat="50.25299" lon="1.59423">
        <ele>5.2</ele>
        <time>2023-06-10T08:11:08Z</time>
      </trkpt>
      <trkpt lat="50.25305" lon="1.59423">
        <ele>5.2</ele>
        <time>2023-06-10T08:11:10Z</time>
      </trkpt>
      <trkpt lat="50.2531" lon="1.59421">
        <ele>5.1</ele>
        <time>2023-06-10T08:11:12Z</time>
      </trkpt>
      <trkpt lat="50.25315" lon="1.59418">
        <ele>5</ele>
        <time>2023-06-10T08:11:14Z</time>
      </trkpt>
      <trkpt lat="50.2532" lon="1.59417">
        <ele>5</ele>
        <time>2023-06-10T08:11:16Z</time>
      </trkpt>
      <trkpt lat="50.25327" lon="1.59412">
        <ele>5</ele>
        <time>2023-06-10T08:11:18Z</time>
      </trkpt>
      <trkpt lat="50.25333" lon="1.59407">
        <ele>5</ele>
        <time>2023-06-10T08:11:20Z</time>
      </trkpt>
      <trkpt lat="50.2534" lon="1.59401">
        <ele>5.2</ele>
        <time>2023-06-10T08:11:22Z</time>
      </trkpt>
      <trkpt lat="50.25347" lon="1.59395">
        <ele>5.2</ele>
        <time>2023-06-10T08:11:24Z</time>
      </trkpt>
      <trkpt lat="50.25355" lon="1.59392">
        <ele>5.2</ele>
        <time>2023-06-10T08:11:26Z</time>
      </trkpt>
      <trkpt lat="50.25363" lon="1.59388">
        <ele>5</ele>
        <time>2023-06-10T08:11:28Z</time>
      </trkpt>
      <trkpt lat="50.25369" lon="1.59384">
        <ele>5.2</ele>
        <time>2023-06-10T08:11:30Z</time>
      </trkpt>
      <trkpt lat="50.25374" lon="1.59382">
        <ele>5.3</ele>
        <time>2023-06-10T08:11:32Z</time>
      </trkpt>
      <trkpt lat="50.25381" lon="1.59376">
        <ele>5.4</ele>
        <time>2023-06-10T08:11:36Z</time>
      </trkpt>
      <trkpt lat="50.25387" lon="1.59375">
        <ele>5.5</ele>
        <time>2023-06-10T08:11:38Z</time>
      </trkpt>
      <trkpt lat="50.25392" lon="1.59373">
        <ele>5.4</ele>
        <time>2023-06-10T08:11:40Z</time>
      </trkpt>
      <trkpt lat="50.25399" lon="1.59369">
        <ele>5.4</ele>
        <time>2023-06-10T08:11:42Z</time>
      </trkpt>
      <trkpt lat="50.25405" lon="1.59364">
        <ele>5.6</ele>
        <time>2023-06-10T08:11:44Z</time>
      </trkpt>
      <trkpt lat="50.25411" lon="1.59358">
        <ele>5.7</ele>
        <time>2023-06-10T08:11:46Z</time>
      </trkpt>
      <trkpt lat="50.25418" lon="1.59353">
        <ele>5.7</ele>
        <time>2023-06-10T08:11:48Z</time>
      </trkpt>
      <trkpt lat="50.25424" lon="1.59349">
        <ele>5.5</ele>
        <time>2023-06-10T08:11:50Z</time>
      </trkpt>
      <trkpt lat="50.25431" lon="1.59345">
        <ele>5.4</ele>
        <time>2023-06-10T08:11:52Z</time>
      </trkpt>
      <trkpt lat="50.25438" lon="1.59339">
        <ele>5.2</ele>
        <time>2023-06-10T08:11:54Z</time>
      </trkpt>
      <trkpt lat="50.25444" lon="1.59332">
        <ele>5</ele>
        <time>2023-06-10T08:11:56Z</time>
      </trkpt>
      <trkpt lat="50.25449" lon="1.59325">
        <ele>5.1</ele>
        <time>2023-06-10T08:11:58Z</time>
      </trkpt>
      <trkpt lat="50.25456" lon="1.59319">
        <ele>5.2</ele>
        <time>2023-06-10T08:12:00Z</time>
      </trkpt>
      <trkpt lat="50.25463" lon="1.59314">
        <ele>5.2</ele>
        <time>2023-06-10T08:12:02Z</time>
      </trkpt>
      <trkpt lat="50.2547" lon="1.59311">
        <ele>5.2</ele>
        <time>2023-06-10T08:12:04Z</time>
      </trkpt>
      <trkpt lat="50.25477" lon="1.59306">
        <ele>5.2</ele>
        <time>2023-06-10T08:12:06Z</time>
      </trkpt>
      <trkpt lat="50.25484" lon="1.59302">
        <ele>5.4</ele>
        <time>2023-06-10T08:12:08Z</time>
      </trkpt>
      <trkpt lat="50.2549" lon="1.59297">
        <ele>5.4</ele>
        <time>2023-06-10T08:12:10Z</time>
      </trkpt>
      <trkpt lat="50.25496" lon="1.59293">
        <ele>5.5</ele>
        <time>2023-06-10T08:12:12Z</time>
      </trkpt>
      <trkpt lat="50.25501" lon="1.59288">
        <ele>5.4</ele>
        <time>2023-06-10T08:12:14Z</time>
      </trkpt>
      <trkpt lat="50.25508" lon="1.59286">
        <ele>5.4</ele>
        <time>2023-06-10T08:12:16Z</time>
      </trkpt>
      <trkpt lat="50.25514" lon="1.59285">
        <ele>5.5</ele>
        <time>2023-06-10T08:12:18Z</time>
      </trkpt>
      <trkpt lat="50.2552" lon="1.59278">
        <ele>5.7</ele>
        <time>2023-06-10T08:12:20Z</time>
      </trkpt>
      <trkpt lat="50.25525" lon="1.59271">
        <ele>5.7</ele>
        <time>2023-06-10T08:12:22Z</time>
      </trkpt>
      <trkpt lat="50.25531" lon="1.59266">
        <ele>5.6</ele>
        <time>2023-06-10T08:12:24Z</time>
      </trkpt>
      <trkpt lat="50.25536" lon="1.59264">
        <ele>5.5</ele>
        <time>2023-06-10T08:12:26Z</time>
      </trkpt>
      <trkpt lat="50.25542" lon="1.59261">
        <ele>5.4</ele>
        <time>2023-06-10T08:12:28Z</time>
      </trkpt>
      <trkpt lat="50.25546" lon="1.59255">
        <ele>5.2</ele>
        <time>2023-06-10T08:12:30Z</time>
      </trkpt>
      <trkpt lat="50.25553" lon="1.59251">
        <ele>5</ele>
        <time>2023-06-10T08:12:34Z</time>
      </trkpt>
      <trkpt lat="50.25558" lon="1.59248">
        <ele>5.1</ele>
        <time>2023-06-10T08:12:36Z</time>
      </trkpt>
      <trkpt lat="50.25564" lon="1.59245">
        <ele>5.3</ele>
        <time>2023-06-10T08:12:38Z</time>
      </trkpt>
      <trkpt lat="50.25569" lon="1.59243">
        <ele>5.4</ele>
        <time>2023-06-10T08:12:40Z</time>
      </trkpt>
      <trkpt lat="50.25573" lon="1.5924">
        <ele>5.4</ele>
        <time>2023-06-10T08:12:42Z</time>
      </trkpt>
      <trkpt lat="50.25581" lon="1.59234">
        <ele>5.4</ele>
        <time>2023-06-10T08:12:46Z</time>
      </trkpt>
      <trkpt lat="50.25585" lon="1.59232">
        <ele>5.3</ele>
        <time>2023-06-10T08:12:48Z</time>
      </trkpt>
      <trkpt lat="50.25591" lon="1.59231">
        <ele>5.2</ele>
        <time>2023-06-10T08:12:50Z</time>
      </trkpt>
      <trkpt lat="50.25596" lon="1.5923">
        <ele>5.2</ele>
        <time>2023-06-10T08:12:52Z</time>
      </trkpt>
      <trkpt lat="50.25602" lon="1.5923">
        <ele>5.1</ele>
        <time>2023-06-10T08:12:54Z</time>
      </trkpt>
      <trkpt lat="50.25609" lon="1.5923">
        <ele>5</ele>
        <time>2023-06-10T08:12:56Z</time>
      </trkpt>
      <trkpt lat="50.25615" lon="1.59232">
        <ele>5.1</ele>
        <time>2023-06-10T08:12:58Z</time>
      </trkpt>
      <trkpt lat="50.25621" lon="1.59232">
        <ele>5.3</ele>
        <time>2023-06-10T08:13:00Z</time>
      </trkpt>
      <trkpt lat="50.25627" lon="1.59232">
        <ele>5.4</ele>
        <time>2023-06-10T08:13:02Z</time>
      </trkpt>
      <trkpt lat="50.25634" lon="1.59233">
        <ele>5.6</ele>
        <time>2023-06-10T08:13:04Z</time>
      </trkpt>
      <trkpt lat="50.2564" lon="1.59234">
        <ele>5.8</ele>
        <time>2023-06-10T08:13:06Z</time>
      </trkpt>
      <trkpt lat="50.25645" lon="1.59239">
        <ele>5.7</ele>
        <time>2023-06-10T08:13:08Z</time>
      </trkpt>
      <trkpt lat="50.25651" lon="1.59246">
        <ele>5.5</ele>
        <time>2023-06-10T08:13:10Z</time>
      </trkpt>
      <trkpt lat="50.25656" lon="1.59253">
        <ele>5.2</ele>
        <time>2023-06-10T08:13:12Z</time>
      </trkpt>
      <trkpt lat="50.2566" lon="1.59262">
        <ele>4.8</ele>
        <time>2023-06-10T08:13:14Z</time>
      </trkpt>
      <trkpt lat="50.25664" lon="1.5927">
        <ele>4.8</ele>
        <time>2023-06-10T08:13:16Z</time>
      </trkpt>
      <trkpt lat="50.25668" lon="1.59277">
        <ele>5</ele>
        <time>2023-06-10T08:13:18Z</time>
      </trkpt>
      <trkpt lat="50.25672" lon="1.59287">
        <ele>5.1</ele>
        <time>2023-06-10T08:13:20Z</time>
      </trkpt>
      <trkpt lat="50.25677" lon="1.59295">
        <ele>4.9</ele>
        <time>2023-06-10T08:13:22Z</time>
      </trkpt>
      <trkpt lat="50.25681" lon="1.59302">
        <ele>4.6</ele>
        <time>2023-06-10T08:13:24Z</time>
      </trkpt>
      <trkpt lat="50.25684" lon="1.59309">
        <ele>4.5</ele>
        <time>2023-06-10T08:13:26Z</time>
      </trkpt>
      <trkpt lat="50.25688" lon="1.59315">
        <ele>4.7</ele>
        <time>2023-06-10T08:13:28Z</time>
      </trkpt>
      <trkpt lat="50.25692" lon="1.59322">
        <ele>5.2</ele>
        <time>2023-06-10T08:13:30Z</time>
      </trkpt>
      <trkpt lat="50.25697" lon="1.59329">
        <ele>5.7</ele>
        <time>2023-06-10T08:13:32Z</time>
      </trkpt>
      <trkpt lat="50.25701" lon="1.59336">
        <ele>5.7</ele>
        <time>2023-06-10T08:13:34Z</time>
      </trkpt>
      <trkpt lat="50.25704" lon="1.59342">
        <ele>5.3</ele>
        <time>2023-06-10T08:13:36Z</time>
      </trkpt>
      <trkpt lat="50.25708" lon="1.59348">
        <ele>5</ele>
        <time>2023-06-10T08:13:38Z</time>
      </trkpt>
      <trkpt lat="50.25711" lon="1.59356">
        <ele>4.6</ele>
        <time>2023-06-10T08:13:40Z</time>
      </trkpt>
      <trkpt lat="50.25715" lon="1.59362">
        <ele>4.3</ele>
        <time>2023-06-10T08:13:42Z</time>
      </trkpt>
      <trkpt lat="50.2572" lon="1.5937">
        <ele>4.9</ele>
        <time>2023-06-10T08:13:44Z</time>
      </trkpt>
      <trkpt lat="50.25724" lon="1.59378">
        <ele>5.8</ele>
        <time>2023-06-10T08:13:46Z</time>
      </trkpt>
      <trkpt lat="50.25728" lon="1.59385">
        <ele>6.3</ele>
        <time>2023-06-10T08:13:48Z</time>
      </trkpt>
      <trkpt lat="50.25732" lon="1.59393">
        <ele>6</ele>
        <time>2023-06-10T08:13:50Z</time>
      </trkpt>
      <trkpt lat="50.25734" lon="1.59399">
        <ele>5.3</ele>
        <time>2023-06-10T08:13:52Z</time>
      </trkpt>
      <trkpt lat="50.25739" lon="1.59409">
        <ele>4.5</ele>
        <time>2023-06-10T08:13:56Z</time>
      </trkpt>
      <trkpt lat="50.25744" lon="1.59418">
        <ele>4.1</ele>
        <time>2023-06-10T08:14:00Z</time>
      </trkpt>
      <trkpt lat="50.25749" lon="1.59424">
        <ele>4.8</ele>
        <time>2023-06-10T08:14:04Z</time>
      </trkpt>
      <trkpt lat="50.25753" lon="1.59434">
        <ele>5.9</ele>
        <time>2023-06-10T08:14:08Z</time>
      </trkpt>
      <trkpt lat="50.25756" lon="1.59445">
        <ele>6.7</ele>
        <time>2023-06-10T08:14:12Z</time>
      </trkpt>
      <trkpt lat="50.2576" lon="1.59459">
        <ele>5.8</ele>
        <time>2023-06-10T08:14:16Z</time>
      </trkpt>
      <trkpt lat="50.25763" lon="1.59472">
        <ele>5</ele>
        <time>2023-06-10T08:14:20Z</time>
      </trkpt>
      <trkpt lat="50.25767" lon="1.59482">
        <ele>5</ele>
        <time>2023-06-10T08:14:24Z</time>
      </trkpt>
      <trkpt lat="50.25774" lon="1.59482">
        <ele>4.8</ele>
        <time>2023-06-10T08:14:28Z</time>
      </trkpt>
      <trkpt lat="50.25779" lon="1.59484">
        <ele>4.6</ele>
        <time>2023-06-10T08:14:46Z</time>
      </trkpt>
      <trkpt lat="50.25779" lon="1.59475">
        <ele>4.9</ele>
        <time>2023-06-10T08:18:50Z</time>
      </trkpt>
      <trkpt lat="50.25783" lon="1.5947">
        <ele>5.1</ele>
        <time>2023-06-10T08:19:14Z</time>
      </trkpt>
      <trkpt lat="50.25783" lon="1.59459">
        <ele>5.6</ele>
        <time>2023-06-10T08:19:20Z</time>
      </trkpt>
      <trkpt lat="50.25781" lon="1.5945">
        <ele>5.9</ele>
        <time>2023-06-10T08:19:22Z</time>
      </trkpt>
      <trkpt lat="50.25778" lon="1.5944">
        <ele>6.2</ele>
        <time>2023-06-10T08:19:24Z</time>
      </trkpt>
      <trkpt lat="50.25776" lon="1.59433">
        <ele>6.4</ele>
        <time>2023-06-10T08:19:26Z</time>
      </trkpt>
      <trkpt lat="50.25772" lon="1.59424">
        <ele>6.3</ele>
        <time>2023-06-10T08:19:30Z</time>
      </trkpt>
      <trkpt lat="50.25768" lon="1.59414">
        <ele>5.8</ele>
        <time>2023-06-10T08:19:34Z</time>
      </trkpt>
      <trkpt lat="50.25765" lon="1.59402">
        <ele>5.3</ele>
        <time>2023-06-10T08:19:38Z</time>
      </trkpt>
      <trkpt lat="50.25762" lon="1.59395">
        <ele>5.1</ele>
        <time>2023-06-10T08:19:40Z</time>
      </trkpt>
      <trkpt lat="50.25759" lon="1.59387">
        <ele>5</ele>
        <time>2023-06-10T08:19:42Z</time>
      </trkpt>
      <trkpt lat="50.25756" lon="1.5938">
        <ele>5.2</ele>
        <time>2023-06-10T08:19:44Z</time>
      </trkpt>
      <trkpt lat="50.25753" lon="1.59372">
        <ele>5.5</ele>
        <time>2023-06-10T08:19:46Z</time>
      </trkpt>
      <trkpt lat="50.25749" lon="1.59364">
        <ele>5.8</ele>
        <time>2023-06-10T08:19:48Z</time>
      </trkpt>
      <trkpt lat="50.25745" lon="1.59356">
        <ele>5.7</ele>
        <time>2023-06-10T08:19:50Z</time>
      </trkpt>
      <trkpt lat="50.25741" lon="1.59348">
        <ele>5.5</ele>
        <time>2023-06-10T08:19:52Z</time>
      </trkpt>
      <trkpt lat="50.25738" lon="1.5934">
        <ele>5.5</ele>
        <time>2023-06-10T08:19:54Z</time>
      </trkpt>
      <trkpt lat="50.25734" lon="1.59331">
        <ele>5.4</ele>
        <time>2023-06-10T08:19:56Z</time>
      </trkpt>
      <trkpt lat="50.2573" lon="1.59323">
        <ele>5.4</ele>
        <time>2023-06-10T08:19:58Z</time>
      </trkpt>
      <trkpt lat="50.25726" lon="1.59315">
        <ele>5.6</ele>
        <time>2023-06-10T08:20:00Z</time>
      </trkpt>
      <trkpt lat="50.25722" lon="1.59306">
        <ele>5.9</ele>
        <time>2023-06-10T08:20:02Z</time>
      </trkpt>
      <trkpt lat="50.25717" lon="1.59298">
        <ele>6</ele>
        <time>2023-06-10T08:20:04Z</time>
      </trkpt>
      <trkpt lat="50.25713" lon="1.59289">
        <ele>6.1</ele>
        <time>2023-06-10T08:20:06Z</time>
      </trkpt>
      <trkpt lat="50.25709" lon="1.59281">
        <ele>6.4</ele>
        <time>2023-06-10T08:20:08Z</time>
      </trkpt>
      <trkpt lat="50.25705" lon="1.59273">
        <ele>6.2</ele>
        <time>2023-06-10T08:20:10Z</time>
      </trkpt>
      <trkpt lat="50.257" lon="1.59265">
        <ele>6</ele>
        <time>2023-06-10T08:20:12Z</time>
      </trkpt>
      <trkpt lat="50.25696" lon="1.59257">
        <ele>6</ele>
        <time>2023-06-10T08:20:14Z</time>
      </trkpt>
      <trkpt lat="50.25692" lon="1.59251">
        <ele>5.8</ele>
        <time>2023-06-10T08:20:16Z</time>
      </trkpt>
      <trkpt lat="50.25688" lon="1.59244">
        <ele>5.7</ele>
        <time>2023-06-10T08:20:18Z</time>
      </trkpt>
      <trkpt lat="50.25685" lon="1.59236">
        <ele>5.6</ele>
        <time>2023-06-10T08:20:20Z</time>
      </trkpt>
      <trkpt lat="50.25682" lon="1.59228">
        <ele>5.5</ele>
        <time>2023-06-10T08:20:22Z</time>
      </trkpt>
      <trkpt lat="50.25679" lon="1.59218">
        <ele>5.4</ele>
        <time>2023-06-10T08:20:24Z</time>
      </trkpt>
      <trkpt lat="50.25675" lon="1.59209">
        <ele>5.4</ele>
        <time>2023-06-10T08:20:26Z</time>
      </trkpt>
      <trkpt lat="50.25672" lon="1.59201">
        <ele>5.7</ele>
        <time>2023-06-10T08:20:28Z</time>
      </trkpt>
      <trkpt lat="50.25669" lon="1.59192">
        <ele>6</ele>
        <time>2023-06-10T08:20:30Z</time>
      </trkpt>
      <trkpt lat="50.25666" lon="1.59182">
        <ele>6</ele>
        <time>2023-06-10T08:20:32Z</time>
      </trkpt>
      <trkpt lat="50.25664" lon="1.59172">
        <ele>5.8</ele>
        <time>2023-06-10T08:20:34Z</time>
      </trkpt>
      <trkpt lat="50.25661" lon="1.59163">
        <ele>5.7</ele>
        <time>2023-06-10T08:20:36Z</time>
      </trkpt>
      <trkpt lat="50.25657" lon="1.59156">
        <ele>5.6</ele>
        <time>2023-06-10T08:20:38Z</time>
      </trkpt>
      <trkpt lat="50.25651" lon="1.59151">
        <ele>5.5</ele>
        <time>2023-06-10T08:20:40Z</time>
      </trkpt>
      <trkpt lat="50.25647" lon="1.59143">
        <ele>5.4</ele>
        <time>2023-06-10T08:20:42Z</time>
      </trkpt>
      <trkpt lat="50.25644" lon="1.59134">
        <ele>5.4</ele>
        <time>2023-06-10T08:20:44Z</time>
      </trkpt>
      <trkpt lat="50.25642" lon="1.59124">
        <ele>5.2</ele>
        <time>2023-06-10T08:20:46Z</time>
      </trkpt>
      <trkpt lat="50.25641" lon="1.59113">
        <ele>5.1</ele>
        <time>2023-06-10T08:20:48Z</time>
      </trkpt>
      <trkpt lat="50.25641" lon="1.59102">
        <ele>5.1</ele>
        <time>2023-06-10T08:20:50Z</time>
      </trkpt>
      <trkpt lat="50.25642" lon="1.59092">
        <ele>5.1</ele>
        <time>2023-06-10T08:20:52Z</time>
      </trkpt>
      <trkpt lat="50.25644" lon="1.59082">
        <ele>5</ele>
        <time>2023-06-10T08:20:54Z</time>
      </trkpt>
      <trkpt lat="50.25645" lon="1.59074">
        <ele>5.3</ele>
        <time>2023-06-10T08:20:56Z</time>
      </trkpt>
      <trkpt lat="50.25647" lon="1.59066">
        <ele>5.4</ele>
        <time>2023-06-10T08:20:58Z</time>
      </trkpt>
      <trkpt lat="50.25644" lon="1.59056">
        <ele>5.8</ele>
        <time>2023-06-10T08:21:02Z</time>
      </trkpt>
      <trkpt lat="50.25642" lon="1.59043">
        <ele>5.9</ele>
        <time>2023-06-10T08:21:06Z</time>
      </trkpt>
      <trkpt lat="50.25641" lon="1.59035">
        <ele>5.9</ele>
        <time>2023-06-10T08:21:08Z</time>
      </trkpt>
      <trkpt lat="50.25639" lon="1.59028">
        <ele>6</ele>
        <time>2023-06-10T08:21:10Z</time>
      </trkpt>
      <trkpt lat="50.25637" lon="1.5902">
        <ele>6.2</ele>
        <time>2023-06-10T08:21:12Z</time>
      </trkpt>
      <trkpt lat="50.25633" lon="1.59011">
        <ele>6.3</ele>
        <time>2023-06-10T08:21:14Z</time>
      </trkpt>
      <trkpt lat="50.2563" lon="1.59001">
        <ele>6.3</ele>
        <time>2023-06-10T08:21:16Z</time>
      </trkpt>
      <trkpt lat="50.25627" lon="1.58991">
        <ele>6.1</ele>
        <time>2023-06-10T08:21:18Z</time>
      </trkpt>
      <trkpt lat="50.25624" lon="1.58981">
        <ele>5.9</ele>
        <time>2023-06-10T08:21:20Z</time>
      </trkpt>
      <trkpt lat="50.25621" lon="1.58972">
        <ele>5.7</ele>
        <time>2023-06-10T08:21:22Z</time>
      </trkpt>
      <trkpt lat="50.25618" lon="1.58963">
        <ele>5.7</ele>
        <time>2023-06-10T08:21:24Z</time>
      </trkpt>
      <trkpt lat="50.25616" lon="1.58954">
        <ele>5.9</ele>
        <time>2023-06-10T08:21:26Z</time>
      </trkpt>
      <trkpt lat="50.25613" lon="1.58944">
        <ele>6.1</ele>
        <time>2023-06-10T08:21:28Z</time>
      </trkpt>
      <trkpt lat="50.25609" lon="1.58934">
        <ele>6.3</ele>
        <time>2023-06-10T08:21:30Z</time>
      </trkpt>
      <trkpt lat="50.25605" lon="1.58924">
        <ele>6.4</ele>
        <time>2023-06-10T08:21:32Z</time>
      </trkpt>
      <trkpt lat="50.25601" lon="1.58915">
        <ele>6.3</ele>
        <time>2023-06-10T08:21:34Z</time>
      </trkpt>
      <trkpt lat="50.25598" lon="1.58905">
        <ele>6.3</ele>
        <time>2023-06-10T08:21:36Z</time>
      </trkpt>
      <trkpt lat="50.25595" lon="1.58896">
        <ele>6.1</ele>
        <time>2023-06-10T08:21:38Z</time>
      </trkpt>
      <trkpt lat="50.25591" lon="1.58887">
        <ele>5.9</ele>
        <time>2023-06-10T08:21:40Z</time>
      </trkpt>
      <trkpt lat="50.25588" lon="1.58878">
        <ele>5.9</ele>
        <time>2023-06-10T08:21:42Z</time>
      </trkpt>
      <trkpt lat="50.25585" lon="1.58869">
        <ele>5.8</ele>
        <time>2023-06-10T08:21:44Z</time>
      </trkpt>
      <trkpt lat="50.25582" lon="1.58862">
        <ele>5.9</ele>
        <time>2023-06-10T08:21:46Z</time>
      </trkpt>
      <trkpt lat="50.25577" lon="1.58856">
        <ele>5.9</ele>
        <time>2023-06-10T08:21:50Z</time>
      </trkpt>
      <trkpt lat="50.2557" lon="1.58857">
        <ele>5.6</ele>
        <time>2023-06-10T08:21:54Z</time>
      </trkpt>
      <trkpt lat="50.25563" lon="1.58859">
        <ele>5.3</ele>
        <time>2023-06-10T08:21:58Z</time>
      </trkpt>
      <trkpt lat="50.25559" lon="1.58854">
        <ele>5.2</ele>
        <time>2023-06-10T08:22:12Z</time>
      </trkpt>
      <trkpt lat="50.25555" lon="1.58842">
        <ele>5</ele>
        <time>2023-06-10T08:22:16Z</time>
      </trkpt>
      <trkpt lat="50.25553" lon="1.58833">
        <ele>5</ele>
        <time>2023-06-10T08:22:18Z</time>
      </trkpt>
      <trkpt lat="50.25551" lon="1.58822">
        <ele>5</ele>
        <time>2023-06-10T08:22:20Z</time>
      </trkpt>
      <trkpt lat="50.2555" lon="1.58811">
        <ele>5</ele>
        <time>2023-06-10T08:22:22Z</time>
      </trkpt>
      <trkpt lat="50.25546" lon="1.58803">
        <ele>5</ele>
        <time>2023-06-10T08:22:24Z</time>
      </trkpt>
      <trkpt lat="50.25541" lon="1.58795">
        <ele>5</ele>
        <time>2023-06-10T08:22:26Z</time>
      </trkpt>
      <trkpt lat="50.25538" lon="1.58786">
        <ele>5</ele>
        <time>2023-06-10T08:22:28Z</time>
      </trkpt>
      <trkpt lat="50.25535" lon="1.58776">
        <ele>5</ele>
        <time>2023-06-10T08:22:30Z</time>
      </trkpt>
      <trkpt lat="50.25532" lon="1.58767">
        <ele>5.1</ele>
        <time>2023-06-10T08:22:32Z</time>
      </trkpt>
      <trkpt lat="50.25528" lon="1.58757">
        <ele>5</ele>
        <time>2023-06-10T08:22:34Z</time>
      </trkpt>
      <trkpt lat="50.25525" lon="1.58749">
        <ele>5</ele>
        <time>2023-06-10T08:22:36Z</time>
      </trkpt>
      <trkpt lat="50.25522" lon="1.58742">
        <ele>5</ele>
        <time>2023-06-10T08:22:38Z</time>
      </trkpt>
      <trkpt lat="50.25519" lon="1.58734">
        <ele>5</ele>
        <time>2023-06-10T08:22:40Z</time>
      </trkpt>
      <trkpt lat="50.25515" lon="1.58727">
        <ele>5</ele>
        <time>2023-06-10T08:22:42Z</time>
      </trkpt>
      <trkpt lat="50.25511" lon="1.58722">
        <ele>5</ele>
        <time>2023-06-10T08:22:44Z</time>
      </trkpt>
      <trkpt lat="50.25507" lon="1.58716">
        <ele>5</ele>
        <time>2023-06-10T08:22:46Z</time>
      </trkpt>
      <trkpt lat="50.25504" lon="1.58711">
        <ele>5</ele>
        <time>2023-06-10T08:22:48Z</time>
      </trkpt>
      <trkpt lat="50.25499" lon="1.58706">
        <ele>5</ele>
        <time>2023-06-10T08:22:50Z</time>
      </trkpt>
      <trkpt lat="50.25495" lon="1.58702">
        <ele>5</ele>
        <time>2023-06-10T08:22:52Z</time>
      </trkpt>
      <trkpt lat="50.25491" lon="1.58695">
        <ele>5</ele>
        <time>2023-06-10T08:22:54Z</time>
      </trkpt>
      <trkpt lat="50.25486" lon="1.58686">
        <ele>5</ele>
        <time>2023-06-10T08:22:56Z</time>
      </trkpt>
      <trkpt lat="50.25481" lon="1.58678">
        <ele>5</ele>
        <time>2023-06-10T08:22:58Z</time>
      </trkpt>
      <trkpt lat="50.25478" lon="1.58669">
        <ele>5</ele>
        <time>2023-06-10T08:23:00Z</time>
      </trkpt>
      <trkpt lat="50.25476" lon="1.5866">
        <ele>5</ele>
        <time>2023-06-10T08:23:02Z</time>
      </trkpt>
      <trkpt lat="50.25474" lon="1.58651">
        <ele>5</ele>
        <time>2023-06-10T08:23:04Z</time>
      </trkpt>
      <trkpt lat="50.25471" lon="1.58641">
        <ele>5</ele>
        <time>2023-06-10T08:23:06Z</time>
      </trkpt>
      <trkpt lat="50.25469" lon="1.58629">
        <ele>5</ele>
        <time>2023-06-10T08:23:08Z</time>
      </trkpt>
      <trkpt lat="50.25468" lon="1.58618">
        <ele>5</ele>
        <time>2023-06-10T08:23:10Z</time>
      </trkpt>
      <trkpt lat="50.25468" lon="1.58608">
        <ele>5</ele>
        <time>2023-06-10T08:23:12Z</time>
      </trkpt>
      <trkpt lat="50.25468" lon="1.58597">
        <ele>5</ele>
        <time>2023-06-10T08:23:14Z</time>
      </trkpt>
      <trkpt lat="50.25468" lon="1.58587">
        <ele>5</ele>
        <time>2023-06-10T08:23:16Z</time>
      </trkpt>
      <trkpt lat="50.25468" lon="1.58578">
        <ele>5</ele>
        <time>2023-06-10T08:23:18Z</time>
      </trkpt>
      <trkpt lat="50.25469" lon="1.58569">
        <ele>5</ele>
        <time>2023-06-10T08:23:20Z</time>
      </trkpt>
      <trkpt lat="50.25471" lon="1.58559">
        <ele>5</ele>
        <time>2023-06-10T08:23:22Z</time>
      </trkpt>
      <trkpt lat="50.25473" lon="1.58549">
        <ele>5</ele>
        <time>2023-06-10T08:23:24Z</time>
      </trkpt>
      <trkpt lat="50.25476" lon="1.58539">
        <ele>5.1</ele>
        <time>2023-06-10T08:23:26Z</time>
      </trkpt>
      <trkpt lat="50.25478" lon="1.5853">
        <ele>5</ele>
        <time>2023-06-10T08:23:28Z</time>
      </trkpt>
      <trkpt lat="50.25481" lon="1.58523">
        <ele>5</ele>
        <time>2023-06-10T08:23:30Z</time>
      </trkpt>
      <trkpt lat="50.25483" lon="1.58516">
        <ele>5</ele>
        <time>2023-06-10T08:23:32Z</time>
      </trkpt>
      <trkpt lat="50.25486" lon="1.58509">
        <ele>5</ele>
        <time>2023-06-10T08:24:38Z</time>
      </trkpt>
      <trkpt lat="50.25489" lon="1.58496">
        <ele>5</ele>
        <time>2023-06-10T08:24:42Z</time>
      </trkpt>
      <trkpt lat="50.25491" lon="1.58486">
        <ele>5</ele>
        <time>2023-06-10T08:24:46Z</time>
      </trkpt>
      <trkpt lat="50.25491" lon="1.58478">
        <ele>5</ele>
        <time>2023-06-10T08:24:52Z</time>
      </trkpt>
      <trkpt lat="50.25492" lon="1.58465">
        <ele>5</ele>
        <time>2023-06-10T08:24:56Z</time>
      </trkpt>
      <trkpt lat="50.25493" lon="1.58457">
        <ele>5</ele>
        <time>2023-06-10T08:24:58Z</time>
      </trkpt>
      <trkpt lat="50.25494" lon="1.58447">
        <ele>5</ele>
        <time>2023-06-10T08:25:00Z</time>
      </trkpt>
      <trkpt lat="50.25494" lon="1.58436">
        <ele>5</ele>
        <time>2023-06-10T08:25:02Z</time>
      </trkpt>
      <trkpt lat="50.25495" lon="1.58425">
        <ele>5</ele>
        <time>2023-06-10T08:25:04Z</time>
      </trkpt>
      <trkpt lat="50.25495" lon="1.58413">
        <ele>5</ele>
        <time>2023-06-10T08:25:06Z</time>
      </trkpt>
      <trkpt lat="50.25495" lon="1.58403">
        <ele>5</ele>
        <time>2023-06-10T08:25:08Z</time>
      </trkpt>
      <trkpt lat="50.25494" lon="1.5839">
        <ele>5</ele>
        <time>2023-06-10T08:25:12Z</time>
      </trkpt>
      <trkpt lat="50.25494" lon="1.58382">
        <ele>5</ele>
        <time>2023-06-10T08:25:14Z</time>
      </trkpt>
      <trkpt lat="50.25494" lon="1.58368">
        <ele>5</ele>
        <time>2023-06-10T08:25:18Z</time>
      </trkpt>
      <trkpt lat="50.25494" lon="1.58358">
        <ele>5</ele>
        <time>2023-06-10T08:25:20Z</time>
      </trkpt>
      <trkpt lat="50.25495" lon="1.58351">
        <ele>5</ele>
        <time>2023-06-10T08:25:22Z</time>
      </trkpt>
      <trkpt lat="50.25496" lon="1.58343">
        <ele>5</ele>
        <time>2023-06-10T08:25:24Z</time>
      </trkpt>
      <trkpt lat="50.25496" lon="1.58333">
        <ele>5</ele>
        <time>2023-06-10T08:25:26Z</time>
      </trkpt>
      <trkpt lat="50.25497" lon="1.58324">
        <ele>5</ele>
        <time>2023-06-10T08:25:28Z</time>
      </trkpt>
      <trkpt lat="50.25498" lon="1.58314">
        <ele>5</ele>
        <time>2023-06-10T08:25:30Z</time>
      </trkpt>
      <trkpt lat="50.25499" lon="1.58304">
        <ele>5</ele>
        <time>2023-06-10T08:25:32Z</time>
      </trkpt>
      <trkpt lat="50.255" lon="1.58295">
        <ele>5</ele>
        <time>2023-06-10T08:25:34Z</time>
      </trkpt>
      <trkpt lat="50.25501" lon="1.58286">
        <ele>5</ele>
        <time>2023-06-10T08:25:36Z</time>
      </trkpt>
      <trkpt lat="50.25503" lon="1.58277">
        <ele>5.1</ele>
        <time>2023-06-10T08:25:38Z</time>
      </trkpt>
      <trkpt lat="50.25504" lon="1.5827">
        <ele>5.1</ele>
        <time>2023-06-10T08:25:40Z</time>
      </trkpt>
      <trkpt lat="50.25504" lon="1.58262">
        <ele>5.1</ele>
        <time>2023-06-10T08:25:42Z</time>
      </trkpt>
      <trkpt lat="50.25504" lon="1.58254">
        <ele>5.2</ele>
        <time>2023-06-10T08:25:44Z</time>
      </trkpt>
      <trkpt lat="50.25505" lon="1.5824">
        <ele>5.1</ele>
        <time>2023-06-10T08:25:48Z</time>
      </trkpt>
      <trkpt lat="50.25507" lon="1.58233">
        <ele>5.1</ele>
        <time>2023-06-10T08:25:50Z</time>
      </trkpt>
      <trkpt lat="50.25509" lon="1.58226">
        <ele>5</ele>
        <time>2023-06-10T08:25:52Z</time>
      </trkpt>
      <trkpt lat="50.2551" lon="1.58218">
        <ele>5</ele>
        <time>2023-06-10T08:25:54Z</time>
      </trkpt>
      <trkpt lat="50.25511" lon="1.58211">
        <ele>5</ele>
        <time>2023-06-10T08:25:56Z</time>
      </trkpt>
      <trkpt lat="50.25513" lon="1.58204">
        <ele>5</ele>
        <time>2023-06-10T08:25:58Z</time>
      </trkpt>
      <trkpt lat="50.25514" lon="1.58197">
        <ele>5</ele>
        <time>2023-06-10T08:26:00Z</time>
      </trkpt>
      <trkpt lat="50.25516" lon="1.58189">
        <ele>5</ele>
        <time>2023-06-10T08:26:02Z</time>
      </trkpt>
      <trkpt lat="50.25518" lon="1.58183">
        <ele>5</ele>
        <time>2023-06-10T08:26:04Z</time>
      </trkpt>
      <trkpt lat="50.25522" lon="1.5817">
        <ele>5</ele>
        <time>2023-06-10T08:26:08Z</time>
      </trkpt>
      <trkpt lat="50.25524" lon="1.58162">
        <ele>5</ele>
        <time>2023-06-10T08:26:10Z</time>
      </trkpt>
      <trkpt lat="50.25525" lon="1.58155">
        <ele>5</ele>
        <time>2023-06-10T08:26:12Z</time>
      </trkpt>
      <trkpt lat="50.25526" lon="1.58148">
        <ele>5</ele>
        <time>2023-06-10T08:26:14Z</time>
      </trkpt>
      <trkpt lat="50.25528" lon="1.5814">
        <ele>5</ele>
        <time>2023-06-10T08:26:16Z</time>
      </trkpt>
      <trkpt lat="50.2553" lon="1.58132">
        <ele>5.3</ele>
        <time>2023-06-10T08:26:18Z</time>
      </trkpt>
      <trkpt lat="50.25533" lon="1.58125">
        <ele>5.5</ele>
        <time>2023-06-10T08:26:20Z</time>
      </trkpt>
      <trkpt lat="50.25535" lon="1.58117">
        <ele>5.6</ele>
        <time>2023-06-10T08:26:22Z</time>
      </trkpt>
      <trkpt lat="50.25538" lon="1.58108">
        <ele>5.7</ele>
        <time>2023-06-10T08:26:24Z</time>
      </trkpt>
      <trkpt lat="50.2554" lon="1.58099">
        <ele>5.7</ele>
        <time>2023-06-10T08:26:26Z</time>
      </trkpt>
      <trkpt lat="50.25543" lon="1.58089">
        <ele>5.6</ele>
        <time>2023-06-10T08:26:28Z</time>
      </trkpt>
      <trkpt lat="50.25545" lon="1.58079">
        <ele>5.5</ele>
        <time>2023-06-10T08:26:30Z</time>
      </trkpt>
      <trkpt lat="50.25547" lon="1.58069">
        <ele>5.3</ele>
        <time>2023-06-10T08:26:32Z</time>
      </trkpt>
      <trkpt lat="50.25548" lon="1.58058">
        <ele>5.1</ele>
        <time>2023-06-10T08:26:34Z</time>
      </trkpt>
      <trkpt lat="50.2555" lon="1.58048">
        <ele>5</ele>
        <time>2023-06-10T08:26:36Z</time>
      </trkpt>
      <trkpt lat="50.25551" lon="1.58038">
        <ele>5</ele>
        <time>2023-06-10T08:26:38Z</time>
      </trkpt>
      <trkpt lat="50.25551" lon="1.58028">
        <ele>5</ele>
        <time>2023-06-10T08:26:40Z</time>
      </trkpt>
      <trkpt lat="50.25552" lon="1.58017">
        <ele>5</ele>
        <time>2023-06-10T08:26:42Z</time>
      </trkpt>
      <trkpt lat="50.25553" lon="1.58008">
        <ele>5</ele>
        <time>2023-06-10T08:26:44Z</time>
      </trkpt>
      <trkpt lat="50.25554" lon="1.57999">
        <ele>5</ele>
        <time>2023-06-10T08:26:46Z</time>
      </trkpt>
      <trkpt lat="50.25555" lon="1.57991">
        <ele>5</ele>
        <time>2023-06-10T08:26:48Z</time>
      </trkpt>
      <trkpt lat="50.25555" lon="1.57982">
        <ele>5</ele>
        <time>2023-06-10T08:26:50Z</time>
      </trkpt>
      <trkpt lat="50.25555" lon="1.57974">
        <ele>5</ele>
        <time>2023-06-10T08:26:52Z</time>
      </trkpt>
      <trkpt lat="50.25556" lon="1.57966">
        <ele>5</ele>
        <time>2023-06-10T08:26:54Z</time>
      </trkpt>
      <trkpt lat="50.25557" lon="1.57952">
        <ele>5</ele>
        <time>2023-06-10T08:26:58Z</time>
      </trkpt>
      <trkpt lat="50.2556" lon="1.57946">
        <ele>5</ele>
        <time>2023-06-10T08:27:00Z</time>
      </trkpt>
      <trkpt lat="50.25562" lon="1.57934">
        <ele>5</ele>
        <time>2023-06-10T08:27:04Z</time>
      </trkpt>
      <trkpt lat="50.25561" lon="1.57924">
        <ele>5</ele>
        <time>2023-06-10T08:27:08Z</time>
      </trkpt>
      <trkpt lat="50.25559" lon="1.57917">
        <ele>5</ele>
        <time>2023-06-10T08:29:12Z</time>
      </trkpt>
      <trkpt lat="50.25561" lon="1.57905">
        <ele>5</ele>
        <time>2023-06-10T08:34:00Z</time>
      </trkpt>
      <trkpt lat="50.25562" lon="1.57897">
        <ele>5</ele>
        <time>2023-06-10T08:34:02Z</time>
      </trkpt>
      <trkpt lat="50.25563" lon="1.57888">
        <ele>5</ele>
        <time>2023-06-10T08:34:04Z</time>
      </trkpt>
      <trkpt lat="50.25564" lon="1.5788">
        <ele>5</ele>
        <time>2023-06-10T08:34:06Z</time>
      </trkpt>
      <trkpt lat="50.25565" lon="1.5787">
        <ele>5</ele>
        <time>2023-06-10T08:34:08Z</time>
      </trkpt>
      <trkpt lat="50.25565" lon="1.57863">
        <ele>5</ele>
        <time>2023-06-10T08:34:10Z</time>
      </trkpt>
      <trkpt lat="50.25565" lon="1.57855">
        <ele>5</ele>
        <time>2023-06-10T08:34:12Z</time>
      </trkpt>
      <trkpt lat="50.25566" lon="1.57846">
        <ele>5</ele>
        <time>2023-06-10T08:34:14Z</time>
      </trkpt>
      <trkpt lat="50.25566" lon="1.57839">
        <ele>5</ele>
        <time>2023-06-10T08:34:16Z</time>
      </trkpt>
      <trkpt lat="50.25566" lon="1.57831">
        <ele>5</ele>
        <time>2023-06-10T08:34:18Z</time>
      </trkpt>
      <trkpt lat="50.25566" lon="1.57822">
        <ele>5</ele>
        <time>2023-06-10T08:34:20Z</time>
      </trkpt>
      <trkpt lat="50.25566" lon="1.57814">
        <ele>5</ele>
        <time>2023-06-10T08:34:22Z</time>
      </trkpt>
      <trkpt lat="50.25566" lon="1.57806">
        <ele>5</ele>
        <time>2023-06-10T08:34:24Z</time>
      </trkpt>
      <trkpt lat="50.25566" lon="1.57797">
        <ele>5</ele>
        <time>2023-06-10T08:34:26Z</time>
      </trkpt>
      <trkpt lat="50.25566" lon="1.57789">
        <ele>5</ele>
        <time>2023-06-10T08:34:28Z</time>
      </trkpt>
      <trkpt lat="50.25566" lon="1.5778">
        <ele>5</ele>
        <time>2023-06-10T08:34:30Z</time>
      </trkpt>
      <trkpt lat="50.25567" lon="1.57771">
        <ele>5</ele>
        <time>2023-06-10T08:34:32Z</time>
      </trkpt>
      <trkpt lat="50.25568" lon="1.57762">
        <ele>5</ele>
        <time>2023-06-10T08:34:34Z</time>
      </trkpt>
      <trkpt lat="50.25569" lon="1.57752">
        <ele>5</ele>
        <time>2023-06-10T08:34:36Z</time>
      </trkpt>
      <trkpt lat="50.2557" lon="1.57744">
        <ele>5</ele>
        <time>2023-06-10T08:34:38Z</time>
      </trkpt>
      <trkpt lat="50.2557" lon="1.57736">
        <ele>5</ele>
        <time>2023-06-10T08:34:40Z</time>
      </trkpt>
      <trkpt lat="50.25571" lon="1.57728">
        <ele>5</ele>
        <time>2023-06-10T08:34:42Z</time>
      </trkpt>
      <trkpt lat="50.25572" lon="1.5772">
        <ele>5</ele>
        <time>2023-06-10T08:34:44Z</time>
      </trkpt>
      <trkpt lat="50.25573" lon="1.57711">
        <ele>5</ele>
        <time>2023-06-10T08:34:46Z</time>
      </trkpt>
      <trkpt lat="50.25573" lon="1.57701">
        <ele>5</ele>
        <time>2023-06-10T08:34:48Z</time>
      </trkpt>
      <trkpt lat="50.25574" lon="1.57692">
        <ele>5</ele>
        <time>2023-06-10T08:34:50Z</time>
      </trkpt>
      <trkpt lat="50.25575" lon="1.57684">
        <ele>5</ele>
        <time>2023-06-10T08:34:52Z</time>
      </trkpt>
      <trkpt lat="50.25576" lon="1.57674">
        <ele>5</ele>
        <time>2023-06-10T08:34:54Z</time>
      </trkpt>
      <trkpt lat="50.25577" lon="1.57666">
        <ele>5</ele>
        <time>2023-06-10T08:34:56Z</time>
      </trkpt>
      <trkpt lat="50.25576" lon="1.57658">
        <ele>5</ele>
        <time>2023-06-10T08:34:58Z</time>
      </trkpt>
      <trkpt lat="50.25576" lon="1.57649">
        <ele>5</ele>
        <time>2023-06-10T08:35:00Z</time>
      </trkpt>
      <trkpt lat="50.25577" lon="1.57641">
        <ele>5</ele>
        <time>2023-06-10T08:35:02Z</time>
      </trkpt>
      <trkpt lat="50.25579" lon="1.57633">
        <ele>5</ele>
        <time>2023-06-10T08:35:04Z</time>
      </trkpt>
      <trkpt lat="50.2558" lon="1.57625">
        <ele>5</ele>
        <time>2023-06-10T08:35:06Z</time>
      </trkpt>
      <trkpt lat="50.2558" lon="1.57615">
        <ele>5</ele>
        <time>2023-06-10T08:35:08Z</time>
      </trkpt>
      <trkpt lat="50.25581" lon="1.57606">
        <ele>5</ele>
        <time>2023-06-10T08:35:10Z</time>
      </trkpt>
      <trkpt lat="50.25583" lon="1.57597">
        <ele>5</ele>
        <time>2023-06-10T08:35:12Z</time>
      </trkpt>
      <trkpt lat="50.25585" lon="1.57589">
        <ele>5</ele>
        <time>2023-06-10T08:35:14Z</time>
      </trkpt>
      <trkpt lat="50.25587" lon="1.57581">
        <ele>5</ele>
        <time>2023-06-10T08:35:16Z</time>
      </trkpt>
      <trkpt lat="50.25588" lon="1.57572">
        <ele>5</ele>
        <time>2023-06-10T08:35:18Z</time>
      </trkpt>
      <trkpt lat="50.25589" lon="1.57563">
        <ele>5</ele>
        <time>2023-06-10T08:35:20Z</time>
      </trkpt>
      <trkpt lat="50.25591" lon="1.57554">
        <ele>5</ele>
        <time>2023-06-10T08:35:22Z</time>
      </trkpt>
      <trkpt lat="50.25592" lon="1.57545">
        <ele>5</ele>
        <time>2023-06-10T08:35:24Z</time>
      </trkpt>
      <trkpt lat="50.25595" lon="1.57537">
        <ele>5</ele>
        <time>2023-06-10T08:35:26Z</time>
      </trkpt>
      <trkpt lat="50.25598" lon="1.57529">
        <ele>5</ele>
        <time>2023-06-10T08:35:28Z</time>
      </trkpt>
      <trkpt lat="50.25601" lon="1.5752">
        <ele>5</ele>
        <time>2023-06-10T08:35:30Z</time>
      </trkpt>
      <trkpt lat="50.25601" lon="1.57511">
        <ele>5</ele>
        <time>2023-06-10T08:35:32Z</time>
      </trkpt>
      <trkpt lat="50.25602" lon="1.57502">
        <ele>5</ele>
        <time>2023-06-10T08:35:34Z</time>
      </trkpt>
      <trkpt lat="50.25603" lon="1.57493">
        <ele>5</ele>
        <time>2023-06-10T08:35:36Z</time>
      </trkpt>
      <trkpt lat="50.25603" lon="1.57483">
        <ele>5</ele>
        <time>2023-06-10T08:35:38Z</time>
      </trkpt>
      <trkpt lat="50.25602" lon="1.57473">
        <ele>5</ele>
        <time>2023-06-10T08:35:40Z</time>
      </trkpt>
      <trkpt lat="50.25602" lon="1.57463">
        <ele>5</ele>
        <time>2023-06-10T08:35:42Z</time>
      </trkpt>
      <trkpt lat="50.25602" lon="1.57452">
        <ele>5</ele>
        <time>2023-06-10T08:35:44Z</time>
      </trkpt>
      <trkpt lat="50.25602" lon="1.57442">
        <ele>5</ele>
        <time>2023-06-10T08:35:46Z</time>
      </trkpt>
      <trkpt lat="50.25601" lon="1.57432">
        <ele>5</ele>
        <time>2023-06-10T08:35:48Z</time>
      </trkpt>
      <trkpt lat="50.25601" lon="1.57421">
        <ele>5</ele>
        <time>2023-06-10T08:35:50Z</time>
      </trkpt>
      <trkpt lat="50.25601" lon="1.5741">
        <ele>5</ele>
        <time>2023-06-10T08:35:52Z</time>
      </trkpt>
      <trkpt lat="50.25601" lon="1.574">
        <ele>5</ele>
        <time>2023-06-10T08:35:54Z</time>
      </trkpt>
      <trkpt lat="50.256" lon="1.5739">
        <ele>5</ele>
        <time>2023-06-10T08:35:56Z</time>
      </trkpt>
      <trkpt lat="50.256" lon="1.5738">
        <ele>5</ele>
        <time>2023-06-10T08:35:58Z</time>
      </trkpt>
      <trkpt lat="50.25599" lon="1.57369">
        <ele>5</ele>
        <time>2023-06-10T08:36:00Z</time>
      </trkpt>
      <trkpt lat="50.256" lon="1.57358">
        <ele>5</ele>
        <time>2023-06-10T08:36:02Z</time>
      </trkpt>
      <trkpt lat="50.256" lon="1.57348">
        <ele>5</ele>
        <time>2023-06-10T08:36:04Z</time>
      </trkpt>
      <trkpt lat="50.25599" lon="1.57336">
        <ele>5</ele>
        <time>2023-06-10T08:36:06Z</time>
      </trkpt>
      <trkpt lat="50.25598" lon="1.57326">
        <ele>5</ele>
        <time>2023-06-10T08:36:08Z</time>
      </trkpt>
      <trkpt lat="50.25596" lon="1.57315">
        <ele>5</ele>
        <time>2023-06-10T08:36:10Z</time>
      </trkpt>
      <trkpt lat="50.25595" lon="1.57305">
        <ele>5</ele>
        <time>2023-06-10T08:36:12Z</time>
      </trkpt>
      <trkpt lat="50.25593" lon="1.57295">
        <ele>5</ele>
        <time>2023-06-10T08:36:14Z</time>
      </trkpt>
      <trkpt lat="50.25592" lon="1.57285">
        <ele>5</ele>
        <time>2023-06-10T08:36:16Z</time>
      </trkpt>
      <trkpt lat="50.25591" lon="1.57275">
        <ele>5</ele>
        <time>2023-06-10T08:36:18Z</time>
      </trkpt>
      <trkpt lat="50.2559" lon="1.57265">
        <ele>5</ele>
        <time>2023-06-10T08:36:20Z</time>
      </trkpt>
      <trkpt lat="50.25589" lon="1.57254">
        <ele>5</ele>
        <time>2023-06-10T08:36:22Z</time>
      </trkpt>
      <trkpt lat="50.25588" lon="1.57244">
        <ele>5</ele>
        <time>2023-06-10T08:36:24Z</time>
      </trkpt>
      <trkpt lat="50.25587" lon="1.57234">
        <ele>5</ele>
        <time>2023-06-10T08:36:26Z</time>
      </trkpt>
      <trkpt lat="50.25586" lon="1.57224">
        <ele>5</ele>
        <time>2023-06-10T08:36:28Z</time>
      </trkpt>
      <trkpt lat="50.25585" lon="1.57214">
        <ele>5</ele>
        <time>2023-06-10T08:36:30Z</time>
      </trkpt>
      <trkpt lat="50.25583" lon="1.57204">
        <ele>5</ele>
        <time>2023-06-10T08:36:32Z</time>
      </trkpt>
      <trkpt lat="50.25582" lon="1.57193">
        <ele>5</ele>
        <time>2023-06-10T08:36:34Z</time>
      </trkpt>
      <trkpt lat="50.2558" lon="1.57183">
        <ele>5</ele>
        <time>2023-06-10T08:36:36Z</time>
      </trkpt>
      <trkpt lat="50.25578" lon="1.57172">
        <ele>5</ele>
        <time>2023-06-10T08:36:38Z</time>
      </trkpt>
      <trkpt lat="50.25577" lon="1.57162">
        <ele>5</ele>
        <time>2023-06-10T08:36:40Z</time>
      </trkpt>
      <trkpt lat="50.25576" lon="1.57152">
        <ele>5</ele>
        <time>2023-06-10T08:36:42Z</time>
      </trkpt>
      <trkpt lat="50.25574" lon="1.57142">
        <ele>5</ele>
        <time>2023-06-10T08:36:44Z</time>
      </trkpt>
      <trkpt lat="50.25574" lon="1.57131">
        <ele>5</ele>
        <time>2023-06-10T08:36:46Z</time>
      </trkpt>
      <trkpt lat="50.25573" lon="1.57121">
        <ele>5</ele>
        <time>2023-06-10T08:36:48Z</time>
      </trkpt>
      <trkpt lat="50.25572" lon="1.57111">
        <ele>5</ele>
        <time>2023-06-10T08:36:50Z</time>
      </trkpt>
      <trkpt lat="50.2557" lon="1.571">
        <ele>5</ele>
        <time>2023-06-10T08:36:52Z</time>
      </trkpt>
      <trkpt lat="50.25569" lon="1.57089">
        <ele>5</ele>
        <time>2023-06-10T08:36:54Z</time>
      </trkpt>
      <trkpt lat="50.25567" lon="1.57077">
        <ele>5</ele>
        <time>2023-06-10T08:36:56Z</time>
      </trkpt>
      <trkpt lat="50.25566" lon="1.57066">
        <ele>5</ele>
        <time>2023-06-10T08:36:58Z</time>
      </trkpt>
      <trkpt lat="50.25565" lon="1.57055">
        <ele>5</ele>
        <time>2023-06-10T08:37:00Z</time>
      </trkpt>
      <trkpt lat="50.25565" lon="1.57043">
        <ele>5</ele>
        <time>2023-06-10T08:37:02Z</time>
      </trkpt>
      <trkpt lat="50.25563" lon="1.57033">
        <ele>5</ele>
        <time>2023-06-10T08:37:04Z</time>
      </trkpt>
      <trkpt lat="50.25562" lon="1.57022">
        <ele>5</ele>
        <time>2023-06-10T08:37:06Z</time>
      </trkpt>
      <trkpt lat="50.2556" lon="1.57012">
        <ele>5</ele>
        <time>2023-06-10T08:37:08Z</time>
      </trkpt>
      <trkpt lat="50.25559" lon="1.57001">
        <ele>5</ele>
        <time>2023-06-10T08:37:10Z</time>
      </trkpt>
      <trkpt lat="50.25558" lon="1.56991">
        <ele>5</ele>
        <time>2023-06-10T08:37:12Z</time>
      </trkpt>
      <trkpt lat="50.25558" lon="1.5698">
        <ele>5</ele>
        <time>2023-06-10T08:37:14Z</time>
      </trkpt>
      <trkpt lat="50.25557" lon="1.56969">
        <ele>5</ele>
        <time>2023-06-10T08:37:16Z</time>
      </trkpt>
      <trkpt lat="50.25556" lon="1.56958">
        <ele>5</ele>
        <time>2023-06-10T08:37:18Z</time>
      </trkpt>
      <trkpt lat="50.25555" lon="1.56948">
        <ele>5</ele>
        <time>2023-06-10T08:37:20Z</time>
      </trkpt>
      <trkpt lat="50.25554" lon="1.56937">
        <ele>5</ele>
        <time>2023-06-10T08:37:22Z</time>
      </trkpt>
      <trkpt lat="50.25553" lon="1.56927">
        <ele>5</ele>
        <time>2023-06-10T08:37:24Z</time>
      </trkpt>
      <trkpt lat="50.25552" lon="1.56916">
        <ele>5</ele>
        <time>2023-06-10T08:37:26Z</time>
      </trkpt>
      <trkpt lat="50.25551" lon="1.56905">
        <ele>5</ele>
        <time>2023-06-10T08:37:28Z</time>
      </trkpt>
      <trkpt lat="50.25549" lon="1.56894">
        <ele>5</ele>
        <time>2023-06-10T08:37:30Z</time>
      </trkpt>
      <trkpt lat="50.25548" lon="1.56883">
        <ele>5</ele>
        <time>2023-06-10T08:37:32Z</time>
      </trkpt>
      <trkpt lat="50.25547" lon="1.56871">
        <ele>5</ele>
        <time>2023-06-10T08:37:34Z</time>
      </trkpt>
      <trkpt lat="50.25545" lon="1.5686">
        <ele>5</ele>
        <time>2023-06-10T08:37:36Z</time>
      </trkpt>
      <trkpt lat="50.25544" lon="1.56849">
        <ele>5</ele>
        <time>2023-06-10T08:37:38Z</time>
      </trkpt>
      <trkpt lat="50.25543" lon="1.56838">
        <ele>5</ele>
        <time>2023-06-10T08:37:40Z</time>
      </trkpt>
      <trkpt lat="50.25542" lon="1.56827">
        <ele>5</ele>
        <time>2023-06-10T08:37:42Z</time>
      </trkpt>
      <trkpt lat="50.2554" lon="1.56816">
        <ele>5</ele>
        <time>2023-06-10T08:37:44Z</time>
      </trkpt>
      <trkpt lat="50.25539" lon="1.56806">
        <ele>5</ele>
        <time>2023-06-10T08:37:46Z</time>
      </trkpt>
      <trkpt lat="50.25537" lon="1.56795">
        <ele>5</ele>
        <time>2023-06-10T08:37:48Z</time>
      </trkpt>
      <trkpt lat="50.25536" lon="1.56783">
        <ele>5</ele>
        <time>2023-06-10T08:37:50Z</time>
      </trkpt>
      <trkpt lat="50.25535" lon="1.56772">
        <ele>5</ele>
        <time>2023-06-10T08:37:52Z</time>
      </trkpt>
      <trkpt lat="50.25533" lon="1.56761">
        <ele>5</ele>
        <time>2023-06-10T08:37:54Z</time>
      </trkpt>
      <trkpt lat="50.25533" lon="1.56749">
        <ele>5</ele>
        <time>2023-06-10T08:37:56Z</time>
      </trkpt>
      <trkpt lat="50.25532" lon="1.56737">
        <ele>5</ele>
        <time>2023-06-10T08:37:58Z</time>
      </trkpt>
      <trkpt lat="50.25531" lon="1.56725">
        <ele>5</ele>
        <time>2023-06-10T08:38:00Z</time>
      </trkpt>
      <trkpt lat="50.25529" lon="1.56713">
        <ele>5</ele>
        <time>2023-06-10T08:38:02Z</time>
      </trkpt>
      <trkpt lat="50.25528" lon="1.56701">
        <ele>5</ele>
        <time>2023-06-10T08:38:04Z</time>
      </trkpt>
      <trkpt lat="50.25527" lon="1.56689">
        <ele>5</ele>
        <time>2023-06-10T08:38:06Z</time>
      </trkpt>
      <trkpt lat="50.25526" lon="1.56677">
        <ele>5</ele>
        <time>2023-06-10T08:38:08Z</time>
      </trkpt>
      <trkpt lat="50.25524" lon="1.56666">
        <ele>5</ele>
        <time>2023-06-10T08:38:10Z</time>
      </trkpt>
      <trkpt lat="50.25524" lon="1.56654">
        <ele>5</ele>
        <time>2023-06-10T08:38:12Z</time>
      </trkpt>
      <trkpt lat="50.25522" lon="1.56642">
        <ele>5</ele>
        <time>2023-06-10T08:38:14Z</time>
      </trkpt>
      <trkpt lat="50.25521" lon="1.5663">
        <ele>5</ele>
        <time>2023-06-10T08:38:16Z</time>
      </trkpt>
      <trkpt lat="50.2552" lon="1.56618">
        <ele>5</ele>
        <time>2023-06-10T08:38:18Z</time>
      </trkpt>
      <trkpt lat="50.25519" lon="1.56605">
        <ele>5</ele>
        <time>2023-06-10T08:38:20Z</time>
      </trkpt>
      <trkpt lat="50.25518" lon="1.56592">
        <ele>5</ele>
        <time>2023-06-10T08:38:22Z</time>
      </trkpt>
      <trkpt lat="50.25518" lon="1.5658">
        <ele>5</ele>
        <time>2023-06-10T08:38:24Z</time>
      </trkpt>
      <trkpt lat="50.25517" lon="1.56568">
        <ele>5</ele>
        <time>2023-06-10T08:38:26Z</time>
      </trkpt>
      <trkpt lat="50.25516" lon="1.56555">
        <ele>5</ele>
        <time>2023-06-10T08:38:28Z</time>
      </trkpt>
      <trkpt lat="50.25514" lon="1.56543">
        <ele>5</ele>
        <time>2023-06-10T08:38:30Z</time>
      </trkpt>
      <trkpt lat="50.25514" lon="1.56531">
        <ele>5</ele>
        <time>2023-06-10T08:38:32Z</time>
      </trkpt>
      <trkpt lat="50.25513" lon="1.56519">
        <ele>5</ele>
        <time>2023-06-10T08:38:34Z</time>
      </trkpt>
      <trkpt lat="50.25513" lon="1.56507">
        <ele>5</ele>
        <time>2023-06-10T08:38:36Z</time>
      </trkpt>
      <trkpt lat="50.25513" lon="1.56495">
        <ele>5</ele>
        <time>2023-06-10T08:38:38Z</time>
      </trkpt>
      <trkpt lat="50.25512" lon="1.56484">
        <ele>5</ele>
        <time>2023-06-10T08:38:40Z</time>
      </trkpt>
      <trkpt lat="50.25512" lon="1.56473">
        <ele>5</ele>
        <time>2023-06-10T08:38:42Z</time>
      </trkpt>
      <trkpt lat="50.25512" lon="1.56461">
        <ele>5</ele>
        <time>2023-06-10T08:38:44Z</time>
      </trkpt>
      <trkpt lat="50.25512" lon="1.5645">
        <ele>5</ele>
        <time>2023-06-10T08:38:46Z</time>
      </trkpt>
      <trkpt lat="50.25511" lon="1.56438">
        <ele>5</ele>
        <time>2023-06-10T08:38:48Z</time>
      </trkpt>
      <trkpt lat="50.25511" lon="1.56426">
        <ele>5</ele>
        <time>2023-06-10T08:38:50Z</time>
      </trkpt>
      <trkpt lat="50.2551" lon="1.56415">
        <ele>5</ele>
        <time>2023-06-10T08:38:52Z</time>
      </trkpt>
      <trkpt lat="50.25509" lon="1.56403">
        <ele>5</ele>
        <time>2023-06-10T08:38:54Z</time>
      </trkpt>
      <trkpt lat="50.25508" lon="1.56391">
        <ele>5</ele>
        <time>2023-06-10T08:38:56Z</time>
      </trkpt>
      <trkpt lat="50.25508" lon="1.5638">
        <ele>5</ele>
        <time>2023-06-10T08:38:58Z</time>
      </trkpt>
      <trkpt lat="50.25507" lon="1.56368">
        <ele>5</ele>
        <time>2023-06-10T08:39:00Z</time>
      </trkpt>
      <trkpt lat="50.25506" lon="1.56358">
        <ele>5</ele>
        <time>2023-06-10T08:39:02Z</time>
      </trkpt>
      <trkpt lat="50.25506" lon="1.56347">
        <ele>5</ele>
        <time>2023-06-10T08:39:04Z</time>
      </trkpt>
      <trkpt lat="50.25505" lon="1.56336">
        <ele>5</ele>
        <time>2023-06-10T08:39:06Z</time>
      </trkpt>
      <trkpt lat="50.25504" lon="1.56325">
        <ele>5</ele>
        <time>2023-06-10T08:39:08Z</time>
      </trkpt>
      <trkpt lat="50.25502" lon="1.56313">
        <ele>5</ele>
        <time>2023-06-10T08:39:10Z</time>
      </trkpt>
      <trkpt lat="50.25501" lon="1.56303">
        <ele>5</ele>
        <time>2023-06-10T08:39:12Z</time>
      </trkpt>
      <trkpt lat="50.255" lon="1.56291">
        <ele>5</ele>
        <time>2023-06-10T08:39:14Z</time>
      </trkpt>
      <trkpt lat="50.25499" lon="1.5628">
        <ele>5</ele>
        <time>2023-06-10T08:39:16Z</time>
      </trkpt>
      <trkpt lat="50.25498" lon="1.56269">
        <ele>5</ele>
        <time>2023-06-10T08:39:18Z</time>
      </trkpt>
      <trkpt lat="50.25497" lon="1.56258">
        <ele>5</ele>
        <time>2023-06-10T08:39:20Z</time>
      </trkpt>
      <trkpt lat="50.25497" lon="1.56246">
        <ele>5</ele>
        <time>2023-06-10T08:39:22Z</time>
      </trkpt>
      <trkpt lat="50.25497" lon="1.56236">
        <ele>5</ele>
        <time>2023-06-10T08:39:24Z</time>
      </trkpt>
      <trkpt lat="50.25497" lon="1.56225">
        <ele>5</ele>
        <time>2023-06-10T08:39:26Z</time>
      </trkpt>
      <trkpt lat="50.25498" lon="1.56214">
        <ele>5</ele>
        <time>2023-06-10T08:39:28Z</time>
      </trkpt>
      <trkpt lat="50.25497" lon="1.56204">
        <ele>5</ele>
        <time>2023-06-10T08:39:30Z</time>
      </trkpt>
      <trkpt lat="50.25497" lon="1.56193">
        <ele>5</ele>
        <time>2023-06-10T08:39:32Z</time>
      </trkpt>
      <trkpt lat="50.25497" lon="1.56183">
        <ele>5</ele>
        <time>2023-06-10T08:39:34Z</time>
      </trkpt>
      <trkpt lat="50.25498" lon="1.56173">
        <ele>5</ele>
        <time>2023-06-10T08:39:36Z</time>
      </trkpt>
      <trkpt lat="50.25498" lon="1.56163">
        <ele>5</ele>
        <time>2023-06-10T08:39:38Z</time>
      </trkpt>
      <trkpt lat="50.25498" lon="1.56152">
        <ele>5</ele>
        <time>2023-06-10T08:39:40Z</time>
      </trkpt>
      <trkpt lat="50.25498" lon="1.56142">
        <ele>5</ele>
        <time>2023-06-10T08:39:42Z</time>
      </trkpt>
      <trkpt lat="50.25498" lon="1.56132">
        <ele>5</ele>
        <time>2023-06-10T08:39:44Z</time>
      </trkpt>
      <trkpt lat="50.25499" lon="1.56122">
        <ele>5</ele>
        <time>2023-06-10T08:39:46Z</time>
      </trkpt>
      <trkpt lat="50.255" lon="1.56113">
        <ele>5</ele>
        <time>2023-06-10T08:39:48Z</time>
      </trkpt>
      <trkpt lat="50.255" lon="1.56103">
        <ele>5</ele>
        <time>2023-06-10T08:39:50Z</time>
      </trkpt>
      <trkpt lat="50.25501" lon="1.56094">
        <ele>5</ele>
        <time>2023-06-10T08:39:52Z</time>
      </trkpt>
      <trkpt lat="50.25502" lon="1.56084">
        <ele>5</ele>
        <time>2023-06-10T08:39:54Z</time>
      </trkpt>
      <trkpt lat="50.25502" lon="1.56074">
        <ele>5</ele>
        <time>2023-06-10T08:39:56Z</time>
      </trkpt>
      <trkpt lat="50.25503" lon="1.56064">
        <ele>5</ele>
        <time>2023-06-10T08:39:58Z</time>
      </trkpt>
      <trkpt lat="50.25503" lon="1.56054">
        <ele>5</ele>
        <time>2023-06-10T08:40:00Z</time>
      </trkpt>
      <trkpt lat="50.25504" lon="1.56045">
        <ele>5</ele>
        <time>2023-06-10T08:40:02Z</time>
      </trkpt>
      <trkpt lat="50.25505" lon="1.56035">
        <ele>5</ele>
        <time>2023-06-10T08:40:04Z</time>
      </trkpt>
      <trkpt lat="50.25506" lon="1.56026">
        <ele>5</ele>
        <time>2023-06-10T08:40:06Z</time>
      </trkpt>
      <trkpt lat="50.25507" lon="1.56017">
        <ele>5</ele>
        <time>2023-06-10T08:40:08Z</time>
      </trkpt>
      <trkpt lat="50.25508" lon="1.56007">
        <ele>5</ele>
        <time>2023-06-10T08:40:10Z</time>
      </trkpt>
      <trkpt lat="50.2551" lon="1.55998">
        <ele>5</ele>
        <time>2023-06-10T08:40:12Z</time>
      </trkpt>
      <trkpt lat="50.25511" lon="1.55989">
        <ele>5</ele>
        <time>2023-06-10T08:40:14Z</time>
      </trkpt>
      <trkpt lat="50.25511" lon="1.5598">
        <ele>5</ele>
        <time>2023-06-10T08:40:16Z</time>
      </trkpt>
      <trkpt lat="50.25512" lon="1.5597">
        <ele>5</ele>
        <time>2023-06-10T08:40:18Z</time>
      </trkpt>
      <trkpt lat="50.25512" lon="1.55961">
        <ele>5</ele>
        <time>2023-06-10T08:40:20Z</time>
      </trkpt>
      <trkpt lat="50.25513" lon="1.55952">
        <ele>5</ele>
        <time>2023-06-10T08:40:22Z</time>
      </trkpt>
      <trkpt lat="50.25514" lon="1.55943">
        <ele>5</ele>
        <time>2023-06-10T08:40:24Z</time>
      </trkpt>
      <trkpt lat="50.25515" lon="1.55934">
        <ele>5</ele>
        <time>2023-06-10T08:40:26Z</time>
      </trkpt>
      <trkpt lat="50.25516" lon="1.55924">
        <ele>5</ele>
        <time>2023-06-10T08:40:28Z</time>
      </trkpt>
      <trkpt lat="50.25517" lon="1.55915">
        <ele>5</ele>
        <time>2023-06-10T08:40:30Z</time>
      </trkpt>
      <trkpt lat="50.25517" lon="1.55905">
        <ele>5</ele>
        <time>2023-06-10T08:40:32Z</time>
      </trkpt>
      <trkpt lat="50.25518" lon="1.55895">
        <ele>5</ele>
        <time>2023-06-10T08:40:34Z</time>
      </trkpt>
      <trkpt lat="50.25519" lon="1.55886">
        <ele>5</ele>
        <time>2023-06-10T08:40:36Z</time>
      </trkpt>
      <trkpt lat="50.25519" lon="1.55877">
        <ele>5</ele>
        <time>2023-06-10T08:40:38Z</time>
      </trkpt>
      <trkpt lat="50.2552" lon="1.55868">
        <ele>5</ele>
        <time>2023-06-10T08:40:40Z</time>
      </trkpt>
      <trkpt lat="50.2552" lon="1.55859">
        <ele>5</ele>
        <time>2023-06-10T08:40:42Z</time>
      </trkpt>
      <trkpt lat="50.25521" lon="1.55849">
        <ele>5</ele>
        <time>2023-06-10T08:40:44Z</time>
      </trkpt>
      <trkpt lat="50.25522" lon="1.5584">
        <ele>5</ele>
        <time>2023-06-10T08:40:46Z</time>
      </trkpt>
      <trkpt lat="50.25522" lon="1.55831">
        <ele>5</ele>
        <time>2023-06-10T08:40:48Z</time>
      </trkpt>
      <trkpt lat="50.25522" lon="1.55822">
        <ele>5</ele>
        <time>2023-06-10T08:40:50Z</time>
      </trkpt>
      <trkpt lat="50.25522" lon="1.55812">
        <ele>5</ele>
        <time>2023-06-10T08:40:52Z</time>
      </trkpt>
      <trkpt lat="50.25523" lon="1.55803">
        <ele>5</ele>
        <time>2023-06-10T08:40:54Z</time>
      </trkpt>
      <trkpt lat="50.25523" lon="1.55793">
        <ele>5</ele>
        <time>2023-06-10T08:40:56Z</time>
      </trkpt>
      <trkpt lat="50.25524" lon="1.55783">
        <ele>5</ele>
        <time>2023-06-10T08:40:58Z</time>
      </trkpt>
      <trkpt lat="50.25525" lon="1.55772">
        <ele>5</ele>
        <time>2023-06-10T08:41:00Z</time>
      </trkpt>
      <trkpt lat="50.25526" lon="1.55763">
        <ele>5</ele>
        <time>2023-06-10T08:41:02Z</time>
      </trkpt>
      <trkpt lat="50.25528" lon="1.55752">
        <ele>5</ele>
        <time>2023-06-10T08:41:04Z</time>
      </trkpt>
      <trkpt lat="50.25529" lon="1.55742">
        <ele>5</ele>
        <time>2023-06-10T08:41:06Z</time>
      </trkpt>
      <trkpt lat="50.25531" lon="1.55732">
        <ele>5</ele>
        <time>2023-06-10T08:41:08Z</time>
      </trkpt>
      <trkpt lat="50.25532" lon="1.55723">
        <ele>5</ele>
        <time>2023-06-10T08:41:10Z</time>
      </trkpt>
      <trkpt lat="50.25533" lon="1.55713">
        <ele>5</ele>
        <time>2023-06-10T08:41:12Z</time>
      </trkpt>
      <trkpt lat="50.25534" lon="1.55703">
        <ele>5</ele>
        <time>2023-06-10T08:41:14Z</time>
      </trkpt>
      <trkpt lat="50.25535" lon="1.55693">
        <ele>5</ele>
        <time>2023-06-10T08:41:16Z</time>
      </trkpt>
      <trkpt lat="50.25536" lon="1.55682">
        <ele>5</ele>
        <time>2023-06-10T08:41:18Z</time>
      </trkpt>
      <trkpt lat="50.25537" lon="1.55672">
        <ele>5</ele>
        <time>2023-06-10T08:41:20Z</time>
      </trkpt>
      <trkpt lat="50.25538" lon="1.55663">
        <ele>5</ele>
        <time>2023-06-10T08:41:22Z</time>
      </trkpt>
      <trkpt lat="50.25539" lon="1.55652">
        <ele>5</ele>
        <time>2023-06-10T08:41:24Z</time>
      </trkpt>
      <trkpt lat="50.2554" lon="1.55642">
        <ele>5</ele>
        <time>2023-06-10T08:41:26Z</time>
      </trkpt>
      <trkpt lat="50.25541" lon="1.55632">
        <ele>5</ele>
        <time>2023-06-10T08:41:28Z</time>
      </trkpt>
      <trkpt lat="50.25541" lon="1.55621">
        <ele>5</ele>
        <time>2023-06-10T08:41:30Z</time>
      </trkpt>
      <trkpt lat="50.25542" lon="1.55611">
        <ele>5</ele>
        <time>2023-06-10T08:41:32Z</time>
      </trkpt>
      <trkpt lat="50.25542" lon="1.556">
        <ele>5</ele>
        <time>2023-06-10T08:41:34Z</time>
      </trkpt>
      <trkpt lat="50.25543" lon="1.55589">
        <ele>5</ele>
        <time>2023-06-10T08:41:36Z</time>
      </trkpt>
      <trkpt lat="50.25544" lon="1.55578">
        <ele>5</ele>
        <time>2023-06-10T08:41:38Z</time>
      </trkpt>
      <trkpt lat="50.25544" lon="1.55568">
        <ele>5</ele>
        <time>2023-06-10T08:41:40Z</time>
      </trkpt>
      <trkpt lat="50.25545" lon="1.55557">
        <ele>5</ele>
        <time>2023-06-10T08:41:42Z</time>
      </trkpt>
      <trkpt lat="50.25545" lon="1.55547">
        <ele>5</ele>
        <time>2023-06-10T08:41:44Z</time>
      </trkpt>
      <trkpt lat="50.25545" lon="1.55537">
        <ele>5</ele>
        <time>2023-06-10T08:41:46Z</time>
      </trkpt>
      <trkpt lat="50.25545" lon="1.55526">
        <ele>5</ele>
        <time>2023-06-10T08:41:48Z</time>
      </trkpt>
      <trkpt lat="50.25545" lon="1.55515">
        <ele>5</ele>
        <time>2023-06-10T08:41:50Z</time>
      </trkpt>
      <trkpt lat="50.25546" lon="1.55505">
        <ele>5</ele>
        <time>2023-06-10T08:41:52Z</time>
      </trkpt>
      <trkpt lat="50.25547" lon="1.55495">
        <ele>5</ele>
        <time>2023-06-10T08:41:54Z</time>
      </trkpt>
      <trkpt lat="50.25547" lon="1.55486">
        <ele>5</ele>
        <time>2023-06-10T08:41:56Z</time>
      </trkpt>
      <trkpt lat="50.25547" lon="1.55478">
        <ele>5</ele>
        <time>2023-06-10T08:41:58Z</time>
      </trkpt>
      <trkpt lat="50.25546" lon="1.5547">
        <ele>5</ele>
        <time>2023-06-10T08:42:00Z</time>
      </trkpt>
      <trkpt lat="50.25546" lon="1.55462">
        <ele>5</ele>
        <time>2023-06-10T08:42:02Z</time>
      </trkpt>
      <trkpt lat="50.25546" lon="1.55453">
        <ele>5</ele>
        <time>2023-06-10T08:42:04Z</time>
      </trkpt>
      <trkpt lat="50.25547" lon="1.55445">
        <ele>5</ele>
        <time>2023-06-10T08:42:06Z</time>
      </trkpt>
      <trkpt lat="50.25547" lon="1.55435">
        <ele>5</ele>
        <time>2023-06-10T08:42:08Z</time>
      </trkpt>
      <trkpt lat="50.25547" lon="1.55426">
        <ele>5</ele>
        <time>2023-06-10T08:42:10Z</time>
      </trkpt>
      <trkpt lat="50.25547" lon="1.55416">
        <ele>5</ele>
        <time>2023-06-10T08:42:12Z</time>
      </trkpt>
      <trkpt lat="50.25547" lon="1.55406">
        <ele>5</ele>
        <time>2023-06-10T08:42:14Z</time>
      </trkpt>
      <trkpt lat="50.25546" lon="1.55396">
        <ele>5</ele>
        <time>2023-06-10T08:42:16Z</time>
      </trkpt>
      <trkpt lat="50.25546" lon="1.55388">
        <ele>5</ele>
        <time>2023-06-10T08:42:18Z</time>
      </trkpt>
      <trkpt lat="50.25547" lon="1.55379">
        <ele>5</ele>
        <time>2023-06-10T08:42:20Z</time>
      </trkpt>
      <trkpt lat="50.25547" lon="1.55371">
        <ele>5</ele>
        <time>2023-06-10T08:42:22Z</time>
      </trkpt>
      <trkpt lat="50.25547" lon="1.55362">
        <ele>5</ele>
        <time>2023-06-10T08:42:24Z</time>
      </trkpt>
      <trkpt lat="50.25546" lon="1.55354">
        <ele>5</ele>
        <time>2023-06-10T08:42:26Z</time>
      </trkpt>
      <trkpt lat="50.25546" lon="1.55344">
        <ele>5</ele>
        <time>2023-06-10T08:42:28Z</time>
      </trkpt>
      <trkpt lat="50.25546" lon="1.55336">
        <ele>5</ele>
        <time>2023-06-10T08:42:30Z</time>
      </trkpt>
      <trkpt lat="50.25546" lon="1.55329">
        <ele>5</ele>
        <time>2023-06-10T08:42:32Z</time>
      </trkpt>
      <trkpt lat="50.25546" lon="1.55317">
        <ele>5</ele>
        <time>2023-06-10T08:42:36Z</time>
      </trkpt>
      <trkpt lat="50.25545" lon="1.55303">
        <ele>5</ele>
        <time>2023-06-10T08:42:40Z</time>
      </trkpt>
      <trkpt lat="50.25543" lon="1.55291">
        <ele>5</ele>
        <time>2023-06-10T08:42:44Z</time>
      </trkpt>
      <trkpt lat="50.25544" lon="1.5528">
        <ele>5</ele>
        <time>2023-06-10T08:42:48Z</time>
      </trkpt>
      <trkpt lat="50.25546" lon="1.55268">
        <ele>5</ele>
        <time>2023-06-10T08:42:52Z</time>
      </trkpt>
      <trkpt lat="50.25547" lon="1.55256">
        <ele>5</ele>
        <time>2023-06-10T08:42:56Z</time>
      </trkpt>
      <trkpt lat="50.25546" lon="1.55247">
        <ele>5</ele>
        <time>2023-06-10T08:43:00Z</time>
      </trkpt>
      <trkpt lat="50.25546" lon="1.55236">
        <ele>5</ele>
        <time>2023-06-10T08:43:04Z</time>
      </trkpt>
      <trkpt lat="50.25546" lon="1.55223">
        <ele>5</ele>
        <time>2023-06-10T08:43:08Z</time>
      </trkpt>
      <trkpt lat="50.25547" lon="1.55211">
        <ele>5</ele>
        <time>2023-06-10T08:43:12Z</time>
      </trkpt>
      <trkpt lat="50.25549" lon="1.552">
        <ele>5</ele>
        <time>2023-06-10T08:43:16Z</time>
      </trkpt>
      <trkpt lat="50.2555" lon="1.55189">
        <ele>5</ele>
        <time>2023-06-10T08:43:20Z</time>
      </trkpt>
      <trkpt lat="50.25551" lon="1.55175">
        <ele>5</ele>
        <time>2023-06-10T08:43:24Z</time>
      </trkpt>
      <trkpt lat="50.25552" lon="1.55161">
        <ele>5</ele>
        <time>2023-06-10T08:43:28Z</time>
      </trkpt>
      <trkpt lat="50.25552" lon="1.55149">
        <ele>5</ele>
        <time>2023-06-10T08:43:32Z</time>
      </trkpt>
      <trkpt lat="50.25555" lon="1.55138">
        <ele>5</ele>
        <time>2023-06-10T08:43:36Z</time>
      </trkpt>
      <trkpt lat="50.25558" lon="1.55128">
        <ele>5</ele>
        <time>2023-06-10T08:43:40Z</time>
      </trkpt>
      <trkpt lat="50.25556" lon="1.55119">
        <ele>5</ele>
        <time>2023-06-10T08:43:44Z</time>
      </trkpt>
      <trkpt lat="50.25552" lon="1.55111">
        <ele>5</ele>
        <time>2023-06-10T08:43:48Z</time>
      </trkpt>
      <trkpt lat="50.25549" lon="1.55103">
        <ele>5</ele>
        <time>2023-06-10T08:43:52Z</time>
      </trkpt>
      <trkpt lat="50.25548" lon="1.55096">
        <ele>5</ele>
        <time>2023-06-10T08:43:58Z</time>
      </trkpt>
      <trkpt lat="50.25546" lon="1.55089">
        <ele>5</ele>
        <time>2023-06-10T08:44:04Z</time>
      </trkpt>
      <trkpt lat="50.25544" lon="1.55082">
        <ele>5</ele>
        <time>2023-06-10T08:44:10Z</time>
      </trkpt>
      <trkpt lat="50.25541" lon="1.55074">
        <ele>5</ele>
        <time>2023-06-10T08:44:16Z</time>
      </trkpt>
      <trkpt lat="50.25539" lon="1.55066">
        <ele>5</ele>
        <time>2023-06-10T08:44:22Z</time>
      </trkpt>
      <trkpt lat="50.25535" lon="1.5506">
        <ele>5</ele>
        <time>2023-06-10T08:44:28Z</time>
      </trkpt>
      <trkpt lat="50.2553" lon="1.55054">
        <ele>5</ele>
        <time>2023-06-10T08:44:34Z</time>
      </trkpt>
      <trkpt lat="50.25525" lon="1.55047">
        <ele>5</ele>
        <time>2023-06-10T08:44:40Z</time>
      </trkpt>
      <trkpt lat="50.25521" lon="1.55042">
        <ele>5</ele>
        <time>2023-06-10T08:44:46Z</time>
      </trkpt>
      <trkpt lat="50.25517" lon="1.55037">
        <ele>5</ele>
        <time>2023-06-10T08:44:52Z</time>
      </trkpt>
      <trkpt lat="50.25513" lon="1.55031">
        <ele>5</ele>
        <time>2023-06-10T08:44:58Z</time>
      </trkpt>
      <trkpt lat="50.2551" lon="1.55023">
        <ele>5</ele>
        <time>2023-06-10T08:45:04Z</time>
      </trkpt>
      <trkpt lat="50.25509" lon="1.55013">
        <ele>5</ele>
        <time>2023-06-10T08:45:10Z</time>
      </trkpt>
      <trkpt lat="50.25507" lon="1.55004">
        <ele>5</ele>
        <time>2023-06-10T08:45:16Z</time>
      </trkpt>
      <trkpt lat="50.25505" lon="1.54998">
        <ele>5</ele>
        <time>2023-06-10T08:45:20Z</time>
      </trkpt>
      <trkpt lat="50.25503" lon="1.54991">
        <ele>5</ele>
        <time>2023-06-10T08:45:26Z</time>
      </trkpt>
      <trkpt lat="50.25501" lon="1.54981">
        <ele>5</ele>
        <time>2023-06-10T08:45:32Z</time>
      </trkpt>
      <trkpt lat="50.25501" lon="1.54971">
        <ele>5</ele>
        <time>2023-06-10T08:45:38Z</time>
      </trkpt>
      <trkpt lat="50.25502" lon="1.54961">
        <ele>5</ele>
        <time>2023-06-10T08:45:44Z</time>
      </trkpt>
      <trkpt lat="50.25502" lon="1.54953">
        <ele>5</ele>
        <time>2023-06-10T08:45:48Z</time>
      </trkpt>
      <trkpt lat="50.25503" lon="1.54945">
        <ele>5</ele>
        <time>2023-06-10T08:45:56Z</time>
      </trkpt>
      <trkpt lat="50.25505" lon="1.54935">
        <ele>5</ele>
        <time>2023-06-10T08:46:02Z</time>
      </trkpt>
      <trkpt lat="50.25506" lon="1.54927">
        <ele>5</ele>
        <time>2023-06-10T08:46:06Z</time>
      </trkpt>
      <trkpt lat="50.25506" lon="1.54918">
        <ele>5</ele>
        <time>2023-06-10T08:46:10Z</time>
      </trkpt>
      <trkpt lat="50.25505" lon="1.54908">
        <ele>5</ele>
        <time>2023-06-10T08:46:14Z</time>
      </trkpt>
      <trkpt lat="50.25504" lon="1.54896">
        <ele>5</ele>
        <time>2023-06-10T08:46:18Z</time>
      </trkpt>
      <trkpt lat="50.25504" lon="1.54887">
        <ele>5</ele>
        <time>2023-06-10T08:46:21Z</time>
      </trkpt>
      <trkpt lat="50.25504" lon="1.54876">
        <ele>5</ele>
        <time>2023-06-10T08:46:25Z</time>
      </trkpt>
      <trkpt lat="50.25503" lon="1.54867">
        <ele>5</ele>
        <time>2023-06-10T08:46:29Z</time>
      </trkpt>
      <trkpt lat="50.25502" lon="1.54858">
        <ele>5</ele>
        <time>2023-06-10T08:46:33Z</time>
      </trkpt>
      <trkpt lat="50.25502" lon="1.54848">
        <ele>5</ele>
        <time>2023-06-10T08:46:37Z</time>
      </trkpt>
      <trkpt lat="50.25502" lon="1.54838">
        <ele>5</ele>
        <time>2023-06-10T08:46:41Z</time>
      </trkpt>
      <trkpt lat="50.25501" lon="1.54828">
        <ele>5</ele>
        <time>2023-06-10T08:46:45Z</time>
      </trkpt>
      <trkpt lat="50.25501" lon="1.54819">
        <ele>5</ele>
        <time>2023-06-10T08:46:49Z</time>
      </trkpt>
      <trkpt lat="50.25501" lon="1.54809">
        <ele>5</ele>
        <time>2023-06-10T08:46:53Z</time>
      </trkpt>
      <trkpt lat="50.25502" lon="1.54798">
        <ele>5</ele>
        <time>2023-06-10T08:46:57Z</time>
      </trkpt>
      <trkpt lat="50.25503" lon="1.54788">
        <ele>5</ele>
        <time>2023-06-10T08:47:01Z</time>
      </trkpt>
      <trkpt lat="50.25505" lon="1.54778">
        <ele>5</ele>
        <time>2023-06-10T08:47:05Z</time>
      </trkpt>
      <trkpt lat="50.25506" lon="1.54769">
        <ele>5</ele>
        <time>2023-06-10T08:47:09Z</time>
      </trkpt>
      <trkpt lat="50.25508" lon="1.5476">
        <ele>5</ele>
        <time>2023-06-10T08:47:13Z</time>
      </trkpt>
      <trkpt lat="50.2551" lon="1.54749">
        <ele>5</ele>
        <time>2023-06-10T08:47:17Z</time>
      </trkpt>
      <trkpt lat="50.25512" lon="1.54742">
        <ele>5</ele>
        <time>2023-06-10T08:47:19Z</time>
      </trkpt>
      <trkpt lat="50.25514" lon="1.5473">
        <ele>5</ele>
        <time>2023-06-10T08:47:23Z</time>
      </trkpt>
      <trkpt lat="50.25515" lon="1.54723">
        <ele>5</ele>
        <time>2023-06-10T08:47:25Z</time>
      </trkpt>
      <trkpt lat="50.25517" lon="1.54715">
        <ele>5</ele>
        <time>2023-06-10T08:47:27Z</time>
      </trkpt>
      <trkpt lat="50.2552" lon="1.54703">
        <ele>5</ele>
        <time>2023-06-10T08:47:31Z</time>
      </trkpt>
      <trkpt lat="50.25522" lon="1.54692">
        <ele>5</ele>
        <time>2023-06-10T08:47:35Z</time>
      </trkpt>
      <trkpt lat="50.25524" lon="1.54681">
        <ele>5</ele>
        <time>2023-06-10T08:47:39Z</time>
      </trkpt>
      <trkpt lat="50.25526" lon="1.54671">
        <ele>5</ele>
        <time>2023-06-10T08:47:43Z</time>
      </trkpt>
      <trkpt lat="50.25528" lon="1.54663">
        <ele>5</ele>
        <time>2023-06-10T08:47:47Z</time>
      </trkpt>
      <trkpt lat="50.2553" lon="1.54654">
        <ele>5</ele>
        <time>2023-06-10T08:47:51Z</time>
      </trkpt>
      <trkpt lat="50.25532" lon="1.54647">
        <ele>5</ele>
        <time>2023-06-10T08:47:55Z</time>
      </trkpt>
      <trkpt lat="50.25533" lon="1.54639">
        <ele>5</ele>
        <time>2023-06-10T08:47:59Z</time>
      </trkpt>
      <trkpt lat="50.25534" lon="1.54632">
        <ele>5</ele>
        <time>2023-06-10T08:48:05Z</time>
      </trkpt>
      <trkpt lat="50.25535" lon="1.54625">
        <ele>5</ele>
        <time>2023-06-10T08:48:09Z</time>
      </trkpt>
      <trkpt lat="50.25536" lon="1.54614">
        <ele>5</ele>
        <time>2023-06-10T08:48:13Z</time>
      </trkpt>
      <trkpt lat="50.25537" lon="1.54602">
        <ele>4.8</ele>
        <time>2023-06-10T08:48:17Z</time>
      </trkpt>
      <trkpt lat="50.25539" lon="1.5459">
        <ele>4.5</ele>
        <time>2023-06-10T08:48:21Z</time>
      </trkpt>
      <trkpt lat="50.25541" lon="1.54579">
        <ele>4.5</ele>
        <time>2023-06-10T08:48:25Z</time>
      </trkpt>
      <trkpt lat="50.25546" lon="1.5457">
        <ele>4.7</ele>
        <time>2023-06-10T08:48:29Z</time>
      </trkpt>
      <trkpt lat="50.25551" lon="1.54559">
        <ele>4.8</ele>
        <time>2023-06-10T08:48:33Z</time>
      </trkpt>
      <trkpt lat="50.25557" lon="1.5455">
        <ele>4.8</ele>
        <time>2023-06-10T08:48:37Z</time>
      </trkpt>
      <trkpt lat="50.25562" lon="1.5454">
        <ele>4.6</ele>
        <time>2023-06-10T08:48:41Z</time>
      </trkpt>
      <trkpt lat="50.25567" lon="1.5453">
        <ele>4.5</ele>
        <time>2023-06-10T08:48:45Z</time>
      </trkpt>
      <trkpt lat="50.25573" lon="1.54519">
        <ele>4.6</ele>
        <time>2023-06-10T08:48:49Z</time>
      </trkpt>
      <trkpt lat="50.25579" lon="1.54509">
        <ele>4.8</ele>
        <time>2023-06-10T08:48:53Z</time>
      </trkpt>
      <trkpt lat="50.25585" lon="1.54498">
        <ele>5</ele>
        <time>2023-06-10T08:48:57Z</time>
      </trkpt>
      <trkpt lat="50.25588" lon="1.54492">
        <ele>4.9</ele>
        <time>2023-06-10T08:48:59Z</time>
      </trkpt>
      <trkpt lat="50.25592" lon="1.54485">
        <ele>4.8</ele>
        <time>2023-06-10T08:49:01Z</time>
      </trkpt>
      <trkpt lat="50.25596" lon="1.54479">
        <ele>4.7</ele>
        <time>2023-06-10T08:49:03Z</time>
      </trkpt>
      <trkpt lat="50.25599" lon="1.54474">
        <ele>4.4</ele>
        <time>2023-06-10T08:49:05Z</time>
      </trkpt>
      <trkpt lat="50.25603" lon="1.54467">
        <ele>4.4</ele>
        <time>2023-06-10T08:49:07Z</time>
      </trkpt>
      <trkpt lat="50.25606" lon="1.54461">
        <ele>4.4</ele>
        <time>2023-06-10T08:49:09Z</time>
      </trkpt>
      <trkpt lat="50.2561" lon="1.54455">
        <ele>4.6</ele>
        <time>2023-06-10T08:49:11Z</time>
      </trkpt>
      <trkpt lat="50.25616" lon="1.54445">
        <ele>5</ele>
        <time>2023-06-10T08:49:15Z</time>
      </trkpt>
      <trkpt lat="50.2562" lon="1.5444">
        <ele>5</ele>
        <time>2023-06-10T08:49:17Z</time>
      </trkpt>
      <trkpt lat="50.25623" lon="1.54435">
        <ele>5</ele>
        <time>2023-06-10T08:49:19Z</time>
      </trkpt>
      <trkpt lat="50.25626" lon="1.54429">
        <ele>5</ele>
        <time>2023-06-10T08:49:21Z</time>
      </trkpt>
      <trkpt lat="50.25629" lon="1.54423">
        <ele>5</ele>
        <time>2023-06-10T08:49:23Z</time>
      </trkpt>
      <trkpt lat="50.25633" lon="1.54418">
        <ele>5</ele>
        <time>2023-06-10T08:49:25Z</time>
      </trkpt>
      <trkpt lat="50.25636" lon="1.54412">
        <ele>5</ele>
        <time>2023-06-10T08:49:27Z</time>
      </trkpt>
      <trkpt lat="50.25639" lon="1.54407">
        <ele>5</ele>
        <time>2023-06-10T08:49:29Z</time>
      </trkpt>
      <trkpt lat="50.25643" lon="1.54401">
        <ele>5</ele>
        <time>2023-06-10T08:49:31Z</time>
      </trkpt>
      <trkpt lat="50.25645" lon="1.54395">
        <ele>5</ele>
        <time>2023-06-10T08:49:33Z</time>
      </trkpt>
      <trkpt lat="50.25648" lon="1.54388">
        <ele>5</ele>
        <time>2023-06-10T08:49:35Z</time>
      </trkpt>
      <trkpt lat="50.25651" lon="1.54383">
        <ele>5</ele>
        <time>2023-06-10T08:49:37Z</time>
      </trkpt>
      <trkpt lat="50.25655" lon="1.54377">
        <ele>5</ele>
        <time>2023-06-10T08:49:39Z</time>
      </trkpt>
      <trkpt lat="50.25658" lon="1.54371">
        <ele>5</ele>
        <time>2023-06-10T08:49:41Z</time>
      </trkpt>
      <trkpt lat="50.25661" lon="1.54364">
        <ele>5</ele>
        <time>2023-06-10T08:49:43Z</time>
      </trkpt>
      <trkpt lat="50.25665" lon="1.54358">
        <ele>5</ele>
        <time>2023-06-10T08:49:45Z</time>
      </trkpt>
      <trkpt lat="50.25669" lon="1.54352">
        <ele>5</ele>
        <time>2023-06-10T08:49:47Z</time>
      </trkpt>
      <trkpt lat="50.25672" lon="1.54347">
        <ele>5</ele>
        <time>2023-06-10T08:49:49Z</time>
      </trkpt>
      <trkpt lat="50.25677" lon="1.54337">
        <ele>5</ele>
        <time>2023-06-10T08:49:53Z</time>
      </trkpt>
      <trkpt lat="50.25683" lon="1.54328">
        <ele>4.9</ele>
        <time>2023-06-10T08:49:57Z</time>
      </trkpt>
      <trkpt lat="50.2569" lon="1.54319">
        <ele>4.9</ele>
        <time>2023-06-10T08:50:01Z</time>
      </trkpt>
      <trkpt lat="50.25694" lon="1.54313">
        <ele>5</ele>
        <time>2023-06-10T08:50:03Z</time>
      </trkpt>
      <trkpt lat="50.25698" lon="1.54309">
        <ele>5</ele>
        <time>2023-06-10T08:50:05Z</time>
      </trkpt>
      <trkpt lat="50.25701" lon="1.54304">
        <ele>5</ele>
        <time>2023-06-10T08:50:07Z</time>
      </trkpt>
      <trkpt lat="50.25704" lon="1.54298">
        <ele>4.8</ele>
        <time>2023-06-10T08:50:09Z</time>
      </trkpt>
      <trkpt lat="50.25707" lon="1.54293">
        <ele>4.7</ele>
        <time>2023-06-10T08:50:11Z</time>
      </trkpt>
      <trkpt lat="50.25711" lon="1.54287">
        <ele>4.7</ele>
        <time>2023-06-10T08:50:13Z</time>
      </trkpt>
      <trkpt lat="50.25713" lon="1.54281">
        <ele>4.7</ele>
        <time>2023-06-10T08:50:15Z</time>
      </trkpt>
      <trkpt lat="50.25716" lon="1.54275">
        <ele>4.7</ele>
        <time>2023-06-10T08:50:17Z</time>
      </trkpt>
      <trkpt lat="50.2572" lon="1.54269">
        <ele>4.6</ele>
        <time>2023-06-10T08:50:19Z</time>
      </trkpt>
      <trkpt lat="50.25723" lon="1.54263">
        <ele>4.5</ele>
        <time>2023-06-10T08:50:21Z</time>
      </trkpt>
      <trkpt lat="50.25726" lon="1.54257">
        <ele>4.2</ele>
        <time>2023-06-10T08:50:23Z</time>
      </trkpt>
      <trkpt lat="50.25729" lon="1.54252">
        <ele>4</ele>
        <time>2023-06-10T08:50:25Z</time>
      </trkpt>
      <trkpt lat="50.25733" lon="1.54246">
        <ele>4</ele>
        <time>2023-06-10T08:50:27Z</time>
      </trkpt>
      <trkpt lat="50.25736" lon="1.54241">
        <ele>4</ele>
        <time>2023-06-10T08:50:29Z</time>
      </trkpt>
      <trkpt lat="50.2574" lon="1.54235">
        <ele>4</ele>
        <time>2023-06-10T08:50:31Z</time>
      </trkpt>
      <trkpt lat="50.25744" lon="1.54229">
        <ele>4</ele>
        <time>2023-06-10T08:50:33Z</time>
      </trkpt>
      <trkpt lat="50.25747" lon="1.54223">
        <ele>4</ele>
        <time>2023-06-10T08:50:35Z</time>
      </trkpt>
      <trkpt lat="50.25751" lon="1.54218">
        <ele>4</ele>
        <time>2023-06-10T08:50:37Z</time>
      </trkpt>
      <trkpt lat="50.25756" lon="1.54213">
        <ele>4</ele>
        <time>2023-06-10T08:50:39Z</time>
      </trkpt>
      <trkpt lat="50.2576" lon="1.54207">
        <ele>4</ele>
        <time>2023-06-10T08:50:41Z</time>
      </trkpt>
      <trkpt lat="50.25765" lon="1.54201">
        <ele>4</ele>
        <time>2023-06-10T08:50:43Z</time>
      </trkpt>
      <trkpt lat="50.25769" lon="1.54196">
        <ele>4</ele>
        <time>2023-06-10T08:50:45Z</time>
      </trkpt>
      <trkpt lat="50.25773" lon="1.5419">
        <ele>4</ele>
        <time>2023-06-10T08:50:47Z</time>
      </trkpt>
      <trkpt lat="50.25777" lon="1.54184">
        <ele>4</ele>
        <time>2023-06-10T08:50:49Z</time>
      </trkpt>
      <trkpt lat="50.25782" lon="1.54179">
        <ele>4</ele>
        <time>2023-06-10T08:50:51Z</time>
      </trkpt>
      <trkpt lat="50.25786" lon="1.54174">
        <ele>4</ele>
        <time>2023-06-10T08:50:53Z</time>
      </trkpt>
      <trkpt lat="50.25791" lon="1.54168">
        <ele>4</ele>
        <time>2023-06-10T08:50:55Z</time>
      </trkpt>
      <trkpt lat="50.25795" lon="1.54163">
        <ele>4</ele>
        <time>2023-06-10T08:50:57Z</time>
      </trkpt>
      <trkpt lat="50.258" lon="1.54158">
        <ele>4</ele>
        <time>2023-06-10T08:50:59Z</time>
      </trkpt>
      <trkpt lat="50.25805" lon="1.54153">
        <ele>4</ele>
        <time>2023-06-10T08:51:01Z</time>
      </trkpt>
      <trkpt lat="50.25809" lon="1.54149">
        <ele>4</ele>
        <time>2023-06-10T08:51:03Z</time>
      </trkpt>
      <trkpt lat="50.25814" lon="1.54144">
        <ele>4</ele>
        <time>2023-06-10T08:51:05Z</time>
      </trkpt>
      <trkpt lat="50.25819" lon="1.54139">
        <ele>4</ele>
        <time>2023-06-10T08:51:07Z</time>
      </trkpt>
      <trkpt lat="50.25823" lon="1.54134">
        <ele>4</ele>
        <time>2023-06-10T08:51:09Z</time>
      </trkpt>
      <trkpt lat="50.25828" lon="1.54129">
        <ele>4</ele>
        <time>2023-06-10T08:51:11Z</time>
      </trkpt>
      <trkpt lat="50.25833" lon="1.54124">
        <ele>4</ele>
        <time>2023-06-10T08:51:13Z</time>
      </trkpt>
      <trkpt lat="50.25839" lon="1.54119">
        <ele>4.1</ele>
        <time>2023-06-10T08:51:15Z</time>
      </trkpt>
      <trkpt lat="50.25845" lon="1.54113">
        <ele>4</ele>
        <time>2023-06-10T08:51:17Z</time>
      </trkpt>
      <trkpt lat="50.2585" lon="1.54108">
        <ele>4.1</ele>
        <time>2023-06-10T08:51:19Z</time>
      </trkpt>
      <trkpt lat="50.25856" lon="1.54103">
        <ele>4.2</ele>
        <time>2023-06-10T08:51:21Z</time>
      </trkpt>
      <trkpt lat="50.25862" lon="1.54098">
        <ele>4.5</ele>
        <time>2023-06-10T08:51:23Z</time>
      </trkpt>
      <trkpt lat="50.25868" lon="1.54092">
        <ele>4.8</ele>
        <time>2023-06-10T08:51:25Z</time>
      </trkpt>
      <trkpt lat="50.25874" lon="1.54086">
        <ele>4.9</ele>
        <time>2023-06-10T08:51:27Z</time>
      </trkpt>
      <trkpt lat="50.2588" lon="1.5408">
        <ele>5</ele>
        <time>2023-06-10T08:51:29Z</time>
      </trkpt>
      <trkpt lat="50.25886" lon="1.54074">
        <ele>5</ele>
        <time>2023-06-10T08:51:31Z</time>
      </trkpt>
      <trkpt lat="50.2589" lon="1.54069">
        <ele>5</ele>
        <time>2023-06-10T08:51:33Z</time>
      </trkpt>
      <trkpt lat="50.25895" lon="1.54063">
        <ele>5</ele>
        <time>2023-06-10T08:51:35Z</time>
      </trkpt>
      <trkpt lat="50.25899" lon="1.54058">
        <ele>5</ele>
        <time>2023-06-10T08:51:37Z</time>
      </trkpt>
      <trkpt lat="50.25903" lon="1.54053">
        <ele>5</ele>
        <time>2023-06-10T08:51:39Z</time>
      </trkpt>
      <trkpt lat="50.25908" lon="1.54048">
        <ele>5</ele>
        <time>2023-06-10T08:51:41Z</time>
      </trkpt>
      <trkpt lat="50.25912" lon="1.54042">
        <ele>5</ele>
        <time>2023-06-10T08:51:43Z</time>
      </trkpt>
      <trkpt lat="50.25916" lon="1.54036">
        <ele>5</ele>
        <time>2023-06-10T08:51:45Z</time>
      </trkpt>
      <trkpt lat="50.25919" lon="1.5403">
        <ele>5</ele>
        <time>2023-06-10T08:51:47Z</time>
      </trkpt>
      <trkpt lat="50.25924" lon="1.54024">
        <ele>5</ele>
        <time>2023-06-10T08:51:49Z</time>
      </trkpt>
      <trkpt lat="50.25928" lon="1.54019">
        <ele>5</ele>
        <time>2023-06-10T08:51:51Z</time>
      </trkpt>
      <trkpt lat="50.25933" lon="1.54013">
        <ele>5</ele>
        <time>2023-06-10T08:51:53Z</time>
      </trkpt>
      <trkpt lat="50.25937" lon="1.54007">
        <ele>5</ele>
        <time>2023-06-10T08:51:55Z</time>
      </trkpt>
      <trkpt lat="50.25942" lon="1.54002">
        <ele>5</ele>
        <time>2023-06-10T08:51:57Z</time>
      </trkpt>
      <trkpt lat="50.25947" lon="1.53997">
        <ele>4.9</ele>
        <time>2023-06-10T08:51:59Z</time>
      </trkpt>
      <trkpt lat="50.25951" lon="1.53991">
        <ele>4.7</ele>
        <time>2023-06-10T08:52:01Z</time>
      </trkpt>
      <trkpt lat="50.25955" lon="1.53985">
        <ele>4.4</ele>
        <time>2023-06-10T08:52:03Z</time>
      </trkpt>
      <trkpt lat="50.25959" lon="1.53979">
        <ele>4.2</ele>
        <time>2023-06-10T08:52:05Z</time>
      </trkpt>
      <trkpt lat="50.25963" lon="1.53973">
        <ele>4</ele>
        <time>2023-06-10T08:52:07Z</time>
      </trkpt>
      <trkpt lat="50.25968" lon="1.53967">
        <ele>4</ele>
        <time>2023-06-10T08:52:09Z</time>
      </trkpt>
      <trkpt lat="50.25973" lon="1.5396">
        <ele>4</ele>
        <time>2023-06-10T08:52:11Z</time>
      </trkpt>
      <trkpt lat="50.25977" lon="1.53954">
        <ele>4.1</ele>
        <time>2023-06-10T08:52:13Z</time>
      </trkpt>
      <trkpt lat="50.25982" lon="1.53948">
        <ele>4</ele>
        <time>2023-06-10T08:52:15Z</time>
      </trkpt>
      <trkpt lat="50.25987" lon="1.53942">
        <ele>4</ele>
        <time>2023-06-10T08:52:17Z</time>
      </trkpt>
      <trkpt lat="50.25991" lon="1.53937">
        <ele>4</ele>
        <time>2023-06-10T08:52:19Z</time>
      </trkpt>
      <trkpt lat="50.25995" lon="1.53932">
        <ele>4</ele>
        <time>2023-06-10T08:52:21Z</time>
      </trkpt>
      <trkpt lat="50.25999" lon="1.53926">
        <ele>4</ele>
        <time>2023-06-10T08:52:23Z</time>
      </trkpt>
      <trkpt lat="50.26003" lon="1.53921">
        <ele>4</ele>
        <time>2023-06-10T08:52:25Z</time>
      </trkpt>
      <trkpt lat="50.26008" lon="1.53916">
        <ele>4</ele>
        <time>2023-06-10T08:52:27Z</time>
      </trkpt>
      <trkpt lat="50.26012" lon="1.53911">
        <ele>4</ele>
        <time>2023-06-10T08:52:29Z</time>
      </trkpt>
      <trkpt lat="50.26016" lon="1.53906">
        <ele>4</ele>
        <time>2023-06-10T08:52:31Z</time>
      </trkpt>
      <trkpt lat="50.26021" lon="1.539">
        <ele>4</ele>
        <time>2023-06-10T08:52:33Z</time>
      </trkpt>
      <trkpt lat="50.26026" lon="1.53894">
        <ele>4</ele>
        <time>2023-06-10T08:52:35Z</time>
      </trkpt>
      <trkpt lat="50.26031" lon="1.53889">
        <ele>4</ele>
        <time>2023-06-10T08:52:37Z</time>
      </trkpt>
      <trkpt lat="50.26035" lon="1.53884">
        <ele>4</ele>
        <time>2023-06-10T08:52:39Z</time>
      </trkpt>
      <trkpt lat="50.2604" lon="1.53879">
        <ele>4</ele>
        <time>2023-06-10T08:52:41Z</time>
      </trkpt>
      <trkpt lat="50.26043" lon="1.53874">
        <ele>4</ele>
        <time>2023-06-10T08:52:43Z</time>
      </trkpt>
      <trkpt lat="50.26047" lon="1.53869">
        <ele>4</ele>
        <time>2023-06-10T08:52:45Z</time>
      </trkpt>
      <trkpt lat="50.26052" lon="1.53865">
        <ele>4</ele>
        <time>2023-06-10T08:52:47Z</time>
      </trkpt>
      <trkpt lat="50.26055" lon="1.53861">
        <ele>4</ele>
        <time>2023-06-10T08:52:49Z</time>
      </trkpt>
      <trkpt lat="50.26063" lon="1.53852">
        <ele>4</ele>
        <time>2023-06-10T08:52:53Z</time>
      </trkpt>
      <trkpt lat="50.26066" lon="1.53848">
        <ele>4</ele>
        <time>2023-06-10T08:52:55Z</time>
      </trkpt>
      <trkpt lat="50.26071" lon="1.53843">
        <ele>4</ele>
        <time>2023-06-10T08:52:57Z</time>
      </trkpt>
      <trkpt lat="50.26075" lon="1.53839">
        <ele>4</ele>
        <time>2023-06-10T08:52:59Z</time>
      </trkpt>
      <trkpt lat="50.26079" lon="1.53834">
        <ele>4</ele>
        <time>2023-06-10T08:53:01Z</time>
      </trkpt>
      <trkpt lat="50.26084" lon="1.53831">
        <ele>4</ele>
        <time>2023-06-10T08:53:03Z</time>
      </trkpt>
      <trkpt lat="50.26088" lon="1.53829">
        <ele>4</ele>
        <time>2023-06-10T08:53:05Z</time>
      </trkpt>
      <trkpt lat="50.26092" lon="1.53826">
        <ele>4</ele>
        <time>2023-06-10T08:53:07Z</time>
      </trkpt>
      <trkpt lat="50.26097" lon="1.53822">
        <ele>4</ele>
        <time>2023-06-10T08:53:09Z</time>
      </trkpt>
      <trkpt lat="50.26101" lon="1.53818">
        <ele>4</ele>
        <time>2023-06-10T08:53:11Z</time>
      </trkpt>
      <trkpt lat="50.26106" lon="1.53814">
        <ele>4</ele>
        <time>2023-06-10T08:53:13Z</time>
      </trkpt>
      <trkpt lat="50.2611" lon="1.53809">
        <ele>4</ele>
        <time>2023-06-10T08:53:15Z</time>
      </trkpt>
      <trkpt lat="50.26114" lon="1.53805">
        <ele>4</ele>
        <time>2023-06-10T08:53:17Z</time>
      </trkpt>
      <trkpt lat="50.26118" lon="1.53801">
        <ele>4</ele>
        <time>2023-06-10T08:53:19Z</time>
      </trkpt>
      <trkpt lat="50.26122" lon="1.53797">
        <ele>4</ele>
        <time>2023-06-10T08:53:21Z</time>
      </trkpt>
      <trkpt lat="50.26129" lon="1.5379">
        <ele>4</ele>
        <time>2023-06-10T08:53:25Z</time>
      </trkpt>
      <trkpt lat="50.26135" lon="1.53782">
        <ele>4</ele>
        <time>2023-06-10T08:53:29Z</time>
      </trkpt>
      <trkpt lat="50.2614" lon="1.53774">
        <ele>4</ele>
        <time>2023-06-10T08:53:33Z</time>
      </trkpt>
      <trkpt lat="50.26146" lon="1.53769">
        <ele>4</ele>
        <time>2023-06-10T08:53:37Z</time>
      </trkpt>
      <trkpt lat="50.26153" lon="1.53764">
        <ele>4</ele>
        <time>2023-06-10T08:53:41Z</time>
      </trkpt>
      <trkpt lat="50.26159" lon="1.53757">
        <ele>4</ele>
        <time>2023-06-10T08:53:45Z</time>
      </trkpt>
      <trkpt lat="50.26164" lon="1.53754">
        <ele>4</ele>
        <time>2023-06-10T08:53:49Z</time>
      </trkpt>
      <trkpt lat="50.26169" lon="1.53748">
        <ele>4</ele>
        <time>2023-06-10T08:53:53Z</time>
      </trkpt>
      <trkpt lat="50.26174" lon="1.53741">
        <ele>4</ele>
        <time>2023-06-10T08:53:57Z</time>
      </trkpt>
      <trkpt lat="50.26179" lon="1.53733">
        <ele>4</ele>
        <time>2023-06-10T08:54:01Z</time>
      </trkpt>
      <trkpt lat="50.26185" lon="1.53728">
        <ele>4</ele>
        <time>2023-06-10T08:54:05Z</time>
      </trkpt>
      <trkpt lat="50.26192" lon="1.5372">
        <ele>4</ele>
        <time>2023-06-10T08:54:09Z</time>
      </trkpt>
      <trkpt lat="50.26196" lon="1.53716">
        <ele>4</ele>
        <time>2023-06-10T08:54:11Z</time>
      </trkpt>
      <trkpt lat="50.262" lon="1.53712">
        <ele>4</ele>
        <time>2023-06-10T08:54:13Z</time>
      </trkpt>
      <trkpt lat="50.26207" lon="1.53707">
        <ele>4</ele>
        <time>2023-06-10T08:54:17Z</time>
      </trkpt>
      <trkpt lat="50.26214" lon="1.537">
        <ele>4</ele>
        <time>2023-06-10T08:54:21Z</time>
      </trkpt>
      <trkpt lat="50.26221" lon="1.53696">
        <ele>4</ele>
        <time>2023-06-10T08:54:25Z</time>
      </trkpt>
      <trkpt lat="50.26228" lon="1.53689">
        <ele>4</ele>
        <time>2023-06-10T08:54:29Z</time>
      </trkpt>
      <trkpt lat="50.26235" lon="1.53681">
        <ele>4</ele>
        <time>2023-06-10T08:54:33Z</time>
      </trkpt>
      <trkpt lat="50.26241" lon="1.53674">
        <ele>4</ele>
        <time>2023-06-10T08:54:37Z</time>
      </trkpt>
      <trkpt lat="50.26247" lon="1.53666">
        <ele>4</ele>
        <time>2023-06-10T08:54:41Z</time>
      </trkpt>
      <trkpt lat="50.26254" lon="1.53657">
        <ele>4</ele>
        <time>2023-06-10T08:54:45Z</time>
      </trkpt>
      <trkpt lat="50.2626" lon="1.53649">
        <ele>4</ele>
        <time>2023-06-10T08:54:49Z</time>
      </trkpt>
      <trkpt lat="50.26266" lon="1.53643">
        <ele>4</ele>
        <time>2023-06-10T08:54:53Z</time>
      </trkpt>
      <trkpt lat="50.26273" lon="1.53636">
        <ele>4</ele>
        <time>2023-06-10T08:54:57Z</time>
      </trkpt>
      <trkpt lat="50.26279" lon="1.5363">
        <ele>4</ele>
        <time>2023-06-10T08:55:01Z</time>
      </trkpt>
      <trkpt lat="50.26285" lon="1.53624">
        <ele>4</ele>
        <time>2023-06-10T08:55:05Z</time>
      </trkpt>
      <trkpt lat="50.26292" lon="1.53617">
        <ele>4</ele>
        <time>2023-06-10T08:55:09Z</time>
      </trkpt>
      <trkpt lat="50.26298" lon="1.53611">
        <ele>4</ele>
        <time>2023-06-10T08:55:13Z</time>
      </trkpt>
      <trkpt lat="50.26304" lon="1.53604">
        <ele>4</ele>
        <time>2023-06-10T08:55:17Z</time>
      </trkpt>
      <trkpt lat="50.26309" lon="1.53598">
        <ele>4</ele>
        <time>2023-06-10T08:55:21Z</time>
      </trkpt>
      <trkpt lat="50.26313" lon="1.53593">
        <ele>4</ele>
        <time>2023-06-10T08:55:25Z</time>
      </trkpt>
      <trkpt lat="50.26318" lon="1.53586">
        <ele>4</ele>
        <time>2023-06-10T08:55:29Z</time>
      </trkpt>
      <trkpt lat="50.26323" lon="1.53579">
        <ele>4</ele>
        <time>2023-06-10T08:55:33Z</time>
      </trkpt>
      <trkpt lat="50.26328" lon="1.53574">
        <ele>4</ele>
        <time>2023-06-10T08:55:37Z</time>
      </trkpt>
      <trkpt lat="50.26332" lon="1.53569">
        <ele>4</ele>
        <time>2023-06-10T08:55:41Z</time>
      </trkpt>
      <trkpt lat="50.26337" lon="1.53564">
        <ele>4</ele>
        <time>2023-06-10T08:55:45Z</time>
      </trkpt>
      <trkpt lat="50.26341" lon="1.53559">
        <ele>4</ele>
        <time>2023-06-10T08:55:53Z</time>
      </trkpt>
      <trkpt lat="50.26342" lon="1.53548">
        <ele>4</ele>
        <time>2023-06-10T08:55:59Z</time>
      </trkpt>
      <trkpt lat="50.26345" lon="1.53541">
        <ele>4</ele>
        <time>2023-06-10T08:56:03Z</time>
      </trkpt>
      <trkpt lat="50.26347" lon="1.53533">
        <ele>4</ele>
        <time>2023-06-10T08:56:07Z</time>
      </trkpt>
      <trkpt lat="50.26348" lon="1.53525">
        <ele>4</ele>
        <time>2023-06-10T08:56:11Z</time>
      </trkpt>
      <trkpt lat="50.26349" lon="1.53517">
        <ele>4</ele>
        <time>2023-06-10T08:56:15Z</time>
      </trkpt>
      <trkpt lat="50.2635" lon="1.5351">
        <ele>4</ele>
        <time>2023-06-10T08:56:19Z</time>
      </trkpt>
      <trkpt lat="50.26351" lon="1.53503">
        <ele>4</ele>
        <time>2023-06-10T08:56:23Z</time>
      </trkpt>
      <trkpt lat="50.26353" lon="1.53493">
        <ele>4</ele>
        <time>2023-06-10T08:56:31Z</time>
      </trkpt>
      <trkpt lat="50.26356" lon="1.53482">
        <ele>4</ele>
        <time>2023-06-10T08:56:35Z</time>
      </trkpt>
      <trkpt lat="50.26361" lon="1.53472">
        <ele>4</ele>
        <time>2023-06-10T08:56:39Z</time>
      </trkpt>
      <trkpt lat="50.26367" lon="1.53463">
        <ele>4</ele>
        <time>2023-06-10T08:56:43Z</time>
      </trkpt>
      <trkpt lat="50.26372" lon="1.53455">
        <ele>4</ele>
        <time>2023-06-10T08:56:47Z</time>
      </trkpt>
      <trkpt lat="50.26376" lon="1.53447">
        <ele>4</ele>
        <time>2023-06-10T08:56:51Z</time>
      </trkpt>
      <trkpt lat="50.2638" lon="1.53439">
        <ele>4</ele>
        <time>2023-06-10T08:56:55Z</time>
      </trkpt>
      <trkpt lat="50.26383" lon="1.53431">
        <ele>4</ele>
        <time>2023-06-10T08:56:59Z</time>
      </trkpt>
      <trkpt lat="50.26386" lon="1.53424">
        <ele>4</ele>
        <time>2023-06-10T08:57:03Z</time>
      </trkpt>
      <trkpt lat="50.26388" lon="1.53416">
        <ele>4</ele>
        <time>2023-06-10T08:57:07Z</time>
      </trkpt>
      <trkpt lat="50.26391" lon="1.53408">
        <ele>4</ele>
        <time>2023-06-10T08:57:11Z</time>
      </trkpt>
      <trkpt lat="50.26394" lon="1.534">
        <ele>4</ele>
        <time>2023-06-10T08:57:15Z</time>
      </trkpt>
      <trkpt lat="50.26398" lon="1.53389">
        <ele>4</ele>
        <time>2023-06-10T08:57:19Z</time>
      </trkpt>
      <trkpt lat="50.264" lon="1.53382">
        <ele>4</ele>
        <time>2023-06-10T08:57:21Z</time>
      </trkpt>
      <trkpt lat="50.26402" lon="1.53371">
        <ele>4</ele>
        <time>2023-06-10T08:57:25Z</time>
      </trkpt>
      <trkpt lat="50.26404" lon="1.53362">
        <ele>4</ele>
        <time>2023-06-10T08:57:33Z</time>
      </trkpt>
      <trkpt lat="50.26408" lon="1.53357">
        <ele>4</ele>
        <time>2023-06-10T08:57:37Z</time>
      </trkpt>
      <trkpt lat="50.26413" lon="1.53351">
        <ele>4</ele>
        <time>2023-06-10T08:57:43Z</time>
      </trkpt>
      <trkpt lat="50.26416" lon="1.53347">
        <ele>4</ele>
        <time>2023-06-10T08:57:47Z</time>
      </trkpt>
      <trkpt lat="50.26419" lon="1.5334">
        <ele>4</ele>
        <time>2023-06-10T08:57:51Z</time>
      </trkpt>
      <trkpt lat="50.26423" lon="1.53332">
        <ele>4</ele>
        <time>2023-06-10T08:57:57Z</time>
      </trkpt>
      <trkpt lat="50.26427" lon="1.53325">
        <ele>4</ele>
        <time>2023-06-10T08:58:03Z</time>
      </trkpt>
      <trkpt lat="50.26432" lon="1.53319">
        <ele>4</ele>
        <time>2023-06-10T08:58:09Z</time>
      </trkpt>
      <trkpt lat="50.26436" lon="1.53316">
        <ele>4</ele>
        <time>2023-06-10T08:58:13Z</time>
      </trkpt>
      <trkpt lat="50.26441" lon="1.53312">
        <ele>4</ele>
        <time>2023-06-10T08:58:19Z</time>
      </trkpt>
      <trkpt lat="50.26448" lon="1.53311">
        <ele>4</ele>
        <time>2023-06-10T08:58:27Z</time>
      </trkpt>
      <trkpt lat="50.26453" lon="1.53308">
        <ele>4</ele>
        <time>2023-06-10T08:58:31Z</time>
      </trkpt>
      <trkpt lat="50.26456" lon="1.53303">
        <ele>4</ele>
        <time>2023-06-10T08:58:35Z</time>
      </trkpt>
      <trkpt lat="50.26463" lon="1.533">
        <ele>3.9</ele>
        <time>2023-06-10T08:58:39Z</time>
      </trkpt>
      <trkpt lat="50.26471" lon="1.53301">
        <ele>3.9</ele>
        <time>2023-06-10T08:58:43Z</time>
      </trkpt>
      <trkpt lat="50.26476" lon="1.53304">
        <ele>3.8</ele>
        <time>2023-06-10T08:58:45Z</time>
      </trkpt>
      <trkpt lat="50.2648" lon="1.53307">
        <ele>3.7</ele>
        <time>2023-06-10T08:58:47Z</time>
      </trkpt>
      <trkpt lat="50.26484" lon="1.53309">
        <ele>3.5</ele>
        <time>2023-06-10T08:58:49Z</time>
      </trkpt>
      <trkpt lat="50.26489" lon="1.53311">
        <ele>3.3</ele>
        <time>2023-06-10T08:58:51Z</time>
      </trkpt>
      <trkpt lat="50.26494" lon="1.53314">
        <ele>3.1</ele>
        <time>2023-06-10T08:58:53Z</time>
      </trkpt>
      <trkpt lat="50.26499" lon="1.53318">
        <ele>3</ele>
        <time>2023-06-10T08:58:55Z</time>
      </trkpt>
      <trkpt lat="50.26504" lon="1.53321">
        <ele>3</ele>
        <time>2023-06-10T08:58:57Z</time>
      </trkpt>
      <trkpt lat="50.26508" lon="1.53324">
        <ele>3</ele>
        <time>2023-06-10T08:58:59Z</time>
      </trkpt>
      <trkpt lat="50.26514" lon="1.53325">
        <ele>3</ele>
        <time>2023-06-10T08:59:01Z</time>
      </trkpt>
      <trkpt lat="50.26519" lon="1.53326">
        <ele>3</ele>
        <time>2023-06-10T08:59:03Z</time>
      </trkpt>
      <trkpt lat="50.26526" lon="1.53326">
        <ele>3</ele>
        <time>2023-06-10T08:59:05Z</time>
      </trkpt>
      <trkpt lat="50.26532" lon="1.53327">
        <ele>3</ele>
        <time>2023-06-10T08:59:07Z</time>
      </trkpt>
      <trkpt lat="50.26538" lon="1.53327">
        <ele>3</ele>
        <time>2023-06-10T08:59:09Z</time>
      </trkpt>
      <trkpt lat="50.26545" lon="1.53326">
        <ele>3</ele>
        <time>2023-06-10T08:59:11Z</time>
      </trkpt>
      <trkpt lat="50.26553" lon="1.53327">
        <ele>3</ele>
        <time>2023-06-10T08:59:13Z</time>
      </trkpt>
      <trkpt lat="50.2656" lon="1.53328">
        <ele>3</ele>
        <time>2023-06-10T08:59:15Z</time>
      </trkpt>
      <trkpt lat="50.26569" lon="1.53329">
        <ele>3</ele>
        <time>2023-06-10T08:59:17Z</time>
      </trkpt>
      <trkpt lat="50.26577" lon="1.53329">
        <ele>3</ele>
        <time>2023-06-10T08:59:19Z</time>
      </trkpt>
      <trkpt lat="50.26585" lon="1.53328">
        <ele>3</ele>
        <time>2023-06-10T08:59:21Z</time>
      </trkpt>
      <trkpt lat="50.26594" lon="1.53327">
        <ele>3</ele>
        <time>2023-06-10T08:59:23Z</time>
      </trkpt>
      <trkpt lat="50.26601" lon="1.53324">
        <ele>3</ele>
        <time>2023-06-10T08:59:25Z</time>
      </trkpt>
      <trkpt lat="50.26609" lon="1.53322">
        <ele>3</ele>
        <time>2023-06-10T08:59:27Z</time>
      </trkpt>
      <trkpt lat="50.26615" lon="1.5332">
        <ele>3</ele>
        <time>2023-06-10T08:59:29Z</time>
      </trkpt>
      <trkpt lat="50.26621" lon="1.53317">
        <ele>3</ele>
        <time>2023-06-10T08:59:31Z</time>
      </trkpt>
      <trkpt lat="50.26628" lon="1.53313">
        <ele>3</ele>
        <time>2023-06-10T08:59:33Z</time>
      </trkpt>
      <trkpt lat="50.26634" lon="1.5331">
        <ele>3</ele>
        <time>2023-06-10T08:59:35Z</time>
      </trkpt>
      <trkpt lat="50.26641" lon="1.53305">
        <ele>3</ele>
        <time>2023-06-10T08:59:37Z</time>
      </trkpt>
      <trkpt lat="50.26647" lon="1.53302">
        <ele>3</ele>
        <time>2023-06-10T08:59:39Z</time>
      </trkpt>
      <trkpt lat="50.26654" lon="1.53299">
        <ele>3</ele>
        <time>2023-06-10T08:59:41Z</time>
      </trkpt>
      <trkpt lat="50.2666" lon="1.53296">
        <ele>3</ele>
        <time>2023-06-10T08:59:43Z</time>
      </trkpt>
      <trkpt lat="50.26667" lon="1.53293">
        <ele>3</ele>
        <time>2023-06-10T08:59:45Z</time>
      </trkpt>
      <trkpt lat="50.26673" lon="1.53289">
        <ele>3</ele>
        <time>2023-06-10T08:59:47Z</time>
      </trkpt>
      <trkpt lat="50.2668" lon="1.53286">
        <ele>3</ele>
        <time>2023-06-10T08:59:49Z</time>
      </trkpt>
      <trkpt lat="50.26686" lon="1.53283">
        <ele>3</ele>
        <time>2023-06-10T08:59:51Z</time>
      </trkpt>
      <trkpt lat="50.26691" lon="1.53281">
        <ele>3</ele>
        <time>2023-06-10T08:59:53Z</time>
      </trkpt>
      <trkpt lat="50.26698" lon="1.53277">
        <ele>2.8</ele>
        <time>2023-06-10T08:59:57Z</time>
      </trkpt>
      <trkpt lat="50.26703" lon="1.53275">
        <ele>2.6</ele>
        <time>2023-06-10T09:00:01Z</time>
      </trkpt>
      <trkpt lat="50.26706" lon="1.5327">
        <ele>2.4</ele>
        <time>2023-06-10T09:10:53Z</time>
      </trkpt>
      <trkpt lat="50.26713" lon="1.53267">
        <ele>2.2</ele>
        <time>2023-06-10T09:10:59Z</time>
      </trkpt>
      <trkpt lat="50.26718" lon="1.53264">
        <ele>2.1</ele>
        <time>2023-06-10T09:11:03Z</time>
      </trkpt>
      <trkpt lat="50.26725" lon="1.53261">
        <ele>2</ele>
        <time>2023-06-10T09:11:07Z</time>
      </trkpt>
      <trkpt lat="50.26732" lon="1.53256">
        <ele>2</ele>
        <time>2023-06-10T09:11:11Z</time>
      </trkpt>
      <trkpt lat="50.2674" lon="1.5325">
        <ele>2</ele>
        <time>2023-06-10T09:11:15Z</time>
      </trkpt>
      <trkpt lat="50.26747" lon="1.53246">
        <ele>2</ele>
        <time>2023-06-10T09:11:19Z</time>
      </trkpt>
      <trkpt lat="50.26755" lon="1.5324">
        <ele>2</ele>
        <time>2023-06-10T09:11:23Z</time>
      </trkpt>
      <trkpt lat="50.26764" lon="1.53235">
        <ele>2</ele>
        <time>2023-06-10T09:11:27Z</time>
      </trkpt>
      <trkpt lat="50.26768" lon="1.53233">
        <ele>2</ele>
        <time>2023-06-10T09:11:29Z</time>
      </trkpt>
      <trkpt lat="50.26777" lon="1.53231">
        <ele>2</ele>
        <time>2023-06-10T09:11:33Z</time>
      </trkpt>
      <trkpt lat="50.26782" lon="1.5323">
        <ele>1.9</ele>
        <time>2023-06-10T09:11:35Z</time>
      </trkpt>
      <trkpt lat="50.26786" lon="1.53229">
        <ele>1.7</ele>
        <time>2023-06-10T09:11:37Z</time>
      </trkpt>
      <trkpt lat="50.26791" lon="1.53227">
        <ele>1.5</ele>
        <time>2023-06-10T09:11:39Z</time>
      </trkpt>
      <trkpt lat="50.26796" lon="1.53227">
        <ele>1.3</ele>
        <time>2023-06-10T09:11:41Z</time>
      </trkpt>
      <trkpt lat="50.26801" lon="1.53225">
        <ele>1.2</ele>
        <time>2023-06-10T09:11:43Z</time>
      </trkpt>
      <trkpt lat="50.26806" lon="1.53223">
        <ele>1</ele>
        <time>2023-06-10T09:11:45Z</time>
      </trkpt>
      <trkpt lat="50.26811" lon="1.53221">
        <ele>1</ele>
        <time>2023-06-10T09:11:47Z</time>
      </trkpt>
      <trkpt lat="50.26818" lon="1.53217">
        <ele>1.1</ele>
        <time>2023-06-10T09:11:51Z</time>
      </trkpt>
      <trkpt lat="50.26823" lon="1.53215">
        <ele>1.1</ele>
        <time>2023-06-10T09:11:55Z</time>
      </trkpt>
      <trkpt lat="50.26831" lon="1.53214">
        <ele>1</ele>
        <time>2023-06-10T09:11:59Z</time>
      </trkpt>
      <trkpt lat="50.26837" lon="1.53212">
        <ele>1</ele>
        <time>2023-06-10T09:12:03Z</time>
      </trkpt>
      <trkpt lat="50.26844" lon="1.53209">
        <ele>1</ele>
        <time>2023-06-10T09:12:07Z</time>
      </trkpt>
      <trkpt lat="50.26852" lon="1.53207">
        <ele>1</ele>
        <time>2023-06-10T09:12:11Z</time>
      </trkpt>
      <trkpt lat="50.26856" lon="1.53204">
        <ele>1</ele>
        <time>2023-06-10T09:12:13Z</time>
      </trkpt>
      <trkpt lat="50.26863" lon="1.53201">
        <ele>1</ele>
        <time>2023-06-10T09:12:17Z</time>
      </trkpt>
      <trkpt lat="50.2687" lon="1.53197">
        <ele>1</ele>
        <time>2023-06-10T09:12:21Z</time>
      </trkpt>
      <trkpt lat="50.26878" lon="1.53192">
        <ele>1.1</ele>
        <time>2023-06-10T09:12:25Z</time>
      </trkpt>
      <trkpt lat="50.26886" lon="1.53188">
        <ele>1.2</ele>
        <time>2023-06-10T09:12:29Z</time>
      </trkpt>
      <trkpt lat="50.26894" lon="1.53183">
        <ele>1.4</ele>
        <time>2023-06-10T09:12:33Z</time>
      </trkpt>
      <trkpt lat="50.26899" lon="1.5318">
        <ele>1.5</ele>
        <time>2023-06-10T09:12:35Z</time>
      </trkpt>
      <trkpt lat="50.26904" lon="1.53177">
        <ele>1.6</ele>
        <time>2023-06-10T09:12:37Z</time>
      </trkpt>
      <trkpt lat="50.26909" lon="1.53173">
        <ele>1.8</ele>
        <time>2023-06-10T09:12:39Z</time>
      </trkpt>
      <trkpt lat="50.26914" lon="1.5317">
        <ele>1.9</ele>
        <time>2023-06-10T09:12:41Z</time>
      </trkpt>
      <trkpt lat="50.26919" lon="1.53167">
        <ele>1.9</ele>
        <time>2023-06-10T09:12:43Z</time>
      </trkpt>
      <trkpt lat="50.26925" lon="1.53163">
        <ele>1.7</ele>
        <time>2023-06-10T09:12:47Z</time>
      </trkpt>
      <trkpt lat="50.2693" lon="1.53161">
        <ele>1.5</ele>
        <time>2023-06-10T09:12:51Z</time>
      </trkpt>
      <trkpt lat="50.26935" lon="1.53158">
        <ele>1.3</ele>
        <time>2023-06-10T09:12:55Z</time>
      </trkpt>
      <trkpt lat="50.26941" lon="1.53153">
        <ele>1.1</ele>
        <time>2023-06-10T09:12:59Z</time>
      </trkpt>
      <trkpt lat="50.26946" lon="1.53149">
        <ele>1.1</ele>
        <time>2023-06-10T09:13:03Z</time>
      </trkpt>
      <trkpt lat="50.2695" lon="1.53146">
        <ele>1.2</ele>
        <time>2023-06-10T09:13:07Z</time>
      </trkpt>
      <trkpt lat="50.26954" lon="1.53143">
        <ele>1.4</ele>
        <time>2023-06-10T09:13:11Z</time>
      </trkpt>
      <trkpt lat="50.26959" lon="1.5314">
        <ele>1.5</ele>
        <time>2023-06-10T09:13:15Z</time>
      </trkpt>
      <trkpt lat="50.26964" lon="1.53134">
        <ele>1.8</ele>
        <time>2023-06-10T09:13:21Z</time>
      </trkpt>
      <trkpt lat="50.26967" lon="1.53128">
        <ele>1.9</ele>
        <time>2023-06-10T09:13:25Z</time>
      </trkpt>
      <trkpt lat="50.26975" lon="1.53122">
        <ele>1.9</ele>
        <time>2023-06-10T09:13:29Z</time>
      </trkpt>
      <trkpt lat="50.26981" lon="1.5312">
        <ele>1.8</ele>
        <time>2023-06-10T09:13:31Z</time>
      </trkpt>
      <trkpt lat="50.26986" lon="1.53118">
        <ele>1.6</ele>
        <time>2023-06-10T09:13:33Z</time>
      </trkpt>
      <trkpt lat="50.26991" lon="1.53117">
        <ele>1.5</ele>
        <time>2023-06-10T09:13:35Z</time>
      </trkpt>
      <trkpt lat="50.26996" lon="1.53118">
        <ele>1.4</ele>
        <time>2023-06-10T09:13:37Z</time>
      </trkpt>
      <trkpt lat="50.27004" lon="1.53118">
        <ele>1.2</ele>
        <time>2023-06-10T09:13:41Z</time>
      </trkpt>
      <trkpt lat="50.27011" lon="1.53116">
        <ele>1.1</ele>
        <time>2023-06-10T09:13:45Z</time>
      </trkpt>
      <trkpt lat="50.27018" lon="1.53112">
        <ele>1</ele>
        <time>2023-06-10T09:13:49Z</time>
      </trkpt>
      <trkpt lat="50.27024" lon="1.5311">
        <ele>1</ele>
        <time>2023-06-10T09:13:53Z</time>
      </trkpt>
      <trkpt lat="50.27031" lon="1.53106">
        <ele>1</ele>
        <time>2023-06-10T09:13:57Z</time>
      </trkpt>
      <trkpt lat="50.27038" lon="1.53105">
        <ele>1</ele>
        <time>2023-06-10T09:14:01Z</time>
      </trkpt>
      <trkpt lat="50.27045" lon="1.53104">
        <ele>1</ele>
        <time>2023-06-10T09:14:05Z</time>
      </trkpt>
      <trkpt lat="50.27051" lon="1.53105">
        <ele>1</ele>
        <time>2023-06-10T09:14:09Z</time>
      </trkpt>
      <trkpt lat="50.27057" lon="1.53105">
        <ele>1</ele>
        <time>2023-06-10T09:14:13Z</time>
      </trkpt>
      <trkpt lat="50.27063" lon="1.53104">
        <ele>1</ele>
        <time>2023-06-10T09:14:17Z</time>
      </trkpt>
      <trkpt lat="50.27068" lon="1.53103">
        <ele>1</ele>
        <time>2023-06-10T09:14:21Z</time>
      </trkpt>
      <trkpt lat="50.27074" lon="1.53102">
        <ele>1</ele>
        <time>2023-06-10T09:14:27Z</time>
      </trkpt>
      <trkpt lat="50.27079" lon="1.53095">
        <ele>1</ele>
        <time>2023-06-10T09:14:31Z</time>
      </trkpt>
      <trkpt lat="50.27086" lon="1.53089">
        <ele>1</ele>
        <time>2023-06-10T09:14:35Z</time>
      </trkpt>
      <trkpt lat="50.27092" lon="1.53083">
        <ele>1</ele>
        <time>2023-06-10T09:14:39Z</time>
      </trkpt>
      <trkpt lat="50.27098" lon="1.53076">
        <ele>1</ele>
        <time>2023-06-10T09:14:43Z</time>
      </trkpt>
      <trkpt lat="50.27103" lon="1.53073">
        <ele>1</ele>
        <time>2023-06-10T09:14:47Z</time>
      </trkpt>
      <trkpt lat="50.27109" lon="1.53072">
        <ele>1</ele>
        <time>2023-06-10T09:14:53Z</time>
      </trkpt>
      <trkpt lat="50.27113" lon="1.53066">
        <ele>1</ele>
        <time>2023-06-10T09:14:59Z</time>
      </trkpt>
      <trkpt lat="50.27117" lon="1.53059">
        <ele>1</ele>
        <time>2023-06-10T09:15:05Z</time>
      </trkpt>
      <trkpt lat="50.2712" lon="1.53049">
        <ele>1</ele>
        <time>2023-06-10T09:15:11Z</time>
      </trkpt>
      <trkpt lat="50.27123" lon="1.53042">
        <ele>1</ele>
        <time>2023-06-10T09:15:15Z</time>
      </trkpt>
      <trkpt lat="50.27126" lon="1.53037">
        <ele>1</ele>
        <time>2023-06-10T09:15:19Z</time>
      </trkpt>
      <trkpt lat="50.2713" lon="1.53032">
        <ele>1</ele>
        <time>2023-06-10T09:15:23Z</time>
      </trkpt>
      <trkpt lat="50.27134" lon="1.53027">
        <ele>1</ele>
        <time>2023-06-10T09:15:27Z</time>
      </trkpt>
      <trkpt lat="50.27139" lon="1.53023">
        <ele>1</ele>
        <time>2023-06-10T09:15:31Z</time>
      </trkpt>
      <trkpt lat="50.27145" lon="1.53016">
        <ele>1</ele>
        <time>2023-06-10T09:15:35Z</time>
      </trkpt>
      <trkpt lat="50.27147" lon="1.53007">
        <ele>1</ele>
        <time>2023-06-10T09:15:39Z</time>
      </trkpt>
      <trkpt lat="50.2715" lon="1.52996">
        <ele>1</ele>
        <time>2023-06-10T09:15:43Z</time>
      </trkpt>
      <trkpt lat="50.27157" lon="1.52987">
        <ele>1</ele>
        <time>2023-06-10T09:15:47Z</time>
      </trkpt>
      <trkpt lat="50.27164" lon="1.52979">
        <ele>1</ele>
        <time>2023-06-10T09:15:51Z</time>
      </trkpt>
      <trkpt lat="50.27172" lon="1.52973">
        <time>2023-06-10T09:15:55Z</time>
      </trkpt>
      <trkpt lat="50.27176" lon="1.52968">
        <time>2023-06-10T09:15:57Z</time>
      </trkpt>
      <trkpt lat="50.2718" lon="1.52964">
        <time>2023-06-10T09:15:59Z</time>
      </trkpt>
      <trkpt lat="50.27184" lon="1.5296">
        <time>2023-06-10T09:16:01Z</time>
      </trkpt>
      <trkpt lat="50.27189" lon="1.52957">
        <time>2023-06-10T09:16:03Z</time>
      </trkpt>
      <trkpt lat="50.27195" lon="1.52953">
        <time>2023-06-10T09:16:05Z</time>
      </trkpt>
      <trkpt lat="50.27199" lon="1.52949">
        <time>2023-06-10T09:16:07Z</time>
      </trkpt>
      <trkpt lat="50.27205" lon="1.52946">
        <time>2023-06-10T09:16:09Z</time>
      </trkpt>
      <trkpt lat="50.2721" lon="1.52944">
        <time>2023-06-10T09:16:11Z</time>
      </trkpt>
      <trkpt lat="50.27216" lon="1.52941">
        <time>2023-06-10T09:16:13Z</time>
      </trkpt>
      <trkpt lat="50.27222" lon="1.5294">
        <time>2023-06-10T09:16:15Z</time>
      </trkpt>
      <trkpt lat="50.27229" lon="1.52938">
        <time>2023-06-10T09:16:17Z</time>
      </trkpt>
      <trkpt lat="50.27235" lon="1.52935">
        <time>2023-06-10T09:16:19Z</time>
      </trkpt>
      <trkpt lat="50.27241" lon="1.52934">
        <time>2023-06-10T09:16:21Z</time>
      </trkpt>
      <trkpt lat="50.27246" lon="1.52933">
        <time>2023-06-10T09:16:23Z</time>
      </trkpt>
      <trkpt lat="50.27251" lon="1.52934">
        <time>2023-06-10T09:16:25Z</time>
      </trkpt>
      <trkpt lat="50.27256" lon="1.52935">
        <time>2023-06-10T09:16:27Z</time>
      </trkpt>
      <trkpt lat="50.27261" lon="1.52934">
        <time>2023-06-10T09:16:29Z</time>
      </trkpt>
      <trkpt lat="50.27266" lon="1.52933">
        <time>2023-06-10T09:16:31Z</time>
      </trkpt>
      <trkpt lat="50.2727" lon="1.52932">
        <time>2023-06-10T09:16:33Z</time>
      </trkpt>
      <trkpt lat="50.27275" lon="1.52933">
        <time>2023-06-10T09:16:35Z</time>
      </trkpt>
      <trkpt lat="50.27283" lon="1.52934">
        <time>2023-06-10T09:16:39Z</time>
      </trkpt>
      <trkpt lat="50.27291" lon="1.52931">
        <time>2023-06-10T09:16:43Z</time>
      </trkpt>
      <trkpt lat="50.27298" lon="1.52923">
        <time>2023-06-10T09:16:47Z</time>
      </trkpt>
      <trkpt lat="50.27306" lon="1.52916">
        <time>2023-06-10T09:16:51Z</time>
      </trkpt>
      <trkpt lat="50.2731" lon="1.52914">
        <time>2023-06-10T09:16:53Z</time>
      </trkpt>
      <trkpt lat="50.27315" lon="1.52912">
        <time>2023-06-10T09:16:55Z</time>
      </trkpt>
      <trkpt lat="50.27324" lon="1.52909">
        <time>2023-06-10T09:16:59Z</time>
      </trkpt>
      <trkpt lat="50.27332" lon="1.52906">
        <time>2023-06-10T09:17:03Z</time>
      </trkpt>
      <trkpt lat="50.27337" lon="1.52905">
        <time>2023-06-10T09:17:05Z</time>
      </trkpt>
      <trkpt lat="50.27341" lon="1.52904">
        <time>2023-06-10T09:17:07Z</time>
      </trkpt>
      <trkpt lat="50.2735" lon="1.52904">
        <time>2023-06-10T09:17:11Z</time>
      </trkpt>
      <trkpt lat="50.27359" lon="1.52903">
        <time>2023-06-10T09:17:15Z</time>
      </trkpt>
      <trkpt lat="50.27363" lon="1.52902">
        <time>2023-06-10T09:17:17Z</time>
      </trkpt>
      <trkpt lat="50.27368" lon="1.529">
        <time>2023-06-10T09:17:19Z</time>
      </trkpt>
      <trkpt lat="50.27373" lon="1.52899">
        <time>2023-06-10T09:17:21Z</time>
      </trkpt>
      <trkpt lat="50.27378" lon="1.52899">
        <time>2023-06-10T09:17:23Z</time>
      </trkpt>
      <trkpt lat="50.27384" lon="1.52898">
        <time>2023-06-10T09:17:25Z</time>
      </trkpt>
      <trkpt lat="50.2739" lon="1.52895">
        <time>2023-06-10T09:17:27Z</time>
      </trkpt>
      <trkpt lat="50.27396" lon="1.52893">
        <time>2023-06-10T09:17:29Z</time>
      </trkpt>
      <trkpt lat="50.27403" lon="1.5289">
        <time>2023-06-10T09:17:31Z</time>
      </trkpt>
      <trkpt lat="50.27409" lon="1.52888">
        <time>2023-06-10T09:17:33Z</time>
      </trkpt>
      <trkpt lat="50.27414" lon="1.52886">
        <time>2023-06-10T09:17:35Z</time>
      </trkpt>
      <trkpt lat="50.27419" lon="1.52883">
        <time>2023-06-10T09:17:37Z</time>
      </trkpt>
      <trkpt lat="50.27427" lon="1.52881">
        <time>2023-06-10T09:17:41Z</time>
      </trkpt>
      <trkpt lat="50.27432" lon="1.52881">
        <time>2023-06-10T09:23:59Z</time>
      </trkpt>
      <trkpt lat="50.27432" lon="1.52888">
        <time>2023-06-10T09:28:29Z</time>
      </trkpt>
      <trkpt lat="50.27438" lon="1.52887">
        <time>2023-06-10T09:30:41Z</time>
      </trkpt>
      <trkpt lat="50.27444" lon="1.5289">
        <time>2023-06-10T09:30:45Z</time>
      </trkpt>
      <trkpt lat="50.27451" lon="1.52892">
        <time>2023-06-10T09:30:49Z</time>
      </trkpt>
      <trkpt lat="50.27459" lon="1.52895">
        <time>2023-06-10T09:30:53Z</time>
      </trkpt>
      <trkpt lat="50.27466" lon="1.52898">
        <time>2023-06-10T09:30:57Z</time>
      </trkpt>
      <trkpt lat="50.27474" lon="1.52901">
        <time>2023-06-10T09:31:01Z</time>
      </trkpt>
      <trkpt lat="50.27482" lon="1.52905">
        <time>2023-06-10T09:31:05Z</time>
      </trkpt>
      <trkpt lat="50.27487" lon="1.52908">
        <time>2023-06-10T09:31:07Z</time>
      </trkpt>
      <trkpt lat="50.27495" lon="1.52913">
        <time>2023-06-10T09:31:11Z</time>
      </trkpt>
      <trkpt lat="50.275" lon="1.52916">
        <time>2023-06-10T09:31:13Z</time>
      </trkpt>
      <trkpt lat="50.27504" lon="1.52918">
        <time>2023-06-10T09:31:15Z</time>
      </trkpt>
      <trkpt lat="50.27509" lon="1.52921">
        <time>2023-06-10T09:31:17Z</time>
      </trkpt>
      <trkpt lat="50.27514" lon="1.52923">
        <time>2023-06-10T09:31:19Z</time>
      </trkpt>
      <trkpt lat="50.27519" lon="1.52925">
        <time>2023-06-10T09:31:21Z</time>
      </trkpt>
      <trkpt lat="50.27527" lon="1.52929">
        <time>2023-06-10T09:31:25Z</time>
      </trkpt>
      <trkpt lat="50.27535" lon="1.52932">
        <time>2023-06-10T09:31:29Z</time>
      </trkpt>
      <trkpt lat="50.27542" lon="1.52934">
        <time>2023-06-10T09:31:33Z</time>
      </trkpt>
      <trkpt lat="50.2755" lon="1.52937">
        <time>2023-06-10T09:31:37Z</time>
      </trkpt>
      <trkpt lat="50.27555" lon="1.52939">
        <time>2023-06-10T09:31:39Z</time>
      </trkpt>
      <trkpt lat="50.27561" lon="1.52941">
        <time>2023-06-10T09:31:41Z</time>
      </trkpt>
      <trkpt lat="50.27566" lon="1.52942">
        <time>2023-06-10T09:31:43Z</time>
      </trkpt>
      <trkpt lat="50.27571" lon="1.52944">
        <time>2023-06-10T09:31:45Z</time>
      </trkpt>
      <trkpt lat="50.27576" lon="1.52946">
        <time>2023-06-10T09:31:47Z</time>
      </trkpt>
      <trkpt lat="50.2758" lon="1.52947">
        <time>2023-06-10T09:31:49Z</time>
      </trkpt>
      <trkpt lat="50.27589" lon="1.5295">
        <time>2023-06-10T09:31:53Z</time>
      </trkpt>
      <trkpt lat="50.27593" lon="1.52951">
        <time>2023-06-10T09:31:55Z</time>
      </trkpt>
      <trkpt lat="50.27598" lon="1.52952">
        <time>2023-06-10T09:31:57Z</time>
      </trkpt>
      <trkpt lat="50.27603" lon="1.52954">
        <time>2023-06-10T09:31:59Z</time>
      </trkpt>
      <trkpt lat="50.27607" lon="1.52955">
        <time>2023-06-10T09:32:01Z</time>
      </trkpt>
      <trkpt lat="50.27612" lon="1.52957">
        <time>2023-06-10T09:32:03Z</time>
      </trkpt>
      <trkpt lat="50.27616" lon="1.52959">
        <time>2023-06-10T09:32:05Z</time>
      </trkpt>
      <trkpt lat="50.27625" lon="1.52962">
        <time>2023-06-10T09:32:09Z</time>
      </trkpt>
      <trkpt lat="50.27633" lon="1.52966">
        <time>2023-06-10T09:32:13Z</time>
      </trkpt>
      <trkpt lat="50.27641" lon="1.52968">
        <time>2023-06-10T09:32:17Z</time>
      </trkpt>
      <trkpt lat="50.2765" lon="1.5297">
        <time>2023-06-10T09:32:21Z</time>
      </trkpt>
      <trkpt lat="50.27655" lon="1.52971">
        <time>2023-06-10T09:32:23Z</time>
      </trkpt>
      <trkpt lat="50.27661" lon="1.52971">
        <time>2023-06-10T09:32:25Z</time>
      </trkpt>
      <trkpt lat="50.27667" lon="1.52971">
        <time>2023-06-10T09:32:27Z</time>
      </trkpt>
      <trkpt lat="50.27673" lon="1.52971">
        <time>2023-06-10T09:32:29Z</time>
      </trkpt>
      <trkpt lat="50.27678" lon="1.52972">
        <time>2023-06-10T09:32:31Z</time>
      </trkpt>
      <trkpt lat="50.27683" lon="1.52971">
        <time>2023-06-10T09:32:33Z</time>
      </trkpt>
      <trkpt lat="50.27688" lon="1.52972">
        <time>2023-06-10T09:32:35Z</time>
      </trkpt>
      <trkpt lat="50.27696" lon="1.52972">
        <time>2023-06-10T09:32:39Z</time>
      </trkpt>
      <trkpt lat="50.27704" lon="1.52972">
        <time>2023-06-10T09:32:43Z</time>
      </trkpt>
      <trkpt lat="50.27713" lon="1.52971">
        <time>2023-06-10T09:32:47Z</time>
      </trkpt>
      <trkpt lat="50.27719" lon="1.52971">
        <time>2023-06-10T09:32:49Z</time>
      </trkpt>
      <trkpt lat="50.27725" lon="1.52971">
        <time>2023-06-10T09:32:51Z</time>
      </trkpt>
      <trkpt lat="50.2773" lon="1.5297">
        <time>2023-06-10T09:32:53Z</time>
      </trkpt>
      <trkpt lat="50.27738" lon="1.52968">
        <time>2023-06-10T09:32:57Z</time>
      </trkpt>
      <trkpt lat="50.27746" lon="1.52967">
        <time>2023-06-10T09:33:01Z</time>
      </trkpt>
      <trkpt lat="50.27753" lon="1.52966">
        <time>2023-06-10T09:33:05Z</time>
      </trkpt>
      <trkpt lat="50.2776" lon="1.52964">
        <time>2023-06-10T09:33:09Z</time>
      </trkpt>
      <trkpt lat="50.27769" lon="1.52962">
        <time>2023-06-10T09:33:13Z</time>
      </trkpt>
      <trkpt lat="50.27776" lon="1.5296">
        <time>2023-06-10T09:33:17Z</time>
      </trkpt>
      <trkpt lat="50.27783" lon="1.52959">
        <time>2023-06-10T09:33:21Z</time>
      </trkpt>
      <trkpt lat="50.27789" lon="1.52958">
        <time>2023-06-10T09:33:25Z</time>
      </trkpt>
      <trkpt lat="50.27795" lon="1.52956">
        <time>2023-06-10T09:33:29Z</time>
      </trkpt>
      <trkpt lat="50.27803" lon="1.52953">
        <time>2023-06-10T09:33:33Z</time>
      </trkpt>
      <trkpt lat="50.27808" lon="1.52952">
        <time>2023-06-10T09:33:35Z</time>
      </trkpt>
      <trkpt lat="50.27813" lon="1.52951">
        <time>2023-06-10T09:33:37Z</time>
      </trkpt>
      <trkpt lat="50.27818" lon="1.5295">
        <time>2023-06-10T09:33:39Z</time>
      </trkpt>
      <trkpt lat="50.27827" lon="1.52948">
        <time>2023-06-10T09:33:43Z</time>
      </trkpt>
      <trkpt lat="50.27834" lon="1.52947">
        <time>2023-06-10T09:33:47Z</time>
      </trkpt>
      <trkpt lat="50.2784" lon="1.52946">
        <time>2023-06-10T09:33:51Z</time>
      </trkpt>
      <trkpt lat="50.27845" lon="1.52946">
        <time>2023-06-10T09:33:55Z</time>
      </trkpt>
      <trkpt lat="50.2785" lon="1.52945">
        <time>2023-06-10T09:33:57Z</time>
      </trkpt>
      <trkpt lat="50.27854" lon="1.52945">
        <time>2023-06-10T09:33:59Z</time>
      </trkpt>
      <trkpt lat="50.27859" lon="1.52945">
        <time>2023-06-10T09:34:01Z</time>
      </trkpt>
      <trkpt lat="50.27867" lon="1.52945">
        <time>2023-06-10T09:34:05Z</time>
      </trkpt>
      <trkpt lat="50.27874" lon="1.52945">
        <time>2023-06-10T09:34:09Z</time>
      </trkpt>
      <trkpt lat="50.27881" lon="1.52945">
        <time>2023-06-10T09:34:13Z</time>
      </trkpt>
      <trkpt lat="50.27886" lon="1.52945">
        <time>2023-06-10T09:34:17Z</time>
      </trkpt>
      <trkpt lat="50.27892" lon="1.52946">
        <time>2023-06-10T09:34:21Z</time>
      </trkpt>
      <trkpt lat="50.27899" lon="1.52947">
        <time>2023-06-10T09:34:25Z</time>
      </trkpt>
      <trkpt lat="50.27906" lon="1.52948">
        <time>2023-06-10T09:34:29Z</time>
      </trkpt>
      <trkpt lat="50.27913" lon="1.52949">
        <time>2023-06-10T09:34:33Z</time>
      </trkpt>
      <trkpt lat="50.2792" lon="1.5295">
        <time>2023-06-10T09:34:37Z</time>
      </trkpt>
      <trkpt lat="50.27926" lon="1.52951">
        <time>2023-06-10T09:34:41Z</time>
      </trkpt>
      <trkpt lat="50.27933" lon="1.52953">
        <time>2023-06-10T09:34:45Z</time>
      </trkpt>
      <trkpt lat="50.2794" lon="1.52955">
        <time>2023-06-10T09:34:49Z</time>
      </trkpt>
      <trkpt lat="50.27947" lon="1.52958">
        <time>2023-06-10T09:34:53Z</time>
      </trkpt>
      <trkpt lat="50.27956" lon="1.52962">
        <time>2023-06-10T09:34:57Z</time>
      </trkpt>
      <trkpt lat="50.2796" lon="1.52964">
        <time>2023-06-10T09:34:59Z</time>
      </trkpt>
      <trkpt lat="50.27965" lon="1.52966">
        <time>2023-06-10T09:35:01Z</time>
      </trkpt>
      <trkpt lat="50.27969" lon="1.52968">
        <time>2023-06-10T09:35:03Z</time>
      </trkpt>
      <trkpt lat="50.27974" lon="1.52969">
        <time>2023-06-10T09:35:05Z</time>
      </trkpt>
      <trkpt lat="50.27982" lon="1.52973">
        <time>2023-06-10T09:35:09Z</time>
      </trkpt>
      <trkpt lat="50.2799" lon="1.52975">
        <time>2023-06-10T09:35:13Z</time>
      </trkpt>
      <trkpt lat="50.27998" lon="1.52977">
        <time>2023-06-10T09:35:17Z</time>
      </trkpt>
      <trkpt lat="50.28006" lon="1.52981">
        <time>2023-06-10T09:35:21Z</time>
      </trkpt>
      <trkpt lat="50.28014" lon="1.52983">
        <time>2023-06-10T09:35:25Z</time>
      </trkpt>
      <trkpt lat="50.2802" lon="1.52988">
        <time>2023-06-10T09:35:29Z</time>
      </trkpt>
      <trkpt lat="50.28026" lon="1.5299">
        <time>2023-06-10T09:35:33Z</time>
      </trkpt>
      <trkpt lat="50.28035" lon="1.52995">
        <time>2023-06-10T09:35:37Z</time>
      </trkpt>
      <trkpt lat="50.28041" lon="1.52997">
        <time>2023-06-10T09:35:39Z</time>
      </trkpt>
      <trkpt lat="50.28046" lon="1.52999">
        <time>2023-06-10T09:35:41Z</time>
      </trkpt>
      <trkpt lat="50.28051" lon="1.53001">
        <time>2023-06-10T09:35:43Z</time>
      </trkpt>
      <trkpt lat="50.28058" lon="1.53003">
        <time>2023-06-10T09:35:45Z</time>
      </trkpt>
      <trkpt lat="50.28064" lon="1.53004">
        <time>2023-06-10T09:35:47Z</time>
      </trkpt>
      <trkpt lat="50.2807" lon="1.53005">
        <time>2023-06-10T09:35:49Z</time>
      </trkpt>
      <trkpt lat="50.28076" lon="1.53006">
        <time>2023-06-10T09:35:51Z</time>
      </trkpt>
      <trkpt lat="50.28081" lon="1.53007">
        <time>2023-06-10T09:35:53Z</time>
      </trkpt>
      <trkpt lat="50.28086" lon="1.53008">
        <time>2023-06-10T09:35:55Z</time>
      </trkpt>
      <trkpt lat="50.28091" lon="1.53009">
        <time>2023-06-10T09:35:57Z</time>
      </trkpt>
      <trkpt lat="50.28096" lon="1.5301">
        <time>2023-06-10T09:35:59Z</time>
      </trkpt>
      <trkpt lat="50.28101" lon="1.5301">
        <time>2023-06-10T09:36:01Z</time>
      </trkpt>
      <trkpt lat="50.28106" lon="1.53011">
        <time>2023-06-10T09:36:03Z</time>
      </trkpt>
      <trkpt lat="50.28111" lon="1.53012">
        <time>2023-06-10T09:36:05Z</time>
      </trkpt>
      <trkpt lat="50.28115" lon="1.53012">
        <time>2023-06-10T09:36:07Z</time>
      </trkpt>
      <trkpt lat="50.28123" lon="1.53013">
        <time>2023-06-10T09:36:11Z</time>
      </trkpt>
      <trkpt lat="50.28132" lon="1.53013">
        <time>2023-06-10T09:36:15Z</time>
      </trkpt>
      <trkpt lat="50.2814" lon="1.53014">
        <time>2023-06-10T09:36:19Z</time>
      </trkpt>
      <trkpt lat="50.28148" lon="1.53018">
        <time>2023-06-10T09:36:23Z</time>
      </trkpt>
      <trkpt lat="50.28154" lon="1.53024">
        <time>2023-06-10T09:36:27Z</time>
      </trkpt>
      <trkpt lat="50.2816" lon="1.53031">
        <time>2023-06-10T09:36:31Z</time>
      </trkpt>
      <trkpt lat="50.28166" lon="1.53037">
        <time>2023-06-10T09:36:35Z</time>
      </trkpt>
      <trkpt lat="50.2817" lon="1.53042">
        <time>2023-06-10T09:36:39Z</time>
      </trkpt>
      <trkpt lat="50.28175" lon="1.53049">
        <time>2023-06-10T09:36:43Z</time>
      </trkpt>
      <trkpt lat="50.28179" lon="1.53057">
        <time>2023-06-10T09:36:47Z</time>
      </trkpt>
      <trkpt lat="50.28186" lon="1.53061">
        <time>2023-06-10T09:36:51Z</time>
      </trkpt>
      <trkpt lat="50.28195" lon="1.53067">
        <time>2023-06-10T09:36:55Z</time>
      </trkpt>
      <trkpt lat="50.28199" lon="1.5307">
        <time>2023-06-10T09:36:57Z</time>
      </trkpt>
      <trkpt lat="50.28204" lon="1.53074">
        <time>2023-06-10T09:36:59Z</time>
      </trkpt>
      <trkpt lat="50.28209" lon="1.53077">
        <time>2023-06-10T09:37:01Z</time>
      </trkpt>
      <trkpt lat="50.28213" lon="1.5308">
        <time>2023-06-10T09:37:03Z</time>
      </trkpt>
      <trkpt lat="50.28218" lon="1.53082">
        <time>2023-06-10T09:37:05Z</time>
      </trkpt>
      <trkpt lat="50.28223" lon="1.53083">
        <time>2023-06-10T09:37:07Z</time>
      </trkpt>
      <trkpt lat="50.28229" lon="1.53086">
        <time>2023-06-10T09:37:09Z</time>
      </trkpt>
      <trkpt lat="50.28235" lon="1.53089">
        <time>2023-06-10T09:37:11Z</time>
      </trkpt>
      <trkpt lat="50.28241" lon="1.53092">
        <time>2023-06-10T09:37:13Z</time>
      </trkpt>
      <trkpt lat="50.28247" lon="1.53094">
        <time>2023-06-10T09:37:15Z</time>
      </trkpt>
      <trkpt lat="50.28253" lon="1.53098">
        <time>2023-06-10T09:37:17Z</time>
      </trkpt>
      <trkpt lat="50.28259" lon="1.53101">
        <time>2023-06-10T09:37:19Z</time>
      </trkpt>
      <trkpt lat="50.28266" lon="1.53103">
        <time>2023-06-10T09:37:21Z</time>
      </trkpt>
      <trkpt lat="50.28273" lon="1.53105">
        <time>2023-06-10T09:37:23Z</time>
      </trkpt>
      <trkpt lat="50.2828" lon="1.53109">
        <time>2023-06-10T09:37:25Z</time>
      </trkpt>
      <trkpt lat="50.28286" lon="1.53112">
        <time>2023-06-10T09:37:27Z</time>
      </trkpt>
      <trkpt lat="50.28293" lon="1.53116">
        <time>2023-06-10T09:37:29Z</time>
      </trkpt>
      <trkpt lat="50.28299" lon="1.5312">
        <time>2023-06-10T09:37:31Z</time>
      </trkpt>
      <trkpt lat="50.28304" lon="1.53124">
        <time>2023-06-10T09:37:33Z</time>
      </trkpt>
      <trkpt lat="50.28309" lon="1.53128">
        <time>2023-06-10T09:37:35Z</time>
      </trkpt>
      <trkpt lat="50.28314" lon="1.53132">
        <time>2023-06-10T09:37:37Z</time>
      </trkpt>
      <trkpt lat="50.28319" lon="1.53137">
        <time>2023-06-10T09:37:39Z</time>
      </trkpt>
      <trkpt lat="50.28324" lon="1.53141">
        <time>2023-06-10T09:37:41Z</time>
      </trkpt>
      <trkpt lat="50.28329" lon="1.53145">
        <time>2023-06-10T09:37:43Z</time>
      </trkpt>
      <trkpt lat="50.28335" lon="1.53149">
        <time>2023-06-10T09:37:45Z</time>
      </trkpt>
      <trkpt lat="50.28339" lon="1.53152">
        <time>2023-06-10T09:37:47Z</time>
      </trkpt>
      <trkpt lat="50.28347" lon="1.53157">
        <time>2023-06-10T09:37:51Z</time>
      </trkpt>
      <trkpt lat="50.28351" lon="1.53161">
        <time>2023-06-10T09:37:53Z</time>
      </trkpt>
      <trkpt lat="50.28356" lon="1.53164">
        <time>2023-06-10T09:37:55Z</time>
      </trkpt>
      <trkpt lat="50.2836" lon="1.53167">
        <time>2023-06-10T09:37:57Z</time>
      </trkpt>
      <trkpt lat="50.28365" lon="1.53171">
        <time>2023-06-10T09:37:59Z</time>
      </trkpt>
      <trkpt lat="50.2837" lon="1.53175">
        <time>2023-06-10T09:38:01Z</time>
      </trkpt>
      <trkpt lat="50.28375" lon="1.53178">
        <time>2023-06-10T09:38:03Z</time>
      </trkpt>
      <trkpt lat="50.28381" lon="1.53181">
        <time>2023-06-10T09:38:05Z</time>
      </trkpt>
      <trkpt lat="50.28387" lon="1.53183">
        <time>2023-06-10T09:38:07Z</time>
      </trkpt>
      <trkpt lat="50.28393" lon="1.53186">
        <time>2023-06-10T09:38:09Z</time>
      </trkpt>
      <trkpt lat="50.28399" lon="1.53188">
        <time>2023-06-10T09:38:11Z</time>
      </trkpt>
      <trkpt lat="50.28404" lon="1.53191">
        <time>2023-06-10T09:38:13Z</time>
      </trkpt>
      <trkpt lat="50.28409" lon="1.53194">
        <time>2023-06-10T09:38:15Z</time>
      </trkpt>
      <trkpt lat="50.28414" lon="1.53197">
        <time>2023-06-10T09:38:17Z</time>
      </trkpt>
      <trkpt lat="50.28419" lon="1.532">
        <time>2023-06-10T09:38:19Z</time>
      </trkpt>
      <trkpt lat="50.28423" lon="1.53203">
        <time>2023-06-10T09:38:21Z</time>
      </trkpt>
      <trkpt lat="50.28428" lon="1.53206">
        <time>2023-06-10T09:38:23Z</time>
      </trkpt>
      <trkpt lat="50.28433" lon="1.53209">
        <time>2023-06-10T09:38:25Z</time>
      </trkpt>
      <trkpt lat="50.28438" lon="1.53211">
        <time>2023-06-10T09:38:27Z</time>
      </trkpt>
      <trkpt lat="50.28444" lon="1.53214">
        <time>2023-06-10T09:38:29Z</time>
      </trkpt>
      <trkpt lat="50.2845" lon="1.53217">
        <time>2023-06-10T09:38:31Z</time>
      </trkpt>
      <trkpt lat="50.28456" lon="1.5322">
        <time>2023-06-10T09:38:33Z</time>
      </trkpt>
      <trkpt lat="50.28462" lon="1.53223">
        <time>2023-06-10T09:38:35Z</time>
      </trkpt>
      <trkpt lat="50.28468" lon="1.53225">
        <time>2023-06-10T09:38:37Z</time>
      </trkpt>
      <trkpt lat="50.28474" lon="1.53228">
        <time>2023-06-10T09:38:39Z</time>
      </trkpt>
      <trkpt lat="50.28479" lon="1.5323">
        <time>2023-06-10T09:38:41Z</time>
      </trkpt>
      <trkpt lat="50.28486" lon="1.53233">
        <time>2023-06-10T09:38:43Z</time>
      </trkpt>
      <trkpt lat="50.28491" lon="1.53236">
        <time>2023-06-10T09:38:45Z</time>
      </trkpt>
      <trkpt lat="50.28497" lon="1.53239">
        <time>2023-06-10T09:38:47Z</time>
      </trkpt>
      <trkpt lat="50.28504" lon="1.53243">
        <time>2023-06-10T09:38:49Z</time>
      </trkpt>
      <trkpt lat="50.28511" lon="1.53247">
        <time>2023-06-10T09:38:51Z</time>
      </trkpt>
      <trkpt lat="50.28517" lon="1.53252">
        <time>2023-06-10T09:38:53Z</time>
      </trkpt>
      <trkpt lat="50.28521" lon="1.53259">
        <time>2023-06-10T09:38:55Z</time>
      </trkpt>
      <trkpt lat="50.28526" lon="1.53265">
        <time>2023-06-10T09:38:57Z</time>
      </trkpt>
      <trkpt lat="50.28532" lon="1.5327">
        <time>2023-06-10T09:38:59Z</time>
      </trkpt>
      <trkpt lat="50.28538" lon="1.53275">
        <time>2023-06-10T09:39:01Z</time>
      </trkpt>
      <trkpt lat="50.28544" lon="1.53279">
        <time>2023-06-10T09:39:03Z</time>
      </trkpt>
      <trkpt lat="50.2855" lon="1.53282">
        <time>2023-06-10T09:39:05Z</time>
      </trkpt>
      <trkpt lat="50.28557" lon="1.53285">
        <time>2023-06-10T09:39:07Z</time>
      </trkpt>
      <trkpt lat="50.28565" lon="1.53289">
        <time>2023-06-10T09:39:09Z</time>
      </trkpt>
      <trkpt lat="50.28572" lon="1.53291">
        <time>2023-06-10T09:39:11Z</time>
      </trkpt>
      <trkpt lat="50.2858" lon="1.53294">
        <time>2023-06-10T09:39:13Z</time>
      </trkpt>
      <trkpt lat="50.28587" lon="1.53297">
        <time>2023-06-10T09:39:15Z</time>
      </trkpt>
      <trkpt lat="50.28594" lon="1.533">
        <time>2023-06-10T09:39:17Z</time>
      </trkpt>
      <trkpt lat="50.28602" lon="1.53303">
        <time>2023-06-10T09:39:19Z</time>
      </trkpt>
      <trkpt lat="50.28611" lon="1.53308">
        <time>2023-06-10T09:39:21Z</time>
      </trkpt>
      <trkpt lat="50.28619" lon="1.53314">
        <time>2023-06-10T09:39:23Z</time>
      </trkpt>
      <trkpt lat="50.28627" lon="1.5332">
        <time>2023-06-10T09:39:25Z</time>
      </trkpt>
      <trkpt lat="50.28636" lon="1.53326">
        <time>2023-06-10T09:39:27Z</time>
      </trkpt>
      <trkpt lat="50.28645" lon="1.53331">
        <time>2023-06-10T09:39:29Z</time>
      </trkpt>
      <trkpt lat="50.28653" lon="1.53336">
        <ele>1</ele>
        <time>2023-06-10T09:39:31Z</time>
      </trkpt>
      <trkpt lat="50.28662" lon="1.53341">
        <ele>1</ele>
        <time>2023-06-10T09:39:33Z</time>
      </trkpt>
      <trkpt lat="50.2867" lon="1.53345">
        <ele>1</ele>
        <time>2023-06-10T09:39:35Z</time>
      </trkpt>
      <trkpt lat="50.28679" lon="1.53349">
        <ele>1</ele>
        <time>2023-06-10T09:39:37Z</time>
      </trkpt>
      <trkpt lat="50.28687" lon="1.53351">
        <ele>1</ele>
        <time>2023-06-10T09:39:39Z</time>
      </trkpt>
      <trkpt lat="50.28696" lon="1.53354">
        <time>2023-06-10T09:39:41Z</time>
      </trkpt>
      <trkpt lat="50.28704" lon="1.53358">
        <time>2023-06-10T09:39:43Z</time>
      </trkpt>
      <trkpt lat="50.28713" lon="1.53362">
        <ele>1</ele>
        <time>2023-06-10T09:39:45Z</time>
      </trkpt>
      <trkpt lat="50.28721" lon="1.53365">
        <ele>1</ele>
        <time>2023-06-10T09:39:47Z</time>
      </trkpt>
      <trkpt lat="50.28728" lon="1.53368">
        <ele>1</ele>
        <time>2023-06-10T09:39:49Z</time>
      </trkpt>
      <trkpt lat="50.28736" lon="1.53371">
        <ele>1</ele>
        <time>2023-06-10T09:39:51Z</time>
      </trkpt>
      <trkpt lat="50.28745" lon="1.53374">
        <ele>1</ele>
        <time>2023-06-10T09:39:53Z</time>
      </trkpt>
      <trkpt lat="50.28753" lon="1.53378">
        <ele>1</ele>
        <time>2023-06-10T09:39:55Z</time>
      </trkpt>
      <trkpt lat="50.28761" lon="1.53382">
        <ele>1</ele>
        <time>2023-06-10T09:39:57Z</time>
      </trkpt>
      <trkpt lat="50.28769" lon="1.53385">
        <ele>1</ele>
        <time>2023-06-10T09:39:59Z</time>
      </trkpt>
      <trkpt lat="50.28778" lon="1.53388">
        <ele>1</ele>
        <time>2023-06-10T09:40:01Z</time>
      </trkpt>
      <trkpt lat="50.28787" lon="1.53392">
        <ele>1</ele>
        <time>2023-06-10T09:40:03Z</time>
      </trkpt>
      <trkpt lat="50.28795" lon="1.53395">
        <ele>1</ele>
        <time>2023-06-10T09:40:05Z</time>
      </trkpt>
      <trkpt lat="50.28803" lon="1.53399">
        <ele>1</ele>
        <time>2023-06-10T09:40:07Z</time>
      </trkpt>
      <trkpt lat="50.28812" lon="1.53402">
        <ele>1</ele>
        <time>2023-06-10T09:40:09Z</time>
      </trkpt>
      <trkpt lat="50.28821" lon="1.53405">
        <ele>1</ele>
        <time>2023-06-10T09:40:11Z</time>
      </trkpt>
      <trkpt lat="50.28829" lon="1.53406">
        <ele>1</ele>
        <time>2023-06-10T09:40:13Z</time>
      </trkpt>
      <trkpt lat="50.28838" lon="1.53408">
        <ele>1</ele>
        <time>2023-06-10T09:40:15Z</time>
      </trkpt>
      <trkpt lat="50.28847" lon="1.53411">
        <ele>1</ele>
        <time>2023-06-10T09:40:17Z</time>
      </trkpt>
      <trkpt lat="50.28856" lon="1.53412">
        <ele>1</ele>
        <time>2023-06-10T09:40:19Z</time>
      </trkpt>
      <trkpt lat="50.28865" lon="1.53415">
        <ele>1</ele>
        <time>2023-06-10T09:40:21Z</time>
      </trkpt>
      <trkpt lat="50.28874" lon="1.53418">
        <ele>1</ele>
        <time>2023-06-10T09:40:23Z</time>
      </trkpt>
      <trkpt lat="50.28882" lon="1.53422">
        <ele>1</ele>
        <time>2023-06-10T09:40:25Z</time>
      </trkpt>
      <trkpt lat="50.28891" lon="1.53426">
        <ele>1</ele>
        <time>2023-06-10T09:40:27Z</time>
      </trkpt>
      <trkpt lat="50.28899" lon="1.5343">
        <ele>1</ele>
        <time>2023-06-10T09:40:29Z</time>
      </trkpt>
      <trkpt lat="50.28908" lon="1.53436">
        <ele>1</ele>
        <time>2023-06-10T09:40:31Z</time>
      </trkpt>
      <trkpt lat="50.28915" lon="1.53442">
        <ele>1</ele>
        <time>2023-06-10T09:40:33Z</time>
      </trkpt>
      <trkpt lat="50.28924" lon="1.53447">
        <ele>1</ele>
        <time>2023-06-10T09:40:35Z</time>
      </trkpt>
      <trkpt lat="50.28932" lon="1.53452">
        <ele>1</ele>
        <time>2023-06-10T09:40:37Z</time>
      </trkpt>
      <trkpt lat="50.28941" lon="1.53457">
        <ele>1</ele>
        <time>2023-06-10T09:40:39Z</time>
      </trkpt>
      <trkpt lat="50.2895" lon="1.53461">
        <ele>1</ele>
        <time>2023-06-10T09:40:41Z</time>
      </trkpt>
      <trkpt lat="50.28959" lon="1.53465">
        <ele>1</ele>
        <time>2023-06-10T09:40:43Z</time>
      </trkpt>
      <trkpt lat="50.28967" lon="1.53468">
        <ele>1</ele>
        <time>2023-06-10T09:40:45Z</time>
      </trkpt>
      <trkpt lat="50.28976" lon="1.53471">
        <ele>1</ele>
        <time>2023-06-10T09:40:47Z</time>
      </trkpt>
      <trkpt lat="50.28985" lon="1.53473">
        <ele>1</ele>
        <time>2023-06-10T09:40:49Z</time>
      </trkpt>
      <trkpt lat="50.28993" lon="1.53475">
        <ele>1</ele>
        <time>2023-06-10T09:40:51Z</time>
      </trkpt>
      <trkpt lat="50.29001" lon="1.53477">
        <ele>1</ele>
        <time>2023-06-10T09:40:53Z</time>
      </trkpt>
      <trkpt lat="50.29009" lon="1.53477">
        <ele>1</ele>
        <time>2023-06-10T09:40:55Z</time>
      </trkpt>
      <trkpt lat="50.29016" lon="1.53476">
        <ele>1</ele>
        <time>2023-06-10T09:40:57Z</time>
      </trkpt>
      <trkpt lat="50.29023" lon="1.53477">
        <ele>1</ele>
        <time>2023-06-10T09:40:59Z</time>
      </trkpt>
      <trkpt lat="50.29031" lon="1.53481">
        <ele>1</ele>
        <time>2023-06-10T09:41:01Z</time>
      </trkpt>
      <trkpt lat="50.29039" lon="1.53485">
        <ele>1</ele>
        <time>2023-06-10T09:41:03Z</time>
      </trkpt>
      <trkpt lat="50.29048" lon="1.53489">
        <ele>1</ele>
        <time>2023-06-10T09:41:05Z</time>
      </trkpt>
      <trkpt lat="50.29057" lon="1.53493">
        <ele>1</ele>
        <time>2023-06-10T09:41:07Z</time>
      </trkpt>
      <trkpt lat="50.29065" lon="1.53499">
        <ele>1</ele>
        <time>2023-06-10T09:41:09Z</time>
      </trkpt>
      <trkpt lat="50.29073" lon="1.53504">
        <ele>1</ele>
        <time>2023-06-10T09:41:11Z</time>
      </trkpt>
      <trkpt lat="50.29081" lon="1.53508">
        <ele>1</ele>
        <time>2023-06-10T09:41:13Z</time>
      </trkpt>
      <trkpt lat="50.29089" lon="1.53513">
        <ele>1</ele>
        <time>2023-06-10T09:41:15Z</time>
      </trkpt>
      <trkpt lat="50.29096" lon="1.53518">
        <ele>1</ele>
        <time>2023-06-10T09:41:17Z</time>
      </trkpt>
      <trkpt lat="50.29104" lon="1.53522">
        <ele>1</ele>
        <time>2023-06-10T09:41:19Z</time>
      </trkpt>
      <trkpt lat="50.29111" lon="1.53526">
        <ele>1</ele>
        <time>2023-06-10T09:41:21Z</time>
      </trkpt>
      <trkpt lat="50.29119" lon="1.53528">
        <ele>1</ele>
        <time>2023-06-10T09:41:23Z</time>
      </trkpt>
      <trkpt lat="50.29127" lon="1.5353">
        <ele>1.1</ele>
        <time>2023-06-10T09:41:25Z</time>
      </trkpt>
      <trkpt lat="50.29134" lon="1.53532">
        <ele>1.2</ele>
        <time>2023-06-10T09:41:27Z</time>
      </trkpt>
      <trkpt lat="50.29142" lon="1.53534">
        <ele>1.2</ele>
        <time>2023-06-10T09:41:29Z</time>
      </trkpt>
      <trkpt lat="50.2915" lon="1.53535">
        <ele>1.2</ele>
        <time>2023-06-10T09:41:31Z</time>
      </trkpt>
      <trkpt lat="50.29158" lon="1.53537">
        <ele>1.3</ele>
        <time>2023-06-10T09:41:33Z</time>
      </trkpt>
      <trkpt lat="50.29166" lon="1.53538">
        <ele>1.4</ele>
        <time>2023-06-10T09:41:35Z</time>
      </trkpt>
      <trkpt lat="50.29173" lon="1.53538">
        <ele>1.3</ele>
        <time>2023-06-10T09:41:37Z</time>
      </trkpt>
      <trkpt lat="50.29181" lon="1.53537">
        <ele>1.2</ele>
        <time>2023-06-10T09:41:39Z</time>
      </trkpt>
      <trkpt lat="50.29187" lon="1.53536">
        <ele>1.1</ele>
        <time>2023-06-10T09:41:41Z</time>
      </trkpt>
      <trkpt lat="50.29195" lon="1.53534">
        <ele>1</ele>
        <time>2023-06-10T09:41:43Z</time>
      </trkpt>
      <trkpt lat="50.29202" lon="1.53534">
        <ele>1</ele>
        <time>2023-06-10T09:41:45Z</time>
      </trkpt>
      <trkpt lat="50.29209" lon="1.53531">
        <ele>1</ele>
        <time>2023-06-10T09:41:47Z</time>
      </trkpt>
      <trkpt lat="50.29215" lon="1.53527">
        <ele>1</ele>
        <time>2023-06-10T09:41:49Z</time>
      </trkpt>
      <trkpt lat="50.29222" lon="1.53523">
        <ele>1</ele>
        <time>2023-06-10T09:41:51Z</time>
      </trkpt>
      <trkpt lat="50.29228" lon="1.53518">
        <ele>1</ele>
        <time>2023-06-10T09:41:53Z</time>
      </trkpt>
      <trkpt lat="50.29235" lon="1.53513">
        <ele>1</ele>
        <time>2023-06-10T09:41:55Z</time>
      </trkpt>
      <trkpt lat="50.29241" lon="1.53507">
        <ele>1</ele>
        <time>2023-06-10T09:41:57Z</time>
      </trkpt>
      <trkpt lat="50.29246" lon="1.53499">
        <ele>1</ele>
        <time>2023-06-10T09:41:59Z</time>
      </trkpt>
      <trkpt lat="50.29252" lon="1.53489">
        <time>2023-06-10T09:42:01Z</time>
      </trkpt>
      <trkpt lat="50.29257" lon="1.53482">
        <time>2023-06-10T09:42:03Z</time>
      </trkpt>
      <trkpt lat="50.29263" lon="1.53479">
        <time>2023-06-10T09:42:05Z</time>
      </trkpt>
      <trkpt lat="50.29269" lon="1.53478">
        <time>2023-06-10T09:42:07Z</time>
      </trkpt>
      <trkpt lat="50.29275" lon="1.53479">
        <time>2023-06-10T09:42:09Z</time>
      </trkpt>
      <trkpt lat="50.29281" lon="1.53477">
        <time>2023-06-10T09:42:11Z</time>
      </trkpt>
      <trkpt lat="50.29287" lon="1.53475">
        <time>2023-06-10T09:42:13Z</time>
      </trkpt>
      <trkpt lat="50.29293" lon="1.53472">
        <time>2023-06-10T09:42:15Z</time>
      </trkpt>
      <trkpt lat="50.293" lon="1.53471">
        <time>2023-06-10T09:42:17Z</time>
      </trkpt>
      <trkpt lat="50.29307" lon="1.53471">
        <time>2023-06-10T09:42:19Z</time>
      </trkpt>
      <trkpt lat="50.29313" lon="1.53472">
        <time>2023-06-10T09:42:21Z</time>
      </trkpt>
      <trkpt lat="50.2932" lon="1.53473">
        <time>2023-06-10T09:42:23Z</time>
      </trkpt>
      <trkpt lat="50.29327" lon="1.53474">
        <time>2023-06-10T09:42:25Z</time>
      </trkpt>
      <trkpt lat="50.29335" lon="1.53474">
        <time>2023-06-10T09:42:27Z</time>
      </trkpt>
      <trkpt lat="50.29342" lon="1.53475">
        <time>2023-06-10T09:42:29Z</time>
      </trkpt>
      <trkpt lat="50.29348" lon="1.53474">
        <time>2023-06-10T09:42:31Z</time>
      </trkpt>
      <trkpt lat="50.29355" lon="1.53473">
        <time>2023-06-10T09:42:33Z</time>
      </trkpt>
      <trkpt lat="50.29361" lon="1.53474">
        <time>2023-06-10T09:42:35Z</time>
      </trkpt>
      <trkpt lat="50.29368" lon="1.53476">
        <time>2023-06-10T09:42:37Z</time>
      </trkpt>
      <trkpt lat="50.29375" lon="1.53476">
        <time>2023-06-10T09:42:39Z</time>
      </trkpt>
      <trkpt lat="50.29382" lon="1.53477">
        <time>2023-06-10T09:42:41Z</time>
      </trkpt>
      <trkpt lat="50.29388" lon="1.5348">
        <time>2023-06-10T09:42:43Z</time>
      </trkpt>
      <trkpt lat="50.29394" lon="1.53482">
        <time>2023-06-10T09:42:45Z</time>
      </trkpt>
      <trkpt lat="50.29401" lon="1.53485">
        <time>2023-06-10T09:42:47Z</time>
      </trkpt>
      <trkpt lat="50.29407" lon="1.53489">
        <time>2023-06-10T09:42:49Z</time>
      </trkpt>
      <trkpt lat="50.29413" lon="1.53493">
        <time>2023-06-10T09:42:51Z</time>
      </trkpt>
      <trkpt lat="50.29419" lon="1.53496">
        <time>2023-06-10T09:42:53Z</time>
      </trkpt>
      <trkpt lat="50.29425" lon="1.53499">
        <time>2023-06-10T09:42:55Z</time>
      </trkpt>
      <trkpt lat="50.2943" lon="1.53501">
        <time>2023-06-10T09:42:57Z</time>
      </trkpt>
      <trkpt lat="50.29437" lon="1.53503">
        <time>2023-06-10T09:42:59Z</time>
      </trkpt>
      <trkpt lat="50.29444" lon="1.53503">
        <time>2023-06-10T09:43:01Z</time>
      </trkpt>
      <trkpt lat="50.29451" lon="1.53503">
        <time>2023-06-10T09:43:03Z</time>
      </trkpt>
      <trkpt lat="50.29459" lon="1.53505">
        <time>2023-06-10T09:43:05Z</time>
      </trkpt>
      <trkpt lat="50.29466" lon="1.53507">
        <time>2023-06-10T09:43:07Z</time>
      </trkpt>
      <trkpt lat="50.29473" lon="1.53511">
        <time>2023-06-10T09:43:09Z</time>
      </trkpt>
      <trkpt lat="50.2948" lon="1.53513">
        <time>2023-06-10T09:43:11Z</time>
      </trkpt>
      <trkpt lat="50.29486" lon="1.53515">
        <time>2023-06-10T09:43:13Z</time>
      </trkpt>
      <trkpt lat="50.29492" lon="1.53517">
        <time>2023-06-10T09:43:15Z</time>
      </trkpt>
      <trkpt lat="50.29498" lon="1.53519">
        <time>2023-06-10T09:43:17Z</time>
      </trkpt>
      <trkpt lat="50.29504" lon="1.53521">
        <time>2023-06-10T09:43:19Z</time>
      </trkpt>
      <trkpt lat="50.29509" lon="1.53524">
        <time>2023-06-10T09:43:21Z</time>
      </trkpt>
      <trkpt lat="50.29514" lon="1.53525">
        <time>2023-06-10T09:43:23Z</time>
      </trkpt>
      <trkpt lat="50.29519" lon="1.53527">
        <time>2023-06-10T09:43:25Z</time>
      </trkpt>
      <trkpt lat="50.29525" lon="1.53528">
        <time>2023-06-10T09:43:27Z</time>
      </trkpt>
      <trkpt lat="50.29531" lon="1.53529">
        <time>2023-06-10T09:43:29Z</time>
      </trkpt>
      <trkpt lat="50.29536" lon="1.53529">
        <time>2023-06-10T09:43:31Z</time>
      </trkpt>
      <trkpt lat="50.29542" lon="1.53528">
        <time>2023-06-10T09:43:33Z</time>
      </trkpt>
      <trkpt lat="50.29548" lon="1.53527">
        <time>2023-06-10T09:43:35Z</time>
      </trkpt>
      <trkpt lat="50.29554" lon="1.53525">
        <time>2023-06-10T09:43:37Z</time>
      </trkpt>
      <trkpt lat="50.2956" lon="1.53523">
        <time>2023-06-10T09:43:39Z</time>
      </trkpt>
      <trkpt lat="50.29566" lon="1.5352">
        <time>2023-06-10T09:43:41Z</time>
      </trkpt>
      <trkpt lat="50.29573" lon="1.5352">
        <time>2023-06-10T09:43:43Z</time>
      </trkpt>
      <trkpt lat="50.2958" lon="1.53522">
        <time>2023-06-10T09:43:45Z</time>
      </trkpt>
      <trkpt lat="50.29586" lon="1.53525">
        <time>2023-06-10T09:43:47Z</time>
      </trkpt>
      <trkpt lat="50.29592" lon="1.53526">
        <time>2023-06-10T09:43:49Z</time>
      </trkpt>
      <trkpt lat="50.29599" lon="1.53528">
        <time>2023-06-10T09:43:51Z</time>
      </trkpt>
      <trkpt lat="50.29605" lon="1.5353">
        <time>2023-06-10T09:43:53Z</time>
      </trkpt>
      <trkpt lat="50.29611" lon="1.53531">
        <time>2023-06-10T09:43:55Z</time>
      </trkpt>
      <trkpt lat="50.29616" lon="1.53533">
        <time>2023-06-10T09:43:57Z</time>
      </trkpt>
      <trkpt lat="50.29622" lon="1.53535">
        <time>2023-06-10T09:43:59Z</time>
      </trkpt>
      <trkpt lat="50.29629" lon="1.53538">
        <time>2023-06-10T09:44:01Z</time>
      </trkpt>
      <trkpt lat="50.29634" lon="1.53542">
        <time>2023-06-10T09:44:03Z</time>
      </trkpt>
      <trkpt lat="50.2964" lon="1.53544">
        <time>2023-06-10T09:44:05Z</time>
      </trkpt>
      <trkpt lat="50.29645" lon="1.53547">
        <time>2023-06-10T09:44:07Z</time>
      </trkpt>
      <trkpt lat="50.29651" lon="1.5355">
        <time>2023-06-10T09:44:09Z</time>
      </trkpt>
      <trkpt lat="50.29657" lon="1.5355">
        <time>2023-06-10T09:44:11Z</time>
      </trkpt>
      <trkpt lat="50.29663" lon="1.53552">
        <time>2023-06-10T09:44:13Z</time>
      </trkpt>
      <trkpt lat="50.29669" lon="1.53554">
        <time>2023-06-10T09:44:15Z</time>
      </trkpt>
      <trkpt lat="50.29674" lon="1.53556">
        <time>2023-06-10T09:44:17Z</time>
      </trkpt>
      <trkpt lat="50.29679" lon="1.53559">
        <time>2023-06-10T09:44:19Z</time>
      </trkpt>
      <trkpt lat="50.29684" lon="1.53562">
        <time>2023-06-10T09:44:21Z</time>
      </trkpt>
      <trkpt lat="50.2969" lon="1.53565">
        <time>2023-06-10T09:44:23Z</time>
      </trkpt>
      <trkpt lat="50.29696" lon="1.53569">
        <time>2023-06-10T09:44:25Z</time>
      </trkpt>
      <trkpt lat="50.29702" lon="1.53572">
        <time>2023-06-10T09:44:27Z</time>
      </trkpt>
      <trkpt lat="50.29708" lon="1.53577">
        <time>2023-06-10T09:44:29Z</time>
      </trkpt>
      <trkpt lat="50.29714" lon="1.53581">
        <time>2023-06-10T09:44:31Z</time>
      </trkpt>
      <trkpt lat="50.2972" lon="1.53585">
        <ele>1</ele>
        <time>2023-06-10T09:44:33Z</time>
      </trkpt>
      <trkpt lat="50.29726" lon="1.53589">
        <ele>1</ele>
        <time>2023-06-10T09:44:35Z</time>
      </trkpt>
      <trkpt lat="50.29732" lon="1.53593">
        <ele>1</ele>
        <time>2023-06-10T09:44:37Z</time>
      </trkpt>
      <trkpt lat="50.29738" lon="1.53598">
        <ele>1</ele>
        <time>2023-06-10T09:44:39Z</time>
      </trkpt>
      <trkpt lat="50.29744" lon="1.53602">
        <ele>1</ele>
        <time>2023-06-10T09:44:41Z</time>
      </trkpt>
      <trkpt lat="50.2975" lon="1.53606">
        <ele>1</ele>
        <time>2023-06-10T09:44:43Z</time>
      </trkpt>
      <trkpt lat="50.29756" lon="1.53611">
        <ele>1</ele>
        <time>2023-06-10T09:44:45Z</time>
      </trkpt>
      <trkpt lat="50.29762" lon="1.53616">
        <ele>1</ele>
        <time>2023-06-10T09:44:47Z</time>
      </trkpt>
      <trkpt lat="50.29768" lon="1.5362">
        <ele>1</ele>
        <time>2023-06-10T09:44:49Z</time>
      </trkpt>
      <trkpt lat="50.29774" lon="1.53625">
        <ele>1</ele>
        <time>2023-06-10T09:44:51Z</time>
      </trkpt>
      <trkpt lat="50.2978" lon="1.53629">
        <ele>1</ele>
        <time>2023-06-10T09:44:53Z</time>
      </trkpt>
      <trkpt lat="50.29786" lon="1.53633">
        <ele>1</ele>
        <time>2023-06-10T09:44:55Z</time>
      </trkpt>
      <trkpt lat="50.29792" lon="1.53637">
        <ele>1</ele>
        <time>2023-06-10T09:44:57Z</time>
      </trkpt>
      <trkpt lat="50.29799" lon="1.5364">
        <ele>1</ele>
        <time>2023-06-10T09:44:59Z</time>
      </trkpt>
      <trkpt lat="50.29805" lon="1.53642">
        <ele>1</ele>
        <time>2023-06-10T09:45:01Z</time>
      </trkpt>
      <trkpt lat="50.29811" lon="1.53645">
        <ele>1</ele>
        <time>2023-06-10T09:45:03Z</time>
      </trkpt>
      <trkpt lat="50.29818" lon="1.53647">
        <ele>1</ele>
        <time>2023-06-10T09:45:05Z</time>
      </trkpt>
      <trkpt lat="50.29825" lon="1.5365">
        <ele>1</ele>
        <time>2023-06-10T09:45:07Z</time>
      </trkpt>
      <trkpt lat="50.29832" lon="1.53652">
        <ele>1</ele>
        <time>2023-06-10T09:45:09Z</time>
      </trkpt>
      <trkpt lat="50.29839" lon="1.53653">
        <ele>1</ele>
        <time>2023-06-10T09:45:11Z</time>
      </trkpt>
      <trkpt lat="50.29846" lon="1.53654">
        <ele>1</ele>
        <time>2023-06-10T09:45:13Z</time>
      </trkpt>
      <trkpt lat="50.29853" lon="1.53656">
        <ele>1</ele>
        <time>2023-06-10T09:45:15Z</time>
      </trkpt>
      <trkpt lat="50.2986" lon="1.53659">
        <ele>1</ele>
        <time>2023-06-10T09:45:17Z</time>
      </trkpt>
      <trkpt lat="50.29866" lon="1.53661">
        <ele>1</ele>
        <time>2023-06-10T09:45:19Z</time>
      </trkpt>
      <trkpt lat="50.2987" lon="1.53663">
        <ele>1</ele>
        <time>2023-06-10T09:45:21Z</time>
      </trkpt>
      <trkpt lat="50.29876" lon="1.53665">
        <ele>1</ele>
        <time>2023-06-10T09:45:33Z</time>
      </trkpt>
      <trkpt lat="50.29883" lon="1.53667">
        <ele>1</ele>
        <time>2023-06-10T09:45:37Z</time>
      </trkpt>
      <trkpt lat="50.29891" lon="1.53669">
        <ele>1</ele>
        <time>2023-06-10T09:45:41Z</time>
      </trkpt>
      <trkpt lat="50.29897" lon="1.53671">
        <ele>1</ele>
        <time>2023-06-10T09:45:43Z</time>
      </trkpt>
      <trkpt lat="50.29902" lon="1.53673">
        <ele>1</ele>
        <time>2023-06-10T09:45:45Z</time>
      </trkpt>
      <trkpt lat="50.29908" lon="1.53674">
        <ele>1</ele>
        <time>2023-06-10T09:45:47Z</time>
      </trkpt>
      <trkpt lat="50.29915" lon="1.53676">
        <ele>1</ele>
        <time>2023-06-10T09:45:49Z</time>
      </trkpt>
      <trkpt lat="50.29922" lon="1.53677">
        <ele>1</ele>
        <time>2023-06-10T09:45:51Z</time>
      </trkpt>
      <trkpt lat="50.29928" lon="1.53679">
        <ele>1</ele>
        <time>2023-06-10T09:45:53Z</time>
      </trkpt>
      <trkpt lat="50.29935" lon="1.53681">
        <ele>1</ele>
        <time>2023-06-10T09:45:55Z</time>
      </trkpt>
      <trkpt lat="50.29942" lon="1.53682">
        <ele>1</ele>
        <time>2023-06-10T09:45:57Z</time>
      </trkpt>
      <trkpt lat="50.29948" lon="1.53684">
        <ele>1</ele>
        <time>2023-06-10T09:45:59Z</time>
      </trkpt>
      <trkpt lat="50.29955" lon="1.53686">
        <ele>1</ele>
        <time>2023-06-10T09:46:01Z</time>
      </trkpt>
      <trkpt lat="50.29962" lon="1.53688">
        <ele>1</ele>
        <time>2023-06-10T09:46:03Z</time>
      </trkpt>
      <trkpt lat="50.29969" lon="1.5369">
        <ele>1</ele>
        <time>2023-06-10T09:46:05Z</time>
      </trkpt>
      <trkpt lat="50.29976" lon="1.53692">
        <ele>1</ele>
        <time>2023-06-10T09:46:07Z</time>
      </trkpt>
      <trkpt lat="50.29982" lon="1.53694">
        <ele>1</ele>
        <time>2023-06-10T09:46:09Z</time>
      </trkpt>
      <trkpt lat="50.29989" lon="1.53696">
        <ele>1.1</ele>
        <time>2023-06-10T09:46:11Z</time>
      </trkpt>
      <trkpt lat="50.29996" lon="1.53698">
        <ele>1.1</ele>
        <time>2023-06-10T09:46:13Z</time>
      </trkpt>
      <trkpt lat="50.30003" lon="1.537">
        <ele>1.2</ele>
        <time>2023-06-10T09:46:15Z</time>
      </trkpt>
      <trkpt lat="50.30009" lon="1.53702">
        <ele>1.3</ele>
        <time>2023-06-10T09:46:17Z</time>
      </trkpt>
      <trkpt lat="50.30016" lon="1.53704">
        <ele>1.4</ele>
        <time>2023-06-10T09:46:19Z</time>
      </trkpt>
      <trkpt lat="50.30022" lon="1.53706">
        <ele>1.4</ele>
        <time>2023-06-10T09:46:21Z</time>
      </trkpt>
      <trkpt lat="50.30029" lon="1.53708">
        <ele>1.5</ele>
        <time>2023-06-10T09:46:23Z</time>
      </trkpt>
      <trkpt lat="50.30037" lon="1.53709">
        <ele>1.4</ele>
        <time>2023-06-10T09:46:25Z</time>
      </trkpt>
      <trkpt lat="50.30044" lon="1.53712">
        <ele>1.3</ele>
        <time>2023-06-10T09:46:27Z</time>
      </trkpt>
      <trkpt lat="50.30051" lon="1.53713">
        <ele>1.1</ele>
        <time>2023-06-10T09:46:29Z</time>
      </trkpt>
      <trkpt lat="50.30058" lon="1.53714">
        <ele>1</ele>
        <time>2023-06-10T09:46:31Z</time>
      </trkpt>
      <trkpt lat="50.30065" lon="1.53715">
        <ele>1</ele>
        <time>2023-06-10T09:46:33Z</time>
      </trkpt>
      <trkpt lat="50.30071" lon="1.53716">
        <ele>1</ele>
        <time>2023-06-10T09:46:35Z</time>
      </trkpt>
      <trkpt lat="50.30077" lon="1.53717">
        <ele>1</ele>
        <time>2023-06-10T09:46:37Z</time>
      </trkpt>
      <trkpt lat="50.30083" lon="1.53718">
        <ele>1</ele>
        <time>2023-06-10T09:46:39Z</time>
      </trkpt>
      <trkpt lat="50.30089" lon="1.53718">
        <ele>1</ele>
        <time>2023-06-10T09:46:41Z</time>
      </trkpt>
      <trkpt lat="50.30096" lon="1.53718">
        <ele>1</ele>
        <time>2023-06-10T09:46:43Z</time>
      </trkpt>
      <trkpt lat="50.30103" lon="1.53718">
        <ele>1</ele>
        <time>2023-06-10T09:46:45Z</time>
      </trkpt>
      <trkpt lat="50.30109" lon="1.53719">
        <ele>1</ele>
        <time>2023-06-10T09:46:47Z</time>
      </trkpt>
      <trkpt lat="50.30115" lon="1.53719">
        <ele>1</ele>
        <time>2023-06-10T09:46:49Z</time>
      </trkpt>
      <trkpt lat="50.30122" lon="1.53719">
        <ele>1</ele>
        <time>2023-06-10T09:46:51Z</time>
      </trkpt>
      <trkpt lat="50.30128" lon="1.5372">
        <ele>1</ele>
        <time>2023-06-10T09:46:53Z</time>
      </trkpt>
      <trkpt lat="50.30135" lon="1.53722">
        <ele>1</ele>
        <time>2023-06-10T09:46:55Z</time>
      </trkpt>
      <trkpt lat="50.30142" lon="1.53722">
        <ele>1</ele>
        <time>2023-06-10T09:46:57Z</time>
      </trkpt>
      <trkpt lat="50.30149" lon="1.53722">
        <ele>1</ele>
        <time>2023-06-10T09:46:59Z</time>
      </trkpt>
      <trkpt lat="50.30156" lon="1.53722">
        <ele>1</ele>
        <time>2023-06-10T09:47:01Z</time>
      </trkpt>
      <trkpt lat="50.30163" lon="1.53722">
        <ele>1</ele>
        <time>2023-06-10T09:47:03Z</time>
      </trkpt>
      <trkpt lat="50.3017" lon="1.53723">
        <ele>1</ele>
        <time>2023-06-10T09:47:05Z</time>
      </trkpt>
      <trkpt lat="50.30177" lon="1.53724">
        <ele>1</ele>
        <time>2023-06-10T09:47:07Z</time>
      </trkpt>
      <trkpt lat="50.30184" lon="1.53724">
        <ele>1</ele>
        <time>2023-06-10T09:47:09Z</time>
      </trkpt>
      <trkpt lat="50.30192" lon="1.53726">
        <ele>1</ele>
        <time>2023-06-10T09:47:11Z</time>
      </trkpt>
      <trkpt lat="50.30199" lon="1.53726">
        <ele>1</ele>
        <time>2023-06-10T09:47:13Z</time>
      </trkpt>
      <trkpt lat="50.30206" lon="1.53726">
        <ele>1</ele>
        <time>2023-06-10T09:47:15Z</time>
      </trkpt>
      <trkpt lat="50.30213" lon="1.53727">
        <ele>1</ele>
        <time>2023-06-10T09:47:17Z</time>
      </trkpt>
      <trkpt lat="50.3022" lon="1.53728">
        <ele>1</ele>
        <time>2023-06-10T09:47:19Z</time>
      </trkpt>
      <trkpt lat="50.30227" lon="1.53729">
        <ele>1</ele>
        <time>2023-06-10T09:47:21Z</time>
      </trkpt>
      <trkpt lat="50.30234" lon="1.5373">
        <ele>1</ele>
        <time>2023-06-10T09:47:23Z</time>
      </trkpt>
      <trkpt lat="50.30241" lon="1.5373">
        <ele>1</ele>
        <time>2023-06-10T09:47:25Z</time>
      </trkpt>
      <trkpt lat="50.30248" lon="1.53731">
        <ele>1</ele>
        <time>2023-06-10T09:47:27Z</time>
      </trkpt>
      <trkpt lat="50.30255" lon="1.53732">
        <ele>1</ele>
        <time>2023-06-10T09:47:29Z</time>
      </trkpt>
      <trkpt lat="50.30262" lon="1.53733">
        <ele>1</ele>
        <time>2023-06-10T09:47:31Z</time>
      </trkpt>
      <trkpt lat="50.30269" lon="1.53734">
        <ele>1</ele>
        <time>2023-06-10T09:47:33Z</time>
      </trkpt>
      <trkpt lat="50.30276" lon="1.53735">
        <ele>1</ele>
        <time>2023-06-10T09:47:35Z</time>
      </trkpt>
      <trkpt lat="50.30282" lon="1.53736">
        <ele>1</ele>
        <time>2023-06-10T09:47:37Z</time>
      </trkpt>
      <trkpt lat="50.30289" lon="1.53738">
        <ele>1</ele>
        <time>2023-06-10T09:47:39Z</time>
      </trkpt>
      <trkpt lat="50.30295" lon="1.53739">
        <ele>1</ele>
        <time>2023-06-10T09:47:41Z</time>
      </trkpt>
      <trkpt lat="50.30302" lon="1.5374">
        <ele>1</ele>
        <time>2023-06-10T09:47:43Z</time>
      </trkpt>
      <trkpt lat="50.30308" lon="1.53741">
        <ele>1</ele>
        <time>2023-06-10T09:47:45Z</time>
      </trkpt>
      <trkpt lat="50.30314" lon="1.53742">
        <ele>1</ele>
        <time>2023-06-10T09:47:47Z</time>
      </trkpt>
      <trkpt lat="50.30321" lon="1.53742">
        <ele>1</ele>
        <time>2023-06-10T09:47:49Z</time>
      </trkpt>
      <trkpt lat="50.30327" lon="1.53742">
        <ele>1</ele>
        <time>2023-06-10T09:47:51Z</time>
      </trkpt>
      <trkpt lat="50.30333" lon="1.53743">
        <ele>1</ele>
        <time>2023-06-10T09:47:53Z</time>
      </trkpt>
      <trkpt lat="50.30339" lon="1.53744">
        <ele>1</ele>
        <time>2023-06-10T09:47:55Z</time>
      </trkpt>
      <trkpt lat="50.30346" lon="1.53744">
        <ele>1</ele>
        <time>2023-06-10T09:47:57Z</time>
      </trkpt>
      <trkpt lat="50.30352" lon="1.53745">
        <ele>1</ele>
        <time>2023-06-10T09:47:59Z</time>
      </trkpt>
      <trkpt lat="50.30358" lon="1.53745">
        <ele>1</ele>
        <time>2023-06-10T09:48:01Z</time>
      </trkpt>
      <trkpt lat="50.30365" lon="1.53745">
        <ele>1</ele>
        <time>2023-06-10T09:48:03Z</time>
      </trkpt>
      <trkpt lat="50.30371" lon="1.53746">
        <ele>1</ele>
        <time>2023-06-10T09:48:05Z</time>
      </trkpt>
      <trkpt lat="50.30378" lon="1.53747">
        <ele>1</ele>
        <time>2023-06-10T09:48:07Z</time>
      </trkpt>
      <trkpt lat="50.30385" lon="1.53748">
        <ele>1</ele>
        <time>2023-06-10T09:48:09Z</time>
      </trkpt>
      <trkpt lat="50.30392" lon="1.53749">
        <time>2023-06-10T09:48:11Z</time>
      </trkpt>
      <trkpt lat="50.30399" lon="1.53749">
        <time>2023-06-10T09:48:13Z</time>
      </trkpt>
      <trkpt lat="50.30405" lon="1.5375">
        <ele>1</ele>
        <time>2023-06-10T09:48:15Z</time>
      </trkpt>
      <trkpt lat="50.30412" lon="1.53751">
        <ele>1</ele>
        <time>2023-06-10T09:48:17Z</time>
      </trkpt>
      <trkpt lat="50.30419" lon="1.53752">
        <ele>1</ele>
        <time>2023-06-10T09:48:19Z</time>
      </trkpt>
      <trkpt lat="50.30426" lon="1.53754">
        <ele>1</ele>
        <time>2023-06-10T09:48:21Z</time>
      </trkpt>
      <trkpt lat="50.30432" lon="1.53754">
        <ele>1</ele>
        <time>2023-06-10T09:48:23Z</time>
      </trkpt>
      <trkpt lat="50.30438" lon="1.53755">
        <ele>1</ele>
        <time>2023-06-10T09:48:25Z</time>
      </trkpt>
      <trkpt lat="50.30444" lon="1.53756">
        <ele>1</ele>
        <time>2023-06-10T09:48:27Z</time>
      </trkpt>
      <trkpt lat="50.3045" lon="1.53756">
        <ele>1</ele>
        <time>2023-06-10T09:48:29Z</time>
      </trkpt>
      <trkpt lat="50.30456" lon="1.53756">
        <ele>1</ele>
        <time>2023-06-10T09:48:31Z</time>
      </trkpt>
      <trkpt lat="50.30462" lon="1.53756">
        <ele>1</ele>
        <time>2023-06-10T09:48:33Z</time>
      </trkpt>
      <trkpt lat="50.30468" lon="1.53757">
        <ele>1</ele>
        <time>2023-06-10T09:48:35Z</time>
      </trkpt>
      <trkpt lat="50.30475" lon="1.53759">
        <ele>1</ele>
        <time>2023-06-10T09:48:37Z</time>
      </trkpt>
      <trkpt lat="50.30481" lon="1.5376">
        <ele>1</ele>
        <time>2023-06-10T09:48:39Z</time>
      </trkpt>
      <trkpt lat="50.30488" lon="1.53761">
        <ele>1</ele>
        <time>2023-06-10T09:48:41Z</time>
      </trkpt>
      <trkpt lat="50.30495" lon="1.53762">
        <ele>1</ele>
        <time>2023-06-10T09:48:43Z</time>
      </trkpt>
      <trkpt lat="50.30501" lon="1.53763">
        <ele>1</ele>
        <time>2023-06-10T09:48:45Z</time>
      </trkpt>
      <trkpt lat="50.30508" lon="1.53763">
        <ele>1</ele>
        <time>2023-06-10T09:48:47Z</time>
      </trkpt>
      <trkpt lat="50.30515" lon="1.53764">
        <ele>1</ele>
        <time>2023-06-10T09:48:49Z</time>
      </trkpt>
      <trkpt lat="50.30521" lon="1.53765">
        <ele>1</ele>
        <time>2023-06-10T09:48:51Z</time>
      </trkpt>
      <trkpt lat="50.30527" lon="1.53765">
        <ele>1</ele>
        <time>2023-06-10T09:48:53Z</time>
      </trkpt>
      <trkpt lat="50.30531" lon="1.53763">
        <ele>1</ele>
        <time>2023-06-10T09:48:55Z</time>
      </trkpt>
      <trkpt lat="50.3054" lon="1.53757">
        <ele>1</ele>
        <time>2023-06-10T09:48:59Z</time>
      </trkpt>
      <trkpt lat="50.30545" lon="1.53754">
        <ele>1</ele>
        <time>2023-06-10T09:49:01Z</time>
      </trkpt>
      <trkpt lat="50.3055" lon="1.53751">
        <ele>1</ele>
        <time>2023-06-10T09:49:03Z</time>
      </trkpt>
      <trkpt lat="50.30556" lon="1.53748">
        <time>2023-06-10T09:49:05Z</time>
      </trkpt>
      <trkpt lat="50.30564" lon="1.53747">
        <time>2023-06-10T09:49:07Z</time>
      </trkpt>
      <trkpt lat="50.30572" lon="1.53748">
        <time>2023-06-10T09:49:09Z</time>
      </trkpt>
      <trkpt lat="50.30581" lon="1.5375">
        <ele>1</ele>
        <time>2023-06-10T09:49:11Z</time>
      </trkpt>
      <trkpt lat="50.30589" lon="1.53751">
        <time>2023-06-10T09:49:13Z</time>
      </trkpt>
      <trkpt lat="50.30597" lon="1.53752">
        <time>2023-06-10T09:49:15Z</time>
      </trkpt>
      <trkpt lat="50.30605" lon="1.53754">
        <time>2023-06-10T09:49:17Z</time>
      </trkpt>
      <trkpt lat="50.30613" lon="1.53756">
        <time>2023-06-10T09:49:19Z</time>
      </trkpt>
      <trkpt lat="50.30621" lon="1.53757">
        <time>2023-06-10T09:49:21Z</time>
      </trkpt>
      <trkpt lat="50.30629" lon="1.53759">
        <time>2023-06-10T09:49:23Z</time>
      </trkpt>
      <trkpt lat="50.30637" lon="1.53761">
        <time>2023-06-10T09:49:25Z</time>
      </trkpt>
      <trkpt lat="50.30645" lon="1.53764">
        <time>2023-06-10T09:49:27Z</time>
      </trkpt>
      <trkpt lat="50.30653" lon="1.53766">
        <time>2023-06-10T09:49:29Z</time>
      </trkpt>
      <trkpt lat="50.30661" lon="1.53768">
        <time>2023-06-10T09:49:31Z</time>
      </trkpt>
      <trkpt lat="50.30668" lon="1.5377">
        <time>2023-06-10T09:49:33Z</time>
      </trkpt>
      <trkpt lat="50.30675" lon="1.53772">
        <time>2023-06-10T09:49:35Z</time>
      </trkpt>
      <trkpt lat="50.30683" lon="1.53774">
        <time>2023-06-10T09:49:37Z</time>
      </trkpt>
      <trkpt lat="50.3069" lon="1.53777">
        <time>2023-06-10T09:49:39Z</time>
      </trkpt>
      <trkpt lat="50.30699" lon="1.53779">
        <ele>1</ele>
        <time>2023-06-10T09:49:41Z</time>
      </trkpt>
      <trkpt lat="50.30707" lon="1.53781">
        <ele>1</ele>
        <time>2023-06-10T09:49:43Z</time>
      </trkpt>
      <trkpt lat="50.30715" lon="1.53784">
        <ele>1</ele>
        <time>2023-06-10T09:49:45Z</time>
      </trkpt>
      <trkpt lat="50.30723" lon="1.53785">
        <ele>1</ele>
        <time>2023-06-10T09:49:47Z</time>
      </trkpt>
      <trkpt lat="50.3073" lon="1.53787">
        <ele>1</ele>
        <time>2023-06-10T09:49:49Z</time>
      </trkpt>
      <trkpt lat="50.30738" lon="1.5379">
        <ele>1</ele>
        <time>2023-06-10T09:49:51Z</time>
      </trkpt>
      <trkpt lat="50.30745" lon="1.53791">
        <ele>1</ele>
        <time>2023-06-10T09:49:53Z</time>
      </trkpt>
      <trkpt lat="50.30753" lon="1.53793">
        <time>2023-06-10T09:49:55Z</time>
      </trkpt>
      <trkpt lat="50.3076" lon="1.53794">
        <time>2023-06-10T09:49:57Z</time>
      </trkpt>
      <trkpt lat="50.30768" lon="1.53795">
        <time>2023-06-10T09:49:59Z</time>
      </trkpt>
      <trkpt lat="50.30776" lon="1.53797">
        <time>2023-06-10T09:50:01Z</time>
      </trkpt>
      <trkpt lat="50.30784" lon="1.53798">
        <time>2023-06-10T09:50:03Z</time>
      </trkpt>
      <trkpt lat="50.30792" lon="1.538">
        <time>2023-06-10T09:50:05Z</time>
      </trkpt>
      <trkpt lat="50.308" lon="1.53801">
        <time>2023-06-10T09:50:07Z</time>
      </trkpt>
      <trkpt lat="50.30808" lon="1.53802">
        <time>2023-06-10T09:50:09Z</time>
      </trkpt>
      <trkpt lat="50.30816" lon="1.53802">
        <time>2023-06-10T09:50:11Z</time>
      </trkpt>
      <trkpt lat="50.30824" lon="1.53803">
        <time>2023-06-10T09:50:13Z</time>
      </trkpt>
      <trkpt lat="50.30831" lon="1.53804">
        <time>2023-06-10T09:50:15Z</time>
      </trkpt>
      <trkpt lat="50.30839" lon="1.53805">
        <time>2023-06-10T09:50:17Z</time>
      </trkpt>
      <trkpt lat="50.30847" lon="1.53806">
        <ele>1</ele>
        <time>2023-06-10T09:50:19Z</time>
      </trkpt>
      <trkpt lat="50.30855" lon="1.53806">
        <ele>1</ele>
        <time>2023-06-10T09:50:21Z</time>
      </trkpt>
      <trkpt lat="50.30863" lon="1.53808">
        <ele>1</ele>
        <time>2023-06-10T09:50:23Z</time>
      </trkpt>
      <trkpt lat="50.30871" lon="1.53809">
        <ele>1</ele>
        <time>2023-06-10T09:50:25Z</time>
      </trkpt>
      <trkpt lat="50.30879" lon="1.53811">
        <ele>1</ele>
        <time>2023-06-10T09:50:27Z</time>
      </trkpt>
      <trkpt lat="50.30887" lon="1.53814">
        <ele>1</ele>
        <time>2023-06-10T09:50:29Z</time>
      </trkpt>
      <trkpt lat="50.30894" lon="1.53816">
        <ele>1</ele>
        <time>2023-06-10T09:50:31Z</time>
      </trkpt>
      <trkpt lat="50.30902" lon="1.53819">
        <ele>1</ele>
        <time>2023-06-10T09:50:33Z</time>
      </trkpt>
      <trkpt lat="50.3091" lon="1.53822">
        <ele>1</ele>
        <time>2023-06-10T09:50:35Z</time>
      </trkpt>
      <trkpt lat="50.30917" lon="1.53825">
        <ele>1</ele>
        <time>2023-06-10T09:50:37Z</time>
      </trkpt>
      <trkpt lat="50.30925" lon="1.53828">
        <ele>1</ele>
        <time>2023-06-10T09:50:39Z</time>
      </trkpt>
      <trkpt lat="50.30932" lon="1.5383">
        <ele>1</ele>
        <time>2023-06-10T09:50:41Z</time>
      </trkpt>
      <trkpt lat="50.3094" lon="1.53833">
        <ele>1</ele>
        <time>2023-06-10T09:50:43Z</time>
      </trkpt>
      <trkpt lat="50.30947" lon="1.53834">
        <ele>1</ele>
        <time>2023-06-10T09:50:45Z</time>
      </trkpt>
      <trkpt lat="50.30954" lon="1.53835">
        <ele>1</ele>
        <time>2023-06-10T09:50:47Z</time>
      </trkpt>
      <trkpt lat="50.30961" lon="1.53837">
        <ele>1</ele>
        <time>2023-06-10T09:50:49Z</time>
      </trkpt>
      <trkpt lat="50.30968" lon="1.53838">
        <ele>1</ele>
        <time>2023-06-10T09:50:51Z</time>
      </trkpt>
      <trkpt lat="50.30975" lon="1.53841">
        <ele>1</ele>
        <time>2023-06-10T09:50:53Z</time>
      </trkpt>
      <trkpt lat="50.30982" lon="1.53843">
        <ele>1</ele>
        <time>2023-06-10T09:50:55Z</time>
      </trkpt>
      <trkpt lat="50.30989" lon="1.53845">
        <ele>1</ele>
        <time>2023-06-10T09:50:57Z</time>
      </trkpt>
      <trkpt lat="50.30995" lon="1.53847">
        <ele>1</ele>
        <time>2023-06-10T09:50:59Z</time>
      </trkpt>
      <trkpt lat="50.31002" lon="1.53848">
        <ele>1</ele>
        <time>2023-06-10T09:51:01Z</time>
      </trkpt>
      <trkpt lat="50.31009" lon="1.5385">
        <ele>1</ele>
        <time>2023-06-10T09:51:03Z</time>
      </trkpt>
      <trkpt lat="50.31016" lon="1.53852">
        <ele>1</ele>
        <time>2023-06-10T09:51:05Z</time>
      </trkpt>
      <trkpt lat="50.31023" lon="1.53855">
        <ele>1</ele>
        <time>2023-06-10T09:51:07Z</time>
      </trkpt>
      <trkpt lat="50.3103" lon="1.53858">
        <ele>1</ele>
        <time>2023-06-10T09:51:09Z</time>
      </trkpt>
      <trkpt lat="50.31036" lon="1.5386">
        <ele>1</ele>
        <time>2023-06-10T09:51:11Z</time>
      </trkpt>
      <trkpt lat="50.31044" lon="1.53862">
        <ele>1</ele>
        <time>2023-06-10T09:51:13Z</time>
      </trkpt>
      <trkpt lat="50.31051" lon="1.53865">
        <ele>1</ele>
        <time>2023-06-10T09:51:15Z</time>
      </trkpt>
      <trkpt lat="50.31058" lon="1.53867">
        <ele>1</ele>
        <time>2023-06-10T09:51:17Z</time>
      </trkpt>
      <trkpt lat="50.31065" lon="1.53869">
        <ele>1</ele>
        <time>2023-06-10T09:51:19Z</time>
      </trkpt>
      <trkpt lat="50.31073" lon="1.53871">
        <ele>1</ele>
        <time>2023-06-10T09:51:21Z</time>
      </trkpt>
      <trkpt lat="50.3108" lon="1.53873">
        <ele>1</ele>
        <time>2023-06-10T09:51:23Z</time>
      </trkpt>
      <trkpt lat="50.31087" lon="1.53876">
        <ele>1</ele>
        <time>2023-06-10T09:51:25Z</time>
      </trkpt>
      <trkpt lat="50.31094" lon="1.53879">
        <ele>1</ele>
        <time>2023-06-10T09:51:27Z</time>
      </trkpt>
      <trkpt lat="50.31101" lon="1.53881">
        <ele>1</ele>
        <time>2023-06-10T09:51:29Z</time>
      </trkpt>
      <trkpt lat="50.31108" lon="1.53884">
        <ele>1</ele>
        <time>2023-06-10T09:51:31Z</time>
      </trkpt>
      <trkpt lat="50.31115" lon="1.53886">
        <ele>1</ele>
        <time>2023-06-10T09:51:33Z</time>
      </trkpt>
      <trkpt lat="50.31123" lon="1.53889">
        <ele>1</ele>
        <time>2023-06-10T09:51:35Z</time>
      </trkpt>
      <trkpt lat="50.3113" lon="1.53892">
        <ele>1</ele>
        <time>2023-06-10T09:51:37Z</time>
      </trkpt>
      <trkpt lat="50.31137" lon="1.53895">
        <ele>1</ele>
        <time>2023-06-10T09:51:39Z</time>
      </trkpt>
      <trkpt lat="50.31144" lon="1.53899">
        <ele>1</ele>
        <time>2023-06-10T09:51:41Z</time>
      </trkpt>
      <trkpt lat="50.3115" lon="1.53903">
        <ele>1</ele>
        <time>2023-06-10T09:51:43Z</time>
      </trkpt>
      <trkpt lat="50.31157" lon="1.53907">
        <ele>1</ele>
        <time>2023-06-10T09:51:45Z</time>
      </trkpt>
      <trkpt lat="50.31164" lon="1.5391">
        <ele>1</ele>
        <time>2023-06-10T09:51:47Z</time>
      </trkpt>
      <trkpt lat="50.3117" lon="1.53913">
        <ele>1</ele>
        <time>2023-06-10T09:51:49Z</time>
      </trkpt>
      <trkpt lat="50.31176" lon="1.53916">
        <ele>1</ele>
        <time>2023-06-10T09:51:51Z</time>
      </trkpt>
      <trkpt lat="50.31182" lon="1.53919">
        <ele>1</ele>
        <time>2023-06-10T09:51:53Z</time>
      </trkpt>
      <trkpt lat="50.31189" lon="1.53923">
        <ele>1</ele>
        <time>2023-06-10T09:51:55Z</time>
      </trkpt>
      <trkpt lat="50.31195" lon="1.53927">
        <ele>1</ele>
        <time>2023-06-10T09:51:57Z</time>
      </trkpt>
      <trkpt lat="50.31201" lon="1.5393">
        <ele>1</ele>
        <time>2023-06-10T09:51:59Z</time>
      </trkpt>
      <trkpt lat="50.31206" lon="1.53934">
        <ele>1</ele>
        <time>2023-06-10T09:52:01Z</time>
      </trkpt>
      <trkpt lat="50.31211" lon="1.53935">
        <ele>1</ele>
        <time>2023-06-10T09:52:03Z</time>
      </trkpt>
      <trkpt lat="50.31218" lon="1.53931">
        <ele>1</ele>
        <time>2023-06-10T09:52:07Z</time>
      </trkpt>
      <trkpt lat="50.31225" lon="1.53924">
        <ele>1</ele>
        <time>2023-06-10T09:52:11Z</time>
      </trkpt>
      <trkpt lat="50.31234" lon="1.53923">
        <ele>1</ele>
        <time>2023-06-10T09:52:15Z</time>
      </trkpt>
      <trkpt lat="50.3124" lon="1.53921">
        <ele>1</ele>
        <time>2023-06-10T09:52:17Z</time>
      </trkpt>
      <trkpt lat="50.31247" lon="1.5392">
        <ele>1</ele>
        <time>2023-06-10T09:52:19Z</time>
      </trkpt>
      <trkpt lat="50.31253" lon="1.53919">
        <ele>1</ele>
        <time>2023-06-10T09:52:21Z</time>
      </trkpt>
      <trkpt lat="50.31259" lon="1.53916">
        <ele>1</ele>
        <time>2023-06-10T09:52:23Z</time>
      </trkpt>
      <trkpt lat="50.31264" lon="1.53916">
        <ele>1</ele>
        <time>2023-06-10T09:52:25Z</time>
      </trkpt>
      <trkpt lat="50.31269" lon="1.53915">
        <ele>1</ele>
        <time>2023-06-10T09:52:27Z</time>
      </trkpt>
      <trkpt lat="50.31274" lon="1.53914">
        <ele>1</ele>
        <time>2023-06-10T09:52:29Z</time>
      </trkpt>
      <trkpt lat="50.3128" lon="1.53913">
        <ele>1</ele>
        <time>2023-06-10T09:52:31Z</time>
      </trkpt>
      <trkpt lat="50.31287" lon="1.53911">
        <ele>1</ele>
        <time>2023-06-10T09:52:33Z</time>
      </trkpt>
      <trkpt lat="50.31294" lon="1.5391">
        <ele>1</ele>
        <time>2023-06-10T09:52:35Z</time>
      </trkpt>
      <trkpt lat="50.31303" lon="1.53912">
        <ele>1</ele>
        <time>2023-06-10T09:52:37Z</time>
      </trkpt>
      <trkpt lat="50.31311" lon="1.53914">
        <ele>1</ele>
        <time>2023-06-10T09:52:39Z</time>
      </trkpt>
      <trkpt lat="50.31319" lon="1.53916">
        <ele>1</ele>
        <time>2023-06-10T09:52:41Z</time>
      </trkpt>
      <trkpt lat="50.31327" lon="1.53917">
        <ele>1</ele>
        <time>2023-06-10T09:52:43Z</time>
      </trkpt>
      <trkpt lat="50.31335" lon="1.53919">
        <ele>1</ele>
        <time>2023-06-10T09:52:45Z</time>
      </trkpt>
      <trkpt lat="50.31343" lon="1.53922">
        <ele>1</ele>
        <time>2023-06-10T09:52:47Z</time>
      </trkpt>
      <trkpt lat="50.31351" lon="1.53924">
        <ele>1</ele>
        <time>2023-06-10T09:52:49Z</time>
      </trkpt>
      <trkpt lat="50.31359" lon="1.53926">
        <ele>1</ele>
        <time>2023-06-10T09:52:51Z</time>
      </trkpt>
      <trkpt lat="50.31366" lon="1.53929">
        <ele>1</ele>
        <time>2023-06-10T09:52:53Z</time>
      </trkpt>
      <trkpt lat="50.31373" lon="1.53931">
        <ele>1</ele>
        <time>2023-06-10T09:52:55Z</time>
      </trkpt>
      <trkpt lat="50.3138" lon="1.53934">
        <ele>1</ele>
        <time>2023-06-10T09:52:57Z</time>
      </trkpt>
      <trkpt lat="50.31387" lon="1.53938">
        <ele>1</ele>
        <time>2023-06-10T09:52:59Z</time>
      </trkpt>
      <trkpt lat="50.31395" lon="1.53942">
        <ele>1</ele>
        <time>2023-06-10T09:53:01Z</time>
      </trkpt>
      <trkpt lat="50.31402" lon="1.53945">
        <ele>1</ele>
        <time>2023-06-10T09:53:03Z</time>
      </trkpt>
      <trkpt lat="50.3141" lon="1.53949">
        <ele>1</ele>
        <time>2023-06-10T09:53:05Z</time>
      </trkpt>
      <trkpt lat="50.31417" lon="1.53952">
        <ele>1</ele>
        <time>2023-06-10T09:53:07Z</time>
      </trkpt>
      <trkpt lat="50.31423" lon="1.53955">
        <ele>1</ele>
        <time>2023-06-10T09:53:09Z</time>
      </trkpt>
      <trkpt lat="50.3143" lon="1.53958">
        <ele>1</ele>
        <time>2023-06-10T09:53:11Z</time>
      </trkpt>
      <trkpt lat="50.31437" lon="1.53961">
        <ele>1</ele>
        <time>2023-06-10T09:53:13Z</time>
      </trkpt>
      <trkpt lat="50.31444" lon="1.53964">
        <ele>1</ele>
        <time>2023-06-10T09:53:15Z</time>
      </trkpt>
      <trkpt lat="50.31451" lon="1.53966">
        <ele>1</ele>
        <time>2023-06-10T09:53:17Z</time>
      </trkpt>
      <trkpt lat="50.31458" lon="1.53967">
        <ele>1</ele>
        <time>2023-06-10T09:53:19Z</time>
      </trkpt>
      <trkpt lat="50.31465" lon="1.53966">
        <ele>1</ele>
        <time>2023-06-10T09:53:21Z</time>
      </trkpt>
      <trkpt lat="50.31473" lon="1.53966">
        <ele>1</ele>
        <time>2023-06-10T09:53:23Z</time>
      </trkpt>
      <trkpt lat="50.31479" lon="1.53967">
        <ele>1</ele>
        <time>2023-06-10T09:53:25Z</time>
      </trkpt>
      <trkpt lat="50.31485" lon="1.53968">
        <ele>1</ele>
        <time>2023-06-10T09:53:27Z</time>
      </trkpt>
      <trkpt lat="50.31492" lon="1.53969">
        <ele>1</ele>
        <time>2023-06-10T09:53:29Z</time>
      </trkpt>
      <trkpt lat="50.31498" lon="1.53971">
        <ele>1</ele>
        <time>2023-06-10T09:53:31Z</time>
      </trkpt>
      <trkpt lat="50.31503" lon="1.53975">
        <ele>1</ele>
        <time>2023-06-10T09:53:33Z</time>
      </trkpt>
      <trkpt lat="50.31509" lon="1.53978">
        <ele>1</ele>
        <time>2023-06-10T09:53:35Z</time>
      </trkpt>
      <trkpt lat="50.31515" lon="1.53982">
        <ele>1</ele>
        <time>2023-06-10T09:53:37Z</time>
      </trkpt>
      <trkpt lat="50.31521" lon="1.53984">
        <ele>1</ele>
        <time>2023-06-10T09:53:39Z</time>
      </trkpt>
      <trkpt lat="50.31526" lon="1.53985">
        <ele>1</ele>
        <time>2023-06-10T09:53:41Z</time>
      </trkpt>
      <trkpt lat="50.31534" lon="1.5398">
        <ele>1</ele>
        <time>2023-06-10T09:53:45Z</time>
      </trkpt>
      <trkpt lat="50.3154" lon="1.53976">
        <ele>1</ele>
        <time>2023-06-10T09:53:47Z</time>
      </trkpt>
      <trkpt lat="50.31546" lon="1.53974">
        <ele>1</ele>
        <time>2023-06-10T09:53:49Z</time>
      </trkpt>
      <trkpt lat="50.31553" lon="1.53974">
        <ele>1</ele>
        <time>2023-06-10T09:53:51Z</time>
      </trkpt>
      <trkpt lat="50.3156" lon="1.53975">
        <ele>1</ele>
        <time>2023-06-10T09:53:53Z</time>
      </trkpt>
      <trkpt lat="50.31568" lon="1.53976">
        <ele>1</ele>
        <time>2023-06-10T09:53:55Z</time>
      </trkpt>
      <trkpt lat="50.31575" lon="1.53977">
        <ele>1</ele>
        <time>2023-06-10T09:53:57Z</time>
      </trkpt>
      <trkpt lat="50.31582" lon="1.53979">
        <ele>1</ele>
        <time>2023-06-10T09:53:59Z</time>
      </trkpt>
      <trkpt lat="50.31589" lon="1.53982">
        <ele>1</ele>
        <time>2023-06-10T09:54:01Z</time>
      </trkpt>
      <trkpt lat="50.31597" lon="1.53985">
        <ele>1</ele>
        <time>2023-06-10T09:54:03Z</time>
      </trkpt>
      <trkpt lat="50.31605" lon="1.53989">
        <ele>1</ele>
        <time>2023-06-10T09:54:05Z</time>
      </trkpt>
      <trkpt lat="50.31613" lon="1.53991">
        <ele>1</ele>
        <time>2023-06-10T09:54:07Z</time>
      </trkpt>
      <trkpt lat="50.31622" lon="1.53994">
        <ele>1</ele>
        <time>2023-06-10T09:54:09Z</time>
      </trkpt>
      <trkpt lat="50.31631" lon="1.53996">
        <ele>1</ele>
        <time>2023-06-10T09:54:11Z</time>
      </trkpt>
      <trkpt lat="50.31639" lon="1.53997">
        <ele>1</ele>
        <time>2023-06-10T09:54:13Z</time>
      </trkpt>
      <trkpt lat="50.31648" lon="1.53998">
        <ele>1</ele>
        <time>2023-06-10T09:54:15Z</time>
      </trkpt>
      <trkpt lat="50.31655" lon="1.54">
        <ele>1</ele>
        <time>2023-06-10T09:54:17Z</time>
      </trkpt>
      <trkpt lat="50.31661" lon="1.54002">
        <ele>1</ele>
        <time>2023-06-10T09:54:19Z</time>
      </trkpt>
      <trkpt lat="50.31669" lon="1.54005">
        <ele>1</ele>
        <time>2023-06-10T09:54:21Z</time>
      </trkpt>
      <trkpt lat="50.31676" lon="1.54008">
        <ele>1</ele>
        <time>2023-06-10T09:54:23Z</time>
      </trkpt>
      <trkpt lat="50.31683" lon="1.5401">
        <ele>1</ele>
        <time>2023-06-10T09:54:25Z</time>
      </trkpt>
      <trkpt lat="50.31691" lon="1.54011">
        <ele>1</ele>
        <time>2023-06-10T09:54:27Z</time>
      </trkpt>
      <trkpt lat="50.31697" lon="1.54013">
        <ele>1</ele>
        <time>2023-06-10T09:54:29Z</time>
      </trkpt>
      <trkpt lat="50.31704" lon="1.54015">
        <ele>1</ele>
        <time>2023-06-10T09:54:31Z</time>
      </trkpt>
      <trkpt lat="50.31711" lon="1.54017">
        <ele>1</ele>
        <time>2023-06-10T09:54:33Z</time>
      </trkpt>
      <trkpt lat="50.31718" lon="1.54019">
        <ele>1</ele>
        <time>2023-06-10T09:54:35Z</time>
      </trkpt>
      <trkpt lat="50.31726" lon="1.54021">
        <ele>1</ele>
        <time>2023-06-10T09:54:37Z</time>
      </trkpt>
      <trkpt lat="50.31732" lon="1.54024">
        <ele>1</ele>
        <time>2023-06-10T09:54:39Z</time>
      </trkpt>
      <trkpt lat="50.31737" lon="1.54026">
        <ele>1</ele>
        <time>2023-06-10T09:54:41Z</time>
      </trkpt>
      <trkpt lat="50.31742" lon="1.54027">
        <ele>1</ele>
        <time>2023-06-10T09:54:43Z</time>
      </trkpt>
      <trkpt lat="50.31748" lon="1.54028">
        <ele>1</ele>
        <time>2023-06-10T09:54:45Z</time>
      </trkpt>
      <trkpt lat="50.31753" lon="1.5403">
        <ele>1</ele>
        <time>2023-06-10T09:54:47Z</time>
      </trkpt>
      <trkpt lat="50.31759" lon="1.54032">
        <ele>1</ele>
        <time>2023-06-10T09:54:49Z</time>
      </trkpt>
      <trkpt lat="50.31765" lon="1.54034">
        <ele>1</ele>
        <time>2023-06-10T09:54:51Z</time>
      </trkpt>
      <trkpt lat="50.3177" lon="1.54036">
        <ele>1</ele>
        <time>2023-06-10T09:54:53Z</time>
      </trkpt>
      <trkpt lat="50.31775" lon="1.54038">
        <ele>1</ele>
        <time>2023-06-10T09:54:55Z</time>
      </trkpt>
      <trkpt lat="50.31783" lon="1.54042">
        <ele>1</ele>
        <time>2023-06-10T09:54:59Z</time>
      </trkpt>
      <trkpt lat="50.31792" lon="1.54046">
        <ele>1</ele>
        <time>2023-06-10T09:55:03Z</time>
      </trkpt>
      <trkpt lat="50.318" lon="1.54048">
        <ele>1</ele>
        <time>2023-06-10T09:55:07Z</time>
      </trkpt>
      <trkpt lat="50.31804" lon="1.5405">
        <ele>1</ele>
        <time>2023-06-10T09:55:13Z</time>
      </trkpt>
      <trkpt lat="50.31808" lon="1.54054">
        <ele>1</ele>
        <time>2023-06-10T10:01:47Z</time>
      </trkpt>
      <trkpt lat="50.31814" lon="1.5406">
        <ele>1</ele>
        <time>2023-06-10T10:01:51Z</time>
      </trkpt>
      <trkpt lat="50.31819" lon="1.54069">
        <ele>1</ele>
        <time>2023-06-10T10:01:55Z</time>
      </trkpt>
      <trkpt lat="50.31823" lon="1.5408">
        <ele>1</ele>
        <time>2023-06-10T10:01:59Z</time>
      </trkpt>
      <trkpt lat="50.31829" lon="1.5409">
        <ele>1</ele>
        <time>2023-06-10T10:02:03Z</time>
      </trkpt>
      <trkpt lat="50.31832" lon="1.54096">
        <ele>1</ele>
        <time>2023-06-10T10:02:05Z</time>
      </trkpt>
      <trkpt lat="50.31838" lon="1.54105">
        <ele>1</ele>
        <time>2023-06-10T10:02:09Z</time>
      </trkpt>
      <trkpt lat="50.31844" lon="1.54115">
        <ele>1</ele>
        <time>2023-06-10T10:02:13Z</time>
      </trkpt>
      <trkpt lat="50.31851" lon="1.54122">
        <ele>1</ele>
        <time>2023-06-10T10:02:17Z</time>
      </trkpt>
      <trkpt lat="50.31857" lon="1.54129">
        <ele>1</ele>
        <time>2023-06-10T10:02:21Z</time>
      </trkpt>
      <trkpt lat="50.31865" lon="1.54133">
        <ele>1</ele>
        <time>2023-06-10T10:02:25Z</time>
      </trkpt>
      <trkpt lat="50.3187" lon="1.54135">
        <ele>1</ele>
        <time>2023-06-10T10:02:27Z</time>
      </trkpt>
      <trkpt lat="50.31875" lon="1.54138">
        <ele>1</ele>
        <time>2023-06-10T10:02:29Z</time>
      </trkpt>
      <trkpt lat="50.31881" lon="1.5414">
        <ele>1</ele>
        <time>2023-06-10T10:02:31Z</time>
      </trkpt>
      <trkpt lat="50.31887" lon="1.54141">
        <ele>1</ele>
        <time>2023-06-10T10:02:33Z</time>
      </trkpt>
      <trkpt lat="50.31892" lon="1.54143">
        <ele>1</ele>
        <time>2023-06-10T10:02:35Z</time>
      </trkpt>
      <trkpt lat="50.31898" lon="1.54145">
        <ele>1</ele>
        <time>2023-06-10T10:02:37Z</time>
      </trkpt>
      <trkpt lat="50.31902" lon="1.54147">
        <ele>1</ele>
        <time>2023-06-10T10:02:39Z</time>
      </trkpt>
      <trkpt lat="50.31907" lon="1.54149">
        <ele>1</ele>
        <time>2023-06-10T10:02:41Z</time>
      </trkpt>
      <trkpt lat="50.31911" lon="1.54151">
        <ele>1</ele>
        <time>2023-06-10T10:02:43Z</time>
      </trkpt>
      <trkpt lat="50.31919" lon="1.54158">
        <ele>1</ele>
        <time>2023-06-10T10:02:47Z</time>
      </trkpt>
      <trkpt lat="50.31926" lon="1.54164">
        <ele>1</ele>
        <time>2023-06-10T10:02:51Z</time>
      </trkpt>
      <trkpt lat="50.31932" lon="1.54168">
        <ele>1</ele>
        <time>2023-06-10T10:02:55Z</time>
      </trkpt>
      <trkpt lat="50.31937" lon="1.5417">
        <ele>1</ele>
        <time>2023-06-10T10:02:59Z</time>
      </trkpt>
      <trkpt lat="50.31944" lon="1.54174">
        <ele>1</ele>
        <time>2023-06-10T10:03:03Z</time>
      </trkpt>
      <trkpt lat="50.3195" lon="1.54177">
        <ele>1</ele>
        <time>2023-06-10T10:03:07Z</time>
      </trkpt>
      <trkpt lat="50.31956" lon="1.54179">
        <ele>1</ele>
        <time>2023-06-10T10:03:11Z</time>
      </trkpt>
      <trkpt lat="50.3196" lon="1.54184">
        <ele>1</ele>
        <time>2023-06-10T10:03:15Z</time>
      </trkpt>
      <trkpt lat="50.31963" lon="1.54189">
        <ele>1</ele>
        <time>2023-06-10T10:03:19Z</time>
      </trkpt>
      <trkpt lat="50.31968" lon="1.54196">
        <ele>1.1</ele>
        <time>2023-06-10T10:03:23Z</time>
      </trkpt>
      <trkpt lat="50.31973" lon="1.54202">
        <ele>1.3</ele>
        <time>2023-06-10T10:03:27Z</time>
      </trkpt>
      <trkpt lat="50.31978" lon="1.54209">
        <ele>1.5</ele>
        <time>2023-06-10T10:03:31Z</time>
      </trkpt>
      <trkpt lat="50.31983" lon="1.54215">
        <ele>1.8</ele>
        <time>2023-06-10T10:03:35Z</time>
      </trkpt>
      <trkpt lat="50.31988" lon="1.54222">
        <ele>2</ele>
        <time>2023-06-10T10:03:39Z</time>
      </trkpt>
      <trkpt lat="50.31993" lon="1.54228">
        <ele>2</ele>
        <time>2023-06-10T10:03:43Z</time>
      </trkpt>
      <trkpt lat="50.31998" lon="1.54234">
        <ele>2</ele>
        <time>2023-06-10T10:03:47Z</time>
      </trkpt>
      <trkpt lat="50.32004" lon="1.54241">
        <ele>2</ele>
        <time>2023-06-10T10:03:51Z</time>
      </trkpt>
      <trkpt lat="50.32011" lon="1.54246">
        <ele>1.9</ele>
        <time>2023-06-10T10:03:55Z</time>
      </trkpt>
      <trkpt lat="50.32019" lon="1.54249">
        <ele>2</ele>
        <time>2023-06-10T10:03:59Z</time>
      </trkpt>
      <trkpt lat="50.32026" lon="1.54251">
        <ele>2</ele>
        <time>2023-06-10T10:04:03Z</time>
      </trkpt>
      <trkpt lat="50.32034" lon="1.54253">
        <ele>2</ele>
        <time>2023-06-10T10:04:07Z</time>
      </trkpt>
      <trkpt lat="50.32041" lon="1.54257">
        <ele>2</ele>
        <time>2023-06-10T10:04:11Z</time>
      </trkpt>
      <trkpt lat="50.32048" lon="1.54258">
        <ele>2</ele>
        <time>2023-06-10T10:04:15Z</time>
      </trkpt>
      <trkpt lat="50.32057" lon="1.54259">
        <ele>2</ele>
        <time>2023-06-10T10:04:19Z</time>
      </trkpt>
      <trkpt lat="50.32062" lon="1.5426">
        <ele>2</ele>
        <time>2023-06-10T10:04:21Z</time>
      </trkpt>
      <trkpt lat="50.32066" lon="1.54263">
        <ele>2</ele>
        <time>2023-06-10T10:04:23Z</time>
      </trkpt>
      <trkpt lat="50.32072" lon="1.54264">
        <ele>2</ele>
        <time>2023-06-10T10:04:25Z</time>
      </trkpt>
      <trkpt lat="50.32077" lon="1.54266">
        <ele>2</ele>
        <time>2023-06-10T10:04:27Z</time>
      </trkpt>
      <trkpt lat="50.32082" lon="1.54266">
        <ele>2</ele>
        <time>2023-06-10T10:04:29Z</time>
      </trkpt>
      <trkpt lat="50.32091" lon="1.54266">
        <ele>1.9</ele>
        <time>2023-06-10T10:04:33Z</time>
      </trkpt>
      <trkpt lat="50.32095" lon="1.54268">
        <ele>1.8</ele>
        <time>2023-06-10T10:04:35Z</time>
      </trkpt>
      <trkpt lat="50.32104" lon="1.54269">
        <ele>1.8</ele>
        <time>2023-06-10T10:04:39Z</time>
      </trkpt>
      <trkpt lat="50.32111" lon="1.54269">
        <ele>1.7</ele>
        <time>2023-06-10T10:04:43Z</time>
      </trkpt>
      <trkpt lat="50.32119" lon="1.5427">
        <ele>1.7</ele>
        <time>2023-06-10T10:04:47Z</time>
      </trkpt>
      <trkpt lat="50.32128" lon="1.54271">
        <ele>1.8</ele>
        <time>2023-06-10T10:04:51Z</time>
      </trkpt>
      <trkpt lat="50.32133" lon="1.54272">
        <ele>1.8</ele>
        <time>2023-06-10T10:04:53Z</time>
      </trkpt>
      <trkpt lat="50.32138" lon="1.54271">
        <ele>1.8</ele>
        <time>2023-06-10T10:04:55Z</time>
      </trkpt>
      <trkpt lat="50.32143" lon="1.54273">
        <ele>1.8</ele>
        <time>2023-06-10T10:04:57Z</time>
      </trkpt>
      <trkpt lat="50.32147" lon="1.54277">
        <ele>2</ele>
        <time>2023-06-10T10:04:59Z</time>
      </trkpt>
      <trkpt lat="50.32152" lon="1.54286">
        <ele>2</ele>
        <time>2023-06-10T10:05:03Z</time>
      </trkpt>
      <trkpt lat="50.32157" lon="1.54294">
        <ele>2</ele>
        <time>2023-06-10T10:05:07Z</time>
      </trkpt>
      <trkpt lat="50.32162" lon="1.54305">
        <ele>2</ele>
        <time>2023-06-10T10:05:11Z</time>
      </trkpt>
      <trkpt lat="50.32166" lon="1.54316">
        <ele>2</ele>
        <time>2023-06-10T10:05:15Z</time>
      </trkpt>
      <trkpt lat="50.32171" lon="1.54325">
        <ele>2</ele>
        <time>2023-06-10T10:05:19Z</time>
      </trkpt>
      <trkpt lat="50.32174" lon="1.54331">
        <ele>2</ele>
        <time>2023-06-10T10:05:21Z</time>
      </trkpt>
      <trkpt lat="50.32177" lon="1.54343">
        <ele>2.4</ele>
        <time>2023-06-10T10:05:25Z</time>
      </trkpt>
      <trkpt lat="50.32179" lon="1.5435">
        <ele>2.6</ele>
        <time>2023-06-10T10:05:27Z</time>
      </trkpt>
      <trkpt lat="50.3218" lon="1.54357">
        <ele>2.9</ele>
        <time>2023-06-10T10:05:29Z</time>
      </trkpt>
      <trkpt lat="50.3218" lon="1.54369">
        <ele>2.7</ele>
        <time>2023-06-10T10:05:33Z</time>
      </trkpt>
      <trkpt lat="50.32181" lon="1.54381">
        <ele>2.3</ele>
        <time>2023-06-10T10:05:37Z</time>
      </trkpt>
      <trkpt lat="50.32183" lon="1.54394">
        <ele>2.1</ele>
        <time>2023-06-10T10:05:41Z</time>
      </trkpt>
      <trkpt lat="50.32184" lon="1.54407">
        <ele>2.2</ele>
        <time>2023-06-10T10:05:45Z</time>
      </trkpt>
      <trkpt lat="50.32185" lon="1.54419">
        <ele>2.4</ele>
        <time>2023-06-10T10:05:49Z</time>
      </trkpt>
      <trkpt lat="50.32187" lon="1.54431">
        <ele>2.6</ele>
        <time>2023-06-10T10:05:53Z</time>
      </trkpt>
      <trkpt lat="50.3219" lon="1.54441">
        <ele>2.9</ele>
        <time>2023-06-10T10:05:57Z</time>
      </trkpt>
      <trkpt lat="50.32191" lon="1.54449">
        <ele>3.2</ele>
        <time>2023-06-10T10:06:01Z</time>
      </trkpt>
      <trkpt lat="50.32194" lon="1.54457">
        <ele>3.5</ele>
        <time>2023-06-10T10:06:09Z</time>
      </trkpt>
      <trkpt lat="50.32194" lon="1.54467">
        <ele>3.8</ele>
        <time>2023-06-10T10:06:15Z</time>
      </trkpt>
      <trkpt lat="50.32195" lon="1.54475">
        <ele>4</ele>
        <time>2023-06-10T10:06:19Z</time>
      </trkpt>
      <trkpt lat="50.32196" lon="1.54482">
        <ele>4</ele>
        <time>2023-06-10T10:06:23Z</time>
      </trkpt>
      <trkpt lat="50.32197" lon="1.5449">
        <ele>4</ele>
        <time>2023-06-10T10:06:27Z</time>
      </trkpt>
      <trkpt lat="50.32198" lon="1.54497">
        <ele>4</ele>
        <time>2023-06-10T10:06:31Z</time>
      </trkpt>
      <trkpt lat="50.32198" lon="1.54504">
        <ele>4.2</ele>
        <time>2023-06-10T10:06:35Z</time>
      </trkpt>
      <trkpt lat="50.32198" lon="1.54512">
        <ele>4.4</ele>
        <time>2023-06-10T10:06:39Z</time>
      </trkpt>
      <trkpt lat="50.32199" lon="1.54521">
        <ele>4.8</ele>
        <time>2023-06-10T10:06:45Z</time>
      </trkpt>
      <trkpt lat="50.322" lon="1.54529">
        <ele>5.1</ele>
        <time>2023-06-10T10:06:49Z</time>
      </trkpt>
      <trkpt lat="50.322" lon="1.54539">
        <ele>6</ele>
        <time>2023-06-10T10:06:55Z</time>
      </trkpt>
      <trkpt lat="50.322" lon="1.54546">
        <ele>6.6</ele>
        <time>2023-06-10T10:06:59Z</time>
      </trkpt>
      <trkpt lat="50.32199" lon="1.54555">
        <ele>7.2</ele>
        <time>2023-06-10T10:07:05Z</time>
      </trkpt>
      <trkpt lat="50.32198" lon="1.54565">
        <ele>8.4</ele>
        <time>2023-06-10T10:07:11Z</time>
      </trkpt>
      <trkpt lat="50.32198" lon="1.54574">
        <ele>9.6</ele>
        <time>2023-06-10T10:07:17Z</time>
      </trkpt>
      <trkpt lat="50.32199" lon="1.54583">
        <ele>10.7</ele>
        <time>2023-06-10T10:07:23Z</time>
      </trkpt>
      <trkpt lat="50.32197" lon="1.54591">
        <ele>10.6</ele>
        <time>2023-06-10T10:07:29Z</time>
      </trkpt>
      <trkpt lat="50.32196" lon="1.54597">
        <ele>10.4</ele>
        <time>2023-06-10T10:07:41Z</time>
      </trkpt>
      <trkpt lat="50.32199" lon="1.54592">
        <ele>10.4</ele>
        <time>2023-06-10T10:07:57Z</time>
      </trkpt>
      <trkpt lat="50.32205" lon="1.5459">
        <ele>10.1</ele>
        <time>2023-06-10T10:08:01Z</time>
      </trkpt>
      <trkpt lat="50.32212" lon="1.54592">
        <ele>9.6</ele>
        <time>2023-06-10T10:08:05Z</time>
      </trkpt>
      <trkpt lat="50.32219" lon="1.54596">
        <ele>9.2</ele>
        <time>2023-06-10T10:08:09Z</time>
      </trkpt>
      <trkpt lat="50.32224" lon="1.54604">
        <ele>9</ele>
        <time>2023-06-10T10:08:13Z</time>
      </trkpt>
      <trkpt lat="50.32227" lon="1.54609">
        <ele>9</ele>
        <time>2023-06-10T10:09:59Z</time>
      </trkpt>
      <trkpt lat="50.32234" lon="1.54612">
        <ele>9</ele>
        <time>2023-06-10T10:10:13Z</time>
      </trkpt>
      <trkpt lat="50.32239" lon="1.54613">
        <ele>9.1</ele>
        <time>2023-06-10T10:10:15Z</time>
      </trkpt>
      <trkpt lat="50.32244" lon="1.54614">
        <ele>9.1</ele>
        <time>2023-06-10T10:10:17Z</time>
      </trkpt>
      <trkpt lat="50.32251" lon="1.54615">
        <ele>9.2</ele>
        <time>2023-06-10T10:10:19Z</time>
      </trkpt>
      <trkpt lat="50.32258" lon="1.54617">
        <ele>9.2</ele>
        <time>2023-06-10T10:10:21Z</time>
      </trkpt>
      <trkpt lat="50.32263" lon="1.54617">
        <ele>9.2</ele>
        <time>2023-06-10T10:10:23Z</time>
      </trkpt>
      <trkpt lat="50.32269" lon="1.54617">
        <ele>9.2</ele>
        <time>2023-06-10T10:10:25Z</time>
      </trkpt>
      <trkpt lat="50.32275" lon="1.54618">
        <ele>9.2</ele>
        <time>2023-06-10T10:10:27Z</time>
      </trkpt>
      <trkpt lat="50.32281" lon="1.5462">
        <ele>9.3</ele>
        <time>2023-06-10T10:10:29Z</time>
      </trkpt>
      <trkpt lat="50.32286" lon="1.54621">
        <ele>9.4</ele>
        <time>2023-06-10T10:10:31Z</time>
      </trkpt>
      <trkpt lat="50.32292" lon="1.54623">
        <ele>9.4</ele>
        <time>2023-06-10T10:10:33Z</time>
      </trkpt>
      <trkpt lat="50.32298" lon="1.54625">
        <ele>9.5</ele>
        <time>2023-06-10T10:10:35Z</time>
      </trkpt>
      <trkpt lat="50.32305" lon="1.54629">
        <ele>9.6</ele>
        <time>2023-06-10T10:10:37Z</time>
      </trkpt>
      <trkpt lat="50.32311" lon="1.54629">
        <ele>9.5</ele>
        <time>2023-06-10T10:10:39Z</time>
      </trkpt>
      <trkpt lat="50.32317" lon="1.5463">
        <ele>9.4</ele>
        <time>2023-06-10T10:10:41Z</time>
      </trkpt>
      <trkpt lat="50.32323" lon="1.5463">
        <ele>9.2</ele>
        <time>2023-06-10T10:10:43Z</time>
      </trkpt>
      <trkpt lat="50.32328" lon="1.54631">
        <ele>9.1</ele>
        <time>2023-06-10T10:10:45Z</time>
      </trkpt>
      <trkpt lat="50.32333" lon="1.54631">
        <ele>9</ele>
        <time>2023-06-10T10:10:51Z</time>
      </trkpt>
      <trkpt lat="50.32337" lon="1.54635">
        <ele>9</ele>
        <time>2023-06-10T10:11:01Z</time>
      </trkpt>
      <trkpt lat="50.32342" lon="1.54631">
        <ele>8.9</ele>
        <time>2023-06-10T10:13:15Z</time>
      </trkpt>
      <trkpt lat="50.32346" lon="1.54626">
        <ele>8.8</ele>
        <time>2023-06-10T10:13:23Z</time>
      </trkpt>
      <trkpt lat="50.32349" lon="1.5463">
        <ele>8.8</ele>
        <time>2023-06-10T10:13:33Z</time>
      </trkpt>
      <trkpt lat="50.32351" lon="1.54636">
        <ele>8.9</ele>
        <time>2023-06-10T10:14:43Z</time>
      </trkpt>
      <trkpt lat="50.32351" lon="1.54645">
        <ele>9.2</ele>
        <time>2023-06-10T10:14:53Z</time>
      </trkpt>
      <trkpt lat="50.32351" lon="1.54654">
        <ele>9.3</ele>
        <time>2023-06-10T10:14:59Z</time>
      </trkpt>
      <trkpt lat="50.3235" lon="1.54663">
        <ele>9.5</ele>
        <time>2023-06-10T10:15:05Z</time>
      </trkpt>
      <trkpt lat="50.32349" lon="1.54673">
        <ele>9.7</ele>
        <time>2023-06-10T10:15:11Z</time>
      </trkpt>
      <trkpt lat="50.32348" lon="1.54683">
        <ele>9.8</ele>
        <time>2023-06-10T10:15:17Z</time>
      </trkpt>
      <trkpt lat="50.32347" lon="1.54693">
        <ele>10</ele>
        <time>2023-06-10T10:15:23Z</time>
      </trkpt>
      <trkpt lat="50.32344" lon="1.54703">
        <ele>10.2</ele>
        <time>2023-06-10T10:15:29Z</time>
      </trkpt>
      <trkpt lat="50.32345" lon="1.54711">
        <ele>10.3</ele>
        <time>2023-06-10T10:15:35Z</time>
      </trkpt>
      <trkpt lat="50.32346" lon="1.54718">
        <ele>10.5</ele>
        <time>2023-06-10T10:15:41Z</time>
      </trkpt>
      <trkpt lat="50.32343" lon="1.54727">
        <ele>10.6</ele>
        <time>2023-06-10T10:15:47Z</time>
      </trkpt>
      <trkpt lat="50.32341" lon="1.54736">
        <ele>10.7</ele>
        <time>2023-06-10T10:15:53Z</time>
      </trkpt>
      <trkpt lat="50.3234" lon="1.54745">
        <ele>10.8</ele>
        <time>2023-06-10T10:15:59Z</time>
      </trkpt>
      <trkpt lat="50.32339" lon="1.54754">
        <ele>10.8</ele>
        <time>2023-06-10T10:16:05Z</time>
      </trkpt>
      <trkpt lat="50.32339" lon="1.54763">
        <ele>10.9</ele>
        <time>2023-06-10T10:16:11Z</time>
      </trkpt>
      <trkpt lat="50.32339" lon="1.54771">
        <ele>11</ele>
        <time>2023-06-10T10:16:17Z</time>
      </trkpt>
      <trkpt lat="50.32336" lon="1.54779">
        <ele>11</ele>
        <time>2023-06-10T10:16:25Z</time>
      </trkpt>
      <trkpt lat="50.32336" lon="1.54788">
        <ele>11</ele>
        <time>2023-06-10T10:16:31Z</time>
      </trkpt>
      <trkpt lat="50.32335" lon="1.54795">
        <ele>11</ele>
        <time>2023-06-10T10:16:37Z</time>
      </trkpt>
      <trkpt lat="50.32335" lon="1.54803">
        <ele>11</ele>
        <time>2023-06-10T10:17:05Z</time>
      </trkpt>
      <trkpt lat="50.32332" lon="1.54811">
        <ele>11</ele>
        <time>2023-06-10T10:17:11Z</time>
      </trkpt>
      <trkpt lat="50.3233" lon="1.54819">
        <ele>11.1</ele>
        <time>2023-06-10T10:17:17Z</time>
      </trkpt>
      <trkpt lat="50.3233" lon="1.54809">
        <ele>11</ele>
        <time>2023-06-10T10:17:55Z</time>
      </trkpt>
      <trkpt lat="50.32331" lon="1.54802">
        <ele>11</ele>
        <time>2023-06-10T10:17:59Z</time>
      </trkpt>
      <trkpt lat="50.32331" lon="1.54793">
        <ele>11</ele>
        <time>2023-06-10T10:18:05Z</time>
      </trkpt>
      <trkpt lat="50.32334" lon="1.54784">
        <ele>11</ele>
        <time>2023-06-10T10:18:11Z</time>
      </trkpt>
      <trkpt lat="50.32336" lon="1.54776">
        <ele>11</ele>
        <time>2023-06-10T10:18:15Z</time>
      </trkpt>
      <trkpt lat="50.32337" lon="1.54768">
        <ele>11</ele>
        <time>2023-06-10T10:18:19Z</time>
      </trkpt>
      <trkpt lat="50.32338" lon="1.5476">
        <ele>10.9</ele>
        <time>2023-06-10T10:18:23Z</time>
      </trkpt>
      <trkpt lat="50.3234" lon="1.54753">
        <ele>10.8</ele>
        <time>2023-06-10T10:18:27Z</time>
      </trkpt>
      <trkpt lat="50.32341" lon="1.54746">
        <ele>10.7</ele>
        <time>2023-06-10T10:18:31Z</time>
      </trkpt>
      <trkpt lat="50.32342" lon="1.54739">
        <ele>10.7</ele>
        <time>2023-06-10T10:18:35Z</time>
      </trkpt>
      <trkpt lat="50.32342" lon="1.5473">
        <ele>10.7</ele>
        <time>2023-06-10T10:18:39Z</time>
      </trkpt>
      <trkpt lat="50.32343" lon="1.54723">
        <ele>10.6</ele>
        <time>2023-06-10T10:18:43Z</time>
      </trkpt>
      <trkpt lat="50.32345" lon="1.54715">
        <ele>10.4</ele>
        <time>2023-06-10T10:18:47Z</time>
      </trkpt>
      <trkpt lat="50.32346" lon="1.54708">
        <ele>10.3</ele>
        <time>2023-06-10T10:18:51Z</time>
      </trkpt>
      <trkpt lat="50.32344" lon="1.54701">
        <ele>10.1</ele>
        <time>2023-06-10T10:18:55Z</time>
      </trkpt>
      <trkpt lat="50.32345" lon="1.5469">
        <ele>9.9</ele>
        <time>2023-06-10T10:19:01Z</time>
      </trkpt>
      <trkpt lat="50.32346" lon="1.54682">
        <ele>9.8</ele>
        <time>2023-06-10T10:19:05Z</time>
      </trkpt>
      <trkpt lat="50.32348" lon="1.54674">
        <ele>9.7</ele>
        <time>2023-06-10T10:19:09Z</time>
      </trkpt>
      <trkpt lat="50.3235" lon="1.54666">
        <ele>9.6</ele>
        <time>2023-06-10T10:19:13Z</time>
      </trkpt>
      <trkpt lat="50.32352" lon="1.54658">
        <ele>9.5</ele>
        <time>2023-06-10T10:19:17Z</time>
      </trkpt>
      <trkpt lat="50.32353" lon="1.54648">
        <ele>9.2</ele>
        <time>2023-06-10T10:19:23Z</time>
      </trkpt>
      <trkpt lat="50.32354" lon="1.54641">
        <ele>9.1</ele>
        <time>2023-06-10T10:19:27Z</time>
      </trkpt>
      <trkpt lat="50.32356" lon="1.54633">
        <ele>8.8</ele>
        <time>2023-06-10T10:19:33Z</time>
      </trkpt>
      <trkpt lat="50.32359" lon="1.54627">
        <ele>8.6</ele>
        <time>2023-06-10T10:19:41Z</time>
      </trkpt>
      <trkpt lat="50.32363" lon="1.54631">
        <ele>8.7</ele>
        <time>2023-06-10T10:20:11Z</time>
      </trkpt>
      <trkpt lat="50.32367" lon="1.54632">
        <ele>8.8</ele>
        <time>2023-06-10T10:21:53Z</time>
      </trkpt>
      <trkpt lat="50.32366" lon="1.54623">
        <ele>8.5</ele>
        <time>2023-06-10T10:21:59Z</time>
      </trkpt>
      <trkpt lat="50.32361" lon="1.54619">
        <ele>8.3</ele>
        <time>2023-06-10T10:22:05Z</time>
      </trkpt>
      <trkpt lat="50.32358" lon="1.54608">
        <ele>8</ele>
        <time>2023-06-10T10:22:13Z</time>
      </trkpt>
      <trkpt lat="50.32363" lon="1.54601">
        <ele>7.7</ele>
        <time>2023-06-10T10:22:15Z</time>
      </trkpt>
      <trkpt lat="50.32371" lon="1.54593">
        <ele>7.5</ele>
        <time>2023-06-10T10:22:17Z</time>
      </trkpt>
      <trkpt lat="50.32377" lon="1.54585">
        <ele>7.1</ele>
        <time>2023-06-10T10:22:19Z</time>
      </trkpt>
      <trkpt lat="50.32384" lon="1.5458">
        <ele>6.7</ele>
        <time>2023-06-10T10:22:21Z</time>
      </trkpt>
      <trkpt lat="50.32392" lon="1.54578">
        <ele>6.2</ele>
        <time>2023-06-10T10:22:23Z</time>
      </trkpt>
      <trkpt lat="50.32401" lon="1.54578">
        <ele>5.7</ele>
        <time>2023-06-10T10:22:25Z</time>
      </trkpt>
      <trkpt lat="50.3241" lon="1.54579">
        <ele>5.3</ele>
        <time>2023-06-10T10:22:27Z</time>
      </trkpt>
      <trkpt lat="50.32418" lon="1.54581">
        <ele>4.9</ele>
        <time>2023-06-10T10:22:29Z</time>
      </trkpt>
      <trkpt lat="50.32426" lon="1.54583">
        <ele>5</ele>
        <time>2023-06-10T10:22:31Z</time>
      </trkpt>
      <trkpt lat="50.32433" lon="1.54585">
        <ele>5.3</ele>
        <time>2023-06-10T10:22:33Z</time>
      </trkpt>
      <trkpt lat="50.32439" lon="1.54588">
        <ele>5.8</ele>
        <time>2023-06-10T10:22:35Z</time>
      </trkpt>
      <trkpt lat="50.32445" lon="1.54589">
        <ele>6</ele>
        <time>2023-06-10T10:22:37Z</time>
      </trkpt>
      <trkpt lat="50.32451" lon="1.5459">
        <ele>6</ele>
        <time>2023-06-10T10:22:39Z</time>
      </trkpt>
      <trkpt lat="50.32457" lon="1.54591">
        <ele>6</ele>
        <time>2023-06-10T10:22:41Z</time>
      </trkpt>
      <trkpt lat="50.32462" lon="1.54593">
        <ele>6.1</ele>
        <time>2023-06-10T10:22:43Z</time>
      </trkpt>
      <trkpt lat="50.32467" lon="1.54594">
        <ele>6.1</ele>
        <time>2023-06-10T10:22:45Z</time>
      </trkpt>
      <trkpt lat="50.32472" lon="1.54595">
        <ele>6.1</ele>
        <time>2023-06-10T10:22:47Z</time>
      </trkpt>
      <trkpt lat="50.32478" lon="1.54597">
        <ele>6</ele>
        <time>2023-06-10T10:22:49Z</time>
      </trkpt>
      <trkpt lat="50.32484" lon="1.54598">
        <ele>5.8</ele>
        <time>2023-06-10T10:22:51Z</time>
      </trkpt>
      <trkpt lat="50.3249" lon="1.54598">
        <ele>5.3</ele>
        <time>2023-06-10T10:22:53Z</time>
      </trkpt>
      <trkpt lat="50.32497" lon="1.54596">
        <ele>4.7</ele>
        <time>2023-06-10T10:22:55Z</time>
      </trkpt>
      <trkpt lat="50.32503" lon="1.54595">
        <ele>4.4</ele>
        <time>2023-06-10T10:22:57Z</time>
      </trkpt>
      <trkpt lat="50.3251" lon="1.54595">
        <ele>4.3</ele>
        <time>2023-06-10T10:22:59Z</time>
      </trkpt>
      <trkpt lat="50.32515" lon="1.54598">
        <ele>4.2</ele>
        <time>2023-06-10T10:23:01Z</time>
      </trkpt>
      <trkpt lat="50.3252" lon="1.54602">
        <ele>4.2</ele>
        <time>2023-06-10T10:23:03Z</time>
      </trkpt>
      <trkpt lat="50.32526" lon="1.54605">
        <ele>4.1</ele>
        <time>2023-06-10T10:23:05Z</time>
      </trkpt>
      <trkpt lat="50.32531" lon="1.54607">
        <ele>4</ele>
        <time>2023-06-10T10:23:07Z</time>
      </trkpt>
      <trkpt lat="50.32536" lon="1.54609">
        <ele>4</ele>
        <time>2023-06-10T10:23:09Z</time>
      </trkpt>
      <trkpt lat="50.32542" lon="1.54611">
        <ele>4</ele>
        <time>2023-06-10T10:23:11Z</time>
      </trkpt>
      <trkpt lat="50.32547" lon="1.54612">
        <ele>4</ele>
        <time>2023-06-10T10:23:13Z</time>
      </trkpt>
      <trkpt lat="50.32553" lon="1.54612">
        <ele>4</ele>
        <time>2023-06-10T10:23:15Z</time>
      </trkpt>
      <trkpt lat="50.32558" lon="1.54612">
        <ele>4</ele>
        <time>2023-06-10T10:23:17Z</time>
      </trkpt>
      <trkpt lat="50.32564" lon="1.54612">
        <ele>4</ele>
        <time>2023-06-10T10:23:19Z</time>
      </trkpt>
      <trkpt lat="50.32569" lon="1.54611">
        <ele>4</ele>
        <time>2023-06-10T10:23:21Z</time>
      </trkpt>
      <trkpt lat="50.32575" lon="1.54609">
        <ele>4</ele>
        <time>2023-06-10T10:23:23Z</time>
      </trkpt>
      <trkpt lat="50.3258" lon="1.54609">
        <ele>4</ele>
        <time>2023-06-10T10:23:25Z</time>
      </trkpt>
      <trkpt lat="50.32585" lon="1.54609">
        <ele>4</ele>
        <time>2023-06-10T10:23:27Z</time>
      </trkpt>
      <trkpt lat="50.32591" lon="1.54608">
        <ele>4</ele>
        <time>2023-06-10T10:23:29Z</time>
      </trkpt>
      <trkpt lat="50.32596" lon="1.54608">
        <ele>4</ele>
        <time>2023-06-10T10:23:31Z</time>
      </trkpt>
      <trkpt lat="50.32601" lon="1.54609">
        <ele>4</ele>
        <time>2023-06-10T10:23:33Z</time>
      </trkpt>
      <trkpt lat="50.32606" lon="1.54609">
        <ele>4</ele>
        <time>2023-06-10T10:23:35Z</time>
      </trkpt>
      <trkpt lat="50.32611" lon="1.5461">
        <ele>4</ele>
        <time>2023-06-10T10:23:37Z</time>
      </trkpt>
      <trkpt lat="50.32616" lon="1.5461">
        <ele>4</ele>
        <time>2023-06-10T10:23:39Z</time>
      </trkpt>
      <trkpt lat="50.32621" lon="1.54611">
        <ele>4</ele>
        <time>2023-06-10T10:23:41Z</time>
      </trkpt>
      <trkpt lat="50.32626" lon="1.54612">
        <ele>4</ele>
        <time>2023-06-10T10:23:43Z</time>
      </trkpt>
      <trkpt lat="50.32632" lon="1.54613">
        <ele>4</ele>
        <time>2023-06-10T10:23:45Z</time>
      </trkpt>
      <trkpt lat="50.32637" lon="1.54614">
        <ele>4</ele>
        <time>2023-06-10T10:23:47Z</time>
      </trkpt>
      <trkpt lat="50.32642" lon="1.54615">
        <ele>4</ele>
        <time>2023-06-10T10:23:49Z</time>
      </trkpt>
      <trkpt lat="50.32647" lon="1.54616">
        <ele>4</ele>
        <time>2023-06-10T10:23:51Z</time>
      </trkpt>
      <trkpt lat="50.32652" lon="1.54618">
        <ele>4</ele>
        <time>2023-06-10T10:23:53Z</time>
      </trkpt>
      <trkpt lat="50.32657" lon="1.54619">
        <ele>4</ele>
        <time>2023-06-10T10:23:55Z</time>
      </trkpt>
      <trkpt lat="50.32662" lon="1.5462">
        <ele>4</ele>
        <time>2023-06-10T10:23:57Z</time>
      </trkpt>
      <trkpt lat="50.32667" lon="1.5462">
        <ele>4</ele>
        <time>2023-06-10T10:23:59Z</time>
      </trkpt>
      <trkpt lat="50.32672" lon="1.54621">
        <ele>4</ele>
        <time>2023-06-10T10:24:01Z</time>
      </trkpt>
      <trkpt lat="50.32677" lon="1.5462">
        <ele>4</ele>
        <time>2023-06-10T10:24:03Z</time>
      </trkpt>
      <trkpt lat="50.32683" lon="1.5462">
        <ele>4</ele>
        <time>2023-06-10T10:24:05Z</time>
      </trkpt>
      <trkpt lat="50.32688" lon="1.5462">
        <ele>4</ele>
        <time>2023-06-10T10:24:07Z</time>
      </trkpt>
      <trkpt lat="50.32693" lon="1.5462">
        <ele>4</ele>
        <time>2023-06-10T10:24:09Z</time>
      </trkpt>
      <trkpt lat="50.32698" lon="1.54619">
        <ele>4</ele>
        <time>2023-06-10T10:24:11Z</time>
      </trkpt>
      <trkpt lat="50.32703" lon="1.54619">
        <ele>4</ele>
        <time>2023-06-10T10:24:13Z</time>
      </trkpt>
      <trkpt lat="50.32709" lon="1.54619">
        <ele>4</ele>
        <time>2023-06-10T10:24:15Z</time>
      </trkpt>
      <trkpt lat="50.32715" lon="1.54619">
        <ele>4</ele>
        <time>2023-06-10T10:24:17Z</time>
      </trkpt>
      <trkpt lat="50.3272" lon="1.54619">
        <ele>4</ele>
        <time>2023-06-10T10:24:19Z</time>
      </trkpt>
      <trkpt lat="50.32726" lon="1.54619">
        <ele>4</ele>
        <time>2023-06-10T10:24:21Z</time>
      </trkpt>
      <trkpt lat="50.32732" lon="1.54618">
        <ele>4</ele>
        <time>2023-06-10T10:24:23Z</time>
      </trkpt>
      <trkpt lat="50.32737" lon="1.54618">
        <ele>4</ele>
        <time>2023-06-10T10:24:25Z</time>
      </trkpt>
      <trkpt lat="50.32742" lon="1.54618">
        <ele>4</ele>
        <time>2023-06-10T10:24:27Z</time>
      </trkpt>
      <trkpt lat="50.32748" lon="1.54618">
        <ele>4</ele>
        <time>2023-06-10T10:24:29Z</time>
      </trkpt>
      <trkpt lat="50.32754" lon="1.54618">
        <ele>4</ele>
        <time>2023-06-10T10:24:31Z</time>
      </trkpt>
      <trkpt lat="50.32759" lon="1.54619">
        <ele>4</ele>
        <time>2023-06-10T10:24:33Z</time>
      </trkpt>
      <trkpt lat="50.32764" lon="1.54619">
        <ele>4</ele>
        <time>2023-06-10T10:24:35Z</time>
      </trkpt>
      <trkpt lat="50.32768" lon="1.54619">
        <ele>4</ele>
        <time>2023-06-10T10:24:37Z</time>
      </trkpt>
      <trkpt lat="50.32774" lon="1.54619">
        <ele>4</ele>
        <time>2023-06-10T10:24:39Z</time>
      </trkpt>
      <trkpt lat="50.32779" lon="1.5462">
        <ele>4</ele>
        <time>2023-06-10T10:24:41Z</time>
      </trkpt>
      <trkpt lat="50.32784" lon="1.54619">
        <ele>3.8</ele>
        <time>2023-06-10T10:24:43Z</time>
      </trkpt>
      <trkpt lat="50.32789" lon="1.5462">
        <ele>3.7</ele>
        <time>2023-06-10T10:24:45Z</time>
      </trkpt>
      <trkpt lat="50.32794" lon="1.5462">
        <ele>3.6</ele>
        <time>2023-06-10T10:24:47Z</time>
      </trkpt>
      <trkpt lat="50.32799" lon="1.54621">
        <ele>3.5</ele>
        <time>2023-06-10T10:24:49Z</time>
      </trkpt>
      <trkpt lat="50.32804" lon="1.54621">
        <ele>3.4</ele>
        <time>2023-06-10T10:24:51Z</time>
      </trkpt>
      <trkpt lat="50.32809" lon="1.54621">
        <ele>3.4</ele>
        <time>2023-06-10T10:24:53Z</time>
      </trkpt>
      <trkpt lat="50.32815" lon="1.54623">
        <ele>3.4</ele>
        <time>2023-06-10T10:24:55Z</time>
      </trkpt>
      <trkpt lat="50.3282" lon="1.54623">
        <ele>3.4</ele>
        <time>2023-06-10T10:24:57Z</time>
      </trkpt>
      <trkpt lat="50.32826" lon="1.54625">
        <ele>3.5</ele>
        <time>2023-06-10T10:24:59Z</time>
      </trkpt>
      <trkpt lat="50.32831" lon="1.54626">
        <ele>3.6</ele>
        <time>2023-06-10T10:25:01Z</time>
      </trkpt>
      <trkpt lat="50.32836" lon="1.54628">
        <ele>3.5</ele>
        <time>2023-06-10T10:25:03Z</time>
      </trkpt>
      <trkpt lat="50.32841" lon="1.54629">
        <ele>3.5</ele>
        <time>2023-06-10T10:25:05Z</time>
      </trkpt>
      <trkpt lat="50.32846" lon="1.5463">
        <ele>3.4</ele>
        <time>2023-06-10T10:25:07Z</time>
      </trkpt>
      <trkpt lat="50.32851" lon="1.54631">
        <ele>3.2</ele>
        <time>2023-06-10T10:25:09Z</time>
      </trkpt>
      <trkpt lat="50.32857" lon="1.54631">
        <ele>3.1</ele>
        <time>2023-06-10T10:25:11Z</time>
      </trkpt>
      <trkpt lat="50.32862" lon="1.54631">
        <ele>3</ele>
        <time>2023-06-10T10:25:13Z</time>
      </trkpt>
      <trkpt lat="50.32868" lon="1.54632">
        <ele>3.2</ele>
        <time>2023-06-10T10:25:15Z</time>
      </trkpt>
      <trkpt lat="50.32873" lon="1.54631">
        <ele>3.3</ele>
        <time>2023-06-10T10:25:17Z</time>
      </trkpt>
      <trkpt lat="50.32878" lon="1.5463">
        <ele>3.4</ele>
        <time>2023-06-10T10:25:19Z</time>
      </trkpt>
      <trkpt lat="50.32884" lon="1.54631">
        <ele>3.6</ele>
        <time>2023-06-10T10:25:21Z</time>
      </trkpt>
      <trkpt lat="50.32889" lon="1.54631">
        <ele>3.7</ele>
        <time>2023-06-10T10:25:23Z</time>
      </trkpt>
      <trkpt lat="50.32894" lon="1.54631">
        <ele>3.7</ele>
        <time>2023-06-10T10:25:25Z</time>
      </trkpt>
      <trkpt lat="50.329" lon="1.54632">
        <ele>3.7</ele>
        <time>2023-06-10T10:25:27Z</time>
      </trkpt>
      <trkpt lat="50.32905" lon="1.54632">
        <ele>3.7</ele>
        <time>2023-06-10T10:25:29Z</time>
      </trkpt>
      <trkpt lat="50.3291" lon="1.54632">
        <ele>3.8</ele>
        <time>2023-06-10T10:25:31Z</time>
      </trkpt>
      <trkpt lat="50.32915" lon="1.54631">
        <ele>3.7</ele>
        <time>2023-06-10T10:25:33Z</time>
      </trkpt>
      <trkpt lat="50.32921" lon="1.54632">
        <ele>3.6</ele>
        <time>2023-06-10T10:25:35Z</time>
      </trkpt>
      <trkpt lat="50.32926" lon="1.54631">
        <ele>3.5</ele>
        <time>2023-06-10T10:25:37Z</time>
      </trkpt>
      <trkpt lat="50.32932" lon="1.54631">
        <ele>3.3</ele>
        <time>2023-06-10T10:25:39Z</time>
      </trkpt>
      <trkpt lat="50.32937" lon="1.54632">
        <ele>3.2</ele>
        <time>2023-06-10T10:25:41Z</time>
      </trkpt>
      <trkpt lat="50.32942" lon="1.54632">
        <ele>3.1</ele>
        <time>2023-06-10T10:25:43Z</time>
      </trkpt>
      <trkpt lat="50.32947" lon="1.54633">
        <ele>3</ele>
        <time>2023-06-10T10:25:45Z</time>
      </trkpt>
      <trkpt lat="50.32952" lon="1.54634">
        <ele>3</ele>
        <time>2023-06-10T10:25:47Z</time>
      </trkpt>
      <trkpt lat="50.32957" lon="1.54635">
        <ele>3</ele>
        <time>2023-06-10T10:25:49Z</time>
      </trkpt>
      <trkpt lat="50.32962" lon="1.54636">
        <ele>3</ele>
        <time>2023-06-10T10:25:51Z</time>
      </trkpt>
      <trkpt lat="50.32968" lon="1.54638">
        <ele>3</ele>
        <time>2023-06-10T10:25:53Z</time>
      </trkpt>
      <trkpt lat="50.32973" lon="1.5464">
        <ele>3</ele>
        <time>2023-06-10T10:25:55Z</time>
      </trkpt>
      <trkpt lat="50.32978" lon="1.54641">
        <ele>3.1</ele>
        <time>2023-06-10T10:25:57Z</time>
      </trkpt>
      <trkpt lat="50.32983" lon="1.54641">
        <ele>3.1</ele>
        <time>2023-06-10T10:25:59Z</time>
      </trkpt>
      <trkpt lat="50.32992" lon="1.54638">
        <ele>3</ele>
        <time>2023-06-10T10:26:03Z</time>
      </trkpt>
      <trkpt lat="50.32998" lon="1.54638">
        <ele>3</ele>
        <time>2023-06-10T10:26:05Z</time>
      </trkpt>
      <trkpt lat="50.33004" lon="1.54639">
        <ele>3</ele>
        <time>2023-06-10T10:26:07Z</time>
      </trkpt>
      <trkpt lat="50.33009" lon="1.5464">
        <ele>3</ele>
        <time>2023-06-10T10:26:09Z</time>
      </trkpt>
      <trkpt lat="50.33015" lon="1.5464">
        <ele>3</ele>
        <time>2023-06-10T10:26:11Z</time>
      </trkpt>
      <trkpt lat="50.3302" lon="1.54642">
        <ele>3.1</ele>
        <time>2023-06-10T10:26:13Z</time>
      </trkpt>
      <trkpt lat="50.33026" lon="1.54643">
        <ele>3.2</ele>
        <time>2023-06-10T10:26:15Z</time>
      </trkpt>
      <trkpt lat="50.33031" lon="1.54642">
        <ele>3.1</ele>
        <time>2023-06-10T10:26:17Z</time>
      </trkpt>
      <trkpt lat="50.33036" lon="1.54642">
        <ele>3.1</ele>
        <time>2023-06-10T10:26:19Z</time>
      </trkpt>
      <trkpt lat="50.33042" lon="1.54643">
        <ele>3.2</ele>
        <time>2023-06-10T10:26:21Z</time>
      </trkpt>
      <trkpt lat="50.33048" lon="1.54645">
        <ele>3.2</ele>
        <time>2023-06-10T10:26:23Z</time>
      </trkpt>
      <trkpt lat="50.33053" lon="1.54646">
        <ele>3.3</ele>
        <time>2023-06-10T10:26:25Z</time>
      </trkpt>
      <trkpt lat="50.33059" lon="1.54648">
        <ele>3.3</ele>
        <time>2023-06-10T10:26:27Z</time>
      </trkpt>
      <trkpt lat="50.33064" lon="1.54648">
        <ele>3.2</ele>
        <time>2023-06-10T10:26:29Z</time>
      </trkpt>
      <trkpt lat="50.3307" lon="1.54647">
        <ele>3.1</ele>
        <time>2023-06-10T10:26:31Z</time>
      </trkpt>
      <trkpt lat="50.33076" lon="1.54647">
        <ele>3.1</ele>
        <time>2023-06-10T10:26:33Z</time>
      </trkpt>
      <trkpt lat="50.33082" lon="1.54648">
        <ele>3</ele>
        <time>2023-06-10T10:26:35Z</time>
      </trkpt>
      <trkpt lat="50.33088" lon="1.54649">
        <ele>3</ele>
        <time>2023-06-10T10:26:37Z</time>
      </trkpt>
      <trkpt lat="50.33094" lon="1.5465">
        <ele>3</ele>
        <time>2023-06-10T10:26:39Z</time>
      </trkpt>
      <trkpt lat="50.331" lon="1.54651">
        <ele>3</ele>
        <time>2023-06-10T10:26:41Z</time>
      </trkpt>
      <trkpt lat="50.33106" lon="1.54651">
        <ele>3</ele>
        <time>2023-06-10T10:26:43Z</time>
      </trkpt>
      <trkpt lat="50.33113" lon="1.54651">
        <ele>3</ele>
        <time>2023-06-10T10:26:45Z</time>
      </trkpt>
      <trkpt lat="50.3312" lon="1.54652">
        <ele>3</ele>
        <time>2023-06-10T10:26:47Z</time>
      </trkpt>
      <trkpt lat="50.33126" lon="1.54651">
        <ele>3</ele>
        <time>2023-06-10T10:26:49Z</time>
      </trkpt>
      <trkpt lat="50.33132" lon="1.54651">
        <ele>3</ele>
        <time>2023-06-10T10:26:51Z</time>
      </trkpt>
      <trkpt lat="50.33139" lon="1.54652">
        <ele>3</ele>
        <time>2023-06-10T10:26:53Z</time>
      </trkpt>
      <trkpt lat="50.33145" lon="1.54654">
        <ele>3</ele>
        <time>2023-06-10T10:26:55Z</time>
      </trkpt>
      <trkpt lat="50.33151" lon="1.54656">
        <ele>3</ele>
        <time>2023-06-10T10:26:57Z</time>
      </trkpt>
      <trkpt lat="50.33158" lon="1.54658">
        <ele>3</ele>
        <time>2023-06-10T10:26:59Z</time>
      </trkpt>
      <trkpt lat="50.33164" lon="1.54659">
        <ele>3</ele>
        <time>2023-06-10T10:27:01Z</time>
      </trkpt>
      <trkpt lat="50.33171" lon="1.54659">
        <ele>3</ele>
        <time>2023-06-10T10:27:03Z</time>
      </trkpt>
      <trkpt lat="50.33177" lon="1.54661">
        <ele>3</ele>
        <time>2023-06-10T10:27:05Z</time>
      </trkpt>
      <trkpt lat="50.33183" lon="1.54663">
        <ele>3</ele>
        <time>2023-06-10T10:27:07Z</time>
      </trkpt>
      <trkpt lat="50.33188" lon="1.54668">
        <ele>3</ele>
        <time>2023-06-10T10:27:09Z</time>
      </trkpt>
      <trkpt lat="50.33192" lon="1.54674">
        <ele>3.3</ele>
        <time>2023-06-10T10:27:11Z</time>
      </trkpt>
      <trkpt lat="50.33197" lon="1.54681">
        <ele>3.5</ele>
        <time>2023-06-10T10:27:13Z</time>
      </trkpt>
      <trkpt lat="50.33201" lon="1.54686">
        <ele>3.5</ele>
        <time>2023-06-10T10:27:15Z</time>
      </trkpt>
      <trkpt lat="50.33207" lon="1.54691">
        <ele>3.5</ele>
        <time>2023-06-10T10:27:17Z</time>
      </trkpt>
      <trkpt lat="50.33212" lon="1.54694">
        <ele>3.4</ele>
        <time>2023-06-10T10:27:19Z</time>
      </trkpt>
      <trkpt lat="50.33218" lon="1.54696">
        <ele>3.2</ele>
        <time>2023-06-10T10:27:21Z</time>
      </trkpt>
      <trkpt lat="50.33225" lon="1.54696">
        <ele>3</ele>
        <time>2023-06-10T10:27:23Z</time>
      </trkpt>
      <trkpt lat="50.33234" lon="1.54696">
        <ele>3.1</ele>
        <time>2023-06-10T10:27:25Z</time>
      </trkpt>
      <trkpt lat="50.33242" lon="1.54697">
        <ele>3.1</ele>
        <time>2023-06-10T10:27:27Z</time>
      </trkpt>
      <trkpt lat="50.3325" lon="1.54698">
        <ele>3.1</ele>
        <time>2023-06-10T10:27:29Z</time>
      </trkpt>
      <trkpt lat="50.33259" lon="1.54701">
        <ele>3.2</ele>
        <time>2023-06-10T10:27:31Z</time>
      </trkpt>
      <trkpt lat="50.33267" lon="1.54704">
        <ele>3.4</ele>
        <time>2023-06-10T10:27:33Z</time>
      </trkpt>
      <trkpt lat="50.33276" lon="1.54707">
        <ele>3.5</ele>
        <time>2023-06-10T10:27:35Z</time>
      </trkpt>
      <trkpt lat="50.33284" lon="1.5471">
        <ele>3.6</ele>
        <time>2023-06-10T10:27:37Z</time>
      </trkpt>
      <trkpt lat="50.33292" lon="1.54713">
        <ele>3.7</ele>
        <time>2023-06-10T10:27:39Z</time>
      </trkpt>
      <trkpt lat="50.333" lon="1.54715">
        <ele>3.7</ele>
        <time>2023-06-10T10:27:41Z</time>
      </trkpt>
      <trkpt lat="50.33308" lon="1.54716">
        <ele>3.8</ele>
        <time>2023-06-10T10:27:43Z</time>
      </trkpt>
      <trkpt lat="50.33316" lon="1.54718">
        <ele>3.8</ele>
        <time>2023-06-10T10:27:45Z</time>
      </trkpt>
      <trkpt lat="50.33323" lon="1.54719">
        <ele>3.9</ele>
        <time>2023-06-10T10:27:47Z</time>
      </trkpt>
      <trkpt lat="50.33331" lon="1.5472">
        <ele>3.9</ele>
        <time>2023-06-10T10:27:49Z</time>
      </trkpt>
      <trkpt lat="50.33338" lon="1.54721">
        <ele>3.9</ele>
        <time>2023-06-10T10:27:51Z</time>
      </trkpt>
      <trkpt lat="50.33345" lon="1.54722">
        <ele>4</ele>
        <time>2023-06-10T10:27:53Z</time>
      </trkpt>
      <trkpt lat="50.33352" lon="1.54724">
        <ele>4</ele>
        <time>2023-06-10T10:27:55Z</time>
      </trkpt>
      <trkpt lat="50.33359" lon="1.54727">
        <ele>4</ele>
        <time>2023-06-10T10:27:57Z</time>
      </trkpt>
      <trkpt lat="50.33366" lon="1.54728">
        <ele>3.9</ele>
        <time>2023-06-10T10:27:59Z</time>
      </trkpt>
      <trkpt lat="50.33373" lon="1.54729">
        <ele>3.7</ele>
        <time>2023-06-10T10:28:01Z</time>
      </trkpt>
      <trkpt lat="50.33379" lon="1.5473">
        <ele>3.5</ele>
        <time>2023-06-10T10:28:03Z</time>
      </trkpt>
      <trkpt lat="50.33386" lon="1.54731">
        <ele>3.4</ele>
        <time>2023-06-10T10:28:05Z</time>
      </trkpt>
      <trkpt lat="50.33393" lon="1.54731">
        <ele>3.3</ele>
        <time>2023-06-10T10:28:07Z</time>
      </trkpt>
      <trkpt lat="50.33399" lon="1.54731">
        <ele>3.3</ele>
        <time>2023-06-10T10:28:09Z</time>
      </trkpt>
      <trkpt lat="50.33405" lon="1.5473">
        <ele>3.3</ele>
        <time>2023-06-10T10:28:11Z</time>
      </trkpt>
      <trkpt lat="50.3341" lon="1.54729">
        <ele>3.2</ele>
        <time>2023-06-10T10:28:13Z</time>
      </trkpt>
      <trkpt lat="50.33415" lon="1.54728">
        <ele>3.2</ele>
        <time>2023-06-10T10:28:15Z</time>
      </trkpt>
      <trkpt lat="50.3342" lon="1.54728">
        <ele>3.2</ele>
        <time>2023-06-10T10:28:17Z</time>
      </trkpt>
      <trkpt lat="50.33425" lon="1.54728">
        <ele>3.2</ele>
        <time>2023-06-10T10:28:19Z</time>
      </trkpt>
      <trkpt lat="50.3343" lon="1.5473">
        <ele>3.3</ele>
        <time>2023-06-10T10:28:21Z</time>
      </trkpt>
      <trkpt lat="50.33433" lon="1.54735">
        <ele>3.5</ele>
        <time>2023-06-10T10:28:23Z</time>
      </trkpt>
      <trkpt lat="50.33434" lon="1.54748">
        <ele>3.9</ele>
        <time>2023-06-10T10:28:27Z</time>
      </trkpt>
      <trkpt lat="50.3344" lon="1.54754">
        <ele>4</ele>
        <time>2023-06-10T10:28:31Z</time>
      </trkpt>
      <trkpt lat="50.33442" lon="1.54761">
        <ele>4</ele>
        <time>2023-06-10T10:28:35Z</time>
      </trkpt>
      <trkpt lat="50.33446" lon="1.54767">
        <ele>4</ele>
        <time>2023-06-10T10:28:43Z</time>
      </trkpt>
      <trkpt lat="50.33451" lon="1.54772">
        <ele>4</ele>
        <time>2023-06-10T10:28:49Z</time>
      </trkpt>
      <trkpt lat="50.33455" lon="1.54778">
        <ele>4</ele>
        <time>2023-06-10T10:28:55Z</time>
      </trkpt>
      <trkpt lat="50.33459" lon="1.54784">
        <ele>4.1</ele>
        <time>2023-06-10T10:29:01Z</time>
      </trkpt>
      <trkpt lat="50.33462" lon="1.54792">
        <ele>4.2</ele>
        <time>2023-06-10T10:29:07Z</time>
      </trkpt>
      <trkpt lat="50.33465" lon="1.548">
        <ele>4.2</ele>
        <time>2023-06-10T10:29:13Z</time>
      </trkpt>
      <trkpt lat="50.33465" lon="1.54807">
        <ele>4.3</ele>
        <time>2023-06-10T10:29:19Z</time>
      </trkpt>
      <trkpt lat="50.33464" lon="1.54814">
        <ele>4.6</ele>
        <time>2023-06-10T10:29:25Z</time>
      </trkpt>
      <trkpt lat="50.33463" lon="1.54822">
        <ele>4.9</ele>
        <time>2023-06-10T10:29:31Z</time>
      </trkpt>
      <trkpt lat="50.33462" lon="1.54829">
        <ele>5.2</ele>
        <time>2023-06-10T10:29:41Z</time>
      </trkpt>
      <trkpt lat="50.33461" lon="1.54836">
        <ele>5.8</ele>
        <time>2023-06-10T10:29:51Z</time>
      </trkpt>
      <trkpt lat="50.3346" lon="1.54845">
        <ele>6.9</ele>
        <time>2023-06-10T10:29:59Z</time>
      </trkpt>
      <trkpt lat="50.3346" lon="1.54853">
        <ele>7.9</ele>
        <time>2023-06-10T10:30:07Z</time>
      </trkpt>
      <trkpt lat="50.33459" lon="1.5486">
        <ele>8.8</ele>
        <time>2023-06-10T10:30:13Z</time>
      </trkpt>
      <trkpt lat="50.33457" lon="1.54868">
        <ele>9.4</ele>
        <time>2023-06-10T10:30:21Z</time>
      </trkpt>
      <trkpt lat="50.33457" lon="1.54876">
        <ele>9.8</ele>
        <time>2023-06-10T10:30:29Z</time>
      </trkpt>
      <trkpt lat="50.33457" lon="1.54883">
        <ele>10.2</ele>
        <time>2023-06-10T10:30:37Z</time>
      </trkpt>
      <trkpt lat="50.3346" lon="1.5489">
        <ele>10.4</ele>
        <time>2023-06-10T10:30:47Z</time>
      </trkpt>
      <trkpt lat="50.33464" lon="1.54894">
        <ele>10.4</ele>
        <time>2023-06-10T10:30:53Z</time>
      </trkpt>
      <trkpt lat="50.33469" lon="1.54899">
        <ele>10.4</ele>
        <time>2023-06-10T10:30:59Z</time>
      </trkpt>
      <trkpt lat="50.33475" lon="1.54901">
        <ele>10.4</ele>
        <time>2023-06-10T10:31:13Z</time>
      </trkpt>
      <trkpt lat="50.33483" lon="1.549">
        <ele>10.2</ele>
        <time>2023-06-10T10:31:17Z</time>
      </trkpt>
      <trkpt lat="50.33488" lon="1.549">
        <ele>10.2</ele>
        <time>2023-06-10T10:31:19Z</time>
      </trkpt>
      <trkpt lat="50.33493" lon="1.54901">
        <ele>10.1</ele>
        <time>2023-06-10T10:31:21Z</time>
      </trkpt>
      <trkpt lat="50.33498" lon="1.54904">
        <ele>10</ele>
        <time>2023-06-10T10:31:23Z</time>
      </trkpt>
      <trkpt lat="50.33503" lon="1.54907">
        <ele>10</ele>
        <time>2023-06-10T10:31:25Z</time>
      </trkpt>
      <trkpt lat="50.33509" lon="1.54908">
        <ele>10</ele>
        <time>2023-06-10T10:31:27Z</time>
      </trkpt>
      <trkpt lat="50.33516" lon="1.5491">
        <ele>10</ele>
        <time>2023-06-10T10:31:29Z</time>
      </trkpt>
      <trkpt lat="50.33522" lon="1.54912">
        <ele>10</ele>
        <time>2023-06-10T10:31:31Z</time>
      </trkpt>
      <trkpt lat="50.33528" lon="1.54913">
        <ele>10</ele>
        <time>2023-06-10T10:31:33Z</time>
      </trkpt>
      <trkpt lat="50.33534" lon="1.54915">
        <ele>10</ele>
        <time>2023-06-10T10:31:35Z</time>
      </trkpt>
      <trkpt lat="50.3354" lon="1.54917">
        <ele>10</ele>
        <time>2023-06-10T10:31:37Z</time>
      </trkpt>
      <trkpt lat="50.33548" lon="1.54919">
        <ele>10</ele>
        <time>2023-06-10T10:31:39Z</time>
      </trkpt>
      <trkpt lat="50.33555" lon="1.5492">
        <ele>9.9</ele>
        <time>2023-06-10T10:31:41Z</time>
      </trkpt>
      <trkpt lat="50.33562" lon="1.54922">
        <ele>9.9</ele>
        <time>2023-06-10T10:31:43Z</time>
      </trkpt>
      <trkpt lat="50.33569" lon="1.54923">
        <ele>9.9</ele>
        <time>2023-06-10T10:31:45Z</time>
      </trkpt>
      <trkpt lat="50.33575" lon="1.54925">
        <ele>9.9</ele>
        <time>2023-06-10T10:31:47Z</time>
      </trkpt>
      <trkpt lat="50.33581" lon="1.54926">
        <ele>10</ele>
        <time>2023-06-10T10:31:49Z</time>
      </trkpt>
      <trkpt lat="50.33587" lon="1.54929">
        <ele>10.1</ele>
        <time>2023-06-10T10:31:51Z</time>
      </trkpt>
      <trkpt lat="50.33593" lon="1.5493">
        <ele>10.2</ele>
        <time>2023-06-10T10:31:53Z</time>
      </trkpt>
      <trkpt lat="50.336" lon="1.54933">
        <ele>10.3</ele>
        <time>2023-06-10T10:31:55Z</time>
      </trkpt>
      <trkpt lat="50.33607" lon="1.54934">
        <ele>10.3</ele>
        <time>2023-06-10T10:31:57Z</time>
      </trkpt>
      <trkpt lat="50.33614" lon="1.54936">
        <ele>10.3</ele>
        <time>2023-06-10T10:31:59Z</time>
      </trkpt>
      <trkpt lat="50.33621" lon="1.54939">
        <ele>10.2</ele>
        <time>2023-06-10T10:32:01Z</time>
      </trkpt>
      <trkpt lat="50.33628" lon="1.54941">
        <ele>10.1</ele>
        <time>2023-06-10T10:32:03Z</time>
      </trkpt>
      <trkpt lat="50.33634" lon="1.54944">
        <ele>10</ele>
        <time>2023-06-10T10:32:05Z</time>
      </trkpt>
      <trkpt lat="50.33641" lon="1.54945">
        <ele>10</ele>
        <time>2023-06-10T10:32:07Z</time>
      </trkpt>
      <trkpt lat="50.33647" lon="1.54947">
        <ele>10.1</ele>
        <time>2023-06-10T10:32:09Z</time>
      </trkpt>
      <trkpt lat="50.33654" lon="1.54948">
        <ele>10.1</ele>
        <time>2023-06-10T10:32:11Z</time>
      </trkpt>
      <trkpt lat="50.33661" lon="1.54949">
        <ele>10</ele>
        <time>2023-06-10T10:32:13Z</time>
      </trkpt>
      <trkpt lat="50.33668" lon="1.5495">
        <ele>10</ele>
        <time>2023-06-10T10:32:15Z</time>
      </trkpt>
      <trkpt lat="50.33676" lon="1.54951">
        <ele>10.2</ele>
        <time>2023-06-10T10:32:17Z</time>
      </trkpt>
      <trkpt lat="50.33683" lon="1.54954">
        <ele>10.4</ele>
        <time>2023-06-10T10:32:19Z</time>
      </trkpt>
      <trkpt lat="50.33691" lon="1.54956">
        <ele>10.5</ele>
        <time>2023-06-10T10:32:21Z</time>
      </trkpt>
      <trkpt lat="50.337" lon="1.54958">
        <ele>10.5</ele>
        <time>2023-06-10T10:32:23Z</time>
      </trkpt>
      <trkpt lat="50.33708" lon="1.54959">
        <ele>10.5</ele>
        <time>2023-06-10T10:32:25Z</time>
      </trkpt>
      <trkpt lat="50.33716" lon="1.54961">
        <ele>10.6</ele>
        <time>2023-06-10T10:32:27Z</time>
      </trkpt>
      <trkpt lat="50.33723" lon="1.54963">
        <ele>10.7</ele>
        <time>2023-06-10T10:32:29Z</time>
      </trkpt>
      <trkpt lat="50.33729" lon="1.54965">
        <ele>10.7</ele>
        <time>2023-06-10T10:32:31Z</time>
      </trkpt>
      <trkpt lat="50.33735" lon="1.54967">
        <ele>10.8</ele>
        <time>2023-06-10T10:32:33Z</time>
      </trkpt>
      <trkpt lat="50.3374" lon="1.54968">
        <ele>10.9</ele>
        <time>2023-06-10T10:32:35Z</time>
      </trkpt>
      <trkpt lat="50.33745" lon="1.54969">
        <ele>10.9</ele>
        <time>2023-06-10T10:32:37Z</time>
      </trkpt>
      <trkpt lat="50.33751" lon="1.54971">
        <ele>11</ele>
        <time>2023-06-10T10:32:39Z</time>
      </trkpt>
      <trkpt lat="50.33758" lon="1.54973">
        <ele>11</ele>
        <time>2023-06-10T10:32:41Z</time>
      </trkpt>
      <trkpt lat="50.33765" lon="1.54974">
        <ele>10.9</ele>
        <time>2023-06-10T10:32:43Z</time>
      </trkpt>
      <trkpt lat="50.33771" lon="1.54976">
        <ele>10.9</ele>
        <time>2023-06-10T10:32:45Z</time>
      </trkpt>
      <trkpt lat="50.33779" lon="1.54978">
        <ele>11</ele>
        <time>2023-06-10T10:32:47Z</time>
      </trkpt>
      <trkpt lat="50.33786" lon="1.5498">
        <ele>10.9</ele>
        <time>2023-06-10T10:32:49Z</time>
      </trkpt>
      <trkpt lat="50.33793" lon="1.54983">
        <ele>10.8</ele>
        <time>2023-06-10T10:32:51Z</time>
      </trkpt>
      <trkpt lat="50.33801" lon="1.54984">
        <ele>10.6</ele>
        <time>2023-06-10T10:32:53Z</time>
      </trkpt>
      <trkpt lat="50.33808" lon="1.54986">
        <ele>10.5</ele>
        <time>2023-06-10T10:32:55Z</time>
      </trkpt>
      <trkpt lat="50.33817" lon="1.54988">
        <ele>10.3</ele>
        <time>2023-06-10T10:32:57Z</time>
      </trkpt>
      <trkpt lat="50.33825" lon="1.5499">
        <ele>10.1</ele>
        <time>2023-06-10T10:32:59Z</time>
      </trkpt>
      <trkpt lat="50.33833" lon="1.54993">
        <ele>10</ele>
        <time>2023-06-10T10:33:01Z</time>
      </trkpt>
      <trkpt lat="50.33841" lon="1.54996">
        <ele>10</ele>
        <time>2023-06-10T10:33:03Z</time>
      </trkpt>
      <trkpt lat="50.33849" lon="1.54997">
        <ele>10</ele>
        <time>2023-06-10T10:33:05Z</time>
      </trkpt>
      <trkpt lat="50.33855" lon="1.54999">
        <ele>10</ele>
        <time>2023-06-10T10:33:07Z</time>
      </trkpt>
      <trkpt lat="50.3386" lon="1.55">
        <ele>10</ele>
        <time>2023-06-10T10:33:09Z</time>
      </trkpt>
      <trkpt lat="50.33866" lon="1.55001">
        <ele>10</ele>
        <time>2023-06-10T10:33:13Z</time>
      </trkpt>
      <trkpt lat="50.3387" lon="1.54996">
        <ele>10</ele>
        <time>2023-06-10T10:33:43Z</time>
      </trkpt>
      <trkpt lat="50.3387" lon="1.55003">
        <ele>10</ele>
        <time>2023-06-10T10:40:37Z</time>
      </trkpt>
      <trkpt lat="50.33874" lon="1.55004">
        <ele>10</ele>
        <time>2023-06-10T10:41:05Z</time>
      </trkpt>
      <trkpt lat="50.33881" lon="1.55006">
        <ele>10</ele>
        <time>2023-06-10T10:41:11Z</time>
      </trkpt>
      <trkpt lat="50.33886" lon="1.5501">
        <ele>10</ele>
        <time>2023-06-10T10:41:15Z</time>
      </trkpt>
      <trkpt lat="50.33891" lon="1.55015">
        <ele>10</ele>
        <time>2023-06-10T10:41:21Z</time>
      </trkpt>
      <trkpt lat="50.33892" lon="1.55024">
        <ele>10</ele>
        <time>2023-06-10T10:41:27Z</time>
      </trkpt>
      <trkpt lat="50.33893" lon="1.55031">
        <ele>9.9</ele>
        <time>2023-06-10T10:41:31Z</time>
      </trkpt>
      <trkpt lat="50.33893" lon="1.55039">
        <ele>9.6</ele>
        <time>2023-06-10T10:41:35Z</time>
      </trkpt>
      <trkpt lat="50.33893" lon="1.55046">
        <ele>9.3</ele>
        <time>2023-06-10T10:41:39Z</time>
      </trkpt>
      <trkpt lat="50.33894" lon="1.55057">
        <ele>9</ele>
        <time>2023-06-10T10:41:45Z</time>
      </trkpt>
      <trkpt lat="50.33894" lon="1.55065">
        <ele>9</ele>
        <time>2023-06-10T10:41:51Z</time>
      </trkpt>
      <trkpt lat="50.33895" lon="1.55073">
        <ele>9</ele>
        <time>2023-06-10T10:41:59Z</time>
      </trkpt>
      <trkpt lat="50.33896" lon="1.55081">
        <ele>9</ele>
        <time>2023-06-10T10:42:05Z</time>
      </trkpt>
      <trkpt lat="50.33897" lon="1.5509">
        <ele>9</ele>
        <time>2023-06-10T10:42:11Z</time>
      </trkpt>
      <trkpt lat="50.339" lon="1.551">
        <ele>9</ele>
        <time>2023-06-10T10:42:19Z</time>
      </trkpt>
      <trkpt lat="50.33898" lon="1.55107">
        <ele>9</ele>
        <time>2023-06-10T10:42:29Z</time>
      </trkpt>
      <trkpt lat="50.33894" lon="1.55108">
        <ele>9</ele>
        <time>2023-06-10T10:42:35Z</time>
      </trkpt>
      <trkpt lat="50.33889" lon="1.55107">
        <ele>9</ele>
        <time>2023-06-10T10:42:39Z</time>
      </trkpt>
      <trkpt lat="50.33885" lon="1.55103">
        <ele>9</ele>
        <time>2023-06-10T10:42:45Z</time>
      </trkpt>
      <trkpt lat="50.33879" lon="1.55102">
        <ele>9</ele>
        <time>2023-06-10T10:42:51Z</time>
      </trkpt>
      <trkpt lat="50.33885" lon="1.55105">
        <ele>9</ele>
        <time>2023-06-10T10:43:15Z</time>
      </trkpt>
      <trkpt lat="50.3389" lon="1.5511">
        <ele>9</ele>
        <time>2023-06-10T10:43:19Z</time>
      </trkpt>
      <trkpt lat="50.33896" lon="1.55112">
        <ele>9</ele>
        <time>2023-06-10T10:43:21Z</time>
      </trkpt>
      <trkpt lat="50.33901" lon="1.55111">
        <ele>9</ele>
        <time>2023-06-10T10:43:23Z</time>
      </trkpt>
      <trkpt lat="50.33906" lon="1.55116">
        <ele>9.1</ele>
        <time>2023-06-10T10:43:25Z</time>
      </trkpt>
      <trkpt lat="50.33907" lon="1.55128">
        <ele>9.2</ele>
        <time>2023-06-10T10:43:29Z</time>
      </trkpt>
      <trkpt lat="50.33907" lon="1.55141">
        <ele>9.4</ele>
        <time>2023-06-10T10:43:33Z</time>
      </trkpt>
      <trkpt lat="50.33908" lon="1.55153">
        <ele>9.7</ele>
        <time>2023-06-10T10:43:37Z</time>
      </trkpt>
      <trkpt lat="50.33909" lon="1.55166">
        <ele>10</ele>
        <time>2023-06-10T10:43:41Z</time>
      </trkpt>
      <trkpt lat="50.3391" lon="1.55174">
        <ele>10</ele>
        <time>2023-06-10T10:43:43Z</time>
      </trkpt>
      <trkpt lat="50.33909" lon="1.55181">
        <ele>10</ele>
        <time>2023-06-10T10:43:45Z</time>
      </trkpt>
      <trkpt lat="50.33907" lon="1.55195">
        <ele>10</ele>
        <time>2023-06-10T10:43:49Z</time>
      </trkpt>
      <trkpt lat="50.33908" lon="1.55208">
        <ele>10.2</ele>
        <time>2023-06-10T10:43:53Z</time>
      </trkpt>
      <trkpt lat="50.33909" lon="1.55221">
        <ele>10.3</ele>
        <time>2023-06-10T10:43:57Z</time>
      </trkpt>
      <trkpt lat="50.33909" lon="1.55235">
        <ele>10.6</ele>
        <time>2023-06-10T10:44:01Z</time>
      </trkpt>
      <trkpt lat="50.33909" lon="1.55243">
        <ele>10.8</ele>
        <time>2023-06-10T10:44:03Z</time>
      </trkpt>
      <trkpt lat="50.3391" lon="1.5525">
        <ele>11</ele>
        <time>2023-06-10T10:44:05Z</time>
      </trkpt>
      <trkpt lat="50.3391" lon="1.55259">
        <ele>11</ele>
        <time>2023-06-10T10:44:07Z</time>
      </trkpt>
      <trkpt lat="50.33911" lon="1.55271">
        <ele>11</ele>
        <time>2023-06-10T10:44:11Z</time>
      </trkpt>
      <trkpt lat="50.3391" lon="1.55279">
        <ele>11</ele>
        <time>2023-06-10T10:44:15Z</time>
      </trkpt>
      <trkpt lat="50.33907" lon="1.55286">
        <ele>11</ele>
        <time>2023-06-10T10:44:19Z</time>
      </trkpt>
      <trkpt lat="50.33905" lon="1.55293">
        <ele>11</ele>
        <time>2023-06-10T10:44:37Z</time>
      </trkpt>
      <trkpt lat="50.33905" lon="1.553">
        <ele>11</ele>
        <time>2023-06-10T10:44:49Z</time>
      </trkpt>
      <trkpt lat="50.3391" lon="1.55306">
        <ele>11</ele>
        <time>2023-06-10T10:44:55Z</time>
      </trkpt>
      <trkpt lat="50.33913" lon="1.55312">
        <ele>11.2</ele>
        <time>2023-06-10T10:45:03Z</time>
      </trkpt>
      <trkpt lat="50.33914" lon="1.55321">
        <ele>11.5</ele>
        <time>2023-06-10T10:45:07Z</time>
      </trkpt>
      <trkpt lat="50.33914" lon="1.55335">
        <ele>12</ele>
        <time>2023-06-10T10:45:11Z</time>
      </trkpt>
      <trkpt lat="50.33915" lon="1.55348">
        <ele>12</ele>
        <time>2023-06-10T10:45:15Z</time>
      </trkpt>
      <trkpt lat="50.33916" lon="1.55357">
        <ele>12</ele>
        <time>2023-06-10T10:45:19Z</time>
      </trkpt>
      <trkpt lat="50.33916" lon="1.55365">
        <ele>12</ele>
        <time>2023-06-10T10:45:23Z</time>
      </trkpt>
      <trkpt lat="50.33916" lon="1.55379">
        <ele>12</ele>
        <time>2023-06-10T10:45:27Z</time>
      </trkpt>
      <trkpt lat="50.33917" lon="1.55386">
        <ele>12</ele>
        <time>2023-06-10T10:45:29Z</time>
      </trkpt>
      <trkpt lat="50.33916" lon="1.55394">
        <ele>12</ele>
        <time>2023-06-10T10:45:31Z</time>
      </trkpt>
      <trkpt lat="50.33914" lon="1.55403">
        <ele>12</ele>
        <time>2023-06-10T10:45:35Z</time>
      </trkpt>
      <trkpt lat="50.33914" lon="1.55415">
        <ele>12.1</ele>
        <time>2023-06-10T10:45:59Z</time>
      </trkpt>
      <trkpt lat="50.33917" lon="1.55428">
        <ele>12.4</ele>
        <time>2023-06-10T10:46:03Z</time>
      </trkpt>
      <trkpt lat="50.33917" lon="1.55436">
        <ele>12.7</ele>
        <time>2023-06-10T10:46:05Z</time>
      </trkpt>
      <trkpt lat="50.33918" lon="1.55444">
        <ele>13</ele>
        <time>2023-06-10T10:46:07Z</time>
      </trkpt>
      <trkpt lat="50.33919" lon="1.55453">
        <ele>13</ele>
        <time>2023-06-10T10:46:09Z</time>
      </trkpt>
      <trkpt lat="50.33921" lon="1.55463">
        <ele>13</ele>
        <time>2023-06-10T10:46:11Z</time>
      </trkpt>
      <trkpt lat="50.33921" lon="1.55472">
        <ele>13</ele>
        <time>2023-06-10T10:46:13Z</time>
      </trkpt>
      <trkpt lat="50.33922" lon="1.55479">
        <ele>13</ele>
        <time>2023-06-10T10:46:15Z</time>
      </trkpt>
      <trkpt lat="50.3392" lon="1.5549">
        <ele>13</ele>
        <time>2023-06-10T10:46:19Z</time>
      </trkpt>
      <trkpt lat="50.3392" lon="1.55503">
        <ele>13</ele>
        <time>2023-06-10T10:46:23Z</time>
      </trkpt>
      <trkpt lat="50.33921" lon="1.5551">
        <ele>13</ele>
        <time>2023-06-10T10:46:25Z</time>
      </trkpt>
      <trkpt lat="50.33921" lon="1.55519">
        <ele>13</ele>
        <time>2023-06-10T10:46:27Z</time>
      </trkpt>
      <trkpt lat="50.33922" lon="1.55529">
        <ele>13</ele>
        <time>2023-06-10T10:46:29Z</time>
      </trkpt>
      <trkpt lat="50.33924" lon="1.55539">
        <ele>13</ele>
        <time>2023-06-10T10:46:31Z</time>
      </trkpt>
      <trkpt lat="50.33924" lon="1.5555">
        <ele>13</ele>
        <time>2023-06-10T10:46:33Z</time>
      </trkpt>
      <trkpt lat="50.33925" lon="1.5556">
        <ele>13</ele>
        <time>2023-06-10T10:46:35Z</time>
      </trkpt>
      <trkpt lat="50.33926" lon="1.55569">
        <ele>13</ele>
        <time>2023-06-10T10:46:37Z</time>
      </trkpt>
      <trkpt lat="50.33927" lon="1.55578">
        <ele>13</ele>
        <time>2023-06-10T10:46:39Z</time>
      </trkpt>
      <trkpt lat="50.33929" lon="1.55584">
        <ele>13</ele>
        <time>2023-06-10T10:46:41Z</time>
      </trkpt>
      <trkpt lat="50.33931" lon="1.55591">
        <ele>13</ele>
        <time>2023-06-10T10:46:43Z</time>
      </trkpt>
      <trkpt lat="50.33931" lon="1.55602">
        <ele>13</ele>
        <time>2023-06-10T10:46:47Z</time>
      </trkpt>
      <trkpt lat="50.33933" lon="1.55608">
        <ele>13</ele>
        <time>2023-06-10T10:46:57Z</time>
      </trkpt>
      <trkpt lat="50.33936" lon="1.55604">
        <ele>13</ele>
        <time>2023-06-10T10:47:01Z</time>
      </trkpt>
      <trkpt lat="50.33941" lon="1.55604">
        <ele>13</ele>
        <time>2023-06-10T10:47:07Z</time>
      </trkpt>
      <trkpt lat="50.3394" lon="1.55611">
        <ele>13</ele>
        <time>2023-06-10T10:48:37Z</time>
      </trkpt>
      <trkpt lat="50.33935" lon="1.5561">
        <ele>13</ele>
        <time>2023-06-10T10:50:19Z</time>
      </trkpt>
      <trkpt lat="50.33939" lon="1.55604">
        <ele>13</ele>
        <time>2023-06-10T10:51:33Z</time>
      </trkpt>
      <trkpt lat="50.33941" lon="1.55597">
        <ele>13</ele>
        <time>2023-06-10T10:57:51Z</time>
      </trkpt>
      <trkpt lat="50.33937" lon="1.55592">
        <ele>13</ele>
        <time>2023-06-10T10:57:59Z</time>
      </trkpt>
      <trkpt lat="50.33932" lon="1.55587">
        <ele>13</ele>
        <time>2023-06-10T10:58:05Z</time>
      </trkpt>
      <trkpt lat="50.33928" lon="1.55581">
        <ele>13</ele>
        <time>2023-06-10T10:58:11Z</time>
      </trkpt>
      <trkpt lat="50.33923" lon="1.5558">
        <ele>13</ele>
        <time>2023-06-10T10:58:15Z</time>
      </trkpt>
      <trkpt lat="50.33919" lon="1.5558">
        <ele>13</ele>
        <time>2023-06-10T10:58:19Z</time>
      </trkpt>
      <trkpt lat="50.33913" lon="1.55581">
        <ele>13</ele>
        <time>2023-06-10T10:58:23Z</time>
      </trkpt>
      <trkpt lat="50.33909" lon="1.55583">
        <ele>13</ele>
        <time>2023-06-10T10:58:27Z</time>
      </trkpt>
      <trkpt lat="50.33904" lon="1.55583">
        <ele>13</ele>
        <time>2023-06-10T10:58:31Z</time>
      </trkpt>
      <trkpt lat="50.33899" lon="1.55583">
        <ele>13</ele>
        <time>2023-06-10T10:58:35Z</time>
      </trkpt>
      <trkpt lat="50.33894" lon="1.55583">
        <ele>13</ele>
        <time>2023-06-10T10:58:39Z</time>
      </trkpt>
      <trkpt lat="50.33888" lon="1.5558">
        <ele>13</ele>
        <time>2023-06-10T10:58:45Z</time>
      </trkpt>
      <trkpt lat="50.33885" lon="1.55573">
        <ele>13</ele>
        <time>2023-06-10T10:58:51Z</time>
      </trkpt>
      <trkpt lat="50.33885" lon="1.55565">
        <ele>13</ele>
        <time>2023-06-10T10:58:59Z</time>
      </trkpt>
      <trkpt lat="50.33885" lon="1.55556">
        <ele>13</ele>
        <time>2023-06-10T10:59:03Z</time>
      </trkpt>
      <trkpt lat="50.33885" lon="1.55548">
        <ele>13</ele>
        <time>2023-06-10T10:59:05Z</time>
      </trkpt>
      <trkpt lat="50.33884" lon="1.55539">
        <ele>13</ele>
        <time>2023-06-10T10:59:07Z</time>
      </trkpt>
      <trkpt lat="50.33883" lon="1.55532">
        <ele>13</ele>
        <time>2023-06-10T10:59:09Z</time>
      </trkpt>
      <trkpt lat="50.33881" lon="1.55525">
        <ele>13</ele>
        <time>2023-06-10T10:59:11Z</time>
      </trkpt>
      <trkpt lat="50.33879" lon="1.55518">
        <ele>13</ele>
        <time>2023-06-10T10:59:13Z</time>
      </trkpt>
      <trkpt lat="50.33877" lon="1.55509">
        <ele>13</ele>
        <time>2023-06-10T10:59:15Z</time>
      </trkpt>
      <trkpt lat="50.33873" lon="1.55501">
        <ele>13</ele>
        <time>2023-06-10T10:59:17Z</time>
      </trkpt>
      <trkpt lat="50.3387" lon="1.55495">
        <ele>13.1</ele>
        <time>2023-06-10T10:59:19Z</time>
      </trkpt>
      <trkpt lat="50.33867" lon="1.5549">
        <ele>13.3</ele>
        <time>2023-06-10T10:59:21Z</time>
      </trkpt>
      <trkpt lat="50.33863" lon="1.55484">
        <ele>13.5</ele>
        <time>2023-06-10T10:59:23Z</time>
      </trkpt>
      <trkpt lat="50.33859" lon="1.55477">
        <ele>13.8</ele>
        <time>2023-06-10T10:59:25Z</time>
      </trkpt>
      <trkpt lat="50.33855" lon="1.55472">
        <ele>14</ele>
        <time>2023-06-10T10:59:27Z</time>
      </trkpt>
      <trkpt lat="50.33851" lon="1.55468">
        <ele>14</ele>
        <time>2023-06-10T10:59:29Z</time>
      </trkpt>
      <trkpt lat="50.33843" lon="1.55463">
        <ele>14</ele>
        <time>2023-06-10T10:59:33Z</time>
      </trkpt>
      <trkpt lat="50.33836" lon="1.55463">
        <ele>14</ele>
        <time>2023-06-10T10:59:37Z</time>
      </trkpt>
      <trkpt lat="50.33842" lon="1.55467">
        <ele>14</ele>
        <time>2023-06-10T11:00:09Z</time>
      </trkpt>
      <trkpt lat="50.33846" lon="1.5547">
        <ele>14</ele>
        <time>2023-06-10T11:00:11Z</time>
      </trkpt>
      <trkpt lat="50.33851" lon="1.55474">
        <ele>13.9</ele>
        <time>2023-06-10T11:00:13Z</time>
      </trkpt>
      <trkpt lat="50.33856" lon="1.55478">
        <ele>13.8</ele>
        <time>2023-06-10T11:00:15Z</time>
      </trkpt>
      <trkpt lat="50.33859" lon="1.55484">
        <ele>13.6</ele>
        <time>2023-06-10T11:00:17Z</time>
      </trkpt>
      <trkpt lat="50.33863" lon="1.55489">
        <ele>13.4</ele>
        <time>2023-06-10T11:00:19Z</time>
      </trkpt>
      <trkpt lat="50.33867" lon="1.55494">
        <ele>13.2</ele>
        <time>2023-06-10T11:00:21Z</time>
      </trkpt>
      <trkpt lat="50.3387" lon="1.55499">
        <ele>13</ele>
        <time>2023-06-10T11:00:23Z</time>
      </trkpt>
      <trkpt lat="50.33876" lon="1.55509">
        <ele>13</ele>
        <time>2023-06-10T11:00:27Z</time>
      </trkpt>
      <trkpt lat="50.33878" lon="1.55515">
        <ele>13</ele>
        <time>2023-06-10T11:00:29Z</time>
      </trkpt>
      <trkpt lat="50.3388" lon="1.55523">
        <ele>13</ele>
        <time>2023-06-10T11:00:31Z</time>
      </trkpt>
      <trkpt lat="50.33881" lon="1.55532">
        <ele>13</ele>
        <time>2023-06-10T11:00:33Z</time>
      </trkpt>
      <trkpt lat="50.33882" lon="1.55541">
        <ele>13</ele>
        <time>2023-06-10T11:00:35Z</time>
      </trkpt>
      <trkpt lat="50.33882" lon="1.5555">
        <ele>13</ele>
        <time>2023-06-10T11:00:37Z</time>
      </trkpt>
      <trkpt lat="50.33882" lon="1.55557">
        <ele>13</ele>
        <time>2023-06-10T11:00:39Z</time>
      </trkpt>
      <trkpt lat="50.33882" lon="1.55565">
        <ele>13</ele>
        <time>2023-06-10T11:00:41Z</time>
      </trkpt>
      <trkpt lat="50.3388" lon="1.55577">
        <ele>13</ele>
        <time>2023-06-10T11:00:45Z</time>
      </trkpt>
      <trkpt lat="50.33875" lon="1.55582">
        <ele>13</ele>
        <time>2023-06-10T11:00:49Z</time>
      </trkpt>
      <trkpt lat="50.3388" lon="1.55584">
        <ele>13</ele>
        <time>2023-06-10T11:01:07Z</time>
      </trkpt>
      <trkpt lat="50.33886" lon="1.55584">
        <ele>13</ele>
        <time>2023-06-10T11:01:11Z</time>
      </trkpt>
      <trkpt lat="50.33891" lon="1.55583">
        <ele>13</ele>
        <time>2023-06-10T11:01:13Z</time>
      </trkpt>
      <trkpt lat="50.33897" lon="1.55583">
        <ele>13</ele>
        <time>2023-06-10T11:01:15Z</time>
      </trkpt>
      <trkpt lat="50.33904" lon="1.5558">
        <ele>13</ele>
        <time>2023-06-10T11:01:17Z</time>
      </trkpt>
      <trkpt lat="50.3391" lon="1.55579">
        <ele>13</ele>
        <time>2023-06-10T11:01:19Z</time>
      </trkpt>
      <trkpt lat="50.33915" lon="1.55578">
        <ele>13</ele>
        <time>2023-06-10T11:01:21Z</time>
      </trkpt>
      <trkpt lat="50.33921" lon="1.55577">
        <ele>13</ele>
        <time>2023-06-10T11:01:23Z</time>
      </trkpt>
      <trkpt lat="50.33927" lon="1.55578">
        <ele>13</ele>
        <time>2023-06-10T11:01:25Z</time>
      </trkpt>
      <trkpt lat="50.33931" lon="1.55577">
        <ele>13</ele>
        <time>2023-06-10T11:01:27Z</time>
      </trkpt>
      <trkpt lat="50.33937" lon="1.55576">
        <ele>13</ele>
        <time>2023-06-10T11:01:29Z</time>
      </trkpt>
      <trkpt lat="50.33943" lon="1.55575">
        <ele>13</ele>
        <time>2023-06-10T11:01:31Z</time>
      </trkpt>
      <trkpt lat="50.33949" lon="1.55574">
        <ele>13</ele>
        <time>2023-06-10T11:01:33Z</time>
      </trkpt>
      <trkpt lat="50.33955" lon="1.55573">
        <ele>13</ele>
        <time>2023-06-10T11:01:35Z</time>
      </trkpt>
      <trkpt lat="50.3396" lon="1.55572">
        <ele>13</ele>
        <time>2023-06-10T11:01:37Z</time>
      </trkpt>
      <trkpt lat="50.33969" lon="1.5557">
        <ele>13</ele>
        <time>2023-06-10T11:01:41Z</time>
      </trkpt>
      <trkpt lat="50.33975" lon="1.5557">
        <ele>13.4</ele>
        <time>2023-06-10T11:01:45Z</time>
      </trkpt>
      <trkpt lat="50.33977" lon="1.55577">
        <ele>13.6</ele>
        <time>2023-06-10T11:01:53Z</time>
      </trkpt>
      <trkpt lat="50.33972" lon="1.55577">
        <ele>13</ele>
        <time>2023-06-10T11:31:47Z</time>
      </trkpt>
      <trkpt lat="50.33967" lon="1.55574">
        <ele>13</ele>
        <time>2023-06-10T11:31:53Z</time>
      </trkpt>
      <trkpt lat="50.33962" lon="1.55575">
        <ele>13</ele>
        <time>2023-06-10T11:31:59Z</time>
      </trkpt>
      <trkpt lat="50.33956" lon="1.55575">
        <ele>13</ele>
        <time>2023-06-10T11:32:05Z</time>
      </trkpt>
      <trkpt lat="50.3395" lon="1.55574">
        <ele>13</ele>
        <time>2023-06-10T11:32:11Z</time>
      </trkpt>
      <trkpt lat="50.33945" lon="1.55573">
        <ele>13</ele>
        <time>2023-06-10T11:32:17Z</time>
      </trkpt>
      <trkpt lat="50.3394" lon="1.5557">
        <ele>13</ele>
        <time>2023-06-10T11:32:39Z</time>
      </trkpt>
      <trkpt lat="50.33939" lon="1.55563">
        <ele>13</ele>
        <time>2023-06-10T11:32:49Z</time>
      </trkpt>
      <trkpt lat="50.33939" lon="1.55552">
        <ele>13</ele>
        <time>2023-06-10T11:32:55Z</time>
      </trkpt>
      <trkpt lat="50.33938" lon="1.55544">
        <ele>13</ele>
        <time>2023-06-10T11:33:01Z</time>
      </trkpt>
      <trkpt lat="50.3394" lon="1.55537">
        <ele>13</ele>
        <time>2023-06-10T11:33:07Z</time>
      </trkpt>
      <trkpt lat="50.33941" lon="1.5553">
        <ele>13</ele>
        <time>2023-06-10T11:33:53Z</time>
      </trkpt>
      <trkpt lat="50.3394" lon="1.55518">
        <ele>13</ele>
        <time>2023-06-10T11:34:01Z</time>
      </trkpt>
      <trkpt lat="50.33938" lon="1.55508">
        <ele>13</ele>
        <time>2023-06-10T11:34:05Z</time>
      </trkpt>
      <trkpt lat="50.33936" lon="1.55498">
        <ele>13</ele>
        <time>2023-06-10T11:34:09Z</time>
      </trkpt>
      <trkpt lat="50.33933" lon="1.55487">
        <ele>13</ele>
        <time>2023-06-10T11:34:13Z</time>
      </trkpt>
      <trkpt lat="50.33931" lon="1.55477">
        <ele>13</ele>
        <time>2023-06-10T11:34:19Z</time>
      </trkpt>
      <trkpt lat="50.33932" lon="1.55467">
        <ele>13</ele>
        <time>2023-06-10T11:34:23Z</time>
      </trkpt>
      <trkpt lat="50.33933" lon="1.55457">
        <ele>13</ele>
        <time>2023-06-10T11:34:27Z</time>
      </trkpt>
      <trkpt lat="50.33932" lon="1.55448">
        <ele>13</ele>
        <time>2023-06-10T11:34:35Z</time>
      </trkpt>
      <trkpt lat="50.3393" lon="1.55437">
        <ele>12.9</ele>
        <time>2023-06-10T11:35:13Z</time>
      </trkpt>
      <trkpt lat="50.33929" lon="1.55423">
        <ele>12.6</ele>
        <time>2023-06-10T11:35:17Z</time>
      </trkpt>
      <trkpt lat="50.33929" lon="1.55414">
        <ele>12.4</ele>
        <time>2023-06-10T11:35:19Z</time>
      </trkpt>
      <trkpt lat="50.33927" lon="1.55407">
        <ele>12.4</ele>
        <time>2023-06-10T11:35:21Z</time>
      </trkpt>
      <trkpt lat="50.33924" lon="1.55402">
        <ele>12.3</ele>
        <time>2023-06-10T11:35:23Z</time>
      </trkpt>
      <trkpt lat="50.3392" lon="1.55394">
        <ele>12.1</ele>
        <time>2023-06-10T11:35:27Z</time>
      </trkpt>
      <trkpt lat="50.33915" lon="1.55389">
        <ele>12</ele>
        <time>2023-06-10T11:35:31Z</time>
      </trkpt>
      <trkpt lat="50.3391" lon="1.55388">
        <ele>12</ele>
        <time>2023-06-10T11:35:39Z</time>
      </trkpt>
      <trkpt lat="50.33917" lon="1.55385">
        <ele>12</ele>
        <time>2023-06-10T11:36:23Z</time>
      </trkpt>
      <trkpt lat="50.33913" lon="1.55382">
        <ele>12</ele>
        <time>2023-06-10T11:49:41Z</time>
      </trkpt>
      <trkpt lat="50.33914" lon="1.55389">
        <ele>12</ele>
        <time>2023-06-10T11:50:21Z</time>
      </trkpt>
      <trkpt lat="50.33918" lon="1.55384">
        <ele>12</ele>
        <time>2023-06-10T11:50:35Z</time>
      </trkpt>
      <trkpt lat="50.33924" lon="1.55381">
        <ele>12.2</ele>
        <time>2023-06-10T11:50:47Z</time>
      </trkpt>
      <trkpt lat="50.33924" lon="1.55374">
        <ele>12.1</ele>
        <time>2023-06-10T11:50:53Z</time>
      </trkpt>
      <trkpt lat="50.33924" lon="1.55359">
        <ele>12</ele>
        <time>2023-06-10T11:50:57Z</time>
      </trkpt>
      <trkpt lat="50.33923" lon="1.55349">
        <ele>12</ele>
        <time>2023-06-10T11:50:59Z</time>
      </trkpt>
      <trkpt lat="50.33923" lon="1.55338">
        <ele>12</ele>
        <time>2023-06-10T11:51:01Z</time>
      </trkpt>
      <trkpt lat="50.33922" lon="1.55328">
        <ele>11.8</ele>
        <time>2023-06-10T11:51:03Z</time>
      </trkpt>
      <trkpt lat="50.33921" lon="1.55317">
        <ele>11.4</ele>
        <time>2023-06-10T11:51:05Z</time>
      </trkpt>
      <trkpt lat="50.3392" lon="1.55306">
        <ele>11</ele>
        <time>2023-06-10T11:51:07Z</time>
      </trkpt>
      <trkpt lat="50.33919" lon="1.55295">
        <ele>11</ele>
        <time>2023-06-10T11:51:09Z</time>
      </trkpt>
      <trkpt lat="50.33919" lon="1.55282">
        <ele>10.9</ele>
        <time>2023-06-10T11:51:11Z</time>
      </trkpt>
      <trkpt lat="50.33918" lon="1.5527">
        <ele>11</ele>
        <time>2023-06-10T11:51:13Z</time>
      </trkpt>
      <trkpt lat="50.33918" lon="1.55257">
        <ele>11</ele>
        <time>2023-06-10T11:51:15Z</time>
      </trkpt>
      <trkpt lat="50.33918" lon="1.55244">
        <ele>10.8</ele>
        <time>2023-06-10T11:51:17Z</time>
      </trkpt>
      <trkpt lat="50.33918" lon="1.55231">
        <ele>10.4</ele>
        <time>2023-06-10T11:51:19Z</time>
      </trkpt>
      <trkpt lat="50.33917" lon="1.55218">
        <ele>10</ele>
        <time>2023-06-10T11:51:21Z</time>
      </trkpt>
      <trkpt lat="50.33917" lon="1.55205">
        <ele>10</ele>
        <time>2023-06-10T11:51:23Z</time>
      </trkpt>
      <trkpt lat="50.33917" lon="1.55191">
        <ele>10</ele>
        <time>2023-06-10T11:51:25Z</time>
      </trkpt>
      <trkpt lat="50.33915" lon="1.55178">
        <ele>10</ele>
        <time>2023-06-10T11:51:27Z</time>
      </trkpt>
      <trkpt lat="50.33914" lon="1.55167">
        <ele>10</ele>
        <time>2023-06-10T11:51:29Z</time>
      </trkpt>
      <trkpt lat="50.33915" lon="1.55158">
        <ele>9.7</ele>
        <time>2023-06-10T11:51:33Z</time>
      </trkpt>
      <trkpt lat="50.33914" lon="1.55145">
        <ele>9.3</ele>
        <time>2023-06-10T11:51:37Z</time>
      </trkpt>
      <trkpt lat="50.33913" lon="1.55136">
        <ele>9.1</ele>
        <time>2023-06-10T11:51:39Z</time>
      </trkpt>
      <trkpt lat="50.33913" lon="1.55127">
        <ele>9.1</ele>
        <time>2023-06-10T11:51:41Z</time>
      </trkpt>
      <trkpt lat="50.33913" lon="1.55116">
        <ele>9</ele>
        <time>2023-06-10T11:51:43Z</time>
      </trkpt>
      <trkpt lat="50.33912" lon="1.55104">
        <ele>9</ele>
        <time>2023-06-10T11:51:45Z</time>
      </trkpt>
      <trkpt lat="50.33912" lon="1.55092">
        <ele>9</ele>
        <time>2023-06-10T11:51:47Z</time>
      </trkpt>
      <trkpt lat="50.33911" lon="1.55081">
        <ele>9</ele>
        <time>2023-06-10T11:51:49Z</time>
      </trkpt>
      <trkpt lat="50.3391" lon="1.55071">
        <ele>9</ele>
        <time>2023-06-10T11:51:51Z</time>
      </trkpt>
      <trkpt lat="50.3391" lon="1.55062">
        <ele>9</ele>
        <time>2023-06-10T11:51:53Z</time>
      </trkpt>
      <trkpt lat="50.3391" lon="1.55051">
        <ele>9.1</ele>
        <time>2023-06-10T11:51:55Z</time>
      </trkpt>
      <trkpt lat="50.33911" lon="1.55042">
        <ele>9.5</ele>
        <time>2023-06-10T11:51:57Z</time>
      </trkpt>
      <trkpt lat="50.33911" lon="1.55032">
        <ele>9.9</ele>
        <time>2023-06-10T11:51:59Z</time>
      </trkpt>
      <trkpt lat="50.33911" lon="1.55021">
        <ele>9.8</ele>
        <time>2023-06-10T11:52:01Z</time>
      </trkpt>
      <trkpt lat="50.33909" lon="1.55013">
        <ele>9.6</ele>
        <time>2023-06-10T11:52:03Z</time>
      </trkpt>
      <trkpt lat="50.33905" lon="1.55006">
        <ele>9.5</ele>
        <time>2023-06-10T11:52:05Z</time>
      </trkpt>
      <trkpt lat="50.33898" lon="1.54999">
        <ele>9.7</ele>
        <time>2023-06-10T11:52:09Z</time>
      </trkpt>
      <trkpt lat="50.33893" lon="1.54995">
        <ele>9.9</ele>
        <time>2023-06-10T11:52:11Z</time>
      </trkpt>
      <trkpt lat="50.33888" lon="1.5499">
        <ele>10</ele>
        <time>2023-06-10T11:52:13Z</time>
      </trkpt>
      <trkpt lat="50.33883" lon="1.54987">
        <ele>10</ele>
        <time>2023-06-10T11:52:15Z</time>
      </trkpt>
      <trkpt lat="50.33879" lon="1.54987">
        <ele>10</ele>
        <time>2023-06-10T11:52:17Z</time>
      </trkpt>
      <trkpt lat="50.33875" lon="1.5499">
        <ele>10</ele>
        <time>2023-06-10T11:52:21Z</time>
      </trkpt>
      <trkpt lat="50.33877" lon="1.54983">
        <ele>10</ele>
        <time>2023-06-10T11:59:53Z</time>
      </trkpt>
      <trkpt lat="50.33881" lon="1.54981">
        <ele>10</ele>
        <time>2023-06-10T11:59:57Z</time>
      </trkpt>
      <trkpt lat="50.33888" lon="1.54983">
        <ele>10</ele>
        <time>2023-06-10T12:00:03Z</time>
      </trkpt>
      <trkpt lat="50.33892" lon="1.54978">
        <ele>9.9</ele>
        <time>2023-06-10T12:00:07Z</time>
      </trkpt>
      <trkpt lat="50.33897" lon="1.54976">
        <ele>9.7</ele>
        <time>2023-06-10T12:00:11Z</time>
      </trkpt>
      <trkpt lat="50.33902" lon="1.54979">
        <ele>9.5</ele>
        <time>2023-06-10T12:00:15Z</time>
      </trkpt>
      <trkpt lat="50.33905" lon="1.54985">
        <ele>9.4</ele>
        <time>2023-06-10T12:00:19Z</time>
      </trkpt>
      <trkpt lat="50.33907" lon="1.54992">
        <ele>9.3</ele>
        <time>2023-06-10T12:00:23Z</time>
      </trkpt>
      <trkpt lat="50.33909" lon="1.55002">
        <ele>9.3</ele>
        <time>2023-06-10T12:00:27Z</time>
      </trkpt>
      <trkpt lat="50.33915" lon="1.55005">
        <ele>9.3</ele>
        <time>2023-06-10T12:00:31Z</time>
      </trkpt>
      <trkpt lat="50.3392" lon="1.55007">
        <ele>9.4</ele>
        <time>2023-06-10T12:00:35Z</time>
      </trkpt>
      <trkpt lat="50.33926" lon="1.5501">
        <ele>9.6</ele>
        <time>2023-06-10T12:00:39Z</time>
      </trkpt>
      <trkpt lat="50.33932" lon="1.55007">
        <ele>9.7</ele>
        <time>2023-06-10T12:00:43Z</time>
      </trkpt>
      <trkpt lat="50.33935" lon="1.55001">
        <ele>9.7</ele>
        <time>2023-06-10T12:00:47Z</time>
      </trkpt>
      <trkpt lat="50.33942" lon="1.54996">
        <ele>9.6</ele>
        <time>2023-06-10T12:00:51Z</time>
      </trkpt>
      <trkpt lat="50.33951" lon="1.54993">
        <ele>9.4</ele>
        <time>2023-06-10T12:00:55Z</time>
      </trkpt>
      <trkpt lat="50.3396" lon="1.54993">
        <ele>9.6</ele>
        <time>2023-06-10T12:00:59Z</time>
      </trkpt>
      <trkpt lat="50.33966" lon="1.54991">
        <ele>9.6</ele>
        <time>2023-06-10T12:01:01Z</time>
      </trkpt>
      <trkpt lat="50.33971" lon="1.5499">
        <ele>9.6</ele>
        <time>2023-06-10T12:01:03Z</time>
      </trkpt>
      <trkpt lat="50.33975" lon="1.54989">
        <ele>9.4</ele>
        <time>2023-06-10T12:01:05Z</time>
      </trkpt>
      <trkpt lat="50.33981" lon="1.54989">
        <ele>9.3</ele>
        <time>2023-06-10T12:01:07Z</time>
      </trkpt>
      <trkpt lat="50.33987" lon="1.5499">
        <ele>9.2</ele>
        <time>2023-06-10T12:01:09Z</time>
      </trkpt>
      <trkpt lat="50.33993" lon="1.54989">
        <ele>9</ele>
        <time>2023-06-10T12:01:11Z</time>
      </trkpt>
      <trkpt lat="50.33998" lon="1.54988">
        <ele>8.8</ele>
        <time>2023-06-10T12:01:13Z</time>
      </trkpt>
      <trkpt lat="50.34004" lon="1.54988">
        <ele>8.7</ele>
        <time>2023-06-10T12:01:15Z</time>
      </trkpt>
      <trkpt lat="50.3401" lon="1.54987">
        <ele>8.6</ele>
        <time>2023-06-10T12:01:17Z</time>
      </trkpt>
      <trkpt lat="50.34017" lon="1.54985">
        <ele>8.4</ele>
        <time>2023-06-10T12:01:19Z</time>
      </trkpt>
      <trkpt lat="50.34023" lon="1.54985">
        <ele>8.4</ele>
        <time>2023-06-10T12:01:21Z</time>
      </trkpt>
      <trkpt lat="50.34028" lon="1.54986">
        <ele>8.5</ele>
        <time>2023-06-10T12:01:23Z</time>
      </trkpt>
      <trkpt lat="50.34034" lon="1.54987">
        <ele>8.8</ele>
        <time>2023-06-10T12:01:25Z</time>
      </trkpt>
      <trkpt lat="50.34039" lon="1.54988">
        <ele>8.9</ele>
        <time>2023-06-10T12:01:27Z</time>
      </trkpt>
      <trkpt lat="50.34045" lon="1.54988">
        <ele>9.1</ele>
        <time>2023-06-10T12:01:29Z</time>
      </trkpt>
      <trkpt lat="50.34051" lon="1.54989">
        <ele>9.3</ele>
        <time>2023-06-10T12:01:31Z</time>
      </trkpt>
      <trkpt lat="50.34057" lon="1.5499">
        <ele>9.4</ele>
        <time>2023-06-10T12:01:33Z</time>
      </trkpt>
      <trkpt lat="50.34064" lon="1.54991">
        <ele>9.4</ele>
        <time>2023-06-10T12:01:35Z</time>
      </trkpt>
      <trkpt lat="50.3407" lon="1.54991">
        <ele>9.2</ele>
        <time>2023-06-10T12:01:37Z</time>
      </trkpt>
      <trkpt lat="50.34076" lon="1.54992">
        <ele>9.1</ele>
        <time>2023-06-10T12:01:39Z</time>
      </trkpt>
      <trkpt lat="50.34082" lon="1.54994">
        <ele>9.1</ele>
        <time>2023-06-10T12:01:41Z</time>
      </trkpt>
      <trkpt lat="50.34088" lon="1.54995">
        <ele>9.2</ele>
        <time>2023-06-10T12:01:43Z</time>
      </trkpt>
      <trkpt lat="50.34095" lon="1.54997">
        <ele>9.1</ele>
        <time>2023-06-10T12:01:45Z</time>
      </trkpt>
      <trkpt lat="50.34102" lon="1.54999">
        <ele>9.2</ele>
        <time>2023-06-10T12:01:47Z</time>
      </trkpt>
      <trkpt lat="50.34108" lon="1.55">
        <ele>9.1</ele>
        <time>2023-06-10T12:01:49Z</time>
      </trkpt>
      <trkpt lat="50.34115" lon="1.55002">
        <ele>9.1</ele>
        <time>2023-06-10T12:01:51Z</time>
      </trkpt>
      <trkpt lat="50.3412" lon="1.55003">
        <ele>9.2</ele>
        <time>2023-06-10T12:01:53Z</time>
      </trkpt>
      <trkpt lat="50.34127" lon="1.55004">
        <ele>9.3</ele>
        <time>2023-06-10T12:01:55Z</time>
      </trkpt>
      <trkpt lat="50.34132" lon="1.55006">
        <ele>9.4</ele>
        <time>2023-06-10T12:01:57Z</time>
      </trkpt>
      <trkpt lat="50.34137" lon="1.55009">
        <ele>9.6</ele>
        <time>2023-06-10T12:01:59Z</time>
      </trkpt>
      <trkpt lat="50.34144" lon="1.55013">
        <ele>9.9</ele>
        <time>2023-06-10T12:02:03Z</time>
      </trkpt>
      <trkpt lat="50.34148" lon="1.55019">
        <ele>10.4</ele>
        <time>2023-06-10T12:02:07Z</time>
      </trkpt>
      <trkpt lat="50.34149" lon="1.55026">
        <ele>10.9</ele>
        <time>2023-06-10T12:02:25Z</time>
      </trkpt>
      <trkpt lat="50.34155" lon="1.55025">
        <ele>10.8</ele>
        <time>2023-06-10T12:04:13Z</time>
      </trkpt>
      <trkpt lat="50.34156" lon="1.55016">
        <ele>10.2</ele>
        <time>2023-06-10T12:04:17Z</time>
      </trkpt>
      <trkpt lat="50.34152" lon="1.55011">
        <ele>9.8</ele>
        <time>2023-06-10T12:04:19Z</time>
      </trkpt>
      <trkpt lat="50.34148" lon="1.55007">
        <ele>9.5</ele>
        <time>2023-06-10T12:04:21Z</time>
      </trkpt>
      <trkpt lat="50.34143" lon="1.55004">
        <ele>9.3</ele>
        <time>2023-06-10T12:04:23Z</time>
      </trkpt>
      <trkpt lat="50.34138" lon="1.55001">
        <ele>9.1</ele>
        <time>2023-06-10T12:04:25Z</time>
      </trkpt>
      <trkpt lat="50.34133" lon="1.54998">
        <ele>8.8</ele>
        <time>2023-06-10T12:04:27Z</time>
      </trkpt>
      <trkpt lat="50.34128" lon="1.54996">
        <ele>8.6</ele>
        <time>2023-06-10T12:04:31Z</time>
      </trkpt>
      <trkpt lat="50.34124" lon="1.5499">
        <ele>8</ele>
        <time>2023-06-10T12:04:37Z</time>
      </trkpt>
      <trkpt lat="50.34124" lon="1.54981">
        <ele>7</ele>
        <time>2023-06-10T12:04:43Z</time>
      </trkpt>
      <trkpt lat="50.34125" lon="1.54973">
        <ele>6.1</ele>
        <time>2023-06-10T12:04:51Z</time>
      </trkpt>
      <trkpt lat="50.34125" lon="1.54966">
        <ele>5.8</ele>
        <time>2023-06-10T12:04:57Z</time>
      </trkpt>
      <trkpt lat="50.34127" lon="1.54958">
        <ele>5.5</ele>
        <time>2023-06-10T12:05:03Z</time>
      </trkpt>
      <trkpt lat="50.34126" lon="1.54951">
        <ele>5.2</ele>
        <time>2023-06-10T12:05:09Z</time>
      </trkpt>
      <trkpt lat="50.34128" lon="1.54942">
        <ele>5</ele>
        <time>2023-06-10T12:05:17Z</time>
      </trkpt>
      <trkpt lat="50.34129" lon="1.54931">
        <ele>5</ele>
        <time>2023-06-10T12:05:23Z</time>
      </trkpt>
      <trkpt lat="50.3413" lon="1.54921">
        <ele>5</ele>
        <time>2023-06-10T12:05:29Z</time>
      </trkpt>
      <trkpt lat="50.34132" lon="1.54913">
        <ele>4.9</ele>
        <time>2023-06-10T12:05:35Z</time>
      </trkpt>
      <trkpt lat="50.34133" lon="1.54905">
        <ele>4.6</ele>
        <time>2023-06-10T12:05:41Z</time>
      </trkpt>
      <trkpt lat="50.34135" lon="1.54896">
        <ele>4.3</ele>
        <time>2023-06-10T12:05:47Z</time>
      </trkpt>
      <trkpt lat="50.34137" lon="1.54889">
        <ele>4</ele>
        <time>2023-06-10T12:05:51Z</time>
      </trkpt>
      <trkpt lat="50.34139" lon="1.54882">
        <ele>4</ele>
        <time>2023-06-10T12:05:55Z</time>
      </trkpt>
      <trkpt lat="50.34142" lon="1.54874">
        <ele>4</ele>
        <time>2023-06-10T12:06:05Z</time>
      </trkpt>
      <trkpt lat="50.34145" lon="1.54868">
        <ele>4</ele>
        <time>2023-06-10T12:06:09Z</time>
      </trkpt>
      <trkpt lat="50.34151" lon="1.54862">
        <ele>4</ele>
        <time>2023-06-10T12:06:13Z</time>
      </trkpt>
      <trkpt lat="50.34156" lon="1.54858">
        <ele>4</ele>
        <time>2023-06-10T12:06:17Z</time>
      </trkpt>
      <trkpt lat="50.34161" lon="1.54853">
        <ele>4</ele>
        <time>2023-06-10T12:06:25Z</time>
      </trkpt>
      <trkpt lat="50.34164" lon="1.54846">
        <ele>4</ele>
        <time>2023-06-10T12:06:29Z</time>
      </trkpt>
      <trkpt lat="50.34166" lon="1.54838">
        <ele>4</ele>
        <time>2023-06-10T12:06:33Z</time>
      </trkpt>
      <trkpt lat="50.34169" lon="1.54831">
        <ele>4</ele>
        <time>2023-06-10T12:06:37Z</time>
      </trkpt>
      <trkpt lat="50.34175" lon="1.54824">
        <ele>4</ele>
        <time>2023-06-10T12:06:45Z</time>
      </trkpt>
      <trkpt lat="50.34179" lon="1.54819">
        <ele>4</ele>
        <time>2023-06-10T12:06:47Z</time>
      </trkpt>
      <trkpt lat="50.34183" lon="1.54815">
        <ele>4</ele>
        <time>2023-06-10T12:06:49Z</time>
      </trkpt>
      <trkpt lat="50.34188" lon="1.5481">
        <ele>4</ele>
        <time>2023-06-10T12:06:51Z</time>
      </trkpt>
      <trkpt lat="50.34192" lon="1.54804">
        <ele>3.9</ele>
        <time>2023-06-10T12:06:53Z</time>
      </trkpt>
      <trkpt lat="50.34197" lon="1.54798">
        <ele>3.7</ele>
        <time>2023-06-10T12:06:55Z</time>
      </trkpt>
      <trkpt lat="50.34203" lon="1.54792">
        <ele>3.5</ele>
        <time>2023-06-10T12:06:57Z</time>
      </trkpt>
      <trkpt lat="50.34209" lon="1.54785">
        <ele>3.3</ele>
        <time>2023-06-10T12:06:59Z</time>
      </trkpt>
      <trkpt lat="50.34216" lon="1.54779">
        <ele>3.1</ele>
        <time>2023-06-10T12:07:01Z</time>
      </trkpt>
      <trkpt lat="50.34223" lon="1.54776">
        <ele>2.9</ele>
        <time>2023-06-10T12:07:03Z</time>
      </trkpt>
      <trkpt lat="50.34229" lon="1.54772">
        <ele>2.8</ele>
        <time>2023-06-10T12:07:05Z</time>
      </trkpt>
      <trkpt lat="50.34236" lon="1.54769">
        <ele>2.7</ele>
        <time>2023-06-10T12:07:07Z</time>
      </trkpt>
      <trkpt lat="50.34243" lon="1.54766">
        <ele>2.6</ele>
        <time>2023-06-10T12:07:09Z</time>
      </trkpt>
      <trkpt lat="50.3425" lon="1.54764">
        <ele>2.5</ele>
        <time>2023-06-10T12:07:11Z</time>
      </trkpt>
      <trkpt lat="50.34257" lon="1.54763">
        <ele>2.5</ele>
        <time>2023-06-10T12:07:13Z</time>
      </trkpt>
      <trkpt lat="50.34263" lon="1.54763">
        <ele>2.5</ele>
        <time>2023-06-10T12:07:15Z</time>
      </trkpt>
      <trkpt lat="50.3427" lon="1.54762">
        <ele>2.4</ele>
        <time>2023-06-10T12:07:17Z</time>
      </trkpt>
      <trkpt lat="50.34277" lon="1.5476">
        <ele>2.4</ele>
        <time>2023-06-10T12:07:19Z</time>
      </trkpt>
      <trkpt lat="50.34283" lon="1.54759">
        <ele>2.3</ele>
        <time>2023-06-10T12:07:21Z</time>
      </trkpt>
      <trkpt lat="50.3429" lon="1.54759">
        <ele>2.3</ele>
        <time>2023-06-10T12:07:23Z</time>
      </trkpt>
      <trkpt lat="50.34296" lon="1.54757">
        <ele>2.3</ele>
        <time>2023-06-10T12:07:25Z</time>
      </trkpt>
      <trkpt lat="50.34303" lon="1.54755">
        <ele>2.2</ele>
        <time>2023-06-10T12:07:27Z</time>
      </trkpt>
      <trkpt lat="50.34309" lon="1.54754">
        <ele>2.1</ele>
        <time>2023-06-10T12:07:29Z</time>
      </trkpt>
      <trkpt lat="50.34315" lon="1.54754">
        <ele>2.1</ele>
        <time>2023-06-10T12:07:31Z</time>
      </trkpt>
      <trkpt lat="50.34321" lon="1.54755">
        <ele>2.2</ele>
        <time>2023-06-10T12:07:33Z</time>
      </trkpt>
      <trkpt lat="50.34327" lon="1.54754">
        <ele>2.1</ele>
        <time>2023-06-10T12:07:35Z</time>
      </trkpt>
      <trkpt lat="50.34334" lon="1.54752">
        <ele>2.1</ele>
        <time>2023-06-10T12:07:37Z</time>
      </trkpt>
      <trkpt lat="50.3434" lon="1.54752">
        <ele>2.1</ele>
        <time>2023-06-10T12:07:39Z</time>
      </trkpt>
      <trkpt lat="50.34346" lon="1.54754">
        <ele>2.1</ele>
        <time>2023-06-10T12:07:41Z</time>
      </trkpt>
      <trkpt lat="50.34351" lon="1.54754">
        <ele>2.2</ele>
        <time>2023-06-10T12:07:43Z</time>
      </trkpt>
      <trkpt lat="50.34357" lon="1.54754">
        <ele>2.1</ele>
        <time>2023-06-10T12:07:45Z</time>
      </trkpt>
      <trkpt lat="50.34364" lon="1.54754">
        <ele>2.2</ele>
        <time>2023-06-10T12:07:47Z</time>
      </trkpt>
      <trkpt lat="50.3437" lon="1.54754">
        <ele>2.2</ele>
        <time>2023-06-10T12:07:49Z</time>
      </trkpt>
      <trkpt lat="50.34375" lon="1.54753">
        <ele>2.1</ele>
        <time>2023-06-10T12:07:51Z</time>
      </trkpt>
      <trkpt lat="50.34381" lon="1.5475">
        <ele>2</ele>
        <time>2023-06-10T12:07:53Z</time>
      </trkpt>
      <trkpt lat="50.34386" lon="1.54749">
        <ele>1.9</ele>
        <time>2023-06-10T12:07:55Z</time>
      </trkpt>
      <trkpt lat="50.34392" lon="1.54747">
        <ele>1.9</ele>
        <time>2023-06-10T12:07:57Z</time>
      </trkpt>
      <trkpt lat="50.34397" lon="1.54745">
        <ele>1.9</ele>
        <time>2023-06-10T12:07:59Z</time>
      </trkpt>
      <trkpt lat="50.34403" lon="1.54741">
        <ele>1.8</ele>
        <time>2023-06-10T12:08:01Z</time>
      </trkpt>
      <trkpt lat="50.34409" lon="1.54738">
        <ele>1.9</ele>
        <time>2023-06-10T12:08:03Z</time>
      </trkpt>
      <trkpt lat="50.34415" lon="1.54736">
        <ele>2</ele>
        <time>2023-06-10T12:08:05Z</time>
      </trkpt>
      <trkpt lat="50.34421" lon="1.54733">
        <ele>2</ele>
        <time>2023-06-10T12:08:07Z</time>
      </trkpt>
      <trkpt lat="50.34428" lon="1.5473">
        <ele>2</ele>
        <time>2023-06-10T12:08:09Z</time>
      </trkpt>
      <trkpt lat="50.34433" lon="1.54726">
        <ele>2</ele>
        <time>2023-06-10T12:08:11Z</time>
      </trkpt>
      <trkpt lat="50.34438" lon="1.54722">
        <ele>2</ele>
        <time>2023-06-10T12:08:13Z</time>
      </trkpt>
      <trkpt lat="50.34443" lon="1.5472">
        <ele>1.9</ele>
        <time>2023-06-10T12:08:15Z</time>
      </trkpt>
      <trkpt lat="50.34448" lon="1.54718">
        <ele>1.8</ele>
        <time>2023-06-10T12:08:17Z</time>
      </trkpt>
      <trkpt lat="50.34457" lon="1.54714">
        <ele>1.7</ele>
        <time>2023-06-10T12:08:21Z</time>
      </trkpt>
      <trkpt lat="50.34465" lon="1.54713">
        <ele>1.7</ele>
        <time>2023-06-10T12:08:25Z</time>
      </trkpt>
      <trkpt lat="50.34472" lon="1.54713">
        <ele>1.7</ele>
        <time>2023-06-10T12:08:29Z</time>
      </trkpt>
      <trkpt lat="50.3448" lon="1.54713">
        <ele>1.7</ele>
        <time>2023-06-10T12:08:33Z</time>
      </trkpt>
      <trkpt lat="50.34489" lon="1.54713">
        <ele>1.7</ele>
        <time>2023-06-10T12:08:37Z</time>
      </trkpt>
      <trkpt lat="50.34495" lon="1.54716">
        <ele>1.8</ele>
        <time>2023-06-10T12:08:41Z</time>
      </trkpt>
      <trkpt lat="50.34503" lon="1.54719">
        <ele>1.9</ele>
        <time>2023-06-10T12:08:45Z</time>
      </trkpt>
      <trkpt lat="50.34508" lon="1.54719">
        <ele>1.9</ele>
        <time>2023-06-10T12:08:47Z</time>
      </trkpt>
      <trkpt lat="50.34513" lon="1.54719">
        <ele>1.9</ele>
        <time>2023-06-10T12:08:49Z</time>
      </trkpt>
      <trkpt lat="50.34518" lon="1.5472">
        <ele>2</ele>
        <time>2023-06-10T12:08:51Z</time>
      </trkpt>
      <trkpt lat="50.34523" lon="1.54721">
        <ele>2</ele>
        <time>2023-06-10T12:08:53Z</time>
      </trkpt>
      <trkpt lat="50.34528" lon="1.54722">
        <ele>2</ele>
        <time>2023-06-10T12:08:55Z</time>
      </trkpt>
      <trkpt lat="50.34533" lon="1.54723">
        <ele>2</ele>
        <time>2023-06-10T12:08:57Z</time>
      </trkpt>
      <trkpt lat="50.34538" lon="1.54723">
        <ele>2</ele>
        <time>2023-06-10T12:08:59Z</time>
      </trkpt>
      <trkpt lat="50.34543" lon="1.54721">
        <ele>2</ele>
        <time>2023-06-10T12:09:01Z</time>
      </trkpt>
      <trkpt lat="50.3455" lon="1.54722">
        <ele>2</ele>
        <time>2023-06-10T12:09:05Z</time>
      </trkpt>
      <trkpt lat="50.34555" lon="1.54723">
        <ele>2</ele>
        <time>2023-06-10T12:09:07Z</time>
      </trkpt>
      <trkpt lat="50.3456" lon="1.54723">
        <ele>2</ele>
        <time>2023-06-10T12:09:09Z</time>
      </trkpt>
      <trkpt lat="50.34566" lon="1.54723">
        <ele>2</ele>
        <time>2023-06-10T12:09:11Z</time>
      </trkpt>
      <trkpt lat="50.34572" lon="1.54723">
        <ele>2</ele>
        <time>2023-06-10T12:09:13Z</time>
      </trkpt>
      <trkpt lat="50.34578" lon="1.54723">
        <ele>2</ele>
        <time>2023-06-10T12:09:15Z</time>
      </trkpt>
      <trkpt lat="50.34585" lon="1.54722">
        <ele>2</ele>
        <time>2023-06-10T12:09:17Z</time>
      </trkpt>
      <trkpt lat="50.34592" lon="1.5472">
        <ele>2</ele>
        <time>2023-06-10T12:09:19Z</time>
      </trkpt>
      <trkpt lat="50.34599" lon="1.5472">
        <ele>2</ele>
        <time>2023-06-10T12:09:21Z</time>
      </trkpt>
      <trkpt lat="50.34606" lon="1.5472">
        <ele>2</ele>
        <time>2023-06-10T12:09:23Z</time>
      </trkpt>
      <trkpt lat="50.34614" lon="1.5472">
        <ele>2</ele>
        <time>2023-06-10T12:09:25Z</time>
      </trkpt>
      <trkpt lat="50.34621" lon="1.54719">
        <ele>2</ele>
        <time>2023-06-10T12:09:27Z</time>
      </trkpt>
      <trkpt lat="50.34628" lon="1.54719">
        <ele>2</ele>
        <time>2023-06-10T12:09:29Z</time>
      </trkpt>
      <trkpt lat="50.34636" lon="1.5472">
        <ele>2</ele>
        <time>2023-06-10T12:09:31Z</time>
      </trkpt>
      <trkpt lat="50.34644" lon="1.54719">
        <ele>2</ele>
        <time>2023-06-10T12:09:33Z</time>
      </trkpt>
      <trkpt lat="50.34652" lon="1.54718">
        <ele>2</ele>
        <time>2023-06-10T12:09:35Z</time>
      </trkpt>
      <trkpt lat="50.34659" lon="1.54718">
        <ele>2</ele>
        <time>2023-06-10T12:09:37Z</time>
      </trkpt>
      <trkpt lat="50.34667" lon="1.54716">
        <ele>2</ele>
        <time>2023-06-10T12:09:39Z</time>
      </trkpt>
      <trkpt lat="50.34675" lon="1.54715">
        <ele>2</ele>
        <time>2023-06-10T12:09:41Z</time>
      </trkpt>
      <trkpt lat="50.34682" lon="1.54714">
        <ele>2</ele>
        <time>2023-06-10T12:09:43Z</time>
      </trkpt>
      <trkpt lat="50.3469" lon="1.54713">
        <ele>2</ele>
        <time>2023-06-10T12:09:45Z</time>
      </trkpt>
      <trkpt lat="50.34697" lon="1.54712">
        <ele>2</ele>
        <time>2023-06-10T12:09:47Z</time>
      </trkpt>
      <trkpt lat="50.34705" lon="1.54712">
        <ele>2</ele>
        <time>2023-06-10T12:09:49Z</time>
      </trkpt>
      <trkpt lat="50.34713" lon="1.54712">
        <ele>2</ele>
        <time>2023-06-10T12:09:51Z</time>
      </trkpt>
      <trkpt lat="50.34721" lon="1.54713">
        <ele>2</ele>
        <time>2023-06-10T12:09:53Z</time>
      </trkpt>
      <trkpt lat="50.34728" lon="1.54714">
        <ele>2</ele>
        <time>2023-06-10T12:09:55Z</time>
      </trkpt>
      <trkpt lat="50.34736" lon="1.54713">
        <ele>2</ele>
        <time>2023-06-10T12:09:57Z</time>
      </trkpt>
      <trkpt lat="50.34743" lon="1.54713">
        <ele>2</ele>
        <time>2023-06-10T12:09:59Z</time>
      </trkpt>
      <trkpt lat="50.34751" lon="1.54713">
        <ele>2</ele>
        <time>2023-06-10T12:10:01Z</time>
      </trkpt>
      <trkpt lat="50.34758" lon="1.54713">
        <ele>2</ele>
        <time>2023-06-10T12:10:03Z</time>
      </trkpt>
      <trkpt lat="50.34766" lon="1.54713">
        <ele>2</ele>
        <time>2023-06-10T12:10:05Z</time>
      </trkpt>
      <trkpt lat="50.34774" lon="1.54712">
        <ele>2</ele>
        <time>2023-06-10T12:10:07Z</time>
      </trkpt>
      <trkpt lat="50.34782" lon="1.54709">
        <ele>2</ele>
        <time>2023-06-10T12:10:09Z</time>
      </trkpt>
      <trkpt lat="50.3479" lon="1.54707">
        <ele>2</ele>
        <time>2023-06-10T12:10:11Z</time>
      </trkpt>
      <trkpt lat="50.34798" lon="1.54704">
        <ele>2</ele>
        <time>2023-06-10T12:10:13Z</time>
      </trkpt>
      <trkpt lat="50.34806" lon="1.547">
        <ele>2</ele>
        <time>2023-06-10T12:10:15Z</time>
      </trkpt>
      <trkpt lat="50.34814" lon="1.54696">
        <ele>2</ele>
        <time>2023-06-10T12:10:17Z</time>
      </trkpt>
      <trkpt lat="50.34822" lon="1.54692">
        <ele>1.9</ele>
        <time>2023-06-10T12:10:19Z</time>
      </trkpt>
      <trkpt lat="50.3483" lon="1.54687">
        <ele>1.7</ele>
        <time>2023-06-10T12:10:21Z</time>
      </trkpt>
      <trkpt lat="50.34838" lon="1.54683">
        <ele>1.6</ele>
        <time>2023-06-10T12:10:23Z</time>
      </trkpt>
      <trkpt lat="50.34846" lon="1.5468">
        <ele>1.5</ele>
        <time>2023-06-10T12:10:25Z</time>
      </trkpt>
      <trkpt lat="50.34854" lon="1.54678">
        <ele>1.4</ele>
        <time>2023-06-10T12:10:27Z</time>
      </trkpt>
      <trkpt lat="50.34862" lon="1.54679">
        <ele>1.4</ele>
        <time>2023-06-10T12:10:29Z</time>
      </trkpt>
      <trkpt lat="50.34869" lon="1.54678">
        <ele>1.6</ele>
        <time>2023-06-10T12:10:31Z</time>
      </trkpt>
      <trkpt lat="50.34877" lon="1.54679">
        <ele>1.8</ele>
        <time>2023-06-10T12:10:33Z</time>
      </trkpt>
      <trkpt lat="50.34885" lon="1.5468">
        <ele>1.9</ele>
        <time>2023-06-10T12:10:35Z</time>
      </trkpt>
      <trkpt lat="50.34893" lon="1.54681">
        <ele>1.9</ele>
        <time>2023-06-10T12:10:37Z</time>
      </trkpt>
      <trkpt lat="50.34901" lon="1.54684">
        <ele>1.8</ele>
        <time>2023-06-10T12:10:39Z</time>
      </trkpt>
      <trkpt lat="50.34908" lon="1.54684">
        <ele>1.7</ele>
        <time>2023-06-10T12:10:41Z</time>
      </trkpt>
      <trkpt lat="50.34915" lon="1.54683">
        <ele>1.6</ele>
        <time>2023-06-10T12:10:43Z</time>
      </trkpt>
      <trkpt lat="50.34921" lon="1.54683">
        <ele>1.6</ele>
        <time>2023-06-10T12:10:45Z</time>
      </trkpt>
      <trkpt lat="50.34927" lon="1.54681">
        <ele>1.5</ele>
        <time>2023-06-10T12:10:47Z</time>
      </trkpt>
      <trkpt lat="50.34933" lon="1.54679">
        <ele>1.4</ele>
        <time>2023-06-10T12:10:49Z</time>
      </trkpt>
      <trkpt lat="50.3494" lon="1.54676">
        <ele>1.3</ele>
        <time>2023-06-10T12:10:51Z</time>
      </trkpt>
      <trkpt lat="50.34947" lon="1.54674">
        <ele>1.3</ele>
        <time>2023-06-10T12:10:53Z</time>
      </trkpt>
      <trkpt lat="50.34954" lon="1.54672">
        <ele>1.2</ele>
        <time>2023-06-10T12:10:55Z</time>
      </trkpt>
      <trkpt lat="50.3496" lon="1.54671">
        <ele>1.1</ele>
        <time>2023-06-10T12:10:57Z</time>
      </trkpt>
      <trkpt lat="50.34966" lon="1.54669">
        <ele>1.1</ele>
        <time>2023-06-10T12:10:59Z</time>
      </trkpt>
      <trkpt lat="50.34972" lon="1.54668">
        <ele>1.1</ele>
        <time>2023-06-10T12:11:01Z</time>
      </trkpt>
      <trkpt lat="50.34977" lon="1.54668">
        <ele>1</ele>
        <time>2023-06-10T12:11:03Z</time>
      </trkpt>
      <trkpt lat="50.34982" lon="1.54667">
        <ele>1</ele>
        <time>2023-06-10T12:11:05Z</time>
      </trkpt>
      <trkpt lat="50.3499" lon="1.54665">
        <ele>1</ele>
        <time>2023-06-10T12:11:09Z</time>
      </trkpt>
      <trkpt lat="50.34994" lon="1.54663">
        <ele>1</ele>
        <time>2023-06-10T12:11:59Z</time>
      </trkpt>
      <trkpt lat="50.35002" lon="1.54657">
        <ele>1</ele>
        <time>2023-06-10T12:12:03Z</time>
      </trkpt>
      <trkpt lat="50.35007" lon="1.54655">
        <ele>1</ele>
        <time>2023-06-10T12:12:05Z</time>
      </trkpt>
      <trkpt lat="50.35012" lon="1.54653">
        <ele>1</ele>
        <time>2023-06-10T12:12:07Z</time>
      </trkpt>
      <trkpt lat="50.35018" lon="1.5465">
        <ele>1</ele>
        <time>2023-06-10T12:12:09Z</time>
      </trkpt>
      <trkpt lat="50.35023" lon="1.54648">
        <ele>1</ele>
        <time>2023-06-10T12:12:11Z</time>
      </trkpt>
      <trkpt lat="50.35029" lon="1.54647">
        <ele>1</ele>
        <time>2023-06-10T12:12:13Z</time>
      </trkpt>
      <trkpt lat="50.35035" lon="1.54646">
        <ele>1</ele>
        <time>2023-06-10T12:12:15Z</time>
      </trkpt>
      <trkpt lat="50.35041" lon="1.54648">
        <ele>1</ele>
        <time>2023-06-10T12:12:17Z</time>
      </trkpt>
      <trkpt lat="50.35047" lon="1.54651">
        <ele>1</ele>
        <time>2023-06-10T12:12:19Z</time>
      </trkpt>
      <trkpt lat="50.35054" lon="1.54653">
        <ele>1</ele>
        <time>2023-06-10T12:12:21Z</time>
      </trkpt>
      <trkpt lat="50.35061" lon="1.54654">
        <ele>1</ele>
        <time>2023-06-10T12:12:23Z</time>
      </trkpt>
      <trkpt lat="50.35067" lon="1.54655">
        <ele>1</ele>
        <time>2023-06-10T12:12:25Z</time>
      </trkpt>
      <trkpt lat="50.35072" lon="1.54657">
        <ele>1</ele>
        <time>2023-06-10T12:12:27Z</time>
      </trkpt>
      <trkpt lat="50.35076" lon="1.54663">
        <ele>1</ele>
        <time>2023-06-10T12:12:29Z</time>
      </trkpt>
      <trkpt lat="50.3508" lon="1.54669">
        <ele>1.1</ele>
        <time>2023-06-10T12:12:31Z</time>
      </trkpt>
      <trkpt lat="50.35084" lon="1.54674">
        <ele>1.3</ele>
        <time>2023-06-10T12:12:33Z</time>
      </trkpt>
      <trkpt lat="50.35089" lon="1.54679">
        <ele>1.4</ele>
        <time>2023-06-10T12:12:35Z</time>
      </trkpt>
      <trkpt lat="50.35093" lon="1.54684">
        <ele>1.6</ele>
        <time>2023-06-10T12:12:37Z</time>
      </trkpt>
      <trkpt lat="50.35098" lon="1.54688">
        <ele>1.8</ele>
        <time>2023-06-10T12:12:39Z</time>
      </trkpt>
      <trkpt lat="50.35103" lon="1.54691">
        <ele>1.9</ele>
        <time>2023-06-10T12:12:41Z</time>
      </trkpt>
      <trkpt lat="50.35108" lon="1.54695">
        <ele>2</ele>
        <time>2023-06-10T12:12:43Z</time>
      </trkpt>
      <trkpt lat="50.35114" lon="1.54699">
        <ele>2</ele>
        <time>2023-06-10T12:12:45Z</time>
      </trkpt>
      <trkpt lat="50.35119" lon="1.54702">
        <ele>2.1</ele>
        <time>2023-06-10T12:12:47Z</time>
      </trkpt>
      <trkpt lat="50.35124" lon="1.54705">
        <ele>2.2</ele>
        <time>2023-06-10T12:12:49Z</time>
      </trkpt>
      <trkpt lat="50.35129" lon="1.54708">
        <ele>2.3</ele>
        <time>2023-06-10T12:12:51Z</time>
      </trkpt>
      <trkpt lat="50.35135" lon="1.54711">
        <ele>2.5</ele>
        <time>2023-06-10T12:12:53Z</time>
      </trkpt>
      <trkpt lat="50.3514" lon="1.54714">
        <ele>2.7</ele>
        <time>2023-06-10T12:12:55Z</time>
      </trkpt>
      <trkpt lat="50.35146" lon="1.54715">
        <ele>2.7</ele>
        <time>2023-06-10T12:12:57Z</time>
      </trkpt>
      <trkpt lat="50.35152" lon="1.54716">
        <ele>2.8</ele>
        <time>2023-06-10T12:12:59Z</time>
      </trkpt>
      <trkpt lat="50.35158" lon="1.54718">
        <ele>2.8</ele>
        <time>2023-06-10T12:13:01Z</time>
      </trkpt>
      <trkpt lat="50.35164" lon="1.54719">
        <ele>2.9</ele>
        <time>2023-06-10T12:13:03Z</time>
      </trkpt>
      <trkpt lat="50.3517" lon="1.54721">
        <ele>2.9</ele>
        <time>2023-06-10T12:13:05Z</time>
      </trkpt>
      <trkpt lat="50.35176" lon="1.54723">
        <ele>3</ele>
        <time>2023-06-10T12:13:07Z</time>
      </trkpt>
      <trkpt lat="50.35182" lon="1.54724">
        <ele>3</ele>
        <time>2023-06-10T12:13:09Z</time>
      </trkpt>
      <trkpt lat="50.35188" lon="1.54726">
        <ele>3</ele>
        <time>2023-06-10T12:13:11Z</time>
      </trkpt>
      <trkpt lat="50.35194" lon="1.54729">
        <ele>3</ele>
        <time>2023-06-10T12:13:13Z</time>
      </trkpt>
      <trkpt lat="50.352" lon="1.54732">
        <ele>2.9</ele>
        <time>2023-06-10T12:13:15Z</time>
      </trkpt>
      <trkpt lat="50.35206" lon="1.54734">
        <ele>2.8</ele>
        <time>2023-06-10T12:13:17Z</time>
      </trkpt>
      <trkpt lat="50.35212" lon="1.54735">
        <ele>2.6</ele>
        <time>2023-06-10T12:13:19Z</time>
      </trkpt>
      <trkpt lat="50.35218" lon="1.54736">
        <ele>2.6</ele>
        <time>2023-06-10T12:13:21Z</time>
      </trkpt>
      <trkpt lat="50.35224" lon="1.54739">
        <ele>2.6</ele>
        <time>2023-06-10T12:13:23Z</time>
      </trkpt>
      <trkpt lat="50.35229" lon="1.5474">
        <ele>2.6</ele>
        <time>2023-06-10T12:13:25Z</time>
      </trkpt>
      <trkpt lat="50.35235" lon="1.54741">
        <ele>2.7</ele>
        <time>2023-06-10T12:13:27Z</time>
      </trkpt>
      <trkpt lat="50.35241" lon="1.54741">
        <ele>2.7</ele>
        <time>2023-06-10T12:13:29Z</time>
      </trkpt>
      <trkpt lat="50.35247" lon="1.54743">
        <ele>2.8</ele>
        <time>2023-06-10T12:13:31Z</time>
      </trkpt>
      <trkpt lat="50.35252" lon="1.54746">
        <ele>2.8</ele>
        <time>2023-06-10T12:13:33Z</time>
      </trkpt>
      <trkpt lat="50.35257" lon="1.54747">
        <ele>2.7</ele>
        <time>2023-06-10T12:13:35Z</time>
      </trkpt>
      <trkpt lat="50.35263" lon="1.54746">
        <ele>2.5</ele>
        <time>2023-06-10T12:13:37Z</time>
      </trkpt>
      <trkpt lat="50.35268" lon="1.54747">
        <ele>2.3</ele>
        <time>2023-06-10T12:13:39Z</time>
      </trkpt>
      <trkpt lat="50.35274" lon="1.54748">
        <ele>2.1</ele>
        <time>2023-06-10T12:13:41Z</time>
      </trkpt>
      <trkpt lat="50.35279" lon="1.54748">
        <ele>2</ele>
        <time>2023-06-10T12:13:43Z</time>
      </trkpt>
      <trkpt lat="50.35285" lon="1.54747">
        <ele>2</ele>
        <time>2023-06-10T12:13:45Z</time>
      </trkpt>
      <trkpt lat="50.3529" lon="1.54744">
        <ele>2</ele>
        <time>2023-06-10T12:13:47Z</time>
      </trkpt>
      <trkpt lat="50.35295" lon="1.54741">
        <ele>2</ele>
        <time>2023-06-10T12:13:49Z</time>
      </trkpt>
      <trkpt lat="50.353" lon="1.54741">
        <ele>2</ele>
        <time>2023-06-10T12:13:51Z</time>
      </trkpt>
      <trkpt lat="50.35306" lon="1.54741">
        <ele>2</ele>
        <time>2023-06-10T12:13:53Z</time>
      </trkpt>
      <trkpt lat="50.35311" lon="1.54742">
        <ele>2</ele>
        <time>2023-06-10T12:13:55Z</time>
      </trkpt>
      <trkpt lat="50.35317" lon="1.54743">
        <ele>2</ele>
        <time>2023-06-10T12:13:57Z</time>
      </trkpt>
      <trkpt lat="50.35322" lon="1.54745">
        <ele>2</ele>
        <time>2023-06-10T12:13:59Z</time>
      </trkpt>
      <trkpt lat="50.35327" lon="1.54746">
        <ele>2</ele>
        <time>2023-06-10T12:14:01Z</time>
      </trkpt>
      <trkpt lat="50.35333" lon="1.54748">
        <ele>2</ele>
        <time>2023-06-10T12:14:03Z</time>
      </trkpt>
      <trkpt lat="50.35338" lon="1.54751">
        <ele>2</ele>
        <time>2023-06-10T12:14:05Z</time>
      </trkpt>
      <trkpt lat="50.35343" lon="1.54754">
        <ele>2</ele>
        <time>2023-06-10T12:14:07Z</time>
      </trkpt>
      <trkpt lat="50.35349" lon="1.54756">
        <ele>2</ele>
        <time>2023-06-10T12:14:09Z</time>
      </trkpt>
      <trkpt lat="50.35353" lon="1.5476">
        <ele>2</ele>
        <time>2023-06-10T12:14:11Z</time>
      </trkpt>
      <trkpt lat="50.35358" lon="1.54764">
        <ele>2</ele>
        <time>2023-06-10T12:14:13Z</time>
      </trkpt>
      <trkpt lat="50.35363" lon="1.54768">
        <ele>2</ele>
        <time>2023-06-10T12:14:15Z</time>
      </trkpt>
      <trkpt lat="50.35367" lon="1.54772">
        <ele>2</ele>
        <time>2023-06-10T12:14:17Z</time>
      </trkpt>
      <trkpt lat="50.35372" lon="1.54777">
        <ele>2</ele>
        <time>2023-06-10T12:14:19Z</time>
      </trkpt>
      <trkpt lat="50.35376" lon="1.54782">
        <ele>2</ele>
        <time>2023-06-10T12:14:21Z</time>
      </trkpt>
      <trkpt lat="50.3538" lon="1.54786">
        <ele>2</ele>
        <time>2023-06-10T12:14:23Z</time>
      </trkpt>
      <trkpt lat="50.35384" lon="1.54791">
        <ele>2</ele>
        <time>2023-06-10T12:14:25Z</time>
      </trkpt>
      <trkpt lat="50.35389" lon="1.54794">
        <ele>2</ele>
        <time>2023-06-10T12:14:27Z</time>
      </trkpt>
      <trkpt lat="50.35394" lon="1.54797">
        <ele>2.1</ele>
        <time>2023-06-10T12:14:29Z</time>
      </trkpt>
      <trkpt lat="50.35399" lon="1.54798">
        <ele>2.1</ele>
        <time>2023-06-10T12:14:31Z</time>
      </trkpt>
      <trkpt lat="50.35404" lon="1.54799">
        <ele>2.1</ele>
        <time>2023-06-10T12:14:33Z</time>
      </trkpt>
      <trkpt lat="50.3541" lon="1.548">
        <ele>2.1</ele>
        <time>2023-06-10T12:14:35Z</time>
      </trkpt>
      <trkpt lat="50.35414" lon="1.54802">
        <ele>2.1</ele>
        <time>2023-06-10T12:14:37Z</time>
      </trkpt>
      <trkpt lat="50.3542" lon="1.54803">
        <ele>2.1</ele>
        <time>2023-06-10T12:14:39Z</time>
      </trkpt>
      <trkpt lat="50.35425" lon="1.54804">
        <ele>2</ele>
        <time>2023-06-10T12:14:41Z</time>
      </trkpt>
      <trkpt lat="50.35429" lon="1.54806">
        <ele>2</ele>
        <time>2023-06-10T12:14:43Z</time>
      </trkpt>
      <trkpt lat="50.35435" lon="1.54807">
        <ele>2</ele>
        <time>2023-06-10T12:14:45Z</time>
      </trkpt>
      <trkpt lat="50.3544" lon="1.54808">
        <ele>2.1</ele>
        <time>2023-06-10T12:14:47Z</time>
      </trkpt>
      <trkpt lat="50.35445" lon="1.54808">
        <ele>2.1</ele>
        <time>2023-06-10T12:14:49Z</time>
      </trkpt>
      <trkpt lat="50.3545" lon="1.5481">
        <ele>2.3</ele>
        <time>2023-06-10T12:14:51Z</time>
      </trkpt>
      <trkpt lat="50.35455" lon="1.54811">
        <ele>2.5</ele>
        <time>2023-06-10T12:14:53Z</time>
      </trkpt>
      <trkpt lat="50.35464" lon="1.54814">
        <ele>2.8</ele>
        <time>2023-06-10T12:14:57Z</time>
      </trkpt>
      <trkpt lat="50.35471" lon="1.54814">
        <ele>3</ele>
        <time>2023-06-10T12:15:01Z</time>
      </trkpt>
      <trkpt lat="50.35478" lon="1.54815">
        <ele>2.9</ele>
        <time>2023-06-10T12:15:05Z</time>
      </trkpt>
      <trkpt lat="50.35488" lon="1.54814">
        <ele>2.6</ele>
        <time>2023-06-10T12:15:09Z</time>
      </trkpt>
      <trkpt lat="50.35493" lon="1.54813">
        <ele>2.5</ele>
        <time>2023-06-10T12:15:11Z</time>
      </trkpt>
      <trkpt lat="50.35498" lon="1.54813">
        <ele>2.3</ele>
        <time>2023-06-10T12:15:13Z</time>
      </trkpt>
      <trkpt lat="50.35503" lon="1.54813">
        <ele>2.3</ele>
        <time>2023-06-10T12:15:15Z</time>
      </trkpt>
      <trkpt lat="50.3551" lon="1.54813">
        <ele>2.3</ele>
        <time>2023-06-10T12:15:19Z</time>
      </trkpt>
      <trkpt lat="50.35519" lon="1.54816">
        <ele>2.4</ele>
        <time>2023-06-10T12:15:23Z</time>
      </trkpt>
      <trkpt lat="50.35524" lon="1.54817">
        <ele>2.4</ele>
        <time>2023-06-10T12:15:25Z</time>
      </trkpt>
      <trkpt lat="50.35529" lon="1.54817">
        <ele>2.4</ele>
        <time>2023-06-10T12:15:27Z</time>
      </trkpt>
      <trkpt lat="50.35535" lon="1.54818">
        <ele>2.5</ele>
        <time>2023-06-10T12:15:29Z</time>
      </trkpt>
      <trkpt lat="50.3554" lon="1.54819">
        <ele>2.5</ele>
        <time>2023-06-10T12:15:31Z</time>
      </trkpt>
      <trkpt lat="50.35546" lon="1.5482">
        <ele>2.5</ele>
        <time>2023-06-10T12:15:33Z</time>
      </trkpt>
      <trkpt lat="50.35551" lon="1.5482">
        <ele>2.5</ele>
        <time>2023-06-10T12:15:35Z</time>
      </trkpt>
      <trkpt lat="50.35556" lon="1.54821">
        <ele>2.5</ele>
        <time>2023-06-10T12:15:37Z</time>
      </trkpt>
      <trkpt lat="50.35564" lon="1.54824">
        <ele>2.7</ele>
        <time>2023-06-10T12:15:41Z</time>
      </trkpt>
      <trkpt lat="50.35571" lon="1.54829">
        <ele>2.8</ele>
        <time>2023-06-10T12:15:45Z</time>
      </trkpt>
      <trkpt lat="50.35579" lon="1.54835">
        <ele>3</ele>
        <time>2023-06-10T12:15:49Z</time>
      </trkpt>
      <trkpt lat="50.35587" lon="1.5484">
        <ele>3</ele>
        <time>2023-06-10T12:15:53Z</time>
      </trkpt>
      <trkpt lat="50.35595" lon="1.54845">
        <ele>3</ele>
        <time>2023-06-10T12:15:57Z</time>
      </trkpt>
      <trkpt lat="50.35603" lon="1.54849">
        <ele>3</ele>
        <time>2023-06-10T12:16:01Z</time>
      </trkpt>
      <trkpt lat="50.35608" lon="1.54851">
        <ele>3</ele>
        <time>2023-06-10T12:16:03Z</time>
      </trkpt>
      <trkpt lat="50.35612" lon="1.54852">
        <ele>3</ele>
        <time>2023-06-10T12:16:05Z</time>
      </trkpt>
      <trkpt lat="50.35617" lon="1.54854">
        <ele>3</ele>
        <time>2023-06-10T12:16:07Z</time>
      </trkpt>
      <trkpt lat="50.35621" lon="1.54855">
        <ele>3</ele>
        <time>2023-06-10T12:16:09Z</time>
      </trkpt>
      <trkpt lat="50.3563" lon="1.54856">
        <ele>3</ele>
        <time>2023-06-10T12:16:13Z</time>
      </trkpt>
      <trkpt lat="50.35639" lon="1.54856">
        <ele>3</ele>
        <time>2023-06-10T12:16:17Z</time>
      </trkpt>
      <trkpt lat="50.35644" lon="1.54854">
        <ele>3</ele>
        <time>2023-06-10T12:16:19Z</time>
      </trkpt>
      <trkpt lat="50.35648" lon="1.54852">
        <ele>2.9</ele>
        <time>2023-06-10T12:16:21Z</time>
      </trkpt>
      <trkpt lat="50.35653" lon="1.54852">
        <ele>2.8</ele>
        <time>2023-06-10T12:16:23Z</time>
      </trkpt>
      <trkpt lat="50.35658" lon="1.54852">
        <ele>2.8</ele>
        <time>2023-06-10T12:16:25Z</time>
      </trkpt>
      <trkpt lat="50.35663" lon="1.54852">
        <ele>2.7</ele>
        <time>2023-06-10T12:16:27Z</time>
      </trkpt>
      <trkpt lat="50.35668" lon="1.54851">
        <ele>2.6</ele>
        <time>2023-06-10T12:16:29Z</time>
      </trkpt>
      <trkpt lat="50.35673" lon="1.5485">
        <ele>2.6</ele>
        <time>2023-06-10T12:16:31Z</time>
      </trkpt>
      <trkpt lat="50.35679" lon="1.54849">
        <ele>2.6</ele>
        <time>2023-06-10T12:16:33Z</time>
      </trkpt>
      <trkpt lat="50.35684" lon="1.5485">
        <ele>2.6</ele>
        <time>2023-06-10T12:16:35Z</time>
      </trkpt>
      <trkpt lat="50.35688" lon="1.5485">
        <ele>2.6</ele>
        <time>2023-06-10T12:16:37Z</time>
      </trkpt>
      <trkpt lat="50.35694" lon="1.5485">
        <ele>2.6</ele>
        <time>2023-06-10T12:16:39Z</time>
      </trkpt>
      <trkpt lat="50.35699" lon="1.5485">
        <ele>2.5</ele>
        <time>2023-06-10T12:16:41Z</time>
      </trkpt>
      <trkpt lat="50.35704" lon="1.54851">
        <ele>2.4</ele>
        <time>2023-06-10T12:16:43Z</time>
      </trkpt>
      <trkpt lat="50.35709" lon="1.54852">
        <ele>2.3</ele>
        <time>2023-06-10T12:16:45Z</time>
      </trkpt>
      <trkpt lat="50.35714" lon="1.54852">
        <ele>2.2</ele>
        <time>2023-06-10T12:16:47Z</time>
      </trkpt>
      <trkpt lat="50.35721" lon="1.54851">
        <ele>2</ele>
        <time>2023-06-10T12:16:49Z</time>
      </trkpt>
      <trkpt lat="50.35726" lon="1.5485">
        <ele>2</ele>
        <time>2023-06-10T12:16:51Z</time>
      </trkpt>
      <trkpt lat="50.35732" lon="1.54849">
        <ele>2</ele>
        <time>2023-06-10T12:16:53Z</time>
      </trkpt>
      <trkpt lat="50.35738" lon="1.54848">
        <ele>2</ele>
        <time>2023-06-10T12:16:55Z</time>
      </trkpt>
      <trkpt lat="50.35744" lon="1.54848">
        <ele>2</ele>
        <time>2023-06-10T12:16:57Z</time>
      </trkpt>
      <trkpt lat="50.35751" lon="1.54847">
        <ele>2</ele>
        <time>2023-06-10T12:16:59Z</time>
      </trkpt>
      <trkpt lat="50.35757" lon="1.54846">
        <ele>2</ele>
        <time>2023-06-10T12:17:01Z</time>
      </trkpt>
      <trkpt lat="50.35763" lon="1.54845">
        <ele>2</ele>
        <time>2023-06-10T12:17:03Z</time>
      </trkpt>
      <trkpt lat="50.35769" lon="1.54844">
        <ele>2</ele>
        <time>2023-06-10T12:17:05Z</time>
      </trkpt>
      <trkpt lat="50.35774" lon="1.54842">
        <ele>2</ele>
        <time>2023-06-10T12:17:07Z</time>
      </trkpt>
      <trkpt lat="50.35779" lon="1.54841">
        <ele>2</ele>
        <time>2023-06-10T12:17:09Z</time>
      </trkpt>
      <trkpt lat="50.35785" lon="1.54841">
        <ele>2</ele>
        <time>2023-06-10T12:17:11Z</time>
      </trkpt>
      <trkpt lat="50.3579" lon="1.5484">
        <ele>2</ele>
        <time>2023-06-10T12:17:13Z</time>
      </trkpt>
      <trkpt lat="50.35795" lon="1.54838">
        <ele>2</ele>
        <time>2023-06-10T12:17:15Z</time>
      </trkpt>
      <trkpt lat="50.358" lon="1.54836">
        <ele>2</ele>
        <time>2023-06-10T12:17:17Z</time>
      </trkpt>
      <trkpt lat="50.35805" lon="1.54834">
        <ele>2</ele>
        <time>2023-06-10T12:17:19Z</time>
      </trkpt>
      <trkpt lat="50.3581" lon="1.54834">
        <ele>2</ele>
        <time>2023-06-10T12:17:21Z</time>
      </trkpt>
      <trkpt lat="50.35818" lon="1.54833">
        <ele>2</ele>
        <time>2023-06-10T12:17:25Z</time>
      </trkpt>
      <trkpt lat="50.35827" lon="1.54833">
        <ele>2</ele>
        <time>2023-06-10T12:17:29Z</time>
      </trkpt>
      <trkpt lat="50.35835" lon="1.54834">
        <ele>2</ele>
        <time>2023-06-10T12:17:33Z</time>
      </trkpt>
      <trkpt lat="50.3584" lon="1.54836">
        <ele>2</ele>
        <time>2023-06-10T12:17:35Z</time>
      </trkpt>
      <trkpt lat="50.35845" lon="1.54837">
        <ele>2</ele>
        <time>2023-06-10T12:17:37Z</time>
      </trkpt>
      <trkpt lat="50.35851" lon="1.54836">
        <ele>2</ele>
        <time>2023-06-10T12:17:39Z</time>
      </trkpt>
      <trkpt lat="50.35855" lon="1.54834">
        <ele>2</ele>
        <time>2023-06-10T12:17:41Z</time>
      </trkpt>
      <trkpt lat="50.35861" lon="1.54832">
        <ele>2</ele>
        <time>2023-06-10T12:17:43Z</time>
      </trkpt>
      <trkpt lat="50.35867" lon="1.54832">
        <ele>2</ele>
        <time>2023-06-10T12:17:45Z</time>
      </trkpt>
      <trkpt lat="50.35873" lon="1.54832">
        <ele>2</ele>
        <time>2023-06-10T12:17:47Z</time>
      </trkpt>
      <trkpt lat="50.35878" lon="1.54832">
        <ele>2</ele>
        <time>2023-06-10T12:17:49Z</time>
      </trkpt>
      <trkpt lat="50.35882" lon="1.54832">
        <ele>2</ele>
        <time>2023-06-10T12:17:51Z</time>
      </trkpt>
      <trkpt lat="50.35888" lon="1.5483">
        <ele>2</ele>
        <time>2023-06-10T12:17:53Z</time>
      </trkpt>
      <trkpt lat="50.35893" lon="1.54827">
        <ele>2</ele>
        <time>2023-06-10T12:17:55Z</time>
      </trkpt>
      <trkpt lat="50.35898" lon="1.54822">
        <ele>2</ele>
        <time>2023-06-10T12:17:57Z</time>
      </trkpt>
      <trkpt lat="50.35902" lon="1.54818">
        <ele>2</ele>
        <time>2023-06-10T12:17:59Z</time>
      </trkpt>
      <trkpt lat="50.35906" lon="1.54815">
        <ele>2</ele>
        <time>2023-06-10T12:18:01Z</time>
      </trkpt>
      <trkpt lat="50.35911" lon="1.54813">
        <ele>2</ele>
        <time>2023-06-10T12:18:03Z</time>
      </trkpt>
      <trkpt lat="50.35914" lon="1.54808">
        <ele>2</ele>
        <time>2023-06-10T12:18:05Z</time>
      </trkpt>
      <trkpt lat="50.35917" lon="1.54802">
        <ele>2</ele>
        <time>2023-06-10T12:18:07Z</time>
      </trkpt>
      <trkpt lat="50.3592" lon="1.54796">
        <ele>2</ele>
        <time>2023-06-10T12:18:09Z</time>
      </trkpt>
      <trkpt lat="50.35924" lon="1.54789">
        <ele>2</ele>
        <time>2023-06-10T12:18:11Z</time>
      </trkpt>
      <trkpt lat="50.35928" lon="1.54783">
        <ele>2</ele>
        <time>2023-06-10T12:18:13Z</time>
      </trkpt>
      <trkpt lat="50.35932" lon="1.54776">
        <ele>2</ele>
        <time>2023-06-10T12:18:15Z</time>
      </trkpt>
      <trkpt lat="50.35936" lon="1.54769">
        <ele>1.9</ele>
        <time>2023-06-10T12:18:17Z</time>
      </trkpt>
      <trkpt lat="50.35941" lon="1.54762">
        <ele>1.9</ele>
        <time>2023-06-10T12:18:19Z</time>
      </trkpt>
      <trkpt lat="50.35946" lon="1.54755">
        <ele>2</ele>
        <time>2023-06-10T12:18:21Z</time>
      </trkpt>
      <trkpt lat="50.3595" lon="1.54748">
        <ele>1.9</ele>
        <time>2023-06-10T12:18:23Z</time>
      </trkpt>
      <trkpt lat="50.35956" lon="1.54742">
        <ele>1.7</ele>
        <time>2023-06-10T12:18:25Z</time>
      </trkpt>
      <trkpt lat="50.35963" lon="1.54737">
        <ele>1.5</ele>
        <time>2023-06-10T12:18:27Z</time>
      </trkpt>
      <trkpt lat="50.35969" lon="1.54733">
        <ele>1.4</ele>
        <time>2023-06-10T12:18:29Z</time>
      </trkpt>
      <trkpt lat="50.35975" lon="1.54729">
        <ele>1.2</ele>
        <time>2023-06-10T12:18:31Z</time>
      </trkpt>
      <trkpt lat="50.35982" lon="1.54725">
        <ele>1.1</ele>
        <time>2023-06-10T12:18:33Z</time>
      </trkpt>
      <trkpt lat="50.35988" lon="1.54721">
        <ele>1</ele>
        <time>2023-06-10T12:18:35Z</time>
      </trkpt>
      <trkpt lat="50.35994" lon="1.54719">
        <ele>1</ele>
        <time>2023-06-10T12:18:37Z</time>
      </trkpt>
      <trkpt lat="50.36" lon="1.54718">
        <ele>1</ele>
        <time>2023-06-10T12:18:39Z</time>
      </trkpt>
      <trkpt lat="50.36006" lon="1.54716">
        <ele>1</ele>
        <time>2023-06-10T12:18:41Z</time>
      </trkpt>
      <trkpt lat="50.36012" lon="1.54718">
        <ele>1</ele>
        <time>2023-06-10T12:18:43Z</time>
      </trkpt>
      <trkpt lat="50.36019" lon="1.54718">
        <ele>1</ele>
        <time>2023-06-10T12:18:45Z</time>
      </trkpt>
      <trkpt lat="50.36026" lon="1.54718">
        <ele>1</ele>
        <time>2023-06-10T12:18:47Z</time>
      </trkpt>
      <trkpt lat="50.36032" lon="1.54718">
        <ele>1</ele>
        <time>2023-06-10T12:18:49Z</time>
      </trkpt>
      <trkpt lat="50.36039" lon="1.5472">
        <ele>1</ele>
        <time>2023-06-10T12:18:51Z</time>
      </trkpt>
      <trkpt lat="50.36045" lon="1.54722">
        <ele>1</ele>
        <time>2023-06-10T12:18:53Z</time>
      </trkpt>
      <trkpt lat="50.3605" lon="1.54723">
        <ele>1</ele>
        <time>2023-06-10T12:18:55Z</time>
      </trkpt>
      <trkpt lat="50.36056" lon="1.54724">
        <ele>1</ele>
        <time>2023-06-10T12:18:57Z</time>
      </trkpt>
      <trkpt lat="50.36061" lon="1.54726">
        <ele>1</ele>
        <time>2023-06-10T12:18:59Z</time>
      </trkpt>
      <trkpt lat="50.36066" lon="1.54726">
        <ele>1</ele>
        <time>2023-06-10T12:19:01Z</time>
      </trkpt>
      <trkpt lat="50.36072" lon="1.54726">
        <ele>1</ele>
        <time>2023-06-10T12:19:03Z</time>
      </trkpt>
      <trkpt lat="50.36077" lon="1.54726">
        <ele>1</ele>
        <time>2023-06-10T12:19:05Z</time>
      </trkpt>
      <trkpt lat="50.36082" lon="1.54728">
        <ele>1</ele>
        <time>2023-06-10T12:19:07Z</time>
      </trkpt>
      <trkpt lat="50.36087" lon="1.54731">
        <ele>1</ele>
        <time>2023-06-10T12:19:09Z</time>
      </trkpt>
      <trkpt lat="50.36096" lon="1.54735">
        <ele>1</ele>
        <time>2023-06-10T12:19:13Z</time>
      </trkpt>
      <trkpt lat="50.361" lon="1.54737">
        <ele>1</ele>
        <time>2023-06-10T12:19:15Z</time>
      </trkpt>
      <trkpt lat="50.36105" lon="1.5474">
        <ele>1</ele>
        <time>2023-06-10T12:19:17Z</time>
      </trkpt>
      <trkpt lat="50.3611" lon="1.54743">
        <ele>1</ele>
        <time>2023-06-10T12:19:19Z</time>
      </trkpt>
      <trkpt lat="50.36115" lon="1.54745">
        <ele>1</ele>
        <time>2023-06-10T12:19:21Z</time>
      </trkpt>
      <trkpt lat="50.3612" lon="1.54747">
        <ele>1</ele>
        <time>2023-06-10T12:19:23Z</time>
      </trkpt>
      <trkpt lat="50.36125" lon="1.54749">
        <ele>1</ele>
        <time>2023-06-10T12:19:25Z</time>
      </trkpt>
      <trkpt lat="50.36133" lon="1.54751">
        <ele>1</ele>
        <time>2023-06-10T12:19:29Z</time>
      </trkpt>
      <trkpt lat="50.36137" lon="1.54747">
        <ele>1</ele>
        <time>2023-06-10T12:19:31Z</time>
      </trkpt>
      <trkpt lat="50.36143" lon="1.54744">
        <ele>1</ele>
        <time>2023-06-10T12:19:33Z</time>
      </trkpt>
      <trkpt lat="50.36149" lon="1.54742">
        <ele>1</ele>
        <time>2023-06-10T12:19:35Z</time>
      </trkpt>
      <trkpt lat="50.36155" lon="1.54742">
        <ele>1</ele>
        <time>2023-06-10T12:19:37Z</time>
      </trkpt>
      <trkpt lat="50.36162" lon="1.54742">
        <ele>1</ele>
        <time>2023-06-10T12:19:39Z</time>
      </trkpt>
      <trkpt lat="50.36169" lon="1.54742">
        <ele>1</ele>
        <time>2023-06-10T12:19:41Z</time>
      </trkpt>
      <trkpt lat="50.36176" lon="1.54742">
        <ele>1</ele>
        <time>2023-06-10T12:19:43Z</time>
      </trkpt>
      <trkpt lat="50.36182" lon="1.54744">
        <ele>1</ele>
        <time>2023-06-10T12:19:45Z</time>
      </trkpt>
      <trkpt lat="50.36187" lon="1.54745">
        <ele>1</ele>
        <time>2023-06-10T12:19:47Z</time>
      </trkpt>
      <trkpt lat="50.36193" lon="1.54746">
        <ele>1</ele>
        <time>2023-06-10T12:19:49Z</time>
      </trkpt>
      <trkpt lat="50.36199" lon="1.54747">
        <ele>1</ele>
        <time>2023-06-10T12:19:51Z</time>
      </trkpt>
      <trkpt lat="50.36205" lon="1.54747">
        <ele>1</ele>
        <time>2023-06-10T12:19:53Z</time>
      </trkpt>
      <trkpt lat="50.36211" lon="1.54747">
        <ele>1</ele>
        <time>2023-06-10T12:19:55Z</time>
      </trkpt>
      <trkpt lat="50.36217" lon="1.54747">
        <ele>1</ele>
        <time>2023-06-10T12:19:57Z</time>
      </trkpt>
      <trkpt lat="50.36222" lon="1.54746">
        <ele>1</ele>
        <time>2023-06-10T12:19:59Z</time>
      </trkpt>
      <trkpt lat="50.36227" lon="1.54745">
        <ele>1</ele>
        <time>2023-06-10T12:20:01Z</time>
      </trkpt>
      <trkpt lat="50.36234" lon="1.54743">
        <ele>1</ele>
        <time>2023-06-10T12:20:03Z</time>
      </trkpt>
      <trkpt lat="50.3624" lon="1.54744">
        <ele>1</ele>
        <time>2023-06-10T12:20:05Z</time>
      </trkpt>
      <trkpt lat="50.36246" lon="1.54743">
        <ele>1</ele>
        <time>2023-06-10T12:20:07Z</time>
      </trkpt>
      <trkpt lat="50.36252" lon="1.54743">
        <ele>1</ele>
        <time>2023-06-10T12:20:09Z</time>
      </trkpt>
      <trkpt lat="50.36259" lon="1.54743">
        <ele>1</ele>
        <time>2023-06-10T12:20:11Z</time>
      </trkpt>
      <trkpt lat="50.36264" lon="1.54744">
        <ele>1</ele>
        <time>2023-06-10T12:20:13Z</time>
      </trkpt>
      <trkpt lat="50.36269" lon="1.54747">
        <ele>1</ele>
        <time>2023-06-10T12:20:17Z</time>
      </trkpt>
      <trkpt lat="50.36274" lon="1.54747">
        <ele>1</ele>
        <time>2023-06-10T12:20:21Z</time>
      </trkpt>
      <trkpt lat="50.36279" lon="1.54753">
        <ele>1</ele>
        <time>2023-06-10T12:20:25Z</time>
      </trkpt>
      <trkpt lat="50.36283" lon="1.54758">
        <ele>1</ele>
        <time>2023-06-10T12:20:29Z</time>
      </trkpt>
      <trkpt lat="50.3629" lon="1.54763">
        <ele>1</ele>
        <time>2023-06-10T12:20:33Z</time>
      </trkpt>
      <trkpt lat="50.36296" lon="1.54766">
        <ele>1</ele>
        <time>2023-06-10T12:20:37Z</time>
      </trkpt>
      <trkpt lat="50.36304" lon="1.54771">
        <ele>1</ele>
        <time>2023-06-10T12:20:41Z</time>
      </trkpt>
      <trkpt lat="50.36308" lon="1.54774">
        <ele>1</ele>
        <time>2023-06-10T12:20:43Z</time>
      </trkpt>
      <trkpt lat="50.36312" lon="1.54778">
        <ele>1</ele>
        <time>2023-06-10T12:20:45Z</time>
      </trkpt>
      <trkpt lat="50.36316" lon="1.54782">
        <ele>1.2</ele>
        <time>2023-06-10T12:20:47Z</time>
      </trkpt>
      <trkpt lat="50.3632" lon="1.54786">
        <ele>1.3</ele>
        <time>2023-06-10T12:20:49Z</time>
      </trkpt>
      <trkpt lat="50.36324" lon="1.54789">
        <ele>1.4</ele>
        <time>2023-06-10T12:20:51Z</time>
      </trkpt>
      <trkpt lat="50.36332" lon="1.54795">
        <ele>1.6</ele>
        <time>2023-06-10T12:20:55Z</time>
      </trkpt>
      <trkpt lat="50.36338" lon="1.548">
        <ele>1.8</ele>
        <time>2023-06-10T12:20:59Z</time>
      </trkpt>
      <trkpt lat="50.36343" lon="1.54807">
        <ele>2</ele>
        <time>2023-06-10T12:21:03Z</time>
      </trkpt>
      <trkpt lat="50.36349" lon="1.54815">
        <ele>2</ele>
        <time>2023-06-10T12:21:07Z</time>
      </trkpt>
      <trkpt lat="50.36352" lon="1.5482">
        <ele>2</ele>
        <time>2023-06-10T12:21:09Z</time>
      </trkpt>
      <trkpt lat="50.36356" lon="1.54825">
        <ele>2</ele>
        <time>2023-06-10T12:21:11Z</time>
      </trkpt>
      <trkpt lat="50.3636" lon="1.54831">
        <ele>2</ele>
        <time>2023-06-10T12:21:13Z</time>
      </trkpt>
      <trkpt lat="50.36364" lon="1.54836">
        <ele>2</ele>
        <time>2023-06-10T12:21:15Z</time>
      </trkpt>
      <trkpt lat="50.36368" lon="1.5484">
        <ele>2</ele>
        <time>2023-06-10T12:21:17Z</time>
      </trkpt>
      <trkpt lat="50.36371" lon="1.54845">
        <ele>2</ele>
        <time>2023-06-10T12:21:19Z</time>
      </trkpt>
      <trkpt lat="50.36375" lon="1.5485">
        <ele>2</ele>
        <time>2023-06-10T12:21:21Z</time>
      </trkpt>
      <trkpt lat="50.36379" lon="1.54856">
        <ele>2</ele>
        <time>2023-06-10T12:21:23Z</time>
      </trkpt>
      <trkpt lat="50.36385" lon="1.54859">
        <ele>2</ele>
        <time>2023-06-10T12:21:27Z</time>
      </trkpt>
      <trkpt lat="50.36391" lon="1.54856">
        <ele>2</ele>
        <time>2023-06-10T12:21:33Z</time>
      </trkpt>
      <trkpt lat="50.36397" lon="1.54854">
        <ele>2</ele>
        <time>2023-06-10T12:21:37Z</time>
      </trkpt>
      <trkpt lat="50.36403" lon="1.54854">
        <ele>2</ele>
        <time>2023-06-10T12:21:41Z</time>
      </trkpt>
      <trkpt lat="50.36408" lon="1.54855">
        <ele>2</ele>
        <time>2023-06-10T12:21:49Z</time>
      </trkpt>
      <trkpt lat="50.36412" lon="1.54857">
        <ele>2</ele>
        <time>2023-06-10T12:21:51Z</time>
      </trkpt>
      <trkpt lat="50.36418" lon="1.54859">
        <ele>2</ele>
        <time>2023-06-10T12:21:53Z</time>
      </trkpt>
      <trkpt lat="50.36423" lon="1.54861">
        <ele>2</ele>
        <time>2023-06-10T12:21:55Z</time>
      </trkpt>
      <trkpt lat="50.36428" lon="1.54862">
        <ele>2</ele>
        <time>2023-06-10T12:21:57Z</time>
      </trkpt>
      <trkpt lat="50.36434" lon="1.54863">
        <ele>2</ele>
        <time>2023-06-10T12:21:59Z</time>
      </trkpt>
      <trkpt lat="50.36439" lon="1.54864">
        <ele>2</ele>
        <time>2023-06-10T12:22:01Z</time>
      </trkpt>
      <trkpt lat="50.36444" lon="1.54865">
        <ele>2</ele>
        <time>2023-06-10T12:22:03Z</time>
      </trkpt>
      <trkpt lat="50.3645" lon="1.54866">
        <ele>2</ele>
        <time>2023-06-10T12:22:05Z</time>
      </trkpt>
      <trkpt lat="50.36455" lon="1.54867">
        <ele>2</ele>
        <time>2023-06-10T12:22:07Z</time>
      </trkpt>
      <trkpt lat="50.3646" lon="1.54868">
        <ele>2</ele>
        <time>2023-06-10T12:22:09Z</time>
      </trkpt>
      <trkpt lat="50.36465" lon="1.54869">
        <ele>2</ele>
        <time>2023-06-10T12:22:11Z</time>
      </trkpt>
      <trkpt lat="50.3647" lon="1.5487">
        <ele>2</ele>
        <time>2023-06-10T12:22:13Z</time>
      </trkpt>
      <trkpt lat="50.36475" lon="1.54872">
        <ele>2</ele>
        <time>2023-06-10T12:22:15Z</time>
      </trkpt>
      <trkpt lat="50.36484" lon="1.54873">
        <ele>2</ele>
        <time>2023-06-10T12:22:19Z</time>
      </trkpt>
      <trkpt lat="50.36493" lon="1.54875">
        <ele>2</ele>
        <time>2023-06-10T12:22:23Z</time>
      </trkpt>
      <trkpt lat="50.36497" lon="1.54876">
        <ele>2</ele>
        <time>2023-06-10T12:22:25Z</time>
      </trkpt>
      <trkpt lat="50.36506" lon="1.5488">
        <ele>2</ele>
        <time>2023-06-10T12:22:29Z</time>
      </trkpt>
      <trkpt lat="50.36515" lon="1.54883">
        <ele>2</ele>
        <time>2023-06-10T12:22:33Z</time>
      </trkpt>
      <trkpt lat="50.36519" lon="1.54885">
        <ele>2</ele>
        <time>2023-06-10T12:22:35Z</time>
      </trkpt>
      <trkpt lat="50.36524" lon="1.54887">
        <ele>2</ele>
        <time>2023-06-10T12:22:37Z</time>
      </trkpt>
      <trkpt lat="50.36529" lon="1.54888">
        <ele>2</ele>
        <time>2023-06-10T12:22:39Z</time>
      </trkpt>
      <trkpt lat="50.36533" lon="1.5489">
        <ele>2</ele>
        <time>2023-06-10T12:22:41Z</time>
      </trkpt>
      <trkpt lat="50.36538" lon="1.54891">
        <ele>2</ele>
        <time>2023-06-10T12:22:43Z</time>
      </trkpt>
      <trkpt lat="50.36543" lon="1.54892">
        <ele>2</ele>
        <time>2023-06-10T12:22:45Z</time>
      </trkpt>
      <trkpt lat="50.36548" lon="1.54893">
        <ele>2</ele>
        <time>2023-06-10T12:22:47Z</time>
      </trkpt>
      <trkpt lat="50.36553" lon="1.54894">
        <ele>2</ele>
        <time>2023-06-10T12:22:49Z</time>
      </trkpt>
      <trkpt lat="50.36559" lon="1.54895">
        <ele>2</ele>
        <time>2023-06-10T12:22:51Z</time>
      </trkpt>
      <trkpt lat="50.36564" lon="1.54895">
        <ele>2</ele>
        <time>2023-06-10T12:22:53Z</time>
      </trkpt>
      <trkpt lat="50.36569" lon="1.54897">
        <ele>2</ele>
        <time>2023-06-10T12:22:55Z</time>
      </trkpt>
      <trkpt lat="50.36574" lon="1.549">
        <ele>2</ele>
        <time>2023-06-10T12:22:57Z</time>
      </trkpt>
      <trkpt lat="50.3658" lon="1.54902">
        <ele>2</ele>
        <time>2023-06-10T12:22:59Z</time>
      </trkpt>
      <trkpt lat="50.36585" lon="1.54904">
        <ele>2</ele>
        <time>2023-06-10T12:23:01Z</time>
      </trkpt>
      <trkpt lat="50.3659" lon="1.54905">
        <ele>2</ele>
        <time>2023-06-10T12:23:03Z</time>
      </trkpt>
      <trkpt lat="50.36595" lon="1.54906">
        <ele>2</ele>
        <time>2023-06-10T12:23:05Z</time>
      </trkpt>
      <trkpt lat="50.366" lon="1.54907">
        <ele>2</ele>
        <time>2023-06-10T12:23:07Z</time>
      </trkpt>
      <trkpt lat="50.36605" lon="1.54908">
        <ele>2</ele>
        <time>2023-06-10T12:23:09Z</time>
      </trkpt>
      <trkpt lat="50.3661" lon="1.54909">
        <ele>2</ele>
        <time>2023-06-10T12:23:11Z</time>
      </trkpt>
      <trkpt lat="50.36615" lon="1.54909">
        <ele>2</ele>
        <time>2023-06-10T12:23:13Z</time>
      </trkpt>
      <trkpt lat="50.3662" lon="1.54912">
        <ele>2</ele>
        <time>2023-06-10T12:23:15Z</time>
      </trkpt>
      <trkpt lat="50.36627" lon="1.54917">
        <ele>2</ele>
        <time>2023-06-10T12:23:19Z</time>
      </trkpt>
      <trkpt lat="50.36635" lon="1.54921">
        <ele>2</ele>
        <time>2023-06-10T12:23:23Z</time>
      </trkpt>
      <trkpt lat="50.36642" lon="1.54923">
        <ele>2</ele>
        <time>2023-06-10T12:23:27Z</time>
      </trkpt>
      <trkpt lat="50.3665" lon="1.54922">
        <ele>2</ele>
        <time>2023-06-10T12:23:31Z</time>
      </trkpt>
      <trkpt lat="50.36658" lon="1.54922">
        <ele>2</ele>
        <time>2023-06-10T12:23:35Z</time>
      </trkpt>
      <trkpt lat="50.36663" lon="1.54922">
        <ele>2</ele>
        <time>2023-06-10T12:23:37Z</time>
      </trkpt>
      <trkpt lat="50.36667" lon="1.54924">
        <ele>2</ele>
        <time>2023-06-10T12:23:39Z</time>
      </trkpt>
      <trkpt lat="50.36672" lon="1.54924">
        <ele>2</ele>
        <time>2023-06-10T12:23:41Z</time>
      </trkpt>
      <trkpt lat="50.36677" lon="1.54924">
        <ele>2</ele>
        <time>2023-06-10T12:23:43Z</time>
      </trkpt>
      <trkpt lat="50.36686" lon="1.54926">
        <ele>2</ele>
        <time>2023-06-10T12:23:47Z</time>
      </trkpt>
      <trkpt lat="50.36695" lon="1.54928">
        <ele>2</ele>
        <time>2023-06-10T12:23:51Z</time>
      </trkpt>
      <trkpt lat="50.367" lon="1.5493">
        <ele>2</ele>
        <time>2023-06-10T12:23:53Z</time>
      </trkpt>
      <trkpt lat="50.36709" lon="1.54934">
        <ele>2</ele>
        <time>2023-06-10T12:23:57Z</time>
      </trkpt>
      <trkpt lat="50.36717" lon="1.54938">
        <ele>2</ele>
        <time>2023-06-10T12:24:01Z</time>
      </trkpt>
      <trkpt lat="50.36721" lon="1.5494">
        <ele>2</ele>
        <time>2023-06-10T12:24:03Z</time>
      </trkpt>
      <trkpt lat="50.36729" lon="1.54948">
        <ele>1.9</ele>
        <time>2023-06-10T12:24:07Z</time>
      </trkpt>
      <trkpt lat="50.36736" lon="1.54953">
        <ele>1.7</ele>
        <time>2023-06-10T12:24:11Z</time>
      </trkpt>
      <trkpt lat="50.36743" lon="1.54959">
        <ele>1.5</ele>
        <time>2023-06-10T12:24:15Z</time>
      </trkpt>
      <trkpt lat="50.36749" lon="1.54965">
        <ele>1.3</ele>
        <time>2023-06-10T12:24:19Z</time>
      </trkpt>
      <trkpt lat="50.36754" lon="1.54971">
        <ele>1</ele>
        <time>2023-06-10T12:24:27Z</time>
      </trkpt>
      <trkpt lat="50.36758" lon="1.54976">
        <ele>1</ele>
        <time>2023-06-10T12:24:31Z</time>
      </trkpt>
      <trkpt lat="50.36763" lon="1.54981">
        <ele>1</ele>
        <time>2023-06-10T12:24:35Z</time>
      </trkpt>
      <trkpt lat="50.36768" lon="1.54987">
        <ele>1</ele>
        <time>2023-06-10T12:24:39Z</time>
      </trkpt>
      <trkpt lat="50.36772" lon="1.54991">
        <ele>1</ele>
        <time>2023-06-10T12:24:43Z</time>
      </trkpt>
      <trkpt lat="50.36777" lon="1.54993">
        <ele>1</ele>
        <time>2023-06-10T12:24:47Z</time>
      </trkpt>
      <trkpt lat="50.36782" lon="1.54995">
        <ele>1</ele>
        <time>2023-06-10T12:24:51Z</time>
      </trkpt>
      <trkpt lat="50.36787" lon="1.54997">
        <ele>1</ele>
        <time>2023-06-10T12:24:55Z</time>
      </trkpt>
      <trkpt lat="50.36792" lon="1.54999">
        <ele>1</ele>
        <time>2023-06-10T12:24:59Z</time>
      </trkpt>
      <trkpt lat="50.36796" lon="1.55003">
        <ele>1</ele>
        <time>2023-06-10T12:25:03Z</time>
      </trkpt>
      <trkpt lat="50.36802" lon="1.55005">
        <ele>1</ele>
        <time>2023-06-10T12:25:07Z</time>
      </trkpt>
      <trkpt lat="50.36808" lon="1.5501">
        <ele>1</ele>
        <time>2023-06-10T12:25:11Z</time>
      </trkpt>
      <trkpt lat="50.36814" lon="1.55013">
        <ele>1</ele>
        <time>2023-06-10T12:25:15Z</time>
      </trkpt>
      <trkpt lat="50.3682" lon="1.55013">
        <ele>1</ele>
        <time>2023-06-10T12:25:19Z</time>
      </trkpt>
      <trkpt lat="50.36825" lon="1.55014">
        <ele>1</ele>
        <time>2023-06-10T12:25:23Z</time>
      </trkpt>
      <trkpt lat="50.36831" lon="1.55015">
        <ele>1</ele>
        <time>2023-06-10T12:25:27Z</time>
      </trkpt>
      <trkpt lat="50.36836" lon="1.55018">
        <ele>1</ele>
        <time>2023-06-10T12:25:31Z</time>
      </trkpt>
      <trkpt lat="50.36841" lon="1.55019">
        <ele>1</ele>
        <time>2023-06-10T12:25:35Z</time>
      </trkpt>
      <trkpt lat="50.36845" lon="1.55023">
        <ele>1</ele>
        <time>2023-06-10T12:25:41Z</time>
      </trkpt>
      <trkpt lat="50.3685" lon="1.55025">
        <ele>1</ele>
        <time>2023-06-10T12:25:45Z</time>
      </trkpt>
      <trkpt lat="50.36857" lon="1.55028">
        <ele>1</ele>
        <time>2023-06-10T12:25:49Z</time>
      </trkpt>
      <trkpt lat="50.36862" lon="1.55031">
        <ele>1</ele>
        <time>2023-06-10T12:25:51Z</time>
      </trkpt>
      <trkpt lat="50.36867" lon="1.55032">
        <ele>1</ele>
        <time>2023-06-10T12:25:53Z</time>
      </trkpt>
      <trkpt lat="50.36873" lon="1.55031">
        <ele>1</ele>
        <time>2023-06-10T12:25:55Z</time>
      </trkpt>
      <trkpt lat="50.36878" lon="1.55031">
        <ele>1.1</ele>
        <time>2023-06-10T12:25:57Z</time>
      </trkpt>
      <trkpt lat="50.36883" lon="1.55031">
        <ele>1.1</ele>
        <time>2023-06-10T12:25:59Z</time>
      </trkpt>
      <trkpt lat="50.36888" lon="1.55031">
        <ele>1.1</ele>
        <time>2023-06-10T12:26:01Z</time>
      </trkpt>
      <trkpt lat="50.36892" lon="1.55029">
        <ele>1</ele>
        <time>2023-06-10T12:26:03Z</time>
      </trkpt>
      <trkpt lat="50.36897" lon="1.55028">
        <ele>1</ele>
        <time>2023-06-10T12:26:05Z</time>
      </trkpt>
      <trkpt lat="50.36902" lon="1.55027">
        <ele>1</ele>
        <time>2023-06-10T12:26:07Z</time>
      </trkpt>
      <trkpt lat="50.36911" lon="1.55029">
        <ele>1</ele>
        <time>2023-06-10T12:26:11Z</time>
      </trkpt>
      <trkpt lat="50.36918" lon="1.55033">
        <ele>1</ele>
        <time>2023-06-10T12:26:15Z</time>
      </trkpt>
      <trkpt lat="50.36923" lon="1.55037">
        <ele>1</ele>
        <time>2023-06-10T12:26:19Z</time>
      </trkpt>
      <trkpt lat="50.3693" lon="1.55043">
        <ele>1</ele>
        <time>2023-06-10T12:26:23Z</time>
      </trkpt>
      <trkpt lat="50.36934" lon="1.55046">
        <ele>1</ele>
        <time>2023-06-10T12:26:29Z</time>
      </trkpt>
      <trkpt lat="50.36935" lon="1.55054">
        <ele>1</ele>
        <time>2023-06-10T12:26:35Z</time>
      </trkpt>
      <trkpt lat="50.36937" lon="1.55062">
        <ele>1.2</ele>
        <time>2023-06-10T12:26:41Z</time>
      </trkpt>
      <trkpt lat="50.36939" lon="1.55071">
        <ele>1.6</ele>
        <time>2023-06-10T12:26:47Z</time>
      </trkpt>
      <trkpt lat="50.3694" lon="1.55081">
        <ele>1.9</ele>
        <time>2023-06-10T12:26:53Z</time>
      </trkpt>
      <trkpt lat="50.36941" lon="1.55091">
        <ele>1.8</ele>
        <time>2023-06-10T12:26:59Z</time>
      </trkpt>
      <trkpt lat="50.36943" lon="1.55101">
        <ele>1.4</ele>
        <time>2023-06-10T12:27:05Z</time>
      </trkpt>
      <trkpt lat="50.36946" lon="1.55109">
        <ele>1.1</ele>
        <time>2023-06-10T12:27:11Z</time>
      </trkpt>
      <trkpt lat="50.36949" lon="1.55118">
        <ele>1.4</ele>
        <time>2023-06-10T12:27:17Z</time>
      </trkpt>
      <trkpt lat="50.36951" lon="1.55125">
        <ele>1.6</ele>
        <time>2023-06-10T12:27:21Z</time>
      </trkpt>
      <trkpt lat="50.36954" lon="1.55134">
        <ele>1.9</ele>
        <time>2023-06-10T12:27:27Z</time>
      </trkpt>
      <trkpt lat="50.36956" lon="1.55143">
        <ele>2.1</ele>
        <time>2023-06-10T12:27:33Z</time>
      </trkpt>
      <trkpt lat="50.36957" lon="1.5515">
        <ele>2.4</ele>
        <time>2023-06-10T12:27:37Z</time>
      </trkpt>
      <trkpt lat="50.36957" lon="1.55157">
        <ele>2.7</ele>
        <time>2023-06-10T12:27:41Z</time>
      </trkpt>
      <trkpt lat="50.36956" lon="1.55164">
        <ele>2.9</ele>
        <time>2023-06-10T12:27:47Z</time>
      </trkpt>
      <trkpt lat="50.36953" lon="1.55178">
        <ele>3</ele>
        <time>2023-06-10T12:27:51Z</time>
      </trkpt>
      <trkpt lat="50.36953" lon="1.55187">
        <ele>3</ele>
        <time>2023-06-10T12:27:53Z</time>
      </trkpt>
      <trkpt lat="50.36953" lon="1.55195">
        <ele>3</ele>
        <time>2023-06-10T12:27:55Z</time>
      </trkpt>
      <trkpt lat="50.36952" lon="1.55203">
        <ele>2.7</ele>
        <time>2023-06-10T12:27:57Z</time>
      </trkpt>
      <trkpt lat="50.36951" lon="1.5521">
        <ele>2.4</ele>
        <time>2023-06-10T12:27:59Z</time>
      </trkpt>
      <trkpt lat="50.3695" lon="1.55217">
        <ele>2.2</ele>
        <time>2023-06-10T12:28:01Z</time>
      </trkpt>
      <trkpt lat="50.36949" lon="1.55229">
        <ele>2.2</ele>
        <time>2023-06-10T12:28:05Z</time>
      </trkpt>
      <trkpt lat="50.36951" lon="1.55239">
        <ele>2.6</ele>
        <time>2023-06-10T12:28:13Z</time>
      </trkpt>
      <trkpt lat="50.36951" lon="1.55246">
        <ele>2.9</ele>
        <time>2023-06-10T12:28:17Z</time>
      </trkpt>
      <trkpt lat="50.36952" lon="1.55257">
        <ele>3</ele>
        <time>2023-06-10T12:28:23Z</time>
      </trkpt>
      <trkpt lat="50.3695" lon="1.55264">
        <ele>3</ele>
        <time>2023-06-10T12:28:29Z</time>
      </trkpt>
      <trkpt lat="50.36952" lon="1.55272">
        <ele>3</ele>
        <time>2023-06-10T12:28:37Z</time>
      </trkpt>
      <trkpt lat="50.36954" lon="1.55281">
        <ele>3</ele>
        <time>2023-06-10T12:28:43Z</time>
      </trkpt>
      <trkpt lat="50.36954" lon="1.55288">
        <ele>3</ele>
        <time>2023-06-10T12:28:47Z</time>
      </trkpt>
      <trkpt lat="50.36951" lon="1.55299">
        <ele>3</ele>
        <time>2023-06-10T12:28:55Z</time>
      </trkpt>
      <trkpt lat="50.3695" lon="1.55311">
        <ele>3.2</ele>
        <time>2023-06-10T12:28:59Z</time>
      </trkpt>
      <trkpt lat="50.36948" lon="1.55323">
        <ele>3.6</ele>
        <time>2023-06-10T12:29:03Z</time>
      </trkpt>
      <trkpt lat="50.36946" lon="1.55337">
        <ele>3.9</ele>
        <time>2023-06-10T12:29:07Z</time>
      </trkpt>
      <trkpt lat="50.36944" lon="1.55348">
        <ele>4</ele>
        <time>2023-06-10T12:29:11Z</time>
      </trkpt>
      <trkpt lat="50.36943" lon="1.55357">
        <ele>4</ele>
        <time>2023-06-10T12:29:15Z</time>
      </trkpt>
      <trkpt lat="50.36943" lon="1.55369">
        <ele>4</ele>
        <time>2023-06-10T12:29:19Z</time>
      </trkpt>
      <trkpt lat="50.36942" lon="1.55377">
        <ele>4</ele>
        <time>2023-06-10T12:29:21Z</time>
      </trkpt>
      <trkpt lat="50.36941" lon="1.55385">
        <ele>4</ele>
        <time>2023-06-10T12:29:23Z</time>
      </trkpt>
      <trkpt lat="50.3694" lon="1.55392">
        <ele>4</ele>
        <time>2023-06-10T12:29:25Z</time>
      </trkpt>
      <trkpt lat="50.36939" lon="1.55399">
        <ele>4</ele>
        <time>2023-06-10T12:29:27Z</time>
      </trkpt>
      <trkpt lat="50.36937" lon="1.55412">
        <ele>4</ele>
        <time>2023-06-10T12:29:31Z</time>
      </trkpt>
      <trkpt lat="50.36936" lon="1.55419">
        <ele>4</ele>
        <time>2023-06-10T12:29:33Z</time>
      </trkpt>
      <trkpt lat="50.36935" lon="1.55426">
        <ele>4</ele>
        <time>2023-06-10T12:29:35Z</time>
      </trkpt>
      <trkpt lat="50.36933" lon="1.55441">
        <ele>4</ele>
        <time>2023-06-10T12:29:39Z</time>
      </trkpt>
      <trkpt lat="50.36932" lon="1.55448">
        <ele>4</ele>
        <time>2023-06-10T12:29:41Z</time>
      </trkpt>
      <trkpt lat="50.3693" lon="1.55461">
        <ele>4</ele>
        <time>2023-06-10T12:29:45Z</time>
      </trkpt>
      <trkpt lat="50.36927" lon="1.55473">
        <ele>4</ele>
        <time>2023-06-10T12:29:49Z</time>
      </trkpt>
      <trkpt lat="50.36926" lon="1.55486">
        <ele>4</ele>
        <time>2023-06-10T12:29:53Z</time>
      </trkpt>
      <trkpt lat="50.36924" lon="1.55498">
        <ele>4</ele>
        <time>2023-06-10T12:29:57Z</time>
      </trkpt>
      <trkpt lat="50.36923" lon="1.55506">
        <ele>4</ele>
        <time>2023-06-10T12:30:03Z</time>
      </trkpt>
      <trkpt lat="50.36922" lon="1.55514">
        <ele>4</ele>
        <time>2023-06-10T12:30:07Z</time>
      </trkpt>
      <trkpt lat="50.3692" lon="1.55522">
        <ele>4</ele>
        <time>2023-06-10T12:30:13Z</time>
      </trkpt>
      <trkpt lat="50.36919" lon="1.55529">
        <ele>4</ele>
        <time>2023-06-10T12:30:17Z</time>
      </trkpt>
      <trkpt lat="50.36917" lon="1.55535">
        <ele>4</ele>
        <time>2023-06-10T12:30:21Z</time>
      </trkpt>
      <trkpt lat="50.36915" lon="1.55545">
        <ele>4</ele>
        <time>2023-06-10T12:30:27Z</time>
      </trkpt>
      <trkpt lat="50.36914" lon="1.55553">
        <ele>4</ele>
        <time>2023-06-10T12:30:33Z</time>
      </trkpt>
      <trkpt lat="50.36913" lon="1.55562">
        <ele>4</ele>
        <time>2023-06-10T12:30:39Z</time>
      </trkpt>
      <trkpt lat="50.36911" lon="1.5557">
        <ele>4</ele>
        <time>2023-06-10T12:30:47Z</time>
      </trkpt>
      <trkpt lat="50.36908" lon="1.55578">
        <ele>4</ele>
        <time>2023-06-10T12:30:53Z</time>
      </trkpt>
      <trkpt lat="50.36905" lon="1.55586">
        <ele>4</ele>
        <time>2023-06-10T12:30:59Z</time>
      </trkpt>
      <trkpt lat="50.36904" lon="1.55595">
        <ele>4</ele>
        <time>2023-06-10T12:31:05Z</time>
      </trkpt>
      <trkpt lat="50.36901" lon="1.55604">
        <ele>4</ele>
        <time>2023-06-10T12:31:11Z</time>
      </trkpt>
      <trkpt lat="50.369" lon="1.5561">
        <ele>4</ele>
        <time>2023-06-10T12:31:15Z</time>
      </trkpt>
      <trkpt lat="50.36898" lon="1.5562">
        <ele>4</ele>
        <time>2023-06-10T12:31:21Z</time>
      </trkpt>
      <trkpt lat="50.36896" lon="1.5563">
        <ele>4</ele>
        <time>2023-06-10T12:31:27Z</time>
      </trkpt>
      <trkpt lat="50.36894" lon="1.55636">
        <ele>4</ele>
        <time>2023-06-10T12:31:31Z</time>
      </trkpt>
      <trkpt lat="50.36892" lon="1.55643">
        <ele>4</ele>
        <time>2023-06-10T12:31:35Z</time>
      </trkpt>
      <trkpt lat="50.36889" lon="1.55652">
        <ele>4</ele>
        <time>2023-06-10T12:31:41Z</time>
      </trkpt>
      <trkpt lat="50.36887" lon="1.55661">
        <ele>4</ele>
        <time>2023-06-10T12:31:47Z</time>
      </trkpt>
      <trkpt lat="50.36885" lon="1.5567">
        <ele>4.1</ele>
        <time>2023-06-10T12:31:53Z</time>
      </trkpt>
      <trkpt lat="50.36883" lon="1.5568">
        <ele>4.5</ele>
        <time>2023-06-10T12:31:59Z</time>
      </trkpt>
      <trkpt lat="50.3688" lon="1.55686">
        <ele>4.7</ele>
        <time>2023-06-10T12:32:03Z</time>
      </trkpt>
      <trkpt lat="50.36878" lon="1.55693">
        <ele>4.9</ele>
        <time>2023-06-10T12:32:07Z</time>
      </trkpt>
      <trkpt lat="50.36876" lon="1.55699">
        <ele>5</ele>
        <time>2023-06-10T12:32:11Z</time>
      </trkpt>
      <trkpt lat="50.36874" lon="1.55706">
        <ele>5</ele>
        <time>2023-06-10T12:32:15Z</time>
      </trkpt>
      <trkpt lat="50.36872" lon="1.55713">
        <ele>5</ele>
        <time>2023-06-10T12:32:19Z</time>
      </trkpt>
      <trkpt lat="50.3687" lon="1.55719">
        <ele>5</ele>
        <time>2023-06-10T12:32:23Z</time>
      </trkpt>
      <trkpt lat="50.36867" lon="1.55726">
        <ele>5</ele>
        <time>2023-06-10T12:32:27Z</time>
      </trkpt>
      <trkpt lat="50.36865" lon="1.55732">
        <ele>5</ele>
        <time>2023-06-10T12:32:31Z</time>
      </trkpt>
      <trkpt lat="50.36861" lon="1.55738">
        <ele>5</ele>
        <time>2023-06-10T12:32:39Z</time>
      </trkpt>
      <trkpt lat="50.36861" lon="1.55746">
        <ele>5</ele>
        <time>2023-06-10T12:32:45Z</time>
      </trkpt>
      <trkpt lat="50.36859" lon="1.55756">
        <ele>5</ele>
        <time>2023-06-10T12:32:51Z</time>
      </trkpt>
      <trkpt lat="50.36857" lon="1.55764">
        <ele>5</ele>
        <time>2023-06-10T12:32:57Z</time>
      </trkpt>
      <trkpt lat="50.36855" lon="1.55774">
        <ele>5</ele>
        <time>2023-06-10T12:33:03Z</time>
      </trkpt>
      <trkpt lat="50.36853" lon="1.55784">
        <ele>5</ele>
        <time>2023-06-10T12:33:09Z</time>
      </trkpt>
      <trkpt lat="50.36851" lon="1.55794">
        <ele>5</ele>
        <time>2023-06-10T12:33:15Z</time>
      </trkpt>
      <trkpt lat="50.36849" lon="1.558">
        <ele>5</ele>
        <time>2023-06-10T12:33:19Z</time>
      </trkpt>
      <trkpt lat="50.36847" lon="1.55806">
        <ele>5</ele>
        <time>2023-06-10T12:33:23Z</time>
      </trkpt>
      <trkpt lat="50.36844" lon="1.55813">
        <ele>5</ele>
        <time>2023-06-10T12:33:27Z</time>
      </trkpt>
      <trkpt lat="50.36842" lon="1.55819">
        <ele>5</ele>
        <time>2023-06-10T12:33:31Z</time>
      </trkpt>
      <trkpt lat="50.36839" lon="1.55825">
        <ele>5</ele>
        <time>2023-06-10T12:33:35Z</time>
      </trkpt>
      <trkpt lat="50.36837" lon="1.55832">
        <ele>5</ele>
        <time>2023-06-10T12:33:39Z</time>
      </trkpt>
      <trkpt lat="50.36835" lon="1.55838">
        <ele>5</ele>
        <time>2023-06-10T12:33:43Z</time>
      </trkpt>
      <trkpt lat="50.36832" lon="1.55845">
        <ele>5</ele>
        <time>2023-06-10T12:33:47Z</time>
      </trkpt>
      <trkpt lat="50.36831" lon="1.55851">
        <ele>5</ele>
        <time>2023-06-10T12:33:51Z</time>
      </trkpt>
      <trkpt lat="50.36829" lon="1.55858">
        <ele>5</ele>
        <time>2023-06-10T12:33:55Z</time>
      </trkpt>
      <trkpt lat="50.36827" lon="1.55864">
        <ele>5</ele>
        <time>2023-06-10T12:33:59Z</time>
      </trkpt>
      <trkpt lat="50.36824" lon="1.55871">
        <ele>5</ele>
        <time>2023-06-10T12:34:03Z</time>
      </trkpt>
      <trkpt lat="50.36821" lon="1.55876">
        <ele>5</ele>
        <time>2023-06-10T12:34:07Z</time>
      </trkpt>
      <trkpt lat="50.36818" lon="1.55884">
        <ele>5</ele>
        <time>2023-06-10T12:34:13Z</time>
      </trkpt>
      <trkpt lat="50.36814" lon="1.55893">
        <ele>5</ele>
        <time>2023-06-10T12:34:19Z</time>
      </trkpt>
      <trkpt lat="50.36812" lon="1.55901">
        <ele>5</ele>
        <time>2023-06-10T12:34:25Z</time>
      </trkpt>
      <trkpt lat="50.36809" lon="1.55909">
        <ele>5</ele>
        <time>2023-06-10T12:34:31Z</time>
      </trkpt>
      <trkpt lat="50.36806" lon="1.55916">
        <ele>5</ele>
        <time>2023-06-10T12:34:37Z</time>
      </trkpt>
      <trkpt lat="50.36802" lon="1.55923">
        <ele>5</ele>
        <time>2023-06-10T12:34:43Z</time>
      </trkpt>
      <trkpt lat="50.368" lon="1.55932">
        <ele>5</ele>
        <time>2023-06-10T12:34:49Z</time>
      </trkpt>
      <trkpt lat="50.36798" lon="1.5594">
        <ele>5</ele>
        <time>2023-06-10T12:34:55Z</time>
      </trkpt>
      <trkpt lat="50.36795" lon="1.55948">
        <ele>5</ele>
        <time>2023-06-10T12:35:01Z</time>
      </trkpt>
      <trkpt lat="50.36792" lon="1.55957">
        <ele>5</ele>
        <time>2023-06-10T12:35:07Z</time>
      </trkpt>
      <trkpt lat="50.36789" lon="1.55964">
        <ele>5</ele>
        <time>2023-06-10T12:35:13Z</time>
      </trkpt>
      <trkpt lat="50.36785" lon="1.55972">
        <ele>5</ele>
        <time>2023-06-10T12:35:19Z</time>
      </trkpt>
      <trkpt lat="50.36782" lon="1.55979">
        <ele>5</ele>
        <time>2023-06-10T12:35:25Z</time>
      </trkpt>
      <trkpt lat="50.36779" lon="1.55987">
        <ele>5</ele>
        <time>2023-06-10T12:35:31Z</time>
      </trkpt>
      <trkpt lat="50.36776" lon="1.55994">
        <ele>5</ele>
        <time>2023-06-10T12:35:37Z</time>
      </trkpt>
      <trkpt lat="50.36773" lon="1.56002">
        <ele>5</ele>
        <time>2023-06-10T12:35:43Z</time>
      </trkpt>
      <trkpt lat="50.36769" lon="1.56009">
        <ele>5</ele>
        <time>2023-06-10T12:35:49Z</time>
      </trkpt>
      <trkpt lat="50.36767" lon="1.56017">
        <ele>5</ele>
        <time>2023-06-10T12:35:55Z</time>
      </trkpt>
      <trkpt lat="50.36764" lon="1.56025">
        <ele>5</ele>
        <time>2023-06-10T12:36:01Z</time>
      </trkpt>
      <trkpt lat="50.36761" lon="1.56031">
        <ele>5</ele>
        <time>2023-06-10T12:36:07Z</time>
      </trkpt>
      <trkpt lat="50.36757" lon="1.56038">
        <ele>5</ele>
        <time>2023-06-10T12:36:13Z</time>
      </trkpt>
      <trkpt lat="50.36753" lon="1.56043">
        <ele>5</ele>
        <time>2023-06-10T12:36:19Z</time>
      </trkpt>
      <trkpt lat="50.36748" lon="1.56049">
        <ele>5</ele>
        <time>2023-06-10T12:36:25Z</time>
      </trkpt>
      <trkpt lat="50.36745" lon="1.56054">
        <ele>5</ele>
        <time>2023-06-10T12:36:31Z</time>
      </trkpt>
      <trkpt lat="50.36741" lon="1.5606">
        <ele>5</ele>
        <time>2023-06-10T12:36:37Z</time>
      </trkpt>
      <trkpt lat="50.36737" lon="1.56066">
        <ele>5</ele>
        <time>2023-06-10T12:36:43Z</time>
      </trkpt>
      <trkpt lat="50.36733" lon="1.56071">
        <ele>5</ele>
        <time>2023-06-10T12:36:49Z</time>
      </trkpt>
      <trkpt lat="50.3673" lon="1.56077">
        <ele>5</ele>
        <time>2023-06-10T12:36:55Z</time>
      </trkpt>
      <trkpt lat="50.36727" lon="1.56084">
        <ele>5</ele>
        <time>2023-06-10T12:37:01Z</time>
      </trkpt>
      <trkpt lat="50.36723" lon="1.5609">
        <ele>5</ele>
        <time>2023-06-10T12:37:09Z</time>
      </trkpt>
      <trkpt lat="50.36719" lon="1.56096">
        <ele>5.1</ele>
        <time>2023-06-10T12:37:17Z</time>
      </trkpt>
      <trkpt lat="50.36716" lon="1.56101">
        <ele>5.2</ele>
        <time>2023-06-10T12:37:23Z</time>
      </trkpt>
      <trkpt lat="50.36712" lon="1.56107">
        <ele>5.4</ele>
        <time>2023-06-10T12:37:31Z</time>
      </trkpt>
      <trkpt lat="50.36709" lon="1.56112">
        <ele>5.5</ele>
        <time>2023-06-10T12:37:39Z</time>
      </trkpt>
      <trkpt lat="50.36705" lon="1.56118">
        <ele>5.6</ele>
        <time>2023-06-10T12:37:45Z</time>
      </trkpt>
      <trkpt lat="50.36702" lon="1.56124">
        <ele>5.7</ele>
        <time>2023-06-10T12:37:53Z</time>
      </trkpt>
      <trkpt lat="50.36697" lon="1.56128">
        <ele>5.9</ele>
        <time>2023-06-10T12:38:01Z</time>
      </trkpt>
      <trkpt lat="50.36692" lon="1.56133">
        <ele>6</ele>
        <time>2023-06-10T12:38:07Z</time>
      </trkpt>
      <trkpt lat="50.36688" lon="1.56137">
        <ele>6</ele>
        <time>2023-06-10T12:38:13Z</time>
      </trkpt>
      <trkpt lat="50.36683" lon="1.56141">
        <ele>6</ele>
        <time>2023-06-10T12:38:19Z</time>
      </trkpt>
      <trkpt lat="50.36679" lon="1.56146">
        <ele>5.9</ele>
        <time>2023-06-10T12:38:27Z</time>
      </trkpt>
      <trkpt lat="50.36674" lon="1.56149">
        <ele>5.7</ele>
        <time>2023-06-10T12:38:35Z</time>
      </trkpt>
      <trkpt lat="50.36669" lon="1.56151">
        <ele>5.6</ele>
        <time>2023-06-10T12:43:49Z</time>
      </trkpt>
      <trkpt lat="50.36666" lon="1.56158">
        <ele>5.3</ele>
        <time>2023-06-10T12:46:29Z</time>
      </trkpt>
      <trkpt lat="50.36664" lon="1.56166">
        <ele>5</ele>
        <time>2023-06-10T12:46:33Z</time>
      </trkpt>
      <trkpt lat="50.36662" lon="1.56173">
        <ele>5</ele>
        <time>2023-06-10T12:46:37Z</time>
      </trkpt>
      <trkpt lat="50.36659" lon="1.56184">
        <ele>5</ele>
        <time>2023-06-10T12:46:41Z</time>
      </trkpt>
      <trkpt lat="50.36657" lon="1.56194">
        <ele>5</ele>
        <time>2023-06-10T12:46:45Z</time>
      </trkpt>
      <trkpt lat="50.36655" lon="1.56204">
        <ele>5</ele>
        <time>2023-06-10T12:46:49Z</time>
      </trkpt>
      <trkpt lat="50.36651" lon="1.56214">
        <ele>5</ele>
        <time>2023-06-10T12:46:53Z</time>
      </trkpt>
      <trkpt lat="50.36647" lon="1.56225">
        <ele>5</ele>
        <time>2023-06-10T12:46:57Z</time>
      </trkpt>
      <trkpt lat="50.36643" lon="1.56229">
        <ele>5</ele>
        <time>2023-06-10T12:46:59Z</time>
      </trkpt>
      <trkpt lat="50.36639" lon="1.56238">
        <ele>5</ele>
        <time>2023-06-10T12:47:03Z</time>
      </trkpt>
      <trkpt lat="50.36633" lon="1.56245">
        <ele>5.2</ele>
        <time>2023-06-10T12:47:07Z</time>
      </trkpt>
      <trkpt lat="50.36625" lon="1.56252">
        <ele>5.5</ele>
        <time>2023-06-10T12:47:11Z</time>
      </trkpt>
      <trkpt lat="50.36619" lon="1.5626">
        <ele>5.4</ele>
        <time>2023-06-10T12:47:15Z</time>
      </trkpt>
      <trkpt lat="50.36616" lon="1.56265">
        <ele>5.4</ele>
        <time>2023-06-10T12:47:17Z</time>
      </trkpt>
      <trkpt lat="50.3661" lon="1.56272">
        <ele>5.2</ele>
        <time>2023-06-10T12:47:21Z</time>
      </trkpt>
      <trkpt lat="50.36604" lon="1.56279">
        <ele>5.3</ele>
        <time>2023-06-10T12:47:25Z</time>
      </trkpt>
      <trkpt lat="50.36598" lon="1.56284">
        <ele>5.5</ele>
        <time>2023-06-10T12:47:29Z</time>
      </trkpt>
      <trkpt lat="50.36595" lon="1.56291">
        <ele>5.6</ele>
        <time>2023-06-10T12:47:33Z</time>
      </trkpt>
      <trkpt lat="50.36591" lon="1.56297">
        <ele>5.7</ele>
        <time>2023-06-10T12:47:43Z</time>
      </trkpt>
      <trkpt lat="50.36587" lon="1.56305">
        <ele>5.9</ele>
        <time>2023-06-10T12:47:49Z</time>
      </trkpt>
      <trkpt lat="50.36583" lon="1.56311">
        <ele>6</ele>
        <time>2023-06-10T12:47:55Z</time>
      </trkpt>
      <trkpt lat="50.3658" lon="1.56316">
        <ele>6</ele>
        <time>2023-06-10T12:47:59Z</time>
      </trkpt>
      <trkpt lat="50.36577" lon="1.56324">
        <ele>6</ele>
        <time>2023-06-10T12:48:05Z</time>
      </trkpt>
      <trkpt lat="50.36573" lon="1.56328">
        <ele>6</ele>
        <time>2023-06-10T12:48:17Z</time>
      </trkpt>
      <trkpt lat="50.36569" lon="1.56332">
        <ele>6</ele>
        <time>2023-06-10T12:48:27Z</time>
      </trkpt>
      <trkpt lat="50.36565" lon="1.56341">
        <ele>6.1</ele>
        <time>2023-06-10T12:48:37Z</time>
      </trkpt>
      <trkpt lat="50.36561" lon="1.56351">
        <ele>6.1</ele>
        <time>2023-06-10T12:48:43Z</time>
      </trkpt>
      <trkpt lat="50.3656" lon="1.56361">
        <ele>6.2</ele>
        <time>2023-06-10T12:48:47Z</time>
      </trkpt>
      <trkpt lat="50.36558" lon="1.56368">
        <ele>6.1</ele>
        <time>2023-06-10T12:48:51Z</time>
      </trkpt>
      <trkpt lat="50.36555" lon="1.5638">
        <ele>6</ele>
        <time>2023-06-10T12:48:55Z</time>
      </trkpt>
      <trkpt lat="50.36553" lon="1.56387">
        <ele>5.9</ele>
        <time>2023-06-10T12:48:57Z</time>
      </trkpt>
      <trkpt lat="50.36551" lon="1.56393">
        <ele>5.9</ele>
        <time>2023-06-10T12:48:59Z</time>
      </trkpt>
      <trkpt lat="50.36548" lon="1.56408">
        <ele>5.7</ele>
        <time>2023-06-10T12:49:03Z</time>
      </trkpt>
      <trkpt lat="50.36545" lon="1.56416">
        <ele>5.6</ele>
        <time>2023-06-10T12:49:05Z</time>
      </trkpt>
      <trkpt lat="50.36543" lon="1.56422">
        <ele>5.5</ele>
        <time>2023-06-10T12:49:07Z</time>
      </trkpt>
      <trkpt lat="50.3654" lon="1.5643">
        <ele>5.4</ele>
        <time>2023-06-10T12:49:09Z</time>
      </trkpt>
      <trkpt lat="50.36538" lon="1.56437">
        <ele>5.4</ele>
        <time>2023-06-10T12:49:11Z</time>
      </trkpt>
      <trkpt lat="50.36533" lon="1.56446">
        <ele>5.2</ele>
        <time>2023-06-10T12:49:15Z</time>
      </trkpt>
      <trkpt lat="50.3653" lon="1.56452">
        <ele>5.1</ele>
        <time>2023-06-10T12:49:17Z</time>
      </trkpt>
      <trkpt lat="50.36527" lon="1.56458">
        <ele>5</ele>
        <time>2023-06-10T12:49:19Z</time>
      </trkpt>
      <trkpt lat="50.36524" lon="1.56464">
        <ele>5</ele>
        <time>2023-06-10T12:49:21Z</time>
      </trkpt>
      <trkpt lat="50.36521" lon="1.56471">
        <ele>5</ele>
        <time>2023-06-10T12:49:23Z</time>
      </trkpt>
      <trkpt lat="50.36517" lon="1.56476">
        <ele>5</ele>
        <time>2023-06-10T12:49:25Z</time>
      </trkpt>
      <trkpt lat="50.36513" lon="1.56482">
        <ele>5</ele>
        <time>2023-06-10T12:49:27Z</time>
      </trkpt>
      <trkpt lat="50.36509" lon="1.56488">
        <ele>5</ele>
        <time>2023-06-10T12:49:29Z</time>
      </trkpt>
      <trkpt lat="50.36506" lon="1.56495">
        <ele>5</ele>
        <time>2023-06-10T12:49:31Z</time>
      </trkpt>
      <trkpt lat="50.36502" lon="1.56501">
        <ele>5</ele>
        <time>2023-06-10T12:49:33Z</time>
      </trkpt>
      <trkpt lat="50.36498" lon="1.56507">
        <ele>5</ele>
        <time>2023-06-10T12:49:35Z</time>
      </trkpt>
      <trkpt lat="50.36495" lon="1.56514">
        <ele>5</ele>
        <time>2023-06-10T12:49:37Z</time>
      </trkpt>
      <trkpt lat="50.36491" lon="1.56519">
        <ele>5</ele>
        <time>2023-06-10T12:49:39Z</time>
      </trkpt>
      <trkpt lat="50.36487" lon="1.56525">
        <ele>5</ele>
        <time>2023-06-10T12:49:41Z</time>
      </trkpt>
      <trkpt lat="50.36483" lon="1.56531">
        <ele>5</ele>
        <time>2023-06-10T12:49:43Z</time>
      </trkpt>
      <trkpt lat="50.3648" lon="1.56537">
        <ele>5</ele>
        <time>2023-06-10T12:49:45Z</time>
      </trkpt>
      <trkpt lat="50.36476" lon="1.56544">
        <ele>5</ele>
        <time>2023-06-10T12:49:47Z</time>
      </trkpt>
      <trkpt lat="50.36472" lon="1.5655">
        <ele>5</ele>
        <time>2023-06-10T12:49:49Z</time>
      </trkpt>
      <trkpt lat="50.36469" lon="1.56555">
        <ele>5</ele>
        <time>2023-06-10T12:49:51Z</time>
      </trkpt>
      <trkpt lat="50.36465" lon="1.56562">
        <ele>5</ele>
        <time>2023-06-10T12:49:53Z</time>
      </trkpt>
      <trkpt lat="50.36462" lon="1.56568">
        <ele>5</ele>
        <time>2023-06-10T12:49:55Z</time>
      </trkpt>
      <trkpt lat="50.36459" lon="1.56574">
        <ele>5</ele>
        <time>2023-06-10T12:49:57Z</time>
      </trkpt>
      <trkpt lat="50.36456" lon="1.5658">
        <ele>5</ele>
        <time>2023-06-10T12:49:59Z</time>
      </trkpt>
      <trkpt lat="50.36453" lon="1.56587">
        <ele>5</ele>
        <time>2023-06-10T12:50:01Z</time>
      </trkpt>
      <trkpt lat="50.36451" lon="1.56593">
        <ele>5</ele>
        <time>2023-06-10T12:50:03Z</time>
      </trkpt>
      <trkpt lat="50.36448" lon="1.566">
        <ele>5</ele>
        <time>2023-06-10T12:50:05Z</time>
      </trkpt>
      <trkpt lat="50.36445" lon="1.56606">
        <ele>5</ele>
        <time>2023-06-10T12:50:07Z</time>
      </trkpt>
      <trkpt lat="50.36442" lon="1.56612">
        <ele>5</ele>
        <time>2023-06-10T12:50:09Z</time>
      </trkpt>
      <trkpt lat="50.36439" lon="1.56618">
        <ele>5</ele>
        <time>2023-06-10T12:50:11Z</time>
      </trkpt>
      <trkpt lat="50.36436" lon="1.56624">
        <ele>5</ele>
        <time>2023-06-10T12:50:13Z</time>
      </trkpt>
      <trkpt lat="50.36433" lon="1.5663">
        <ele>5</ele>
        <time>2023-06-10T12:50:15Z</time>
      </trkpt>
      <trkpt lat="50.3643" lon="1.56636">
        <ele>5</ele>
        <time>2023-06-10T12:50:17Z</time>
      </trkpt>
      <trkpt lat="50.36427" lon="1.56642">
        <ele>5</ele>
        <time>2023-06-10T12:50:19Z</time>
      </trkpt>
      <trkpt lat="50.36423" lon="1.56647">
        <ele>5.1</ele>
        <time>2023-06-10T12:50:21Z</time>
      </trkpt>
      <trkpt lat="50.36417" lon="1.56656">
        <ele>5</ele>
        <time>2023-06-10T12:50:25Z</time>
      </trkpt>
      <trkpt lat="50.36414" lon="1.56662">
        <ele>5</ele>
        <time>2023-06-10T12:50:27Z</time>
      </trkpt>
      <trkpt lat="50.3641" lon="1.56667">
        <ele>5</ele>
        <time>2023-06-10T12:50:29Z</time>
      </trkpt>
      <trkpt lat="50.36407" lon="1.56672">
        <ele>5</ele>
        <time>2023-06-10T12:50:31Z</time>
      </trkpt>
      <trkpt lat="50.36403" lon="1.56678">
        <ele>5</ele>
        <time>2023-06-10T12:50:33Z</time>
      </trkpt>
      <trkpt lat="50.364" lon="1.56684">
        <ele>5</ele>
        <time>2023-06-10T12:50:35Z</time>
      </trkpt>
      <trkpt lat="50.36396" lon="1.5669">
        <ele>5</ele>
        <time>2023-06-10T12:50:37Z</time>
      </trkpt>
      <trkpt lat="50.36393" lon="1.56697">
        <ele>5</ele>
        <time>2023-06-10T12:50:39Z</time>
      </trkpt>
      <trkpt lat="50.36389" lon="1.5671">
        <ele>5</ele>
        <time>2023-06-10T12:50:43Z</time>
      </trkpt>
      <trkpt lat="50.36387" lon="1.56716">
        <ele>5.1</ele>
        <time>2023-06-10T12:50:45Z</time>
      </trkpt>
      <trkpt lat="50.36384" lon="1.56721">
        <ele>5.2</ele>
        <time>2023-06-10T12:50:47Z</time>
      </trkpt>
      <trkpt lat="50.36381" lon="1.56727">
        <ele>5.2</ele>
        <time>2023-06-10T12:50:49Z</time>
      </trkpt>
      <trkpt lat="50.36377" lon="1.56733">
        <ele>5.3</ele>
        <time>2023-06-10T12:50:51Z</time>
      </trkpt>
      <trkpt lat="50.36374" lon="1.56739">
        <ele>5.2</ele>
        <time>2023-06-10T12:50:53Z</time>
      </trkpt>
      <trkpt lat="50.36371" lon="1.56745">
        <ele>5.1</ele>
        <time>2023-06-10T12:50:55Z</time>
      </trkpt>
      <trkpt lat="50.36368" lon="1.56752">
        <ele>5</ele>
        <time>2023-06-10T12:50:57Z</time>
      </trkpt>
      <trkpt lat="50.36365" lon="1.56759">
        <ele>5</ele>
        <time>2023-06-10T12:50:59Z</time>
      </trkpt>
      <trkpt lat="50.36362" lon="1.56766">
        <ele>5</ele>
        <time>2023-06-10T12:51:01Z</time>
      </trkpt>
      <trkpt lat="50.3636" lon="1.56772">
        <ele>5.1</ele>
        <time>2023-06-10T12:51:03Z</time>
      </trkpt>
      <trkpt lat="50.36357" lon="1.56779">
        <ele>5.3</ele>
        <time>2023-06-10T12:51:05Z</time>
      </trkpt>
      <trkpt lat="50.36354" lon="1.56785">
        <ele>5.4</ele>
        <time>2023-06-10T12:51:07Z</time>
      </trkpt>
      <trkpt lat="50.36352" lon="1.56791">
        <ele>5.3</ele>
        <time>2023-06-10T12:51:09Z</time>
      </trkpt>
      <trkpt lat="50.36349" lon="1.56798">
        <ele>5.2</ele>
        <time>2023-06-10T12:51:11Z</time>
      </trkpt>
      <trkpt lat="50.36345" lon="1.56804">
        <ele>5.1</ele>
        <time>2023-06-10T12:51:13Z</time>
      </trkpt>
      <trkpt lat="50.36341" lon="1.56811">
        <ele>5</ele>
        <time>2023-06-10T12:51:15Z</time>
      </trkpt>
      <trkpt lat="50.36338" lon="1.56817">
        <ele>5</ele>
        <time>2023-06-10T12:51:17Z</time>
      </trkpt>
      <trkpt lat="50.36335" lon="1.56823">
        <ele>5</ele>
        <time>2023-06-10T12:51:19Z</time>
      </trkpt>
      <trkpt lat="50.36332" lon="1.56828">
        <ele>5.2</ele>
        <time>2023-06-10T12:51:21Z</time>
      </trkpt>
      <trkpt lat="50.3633" lon="1.56835">
        <ele>5.5</ele>
        <time>2023-06-10T12:51:23Z</time>
      </trkpt>
      <trkpt lat="50.36326" lon="1.56841">
        <ele>5.8</ele>
        <time>2023-06-10T12:51:25Z</time>
      </trkpt>
      <trkpt lat="50.36323" lon="1.56846">
        <ele>5.9</ele>
        <time>2023-06-10T12:51:27Z</time>
      </trkpt>
      <trkpt lat="50.36321" lon="1.56853">
        <ele>5.9</ele>
        <time>2023-06-10T12:51:29Z</time>
      </trkpt>
      <trkpt lat="50.36318" lon="1.56859">
        <ele>5.7</ele>
        <time>2023-06-10T12:51:31Z</time>
      </trkpt>
      <trkpt lat="50.36315" lon="1.56865">
        <ele>5.6</ele>
        <time>2023-06-10T12:51:33Z</time>
      </trkpt>
      <trkpt lat="50.36312" lon="1.56872">
        <ele>5.5</ele>
        <time>2023-06-10T12:51:35Z</time>
      </trkpt>
      <trkpt lat="50.3631" lon="1.56878">
        <ele>5.3</ele>
        <time>2023-06-10T12:51:37Z</time>
      </trkpt>
      <trkpt lat="50.36307" lon="1.56884">
        <ele>5.2</ele>
        <time>2023-06-10T12:51:39Z</time>
      </trkpt>
      <trkpt lat="50.36304" lon="1.5689">
        <ele>5.2</ele>
        <time>2023-06-10T12:51:41Z</time>
      </trkpt>
      <trkpt lat="50.36301" lon="1.56897">
        <ele>5.4</ele>
        <time>2023-06-10T12:51:43Z</time>
      </trkpt>
      <trkpt lat="50.36297" lon="1.56903">
        <ele>5.6</ele>
        <time>2023-06-10T12:51:47Z</time>
      </trkpt>
      <trkpt lat="50.3629" lon="1.56909">
        <ele>5.9</ele>
        <time>2023-06-10T12:51:51Z</time>
      </trkpt>
      <trkpt lat="50.36285" lon="1.56915">
        <ele>5.8</ele>
        <time>2023-06-10T12:51:53Z</time>
      </trkpt>
      <trkpt lat="50.36282" lon="1.56925">
        <ele>5.6</ele>
        <time>2023-06-10T12:51:55Z</time>
      </trkpt>
      <trkpt lat="50.36278" lon="1.56936">
        <ele>5.3</ele>
        <time>2023-06-10T12:51:57Z</time>
      </trkpt>
      <trkpt lat="50.36273" lon="1.56947">
        <ele>5.5</ele>
        <time>2023-06-10T12:51:59Z</time>
      </trkpt>
      <trkpt lat="50.36268" lon="1.56957">
        <ele>5.9</ele>
        <time>2023-06-10T12:52:01Z</time>
      </trkpt>
      <trkpt lat="50.36264" lon="1.56963">
        <ele>6.2</ele>
        <time>2023-06-10T12:52:03Z</time>
      </trkpt>
      <trkpt lat="50.36259" lon="1.56968">
        <ele>6.4</ele>
        <time>2023-06-10T12:52:05Z</time>
      </trkpt>
      <trkpt lat="50.36252" lon="1.56977">
        <ele>6.5</ele>
        <time>2023-06-10T12:52:09Z</time>
      </trkpt>
      <trkpt lat="50.36248" lon="1.56984">
        <ele>6.3</ele>
        <time>2023-06-10T12:52:11Z</time>
      </trkpt>
      <trkpt lat="50.36245" lon="1.5699">
        <ele>6.1</ele>
        <time>2023-06-10T12:52:13Z</time>
      </trkpt>
      <trkpt lat="50.36241" lon="1.56997">
        <ele>6.1</ele>
        <time>2023-06-10T12:52:15Z</time>
      </trkpt>
      <trkpt lat="50.36238" lon="1.57003">
        <ele>6.2</ele>
        <time>2023-06-10T12:52:17Z</time>
      </trkpt>
      <trkpt lat="50.36232" lon="1.57013">
        <ele>6.3</ele>
        <time>2023-06-10T12:52:21Z</time>
      </trkpt>
      <trkpt lat="50.36233" lon="1.57021">
        <ele>5.9</ele>
        <time>2023-06-10T12:52:23Z</time>
      </trkpt>
      <trkpt lat="50.36235" lon="1.57028">
        <ele>5.6</ele>
        <time>2023-06-10T12:52:25Z</time>
      </trkpt>
      <trkpt lat="50.36234" lon="1.5704">
        <ele>5.3</ele>
        <time>2023-06-10T12:52:29Z</time>
      </trkpt>
      <trkpt lat="50.3623" lon="1.5705">
        <ele>5.1</ele>
        <time>2023-06-10T12:52:33Z</time>
      </trkpt>
      <trkpt lat="50.36229" lon="1.57057">
        <ele>5</ele>
        <time>2023-06-10T12:53:25Z</time>
      </trkpt>
      <trkpt lat="50.36224" lon="1.57063">
        <ele>5</ele>
        <time>2023-06-10T12:53:31Z</time>
      </trkpt>
      <trkpt lat="50.3622" lon="1.57071">
        <ele>5.1</ele>
        <time>2023-06-10T12:53:35Z</time>
      </trkpt>
      <trkpt lat="50.36214" lon="1.57074">
        <ele>5.3</ele>
        <time>2023-06-10T12:53:41Z</time>
      </trkpt>
      <trkpt lat="50.3621" lon="1.57075">
        <ele>5.5</ele>
        <time>2023-06-10T12:53:45Z</time>
      </trkpt>
      <trkpt lat="50.36205" lon="1.57074">
        <ele>5.6</ele>
        <time>2023-06-10T12:53:51Z</time>
      </trkpt>
      <trkpt lat="50.36197" lon="1.57072">
        <ele>5.9</ele>
        <time>2023-06-10T12:53:55Z</time>
      </trkpt>
      <trkpt lat="50.36191" lon="1.57072">
        <ele>6</ele>
        <time>2023-06-10T12:53:59Z</time>
      </trkpt>
      <trkpt lat="50.36186" lon="1.57072">
        <ele>6</ele>
        <time>2023-06-10T12:54:03Z</time>
      </trkpt>
      <trkpt lat="50.36181" lon="1.57072">
        <ele>6</ele>
        <time>2023-06-10T12:54:07Z</time>
      </trkpt>
      <trkpt lat="50.36174" lon="1.57073">
        <ele>6</ele>
        <time>2023-06-10T12:54:15Z</time>
      </trkpt>
      <trkpt lat="50.36168" lon="1.57073">
        <ele>6</ele>
        <time>2023-06-10T12:54:21Z</time>
      </trkpt>
      <trkpt lat="50.36163" lon="1.57075">
        <ele>6</ele>
        <time>2023-06-10T12:54:25Z</time>
      </trkpt>
      <trkpt lat="50.36159" lon="1.57078">
        <ele>6</ele>
        <time>2023-06-10T12:54:31Z</time>
      </trkpt>
      <trkpt lat="50.36155" lon="1.57084">
        <ele>6</ele>
        <time>2023-06-10T12:54:35Z</time>
      </trkpt>
      <trkpt lat="50.3615" lon="1.57087">
        <ele>5.9</ele>
        <time>2023-06-10T12:54:41Z</time>
      </trkpt>
      <trkpt lat="50.36145" lon="1.57088">
        <ele>5.9</ele>
        <time>2023-06-10T12:54:47Z</time>
      </trkpt>
      <trkpt lat="50.3614" lon="1.57086">
        <ele>5.9</ele>
        <time>2023-06-10T12:54:49Z</time>
      </trkpt>
      <trkpt lat="50.36134" lon="1.57083">
        <ele>5.8</ele>
        <time>2023-06-10T12:54:51Z</time>
      </trkpt>
      <trkpt lat="50.36127" lon="1.57082">
        <ele>5.6</ele>
        <time>2023-06-10T12:54:53Z</time>
      </trkpt>
      <trkpt lat="50.36121" lon="1.57081">
        <ele>5.5</ele>
        <time>2023-06-10T12:54:55Z</time>
      </trkpt>
      <trkpt lat="50.36115" lon="1.57082">
        <ele>5.2</ele>
        <time>2023-06-10T12:54:57Z</time>
      </trkpt>
      <trkpt lat="50.3611" lon="1.57084">
        <ele>5</ele>
        <time>2023-06-10T12:54:59Z</time>
      </trkpt>
      <trkpt lat="50.36105" lon="1.57086">
        <ele>5.2</ele>
        <time>2023-06-10T12:55:01Z</time>
      </trkpt>
      <trkpt lat="50.36101" lon="1.57088">
        <ele>5.4</ele>
        <time>2023-06-10T12:55:03Z</time>
      </trkpt>
      <trkpt lat="50.36095" lon="1.57096">
        <ele>5.6</ele>
        <time>2023-06-10T12:55:07Z</time>
      </trkpt>
      <trkpt lat="50.36091" lon="1.57102">
        <ele>5.7</ele>
        <time>2023-06-10T12:55:11Z</time>
      </trkpt>
      <trkpt lat="50.36087" lon="1.57106">
        <ele>5.9</ele>
        <time>2023-06-10T12:55:15Z</time>
      </trkpt>
      <trkpt lat="50.36083" lon="1.57113">
        <ele>5.9</ele>
        <time>2023-06-10T12:55:27Z</time>
      </trkpt>
      <trkpt lat="50.36079" lon="1.5712">
        <ele>5.6</ele>
        <time>2023-06-10T12:55:33Z</time>
      </trkpt>
      <trkpt lat="50.36076" lon="1.57127">
        <ele>5.3</ele>
        <time>2023-06-10T12:55:35Z</time>
      </trkpt>
      <trkpt lat="50.36072" lon="1.57133">
        <ele>5.1</ele>
        <time>2023-06-10T12:55:37Z</time>
      </trkpt>
      <trkpt lat="50.36067" lon="1.57139">
        <ele>5</ele>
        <time>2023-06-10T12:55:39Z</time>
      </trkpt>
      <trkpt lat="50.36062" lon="1.57145">
        <ele>5</ele>
        <time>2023-06-10T12:55:41Z</time>
      </trkpt>
      <trkpt lat="50.36058" lon="1.57152">
        <ele>5</ele>
        <time>2023-06-10T12:55:43Z</time>
      </trkpt>
      <trkpt lat="50.36054" lon="1.57159">
        <ele>5</ele>
        <time>2023-06-10T12:55:45Z</time>
      </trkpt>
      <trkpt lat="50.36049" lon="1.57165">
        <ele>5</ele>
        <time>2023-06-10T12:55:47Z</time>
      </trkpt>
      <trkpt lat="50.36043" lon="1.57172">
        <ele>5</ele>
        <time>2023-06-10T12:55:51Z</time>
      </trkpt>
      <trkpt lat="50.36036" lon="1.57175">
        <ele>5</ele>
        <time>2023-06-10T12:55:55Z</time>
      </trkpt>
      <trkpt lat="50.3603" lon="1.57175">
        <ele>5</ele>
        <time>2023-06-10T12:55:57Z</time>
      </trkpt>
      <trkpt lat="50.36025" lon="1.57175">
        <ele>5</ele>
        <time>2023-06-10T12:55:59Z</time>
      </trkpt>
      <trkpt lat="50.36019" lon="1.57175">
        <ele>5</ele>
        <time>2023-06-10T12:56:01Z</time>
      </trkpt>
      <trkpt lat="50.36014" lon="1.57173">
        <ele>5</ele>
        <time>2023-06-10T12:56:03Z</time>
      </trkpt>
      <trkpt lat="50.36009" lon="1.5717">
        <ele>5</ele>
        <time>2023-06-10T12:56:05Z</time>
      </trkpt>
      <trkpt lat="50.36004" lon="1.57167">
        <ele>5</ele>
        <time>2023-06-10T12:56:07Z</time>
      </trkpt>
      <trkpt lat="50.35999" lon="1.57159">
        <ele>5</ele>
        <time>2023-06-10T12:56:11Z</time>
      </trkpt>
      <trkpt lat="50.35996" lon="1.5715">
        <ele>5</ele>
        <time>2023-06-10T12:56:21Z</time>
      </trkpt>
      <trkpt lat="50.3599" lon="1.57149">
        <ele>5</ele>
        <time>2023-06-10T12:56:25Z</time>
      </trkpt>
      <trkpt lat="50.35983" lon="1.57149">
        <ele>5</ele>
        <time>2023-06-10T12:56:31Z</time>
      </trkpt>
      <trkpt lat="50.35975" lon="1.57144">
        <ele>5</ele>
        <time>2023-06-10T12:56:35Z</time>
      </trkpt>
      <trkpt lat="50.35968" lon="1.57141">
        <ele>5</ele>
        <time>2023-06-10T12:56:37Z</time>
      </trkpt>
      <trkpt lat="50.35961" lon="1.57138">
        <ele>5</ele>
        <time>2023-06-10T12:56:39Z</time>
      </trkpt>
      <trkpt lat="50.35953" lon="1.57134">
        <ele>5</ele>
        <time>2023-06-10T12:56:41Z</time>
      </trkpt>
      <trkpt lat="50.35944" lon="1.57133">
        <ele>5</ele>
        <time>2023-06-10T12:56:43Z</time>
      </trkpt>
      <trkpt lat="50.35935" lon="1.57133">
        <ele>5</ele>
        <time>2023-06-10T12:56:45Z</time>
      </trkpt>
      <trkpt lat="50.35928" lon="1.5713">
        <ele>5</ele>
        <time>2023-06-10T12:56:47Z</time>
      </trkpt>
      <trkpt lat="50.35921" lon="1.57127">
        <ele>5</ele>
        <time>2023-06-10T12:56:49Z</time>
      </trkpt>
      <trkpt lat="50.35913" lon="1.57123">
        <ele>5</ele>
        <time>2023-06-10T12:56:51Z</time>
      </trkpt>
      <trkpt lat="50.35906" lon="1.57122">
        <ele>5</ele>
        <time>2023-06-10T12:56:53Z</time>
      </trkpt>
      <trkpt lat="50.35899" lon="1.5712">
        <ele>5</ele>
        <time>2023-06-10T12:56:55Z</time>
      </trkpt>
      <trkpt lat="50.35893" lon="1.57117">
        <ele>5</ele>
        <time>2023-06-10T12:56:57Z</time>
      </trkpt>
      <trkpt lat="50.35886" lon="1.57113">
        <ele>5.1</ele>
        <time>2023-06-10T12:56:59Z</time>
      </trkpt>
      <trkpt lat="50.35878" lon="1.57108">
        <ele>5.4</ele>
        <time>2023-06-10T12:57:01Z</time>
      </trkpt>
      <trkpt lat="50.3587" lon="1.57103">
        <ele>5.7</ele>
        <time>2023-06-10T12:57:03Z</time>
      </trkpt>
      <trkpt lat="50.35864" lon="1.57099">
        <ele>5.9</ele>
        <time>2023-06-10T12:57:05Z</time>
      </trkpt>
      <trkpt lat="50.35859" lon="1.57099">
        <ele>5.9</ele>
        <time>2023-06-10T12:57:09Z</time>
      </trkpt>
      <trkpt lat="50.35853" lon="1.57102">
        <ele>5.8</ele>
        <time>2023-06-10T12:57:13Z</time>
      </trkpt>
      <trkpt lat="50.35843" lon="1.57106">
        <ele>5.5</ele>
        <time>2023-06-10T12:57:17Z</time>
      </trkpt>
      <trkpt lat="50.35835" lon="1.57106">
        <ele>5.2</ele>
        <time>2023-06-10T12:57:19Z</time>
      </trkpt>
      <trkpt lat="50.35827" lon="1.57107">
        <ele>5.1</ele>
        <time>2023-06-10T12:57:21Z</time>
      </trkpt>
      <trkpt lat="50.35821" lon="1.57108">
        <ele>5.1</ele>
        <time>2023-06-10T12:57:23Z</time>
      </trkpt>
      <trkpt lat="50.35814" lon="1.57111">
        <ele>5</ele>
        <time>2023-06-10T12:57:27Z</time>
      </trkpt>
      <trkpt lat="50.35817" lon="1.57104">
        <ele>5.1</ele>
        <time>2023-06-10T12:58:41Z</time>
      </trkpt>
      <trkpt lat="50.35822" lon="1.57103">
        <ele>5.2</ele>
        <time>2023-06-10T12:58:47Z</time>
      </trkpt>
      <trkpt lat="50.35827" lon="1.57104">
        <ele>5.2</ele>
        <time>2023-06-10T12:58:53Z</time>
      </trkpt>
      <trkpt lat="50.35832" lon="1.57101">
        <ele>5.4</ele>
        <time>2023-06-10T12:58:59Z</time>
      </trkpt>
      <trkpt lat="50.35835" lon="1.57095">
        <ele>5.6</ele>
        <time>2023-06-10T12:59:39Z</time>
      </trkpt>
      <trkpt lat="50.35841" lon="1.57091">
        <ele>5.8</ele>
        <time>2023-06-10T12:59:45Z</time>
      </trkpt>
      <trkpt lat="50.35847" lon="1.57086">
        <ele>5.9</ele>
        <time>2023-06-10T12:59:51Z</time>
      </trkpt>
      <trkpt lat="50.35848" lon="1.57078">
        <ele>6</ele>
        <time>2023-06-10T12:59:57Z</time>
      </trkpt>
      <trkpt lat="50.35843" lon="1.57083">
        <ele>6</ele>
        <time>2023-06-10T13:06:25Z</time>
      </trkpt>
      <trkpt lat="50.35839" lon="1.57091">
        <ele>5.8</ele>
        <time>2023-06-10T13:06:33Z</time>
      </trkpt>
      <trkpt lat="50.35835" lon="1.57101">
        <ele>5.4</ele>
        <time>2023-06-10T13:06:37Z</time>
      </trkpt>
      <trkpt lat="50.35831" lon="1.57105">
        <ele>5.2</ele>
        <time>2023-06-10T13:06:39Z</time>
      </trkpt>
      <trkpt lat="50.35826" lon="1.57106">
        <ele>5.1</ele>
        <time>2023-06-10T13:06:41Z</time>
      </trkpt>
      <trkpt lat="50.35821" lon="1.57107">
        <ele>5.1</ele>
        <time>2023-06-10T13:06:43Z</time>
      </trkpt>
      <trkpt lat="50.35816" lon="1.57107">
        <ele>5.1</ele>
        <time>2023-06-10T13:06:45Z</time>
      </trkpt>
      <trkpt lat="50.3581" lon="1.57107">
        <ele>5</ele>
        <time>2023-06-10T13:06:47Z</time>
      </trkpt>
      <trkpt lat="50.35805" lon="1.57107">
        <ele>5</ele>
        <time>2023-06-10T13:06:49Z</time>
      </trkpt>
      <trkpt lat="50.35801" lon="1.57107">
        <ele>5</ele>
        <time>2023-06-10T13:06:51Z</time>
      </trkpt>
      <trkpt lat="50.35796" lon="1.57108">
        <ele>5</ele>
        <time>2023-06-10T13:06:53Z</time>
      </trkpt>
      <trkpt lat="50.35788" lon="1.57105">
        <ele>5</ele>
        <time>2023-06-10T13:06:57Z</time>
      </trkpt>
      <trkpt lat="50.35782" lon="1.57106">
        <ele>5</ele>
        <time>2023-06-10T13:11:05Z</time>
      </trkpt>
      <trkpt lat="50.35778" lon="1.57104">
        <ele>5</ele>
        <time>2023-06-10T13:11:11Z</time>
      </trkpt>
      <trkpt lat="50.35773" lon="1.57105">
        <ele>5</ele>
        <time>2023-06-10T13:11:17Z</time>
      </trkpt>
      <trkpt lat="50.35768" lon="1.57104">
        <ele>5</ele>
        <time>2023-06-10T13:11:23Z</time>
      </trkpt>
      <trkpt lat="50.35763" lon="1.57107">
        <ele>5</ele>
        <time>2023-06-10T13:11:39Z</time>
      </trkpt>
      <trkpt lat="50.35756" lon="1.57108">
        <ele>5</ele>
        <time>2023-06-10T13:11:43Z</time>
      </trkpt>
      <trkpt lat="50.35751" lon="1.5711">
        <ele>5</ele>
        <time>2023-06-10T13:11:45Z</time>
      </trkpt>
      <trkpt lat="50.35745" lon="1.57111">
        <ele>5</ele>
        <time>2023-06-10T13:11:47Z</time>
      </trkpt>
      <trkpt lat="50.3574" lon="1.57109">
        <ele>5</ele>
        <time>2023-06-10T13:11:49Z</time>
      </trkpt>
      <trkpt lat="50.35735" lon="1.57109">
        <ele>5</ele>
        <time>2023-06-10T13:11:51Z</time>
      </trkpt>
      <trkpt lat="50.35729" lon="1.57108">
        <ele>5</ele>
        <time>2023-06-10T13:11:53Z</time>
      </trkpt>
      <trkpt lat="50.35723" lon="1.57109">
        <ele>5</ele>
        <time>2023-06-10T13:11:55Z</time>
      </trkpt>
      <trkpt lat="50.35717" lon="1.57111">
        <ele>5</ele>
        <time>2023-06-10T13:11:57Z</time>
      </trkpt>
      <trkpt lat="50.3571" lon="1.57113">
        <ele>5</ele>
        <time>2023-06-10T13:11:59Z</time>
      </trkpt>
      <trkpt lat="50.35703" lon="1.57112">
        <ele>5</ele>
        <time>2023-06-10T13:12:01Z</time>
      </trkpt>
      <trkpt lat="50.35697" lon="1.57112">
        <ele>5</ele>
        <time>2023-06-10T13:12:03Z</time>
      </trkpt>
      <trkpt lat="50.3569" lon="1.57113">
        <ele>5</ele>
        <time>2023-06-10T13:12:05Z</time>
      </trkpt>
      <trkpt lat="50.35684" lon="1.57113">
        <ele>5</ele>
        <time>2023-06-10T13:12:07Z</time>
      </trkpt>
      <trkpt lat="50.35677" lon="1.57114">
        <ele>5</ele>
        <time>2023-06-10T13:12:09Z</time>
      </trkpt>
      <trkpt lat="50.35671" lon="1.57114">
        <ele>5</ele>
        <time>2023-06-10T13:12:11Z</time>
      </trkpt>
      <trkpt lat="50.35664" lon="1.57115">
        <ele>5</ele>
        <time>2023-06-10T13:12:13Z</time>
      </trkpt>
      <trkpt lat="50.35657" lon="1.57115">
        <ele>5</ele>
        <time>2023-06-10T13:12:15Z</time>
      </trkpt>
      <trkpt lat="50.3565" lon="1.57117">
        <ele>5</ele>
        <time>2023-06-10T13:12:17Z</time>
      </trkpt>
      <trkpt lat="50.35644" lon="1.57117">
        <ele>5</ele>
        <time>2023-06-10T13:12:19Z</time>
      </trkpt>
      <trkpt lat="50.35637" lon="1.57118">
        <ele>5</ele>
        <time>2023-06-10T13:12:21Z</time>
      </trkpt>
      <trkpt lat="50.35631" lon="1.5712">
        <ele>5</ele>
        <time>2023-06-10T13:12:23Z</time>
      </trkpt>
      <trkpt lat="50.35623" lon="1.5712">
        <ele>5</ele>
        <time>2023-06-10T13:12:25Z</time>
      </trkpt>
      <trkpt lat="50.35615" lon="1.57121">
        <ele>5</ele>
        <time>2023-06-10T13:12:27Z</time>
      </trkpt>
      <trkpt lat="50.35607" lon="1.57122">
        <ele>5.1</ele>
        <time>2023-06-10T13:12:29Z</time>
      </trkpt>
      <trkpt lat="50.35599" lon="1.57123">
        <ele>5.2</ele>
        <time>2023-06-10T13:12:31Z</time>
      </trkpt>
      <trkpt lat="50.35591" lon="1.57123">
        <ele>5.3</ele>
        <time>2023-06-10T13:12:33Z</time>
      </trkpt>
      <trkpt lat="50.35583" lon="1.57124">
        <ele>5.5</ele>
        <time>2023-06-10T13:12:35Z</time>
      </trkpt>
      <trkpt lat="50.35575" lon="1.57126">
        <ele>5.4</ele>
        <time>2023-06-10T13:12:37Z</time>
      </trkpt>
      <trkpt lat="50.35567" lon="1.57128">
        <ele>5.3</ele>
        <time>2023-06-10T13:12:39Z</time>
      </trkpt>
      <trkpt lat="50.35558" lon="1.57128">
        <ele>5.1</ele>
        <time>2023-06-10T13:12:41Z</time>
      </trkpt>
      <trkpt lat="50.3555" lon="1.5713">
        <ele>5.1</ele>
        <time>2023-06-10T13:12:43Z</time>
      </trkpt>
      <trkpt lat="50.35541" lon="1.57131">
        <ele>5.4</ele>
        <time>2023-06-10T13:12:45Z</time>
      </trkpt>
      <trkpt lat="50.35533" lon="1.57132">
        <ele>5.6</ele>
        <time>2023-06-10T13:12:47Z</time>
      </trkpt>
      <trkpt lat="50.35524" lon="1.57133">
        <ele>5.7</ele>
        <time>2023-06-10T13:12:49Z</time>
      </trkpt>
      <trkpt lat="50.35517" lon="1.57133">
        <ele>5.5</ele>
        <time>2023-06-10T13:12:51Z</time>
      </trkpt>
      <trkpt lat="50.35508" lon="1.57134">
        <ele>5.2</ele>
        <time>2023-06-10T13:12:53Z</time>
      </trkpt>
      <trkpt lat="50.355" lon="1.57136">
        <ele>5</ele>
        <time>2023-06-10T13:12:55Z</time>
      </trkpt>
      <trkpt lat="50.35491" lon="1.57137">
        <ele>5</ele>
        <time>2023-06-10T13:12:57Z</time>
      </trkpt>
      <trkpt lat="50.35483" lon="1.57138">
        <ele>5</ele>
        <time>2023-06-10T13:12:59Z</time>
      </trkpt>
      <trkpt lat="50.35476" lon="1.57139">
        <ele>5</ele>
        <time>2023-06-10T13:13:01Z</time>
      </trkpt>
      <trkpt lat="50.35468" lon="1.57139">
        <ele>5</ele>
        <time>2023-06-10T13:13:03Z</time>
      </trkpt>
      <trkpt lat="50.35459" lon="1.57139">
        <ele>5</ele>
        <time>2023-06-10T13:13:05Z</time>
      </trkpt>
      <trkpt lat="50.35451" lon="1.5714">
        <ele>5</ele>
        <time>2023-06-10T13:13:07Z</time>
      </trkpt>
      <trkpt lat="50.35442" lon="1.57141">
        <ele>5</ele>
        <time>2023-06-10T13:13:09Z</time>
      </trkpt>
      <trkpt lat="50.35434" lon="1.57142">
        <ele>5</ele>
        <time>2023-06-10T13:13:11Z</time>
      </trkpt>
      <trkpt lat="50.35425" lon="1.57142">
        <ele>5</ele>
        <time>2023-06-10T13:13:13Z</time>
      </trkpt>
      <trkpt lat="50.35416" lon="1.57143">
        <ele>5</ele>
        <time>2023-06-10T13:13:15Z</time>
      </trkpt>
      <trkpt lat="50.35407" lon="1.57145">
        <ele>5</ele>
        <time>2023-06-10T13:13:17Z</time>
      </trkpt>
      <trkpt lat="50.35399" lon="1.57145">
        <ele>5</ele>
        <time>2023-06-10T13:13:19Z</time>
      </trkpt>
      <trkpt lat="50.3539" lon="1.57146">
        <ele>5</ele>
        <time>2023-06-10T13:13:21Z</time>
      </trkpt>
      <trkpt lat="50.35381" lon="1.57147">
        <ele>5</ele>
        <time>2023-06-10T13:13:23Z</time>
      </trkpt>
      <trkpt lat="50.35372" lon="1.57149">
        <ele>5</ele>
        <time>2023-06-10T13:13:25Z</time>
      </trkpt>
      <trkpt lat="50.35363" lon="1.57149">
        <ele>5</ele>
        <time>2023-06-10T13:13:27Z</time>
      </trkpt>
      <trkpt lat="50.35353" lon="1.5715">
        <ele>5</ele>
        <time>2023-06-10T13:13:29Z</time>
      </trkpt>
      <trkpt lat="50.35344" lon="1.57152">
        <ele>5</ele>
        <time>2023-06-10T13:13:31Z</time>
      </trkpt>
      <trkpt lat="50.35336" lon="1.57152">
        <ele>5</ele>
        <time>2023-06-10T13:13:33Z</time>
      </trkpt>
      <trkpt lat="50.35328" lon="1.57153">
        <ele>5.2</ele>
        <time>2023-06-10T13:13:35Z</time>
      </trkpt>
      <trkpt lat="50.3532" lon="1.57155">
        <ele>5.5</ele>
        <time>2023-06-10T13:13:37Z</time>
      </trkpt>
      <trkpt lat="50.35311" lon="1.57156">
        <ele>5.8</ele>
        <time>2023-06-10T13:13:39Z</time>
      </trkpt>
      <trkpt lat="50.35303" lon="1.57158">
        <ele>6</ele>
        <time>2023-06-10T13:13:41Z</time>
      </trkpt>
      <trkpt lat="50.35295" lon="1.57158">
        <ele>5.9</ele>
        <time>2023-06-10T13:13:43Z</time>
      </trkpt>
      <trkpt lat="50.35288" lon="1.57159">
        <ele>5.8</ele>
        <time>2023-06-10T13:13:45Z</time>
      </trkpt>
      <trkpt lat="50.35281" lon="1.57159">
        <ele>5.8</ele>
        <time>2023-06-10T13:13:47Z</time>
      </trkpt>
      <trkpt lat="50.35275" lon="1.57159">
        <ele>5.8</ele>
        <time>2023-06-10T13:13:49Z</time>
      </trkpt>
      <trkpt lat="50.35269" lon="1.57161">
        <ele>5.9</ele>
        <time>2023-06-10T13:13:51Z</time>
      </trkpt>
      <trkpt lat="50.35263" lon="1.57162">
        <ele>5.9</ele>
        <time>2023-06-10T13:13:53Z</time>
      </trkpt>
      <trkpt lat="50.35256" lon="1.57161">
        <ele>6</ele>
        <time>2023-06-10T13:13:55Z</time>
      </trkpt>
      <trkpt lat="50.3525" lon="1.5716">
        <ele>6</ele>
        <time>2023-06-10T13:13:57Z</time>
      </trkpt>
      <trkpt lat="50.35243" lon="1.57162">
        <ele>6</ele>
        <time>2023-06-10T13:13:59Z</time>
      </trkpt>
      <trkpt lat="50.35237" lon="1.57162">
        <ele>6.1</ele>
        <time>2023-06-10T13:14:01Z</time>
      </trkpt>
      <trkpt lat="50.35232" lon="1.57164">
        <ele>6.1</ele>
        <time>2023-06-10T13:14:03Z</time>
      </trkpt>
      <trkpt lat="50.35226" lon="1.57163">
        <ele>6.1</ele>
        <time>2023-06-10T13:14:05Z</time>
      </trkpt>
      <trkpt lat="50.35219" lon="1.57161">
        <ele>6.2</ele>
        <time>2023-06-10T13:14:07Z</time>
      </trkpt>
      <trkpt lat="50.35212" lon="1.57158">
        <ele>6.2</ele>
        <time>2023-06-10T13:14:09Z</time>
      </trkpt>
      <trkpt lat="50.35205" lon="1.57154">
        <ele>6.2</ele>
        <time>2023-06-10T13:14:11Z</time>
      </trkpt>
      <trkpt lat="50.35197" lon="1.5715">
        <ele>6</ele>
        <time>2023-06-10T13:14:13Z</time>
      </trkpt>
      <trkpt lat="50.35188" lon="1.57147">
        <ele>6</ele>
        <time>2023-06-10T13:14:15Z</time>
      </trkpt>
      <trkpt lat="50.3518" lon="1.57143">
        <ele>6</ele>
        <time>2023-06-10T13:14:17Z</time>
      </trkpt>
      <trkpt lat="50.35171" lon="1.57139">
        <ele>6</ele>
        <time>2023-06-10T13:14:19Z</time>
      </trkpt>
      <trkpt lat="50.35164" lon="1.57134">
        <ele>6</ele>
        <time>2023-06-10T13:14:21Z</time>
      </trkpt>
      <trkpt lat="50.35157" lon="1.57132">
        <ele>6</ele>
        <time>2023-06-10T13:14:23Z</time>
      </trkpt>
      <trkpt lat="50.35151" lon="1.57136">
        <ele>6</ele>
        <time>2023-06-10T13:14:25Z</time>
      </trkpt>
      <trkpt lat="50.35148" lon="1.57143">
        <ele>6</ele>
        <time>2023-06-10T13:14:27Z</time>
      </trkpt>
      <trkpt lat="50.35146" lon="1.57152">
        <ele>6</ele>
        <time>2023-06-10T13:14:29Z</time>
      </trkpt>
      <trkpt lat="50.35144" lon="1.57159">
        <ele>6</ele>
        <time>2023-06-10T13:14:31Z</time>
      </trkpt>
      <trkpt lat="50.35142" lon="1.5717">
        <ele>6</ele>
        <time>2023-06-10T13:14:35Z</time>
      </trkpt>
      <trkpt lat="50.35143" lon="1.57177">
        <ele>6</ele>
        <time>2023-06-10T13:15:29Z</time>
      </trkpt>
      <trkpt lat="50.35142" lon="1.5719">
        <ele>6</ele>
        <time>2023-06-10T13:15:33Z</time>
      </trkpt>
      <trkpt lat="50.35141" lon="1.57199">
        <ele>6</ele>
        <time>2023-06-10T13:15:35Z</time>
      </trkpt>
      <trkpt lat="50.35139" lon="1.57207">
        <ele>6</ele>
        <time>2023-06-10T13:15:37Z</time>
      </trkpt>
      <trkpt lat="50.35137" lon="1.57218">
        <ele>6</ele>
        <time>2023-06-10T13:15:39Z</time>
      </trkpt>
      <trkpt lat="50.35135" lon="1.57229">
        <ele>6</ele>
        <time>2023-06-10T13:15:41Z</time>
      </trkpt>
      <trkpt lat="50.35133" lon="1.5724">
        <ele>6</ele>
        <time>2023-06-10T13:15:43Z</time>
      </trkpt>
      <trkpt lat="50.35132" lon="1.57252">
        <ele>6</ele>
        <time>2023-06-10T13:15:45Z</time>
      </trkpt>
      <trkpt lat="50.3513" lon="1.57262">
        <ele>6</ele>
        <time>2023-06-10T13:15:47Z</time>
      </trkpt>
      <trkpt lat="50.35128" lon="1.57274">
        <ele>6</ele>
        <time>2023-06-10T13:15:49Z</time>
      </trkpt>
      <trkpt lat="50.35126" lon="1.57285">
        <ele>6</ele>
        <time>2023-06-10T13:15:51Z</time>
      </trkpt>
      <trkpt lat="50.35125" lon="1.57296">
        <ele>6</ele>
        <time>2023-06-10T13:15:53Z</time>
      </trkpt>
      <trkpt lat="50.35124" lon="1.57308">
        <ele>6</ele>
        <time>2023-06-10T13:15:55Z</time>
      </trkpt>
      <trkpt lat="50.35123" lon="1.5732">
        <ele>6</ele>
        <time>2023-06-10T13:15:57Z</time>
      </trkpt>
      <trkpt lat="50.35121" lon="1.57333">
        <ele>6</ele>
        <time>2023-06-10T13:15:59Z</time>
      </trkpt>
      <trkpt lat="50.35119" lon="1.57343">
        <ele>6</ele>
        <time>2023-06-10T13:16:01Z</time>
      </trkpt>
      <trkpt lat="50.35117" lon="1.57355">
        <ele>6</ele>
        <time>2023-06-10T13:16:03Z</time>
      </trkpt>
      <trkpt lat="50.35115" lon="1.57366">
        <ele>6</ele>
        <time>2023-06-10T13:16:05Z</time>
      </trkpt>
      <trkpt lat="50.35114" lon="1.57378">
        <ele>6</ele>
        <time>2023-06-10T13:16:07Z</time>
      </trkpt>
      <trkpt lat="50.35111" lon="1.57389">
        <ele>6</ele>
        <time>2023-06-10T13:16:09Z</time>
      </trkpt>
      <trkpt lat="50.35109" lon="1.574">
        <ele>6</ele>
        <time>2023-06-10T13:16:11Z</time>
      </trkpt>
      <trkpt lat="50.35107" lon="1.57412">
        <ele>6</ele>
        <time>2023-06-10T13:16:13Z</time>
      </trkpt>
      <trkpt lat="50.35105" lon="1.57423">
        <ele>6</ele>
        <time>2023-06-10T13:16:15Z</time>
      </trkpt>
      <trkpt lat="50.35104" lon="1.57434">
        <ele>6</ele>
        <time>2023-06-10T13:16:17Z</time>
      </trkpt>
      <trkpt lat="50.35102" lon="1.57445">
        <ele>6</ele>
        <time>2023-06-10T13:16:19Z</time>
      </trkpt>
      <trkpt lat="50.35101" lon="1.57457">
        <ele>6</ele>
        <time>2023-06-10T13:16:21Z</time>
      </trkpt>
      <trkpt lat="50.35099" lon="1.57469">
        <ele>6</ele>
        <time>2023-06-10T13:16:23Z</time>
      </trkpt>
      <trkpt lat="50.35097" lon="1.57481">
        <ele>6</ele>
        <time>2023-06-10T13:16:25Z</time>
      </trkpt>
      <trkpt lat="50.35093" lon="1.57492">
        <ele>6</ele>
        <time>2023-06-10T13:16:27Z</time>
      </trkpt>
      <trkpt lat="50.3509" lon="1.57503">
        <ele>6</ele>
        <time>2023-06-10T13:16:29Z</time>
      </trkpt>
      <trkpt lat="50.35087" lon="1.57514">
        <ele>6</ele>
        <time>2023-06-10T13:16:31Z</time>
      </trkpt>
      <trkpt lat="50.35083" lon="1.57525">
        <ele>6</ele>
        <time>2023-06-10T13:16:33Z</time>
      </trkpt>
      <trkpt lat="50.3508" lon="1.57536">
        <ele>6</ele>
        <time>2023-06-10T13:16:35Z</time>
      </trkpt>
      <trkpt lat="50.35078" lon="1.57548">
        <ele>6</ele>
        <time>2023-06-10T13:16:37Z</time>
      </trkpt>
      <trkpt lat="50.35075" lon="1.5756">
        <ele>6</ele>
        <time>2023-06-10T13:16:39Z</time>
      </trkpt>
      <trkpt lat="50.35072" lon="1.57571">
        <ele>6</ele>
        <time>2023-06-10T13:16:41Z</time>
      </trkpt>
      <trkpt lat="50.35069" lon="1.57583">
        <ele>6</ele>
        <time>2023-06-10T13:16:43Z</time>
      </trkpt>
      <trkpt lat="50.35067" lon="1.57595">
        <ele>6</ele>
        <time>2023-06-10T13:16:45Z</time>
      </trkpt>
      <trkpt lat="50.35064" lon="1.57606">
        <ele>6</ele>
        <time>2023-06-10T13:16:47Z</time>
      </trkpt>
      <trkpt lat="50.35062" lon="1.57618">
        <ele>5.9</ele>
        <time>2023-06-10T13:16:49Z</time>
      </trkpt>
      <trkpt lat="50.3506" lon="1.5763">
        <ele>5.9</ele>
        <time>2023-06-10T13:16:51Z</time>
      </trkpt>
      <trkpt lat="50.35058" lon="1.57642">
        <ele>5.8</ele>
        <time>2023-06-10T13:16:53Z</time>
      </trkpt>
      <trkpt lat="50.35056" lon="1.57655">
        <ele>5.4</ele>
        <time>2023-06-10T13:16:55Z</time>
      </trkpt>
      <trkpt lat="50.35054" lon="1.57669">
        <ele>5.1</ele>
        <time>2023-06-10T13:16:57Z</time>
      </trkpt>
      <trkpt lat="50.35052" lon="1.57681">
        <ele>5.1</ele>
        <time>2023-06-10T13:16:59Z</time>
      </trkpt>
      <trkpt lat="50.35049" lon="1.57693">
        <ele>5.2</ele>
        <time>2023-06-10T13:17:01Z</time>
      </trkpt>
      <trkpt lat="50.35047" lon="1.57705">
        <ele>5.3</ele>
        <time>2023-06-10T13:17:03Z</time>
      </trkpt>
      <trkpt lat="50.35044" lon="1.57717">
        <ele>5.4</ele>
        <time>2023-06-10T13:17:05Z</time>
      </trkpt>
      <trkpt lat="50.35042" lon="1.57728">
        <ele>5.5</ele>
        <time>2023-06-10T13:17:07Z</time>
      </trkpt>
      <trkpt lat="50.3504" lon="1.57739">
        <ele>5.6</ele>
        <time>2023-06-10T13:17:09Z</time>
      </trkpt>
      <trkpt lat="50.35038" lon="1.5775">
        <ele>5.6</ele>
        <time>2023-06-10T13:17:11Z</time>
      </trkpt>
      <trkpt lat="50.35037" lon="1.57763">
        <ele>5.7</ele>
        <time>2023-06-10T13:17:13Z</time>
      </trkpt>
      <trkpt lat="50.35035" lon="1.57774">
        <ele>5.7</ele>
        <time>2023-06-10T13:17:15Z</time>
      </trkpt>
      <trkpt lat="50.35034" lon="1.57786">
        <ele>5.8</ele>
        <time>2023-06-10T13:17:17Z</time>
      </trkpt>
      <trkpt lat="50.35031" lon="1.57797">
        <ele>5.9</ele>
        <time>2023-06-10T13:17:19Z</time>
      </trkpt>
      <trkpt lat="50.35029" lon="1.57808">
        <ele>5.9</ele>
        <time>2023-06-10T13:17:21Z</time>
      </trkpt>
      <trkpt lat="50.35027" lon="1.5782">
        <ele>5.5</ele>
        <time>2023-06-10T13:17:23Z</time>
      </trkpt>
      <trkpt lat="50.35025" lon="1.5783">
        <ele>5.2</ele>
        <time>2023-06-10T13:17:25Z</time>
      </trkpt>
      <trkpt lat="50.35022" lon="1.57841">
        <ele>5.2</ele>
        <time>2023-06-10T13:17:27Z</time>
      </trkpt>
      <trkpt lat="50.3502" lon="1.57851">
        <ele>5.3</ele>
        <time>2023-06-10T13:17:29Z</time>
      </trkpt>
      <trkpt lat="50.35018" lon="1.57862">
        <ele>5.4</ele>
        <time>2023-06-10T13:17:31Z</time>
      </trkpt>
      <trkpt lat="50.35016" lon="1.57873">
        <ele>5.4</ele>
        <time>2023-06-10T13:17:33Z</time>
      </trkpt>
      <trkpt lat="50.35014" lon="1.57882">
        <ele>5.5</ele>
        <time>2023-06-10T13:17:35Z</time>
      </trkpt>
      <trkpt lat="50.35013" lon="1.57892">
        <ele>5.5</ele>
        <time>2023-06-10T13:17:37Z</time>
      </trkpt>
      <trkpt lat="50.35012" lon="1.579">
        <ele>5.6</ele>
        <time>2023-06-10T13:17:39Z</time>
      </trkpt>
      <trkpt lat="50.3501" lon="1.57908">
        <ele>5.6</ele>
        <time>2023-06-10T13:17:41Z</time>
      </trkpt>
      <trkpt lat="50.35009" lon="1.57917">
        <ele>5.7</ele>
        <time>2023-06-10T13:17:43Z</time>
      </trkpt>
      <trkpt lat="50.35007" lon="1.57926">
        <ele>5.8</ele>
        <time>2023-06-10T13:17:47Z</time>
      </trkpt>
      <trkpt lat="50.35002" lon="1.57932">
        <ele>5.9</ele>
        <time>2023-06-10T13:17:51Z</time>
      </trkpt>
      <trkpt lat="50.35004" lon="1.5794">
        <ele>5.9</ele>
        <time>2023-06-10T13:17:57Z</time>
      </trkpt>
      <trkpt lat="50.35001" lon="1.57947">
        <ele>5.9</ele>
        <time>2023-06-10T13:18:03Z</time>
      </trkpt>
      <trkpt lat="50.35" lon="1.57954">
        <ele>6</ele>
        <time>2023-06-10T13:18:07Z</time>
      </trkpt>
      <trkpt lat="50.34998" lon="1.57964">
        <ele>6</ele>
        <time>2023-06-10T13:18:11Z</time>
      </trkpt>
      <trkpt lat="50.34996" lon="1.57978">
        <ele>5.9</ele>
        <time>2023-06-10T13:18:15Z</time>
      </trkpt>
      <trkpt lat="50.34994" lon="1.57986">
        <ele>5.9</ele>
        <time>2023-06-10T13:18:17Z</time>
      </trkpt>
      <trkpt lat="50.34993" lon="1.57994">
        <ele>5.9</ele>
        <time>2023-06-10T13:18:19Z</time>
      </trkpt>
      <trkpt lat="50.34991" lon="1.58003">
        <ele>5.9</ele>
        <time>2023-06-10T13:18:21Z</time>
      </trkpt>
      <trkpt lat="50.34989" lon="1.58012">
        <ele>5.7</ele>
        <time>2023-06-10T13:18:23Z</time>
      </trkpt>
      <trkpt lat="50.34988" lon="1.58022">
        <ele>5.6</ele>
        <time>2023-06-10T13:18:25Z</time>
      </trkpt>
      <trkpt lat="50.34986" lon="1.5803">
        <ele>5.5</ele>
        <time>2023-06-10T13:18:27Z</time>
      </trkpt>
      <trkpt lat="50.34985" lon="1.58038">
        <ele>5.6</ele>
        <time>2023-06-10T13:18:29Z</time>
      </trkpt>
      <trkpt lat="50.34983" lon="1.58046">
        <ele>5.6</ele>
        <time>2023-06-10T13:18:31Z</time>
      </trkpt>
      <trkpt lat="50.34981" lon="1.58054">
        <ele>5.7</ele>
        <time>2023-06-10T13:18:33Z</time>
      </trkpt>
      <trkpt lat="50.34979" lon="1.58063">
        <ele>5.8</ele>
        <time>2023-06-10T13:18:35Z</time>
      </trkpt>
      <trkpt lat="50.34978" lon="1.58071">
        <ele>5.8</ele>
        <time>2023-06-10T13:18:45Z</time>
      </trkpt>
      <trkpt lat="50.34976" lon="1.5808">
        <ele>5.9</ele>
        <time>2023-06-10T13:18:51Z</time>
      </trkpt>
      <trkpt lat="50.34974" lon="1.58088">
        <ele>5.8</ele>
        <time>2023-06-10T13:18:57Z</time>
      </trkpt>
      <trkpt lat="50.34973" lon="1.58097">
        <ele>5.5</ele>
        <time>2023-06-10T13:19:03Z</time>
      </trkpt>
      <trkpt lat="50.34972" lon="1.58105">
        <ele>5.2</ele>
        <time>2023-06-10T13:19:09Z</time>
      </trkpt>
      <trkpt lat="50.3497" lon="1.58114">
        <ele>5</ele>
        <time>2023-06-10T13:19:15Z</time>
      </trkpt>
      <trkpt lat="50.34969" lon="1.58122">
        <ele>5</ele>
        <time>2023-06-10T13:19:19Z</time>
      </trkpt>
      <trkpt lat="50.34967" lon="1.58129">
        <ele>5</ele>
        <time>2023-06-10T13:19:23Z</time>
      </trkpt>
      <trkpt lat="50.34966" lon="1.58136">
        <ele>5</ele>
        <time>2023-06-10T13:19:27Z</time>
      </trkpt>
      <trkpt lat="50.34965" lon="1.58143">
        <ele>5</ele>
        <time>2023-06-10T13:19:31Z</time>
      </trkpt>
      <trkpt lat="50.34964" lon="1.58151">
        <ele>5</ele>
        <time>2023-06-10T13:19:35Z</time>
      </trkpt>
      <trkpt lat="50.34963" lon="1.58158">
        <ele>5</ele>
        <time>2023-06-10T13:19:39Z</time>
      </trkpt>
      <trkpt lat="50.34962" lon="1.58166">
        <ele>5</ele>
        <time>2023-06-10T13:19:43Z</time>
      </trkpt>
      <trkpt lat="50.3496" lon="1.58173">
        <ele>5.1</ele>
        <time>2023-06-10T13:19:49Z</time>
      </trkpt>
      <trkpt lat="50.34959" lon="1.58185">
        <ele>5.3</ele>
        <time>2023-06-10T13:19:53Z</time>
      </trkpt>
      <trkpt lat="50.34957" lon="1.58196">
        <ele>5.6</ele>
        <time>2023-06-10T13:19:57Z</time>
      </trkpt>
      <trkpt lat="50.34954" lon="1.58207">
        <ele>5.9</ele>
        <time>2023-06-10T13:20:01Z</time>
      </trkpt>
      <trkpt lat="50.3495" lon="1.58219">
        <ele>6.5</ele>
        <time>2023-06-10T13:20:05Z</time>
      </trkpt>
      <trkpt lat="50.34946" lon="1.58231">
        <ele>6.6</ele>
        <time>2023-06-10T13:20:09Z</time>
      </trkpt>
      <trkpt lat="50.34944" lon="1.5824">
        <ele>6.3</ele>
        <time>2023-06-10T13:20:13Z</time>
      </trkpt>
      <trkpt lat="50.3494" lon="1.58247">
        <ele>5.9</ele>
        <time>2023-06-10T13:20:25Z</time>
      </trkpt>
      <trkpt lat="50.34937" lon="1.58255">
        <ele>5.6</ele>
        <time>2023-06-10T13:20:31Z</time>
      </trkpt>
      <trkpt lat="50.34934" lon="1.58264">
        <ele>5.5</ele>
        <time>2023-06-10T13:20:37Z</time>
      </trkpt>
      <trkpt lat="50.34932" lon="1.58271">
        <ele>5.5</ele>
        <time>2023-06-10T13:20:41Z</time>
      </trkpt>
      <trkpt lat="50.34929" lon="1.58278">
        <ele>5.6</ele>
        <time>2023-06-10T13:20:45Z</time>
      </trkpt>
      <trkpt lat="50.34926" lon="1.58283">
        <ele>5.7</ele>
        <time>2023-06-10T13:20:49Z</time>
      </trkpt>
      <trkpt lat="50.34923" lon="1.58292">
        <ele>5.8</ele>
        <time>2023-06-10T13:20:55Z</time>
      </trkpt>
      <trkpt lat="50.3492" lon="1.58298">
        <ele>5.9</ele>
        <time>2023-06-10T13:20:59Z</time>
      </trkpt>
      <trkpt lat="50.34915" lon="1.58307">
        <ele>5.9</ele>
        <time>2023-06-10T13:21:07Z</time>
      </trkpt>
      <trkpt lat="50.34912" lon="1.58314">
        <ele>5.6</ele>
        <time>2023-06-10T13:21:09Z</time>
      </trkpt>
      <trkpt lat="50.34909" lon="1.58322">
        <ele>5.5</ele>
        <time>2023-06-10T13:21:11Z</time>
      </trkpt>
      <trkpt lat="50.34906" lon="1.5833">
        <ele>5.4</ele>
        <time>2023-06-10T13:21:13Z</time>
      </trkpt>
      <trkpt lat="50.34903" lon="1.58338">
        <ele>5.4</ele>
        <time>2023-06-10T13:21:15Z</time>
      </trkpt>
      <trkpt lat="50.349" lon="1.58345">
        <ele>5.3</ele>
        <time>2023-06-10T13:21:17Z</time>
      </trkpt>
      <trkpt lat="50.34897" lon="1.58352">
        <ele>5.2</ele>
        <time>2023-06-10T13:21:19Z</time>
      </trkpt>
      <trkpt lat="50.34892" lon="1.58363">
        <ele>5</ele>
        <time>2023-06-10T13:21:23Z</time>
      </trkpt>
      <trkpt lat="50.34889" lon="1.58369">
        <ele>5</ele>
        <time>2023-06-10T13:21:25Z</time>
      </trkpt>
      <trkpt lat="50.34884" lon="1.5838">
        <ele>5.1</ele>
        <time>2023-06-10T13:21:29Z</time>
      </trkpt>
      <trkpt lat="50.34881" lon="1.58386">
        <ele>5.3</ele>
        <time>2023-06-10T13:21:31Z</time>
      </trkpt>
      <trkpt lat="50.34878" lon="1.58392">
        <ele>5.4</ele>
        <time>2023-06-10T13:21:33Z</time>
      </trkpt>
      <trkpt lat="50.34873" lon="1.584">
        <ele>5.3</ele>
        <time>2023-06-10T13:21:35Z</time>
      </trkpt>
      <trkpt lat="50.34869" lon="1.58407">
        <ele>5.2</ele>
        <time>2023-06-10T13:21:37Z</time>
      </trkpt>
      <trkpt lat="50.34866" lon="1.58414">
        <ele>5.1</ele>
        <time>2023-06-10T13:21:39Z</time>
      </trkpt>
      <trkpt lat="50.34863" lon="1.58422">
        <ele>5</ele>
        <time>2023-06-10T13:21:41Z</time>
      </trkpt>
      <trkpt lat="50.34859" lon="1.58429">
        <ele>5</ele>
        <time>2023-06-10T13:21:43Z</time>
      </trkpt>
      <trkpt lat="50.34856" lon="1.58435">
        <ele>5.1</ele>
        <time>2023-06-10T13:21:45Z</time>
      </trkpt>
      <trkpt lat="50.34852" lon="1.58442">
        <ele>5.3</ele>
        <time>2023-06-10T13:21:47Z</time>
      </trkpt>
      <trkpt lat="50.34849" lon="1.58449">
        <ele>5.4</ele>
        <time>2023-06-10T13:21:49Z</time>
      </trkpt>
      <trkpt lat="50.34844" lon="1.58455">
        <ele>5.4</ele>
        <time>2023-06-10T13:21:51Z</time>
      </trkpt>
      <trkpt lat="50.3484" lon="1.58464">
        <ele>5.2</ele>
        <time>2023-06-10T13:21:53Z</time>
      </trkpt>
      <trkpt lat="50.34836" lon="1.58471">
        <ele>5</ele>
        <time>2023-06-10T13:21:55Z</time>
      </trkpt>
      <trkpt lat="50.34833" lon="1.58478">
        <ele>5</ele>
        <time>2023-06-10T13:21:57Z</time>
      </trkpt>
      <trkpt lat="50.34828" lon="1.58487">
        <ele>5</ele>
        <time>2023-06-10T13:21:59Z</time>
      </trkpt>
      <trkpt lat="50.34824" lon="1.58497">
        <ele>5</ele>
        <time>2023-06-10T13:22:01Z</time>
      </trkpt>
      <trkpt lat="50.3482" lon="1.58504">
        <ele>5</ele>
        <time>2023-06-10T13:22:03Z</time>
      </trkpt>
      <trkpt lat="50.34815" lon="1.58512">
        <ele>5</ele>
        <time>2023-06-10T13:22:05Z</time>
      </trkpt>
      <trkpt lat="50.34811" lon="1.58522">
        <ele>5</ele>
        <time>2023-06-10T13:22:07Z</time>
      </trkpt>
      <trkpt lat="50.34807" lon="1.58529">
        <ele>5</ele>
        <time>2023-06-10T13:22:09Z</time>
      </trkpt>
      <trkpt lat="50.34804" lon="1.58537">
        <ele>5</ele>
        <time>2023-06-10T13:22:11Z</time>
      </trkpt>
      <trkpt lat="50.348" lon="1.58544">
        <ele>5</ele>
        <time>2023-06-10T13:22:13Z</time>
      </trkpt>
      <trkpt lat="50.34796" lon="1.58555">
        <ele>5</ele>
        <time>2023-06-10T13:22:17Z</time>
      </trkpt>
      <trkpt lat="50.34793" lon="1.58562">
        <ele>5.1</ele>
        <time>2023-06-10T13:22:21Z</time>
      </trkpt>
      <trkpt lat="50.34787" lon="1.58566">
        <ele>5.3</ele>
        <time>2023-06-10T13:22:27Z</time>
      </trkpt>
      <trkpt lat="50.34782" lon="1.58568">
        <ele>5.4</ele>
        <time>2023-06-10T13:22:49Z</time>
      </trkpt>
      <trkpt lat="50.34776" lon="1.58562">
        <ele>5.2</ele>
        <time>2023-06-10T13:22:53Z</time>
      </trkpt>
      <trkpt lat="50.34772" lon="1.58558">
        <ele>5.1</ele>
        <time>2023-06-10T13:22:57Z</time>
      </trkpt>
      <trkpt lat="50.34778" lon="1.58564">
        <ele>5.3</ele>
        <time>2023-06-10T13:23:53Z</time>
      </trkpt>
      <trkpt lat="50.34785" lon="1.58573">
        <ele>5.5</ele>
        <time>2023-06-10T13:23:57Z</time>
      </trkpt>
      <trkpt lat="50.3479" lon="1.58578">
        <ele>5.4</ele>
        <time>2023-06-10T13:23:59Z</time>
      </trkpt>
      <trkpt lat="50.34796" lon="1.58581">
        <ele>5.3</ele>
        <time>2023-06-10T13:24:01Z</time>
      </trkpt>
      <trkpt lat="50.34802" lon="1.58584">
        <ele>5.1</ele>
        <time>2023-06-10T13:24:03Z</time>
      </trkpt>
      <trkpt lat="50.34809" lon="1.58588">
        <ele>5.3</ele>
        <time>2023-06-10T13:24:05Z</time>
      </trkpt>
      <trkpt lat="50.34815" lon="1.58593">
        <ele>5.5</ele>
        <time>2023-06-10T13:24:07Z</time>
      </trkpt>
      <trkpt lat="50.34823" lon="1.58596">
        <ele>5.3</ele>
        <time>2023-06-10T13:24:09Z</time>
      </trkpt>
      <trkpt lat="50.34829" lon="1.586">
        <ele>5.2</ele>
        <time>2023-06-10T13:24:11Z</time>
      </trkpt>
      <trkpt lat="50.34835" lon="1.58604">
        <ele>5</ele>
        <time>2023-06-10T13:24:13Z</time>
      </trkpt>
      <trkpt lat="50.34841" lon="1.58608">
        <ele>5</ele>
        <time>2023-06-10T13:24:15Z</time>
      </trkpt>
      <trkpt lat="50.34833" lon="1.58604">
        <ele>5</ele>
        <time>2023-06-10T13:24:27Z</time>
      </trkpt>
      <trkpt lat="50.34827" lon="1.586">
        <ele>5.3</ele>
        <time>2023-06-10T13:24:29Z</time>
      </trkpt>
      <trkpt lat="50.34822" lon="1.58596">
        <ele>5.4</ele>
        <time>2023-06-10T13:24:31Z</time>
      </trkpt>
      <trkpt lat="50.34817" lon="1.58594">
        <ele>5.5</ele>
        <time>2023-06-10T13:24:33Z</time>
      </trkpt>
      <trkpt lat="50.34812" lon="1.58591">
        <ele>5.4</ele>
        <time>2023-06-10T13:24:35Z</time>
      </trkpt>
      <trkpt lat="50.34807" lon="1.58588">
        <ele>5.3</ele>
        <time>2023-06-10T13:24:37Z</time>
      </trkpt>
      <trkpt lat="50.34801" lon="1.58585">
        <ele>5.2</ele>
        <time>2023-06-10T13:24:39Z</time>
      </trkpt>
      <trkpt lat="50.34796" lon="1.58581">
        <ele>5.3</ele>
        <time>2023-06-10T13:24:41Z</time>
      </trkpt>
      <trkpt lat="50.3479" lon="1.58575">
        <ele>5.4</ele>
        <time>2023-06-10T13:24:43Z</time>
      </trkpt>
      <trkpt lat="50.34784" lon="1.5857">
        <ele>5.4</ele>
        <time>2023-06-10T13:24:45Z</time>
      </trkpt>
      <trkpt lat="50.34778" lon="1.58566">
        <ele>5.4</ele>
        <time>2023-06-10T13:24:47Z</time>
      </trkpt>
      <trkpt lat="50.34773" lon="1.5856">
        <ele>5.1</ele>
        <time>2023-06-10T13:24:49Z</time>
      </trkpt>
      <trkpt lat="50.34768" lon="1.58553">
        <ele>5</ele>
        <time>2023-06-10T13:24:51Z</time>
      </trkpt>
      <trkpt lat="50.34764" lon="1.58546">
        <ele>5.2</ele>
        <time>2023-06-10T13:24:53Z</time>
      </trkpt>
      <trkpt lat="50.3476" lon="1.58538">
        <ele>5.4</ele>
        <time>2023-06-10T13:24:55Z</time>
      </trkpt>
      <trkpt lat="50.34755" lon="1.58529">
        <ele>5.8</ele>
        <time>2023-06-10T13:24:57Z</time>
      </trkpt>
      <trkpt lat="50.34748" lon="1.58521">
        <ele>5.7</ele>
        <time>2023-06-10T13:24:59Z</time>
      </trkpt>
      <trkpt lat="50.34742" lon="1.58514">
        <ele>5.5</ele>
        <time>2023-06-10T13:25:01Z</time>
      </trkpt>
      <trkpt lat="50.34737" lon="1.58507">
        <ele>5.5</ele>
        <time>2023-06-10T13:25:03Z</time>
      </trkpt>
      <trkpt lat="50.34732" lon="1.58502">
        <ele>5.6</ele>
        <time>2023-06-10T13:25:05Z</time>
      </trkpt>
      <trkpt lat="50.34726" lon="1.58495">
        <ele>5.7</ele>
        <time>2023-06-10T13:25:07Z</time>
      </trkpt>
      <trkpt lat="50.34719" lon="1.58488">
        <ele>5.5</ele>
        <time>2023-06-10T13:25:09Z</time>
      </trkpt>
      <trkpt lat="50.34713" lon="1.58482">
        <ele>5.4</ele>
        <time>2023-06-10T13:25:11Z</time>
      </trkpt>
      <trkpt lat="50.34705" lon="1.58474">
        <ele>5.6</ele>
        <time>2023-06-10T13:25:15Z</time>
      </trkpt>
      <trkpt lat="50.34699" lon="1.58469">
        <ele>5.7</ele>
        <time>2023-06-10T13:25:17Z</time>
      </trkpt>
      <trkpt lat="50.34695" lon="1.58461">
        <ele>5.6</ele>
        <time>2023-06-10T13:25:19Z</time>
      </trkpt>
      <trkpt lat="50.3469" lon="1.58456">
        <ele>5.4</ele>
        <time>2023-06-10T13:25:21Z</time>
      </trkpt>
      <trkpt lat="50.34685" lon="1.58451">
        <ele>5.4</ele>
        <time>2023-06-10T13:25:23Z</time>
      </trkpt>
      <trkpt lat="50.3468" lon="1.58447">
        <ele>5.5</ele>
        <time>2023-06-10T13:25:25Z</time>
      </trkpt>
      <trkpt lat="50.34675" lon="1.58444">
        <ele>5.7</ele>
        <time>2023-06-10T13:25:27Z</time>
      </trkpt>
      <trkpt lat="50.34672" lon="1.58438">
        <ele>5.6</ele>
        <time>2023-06-10T13:25:37Z</time>
      </trkpt>
      <trkpt lat="50.34668" lon="1.58433">
        <ele>5.6</ele>
        <time>2023-06-10T13:25:51Z</time>
      </trkpt>
      <trkpt lat="50.34663" lon="1.58428">
        <ele>5.4</ele>
        <time>2023-06-10T13:26:05Z</time>
      </trkpt>
      <trkpt lat="50.34659" lon="1.58423">
        <ele>5.4</ele>
        <time>2023-06-10T13:26:09Z</time>
      </trkpt>
      <trkpt lat="50.3465" lon="1.58419">
        <ele>5.6</ele>
        <time>2023-06-10T13:26:13Z</time>
      </trkpt>
      <trkpt lat="50.34641" lon="1.58415">
        <ele>5.9</ele>
        <time>2023-06-10T13:26:17Z</time>
      </trkpt>
      <trkpt lat="50.34637" lon="1.58412">
        <ele>5.8</ele>
        <time>2023-06-10T13:26:19Z</time>
      </trkpt>
      <trkpt lat="50.34632" lon="1.58408">
        <ele>5.6</ele>
        <time>2023-06-10T13:26:21Z</time>
      </trkpt>
      <trkpt lat="50.34627" lon="1.58402">
        <ele>5.5</ele>
        <time>2023-06-10T13:26:23Z</time>
      </trkpt>
      <trkpt lat="50.34622" lon="1.58397">
        <ele>5.5</ele>
        <time>2023-06-10T13:26:25Z</time>
      </trkpt>
      <trkpt lat="50.34616" lon="1.5839">
        <ele>5.8</ele>
        <time>2023-06-10T13:26:27Z</time>
      </trkpt>
      <trkpt lat="50.34611" lon="1.58384">
        <ele>5.8</ele>
        <time>2023-06-10T13:26:29Z</time>
      </trkpt>
      <trkpt lat="50.34605" lon="1.58379">
        <ele>5.6</ele>
        <time>2023-06-10T13:26:31Z</time>
      </trkpt>
      <trkpt lat="50.346" lon="1.58373">
        <ele>5.5</ele>
        <time>2023-06-10T13:26:33Z</time>
      </trkpt>
      <trkpt lat="50.34595" lon="1.58368">
        <ele>5.5</ele>
        <time>2023-06-10T13:26:35Z</time>
      </trkpt>
      <trkpt lat="50.34589" lon="1.58362">
        <ele>5.8</ele>
        <time>2023-06-10T13:26:37Z</time>
      </trkpt>
      <trkpt lat="50.34584" lon="1.58356">
        <ele>5.8</ele>
        <time>2023-06-10T13:26:39Z</time>
      </trkpt>
      <trkpt lat="50.34579" lon="1.58351">
        <ele>5.6</ele>
        <time>2023-06-10T13:26:41Z</time>
      </trkpt>
      <trkpt lat="50.34576" lon="1.58346">
        <ele>5.5</ele>
        <time>2023-06-10T13:26:43Z</time>
      </trkpt>
      <trkpt lat="50.34571" lon="1.58343">
        <ele>5.5</ele>
        <time>2023-06-10T13:26:45Z</time>
      </trkpt>
      <trkpt lat="50.34567" lon="1.58339">
        <ele>5.5</ele>
        <time>2023-06-10T13:26:47Z</time>
      </trkpt>
      <trkpt lat="50.34562" lon="1.58334">
        <ele>5.7</ele>
        <time>2023-06-10T13:26:49Z</time>
      </trkpt>
      <trkpt lat="50.34558" lon="1.58329">
        <ele>5.8</ele>
        <time>2023-06-10T13:26:51Z</time>
      </trkpt>
      <trkpt lat="50.34553" lon="1.58324">
        <ele>5.6</ele>
        <time>2023-06-10T13:26:53Z</time>
      </trkpt>
      <trkpt lat="50.34548" lon="1.58318">
        <ele>5.5</ele>
        <time>2023-06-10T13:26:55Z</time>
      </trkpt>
      <trkpt lat="50.34544" lon="1.58312">
        <ele>5.5</ele>
        <time>2023-06-10T13:26:57Z</time>
      </trkpt>
      <trkpt lat="50.34541" lon="1.58304">
        <ele>5.5</ele>
        <time>2023-06-10T13:26:59Z</time>
      </trkpt>
      <trkpt lat="50.3454" lon="1.58297">
        <ele>5.6</ele>
        <time>2023-06-10T13:27:01Z</time>
      </trkpt>
      <trkpt lat="50.34538" lon="1.58284">
        <ele>5.6</ele>
        <time>2023-06-10T13:27:05Z</time>
      </trkpt>
      <trkpt lat="50.34539" lon="1.58277">
        <ele>5.6</ele>
        <time>2023-06-10T13:27:09Z</time>
      </trkpt>
      <trkpt lat="50.34541" lon="1.58265">
        <ele>5.3</ele>
        <time>2023-06-10T13:27:13Z</time>
      </trkpt>
      <trkpt lat="50.34545" lon="1.58252">
        <ele>5</ele>
        <time>2023-06-10T13:27:17Z</time>
      </trkpt>
      <trkpt lat="50.34546" lon="1.58243">
        <ele>5</ele>
        <time>2023-06-10T13:27:19Z</time>
      </trkpt>
      <trkpt lat="50.34548" lon="1.58236">
        <ele>5</ele>
        <time>2023-06-10T13:27:21Z</time>
      </trkpt>
      <trkpt lat="50.34549" lon="1.58228">
        <ele>5</ele>
        <time>2023-06-10T13:27:23Z</time>
      </trkpt>
      <trkpt lat="50.3455" lon="1.58219">
        <ele>5</ele>
        <time>2023-06-10T13:27:25Z</time>
      </trkpt>
      <trkpt lat="50.34551" lon="1.58211">
        <ele>5</ele>
        <time>2023-06-10T13:27:27Z</time>
      </trkpt>
      <trkpt lat="50.34553" lon="1.58201">
        <ele>5</ele>
        <time>2023-06-10T13:27:29Z</time>
      </trkpt>
      <trkpt lat="50.34554" lon="1.58193">
        <ele>5.1</ele>
        <time>2023-06-10T13:27:31Z</time>
      </trkpt>
      <trkpt lat="50.34554" lon="1.58184">
        <ele>5.4</ele>
        <time>2023-06-10T13:27:33Z</time>
      </trkpt>
      <trkpt lat="50.34554" lon="1.58174">
        <ele>5.7</ele>
        <time>2023-06-10T13:27:35Z</time>
      </trkpt>
      <trkpt lat="50.34553" lon="1.58164">
        <ele>5.8</ele>
        <time>2023-06-10T13:27:37Z</time>
      </trkpt>
      <trkpt lat="50.34552" lon="1.58153">
        <ele>5.5</ele>
        <time>2023-06-10T13:27:39Z</time>
      </trkpt>
      <trkpt lat="50.3455" lon="1.58141">
        <ele>5.2</ele>
        <time>2023-06-10T13:27:41Z</time>
      </trkpt>
      <trkpt lat="50.34548" lon="1.5813">
        <ele>5.5</ele>
        <time>2023-06-10T13:27:43Z</time>
      </trkpt>
      <trkpt lat="50.34546" lon="1.5812">
        <ele>5.8</ele>
        <time>2023-06-10T13:27:45Z</time>
      </trkpt>
      <trkpt lat="50.34545" lon="1.5811">
        <ele>6</ele>
        <time>2023-06-10T13:27:47Z</time>
      </trkpt>
      <trkpt lat="50.34544" lon="1.581">
        <ele>6</ele>
        <time>2023-06-10T13:27:49Z</time>
      </trkpt>
      <trkpt lat="50.34543" lon="1.5809">
        <ele>6</ele>
        <time>2023-06-10T13:27:51Z</time>
      </trkpt>
      <trkpt lat="50.3454" lon="1.5808">
        <ele>6</ele>
        <time>2023-06-10T13:27:53Z</time>
      </trkpt>
      <trkpt lat="50.34537" lon="1.58071">
        <ele>6</ele>
        <time>2023-06-10T13:27:55Z</time>
      </trkpt>
      <trkpt lat="50.34533" lon="1.58062">
        <ele>6</ele>
        <time>2023-06-10T13:27:57Z</time>
      </trkpt>
      <trkpt lat="50.34529" lon="1.58052">
        <ele>6</ele>
        <time>2023-06-10T13:27:59Z</time>
      </trkpt>
      <trkpt lat="50.34523" lon="1.58044">
        <ele>6</ele>
        <time>2023-06-10T13:28:01Z</time>
      </trkpt>
      <trkpt lat="50.34518" lon="1.58036">
        <ele>6</ele>
        <time>2023-06-10T13:28:03Z</time>
      </trkpt>
      <trkpt lat="50.34512" lon="1.58028">
        <ele>6</ele>
        <time>2023-06-10T13:28:05Z</time>
      </trkpt>
      <trkpt lat="50.34508" lon="1.58018">
        <ele>6</ele>
        <time>2023-06-10T13:28:07Z</time>
      </trkpt>
      <trkpt lat="50.34502" lon="1.58006">
        <ele>6</ele>
        <time>2023-06-10T13:28:09Z</time>
      </trkpt>
      <trkpt lat="50.34496" lon="1.57995">
        <ele>6</ele>
        <time>2023-06-10T13:28:11Z</time>
      </trkpt>
      <trkpt lat="50.3449" lon="1.57986">
        <ele>6</ele>
        <time>2023-06-10T13:28:13Z</time>
      </trkpt>
      <trkpt lat="50.34485" lon="1.57977">
        <ele>6</ele>
        <time>2023-06-10T13:28:15Z</time>
      </trkpt>
      <trkpt lat="50.34479" lon="1.57968">
        <ele>6</ele>
        <time>2023-06-10T13:28:17Z</time>
      </trkpt>
      <trkpt lat="50.34473" lon="1.57958">
        <ele>6</ele>
        <time>2023-06-10T13:28:19Z</time>
      </trkpt>
      <trkpt lat="50.34466" lon="1.57948">
        <ele>6</ele>
        <time>2023-06-10T13:28:21Z</time>
      </trkpt>
      <trkpt lat="50.34459" lon="1.57938">
        <ele>6</ele>
        <time>2023-06-10T13:28:23Z</time>
      </trkpt>
      <trkpt lat="50.34452" lon="1.57928">
        <ele>6</ele>
        <time>2023-06-10T13:28:25Z</time>
      </trkpt>
      <trkpt lat="50.34444" lon="1.57919">
        <ele>6</ele>
        <time>2023-06-10T13:28:27Z</time>
      </trkpt>
      <trkpt lat="50.34437" lon="1.57911">
        <ele>6</ele>
        <time>2023-06-10T13:28:29Z</time>
      </trkpt>
      <trkpt lat="50.34431" lon="1.57902">
        <ele>6</ele>
        <time>2023-06-10T13:28:31Z</time>
      </trkpt>
      <trkpt lat="50.34424" lon="1.57892">
        <ele>6</ele>
        <time>2023-06-10T13:28:33Z</time>
      </trkpt>
      <trkpt lat="50.34417" lon="1.57883">
        <ele>6</ele>
        <time>2023-06-10T13:28:35Z</time>
      </trkpt>
      <trkpt lat="50.34409" lon="1.57873">
        <ele>6</ele>
        <time>2023-06-10T13:28:37Z</time>
      </trkpt>
      <trkpt lat="50.34402" lon="1.57864">
        <ele>6</ele>
        <time>2023-06-10T13:28:39Z</time>
      </trkpt>
      <trkpt lat="50.34396" lon="1.57855">
        <ele>6</ele>
        <time>2023-06-10T13:28:41Z</time>
      </trkpt>
      <trkpt lat="50.3439" lon="1.57845">
        <ele>6</ele>
        <time>2023-06-10T13:28:43Z</time>
      </trkpt>
      <trkpt lat="50.34385" lon="1.57836">
        <ele>6</ele>
        <time>2023-06-10T13:28:45Z</time>
      </trkpt>
      <trkpt lat="50.3438" lon="1.57827">
        <ele>6</ele>
        <time>2023-06-10T13:28:47Z</time>
      </trkpt>
      <trkpt lat="50.34376" lon="1.57818">
        <ele>6</ele>
        <time>2023-06-10T13:28:49Z</time>
      </trkpt>
      <trkpt lat="50.34372" lon="1.57809">
        <ele>6</ele>
        <time>2023-06-10T13:28:51Z</time>
      </trkpt>
      <trkpt lat="50.34367" lon="1.57801">
        <ele>6</ele>
        <time>2023-06-10T13:28:53Z</time>
      </trkpt>
      <trkpt lat="50.34362" lon="1.57793">
        <ele>6</ele>
        <time>2023-06-10T13:28:55Z</time>
      </trkpt>
      <trkpt lat="50.34358" lon="1.57784">
        <ele>6</ele>
        <time>2023-06-10T13:28:57Z</time>
      </trkpt>
      <trkpt lat="50.34356" lon="1.57772">
        <ele>6</ele>
        <time>2023-06-10T13:28:59Z</time>
      </trkpt>
      <trkpt lat="50.34353" lon="1.57761">
        <ele>6</ele>
        <time>2023-06-10T13:29:01Z</time>
      </trkpt>
      <trkpt lat="50.34351" lon="1.57748">
        <ele>6</ele>
        <time>2023-06-10T13:29:03Z</time>
      </trkpt>
      <trkpt lat="50.34348" lon="1.57736">
        <ele>6</ele>
        <time>2023-06-10T13:29:05Z</time>
      </trkpt>
      <trkpt lat="50.34345" lon="1.57723">
        <ele>6</ele>
        <time>2023-06-10T13:29:07Z</time>
      </trkpt>
      <trkpt lat="50.34342" lon="1.57712">
        <ele>6</ele>
        <time>2023-06-10T13:29:09Z</time>
      </trkpt>
      <trkpt lat="50.3434" lon="1.57701">
        <ele>6</ele>
        <time>2023-06-10T13:29:11Z</time>
      </trkpt>
      <trkpt lat="50.34338" lon="1.57688">
        <ele>6</ele>
        <time>2023-06-10T13:29:13Z</time>
      </trkpt>
      <trkpt lat="50.34334" lon="1.57675">
        <ele>6</ele>
        <time>2023-06-10T13:29:15Z</time>
      </trkpt>
      <trkpt lat="50.34331" lon="1.57663">
        <ele>6</ele>
        <time>2023-06-10T13:29:17Z</time>
      </trkpt>
      <trkpt lat="50.34328" lon="1.57651">
        <ele>6</ele>
        <time>2023-06-10T13:29:19Z</time>
      </trkpt>
      <trkpt lat="50.34325" lon="1.5764">
        <ele>6</ele>
        <time>2023-06-10T13:29:21Z</time>
      </trkpt>
      <trkpt lat="50.34322" lon="1.57632">
        <ele>6</ele>
        <time>2023-06-10T13:29:23Z</time>
      </trkpt>
      <trkpt lat="50.34321" lon="1.57624">
        <ele>6</ele>
        <time>2023-06-10T13:29:25Z</time>
      </trkpt>
      <trkpt lat="50.34319" lon="1.57615">
        <ele>6</ele>
        <time>2023-06-10T13:29:27Z</time>
      </trkpt>
      <trkpt lat="50.34317" lon="1.57605">
        <ele>6</ele>
        <time>2023-06-10T13:29:29Z</time>
      </trkpt>
      <trkpt lat="50.34313" lon="1.57595">
        <ele>6</ele>
        <time>2023-06-10T13:29:31Z</time>
      </trkpt>
      <trkpt lat="50.34308" lon="1.57586">
        <ele>6</ele>
        <time>2023-06-10T13:29:33Z</time>
      </trkpt>
      <trkpt lat="50.34301" lon="1.57581">
        <ele>6</ele>
        <time>2023-06-10T13:29:35Z</time>
      </trkpt>
      <trkpt lat="50.34294" lon="1.57575">
        <ele>6</ele>
        <time>2023-06-10T13:29:37Z</time>
      </trkpt>
      <trkpt lat="50.34287" lon="1.57568">
        <ele>6</ele>
        <time>2023-06-10T13:29:39Z</time>
      </trkpt>
      <trkpt lat="50.34281" lon="1.57562">
        <ele>6</ele>
        <time>2023-06-10T13:29:41Z</time>
      </trkpt>
      <trkpt lat="50.34275" lon="1.57557">
        <ele>6</ele>
        <time>2023-06-10T13:29:43Z</time>
      </trkpt>
      <trkpt lat="50.34269" lon="1.57552">
        <ele>6</ele>
        <time>2023-06-10T13:29:45Z</time>
      </trkpt>
      <trkpt lat="50.34263" lon="1.5755">
        <ele>6</ele>
        <time>2023-06-10T13:29:47Z</time>
      </trkpt>
      <trkpt lat="50.34257" lon="1.57549">
        <ele>6</ele>
        <time>2023-06-10T13:29:49Z</time>
      </trkpt>
      <trkpt lat="50.34252" lon="1.57549">
        <ele>6</ele>
        <time>2023-06-10T13:29:51Z</time>
      </trkpt>
      <trkpt lat="50.34246" lon="1.57549">
        <ele>6</ele>
        <time>2023-06-10T13:29:53Z</time>
      </trkpt>
      <trkpt lat="50.34242" lon="1.57547">
        <ele>6</ele>
        <time>2023-06-10T13:29:55Z</time>
      </trkpt>
      <trkpt lat="50.34236" lon="1.57541">
        <ele>6</ele>
        <time>2023-06-10T13:29:59Z</time>
      </trkpt>
      <trkpt lat="50.3423" lon="1.57535">
        <ele>6</ele>
        <time>2023-06-10T13:30:03Z</time>
      </trkpt>
      <trkpt lat="50.34225" lon="1.57531">
        <ele>6</ele>
        <time>2023-06-10T13:30:27Z</time>
      </trkpt>
      <trkpt lat="50.34221" lon="1.57527">
        <ele>6</ele>
        <time>2023-06-10T13:30:29Z</time>
      </trkpt>
      <trkpt lat="50.34216" lon="1.57524">
        <ele>6</ele>
        <time>2023-06-10T13:30:31Z</time>
      </trkpt>
      <trkpt lat="50.3421" lon="1.5752">
        <ele>6</ele>
        <time>2023-06-10T13:30:33Z</time>
      </trkpt>
      <trkpt lat="50.34203" lon="1.57513">
        <ele>6</ele>
        <time>2023-06-10T13:30:35Z</time>
      </trkpt>
      <trkpt lat="50.34196" lon="1.57508">
        <ele>6</ele>
        <time>2023-06-10T13:30:37Z</time>
      </trkpt>
      <trkpt lat="50.34188" lon="1.57501">
        <ele>6</ele>
        <time>2023-06-10T13:30:39Z</time>
      </trkpt>
      <trkpt lat="50.34182" lon="1.57496">
        <ele>6</ele>
        <time>2023-06-10T13:30:41Z</time>
      </trkpt>
      <trkpt lat="50.34176" lon="1.5749">
        <ele>6</ele>
        <time>2023-06-10T13:30:43Z</time>
      </trkpt>
      <trkpt lat="50.3417" lon="1.57485">
        <ele>6</ele>
        <time>2023-06-10T13:30:45Z</time>
      </trkpt>
      <trkpt lat="50.34164" lon="1.57479">
        <ele>6</ele>
        <time>2023-06-10T13:30:47Z</time>
      </trkpt>
      <trkpt lat="50.34157" lon="1.57473">
        <ele>6</ele>
        <time>2023-06-10T13:30:49Z</time>
      </trkpt>
      <trkpt lat="50.3415" lon="1.57467">
        <ele>6</ele>
        <time>2023-06-10T13:30:51Z</time>
      </trkpt>
      <trkpt lat="50.34143" lon="1.57461">
        <ele>6</ele>
        <time>2023-06-10T13:30:53Z</time>
      </trkpt>
      <trkpt lat="50.34135" lon="1.57454">
        <ele>6</ele>
        <time>2023-06-10T13:30:55Z</time>
      </trkpt>
      <trkpt lat="50.34128" lon="1.57449">
        <ele>6</ele>
        <time>2023-06-10T13:30:57Z</time>
      </trkpt>
      <trkpt lat="50.3412" lon="1.57445">
        <ele>6</ele>
        <time>2023-06-10T13:30:59Z</time>
      </trkpt>
      <trkpt lat="50.34113" lon="1.5744">
        <ele>6.1</ele>
        <time>2023-06-10T13:31:01Z</time>
      </trkpt>
      <trkpt lat="50.34106" lon="1.57435">
        <ele>6.3</ele>
        <time>2023-06-10T13:31:03Z</time>
      </trkpt>
      <trkpt lat="50.34099" lon="1.57429">
        <ele>6.3</ele>
        <time>2023-06-10T13:31:05Z</time>
      </trkpt>
      <trkpt lat="50.34094" lon="1.57421">
        <ele>6.3</ele>
        <time>2023-06-10T13:31:07Z</time>
      </trkpt>
      <trkpt lat="50.34089" lon="1.5741">
        <ele>6.2</ele>
        <time>2023-06-10T13:31:09Z</time>
      </trkpt>
      <trkpt lat="50.34085" lon="1.57397">
        <ele>6</ele>
        <time>2023-06-10T13:31:11Z</time>
      </trkpt>
      <trkpt lat="50.3408" lon="1.57384">
        <ele>6.1</ele>
        <time>2023-06-10T13:31:13Z</time>
      </trkpt>
      <trkpt lat="50.34076" lon="1.57371">
        <ele>6.5</ele>
        <time>2023-06-10T13:31:15Z</time>
      </trkpt>
      <trkpt lat="50.34071" lon="1.57358">
        <ele>6.5</ele>
        <time>2023-06-10T13:31:17Z</time>
      </trkpt>
      <trkpt lat="50.34067" lon="1.57347">
        <ele>6.5</ele>
        <time>2023-06-10T13:31:19Z</time>
      </trkpt>
      <trkpt lat="50.34063" lon="1.57336">
        <ele>6.7</ele>
        <time>2023-06-10T13:31:21Z</time>
      </trkpt>
      <trkpt lat="50.34059" lon="1.57325">
        <ele>6.9</ele>
        <time>2023-06-10T13:31:23Z</time>
      </trkpt>
      <trkpt lat="50.34054" lon="1.57314">
        <ele>7</ele>
        <time>2023-06-10T13:31:25Z</time>
      </trkpt>
      <trkpt lat="50.3405" lon="1.57302">
        <ele>7</ele>
        <time>2023-06-10T13:31:27Z</time>
      </trkpt>
      <trkpt lat="50.34046" lon="1.57289">
        <ele>7</ele>
        <time>2023-06-10T13:31:29Z</time>
      </trkpt>
      <trkpt lat="50.34041" lon="1.57275">
        <ele>7</ele>
        <time>2023-06-10T13:31:31Z</time>
      </trkpt>
      <trkpt lat="50.34038" lon="1.57261">
        <ele>7</ele>
        <time>2023-06-10T13:31:33Z</time>
      </trkpt>
      <trkpt lat="50.34035" lon="1.57247">
        <ele>7</ele>
        <time>2023-06-10T13:31:35Z</time>
      </trkpt>
      <trkpt lat="50.34032" lon="1.57232">
        <ele>7</ele>
        <time>2023-06-10T13:31:37Z</time>
      </trkpt>
      <trkpt lat="50.34029" lon="1.57217">
        <ele>7</ele>
        <time>2023-06-10T13:31:39Z</time>
      </trkpt>
      <trkpt lat="50.34027" lon="1.57202">
        <ele>7</ele>
        <time>2023-06-10T13:31:41Z</time>
      </trkpt>
      <trkpt lat="50.34025" lon="1.57188">
        <ele>7.2</ele>
        <time>2023-06-10T13:31:43Z</time>
      </trkpt>
      <trkpt lat="50.34024" lon="1.57175">
        <ele>7.6</ele>
        <time>2023-06-10T13:31:45Z</time>
      </trkpt>
      <trkpt lat="50.34022" lon="1.57162">
        <ele>7.7</ele>
        <time>2023-06-10T13:31:47Z</time>
      </trkpt>
      <trkpt lat="50.34021" lon="1.57149">
        <ele>7.3</ele>
        <time>2023-06-10T13:31:49Z</time>
      </trkpt>
      <trkpt lat="50.3402" lon="1.57138">
        <ele>7</ele>
        <time>2023-06-10T13:31:51Z</time>
      </trkpt>
      <trkpt lat="50.34019" lon="1.57127">
        <ele>7</ele>
        <time>2023-06-10T13:31:53Z</time>
      </trkpt>
      <trkpt lat="50.34019" lon="1.57118">
        <ele>7</ele>
        <time>2023-06-10T13:31:55Z</time>
      </trkpt>
      <trkpt lat="50.34019" lon="1.57108">
        <ele>7.1</ele>
        <time>2023-06-10T13:31:57Z</time>
      </trkpt>
      <trkpt lat="50.34019" lon="1.57099">
        <ele>7.3</ele>
        <time>2023-06-10T13:31:59Z</time>
      </trkpt>
      <trkpt lat="50.3402" lon="1.5709">
        <ele>7.5</ele>
        <time>2023-06-10T13:32:01Z</time>
      </trkpt>
      <trkpt lat="50.34021" lon="1.57083">
        <ele>7.7</ele>
        <time>2023-06-10T13:32:03Z</time>
      </trkpt>
      <trkpt lat="50.34021" lon="1.57074">
        <ele>7.7</ele>
        <time>2023-06-10T13:32:05Z</time>
      </trkpt>
      <trkpt lat="50.34021" lon="1.57063">
        <ele>7.7</ele>
        <time>2023-06-10T13:32:07Z</time>
      </trkpt>
      <trkpt lat="50.34019" lon="1.57051">
        <ele>7.7</ele>
        <time>2023-06-10T13:32:09Z</time>
      </trkpt>
      <trkpt lat="50.34019" lon="1.5704">
        <ele>7.9</ele>
        <time>2023-06-10T13:32:11Z</time>
      </trkpt>
      <trkpt lat="50.34018" lon="1.57027">
        <ele>8</ele>
        <time>2023-06-10T13:32:13Z</time>
      </trkpt>
      <trkpt lat="50.34017" lon="1.57015">
        <ele>8</ele>
        <time>2023-06-10T13:32:15Z</time>
      </trkpt>
      <trkpt lat="50.34016" lon="1.57003">
        <ele>8</ele>
        <time>2023-06-10T13:32:17Z</time>
      </trkpt>
      <trkpt lat="50.34016" lon="1.5699">
        <ele>8</ele>
        <time>2023-06-10T13:32:19Z</time>
      </trkpt>
      <trkpt lat="50.34015" lon="1.56977">
        <ele>8</ele>
        <time>2023-06-10T13:32:21Z</time>
      </trkpt>
      <trkpt lat="50.34013" lon="1.56964">
        <ele>8</ele>
        <time>2023-06-10T13:32:23Z</time>
      </trkpt>
      <trkpt lat="50.34012" lon="1.5695">
        <ele>8</ele>
        <time>2023-06-10T13:32:25Z</time>
      </trkpt>
      <trkpt lat="50.34011" lon="1.56937">
        <ele>8</ele>
        <time>2023-06-10T13:32:27Z</time>
      </trkpt>
      <trkpt lat="50.34011" lon="1.56924">
        <ele>8</ele>
        <time>2023-06-10T13:32:29Z</time>
      </trkpt>
      <trkpt lat="50.3401" lon="1.56911">
        <ele>8</ele>
        <time>2023-06-10T13:32:31Z</time>
      </trkpt>
      <trkpt lat="50.3401" lon="1.56899">
        <ele>8</ele>
        <time>2023-06-10T13:32:33Z</time>
      </trkpt>
      <trkpt lat="50.34009" lon="1.56886">
        <ele>8</ele>
        <time>2023-06-10T13:32:35Z</time>
      </trkpt>
      <trkpt lat="50.34008" lon="1.56873">
        <ele>8</ele>
        <time>2023-06-10T13:32:37Z</time>
      </trkpt>
      <trkpt lat="50.34008" lon="1.5686">
        <ele>8</ele>
        <time>2023-06-10T13:32:39Z</time>
      </trkpt>
      <trkpt lat="50.34007" lon="1.56849">
        <ele>8</ele>
        <time>2023-06-10T13:32:41Z</time>
      </trkpt>
      <trkpt lat="50.34006" lon="1.56836">
        <ele>8</ele>
        <time>2023-06-10T13:32:43Z</time>
      </trkpt>
      <trkpt lat="50.34005" lon="1.56824">
        <ele>8</ele>
        <time>2023-06-10T13:32:45Z</time>
      </trkpt>
      <trkpt lat="50.34005" lon="1.56811">
        <ele>8</ele>
        <time>2023-06-10T13:32:47Z</time>
      </trkpt>
      <trkpt lat="50.34004" lon="1.56799">
        <ele>8</ele>
        <time>2023-06-10T13:32:49Z</time>
      </trkpt>
      <trkpt lat="50.34003" lon="1.56786">
        <ele>8.1</ele>
        <time>2023-06-10T13:32:51Z</time>
      </trkpt>
      <trkpt lat="50.34002" lon="1.56774">
        <ele>8.2</ele>
        <time>2023-06-10T13:32:53Z</time>
      </trkpt>
      <trkpt lat="50.34002" lon="1.56763">
        <ele>8.6</ele>
        <time>2023-06-10T13:32:55Z</time>
      </trkpt>
      <trkpt lat="50.34001" lon="1.56754">
        <ele>8.9</ele>
        <time>2023-06-10T13:32:57Z</time>
      </trkpt>
      <trkpt lat="50.34" lon="1.56746">
        <ele>9</ele>
        <time>2023-06-10T13:32:59Z</time>
      </trkpt>
      <trkpt lat="50.33999" lon="1.56731">
        <ele>9</ele>
        <time>2023-06-10T13:33:03Z</time>
      </trkpt>
      <trkpt lat="50.33997" lon="1.56723">
        <ele>9</ele>
        <time>2023-06-10T13:33:05Z</time>
      </trkpt>
      <trkpt lat="50.33993" lon="1.56718">
        <ele>9</ele>
        <time>2023-06-10T13:33:07Z</time>
      </trkpt>
      <trkpt lat="50.33987" lon="1.56714">
        <ele>9</ele>
        <time>2023-06-10T13:33:09Z</time>
      </trkpt>
      <trkpt lat="50.33983" lon="1.56707">
        <ele>9</ele>
        <time>2023-06-10T13:33:11Z</time>
      </trkpt>
      <trkpt lat="50.33978" lon="1.56702">
        <ele>9</ele>
        <time>2023-06-10T13:33:13Z</time>
      </trkpt>
      <trkpt lat="50.33972" lon="1.56692">
        <ele>9</ele>
        <time>2023-06-10T13:33:17Z</time>
      </trkpt>
      <trkpt lat="50.3397" lon="1.56683">
        <ele>9</ele>
        <time>2023-06-10T13:33:19Z</time>
      </trkpt>
      <trkpt lat="50.33965" lon="1.56681">
        <ele>9</ele>
        <time>2023-06-10T13:33:21Z</time>
      </trkpt>
      <trkpt lat="50.33958" lon="1.56679">
        <ele>9</ele>
        <time>2023-06-10T13:33:23Z</time>
      </trkpt>
      <trkpt lat="50.33951" lon="1.56679">
        <ele>9</ele>
        <time>2023-06-10T13:33:25Z</time>
      </trkpt>
      <trkpt lat="50.33944" lon="1.5668">
        <ele>9</ele>
        <time>2023-06-10T13:33:27Z</time>
      </trkpt>
      <trkpt lat="50.33938" lon="1.56679">
        <ele>9</ele>
        <time>2023-06-10T13:33:29Z</time>
      </trkpt>
      <trkpt lat="50.33931" lon="1.56678">
        <ele>9</ele>
        <time>2023-06-10T13:33:31Z</time>
      </trkpt>
      <trkpt lat="50.33925" lon="1.56676">
        <ele>9</ele>
        <time>2023-06-10T13:33:33Z</time>
      </trkpt>
      <trkpt lat="50.33919" lon="1.56675">
        <ele>9</ele>
        <time>2023-06-10T13:33:35Z</time>
      </trkpt>
      <trkpt lat="50.33913" lon="1.56676">
        <ele>9</ele>
        <time>2023-06-10T13:33:37Z</time>
      </trkpt>
      <trkpt lat="50.33906" lon="1.56678">
        <ele>9.2</ele>
        <time>2023-06-10T13:33:39Z</time>
      </trkpt>
      <trkpt lat="50.339" lon="1.56681">
        <ele>9.3</ele>
        <time>2023-06-10T13:33:41Z</time>
      </trkpt>
      <trkpt lat="50.33893" lon="1.56682">
        <ele>9.5</ele>
        <time>2023-06-10T13:33:43Z</time>
      </trkpt>
      <trkpt lat="50.33885" lon="1.56682">
        <ele>9.6</ele>
        <time>2023-06-10T13:33:45Z</time>
      </trkpt>
      <trkpt lat="50.33878" lon="1.56681">
        <ele>9.7</ele>
        <time>2023-06-10T13:33:47Z</time>
      </trkpt>
      <trkpt lat="50.3387" lon="1.56681">
        <ele>9.8</ele>
        <time>2023-06-10T13:33:49Z</time>
      </trkpt>
      <trkpt lat="50.33863" lon="1.56681">
        <ele>10</ele>
        <time>2023-06-10T13:33:51Z</time>
      </trkpt>
      <trkpt lat="50.33857" lon="1.56682">
        <ele>9.9</ele>
        <time>2023-06-10T13:33:53Z</time>
      </trkpt>
      <trkpt lat="50.3385" lon="1.56682">
        <ele>9.8</ele>
        <time>2023-06-10T13:33:55Z</time>
      </trkpt>
      <trkpt lat="50.33842" lon="1.5668">
        <ele>9.7</ele>
        <time>2023-06-10T13:33:57Z</time>
      </trkpt>
      <trkpt lat="50.33835" lon="1.56678">
        <ele>9.4</ele>
        <time>2023-06-10T13:33:59Z</time>
      </trkpt>
      <trkpt lat="50.33827" lon="1.56675">
        <ele>9.4</ele>
        <time>2023-06-10T13:34:01Z</time>
      </trkpt>
      <trkpt lat="50.33818" lon="1.5667">
        <ele>9.2</ele>
        <time>2023-06-10T13:34:03Z</time>
      </trkpt>
      <trkpt lat="50.3381" lon="1.56664">
        <ele>9.4</ele>
        <time>2023-06-10T13:34:05Z</time>
      </trkpt>
      <trkpt lat="50.33802" lon="1.5666">
        <ele>10.1</ele>
        <time>2023-06-10T13:34:07Z</time>
      </trkpt>
      <trkpt lat="50.33794" lon="1.56654">
        <ele>10.6</ele>
        <time>2023-06-10T13:34:09Z</time>
      </trkpt>
      <trkpt lat="50.33787" lon="1.56647">
        <ele>10.3</ele>
        <time>2023-06-10T13:34:11Z</time>
      </trkpt>
      <trkpt lat="50.33779" lon="1.5664">
        <ele>9.2</ele>
        <time>2023-06-10T13:34:13Z</time>
      </trkpt>
      <trkpt lat="50.33771" lon="1.56632">
        <ele>10.1</ele>
        <time>2023-06-10T13:34:15Z</time>
      </trkpt>
      <trkpt lat="50.33764" lon="1.56623">
        <ele>10.6</ele>
        <time>2023-06-10T13:34:17Z</time>
      </trkpt>
      <trkpt lat="50.33757" lon="1.56614">
        <ele>10.1</ele>
        <time>2023-06-10T13:34:19Z</time>
      </trkpt>
      <trkpt lat="50.3375" lon="1.56604">
        <ele>8.8</ele>
        <time>2023-06-10T13:34:21Z</time>
      </trkpt>
      <trkpt lat="50.33742" lon="1.56595">
        <ele>8.7</ele>
        <time>2023-06-10T13:34:23Z</time>
      </trkpt>
      <trkpt lat="50.33734" lon="1.56584">
        <ele>8.6</ele>
        <time>2023-06-10T13:34:25Z</time>
      </trkpt>
      <trkpt lat="50.33728" lon="1.56575">
        <ele>8.6</ele>
        <time>2023-06-10T13:34:27Z</time>
      </trkpt>
      <trkpt lat="50.3372" lon="1.56566">
        <ele>8.4</ele>
        <time>2023-06-10T13:34:29Z</time>
      </trkpt>
      <trkpt lat="50.33714" lon="1.56558">
        <ele>8.1</ele>
        <time>2023-06-10T13:34:31Z</time>
      </trkpt>
      <trkpt lat="50.33709" lon="1.5655">
        <ele>8</ele>
        <time>2023-06-10T13:34:33Z</time>
      </trkpt>
      <trkpt lat="50.33703" lon="1.56542">
        <ele>8.2</ele>
        <time>2023-06-10T13:34:35Z</time>
      </trkpt>
      <trkpt lat="50.33697" lon="1.56534">
        <ele>8.6</ele>
        <time>2023-06-10T13:34:37Z</time>
      </trkpt>
      <trkpt lat="50.33692" lon="1.56525">
        <ele>8.8</ele>
        <time>2023-06-10T13:34:39Z</time>
      </trkpt>
      <trkpt lat="50.33686" lon="1.56517">
        <ele>8.5</ele>
        <time>2023-06-10T13:34:41Z</time>
      </trkpt>
      <trkpt lat="50.33682" lon="1.56509">
        <ele>8.5</ele>
        <time>2023-06-10T13:34:43Z</time>
      </trkpt>
      <trkpt lat="50.33677" lon="1.56502">
        <ele>8.6</ele>
        <time>2023-06-10T13:34:45Z</time>
      </trkpt>
      <trkpt lat="50.33673" lon="1.56494">
        <ele>8.8</ele>
        <time>2023-06-10T13:34:47Z</time>
      </trkpt>
      <trkpt lat="50.33669" lon="1.56487">
        <ele>8.9</ele>
        <time>2023-06-10T13:34:49Z</time>
      </trkpt>
      <trkpt lat="50.33664" lon="1.56481">
        <ele>9</ele>
        <time>2023-06-10T13:34:51Z</time>
      </trkpt>
      <trkpt lat="50.3366" lon="1.56475">
        <ele>9</ele>
        <time>2023-06-10T13:34:53Z</time>
      </trkpt>
      <trkpt lat="50.33655" lon="1.56469">
        <ele>9</ele>
        <time>2023-06-10T13:34:55Z</time>
      </trkpt>
      <trkpt lat="50.3365" lon="1.56462">
        <ele>9.3</ele>
        <time>2023-06-10T13:34:57Z</time>
      </trkpt>
      <trkpt lat="50.33645" lon="1.56457">
        <ele>9.7</ele>
        <time>2023-06-10T13:34:59Z</time>
      </trkpt>
      <trkpt lat="50.3364" lon="1.56452">
        <ele>10.4</ele>
        <time>2023-06-10T13:35:01Z</time>
      </trkpt>
      <trkpt lat="50.33633" lon="1.56445">
        <ele>10.7</ele>
        <time>2023-06-10T13:35:03Z</time>
      </trkpt>
      <trkpt lat="50.33628" lon="1.5644">
        <ele>10.5</ele>
        <time>2023-06-10T13:35:05Z</time>
      </trkpt>
      <trkpt lat="50.33622" lon="1.56434">
        <ele>10.6</ele>
        <time>2023-06-10T13:35:07Z</time>
      </trkpt>
      <trkpt lat="50.33617" lon="1.5643">
        <ele>10.8</ele>
        <time>2023-06-10T13:35:09Z</time>
      </trkpt>
      <trkpt lat="50.33612" lon="1.56427">
        <ele>11.2</ele>
        <time>2023-06-10T13:35:11Z</time>
      </trkpt>
      <trkpt lat="50.33608" lon="1.56424">
        <ele>11.4</ele>
        <time>2023-06-10T13:35:13Z</time>
      </trkpt>
      <trkpt lat="50.33603" lon="1.56422">
        <ele>11.4</ele>
        <time>2023-06-10T13:35:15Z</time>
      </trkpt>
      <trkpt lat="50.33597" lon="1.56419">
        <ele>11.4</ele>
        <time>2023-06-10T13:35:17Z</time>
      </trkpt>
      <trkpt lat="50.3359" lon="1.56417">
        <ele>11.2</ele>
        <time>2023-06-10T13:35:19Z</time>
      </trkpt>
      <trkpt lat="50.33582" lon="1.56415">
        <ele>11.1</ele>
        <time>2023-06-10T13:35:21Z</time>
      </trkpt>
      <trkpt lat="50.33573" lon="1.56413">
        <ele>10.9</ele>
        <time>2023-06-10T13:35:23Z</time>
      </trkpt>
      <trkpt lat="50.33564" lon="1.56411">
        <ele>10.6</ele>
        <time>2023-06-10T13:35:25Z</time>
      </trkpt>
      <trkpt lat="50.33556" lon="1.56413">
        <ele>10.2</ele>
        <time>2023-06-10T13:35:27Z</time>
      </trkpt>
      <trkpt lat="50.33548" lon="1.56414">
        <ele>10.3</ele>
        <time>2023-06-10T13:35:29Z</time>
      </trkpt>
      <trkpt lat="50.33539" lon="1.56416">
        <ele>10.6</ele>
        <time>2023-06-10T13:35:31Z</time>
      </trkpt>
      <trkpt lat="50.33531" lon="1.56419">
        <ele>10.8</ele>
        <time>2023-06-10T13:35:33Z</time>
      </trkpt>
      <trkpt lat="50.33521" lon="1.56421">
        <ele>10.7</ele>
        <time>2023-06-10T13:35:35Z</time>
      </trkpt>
      <trkpt lat="50.33512" lon="1.56424">
        <ele>10.5</ele>
        <time>2023-06-10T13:35:37Z</time>
      </trkpt>
      <trkpt lat="50.33504" lon="1.56425">
        <ele>10.4</ele>
        <time>2023-06-10T13:35:39Z</time>
      </trkpt>
      <trkpt lat="50.33495" lon="1.56426">
        <ele>10.3</ele>
        <time>2023-06-10T13:35:41Z</time>
      </trkpt>
      <trkpt lat="50.33487" lon="1.56427">
        <ele>10.2</ele>
        <time>2023-06-10T13:35:43Z</time>
      </trkpt>
      <trkpt lat="50.3348" lon="1.56425">
        <ele>10.1</ele>
        <time>2023-06-10T13:35:45Z</time>
      </trkpt>
      <trkpt lat="50.33473" lon="1.56423">
        <ele>10</ele>
        <time>2023-06-10T13:35:47Z</time>
      </trkpt>
      <trkpt lat="50.33466" lon="1.56423">
        <ele>9.8</ele>
        <time>2023-06-10T13:35:49Z</time>
      </trkpt>
      <trkpt lat="50.33458" lon="1.56422">
        <ele>9.6</ele>
        <time>2023-06-10T13:35:51Z</time>
      </trkpt>
      <trkpt lat="50.33449" lon="1.56424">
        <ele>9.4</ele>
        <time>2023-06-10T13:35:53Z</time>
      </trkpt>
      <trkpt lat="50.33442" lon="1.56427">
        <ele>9.4</ele>
        <time>2023-06-10T13:35:55Z</time>
      </trkpt>
      <trkpt lat="50.33436" lon="1.56429">
        <ele>9.5</ele>
        <time>2023-06-10T13:35:57Z</time>
      </trkpt>
      <trkpt lat="50.33431" lon="1.56432">
        <ele>9.5</ele>
        <time>2023-06-10T13:35:59Z</time>
      </trkpt>
      <trkpt lat="50.33426" lon="1.56433">
        <ele>9.6</ele>
        <time>2023-06-10T13:36:01Z</time>
      </trkpt>
      <trkpt lat="50.33421" lon="1.56434">
        <ele>9.6</ele>
        <time>2023-06-10T13:36:03Z</time>
      </trkpt>
      <trkpt lat="50.33417" lon="1.56433">
        <ele>9.6</ele>
        <time>2023-06-10T13:36:05Z</time>
      </trkpt>
      <trkpt lat="50.33412" lon="1.56432">
        <ele>9.6</ele>
        <time>2023-06-10T13:36:07Z</time>
      </trkpt>
      <trkpt lat="50.33407" lon="1.5643">
        <ele>9.7</ele>
        <time>2023-06-10T13:36:09Z</time>
      </trkpt>
      <trkpt lat="50.33399" lon="1.56429">
        <ele>9.8</ele>
        <time>2023-06-10T13:36:13Z</time>
      </trkpt>
      <trkpt lat="50.33396" lon="1.56425">
        <ele>9.8</ele>
        <time>2023-06-10T13:36:21Z</time>
      </trkpt>
      <trkpt lat="50.33391" lon="1.5643">
        <ele>10</ele>
        <time>2023-06-10T13:37:43Z</time>
      </trkpt>
      <trkpt lat="50.33387" lon="1.56432">
        <ele>10</ele>
        <time>2023-06-10T13:37:45Z</time>
      </trkpt>
      <trkpt lat="50.33381" lon="1.56433">
        <ele>10</ele>
        <time>2023-06-10T13:37:47Z</time>
      </trkpt>
      <trkpt lat="50.33374" lon="1.56434">
        <ele>10</ele>
        <time>2023-06-10T13:37:49Z</time>
      </trkpt>
      <trkpt lat="50.33366" lon="1.56435">
        <ele>10</ele>
        <time>2023-06-10T13:37:51Z</time>
      </trkpt>
      <trkpt lat="50.33357" lon="1.56435">
        <ele>10</ele>
        <time>2023-06-10T13:37:53Z</time>
      </trkpt>
      <trkpt lat="50.33349" lon="1.56433">
        <ele>10</ele>
        <time>2023-06-10T13:37:55Z</time>
      </trkpt>
      <trkpt lat="50.33341" lon="1.56428">
        <ele>10</ele>
        <time>2023-06-10T13:37:57Z</time>
      </trkpt>
      <trkpt lat="50.33334" lon="1.56425">
        <ele>10</ele>
        <time>2023-06-10T13:37:59Z</time>
      </trkpt>
      <trkpt lat="50.33326" lon="1.56421">
        <ele>9.8</ele>
        <time>2023-06-10T13:38:01Z</time>
      </trkpt>
      <trkpt lat="50.33319" lon="1.56418">
        <ele>9.5</ele>
        <time>2023-06-10T13:38:03Z</time>
      </trkpt>
      <trkpt lat="50.33312" lon="1.56413">
        <ele>9.3</ele>
        <time>2023-06-10T13:38:05Z</time>
      </trkpt>
      <trkpt lat="50.33305" lon="1.56409">
        <ele>9.3</ele>
        <time>2023-06-10T13:38:07Z</time>
      </trkpt>
      <trkpt lat="50.33298" lon="1.56406">
        <ele>9.7</ele>
        <time>2023-06-10T13:38:09Z</time>
      </trkpt>
      <trkpt lat="50.33289" lon="1.56403">
        <ele>10.1</ele>
        <time>2023-06-10T13:38:11Z</time>
      </trkpt>
      <trkpt lat="50.33281" lon="1.564">
        <ele>10.3</ele>
        <time>2023-06-10T13:38:13Z</time>
      </trkpt>
      <trkpt lat="50.33274" lon="1.56397">
        <ele>10.3</ele>
        <time>2023-06-10T13:38:15Z</time>
      </trkpt>
      <trkpt lat="50.33266" lon="1.56397">
        <ele>10.2</ele>
        <time>2023-06-10T13:38:17Z</time>
      </trkpt>
      <trkpt lat="50.3326" lon="1.56396">
        <ele>10.1</ele>
        <time>2023-06-10T13:38:19Z</time>
      </trkpt>
      <trkpt lat="50.33253" lon="1.56394">
        <ele>10</ele>
        <time>2023-06-10T13:38:21Z</time>
      </trkpt>
      <trkpt lat="50.33246" lon="1.56394">
        <ele>10.1</ele>
        <time>2023-06-10T13:38:23Z</time>
      </trkpt>
      <trkpt lat="50.33239" lon="1.56395">
        <ele>10.2</ele>
        <time>2023-06-10T13:38:25Z</time>
      </trkpt>
      <trkpt lat="50.33232" lon="1.56397">
        <ele>10.3</ele>
        <time>2023-06-10T13:38:27Z</time>
      </trkpt>
      <trkpt lat="50.33225" lon="1.564">
        <ele>10.2</ele>
        <time>2023-06-10T13:38:29Z</time>
      </trkpt>
      <trkpt lat="50.33218" lon="1.56401">
        <ele>10.4</ele>
        <time>2023-06-10T13:38:31Z</time>
      </trkpt>
      <trkpt lat="50.3321" lon="1.56403">
        <ele>10.6</ele>
        <time>2023-06-10T13:38:33Z</time>
      </trkpt>
      <trkpt lat="50.33203" lon="1.56407">
        <ele>10.7</ele>
        <time>2023-06-10T13:38:35Z</time>
      </trkpt>
      <trkpt lat="50.33197" lon="1.5641">
        <ele>10.6</ele>
        <time>2023-06-10T13:38:37Z</time>
      </trkpt>
      <trkpt lat="50.33191" lon="1.56413">
        <ele>10.5</ele>
        <time>2023-06-10T13:38:39Z</time>
      </trkpt>
      <trkpt lat="50.33184" lon="1.56418">
        <ele>10.4</ele>
        <time>2023-06-10T13:38:41Z</time>
      </trkpt>
      <trkpt lat="50.33177" lon="1.56423">
        <ele>10.7</ele>
        <time>2023-06-10T13:38:43Z</time>
      </trkpt>
      <trkpt lat="50.33169" lon="1.56429">
        <ele>10.6</ele>
        <time>2023-06-10T13:38:45Z</time>
      </trkpt>
      <trkpt lat="50.33161" lon="1.56435">
        <ele>10.4</ele>
        <time>2023-06-10T13:38:47Z</time>
      </trkpt>
      <trkpt lat="50.33153" lon="1.56443">
        <ele>10.1</ele>
        <time>2023-06-10T13:38:49Z</time>
      </trkpt>
      <trkpt lat="50.33145" lon="1.5645">
        <ele>10</ele>
        <time>2023-06-10T13:38:51Z</time>
      </trkpt>
      <trkpt lat="50.33137" lon="1.56457">
        <ele>10</ele>
        <time>2023-06-10T13:38:53Z</time>
      </trkpt>
      <trkpt lat="50.3313" lon="1.56462">
        <ele>10</ele>
        <time>2023-06-10T13:38:55Z</time>
      </trkpt>
      <trkpt lat="50.33122" lon="1.56468">
        <ele>10</ele>
        <time>2023-06-10T13:38:57Z</time>
      </trkpt>
      <trkpt lat="50.33115" lon="1.56477">
        <ele>9.9</ele>
        <time>2023-06-10T13:38:59Z</time>
      </trkpt>
      <trkpt lat="50.33108" lon="1.56484">
        <ele>9.7</ele>
        <time>2023-06-10T13:39:01Z</time>
      </trkpt>
      <trkpt lat="50.33102" lon="1.5649">
        <ele>9.8</ele>
        <time>2023-06-10T13:39:03Z</time>
      </trkpt>
      <trkpt lat="50.33097" lon="1.56497">
        <ele>10</ele>
        <time>2023-06-10T13:39:05Z</time>
      </trkpt>
      <trkpt lat="50.33093" lon="1.56506">
        <ele>10.2</ele>
        <time>2023-06-10T13:39:07Z</time>
      </trkpt>
      <trkpt lat="50.33088" lon="1.56515">
        <ele>10.2</ele>
        <time>2023-06-10T13:39:09Z</time>
      </trkpt>
      <trkpt lat="50.33084" lon="1.56523">
        <ele>10.1</ele>
        <time>2023-06-10T13:39:11Z</time>
      </trkpt>
      <trkpt lat="50.3308" lon="1.5653">
        <ele>10</ele>
        <time>2023-06-10T13:39:13Z</time>
      </trkpt>
      <trkpt lat="50.33077" lon="1.56537">
        <ele>10</ele>
        <time>2023-06-10T13:39:15Z</time>
      </trkpt>
      <trkpt lat="50.33074" lon="1.56543">
        <ele>10</ele>
        <time>2023-06-10T13:39:17Z</time>
      </trkpt>
      <trkpt lat="50.3307" lon="1.56548">
        <ele>10</ele>
        <time>2023-06-10T13:39:55Z</time>
      </trkpt>
      <trkpt lat="50.33064" lon="1.56549">
        <ele>10</ele>
        <time>2023-06-10T13:40:01Z</time>
      </trkpt>
      <trkpt lat="50.33057" lon="1.56551">
        <ele>10</ele>
        <time>2023-06-10T13:40:05Z</time>
      </trkpt>
      <trkpt lat="50.33051" lon="1.56548">
        <ele>10.1</ele>
        <time>2023-06-10T13:40:09Z</time>
      </trkpt>
      <trkpt lat="50.33045" lon="1.56547">
        <ele>10.3</ele>
        <time>2023-06-10T13:40:13Z</time>
      </trkpt>
      <trkpt lat="50.33041" lon="1.56554">
        <ele>10.5</ele>
        <time>2023-06-10T13:40:19Z</time>
      </trkpt>
      <trkpt lat="50.33036" lon="1.5656">
        <ele>10.6</ele>
        <time>2023-06-10T13:40:25Z</time>
      </trkpt>
      <trkpt lat="50.33031" lon="1.56564">
        <ele>10.6</ele>
        <time>2023-06-10T13:40:29Z</time>
      </trkpt>
      <trkpt lat="50.33027" lon="1.56571">
        <ele>10.4</ele>
        <time>2023-06-10T13:40:33Z</time>
      </trkpt>
      <trkpt lat="50.33022" lon="1.5658">
        <ele>10.1</ele>
        <time>2023-06-10T13:40:37Z</time>
      </trkpt>
      <trkpt lat="50.33019" lon="1.56586">
        <ele>10</ele>
        <time>2023-06-10T13:40:39Z</time>
      </trkpt>
      <trkpt lat="50.33014" lon="1.56592">
        <ele>10.2</ele>
        <time>2023-06-10T13:40:41Z</time>
      </trkpt>
      <trkpt lat="50.33008" lon="1.56597">
        <ele>10.3</ele>
        <time>2023-06-10T13:40:43Z</time>
      </trkpt>
      <trkpt lat="50.33002" lon="1.56599">
        <ele>10.5</ele>
        <time>2023-06-10T13:40:45Z</time>
      </trkpt>
      <trkpt lat="50.32998" lon="1.566">
        <ele>10.6</ele>
        <time>2023-06-10T13:40:51Z</time>
      </trkpt>
      <trkpt lat="50.33003" lon="1.566">
        <ele>10.5</ele>
        <time>2023-06-10T13:41:13Z</time>
      </trkpt>
      <trkpt lat="50.33008" lon="1.56599">
        <ele>10.4</ele>
        <time>2023-06-10T13:41:17Z</time>
      </trkpt>
      <trkpt lat="50.33013" lon="1.56596">
        <ele>10.2</ele>
        <time>2023-06-10T13:41:21Z</time>
      </trkpt>
      <trkpt lat="50.33016" lon="1.56591">
        <ele>10.1</ele>
        <time>2023-06-10T13:41:25Z</time>
      </trkpt>
      <trkpt lat="50.3302" lon="1.56583">
        <ele>10</ele>
        <time>2023-06-10T13:41:31Z</time>
      </trkpt>
      <trkpt lat="50.33023" lon="1.56577">
        <ele>10.2</ele>
        <time>2023-06-10T13:41:35Z</time>
      </trkpt>
      <trkpt lat="50.33027" lon="1.5657">
        <ele>10.5</ele>
        <time>2023-06-10T13:41:39Z</time>
      </trkpt>
      <trkpt lat="50.33032" lon="1.56563">
        <ele>10.6</ele>
        <time>2023-06-10T13:41:45Z</time>
      </trkpt>
      <trkpt lat="50.33038" lon="1.5656">
        <ele>10.5</ele>
        <time>2023-06-10T13:41:49Z</time>
      </trkpt>
      <trkpt lat="50.33042" lon="1.56557">
        <ele>10.5</ele>
        <time>2023-06-10T13:41:51Z</time>
      </trkpt>
      <trkpt lat="50.33047" lon="1.56553">
        <ele>10.3</ele>
        <time>2023-06-10T13:41:53Z</time>
      </trkpt>
      <trkpt lat="50.33054" lon="1.5655">
        <ele>10.1</ele>
        <time>2023-06-10T13:41:55Z</time>
      </trkpt>
      <trkpt lat="50.3306" lon="1.56549">
        <ele>10</ele>
        <time>2023-06-10T13:41:57Z</time>
      </trkpt>
      <trkpt lat="50.33065" lon="1.56548">
        <ele>10</ele>
        <time>2023-06-10T13:41:59Z</time>
      </trkpt>
      <trkpt lat="50.3307" lon="1.56546">
        <ele>10</ele>
        <time>2023-06-10T13:42:01Z</time>
      </trkpt>
      <trkpt lat="50.33077" lon="1.56543">
        <ele>10</ele>
        <time>2023-06-10T13:42:05Z</time>
      </trkpt>
      <trkpt lat="50.33081" lon="1.56536">
        <ele>10</ele>
        <time>2023-06-10T13:42:09Z</time>
      </trkpt>
      <trkpt lat="50.33076" lon="1.56536">
        <ele>10</ele>
        <time>2023-06-10T13:42:13Z</time>
      </trkpt>
      <trkpt lat="50.33074" lon="1.56544">
        <ele>10</ele>
        <time>2023-06-10T13:42:17Z</time>
      </trkpt>
      <trkpt lat="50.33069" lon="1.5655">
        <ele>10</ele>
        <time>2023-06-10T13:42:23Z</time>
      </trkpt>
      <trkpt lat="50.3306" lon="1.56552">
        <ele>10</ele>
        <time>2023-06-10T13:42:27Z</time>
      </trkpt>
      <trkpt lat="50.33053" lon="1.56555">
        <ele>10.1</ele>
        <time>2023-06-10T13:42:29Z</time>
      </trkpt>
      <trkpt lat="50.33046" lon="1.56558">
        <ele>10.3</ele>
        <time>2023-06-10T13:42:31Z</time>
      </trkpt>
      <trkpt lat="50.33039" lon="1.56561">
        <ele>10.5</ele>
        <time>2023-06-10T13:42:33Z</time>
      </trkpt>
      <trkpt lat="50.33035" lon="1.56565">
        <ele>10.5</ele>
        <time>2023-06-10T13:42:35Z</time>
      </trkpt>
      <trkpt lat="50.3303" lon="1.56571">
        <ele>10.4</ele>
        <time>2023-06-10T13:42:37Z</time>
      </trkpt>
      <trkpt lat="50.33026" lon="1.56576">
        <ele>10.3</ele>
        <time>2023-06-10T13:42:39Z</time>
      </trkpt>
      <trkpt lat="50.33022" lon="1.56581">
        <ele>10.1</ele>
        <time>2023-06-10T13:42:41Z</time>
      </trkpt>
      <trkpt lat="50.33015" lon="1.5659">
        <ele>10.1</ele>
        <time>2023-06-10T13:42:45Z</time>
      </trkpt>
      <trkpt lat="50.33012" lon="1.56593">
        <ele>10.2</ele>
        <time>2023-06-10T13:42:47Z</time>
      </trkpt>
      <trkpt lat="50.33008" lon="1.56599">
        <ele>10.4</ele>
        <time>2023-06-10T13:44:01Z</time>
      </trkpt>
      <trkpt lat="50.33001" lon="1.56603">
        <ele>10.7</ele>
        <time>2023-06-10T13:44:07Z</time>
      </trkpt>
      <trkpt lat="50.32997" lon="1.56603">
        <ele>10.6</ele>
        <time>2023-06-10T13:44:09Z</time>
      </trkpt>
      <trkpt lat="50.32992" lon="1.56602">
        <ele>10.5</ele>
        <time>2023-06-10T13:44:11Z</time>
      </trkpt>
      <trkpt lat="50.32986" lon="1.56599">
        <ele>10.3</ele>
        <time>2023-06-10T13:44:13Z</time>
      </trkpt>
      <trkpt lat="50.32979" lon="1.56597">
        <ele>10.1</ele>
        <time>2023-06-10T13:44:15Z</time>
      </trkpt>
      <trkpt lat="50.32975" lon="1.56591">
        <ele>10</ele>
        <time>2023-06-10T13:44:17Z</time>
      </trkpt>
      <trkpt lat="50.32969" lon="1.56584">
        <ele>10.1</ele>
        <time>2023-06-10T13:44:19Z</time>
      </trkpt>
      <trkpt lat="50.32963" lon="1.56579">
        <ele>10.3</ele>
        <time>2023-06-10T13:44:21Z</time>
      </trkpt>
      <trkpt lat="50.32957" lon="1.56575">
        <ele>10.4</ele>
        <time>2023-06-10T13:44:23Z</time>
      </trkpt>
      <trkpt lat="50.32951" lon="1.56574">
        <ele>10.5</ele>
        <time>2023-06-10T13:44:25Z</time>
      </trkpt>
      <trkpt lat="50.32946" lon="1.56574">
        <ele>10.6</ele>
        <time>2023-06-10T13:44:27Z</time>
      </trkpt>
      <trkpt lat="50.3294" lon="1.56577">
        <ele>10.8</ele>
        <time>2023-06-10T13:44:31Z</time>
      </trkpt>
      <trkpt lat="50.32934" lon="1.56579">
        <ele>10.9</ele>
        <time>2023-06-10T13:44:35Z</time>
      </trkpt>
      <trkpt lat="50.32927" lon="1.56589">
        <ele>10.9</ele>
        <time>2023-06-10T13:44:39Z</time>
      </trkpt>
      <trkpt lat="50.32923" lon="1.56595">
        <ele>10.7</ele>
        <time>2023-06-10T13:44:41Z</time>
      </trkpt>
      <trkpt lat="50.32917" lon="1.56599">
        <ele>10.4</ele>
        <time>2023-06-10T13:44:43Z</time>
      </trkpt>
      <trkpt lat="50.32911" lon="1.566">
        <ele>10.3</ele>
        <time>2023-06-10T13:44:45Z</time>
      </trkpt>
      <trkpt lat="50.32904" lon="1.56602">
        <ele>10.2</ele>
        <time>2023-06-10T13:44:47Z</time>
      </trkpt>
      <trkpt lat="50.32897" lon="1.56604">
        <ele>10.1</ele>
        <time>2023-06-10T13:44:49Z</time>
      </trkpt>
      <trkpt lat="50.3289" lon="1.56607">
        <ele>10</ele>
        <time>2023-06-10T13:44:51Z</time>
      </trkpt>
      <trkpt lat="50.32884" lon="1.56613">
        <ele>10.1</ele>
        <time>2023-06-10T13:44:53Z</time>
      </trkpt>
      <trkpt lat="50.32879" lon="1.56617">
        <ele>10.2</ele>
        <time>2023-06-10T13:44:55Z</time>
      </trkpt>
      <trkpt lat="50.32871" lon="1.56622">
        <ele>10.4</ele>
        <time>2023-06-10T13:44:57Z</time>
      </trkpt>
      <trkpt lat="50.32863" lon="1.56627">
        <ele>10.6</ele>
        <time>2023-06-10T13:44:59Z</time>
      </trkpt>
      <trkpt lat="50.32856" lon="1.56632">
        <ele>10.8</ele>
        <time>2023-06-10T13:45:01Z</time>
      </trkpt>
      <trkpt lat="50.32849" lon="1.56637">
        <ele>11</ele>
        <time>2023-06-10T13:45:03Z</time>
      </trkpt>
      <trkpt lat="50.32847" lon="1.56646">
        <ele>10.7</ele>
        <time>2023-06-10T13:45:05Z</time>
      </trkpt>
      <trkpt lat="50.32846" lon="1.56653">
        <ele>10.5</ele>
        <time>2023-06-10T13:45:19Z</time>
      </trkpt>
      <trkpt lat="50.32842" lon="1.56661">
        <ele>10.2</ele>
        <time>2023-06-10T13:45:31Z</time>
      </trkpt>
      <trkpt lat="50.32837" lon="1.56661">
        <ele>10.2</ele>
        <time>2023-06-10T13:45:33Z</time>
      </trkpt>
      <trkpt lat="50.32831" lon="1.56663">
        <ele>10.1</ele>
        <time>2023-06-10T13:45:35Z</time>
      </trkpt>
      <trkpt lat="50.32825" lon="1.56665">
        <ele>10</ele>
        <time>2023-06-10T13:45:37Z</time>
      </trkpt>
      <trkpt lat="50.3282" lon="1.56668">
        <ele>10</ele>
        <time>2023-06-10T13:45:39Z</time>
      </trkpt>
      <trkpt lat="50.32814" lon="1.56673">
        <ele>10.1</ele>
        <time>2023-06-10T13:45:41Z</time>
      </trkpt>
      <trkpt lat="50.32808" lon="1.56678">
        <ele>10</ele>
        <time>2023-06-10T13:45:43Z</time>
      </trkpt>
      <trkpt lat="50.32801" lon="1.56684">
        <ele>10.4</ele>
        <time>2023-06-10T13:45:45Z</time>
      </trkpt>
      <trkpt lat="50.32795" lon="1.56693">
        <ele>10.8</ele>
        <time>2023-06-10T13:45:47Z</time>
      </trkpt>
      <trkpt lat="50.32789" lon="1.56701">
        <ele>11.1</ele>
        <time>2023-06-10T13:45:49Z</time>
      </trkpt>
      <trkpt lat="50.32783" lon="1.56706">
        <ele>11.4</ele>
        <time>2023-06-10T13:45:51Z</time>
      </trkpt>
      <trkpt lat="50.32776" lon="1.56707">
        <ele>11.5</ele>
        <time>2023-06-10T13:45:53Z</time>
      </trkpt>
      <trkpt lat="50.3277" lon="1.56707">
        <ele>11.3</ele>
        <time>2023-06-10T13:45:55Z</time>
      </trkpt>
      <trkpt lat="50.32763" lon="1.56709">
        <ele>10.9</ele>
        <time>2023-06-10T13:45:57Z</time>
      </trkpt>
      <trkpt lat="50.32757" lon="1.56714">
        <ele>10.5</ele>
        <time>2023-06-10T13:45:59Z</time>
      </trkpt>
      <trkpt lat="50.32752" lon="1.56722">
        <ele>10.1</ele>
        <time>2023-06-10T13:46:01Z</time>
      </trkpt>
      <trkpt lat="50.3275" lon="1.56732">
        <ele>10</ele>
        <time>2023-06-10T13:46:03Z</time>
      </trkpt>
      <trkpt lat="50.3275" lon="1.56743">
        <ele>10</ele>
        <time>2023-06-10T13:46:05Z</time>
      </trkpt>
      <trkpt lat="50.32749" lon="1.56755">
        <ele>9.8</ele>
        <time>2023-06-10T13:46:07Z</time>
      </trkpt>
      <trkpt lat="50.32744" lon="1.56767">
        <ele>9.5</ele>
        <time>2023-06-10T13:46:09Z</time>
      </trkpt>
      <trkpt lat="50.32738" lon="1.56777">
        <ele>9.4</ele>
        <time>2023-06-10T13:46:11Z</time>
      </trkpt>
      <trkpt lat="50.32733" lon="1.56787">
        <ele>9.7</ele>
        <time>2023-06-10T13:46:13Z</time>
      </trkpt>
      <trkpt lat="50.32729" lon="1.56797">
        <ele>9.9</ele>
        <time>2023-06-10T13:46:15Z</time>
      </trkpt>
      <trkpt lat="50.32724" lon="1.56808">
        <ele>10.1</ele>
        <time>2023-06-10T13:46:17Z</time>
      </trkpt>
      <trkpt lat="50.32723" lon="1.56817">
        <ele>10.4</ele>
        <time>2023-06-10T13:46:21Z</time>
      </trkpt>
      <trkpt lat="50.32726" lon="1.5681">
        <ele>10.2</ele>
        <time>2023-06-10T13:46:25Z</time>
      </trkpt>
      <trkpt lat="50.32731" lon="1.5681">
        <ele>10.2</ele>
        <time>2023-06-10T13:46:29Z</time>
      </trkpt>
      <trkpt lat="50.32736" lon="1.56813">
        <ele>10.4</ele>
        <time>2023-06-10T13:46:31Z</time>
      </trkpt>
      <trkpt lat="50.32742" lon="1.56813">
        <ele>10.5</ele>
        <time>2023-06-10T13:46:33Z</time>
      </trkpt>
      <trkpt lat="50.32747" lon="1.56814">
        <ele>10.6</ele>
        <time>2023-06-10T13:46:35Z</time>
      </trkpt>
      <trkpt lat="50.32752" lon="1.56816">
        <ele>10.7</ele>
        <time>2023-06-10T13:46:37Z</time>
      </trkpt>
      <trkpt lat="50.32758" lon="1.5682">
        <ele>10.7</ele>
        <time>2023-06-10T13:46:39Z</time>
      </trkpt>
      <trkpt lat="50.32762" lon="1.56825">
        <ele>10.8</ele>
        <time>2023-06-10T13:46:41Z</time>
      </trkpt>
      <trkpt lat="50.32765" lon="1.56832">
        <ele>10.9</ele>
        <time>2023-06-10T13:46:43Z</time>
      </trkpt>
      <trkpt lat="50.32766" lon="1.56841">
        <ele>10.6</ele>
        <time>2023-06-10T13:46:45Z</time>
      </trkpt>
      <trkpt lat="50.32767" lon="1.5685">
        <ele>10.3</ele>
        <time>2023-06-10T13:46:47Z</time>
      </trkpt>
      <trkpt lat="50.32766" lon="1.56858">
        <ele>10.1</ele>
        <time>2023-06-10T13:46:49Z</time>
      </trkpt>
      <trkpt lat="50.32765" lon="1.56867">
        <ele>10.2</ele>
        <time>2023-06-10T13:46:51Z</time>
      </trkpt>
      <trkpt lat="50.32765" lon="1.56877">
        <ele>10.6</ele>
        <time>2023-06-10T13:46:55Z</time>
      </trkpt>
      <trkpt lat="50.32764" lon="1.56868">
        <ele>10.2</ele>
        <time>2023-06-10T13:47:07Z</time>
      </trkpt>
      <trkpt lat="50.32766" lon="1.56856">
        <ele>10.2</ele>
        <time>2023-06-10T13:47:11Z</time>
      </trkpt>
      <trkpt lat="50.32764" lon="1.56846">
        <ele>10.5</ele>
        <time>2023-06-10T13:47:13Z</time>
      </trkpt>
      <trkpt lat="50.32763" lon="1.56835">
        <ele>11</ele>
        <time>2023-06-10T13:47:15Z</time>
      </trkpt>
      <trkpt lat="50.3276" lon="1.56824">
        <ele>10.8</ele>
        <time>2023-06-10T13:47:17Z</time>
      </trkpt>
      <trkpt lat="50.32754" lon="1.56817">
        <ele>10.7</ele>
        <time>2023-06-10T13:47:19Z</time>
      </trkpt>
      <trkpt lat="50.32748" lon="1.56815">
        <ele>10.6</ele>
        <time>2023-06-10T13:47:21Z</time>
      </trkpt>
      <trkpt lat="50.32742" lon="1.56814">
        <ele>10.6</ele>
        <time>2023-06-10T13:47:23Z</time>
      </trkpt>
      <trkpt lat="50.32737" lon="1.56814">
        <ele>10.5</ele>
        <time>2023-06-10T13:47:25Z</time>
      </trkpt>
      <trkpt lat="50.32733" lon="1.56811">
        <ele>10.2</ele>
        <time>2023-06-10T13:47:27Z</time>
      </trkpt>
      <trkpt lat="50.32731" lon="1.56802">
        <ele>10</ele>
        <time>2023-06-10T13:47:29Z</time>
      </trkpt>
      <trkpt lat="50.32733" lon="1.56793">
        <ele>9.8</ele>
        <time>2023-06-10T13:47:31Z</time>
      </trkpt>
      <trkpt lat="50.32737" lon="1.56786">
        <ele>9.6</ele>
        <time>2023-06-10T13:47:33Z</time>
      </trkpt>
      <trkpt lat="50.32741" lon="1.56779">
        <ele>9.3</ele>
        <time>2023-06-10T13:47:35Z</time>
      </trkpt>
      <trkpt lat="50.32745" lon="1.56773">
        <ele>9.3</ele>
        <time>2023-06-10T13:47:37Z</time>
      </trkpt>
      <trkpt lat="50.32749" lon="1.56769">
        <ele>9.3</ele>
        <time>2023-06-10T13:47:39Z</time>
      </trkpt>
      <trkpt lat="50.32758" lon="1.56768">
        <ele>9.5</ele>
        <time>2023-06-10T13:47:43Z</time>
      </trkpt>
      <trkpt lat="50.32763" lon="1.56773">
        <ele>9.6</ele>
        <time>2023-06-10T13:47:45Z</time>
      </trkpt>
      <trkpt lat="50.32767" lon="1.5678">
        <ele>9.6</ele>
        <time>2023-06-10T13:47:47Z</time>
      </trkpt>
      <trkpt lat="50.3277" lon="1.56788">
        <ele>9.8</ele>
        <time>2023-06-10T13:47:49Z</time>
      </trkpt>
      <trkpt lat="50.32772" lon="1.56797">
        <ele>9.9</ele>
        <time>2023-06-10T13:47:51Z</time>
      </trkpt>
      <trkpt lat="50.32774" lon="1.56806">
        <ele>10</ele>
        <time>2023-06-10T13:47:53Z</time>
      </trkpt>
      <trkpt lat="50.32776" lon="1.56814">
        <ele>10</ele>
        <time>2023-06-10T13:47:55Z</time>
      </trkpt>
      <trkpt lat="50.32778" lon="1.56821">
        <ele>10</ele>
        <time>2023-06-10T13:47:57Z</time>
      </trkpt>
      <trkpt lat="50.32779" lon="1.56828">
        <ele>10</ele>
        <time>2023-06-10T13:47:59Z</time>
      </trkpt>
      <trkpt lat="50.3278" lon="1.56835">
        <ele>10</ele>
        <time>2023-06-10T13:48:01Z</time>
      </trkpt>
      <trkpt lat="50.32782" lon="1.56848">
        <ele>10.1</ele>
        <time>2023-06-10T13:48:05Z</time>
      </trkpt>
      <trkpt lat="50.32783" lon="1.56859">
        <ele>10.2</ele>
        <time>2023-06-10T13:48:09Z</time>
      </trkpt>
      <trkpt lat="50.32787" lon="1.56854">
        <ele>10.3</ele>
        <time>2023-06-10T13:48:15Z</time>
      </trkpt>
      <trkpt lat="50.32786" lon="1.56846">
        <ele>10.1</ele>
        <time>2023-06-10T13:48:17Z</time>
      </trkpt>
      <trkpt lat="50.32785" lon="1.56837">
        <ele>10</ele>
        <time>2023-06-10T13:48:19Z</time>
      </trkpt>
      <trkpt lat="50.32784" lon="1.56829">
        <ele>10</ele>
        <time>2023-06-10T13:48:21Z</time>
      </trkpt>
      <trkpt lat="50.32783" lon="1.56821">
        <ele>10</ele>
        <time>2023-06-10T13:48:23Z</time>
      </trkpt>
      <trkpt lat="50.32782" lon="1.56812">
        <ele>10</ele>
        <time>2023-06-10T13:48:25Z</time>
      </trkpt>
      <trkpt lat="50.32781" lon="1.56804">
        <ele>10</ele>
        <time>2023-06-10T13:48:27Z</time>
      </trkpt>
      <trkpt lat="50.3278" lon="1.56791">
        <ele>10</ele>
        <time>2023-06-10T13:48:31Z</time>
      </trkpt>
      <trkpt lat="50.3278" lon="1.56781">
        <ele>9.9</ele>
        <time>2023-06-10T13:48:45Z</time>
      </trkpt>
      <trkpt lat="50.32782" lon="1.56772">
        <ele>9.9</ele>
        <time>2023-06-10T13:48:49Z</time>
      </trkpt>
      <trkpt lat="50.32787" lon="1.56761">
        <ele>9.9</ele>
        <time>2023-06-10T13:48:53Z</time>
      </trkpt>
      <trkpt lat="50.32789" lon="1.56753">
        <ele>10</ele>
        <time>2023-06-10T13:48:55Z</time>
      </trkpt>
      <trkpt lat="50.32791" lon="1.56745">
        <ele>10.2</ele>
        <time>2023-06-10T13:48:57Z</time>
      </trkpt>
      <trkpt lat="50.32792" lon="1.56738">
        <ele>10.4</ele>
        <time>2023-06-10T13:48:59Z</time>
      </trkpt>
      <trkpt lat="50.32791" lon="1.5673">
        <ele>10.7</ele>
        <time>2023-06-10T13:49:01Z</time>
      </trkpt>
      <trkpt lat="50.32789" lon="1.56723">
        <ele>11</ele>
        <time>2023-06-10T13:49:03Z</time>
      </trkpt>
      <trkpt lat="50.32786" lon="1.56717">
        <ele>11.1</ele>
        <time>2023-06-10T13:49:05Z</time>
      </trkpt>
      <trkpt lat="50.32781" lon="1.56712">
        <ele>11.3</ele>
        <time>2023-06-10T13:49:07Z</time>
      </trkpt>
      <trkpt lat="50.32777" lon="1.56709">
        <ele>11.4</ele>
        <time>2023-06-10T13:49:09Z</time>
      </trkpt>
      <trkpt lat="50.32772" lon="1.56706">
        <ele>11.4</ele>
        <time>2023-06-10T13:49:11Z</time>
      </trkpt>
      <trkpt lat="50.32767" lon="1.56702">
        <ele>11.3</ele>
        <time>2023-06-10T13:49:13Z</time>
      </trkpt>
      <trkpt lat="50.32761" lon="1.56696">
        <ele>11.3</ele>
        <time>2023-06-10T13:49:15Z</time>
      </trkpt>
      <trkpt lat="50.32757" lon="1.56687">
        <ele>11.2</ele>
        <time>2023-06-10T13:49:17Z</time>
      </trkpt>
      <trkpt lat="50.32755" lon="1.56677">
        <ele>10.9</ele>
        <time>2023-06-10T13:49:19Z</time>
      </trkpt>
      <trkpt lat="50.32753" lon="1.56666">
        <ele>10.4</ele>
        <time>2023-06-10T13:49:21Z</time>
      </trkpt>
      <trkpt lat="50.32751" lon="1.56655">
        <ele>10.5</ele>
        <time>2023-06-10T13:49:23Z</time>
      </trkpt>
      <trkpt lat="50.32751" lon="1.56644">
        <ele>10.8</ele>
        <time>2023-06-10T13:49:25Z</time>
      </trkpt>
      <trkpt lat="50.32751" lon="1.56637">
        <ele>11</ele>
        <time>2023-06-10T13:49:27Z</time>
      </trkpt>
      <trkpt lat="50.3275" lon="1.56629">
        <ele>11</ele>
        <time>2023-06-10T13:49:29Z</time>
      </trkpt>
      <trkpt lat="50.32749" lon="1.56621">
        <ele>10.9</ele>
        <time>2023-06-10T13:49:31Z</time>
      </trkpt>
      <trkpt lat="50.32747" lon="1.56613">
        <ele>10.9</ele>
        <time>2023-06-10T13:49:33Z</time>
      </trkpt>
      <trkpt lat="50.32747" lon="1.56605">
        <ele>10.9</ele>
        <time>2023-06-10T13:49:35Z</time>
      </trkpt>
      <trkpt lat="50.32747" lon="1.56597">
        <ele>10.9</ele>
        <time>2023-06-10T13:49:37Z</time>
      </trkpt>
      <trkpt lat="50.32746" lon="1.56588">
        <ele>11</ele>
        <time>2023-06-10T13:49:39Z</time>
      </trkpt>
      <trkpt lat="50.32745" lon="1.5658">
        <ele>11.1</ele>
        <time>2023-06-10T13:49:41Z</time>
      </trkpt>
      <trkpt lat="50.32741" lon="1.5657">
        <ele>11.3</ele>
        <time>2023-06-10T13:49:43Z</time>
      </trkpt>
      <trkpt lat="50.32738" lon="1.56558">
        <ele>11.5</ele>
        <time>2023-06-10T13:49:45Z</time>
      </trkpt>
      <trkpt lat="50.32736" lon="1.56546">
        <ele>11.3</ele>
        <time>2023-06-10T13:49:47Z</time>
      </trkpt>
      <trkpt lat="50.32734" lon="1.56534">
        <ele>11</ele>
        <time>2023-06-10T13:49:49Z</time>
      </trkpt>
      <trkpt lat="50.32732" lon="1.56521">
        <ele>11</ele>
        <time>2023-06-10T13:49:51Z</time>
      </trkpt>
      <trkpt lat="50.3273" lon="1.56509">
        <ele>11.3</ele>
        <time>2023-06-10T13:49:53Z</time>
      </trkpt>
      <trkpt lat="50.32728" lon="1.56496">
        <ele>11.4</ele>
        <time>2023-06-10T13:49:55Z</time>
      </trkpt>
      <trkpt lat="50.32725" lon="1.56483">
        <ele>11.3</ele>
        <time>2023-06-10T13:49:57Z</time>
      </trkpt>
      <trkpt lat="50.32723" lon="1.5647">
        <ele>11.1</ele>
        <time>2023-06-10T13:49:59Z</time>
      </trkpt>
      <trkpt lat="50.3272" lon="1.56459">
        <ele>11.3</ele>
        <time>2023-06-10T13:50:01Z</time>
      </trkpt>
      <trkpt lat="50.32719" lon="1.56446">
        <ele>11.7</ele>
        <time>2023-06-10T13:50:03Z</time>
      </trkpt>
      <trkpt lat="50.32716" lon="1.56433">
        <ele>12.1</ele>
        <time>2023-06-10T13:50:05Z</time>
      </trkpt>
      <trkpt lat="50.32714" lon="1.56421">
        <ele>12.8</ele>
        <time>2023-06-10T13:50:07Z</time>
      </trkpt>
      <trkpt lat="50.32711" lon="1.56408">
        <ele>13.2</ele>
        <time>2023-06-10T13:50:09Z</time>
      </trkpt>
      <trkpt lat="50.32709" lon="1.56395">
        <ele>13.4</ele>
        <time>2023-06-10T13:50:11Z</time>
      </trkpt>
      <trkpt lat="50.32708" lon="1.56384">
        <ele>13.4</ele>
        <time>2023-06-10T13:50:13Z</time>
      </trkpt>
      <trkpt lat="50.32706" lon="1.56373">
        <ele>13.2</ele>
        <time>2023-06-10T13:50:15Z</time>
      </trkpt>
      <trkpt lat="50.32704" lon="1.5636">
        <ele>12.7</ele>
        <time>2023-06-10T13:50:17Z</time>
      </trkpt>
      <trkpt lat="50.32702" lon="1.56346">
        <ele>12</ele>
        <time>2023-06-10T13:50:19Z</time>
      </trkpt>
      <trkpt lat="50.327" lon="1.56334">
        <ele>11.6</ele>
        <time>2023-06-10T13:50:21Z</time>
      </trkpt>
      <trkpt lat="50.32697" lon="1.56322">
        <ele>11.7</ele>
        <time>2023-06-10T13:50:23Z</time>
      </trkpt>
      <trkpt lat="50.32695" lon="1.56311">
        <ele>11.9</ele>
        <time>2023-06-10T13:50:25Z</time>
      </trkpt>
      <trkpt lat="50.32693" lon="1.563">
        <ele>12.1</ele>
        <time>2023-06-10T13:50:27Z</time>
      </trkpt>
      <trkpt lat="50.32691" lon="1.56289">
        <ele>12.3</ele>
        <time>2023-06-10T13:50:29Z</time>
      </trkpt>
      <trkpt lat="50.32689" lon="1.56279">
        <ele>12.4</ele>
        <time>2023-06-10T13:50:31Z</time>
      </trkpt>
      <trkpt lat="50.32689" lon="1.56269">
        <ele>12.4</ele>
        <time>2023-06-10T13:50:33Z</time>
      </trkpt>
      <trkpt lat="50.32687" lon="1.56259">
        <ele>12.4</ele>
        <time>2023-06-10T13:50:35Z</time>
      </trkpt>
      <trkpt lat="50.32687" lon="1.56247">
        <ele>12.4</ele>
        <time>2023-06-10T13:50:37Z</time>
      </trkpt>
      <trkpt lat="50.32687" lon="1.56234">
        <ele>12.2</ele>
        <time>2023-06-10T13:50:39Z</time>
      </trkpt>
      <trkpt lat="50.32686" lon="1.56221">
        <ele>12</ele>
        <time>2023-06-10T13:50:41Z</time>
      </trkpt>
      <trkpt lat="50.32686" lon="1.56207">
        <ele>12</ele>
        <time>2023-06-10T13:50:43Z</time>
      </trkpt>
      <trkpt lat="50.32686" lon="1.56195">
        <ele>12</ele>
        <time>2023-06-10T13:50:45Z</time>
      </trkpt>
      <trkpt lat="50.32687" lon="1.56181">
        <ele>12.1</ele>
        <time>2023-06-10T13:50:47Z</time>
      </trkpt>
      <trkpt lat="50.32688" lon="1.56168">
        <ele>12.2</ele>
        <time>2023-06-10T13:50:49Z</time>
      </trkpt>
      <trkpt lat="50.32688" lon="1.56156">
        <ele>12.2</ele>
        <time>2023-06-10T13:50:51Z</time>
      </trkpt>
      <trkpt lat="50.3269" lon="1.56144">
        <ele>12.2</ele>
        <time>2023-06-10T13:50:53Z</time>
      </trkpt>
      <trkpt lat="50.32691" lon="1.56132">
        <ele>12</ele>
        <time>2023-06-10T13:50:55Z</time>
      </trkpt>
      <trkpt lat="50.32691" lon="1.56119">
        <ele>11.6</ele>
        <time>2023-06-10T13:50:57Z</time>
      </trkpt>
      <trkpt lat="50.32695" lon="1.56108">
        <ele>10.9</ele>
        <time>2023-06-10T13:50:59Z</time>
      </trkpt>
      <trkpt lat="50.32699" lon="1.561">
        <ele>10.7</ele>
        <time>2023-06-10T13:51:01Z</time>
      </trkpt>
      <trkpt lat="50.32701" lon="1.56087">
        <ele>10.2</ele>
        <time>2023-06-10T13:51:03Z</time>
      </trkpt>
      <trkpt lat="50.32702" lon="1.56072">
        <ele>9.7</ele>
        <time>2023-06-10T13:51:05Z</time>
      </trkpt>
      <trkpt lat="50.32703" lon="1.56056">
        <ele>9.3</ele>
        <time>2023-06-10T13:51:07Z</time>
      </trkpt>
      <trkpt lat="50.32701" lon="1.5604">
        <ele>9</ele>
        <time>2023-06-10T13:51:09Z</time>
      </trkpt>
      <trkpt lat="50.32699" lon="1.56027">
        <ele>8.9</ele>
        <time>2023-06-10T13:51:11Z</time>
      </trkpt>
      <trkpt lat="50.32701" lon="1.56014">
        <ele>9</ele>
        <time>2023-06-10T13:51:13Z</time>
      </trkpt>
      <trkpt lat="50.32702" lon="1.56">
        <ele>9.1</ele>
        <time>2023-06-10T13:51:15Z</time>
      </trkpt>
      <trkpt lat="50.32702" lon="1.55986">
        <ele>9.3</ele>
        <time>2023-06-10T13:51:17Z</time>
      </trkpt>
      <trkpt lat="50.32703" lon="1.55975">
        <ele>9.4</ele>
        <time>2023-06-10T13:51:19Z</time>
      </trkpt>
      <trkpt lat="50.32705" lon="1.55965">
        <ele>9.3</ele>
        <time>2023-06-10T13:51:21Z</time>
      </trkpt>
      <trkpt lat="50.3271" lon="1.55957">
        <ele>9.2</ele>
        <time>2023-06-10T13:51:23Z</time>
      </trkpt>
      <trkpt lat="50.32716" lon="1.55948">
        <ele>9.1</ele>
        <time>2023-06-10T13:51:25Z</time>
      </trkpt>
      <trkpt lat="50.3272" lon="1.55936">
        <ele>9.4</ele>
        <time>2023-06-10T13:51:27Z</time>
      </trkpt>
      <trkpt lat="50.32722" lon="1.55926">
        <ele>9.7</ele>
        <time>2023-06-10T13:51:29Z</time>
      </trkpt>
      <trkpt lat="50.32724" lon="1.55917">
        <ele>10.2</ele>
        <time>2023-06-10T13:51:31Z</time>
      </trkpt>
      <trkpt lat="50.32723" lon="1.55908">
        <ele>11.1</ele>
        <time>2023-06-10T13:51:33Z</time>
      </trkpt>
      <trkpt lat="50.32721" lon="1.559">
        <ele>11.7</ele>
        <time>2023-06-10T13:51:35Z</time>
      </trkpt>
      <trkpt lat="50.32718" lon="1.55893">
        <ele>12.2</ele>
        <time>2023-06-10T13:51:37Z</time>
      </trkpt>
      <trkpt lat="50.32715" lon="1.55881">
        <ele>12.4</ele>
        <time>2023-06-10T13:51:41Z</time>
      </trkpt>
      <trkpt lat="50.32712" lon="1.55869">
        <ele>12.1</ele>
        <time>2023-06-10T13:51:45Z</time>
      </trkpt>
      <trkpt lat="50.3271" lon="1.55861">
        <ele>11.9</ele>
        <time>2023-06-10T13:51:47Z</time>
      </trkpt>
      <trkpt lat="50.32709" lon="1.55855">
        <ele>12</ele>
        <time>2023-06-10T13:51:49Z</time>
      </trkpt>
      <trkpt lat="50.32706" lon="1.55846">
        <ele>12.2</ele>
        <time>2023-06-10T13:51:51Z</time>
      </trkpt>
      <trkpt lat="50.32703" lon="1.55837">
        <ele>12.6</ele>
        <time>2023-06-10T13:51:53Z</time>
      </trkpt>
      <trkpt lat="50.32701" lon="1.55826">
        <ele>12.8</ele>
        <time>2023-06-10T13:51:55Z</time>
      </trkpt>
      <trkpt lat="50.32699" lon="1.55814">
        <ele>12.9</ele>
        <time>2023-06-10T13:51:57Z</time>
      </trkpt>
      <trkpt lat="50.32699" lon="1.55802">
        <ele>13.3</ele>
        <time>2023-06-10T13:51:59Z</time>
      </trkpt>
      <trkpt lat="50.327" lon="1.55791">
        <ele>13.7</ele>
        <time>2023-06-10T13:52:01Z</time>
      </trkpt>
      <trkpt lat="50.32698" lon="1.55782">
        <ele>14</ele>
        <time>2023-06-10T13:52:03Z</time>
      </trkpt>
      <trkpt lat="50.32698" lon="1.55771">
        <ele>14.1</ele>
        <time>2023-06-10T13:52:05Z</time>
      </trkpt>
      <trkpt lat="50.32696" lon="1.5576">
        <ele>14</ele>
        <time>2023-06-10T13:52:07Z</time>
      </trkpt>
      <trkpt lat="50.32695" lon="1.55748">
        <ele>13.9</ele>
        <time>2023-06-10T13:52:09Z</time>
      </trkpt>
      <trkpt lat="50.32694" lon="1.55736">
        <ele>13.5</ele>
        <time>2023-06-10T13:52:11Z</time>
      </trkpt>
      <trkpt lat="50.32692" lon="1.55723">
        <ele>12.8</ele>
        <time>2023-06-10T13:52:13Z</time>
      </trkpt>
      <trkpt lat="50.3269" lon="1.5571">
        <ele>12.6</ele>
        <time>2023-06-10T13:52:15Z</time>
      </trkpt>
      <trkpt lat="50.32684" lon="1.557">
        <ele>12.2</ele>
        <time>2023-06-10T13:52:17Z</time>
      </trkpt>
      <trkpt lat="50.32678" lon="1.55691">
        <ele>11.9</ele>
        <time>2023-06-10T13:52:19Z</time>
      </trkpt>
      <trkpt lat="50.3267" lon="1.55683">
        <ele>11.6</ele>
        <time>2023-06-10T13:52:21Z</time>
      </trkpt>
      <trkpt lat="50.32659" lon="1.55673">
        <ele>11.6</ele>
        <time>2023-06-10T13:52:23Z</time>
      </trkpt>
      <trkpt lat="50.32651" lon="1.55657">
        <ele>11.2</ele>
        <time>2023-06-10T13:52:25Z</time>
      </trkpt>
      <trkpt lat="50.32643" lon="1.55641">
        <ele>10.4</ele>
        <time>2023-06-10T13:52:27Z</time>
      </trkpt>
      <trkpt lat="50.32634" lon="1.55627">
        <ele>11.1</ele>
        <time>2023-06-10T13:52:29Z</time>
      </trkpt>
      <trkpt lat="50.32627" lon="1.55613">
        <ele>11.6</ele>
        <time>2023-06-10T13:52:31Z</time>
      </trkpt>
      <trkpt lat="50.32622" lon="1.55599">
        <ele>11.3</ele>
        <time>2023-06-10T13:52:33Z</time>
      </trkpt>
      <trkpt lat="50.3262" lon="1.55582">
        <ele>11.5</ele>
        <time>2023-06-10T13:52:35Z</time>
      </trkpt>
      <trkpt lat="50.32617" lon="1.55564">
        <ele>10.2</ele>
        <time>2023-06-10T13:52:37Z</time>
      </trkpt>
      <trkpt lat="50.32616" lon="1.55547">
        <ele>9.5</ele>
        <time>2023-06-10T13:52:39Z</time>
      </trkpt>
      <trkpt lat="50.32613" lon="1.55531">
        <ele>9.2</ele>
        <time>2023-06-10T13:52:41Z</time>
      </trkpt>
      <trkpt lat="50.3261" lon="1.55513">
        <ele>9</ele>
        <time>2023-06-10T13:52:43Z</time>
      </trkpt>
      <trkpt lat="50.32608" lon="1.55499">
        <ele>9</ele>
        <time>2023-06-10T13:52:45Z</time>
      </trkpt>
      <trkpt lat="50.32605" lon="1.55485">
        <ele>9.4</ele>
        <time>2023-06-10T13:52:47Z</time>
      </trkpt>
      <trkpt lat="50.32603" lon="1.55473">
        <ele>9.7</ele>
        <time>2023-06-10T13:52:49Z</time>
      </trkpt>
      <trkpt lat="50.32604" lon="1.5546">
        <ele>10.7</ele>
        <time>2023-06-10T13:52:51Z</time>
      </trkpt>
      <trkpt lat="50.32604" lon="1.55449">
        <ele>11.6</ele>
        <time>2023-06-10T13:52:53Z</time>
      </trkpt>
      <trkpt lat="50.326" lon="1.55437">
        <ele>12.2</ele>
        <time>2023-06-10T13:52:55Z</time>
      </trkpt>
      <trkpt lat="50.32595" lon="1.55427">
        <ele>12.1</ele>
        <time>2023-06-10T13:52:57Z</time>
      </trkpt>
      <trkpt lat="50.32589" lon="1.55418">
        <ele>10.9</ele>
        <time>2023-06-10T13:52:59Z</time>
      </trkpt>
      <trkpt lat="50.32584" lon="1.55409">
        <ele>9.8</ele>
        <time>2023-06-10T13:53:01Z</time>
      </trkpt>
      <trkpt lat="50.3258" lon="1.55398">
        <ele>10</ele>
        <time>2023-06-10T13:53:03Z</time>
      </trkpt>
      <trkpt lat="50.32575" lon="1.5539">
        <ele>10.3</ele>
        <time>2023-06-10T13:53:05Z</time>
      </trkpt>
      <trkpt lat="50.32568" lon="1.55384">
        <ele>10.3</ele>
        <time>2023-06-10T13:53:07Z</time>
      </trkpt>
      <trkpt lat="50.32562" lon="1.55378">
        <ele>9.8</ele>
        <time>2023-06-10T13:53:09Z</time>
      </trkpt>
      <trkpt lat="50.32554" lon="1.55374">
        <ele>9</ele>
        <time>2023-06-10T13:53:11Z</time>
      </trkpt>
      <trkpt lat="50.32546" lon="1.55369">
        <ele>9</ele>
        <time>2023-06-10T13:53:13Z</time>
      </trkpt>
      <trkpt lat="50.32537" lon="1.55364">
        <ele>9</ele>
        <time>2023-06-10T13:53:15Z</time>
      </trkpt>
      <trkpt lat="50.32529" lon="1.55363">
        <ele>9</ele>
        <time>2023-06-10T13:53:17Z</time>
      </trkpt>
      <trkpt lat="50.32521" lon="1.55365">
        <ele>9.2</ele>
        <time>2023-06-10T13:53:19Z</time>
      </trkpt>
      <trkpt lat="50.32516" lon="1.55368">
        <ele>9.3</ele>
        <time>2023-06-10T13:53:21Z</time>
      </trkpt>
      <trkpt lat="50.3251" lon="1.55366">
        <ele>9.5</ele>
        <time>2023-06-10T13:53:23Z</time>
      </trkpt>
      <trkpt lat="50.32504" lon="1.55365">
        <ele>9.7</ele>
        <time>2023-06-10T13:53:25Z</time>
      </trkpt>
      <trkpt lat="50.32497" lon="1.55367">
        <ele>9.7</ele>
        <time>2023-06-10T13:53:27Z</time>
      </trkpt>
      <trkpt lat="50.32493" lon="1.55371">
        <ele>9.5</ele>
        <time>2023-06-10T13:53:31Z</time>
      </trkpt>
      <trkpt lat="50.32492" lon="1.5538">
        <ele>9.2</ele>
        <time>2023-06-10T13:53:53Z</time>
      </trkpt>
      <trkpt lat="50.32492" lon="1.55389">
        <ele>9</ele>
        <time>2023-06-10T13:53:59Z</time>
      </trkpt>
      <trkpt lat="50.32492" lon="1.55377">
        <ele>9.3</ele>
        <time>2023-06-10T13:54:25Z</time>
      </trkpt>
      <trkpt lat="50.32488" lon="1.55374">
        <ele>9.3</ele>
        <time>2023-06-10T13:54:33Z</time>
      </trkpt>
      <trkpt lat="50.32493" lon="1.55374">
        <ele>9.4</ele>
        <time>2023-06-10T13:57:19Z</time>
      </trkpt>
      <trkpt lat="50.32496" lon="1.55381">
        <ele>9.3</ele>
        <time>2023-06-10T13:57:29Z</time>
      </trkpt>
      <trkpt lat="50.32493" lon="1.55374">
        <ele>9.4</ele>
        <time>2023-06-10T13:57:41Z</time>
      </trkpt>
      <trkpt lat="50.32495" lon="1.5538">
        <ele>9.3</ele>
        <time>2023-06-10T13:59:17Z</time>
      </trkpt>
      <trkpt lat="50.32495" lon="1.55391">
        <ele>8.8</ele>
        <time>2023-06-10T14:00:25Z</time>
      </trkpt>
      <trkpt lat="50.32494" lon="1.55399">
        <ele>8.3</ele>
        <time>2023-06-10T14:00:27Z</time>
      </trkpt>
      <trkpt lat="50.32493" lon="1.55408">
        <ele>7.6</ele>
        <time>2023-06-10T14:00:29Z</time>
      </trkpt>
      <trkpt lat="50.32492" lon="1.55419">
        <ele>7.2</ele>
        <time>2023-06-10T14:00:31Z</time>
      </trkpt>
      <trkpt lat="50.32491" lon="1.5543">
        <ele>8</ele>
        <time>2023-06-10T14:00:33Z</time>
      </trkpt>
      <trkpt lat="50.3249" lon="1.5544">
        <ele>8.7</ele>
        <time>2023-06-10T14:00:35Z</time>
      </trkpt>
      <trkpt lat="50.32489" lon="1.55448">
        <ele>9</ele>
        <time>2023-06-10T14:00:37Z</time>
      </trkpt>
      <trkpt lat="50.32487" lon="1.55456">
        <ele>9</ele>
        <time>2023-06-10T14:00:39Z</time>
      </trkpt>
      <trkpt lat="50.32488" lon="1.55465">
        <ele>9</ele>
        <time>2023-06-10T14:00:41Z</time>
      </trkpt>
      <trkpt lat="50.32487" lon="1.55473">
        <ele>9</ele>
        <time>2023-06-10T14:00:43Z</time>
      </trkpt>
      <trkpt lat="50.32486" lon="1.55482">
        <ele>9.2</ele>
        <time>2023-06-10T14:00:45Z</time>
      </trkpt>
      <trkpt lat="50.32483" lon="1.55491">
        <ele>9.4</ele>
        <time>2023-06-10T14:00:47Z</time>
      </trkpt>
      <trkpt lat="50.32484" lon="1.55499">
        <ele>9.6</ele>
        <time>2023-06-10T14:00:49Z</time>
      </trkpt>
      <trkpt lat="50.32485" lon="1.55506">
        <ele>9.5</ele>
        <time>2023-06-10T14:00:51Z</time>
      </trkpt>
      <trkpt lat="50.32484" lon="1.55514">
        <ele>9.5</ele>
        <time>2023-06-10T14:00:53Z</time>
      </trkpt>
      <trkpt lat="50.3248" lon="1.55521">
        <ele>9.4</ele>
        <time>2023-06-10T14:00:55Z</time>
      </trkpt>
      <trkpt lat="50.32475" lon="1.55524">
        <ele>9.2</ele>
        <time>2023-06-10T14:00:59Z</time>
      </trkpt>
      <trkpt lat="50.32473" lon="1.55532">
        <ele>9</ele>
        <time>2023-06-10T14:01:17Z</time>
      </trkpt>
      <trkpt lat="50.32471" lon="1.5554">
        <ele>9</ele>
        <time>2023-06-10T14:01:19Z</time>
      </trkpt>
      <trkpt lat="50.32468" lon="1.55545">
        <ele>9</ele>
        <time>2023-06-10T14:01:21Z</time>
      </trkpt>
      <trkpt lat="50.32462" lon="1.55546">
        <ele>9</ele>
        <time>2023-06-10T14:01:23Z</time>
      </trkpt>
      <trkpt lat="50.32455" lon="1.55546">
        <ele>9</ele>
        <time>2023-06-10T14:01:25Z</time>
      </trkpt>
      <trkpt lat="50.32447" lon="1.55545">
        <ele>9</ele>
        <time>2023-06-10T14:01:27Z</time>
      </trkpt>
      <trkpt lat="50.32439" lon="1.55545">
        <ele>9.1</ele>
        <time>2023-06-10T14:01:29Z</time>
      </trkpt>
      <trkpt lat="50.32432" lon="1.5554">
        <ele>9.2</ele>
        <time>2023-06-10T14:01:31Z</time>
      </trkpt>
      <trkpt lat="50.32426" lon="1.55536">
        <ele>9.5</ele>
        <time>2023-06-10T14:01:33Z</time>
      </trkpt>
      <trkpt lat="50.32418" lon="1.55532">
        <ele>9.8</ele>
        <time>2023-06-10T14:01:35Z</time>
      </trkpt>
      <trkpt lat="50.32411" lon="1.55527">
        <ele>9.8</ele>
        <time>2023-06-10T14:01:37Z</time>
      </trkpt>
      <trkpt lat="50.32404" lon="1.55524">
        <ele>9.6</ele>
        <time>2023-06-10T14:01:39Z</time>
      </trkpt>
      <trkpt lat="50.32396" lon="1.55521">
        <ele>9.4</ele>
        <time>2023-06-10T14:01:41Z</time>
      </trkpt>
      <trkpt lat="50.32389" lon="1.55519">
        <ele>9.3</ele>
        <time>2023-06-10T14:01:43Z</time>
      </trkpt>
      <trkpt lat="50.32382" lon="1.55516">
        <ele>9.7</ele>
        <time>2023-06-10T14:01:45Z</time>
      </trkpt>
      <trkpt lat="50.32374" lon="1.55513">
        <ele>10.1</ele>
        <time>2023-06-10T14:01:47Z</time>
      </trkpt>
      <trkpt lat="50.32367" lon="1.5551">
        <ele>10.4</ele>
        <time>2023-06-10T14:01:49Z</time>
      </trkpt>
      <trkpt lat="50.3236" lon="1.55506">
        <ele>10.8</ele>
        <time>2023-06-10T14:01:51Z</time>
      </trkpt>
      <trkpt lat="50.32354" lon="1.55504">
        <ele>11.2</ele>
        <time>2023-06-10T14:01:53Z</time>
      </trkpt>
      <trkpt lat="50.32347" lon="1.55501">
        <ele>11.5</ele>
        <time>2023-06-10T14:01:55Z</time>
      </trkpt>
      <trkpt lat="50.32341" lon="1.55499">
        <ele>11.7</ele>
        <time>2023-06-10T14:01:57Z</time>
      </trkpt>
      <trkpt lat="50.32335" lon="1.55498">
        <ele>11.8</ele>
        <time>2023-06-10T14:01:59Z</time>
      </trkpt>
      <trkpt lat="50.32329" lon="1.55495">
        <ele>11.9</ele>
        <time>2023-06-10T14:02:01Z</time>
      </trkpt>
      <trkpt lat="50.32323" lon="1.55492">
        <ele>11.9</ele>
        <time>2023-06-10T14:02:03Z</time>
      </trkpt>
      <trkpt lat="50.32317" lon="1.55488">
        <ele>12.1</ele>
        <time>2023-06-10T14:02:05Z</time>
      </trkpt>
      <trkpt lat="50.3231" lon="1.55485">
        <ele>12.3</ele>
        <time>2023-06-10T14:02:07Z</time>
      </trkpt>
      <trkpt lat="50.32305" lon="1.55483">
        <ele>12.7</ele>
        <time>2023-06-10T14:02:09Z</time>
      </trkpt>
      <trkpt lat="50.32299" lon="1.55481">
        <ele>13.3</ele>
        <time>2023-06-10T14:02:11Z</time>
      </trkpt>
      <trkpt lat="50.32294" lon="1.55481">
        <ele>13.9</ele>
        <time>2023-06-10T14:02:13Z</time>
      </trkpt>
      <trkpt lat="50.32289" lon="1.55484">
        <ele>14.5</ele>
        <time>2023-06-10T14:02:15Z</time>
      </trkpt>
      <trkpt lat="50.32286" lon="1.55491">
        <ele>15.2</ele>
        <time>2023-06-10T14:02:17Z</time>
      </trkpt>
      <trkpt lat="50.32283" lon="1.55499">
        <ele>15.9</ele>
        <time>2023-06-10T14:02:19Z</time>
      </trkpt>
      <trkpt lat="50.32283" lon="1.55508">
        <ele>15.9</ele>
        <time>2023-06-10T14:02:21Z</time>
      </trkpt>
      <trkpt lat="50.3228" lon="1.55517">
        <ele>16</ele>
        <time>2023-06-10T14:02:23Z</time>
      </trkpt>
      <trkpt lat="50.3228" lon="1.55526">
        <ele>15.8</ele>
        <time>2023-06-10T14:02:25Z</time>
      </trkpt>
      <trkpt lat="50.3228" lon="1.55545">
        <ele>16.8</ele>
        <time>2023-06-10T14:02:29Z</time>
      </trkpt>
      <trkpt lat="50.3228" lon="1.55554">
        <ele>17.3</ele>
        <time>2023-06-10T14:02:31Z</time>
      </trkpt>
      <trkpt lat="50.3228" lon="1.55564">
        <ele>17.2</ele>
        <time>2023-06-10T14:02:33Z</time>
      </trkpt>
      <trkpt lat="50.3228" lon="1.55574">
        <ele>17</ele>
        <time>2023-06-10T14:02:35Z</time>
      </trkpt>
      <trkpt lat="50.32281" lon="1.55583">
        <ele>16.6</ele>
        <time>2023-06-10T14:02:37Z</time>
      </trkpt>
      <trkpt lat="50.32283" lon="1.55593">
        <ele>16.5</ele>
        <time>2023-06-10T14:02:39Z</time>
      </trkpt>
      <trkpt lat="50.32287" lon="1.55604">
        <ele>16.7</ele>
        <time>2023-06-10T14:02:41Z</time>
      </trkpt>
      <trkpt lat="50.32289" lon="1.55615">
        <ele>16.9</ele>
        <time>2023-06-10T14:02:43Z</time>
      </trkpt>
      <trkpt lat="50.32292" lon="1.55625">
        <ele>17</ele>
        <time>2023-06-10T14:02:45Z</time>
      </trkpt>
      <trkpt lat="50.32293" lon="1.55636">
        <ele>17.2</ele>
        <time>2023-06-10T14:02:47Z</time>
      </trkpt>
      <trkpt lat="50.32292" lon="1.55647">
        <ele>16.6</ele>
        <time>2023-06-10T14:02:49Z</time>
      </trkpt>
      <trkpt lat="50.32292" lon="1.55657">
        <ele>16.1</ele>
        <time>2023-06-10T14:02:51Z</time>
      </trkpt>
      <trkpt lat="50.32291" lon="1.55669">
        <ele>15.5</ele>
        <time>2023-06-10T14:02:53Z</time>
      </trkpt>
      <trkpt lat="50.3229" lon="1.55679">
        <ele>15.5</ele>
        <time>2023-06-10T14:02:55Z</time>
      </trkpt>
      <trkpt lat="50.32291" lon="1.55692">
        <ele>15.8</ele>
        <time>2023-06-10T14:02:57Z</time>
      </trkpt>
      <trkpt lat="50.32292" lon="1.55703">
        <ele>16.8</ele>
        <time>2023-06-10T14:02:59Z</time>
      </trkpt>
      <trkpt lat="50.32288" lon="1.55713">
        <ele>17.2</ele>
        <time>2023-06-10T14:03:01Z</time>
      </trkpt>
      <trkpt lat="50.32284" lon="1.55725">
        <ele>17.7</ele>
        <time>2023-06-10T14:03:03Z</time>
      </trkpt>
      <trkpt lat="50.32275" lon="1.55736">
        <ele>16.8</ele>
        <time>2023-06-10T14:03:05Z</time>
      </trkpt>
      <trkpt lat="50.32262" lon="1.55742">
        <ele>15.8</ele>
        <time>2023-06-10T14:03:07Z</time>
      </trkpt>
      <trkpt lat="50.3225" lon="1.55752">
        <ele>14.9</ele>
        <time>2023-06-10T14:03:09Z</time>
      </trkpt>
      <trkpt lat="50.32239" lon="1.55762">
        <ele>13.8</ele>
        <time>2023-06-10T14:03:11Z</time>
      </trkpt>
      <trkpt lat="50.32228" lon="1.55774">
        <ele>13.2</ele>
        <time>2023-06-10T14:03:13Z</time>
      </trkpt>
      <trkpt lat="50.32215" lon="1.55783">
        <ele>12.2</ele>
        <time>2023-06-10T14:03:15Z</time>
      </trkpt>
      <trkpt lat="50.322" lon="1.55787">
        <ele>11.2</ele>
        <time>2023-06-10T14:03:17Z</time>
      </trkpt>
      <trkpt lat="50.32187" lon="1.55795">
        <ele>10.9</ele>
        <time>2023-06-10T14:03:19Z</time>
      </trkpt>
      <trkpt lat="50.32178" lon="1.5581">
        <ele>11.4</ele>
        <time>2023-06-10T14:03:21Z</time>
      </trkpt>
      <trkpt lat="50.32174" lon="1.55831">
        <ele>12</ele>
        <time>2023-06-10T14:03:23Z</time>
      </trkpt>
      <trkpt lat="50.32171" lon="1.5585">
        <ele>12.9</ele>
        <time>2023-06-10T14:03:25Z</time>
      </trkpt>
      <trkpt lat="50.32169" lon="1.55869">
        <ele>12.8</ele>
        <time>2023-06-10T14:03:27Z</time>
      </trkpt>
      <trkpt lat="50.32168" lon="1.55884">
        <ele>11.4</ele>
        <time>2023-06-10T14:03:29Z</time>
      </trkpt>
      <trkpt lat="50.3216" lon="1.55891">
        <ele>11.6</ele>
        <time>2023-06-10T14:03:31Z</time>
      </trkpt>
      <trkpt lat="50.32153" lon="1.55901">
        <ele>12.2</ele>
        <time>2023-06-10T14:03:33Z</time>
      </trkpt>
      <trkpt lat="50.32146" lon="1.5591">
        <ele>12.3</ele>
        <time>2023-06-10T14:03:35Z</time>
      </trkpt>
      <trkpt lat="50.3214" lon="1.55921">
        <ele>12.1</ele>
        <time>2023-06-10T14:03:37Z</time>
      </trkpt>
      <trkpt lat="50.32135" lon="1.5593">
        <ele>12</ele>
        <time>2023-06-10T14:03:39Z</time>
      </trkpt>
      <trkpt lat="50.32129" lon="1.55939">
        <ele>12</ele>
        <time>2023-06-10T14:03:41Z</time>
      </trkpt>
      <trkpt lat="50.3212" lon="1.55938">
        <ele>12</ele>
        <time>2023-06-10T14:03:43Z</time>
      </trkpt>
      <trkpt lat="50.32114" lon="1.55931">
        <ele>12</ele>
        <time>2023-06-10T14:03:45Z</time>
      </trkpt>
      <trkpt lat="50.32106" lon="1.55926">
        <ele>12.3</ele>
        <time>2023-06-10T14:03:47Z</time>
      </trkpt>
      <trkpt lat="50.321" lon="1.55922">
        <ele>12.8</ele>
        <time>2023-06-10T14:03:49Z</time>
      </trkpt>
      <trkpt lat="50.32095" lon="1.55919">
        <ele>13.1</ele>
        <time>2023-06-10T14:03:51Z</time>
      </trkpt>
      <trkpt lat="50.32087" lon="1.55929">
        <ele>13.4</ele>
        <time>2023-06-10T14:03:55Z</time>
      </trkpt>
      <trkpt lat="50.32084" lon="1.55939">
        <ele>13.2</ele>
        <time>2023-06-10T14:03:57Z</time>
      </trkpt>
      <trkpt lat="50.32081" lon="1.55947">
        <ele>13</ele>
        <time>2023-06-10T14:03:59Z</time>
      </trkpt>
      <trkpt lat="50.32077" lon="1.55956">
        <ele>12.8</ele>
        <time>2023-06-10T14:04:01Z</time>
      </trkpt>
      <trkpt lat="50.32074" lon="1.55964">
        <ele>12.5</ele>
        <time>2023-06-10T14:04:03Z</time>
      </trkpt>
      <trkpt lat="50.32071" lon="1.55974">
        <ele>12.3</ele>
        <time>2023-06-10T14:04:05Z</time>
      </trkpt>
      <trkpt lat="50.32067" lon="1.55981">
        <ele>12.7</ele>
        <time>2023-06-10T14:04:07Z</time>
      </trkpt>
      <trkpt lat="50.32065" lon="1.55989">
        <ele>12.8</ele>
        <time>2023-06-10T14:04:09Z</time>
      </trkpt>
      <trkpt lat="50.32062" lon="1.55998">
        <ele>12.8</ele>
        <time>2023-06-10T14:04:11Z</time>
      </trkpt>
      <trkpt lat="50.3206" lon="1.56007">
        <ele>12.8</ele>
        <time>2023-06-10T14:04:13Z</time>
      </trkpt>
      <trkpt lat="50.32058" lon="1.56016">
        <ele>12.9</ele>
        <time>2023-06-10T14:04:15Z</time>
      </trkpt>
      <trkpt lat="50.32057" lon="1.56025">
        <ele>13</ele>
        <time>2023-06-10T14:04:17Z</time>
      </trkpt>
      <trkpt lat="50.32056" lon="1.56035">
        <ele>13</ele>
        <time>2023-06-10T14:04:19Z</time>
      </trkpt>
      <trkpt lat="50.32055" lon="1.56045">
        <ele>13</ele>
        <time>2023-06-10T14:04:21Z</time>
      </trkpt>
      <trkpt lat="50.32054" lon="1.56054">
        <ele>13.2</ele>
        <time>2023-06-10T14:04:23Z</time>
      </trkpt>
      <trkpt lat="50.32053" lon="1.56063">
        <ele>13.1</ele>
        <time>2023-06-10T14:04:25Z</time>
      </trkpt>
      <trkpt lat="50.32052" lon="1.56072">
        <ele>12.8</ele>
        <time>2023-06-10T14:04:27Z</time>
      </trkpt>
      <trkpt lat="50.3205" lon="1.56081">
        <ele>12.7</ele>
        <time>2023-06-10T14:04:29Z</time>
      </trkpt>
      <trkpt lat="50.32049" lon="1.56091">
        <ele>12.6</ele>
        <time>2023-06-10T14:04:31Z</time>
      </trkpt>
      <trkpt lat="50.32048" lon="1.56101">
        <ele>12.5</ele>
        <time>2023-06-10T14:04:33Z</time>
      </trkpt>
      <trkpt lat="50.32046" lon="1.56112">
        <ele>12.3</ele>
        <time>2023-06-10T14:04:35Z</time>
      </trkpt>
      <trkpt lat="50.32045" lon="1.56123">
        <ele>12.2</ele>
        <time>2023-06-10T14:04:37Z</time>
      </trkpt>
      <trkpt lat="50.32043" lon="1.56134">
        <ele>12.1</ele>
        <time>2023-06-10T14:04:39Z</time>
      </trkpt>
      <trkpt lat="50.32041" lon="1.56144">
        <ele>11.9</ele>
        <time>2023-06-10T14:04:41Z</time>
      </trkpt>
      <trkpt lat="50.3204" lon="1.56157">
        <ele>11.6</ele>
        <time>2023-06-10T14:04:43Z</time>
      </trkpt>
      <trkpt lat="50.32039" lon="1.5617">
        <ele>11.4</ele>
        <time>2023-06-10T14:04:45Z</time>
      </trkpt>
      <trkpt lat="50.32038" lon="1.56183">
        <ele>11.4</ele>
        <time>2023-06-10T14:04:47Z</time>
      </trkpt>
      <trkpt lat="50.32037" lon="1.56197">
        <ele>11.3</ele>
        <time>2023-06-10T14:04:49Z</time>
      </trkpt>
      <trkpt lat="50.32035" lon="1.5621">
        <ele>11.3</ele>
        <time>2023-06-10T14:04:51Z</time>
      </trkpt>
      <trkpt lat="50.32034" lon="1.56221">
        <ele>11.2</ele>
        <time>2023-06-10T14:04:53Z</time>
      </trkpt>
      <trkpt lat="50.32033" lon="1.56234">
        <ele>11</ele>
        <time>2023-06-10T14:04:55Z</time>
      </trkpt>
      <trkpt lat="50.32032" lon="1.56247">
        <ele>10.9</ele>
        <time>2023-06-10T14:04:57Z</time>
      </trkpt>
      <trkpt lat="50.3203" lon="1.5626">
        <ele>10.9</ele>
        <time>2023-06-10T14:04:59Z</time>
      </trkpt>
      <trkpt lat="50.32029" lon="1.56273">
        <ele>11</ele>
        <time>2023-06-10T14:05:01Z</time>
      </trkpt>
      <trkpt lat="50.32028" lon="1.56285">
        <ele>11</ele>
        <time>2023-06-10T14:05:03Z</time>
      </trkpt>
      <trkpt lat="50.32027" lon="1.56297">
        <ele>11</ele>
        <time>2023-06-10T14:05:05Z</time>
      </trkpt>
      <trkpt lat="50.32025" lon="1.56309">
        <ele>10.9</ele>
        <time>2023-06-10T14:05:07Z</time>
      </trkpt>
      <trkpt lat="50.32024" lon="1.56322">
        <ele>10.4</ele>
        <time>2023-06-10T14:05:09Z</time>
      </trkpt>
      <trkpt lat="50.32023" lon="1.56334">
        <ele>10</ele>
        <time>2023-06-10T14:05:11Z</time>
      </trkpt>
      <trkpt lat="50.32022" lon="1.56347">
        <ele>10</ele>
        <time>2023-06-10T14:05:13Z</time>
      </trkpt>
      <trkpt lat="50.32021" lon="1.5636">
        <ele>10</ele>
        <time>2023-06-10T14:05:15Z</time>
      </trkpt>
      <trkpt lat="50.3202" lon="1.56373">
        <ele>10.3</ele>
        <time>2023-06-10T14:05:17Z</time>
      </trkpt>
      <trkpt lat="50.32019" lon="1.56386">
        <ele>10.6</ele>
        <time>2023-06-10T14:05:19Z</time>
      </trkpt>
      <trkpt lat="50.32017" lon="1.56399">
        <ele>10.4</ele>
        <time>2023-06-10T14:05:21Z</time>
      </trkpt>
      <trkpt lat="50.32016" lon="1.56413">
        <ele>10.1</ele>
        <time>2023-06-10T14:05:23Z</time>
      </trkpt>
      <trkpt lat="50.32015" lon="1.56426">
        <ele>10</ele>
        <time>2023-06-10T14:05:25Z</time>
      </trkpt>
      <trkpt lat="50.32013" lon="1.5644">
        <ele>10</ele>
        <time>2023-06-10T14:05:27Z</time>
      </trkpt>
      <trkpt lat="50.32012" lon="1.56453">
        <ele>10</ele>
        <time>2023-06-10T14:05:29Z</time>
      </trkpt>
      <trkpt lat="50.3201" lon="1.56467">
        <ele>10</ele>
        <time>2023-06-10T14:05:31Z</time>
      </trkpt>
      <trkpt lat="50.32009" lon="1.5648">
        <ele>10</ele>
        <time>2023-06-10T14:05:33Z</time>
      </trkpt>
      <trkpt lat="50.32008" lon="1.56494">
        <ele>10</ele>
        <time>2023-06-10T14:05:35Z</time>
      </trkpt>
      <trkpt lat="50.32006" lon="1.56507">
        <ele>10</ele>
        <time>2023-06-10T14:05:37Z</time>
      </trkpt>
      <trkpt lat="50.32005" lon="1.5652">
        <ele>10</ele>
        <time>2023-06-10T14:05:39Z</time>
      </trkpt>
      <trkpt lat="50.32004" lon="1.56533">
        <ele>10</ele>
        <time>2023-06-10T14:05:41Z</time>
      </trkpt>
      <trkpt lat="50.32002" lon="1.56547">
        <ele>10</ele>
        <time>2023-06-10T14:05:43Z</time>
      </trkpt>
      <trkpt lat="50.32001" lon="1.56561">
        <ele>10</ele>
        <time>2023-06-10T14:05:45Z</time>
      </trkpt>
      <trkpt lat="50.32" lon="1.56576">
        <ele>10</ele>
        <time>2023-06-10T14:05:47Z</time>
      </trkpt>
      <trkpt lat="50.31999" lon="1.5659">
        <ele>10</ele>
        <time>2023-06-10T14:05:49Z</time>
      </trkpt>
      <trkpt lat="50.31998" lon="1.56603">
        <ele>10</ele>
        <time>2023-06-10T14:05:51Z</time>
      </trkpt>
      <trkpt lat="50.31996" lon="1.56615">
        <ele>10</ele>
        <time>2023-06-10T14:05:53Z</time>
      </trkpt>
      <trkpt lat="50.31995" lon="1.56629">
        <ele>10</ele>
        <time>2023-06-10T14:05:55Z</time>
      </trkpt>
      <trkpt lat="50.31994" lon="1.56642">
        <ele>10</ele>
        <time>2023-06-10T14:05:57Z</time>
      </trkpt>
      <trkpt lat="50.31993" lon="1.56656">
        <ele>10</ele>
        <time>2023-06-10T14:05:59Z</time>
      </trkpt>
      <trkpt lat="50.31991" lon="1.56669">
        <ele>10</ele>
        <time>2023-06-10T14:06:01Z</time>
      </trkpt>
      <trkpt lat="50.3199" lon="1.56682">
        <ele>10</ele>
        <time>2023-06-10T14:06:03Z</time>
      </trkpt>
      <trkpt lat="50.31989" lon="1.56696">
        <ele>10</ele>
        <time>2023-06-10T14:06:05Z</time>
      </trkpt>
      <trkpt lat="50.31987" lon="1.56709">
        <ele>10</ele>
        <time>2023-06-10T14:06:07Z</time>
      </trkpt>
      <trkpt lat="50.31986" lon="1.56723">
        <ele>10</ele>
        <time>2023-06-10T14:06:09Z</time>
      </trkpt>
      <trkpt lat="50.31984" lon="1.56736">
        <ele>10</ele>
        <time>2023-06-10T14:06:11Z</time>
      </trkpt>
      <trkpt lat="50.31983" lon="1.56751">
        <ele>10</ele>
        <time>2023-06-10T14:06:13Z</time>
      </trkpt>
      <trkpt lat="50.31982" lon="1.56764">
        <ele>10</ele>
        <time>2023-06-10T14:06:15Z</time>
      </trkpt>
      <trkpt lat="50.3198" lon="1.56777">
        <ele>10</ele>
        <time>2023-06-10T14:06:17Z</time>
      </trkpt>
      <trkpt lat="50.31979" lon="1.56791">
        <ele>9.9</ele>
        <time>2023-06-10T14:06:19Z</time>
      </trkpt>
      <trkpt lat="50.31977" lon="1.56804">
        <ele>9.8</ele>
        <time>2023-06-10T14:06:21Z</time>
      </trkpt>
      <trkpt lat="50.31976" lon="1.56816">
        <ele>9.9</ele>
        <time>2023-06-10T14:06:23Z</time>
      </trkpt>
      <trkpt lat="50.31975" lon="1.56829">
        <ele>10</ele>
        <time>2023-06-10T14:06:25Z</time>
      </trkpt>
      <trkpt lat="50.31974" lon="1.56842">
        <ele>10</ele>
        <time>2023-06-10T14:06:27Z</time>
      </trkpt>
      <trkpt lat="50.31973" lon="1.56856">
        <ele>10</ele>
        <time>2023-06-10T14:06:29Z</time>
      </trkpt>
      <trkpt lat="50.31971" lon="1.56869">
        <ele>10</ele>
        <time>2023-06-10T14:06:31Z</time>
      </trkpt>
      <trkpt lat="50.3197" lon="1.56882">
        <ele>10</ele>
        <time>2023-06-10T14:06:33Z</time>
      </trkpt>
      <trkpt lat="50.31969" lon="1.56897">
        <ele>9.8</ele>
        <time>2023-06-10T14:06:35Z</time>
      </trkpt>
      <trkpt lat="50.31968" lon="1.56911">
        <ele>9.3</ele>
        <time>2023-06-10T14:06:37Z</time>
      </trkpt>
      <trkpt lat="50.31966" lon="1.56925">
        <ele>9.4</ele>
        <time>2023-06-10T14:06:39Z</time>
      </trkpt>
      <trkpt lat="50.31965" lon="1.56938">
        <ele>9.8</ele>
        <time>2023-06-10T14:06:41Z</time>
      </trkpt>
      <trkpt lat="50.31963" lon="1.56951">
        <ele>10</ele>
        <time>2023-06-10T14:06:43Z</time>
      </trkpt>
      <trkpt lat="50.31962" lon="1.56964">
        <ele>10</ele>
        <time>2023-06-10T14:06:45Z</time>
      </trkpt>
      <trkpt lat="50.3196" lon="1.56977">
        <ele>10.1</ele>
        <time>2023-06-10T14:06:47Z</time>
      </trkpt>
      <trkpt lat="50.31959" lon="1.5699">
        <ele>10.3</ele>
        <time>2023-06-10T14:06:49Z</time>
      </trkpt>
      <trkpt lat="50.31958" lon="1.57004">
        <ele>10.4</ele>
        <time>2023-06-10T14:06:51Z</time>
      </trkpt>
      <trkpt lat="50.31957" lon="1.57017">
        <ele>10.2</ele>
        <time>2023-06-10T14:06:53Z</time>
      </trkpt>
      <trkpt lat="50.31955" lon="1.5703">
        <ele>10</ele>
        <time>2023-06-10T14:06:55Z</time>
      </trkpt>
      <trkpt lat="50.31953" lon="1.57046">
        <ele>10</ele>
        <time>2023-06-10T14:06:57Z</time>
      </trkpt>
      <trkpt lat="50.31952" lon="1.57062">
        <ele>9.9</ele>
        <time>2023-06-10T14:06:59Z</time>
      </trkpt>
      <trkpt lat="50.3195" lon="1.57077">
        <ele>9.8</ele>
        <time>2023-06-10T14:07:01Z</time>
      </trkpt>
      <trkpt lat="50.31949" lon="1.57093">
        <ele>9.8</ele>
        <time>2023-06-10T14:07:03Z</time>
      </trkpt>
      <trkpt lat="50.31947" lon="1.57108">
        <ele>9.9</ele>
        <time>2023-06-10T14:07:05Z</time>
      </trkpt>
      <trkpt lat="50.31946" lon="1.57121">
        <ele>10</ele>
        <time>2023-06-10T14:07:07Z</time>
      </trkpt>
      <trkpt lat="50.31945" lon="1.57135">
        <ele>10</ele>
        <time>2023-06-10T14:07:09Z</time>
      </trkpt>
      <trkpt lat="50.31944" lon="1.57149">
        <ele>10</ele>
        <time>2023-06-10T14:07:11Z</time>
      </trkpt>
      <trkpt lat="50.31943" lon="1.57162">
        <ele>10</ele>
        <time>2023-06-10T14:07:13Z</time>
      </trkpt>
      <trkpt lat="50.31941" lon="1.57175">
        <ele>10</ele>
        <time>2023-06-10T14:07:15Z</time>
      </trkpt>
      <trkpt lat="50.31939" lon="1.57188">
        <ele>10</ele>
        <time>2023-06-10T14:07:17Z</time>
      </trkpt>
      <trkpt lat="50.31938" lon="1.57202">
        <ele>10.2</ele>
        <time>2023-06-10T14:07:19Z</time>
      </trkpt>
      <trkpt lat="50.31936" lon="1.57216">
        <ele>10.5</ele>
        <time>2023-06-10T14:07:21Z</time>
      </trkpt>
      <trkpt lat="50.31934" lon="1.5723">
        <ele>10.5</ele>
        <time>2023-06-10T14:07:23Z</time>
      </trkpt>
      <trkpt lat="50.31933" lon="1.57243">
        <ele>10.1</ele>
        <time>2023-06-10T14:07:25Z</time>
      </trkpt>
      <trkpt lat="50.31932" lon="1.57256">
        <ele>10</ele>
        <time>2023-06-10T14:07:27Z</time>
      </trkpt>
      <trkpt lat="50.3193" lon="1.57269">
        <ele>10</ele>
        <time>2023-06-10T14:07:29Z</time>
      </trkpt>
      <trkpt lat="50.31928" lon="1.57282">
        <ele>10</ele>
        <time>2023-06-10T14:07:31Z</time>
      </trkpt>
      <trkpt lat="50.31927" lon="1.57296">
        <ele>10</ele>
        <time>2023-06-10T14:07:33Z</time>
      </trkpt>
      <trkpt lat="50.31926" lon="1.57311">
        <ele>10</ele>
        <time>2023-06-10T14:07:35Z</time>
      </trkpt>
      <trkpt lat="50.31925" lon="1.57325">
        <ele>10</ele>
        <time>2023-06-10T14:07:37Z</time>
      </trkpt>
      <trkpt lat="50.31923" lon="1.5734">
        <ele>9.9</ele>
        <time>2023-06-10T14:07:39Z</time>
      </trkpt>
      <trkpt lat="50.31922" lon="1.57354">
        <ele>9.8</ele>
        <time>2023-06-10T14:07:41Z</time>
      </trkpt>
      <trkpt lat="50.31921" lon="1.57368">
        <ele>9.8</ele>
        <time>2023-06-10T14:07:43Z</time>
      </trkpt>
      <trkpt lat="50.3192" lon="1.57382">
        <ele>9.9</ele>
        <time>2023-06-10T14:07:45Z</time>
      </trkpt>
      <trkpt lat="50.31918" lon="1.57396">
        <ele>9.9</ele>
        <time>2023-06-10T14:07:47Z</time>
      </trkpt>
      <trkpt lat="50.31917" lon="1.57409">
        <ele>10</ele>
        <time>2023-06-10T14:07:49Z</time>
      </trkpt>
      <trkpt lat="50.31915" lon="1.57424">
        <ele>10</ele>
        <time>2023-06-10T14:07:51Z</time>
      </trkpt>
      <trkpt lat="50.31914" lon="1.57437">
        <ele>10</ele>
        <time>2023-06-10T14:07:53Z</time>
      </trkpt>
      <trkpt lat="50.31912" lon="1.57451">
        <ele>10</ele>
        <time>2023-06-10T14:07:55Z</time>
      </trkpt>
      <trkpt lat="50.31911" lon="1.57465">
        <ele>10.1</ele>
        <time>2023-06-10T14:07:57Z</time>
      </trkpt>
      <trkpt lat="50.3191" lon="1.57477">
        <ele>10.3</ele>
        <time>2023-06-10T14:07:59Z</time>
      </trkpt>
      <trkpt lat="50.31908" lon="1.5749">
        <ele>10.3</ele>
        <time>2023-06-10T14:08:01Z</time>
      </trkpt>
      <trkpt lat="50.31907" lon="1.57501">
        <ele>10.4</ele>
        <time>2023-06-10T14:08:03Z</time>
      </trkpt>
      <trkpt lat="50.31904" lon="1.57515">
        <ele>11.1</ele>
        <time>2023-06-10T14:08:05Z</time>
      </trkpt>
      <trkpt lat="50.31903" lon="1.57527">
        <ele>11.5</ele>
        <time>2023-06-10T14:08:07Z</time>
      </trkpt>
      <trkpt lat="50.31901" lon="1.57537">
        <ele>11.4</ele>
        <time>2023-06-10T14:08:09Z</time>
      </trkpt>
      <trkpt lat="50.319" lon="1.57548">
        <ele>11.3</ele>
        <time>2023-06-10T14:08:11Z</time>
      </trkpt>
      <trkpt lat="50.31899" lon="1.5756">
        <ele>11.2</ele>
        <time>2023-06-10T14:08:13Z</time>
      </trkpt>
      <trkpt lat="50.31897" lon="1.57572">
        <ele>11.5</ele>
        <time>2023-06-10T14:08:15Z</time>
      </trkpt>
      <trkpt lat="50.31896" lon="1.57585">
        <ele>11.7</ele>
        <time>2023-06-10T14:08:17Z</time>
      </trkpt>
      <trkpt lat="50.31895" lon="1.57598">
        <ele>11.4</ele>
        <time>2023-06-10T14:08:19Z</time>
      </trkpt>
      <trkpt lat="50.31894" lon="1.5761">
        <ele>11.2</ele>
        <time>2023-06-10T14:08:21Z</time>
      </trkpt>
      <trkpt lat="50.31892" lon="1.57622">
        <ele>11.2</ele>
        <time>2023-06-10T14:08:23Z</time>
      </trkpt>
      <trkpt lat="50.31891" lon="1.57633">
        <ele>11.2</ele>
        <time>2023-06-10T14:08:25Z</time>
      </trkpt>
      <trkpt lat="50.3189" lon="1.57645">
        <ele>11.1</ele>
        <time>2023-06-10T14:08:27Z</time>
      </trkpt>
      <trkpt lat="50.3189" lon="1.57656">
        <ele>11.1</ele>
        <time>2023-06-10T14:08:29Z</time>
      </trkpt>
      <trkpt lat="50.31887" lon="1.57667">
        <ele>10.9</ele>
        <time>2023-06-10T14:08:31Z</time>
      </trkpt>
      <trkpt lat="50.31886" lon="1.57679">
        <ele>10.9</ele>
        <time>2023-06-10T14:08:33Z</time>
      </trkpt>
      <trkpt lat="50.31885" lon="1.5769">
        <ele>10.9</ele>
        <time>2023-06-10T14:08:35Z</time>
      </trkpt>
      <trkpt lat="50.31884" lon="1.57699">
        <ele>11.1</ele>
        <time>2023-06-10T14:08:37Z</time>
      </trkpt>
      <trkpt lat="50.31882" lon="1.57711">
        <ele>11.8</ele>
        <time>2023-06-10T14:08:39Z</time>
      </trkpt>
      <trkpt lat="50.3188" lon="1.57721">
        <ele>12.3</ele>
        <time>2023-06-10T14:08:41Z</time>
      </trkpt>
      <trkpt lat="50.3188" lon="1.57731">
        <ele>12.4</ele>
        <time>2023-06-10T14:08:43Z</time>
      </trkpt>
      <trkpt lat="50.31878" lon="1.57741">
        <ele>12.4</ele>
        <time>2023-06-10T14:08:45Z</time>
      </trkpt>
      <trkpt lat="50.31877" lon="1.57752">
        <ele>12.3</ele>
        <time>2023-06-10T14:08:47Z</time>
      </trkpt>
      <trkpt lat="50.31877" lon="1.57763">
        <ele>12.2</ele>
        <time>2023-06-10T14:08:49Z</time>
      </trkpt>
      <trkpt lat="50.31876" lon="1.57774">
        <ele>12.2</ele>
        <time>2023-06-10T14:08:51Z</time>
      </trkpt>
      <trkpt lat="50.31876" lon="1.57785">
        <ele>11.8</ele>
        <time>2023-06-10T14:08:53Z</time>
      </trkpt>
      <trkpt lat="50.31875" lon="1.57796">
        <ele>11.3</ele>
        <time>2023-06-10T14:08:55Z</time>
      </trkpt>
      <trkpt lat="50.31873" lon="1.57808">
        <ele>10.8</ele>
        <time>2023-06-10T14:08:57Z</time>
      </trkpt>
      <trkpt lat="50.31872" lon="1.5782">
        <ele>10.6</ele>
        <time>2023-06-10T14:08:59Z</time>
      </trkpt>
      <trkpt lat="50.31872" lon="1.57833">
        <ele>10.4</ele>
        <time>2023-06-10T14:09:01Z</time>
      </trkpt>
      <trkpt lat="50.31873" lon="1.57845">
        <ele>10.4</ele>
        <time>2023-06-10T14:09:03Z</time>
      </trkpt>
      <trkpt lat="50.31874" lon="1.57856">
        <ele>10.5</ele>
        <time>2023-06-10T14:09:05Z</time>
      </trkpt>
      <trkpt lat="50.31873" lon="1.5787">
        <ele>10.3</ele>
        <time>2023-06-10T14:09:07Z</time>
      </trkpt>
      <trkpt lat="50.31877" lon="1.57883">
        <ele>10.1</ele>
        <time>2023-06-10T14:09:09Z</time>
      </trkpt>
      <trkpt lat="50.31878" lon="1.57894">
        <ele>9.9</ele>
        <time>2023-06-10T14:09:11Z</time>
      </trkpt>
      <trkpt lat="50.3188" lon="1.57907">
        <ele>9.6</ele>
        <time>2023-06-10T14:09:13Z</time>
      </trkpt>
      <trkpt lat="50.31882" lon="1.57917">
        <ele>9.3</ele>
        <time>2023-06-10T14:09:15Z</time>
      </trkpt>
      <trkpt lat="50.31884" lon="1.57928">
        <ele>9.1</ele>
        <time>2023-06-10T14:09:17Z</time>
      </trkpt>
      <trkpt lat="50.31884" lon="1.5794">
        <ele>9</ele>
        <time>2023-06-10T14:09:19Z</time>
      </trkpt>
      <trkpt lat="50.31882" lon="1.57952">
        <ele>9</ele>
        <time>2023-06-10T14:09:21Z</time>
      </trkpt>
      <trkpt lat="50.31885" lon="1.57965">
        <ele>9</ele>
        <time>2023-06-10T14:09:23Z</time>
      </trkpt>
      <trkpt lat="50.31887" lon="1.57977">
        <ele>9</ele>
        <time>2023-06-10T14:09:25Z</time>
      </trkpt>
      <trkpt lat="50.31889" lon="1.57989">
        <ele>9</ele>
        <time>2023-06-10T14:09:27Z</time>
      </trkpt>
      <trkpt lat="50.3189" lon="1.58003">
        <ele>9</ele>
        <time>2023-06-10T14:09:29Z</time>
      </trkpt>
      <trkpt lat="50.31891" lon="1.58017">
        <ele>8.9</ele>
        <time>2023-06-10T14:09:31Z</time>
      </trkpt>
      <trkpt lat="50.31892" lon="1.58031">
        <ele>8.9</ele>
        <time>2023-06-10T14:09:33Z</time>
      </trkpt>
      <trkpt lat="50.31895" lon="1.58044">
        <ele>8.8</ele>
        <time>2023-06-10T14:09:35Z</time>
      </trkpt>
      <trkpt lat="50.31896" lon="1.58058">
        <ele>8.7</ele>
        <time>2023-06-10T14:09:37Z</time>
      </trkpt>
      <trkpt lat="50.31895" lon="1.5807">
        <ele>8.8</ele>
        <time>2023-06-10T14:09:39Z</time>
      </trkpt>
      <trkpt lat="50.31896" lon="1.58084">
        <ele>8.7</ele>
        <time>2023-06-10T14:09:41Z</time>
      </trkpt>
      <trkpt lat="50.31897" lon="1.58099">
        <ele>8.7</ele>
        <time>2023-06-10T14:09:43Z</time>
      </trkpt>
      <trkpt lat="50.31898" lon="1.58113">
        <ele>8.7</ele>
        <time>2023-06-10T14:09:45Z</time>
      </trkpt>
      <trkpt lat="50.319" lon="1.58127">
        <ele>8.6</ele>
        <time>2023-06-10T14:09:47Z</time>
      </trkpt>
      <trkpt lat="50.31901" lon="1.5814">
        <ele>8.6</ele>
        <time>2023-06-10T14:09:49Z</time>
      </trkpt>
      <trkpt lat="50.31901" lon="1.58153">
        <ele>8.5</ele>
        <time>2023-06-10T14:09:51Z</time>
      </trkpt>
      <trkpt lat="50.31904" lon="1.58164">
        <ele>8.5</ele>
        <time>2023-06-10T14:09:53Z</time>
      </trkpt>
      <trkpt lat="50.31903" lon="1.58178">
        <ele>8.5</ele>
        <time>2023-06-10T14:09:55Z</time>
      </trkpt>
      <trkpt lat="50.31905" lon="1.58192">
        <ele>8.4</ele>
        <time>2023-06-10T14:09:57Z</time>
      </trkpt>
      <trkpt lat="50.31907" lon="1.58204">
        <ele>8.4</ele>
        <time>2023-06-10T14:09:59Z</time>
      </trkpt>
      <trkpt lat="50.31908" lon="1.58216">
        <ele>8.3</ele>
        <time>2023-06-10T14:10:01Z</time>
      </trkpt>
      <trkpt lat="50.31909" lon="1.58229">
        <ele>8.5</ele>
        <time>2023-06-10T14:10:03Z</time>
      </trkpt>
      <trkpt lat="50.31911" lon="1.58243">
        <ele>8.8</ele>
        <time>2023-06-10T14:10:05Z</time>
      </trkpt>
      <trkpt lat="50.31912" lon="1.58256">
        <ele>9</ele>
        <time>2023-06-10T14:10:07Z</time>
      </trkpt>
      <trkpt lat="50.31913" lon="1.5827">
        <ele>9</ele>
        <time>2023-06-10T14:10:09Z</time>
      </trkpt>
      <trkpt lat="50.31914" lon="1.58283">
        <ele>9</ele>
        <time>2023-06-10T14:10:11Z</time>
      </trkpt>
      <trkpt lat="50.31916" lon="1.58297">
        <ele>9</ele>
        <time>2023-06-10T14:10:13Z</time>
      </trkpt>
      <trkpt lat="50.31916" lon="1.5831">
        <ele>8.8</ele>
        <time>2023-06-10T14:10:15Z</time>
      </trkpt>
      <trkpt lat="50.31918" lon="1.58323">
        <ele>8.3</ele>
        <time>2023-06-10T14:10:17Z</time>
      </trkpt>
      <trkpt lat="50.31918" lon="1.58337">
        <ele>8</ele>
        <time>2023-06-10T14:10:19Z</time>
      </trkpt>
      <trkpt lat="50.31919" lon="1.58348">
        <ele>7.9</ele>
        <time>2023-06-10T14:10:21Z</time>
      </trkpt>
      <trkpt lat="50.31919" lon="1.58359">
        <ele>7.9</ele>
        <time>2023-06-10T14:10:23Z</time>
      </trkpt>
      <trkpt lat="50.3192" lon="1.58371">
        <ele>7.9</ele>
        <time>2023-06-10T14:10:25Z</time>
      </trkpt>
      <trkpt lat="50.31921" lon="1.58382">
        <ele>7.8</ele>
        <time>2023-06-10T14:10:27Z</time>
      </trkpt>
      <trkpt lat="50.31921" lon="1.58393">
        <ele>7.8</ele>
        <time>2023-06-10T14:10:29Z</time>
      </trkpt>
      <trkpt lat="50.31921" lon="1.58403">
        <ele>7.8</ele>
        <time>2023-06-10T14:10:31Z</time>
      </trkpt>
      <trkpt lat="50.31922" lon="1.58413">
        <ele>7.8</ele>
        <time>2023-06-10T14:10:33Z</time>
      </trkpt>
      <trkpt lat="50.31923" lon="1.58423">
        <ele>7.8</ele>
        <time>2023-06-10T14:10:35Z</time>
      </trkpt>
      <trkpt lat="50.31924" lon="1.58434">
        <ele>7.7</ele>
        <time>2023-06-10T14:10:37Z</time>
      </trkpt>
      <trkpt lat="50.31925" lon="1.58442">
        <ele>7.7</ele>
        <time>2023-06-10T14:10:39Z</time>
      </trkpt>
      <trkpt lat="50.31925" lon="1.5845">
        <ele>7.7</ele>
        <time>2023-06-10T14:10:41Z</time>
      </trkpt>
      <trkpt lat="50.31928" lon="1.58459">
        <ele>7.6</ele>
        <time>2023-06-10T14:10:43Z</time>
      </trkpt>
      <trkpt lat="50.31929" lon="1.58468">
        <ele>7.6</ele>
        <time>2023-06-10T14:10:45Z</time>
      </trkpt>
      <trkpt lat="50.3193" lon="1.58477">
        <ele>7.5</ele>
        <time>2023-06-10T14:10:47Z</time>
      </trkpt>
      <trkpt lat="50.31929" lon="1.58488">
        <ele>7.6</ele>
        <time>2023-06-10T14:10:49Z</time>
      </trkpt>
      <trkpt lat="50.31927" lon="1.58498">
        <ele>7.6</ele>
        <time>2023-06-10T14:10:51Z</time>
      </trkpt>
      <trkpt lat="50.31924" lon="1.5851">
        <ele>7.7</ele>
        <time>2023-06-10T14:10:53Z</time>
      </trkpt>
      <trkpt lat="50.31923" lon="1.58521">
        <ele>7.8</ele>
        <time>2023-06-10T14:10:55Z</time>
      </trkpt>
      <trkpt lat="50.31921" lon="1.58533">
        <ele>7.8</ele>
        <time>2023-06-10T14:10:57Z</time>
      </trkpt>
      <trkpt lat="50.3192" lon="1.58546">
        <ele>7.9</ele>
        <time>2023-06-10T14:10:59Z</time>
      </trkpt>
      <trkpt lat="50.31918" lon="1.58558">
        <ele>7.9</ele>
        <time>2023-06-10T14:11:01Z</time>
      </trkpt>
      <trkpt lat="50.31916" lon="1.58572">
        <ele>7.4</ele>
        <time>2023-06-10T14:11:03Z</time>
      </trkpt>
      <trkpt lat="50.31914" lon="1.58586">
        <ele>7</ele>
        <time>2023-06-10T14:11:05Z</time>
      </trkpt>
      <trkpt lat="50.31912" lon="1.586">
        <ele>7</ele>
        <time>2023-06-10T14:11:07Z</time>
      </trkpt>
      <trkpt lat="50.31911" lon="1.58614">
        <ele>7</ele>
        <time>2023-06-10T14:11:09Z</time>
      </trkpt>
      <trkpt lat="50.31909" lon="1.58626">
        <ele>7</ele>
        <time>2023-06-10T14:11:11Z</time>
      </trkpt>
      <trkpt lat="50.31906" lon="1.58638">
        <ele>7</ele>
        <time>2023-06-10T14:11:13Z</time>
      </trkpt>
      <trkpt lat="50.31904" lon="1.58651">
        <ele>6.8</ele>
        <time>2023-06-10T14:11:15Z</time>
      </trkpt>
      <trkpt lat="50.31902" lon="1.58664">
        <ele>6.6</ele>
        <time>2023-06-10T14:11:17Z</time>
      </trkpt>
      <trkpt lat="50.319" lon="1.58676">
        <ele>6.6</ele>
        <time>2023-06-10T14:11:19Z</time>
      </trkpt>
      <trkpt lat="50.31897" lon="1.58687">
        <ele>6.7</ele>
        <time>2023-06-10T14:11:21Z</time>
      </trkpt>
      <trkpt lat="50.31895" lon="1.58699">
        <ele>6.8</ele>
        <time>2023-06-10T14:11:23Z</time>
      </trkpt>
      <trkpt lat="50.31892" lon="1.58709">
        <ele>6.9</ele>
        <time>2023-06-10T14:11:25Z</time>
      </trkpt>
      <trkpt lat="50.3189" lon="1.58721">
        <ele>7</ele>
        <time>2023-06-10T14:11:27Z</time>
      </trkpt>
      <trkpt lat="50.31889" lon="1.58728">
        <ele>6.8</ele>
        <time>2023-06-10T14:11:29Z</time>
      </trkpt>
      <trkpt lat="50.31883" lon="1.58731">
        <ele>6.6</ele>
        <time>2023-06-10T14:11:33Z</time>
      </trkpt>
      <trkpt lat="50.31879" lon="1.5873">
        <ele>6.5</ele>
        <time>2023-06-10T14:11:41Z</time>
      </trkpt>
      <trkpt lat="50.31871" lon="1.58732">
        <ele>6.2</ele>
        <time>2023-06-10T14:11:45Z</time>
      </trkpt>
      <trkpt lat="50.31868" lon="1.58739">
        <ele>6.1</ele>
        <time>2023-06-10T14:11:47Z</time>
      </trkpt>
      <trkpt lat="50.31865" lon="1.58749">
        <ele>6</ele>
        <time>2023-06-10T14:11:49Z</time>
      </trkpt>
      <trkpt lat="50.31865" lon="1.5876">
        <ele>6.1</ele>
        <time>2023-06-10T14:11:51Z</time>
      </trkpt>
      <trkpt lat="50.31864" lon="1.58772">
        <ele>6.1</ele>
        <time>2023-06-10T14:11:53Z</time>
      </trkpt>
      <trkpt lat="50.31863" lon="1.58785">
        <ele>6.1</ele>
        <time>2023-06-10T14:11:55Z</time>
      </trkpt>
      <trkpt lat="50.31863" lon="1.58797">
        <ele>6.1</ele>
        <time>2023-06-10T14:11:57Z</time>
      </trkpt>
      <trkpt lat="50.31863" lon="1.5881">
        <ele>6</ele>
        <time>2023-06-10T14:11:59Z</time>
      </trkpt>
      <trkpt lat="50.31862" lon="1.58823">
        <ele>6</ele>
        <time>2023-06-10T14:12:01Z</time>
      </trkpt>
      <trkpt lat="50.31861" lon="1.58836">
        <ele>6</ele>
        <time>2023-06-10T14:12:03Z</time>
      </trkpt>
      <trkpt lat="50.31859" lon="1.58849">
        <ele>6</ele>
        <time>2023-06-10T14:12:05Z</time>
      </trkpt>
      <trkpt lat="50.31858" lon="1.58862">
        <ele>6</ele>
        <time>2023-06-10T14:12:07Z</time>
      </trkpt>
      <trkpt lat="50.31857" lon="1.58875">
        <ele>6</ele>
        <time>2023-06-10T14:12:09Z</time>
      </trkpt>
      <trkpt lat="50.31856" lon="1.58889">
        <ele>6</ele>
        <time>2023-06-10T14:12:11Z</time>
      </trkpt>
      <trkpt lat="50.31855" lon="1.58903">
        <ele>6</ele>
        <time>2023-06-10T14:12:13Z</time>
      </trkpt>
      <trkpt lat="50.31853" lon="1.58918">
        <ele>6</ele>
        <time>2023-06-10T14:12:15Z</time>
      </trkpt>
      <trkpt lat="50.31852" lon="1.58932">
        <ele>6</ele>
        <time>2023-06-10T14:12:17Z</time>
      </trkpt>
      <trkpt lat="50.3185" lon="1.58947">
        <ele>6</ele>
        <time>2023-06-10T14:12:19Z</time>
      </trkpt>
      <trkpt lat="50.31849" lon="1.5896">
        <ele>6</ele>
        <time>2023-06-10T14:12:21Z</time>
      </trkpt>
      <trkpt lat="50.31848" lon="1.58973">
        <ele>6</ele>
        <time>2023-06-10T14:12:23Z</time>
      </trkpt>
      <trkpt lat="50.31846" lon="1.58987">
        <ele>6</ele>
        <time>2023-06-10T14:12:25Z</time>
      </trkpt>
      <trkpt lat="50.31845" lon="1.59">
        <ele>6</ele>
        <time>2023-06-10T14:12:27Z</time>
      </trkpt>
      <trkpt lat="50.31844" lon="1.59014">
        <ele>6</ele>
        <time>2023-06-10T14:12:29Z</time>
      </trkpt>
      <trkpt lat="50.31842" lon="1.59028">
        <ele>6</ele>
        <time>2023-06-10T14:12:31Z</time>
      </trkpt>
      <trkpt lat="50.3184" lon="1.59042">
        <ele>6</ele>
        <time>2023-06-10T14:12:33Z</time>
      </trkpt>
      <trkpt lat="50.31839" lon="1.59056">
        <ele>6</ele>
        <time>2023-06-10T14:12:35Z</time>
      </trkpt>
      <trkpt lat="50.31838" lon="1.59071">
        <ele>6</ele>
        <time>2023-06-10T14:12:37Z</time>
      </trkpt>
      <trkpt lat="50.31836" lon="1.59084">
        <ele>6</ele>
        <time>2023-06-10T14:12:39Z</time>
      </trkpt>
      <trkpt lat="50.31835" lon="1.59097">
        <ele>6</ele>
        <time>2023-06-10T14:12:41Z</time>
      </trkpt>
      <trkpt lat="50.31833" lon="1.59111">
        <ele>6</ele>
        <time>2023-06-10T14:12:43Z</time>
      </trkpt>
      <trkpt lat="50.31831" lon="1.59124">
        <ele>6</ele>
        <time>2023-06-10T14:12:45Z</time>
      </trkpt>
      <trkpt lat="50.3183" lon="1.59137">
        <ele>6</ele>
        <time>2023-06-10T14:12:47Z</time>
      </trkpt>
      <trkpt lat="50.31826" lon="1.59148">
        <ele>6</ele>
        <time>2023-06-10T14:12:49Z</time>
      </trkpt>
      <trkpt lat="50.31824" lon="1.5916">
        <ele>6</ele>
        <time>2023-06-10T14:12:51Z</time>
      </trkpt>
      <trkpt lat="50.31822" lon="1.59173">
        <ele>6</ele>
        <time>2023-06-10T14:12:53Z</time>
      </trkpt>
      <trkpt lat="50.3182" lon="1.59188">
        <ele>6</ele>
        <time>2023-06-10T14:12:55Z</time>
      </trkpt>
      <trkpt lat="50.31819" lon="1.59203">
        <ele>6</ele>
        <time>2023-06-10T14:12:57Z</time>
      </trkpt>
      <trkpt lat="50.31817" lon="1.59218">
        <ele>6</ele>
        <time>2023-06-10T14:12:59Z</time>
      </trkpt>
      <trkpt lat="50.31816" lon="1.59232">
        <ele>6</ele>
        <time>2023-06-10T14:13:01Z</time>
      </trkpt>
      <trkpt lat="50.31814" lon="1.59246">
        <ele>6</ele>
        <time>2023-06-10T14:13:03Z</time>
      </trkpt>
      <trkpt lat="50.31813" lon="1.59258">
        <ele>6</ele>
        <time>2023-06-10T14:13:05Z</time>
      </trkpt>
      <trkpt lat="50.31813" lon="1.5927">
        <ele>6</ele>
        <time>2023-06-10T14:13:07Z</time>
      </trkpt>
      <trkpt lat="50.31811" lon="1.59284">
        <ele>6</ele>
        <time>2023-06-10T14:13:09Z</time>
      </trkpt>
      <trkpt lat="50.3181" lon="1.59296">
        <ele>6</ele>
        <time>2023-06-10T14:13:11Z</time>
      </trkpt>
      <trkpt lat="50.3181" lon="1.59307">
        <ele>6</ele>
        <time>2023-06-10T14:13:13Z</time>
      </trkpt>
      <trkpt lat="50.31808" lon="1.59314">
        <ele>6</ele>
        <time>2023-06-10T14:13:15Z</time>
      </trkpt>
      <trkpt lat="50.31806" lon="1.59325">
        <ele>6</ele>
        <time>2023-06-10T14:13:19Z</time>
      </trkpt>
      <trkpt lat="50.31806" lon="1.59333">
        <ele>6</ele>
        <time>2023-06-10T14:13:21Z</time>
      </trkpt>
      <trkpt lat="50.31806" lon="1.59341">
        <ele>6</ele>
        <time>2023-06-10T14:13:33Z</time>
      </trkpt>
      <trkpt lat="50.31806" lon="1.59349">
        <ele>6</ele>
        <time>2023-06-10T14:13:55Z</time>
      </trkpt>
      <trkpt lat="50.31804" lon="1.59364">
        <ele>6</ele>
        <time>2023-06-10T14:13:59Z</time>
      </trkpt>
      <trkpt lat="50.31805" lon="1.59375">
        <ele>6</ele>
        <time>2023-06-10T14:14:01Z</time>
      </trkpt>
      <trkpt lat="50.31805" lon="1.59386">
        <ele>6</ele>
        <time>2023-06-10T14:14:03Z</time>
      </trkpt>
      <trkpt lat="50.31803" lon="1.59397">
        <ele>6</ele>
        <time>2023-06-10T14:14:05Z</time>
      </trkpt>
      <trkpt lat="50.31805" lon="1.59409">
        <ele>6</ele>
        <time>2023-06-10T14:14:07Z</time>
      </trkpt>
      <trkpt lat="50.31809" lon="1.5942">
        <ele>6</ele>
        <time>2023-06-10T14:14:09Z</time>
      </trkpt>
      <trkpt lat="50.3181" lon="1.59433">
        <ele>6</ele>
        <time>2023-06-10T14:14:11Z</time>
      </trkpt>
      <trkpt lat="50.31811" lon="1.59446">
        <ele>6</ele>
        <time>2023-06-10T14:14:13Z</time>
      </trkpt>
      <trkpt lat="50.31812" lon="1.59459">
        <ele>6</ele>
        <time>2023-06-10T14:14:15Z</time>
      </trkpt>
      <trkpt lat="50.31812" lon="1.59473">
        <ele>6</ele>
        <time>2023-06-10T14:14:17Z</time>
      </trkpt>
      <trkpt lat="50.31812" lon="1.59485">
        <ele>6</ele>
        <time>2023-06-10T14:14:19Z</time>
      </trkpt>
      <trkpt lat="50.31811" lon="1.59499">
        <ele>6</ele>
        <time>2023-06-10T14:14:21Z</time>
      </trkpt>
      <trkpt lat="50.31811" lon="1.59514">
        <ele>6</ele>
        <time>2023-06-10T14:14:23Z</time>
      </trkpt>
      <trkpt lat="50.3181" lon="1.59527">
        <ele>6</ele>
        <time>2023-06-10T14:14:25Z</time>
      </trkpt>
      <trkpt lat="50.31809" lon="1.5954">
        <ele>6</ele>
        <time>2023-06-10T14:14:27Z</time>
      </trkpt>
      <trkpt lat="50.31806" lon="1.59552">
        <ele>6</ele>
        <time>2023-06-10T14:14:29Z</time>
      </trkpt>
      <trkpt lat="50.31802" lon="1.59565">
        <ele>6</ele>
        <time>2023-06-10T14:14:31Z</time>
      </trkpt>
      <trkpt lat="50.318" lon="1.59577">
        <ele>6</ele>
        <time>2023-06-10T14:14:33Z</time>
      </trkpt>
      <trkpt lat="50.31796" lon="1.59588">
        <ele>6</ele>
        <time>2023-06-10T14:14:35Z</time>
      </trkpt>
      <trkpt lat="50.3179" lon="1.59595">
        <ele>6</ele>
        <time>2023-06-10T14:14:37Z</time>
      </trkpt>
      <trkpt lat="50.31785" lon="1.59601">
        <ele>6</ele>
        <time>2023-06-10T14:14:39Z</time>
      </trkpt>
      <trkpt lat="50.3178" lon="1.59608">
        <ele>6</ele>
        <time>2023-06-10T14:14:41Z</time>
      </trkpt>
      <trkpt lat="50.31774" lon="1.59615">
        <ele>6</ele>
        <time>2023-06-10T14:14:43Z</time>
      </trkpt>
      <trkpt lat="50.31768" lon="1.59621">
        <ele>5.9</ele>
        <time>2023-06-10T14:14:45Z</time>
      </trkpt>
      <trkpt lat="50.31761" lon="1.59625">
        <ele>5.7</ele>
        <time>2023-06-10T14:14:47Z</time>
      </trkpt>
      <trkpt lat="50.31754" lon="1.59627">
        <ele>5.5</ele>
        <time>2023-06-10T14:14:49Z</time>
      </trkpt>
      <trkpt lat="50.31747" lon="1.59629">
        <ele>5.3</ele>
        <time>2023-06-10T14:14:51Z</time>
      </trkpt>
      <trkpt lat="50.31741" lon="1.59631">
        <ele>5.2</ele>
        <time>2023-06-10T14:14:53Z</time>
      </trkpt>
      <trkpt lat="50.31735" lon="1.59634">
        <ele>5.1</ele>
        <time>2023-06-10T14:14:55Z</time>
      </trkpt>
      <trkpt lat="50.3173" lon="1.59637">
        <ele>5</ele>
        <time>2023-06-10T14:14:57Z</time>
      </trkpt>
      <trkpt lat="50.31726" lon="1.59642">
        <ele>5</ele>
        <time>2023-06-10T14:14:59Z</time>
      </trkpt>
      <trkpt lat="50.31722" lon="1.59649">
        <ele>5</ele>
        <time>2023-06-10T14:15:01Z</time>
      </trkpt>
      <trkpt lat="50.31718" lon="1.59657">
        <ele>5</ele>
        <time>2023-06-10T14:15:03Z</time>
      </trkpt>
      <trkpt lat="50.31715" lon="1.59664">
        <ele>5</ele>
        <time>2023-06-10T14:15:05Z</time>
      </trkpt>
      <trkpt lat="50.31711" lon="1.59671">
        <ele>5</ele>
        <time>2023-06-10T14:15:07Z</time>
      </trkpt>
      <trkpt lat="50.31708" lon="1.59677">
        <ele>5</ele>
        <time>2023-06-10T14:15:09Z</time>
      </trkpt>
      <trkpt lat="50.31704" lon="1.59682">
        <ele>5</ele>
        <time>2023-06-10T14:15:11Z</time>
      </trkpt>
      <trkpt lat="50.31703" lon="1.59695">
        <ele>5</ele>
        <time>2023-06-10T14:15:15Z</time>
      </trkpt>
      <trkpt lat="50.31707" lon="1.59701">
        <ele>5</ele>
        <time>2023-06-10T14:15:17Z</time>
      </trkpt>
      <trkpt lat="50.31713" lon="1.59707">
        <ele>5</ele>
        <time>2023-06-10T14:15:19Z</time>
      </trkpt>
      <trkpt lat="50.31718" lon="1.59712">
        <ele>5</ele>
        <time>2023-06-10T14:15:21Z</time>
      </trkpt>
      <trkpt lat="50.31724" lon="1.59721">
        <ele>5</ele>
        <time>2023-06-10T14:15:24Z</time>
      </trkpt>
      <trkpt lat="50.31729" lon="1.59725">
        <ele>5</ele>
        <time>2023-06-10T14:15:26Z</time>
      </trkpt>
      <trkpt lat="50.31734" lon="1.59731">
        <ele>5</ele>
        <time>2023-06-10T14:15:28Z</time>
      </trkpt>
      <trkpt lat="50.31739" lon="1.59738">
        <ele>5</ele>
        <time>2023-06-10T14:15:30Z</time>
      </trkpt>
      <trkpt lat="50.31744" lon="1.59745">
        <ele>5</ele>
        <time>2023-06-10T14:15:32Z</time>
      </trkpt>
      <trkpt lat="50.31749" lon="1.59752">
        <ele>5</ele>
        <time>2023-06-10T14:15:34Z</time>
      </trkpt>
      <trkpt lat="50.31755" lon="1.59759">
        <ele>5</ele>
        <time>2023-06-10T14:15:36Z</time>
      </trkpt>
      <trkpt lat="50.31759" lon="1.59768">
        <ele>5</ele>
        <time>2023-06-10T14:15:38Z</time>
      </trkpt>
      <trkpt lat="50.31762" lon="1.59775">
        <ele>5</ele>
        <time>2023-06-10T14:15:40Z</time>
      </trkpt>
      <trkpt lat="50.31766" lon="1.59783">
        <ele>5</ele>
        <time>2023-06-10T14:15:42Z</time>
      </trkpt>
      <trkpt lat="50.31768" lon="1.59792">
        <ele>5</ele>
        <time>2023-06-10T14:15:44Z</time>
      </trkpt>
      <trkpt lat="50.31771" lon="1.59802">
        <ele>5</ele>
        <time>2023-06-10T14:15:46Z</time>
      </trkpt>
      <trkpt lat="50.31773" lon="1.59812">
        <ele>5</ele>
        <time>2023-06-10T14:15:48Z</time>
      </trkpt>
      <trkpt lat="50.31776" lon="1.59822">
        <ele>5</ele>
        <time>2023-06-10T14:15:50Z</time>
      </trkpt>
      <trkpt lat="50.31778" lon="1.59832">
        <ele>5</ele>
        <time>2023-06-10T14:15:52Z</time>
      </trkpt>
      <trkpt lat="50.31782" lon="1.59839">
        <ele>5</ele>
        <time>2023-06-10T14:15:54Z</time>
      </trkpt>
      <trkpt lat="50.31787" lon="1.59847">
        <ele>5</ele>
        <time>2023-06-10T14:15:56Z</time>
      </trkpt>
      <trkpt lat="50.3179" lon="1.59857">
        <ele>5</ele>
        <time>2023-06-10T14:15:58Z</time>
      </trkpt>
      <trkpt lat="50.3179" lon="1.59867">
        <ele>5</ele>
        <time>2023-06-10T14:16:00Z</time>
      </trkpt>
      <trkpt lat="50.3179" lon="1.59877">
        <ele>5</ele>
        <time>2023-06-10T14:16:02Z</time>
      </trkpt>
      <trkpt lat="50.3179" lon="1.59888">
        <ele>5</ele>
        <time>2023-06-10T14:16:04Z</time>
      </trkpt>
      <trkpt lat="50.31789" lon="1.59898">
        <ele>5</ele>
        <time>2023-06-10T14:16:06Z</time>
      </trkpt>
      <trkpt lat="50.31787" lon="1.59909">
        <ele>5</ele>
        <time>2023-06-10T14:16:08Z</time>
      </trkpt>
      <trkpt lat="50.31784" lon="1.5992">
        <ele>5</ele>
        <time>2023-06-10T14:16:10Z</time>
      </trkpt>
      <trkpt lat="50.31781" lon="1.59931">
        <ele>5</ele>
        <time>2023-06-10T14:16:12Z</time>
      </trkpt>
      <trkpt lat="50.31777" lon="1.59941">
        <ele>5</ele>
        <time>2023-06-10T14:16:14Z</time>
      </trkpt>
      <trkpt lat="50.31771" lon="1.59949">
        <ele>5</ele>
        <time>2023-06-10T14:16:16Z</time>
      </trkpt>
      <trkpt lat="50.31764" lon="1.59958">
        <ele>5</ele>
        <time>2023-06-10T14:16:18Z</time>
      </trkpt>
      <trkpt lat="50.31758" lon="1.59966">
        <ele>5</ele>
        <time>2023-06-10T14:16:20Z</time>
      </trkpt>
      <trkpt lat="50.31752" lon="1.59974">
        <ele>5</ele>
        <time>2023-06-10T14:16:22Z</time>
      </trkpt>
      <trkpt lat="50.31746" lon="1.59983">
        <ele>5</ele>
        <time>2023-06-10T14:16:24Z</time>
      </trkpt>
      <trkpt lat="50.31741" lon="1.59992">
        <ele>5</ele>
        <time>2023-06-10T14:16:26Z</time>
      </trkpt>
      <trkpt lat="50.31736" lon="1.60002">
        <ele>5</ele>
        <time>2023-06-10T14:16:28Z</time>
      </trkpt>
      <trkpt lat="50.31731" lon="1.60011">
        <ele>5</ele>
        <time>2023-06-10T14:16:30Z</time>
      </trkpt>
      <trkpt lat="50.31726" lon="1.60021">
        <ele>5</ele>
        <time>2023-06-10T14:16:32Z</time>
      </trkpt>
      <trkpt lat="50.31721" lon="1.6003">
        <ele>5</ele>
        <time>2023-06-10T14:16:34Z</time>
      </trkpt>
      <trkpt lat="50.31715" lon="1.60036">
        <ele>5</ele>
        <time>2023-06-10T14:16:36Z</time>
      </trkpt>
      <trkpt lat="50.31707" lon="1.60041">
        <ele>5</ele>
        <time>2023-06-10T14:16:38Z</time>
      </trkpt>
      <trkpt lat="50.31699" lon="1.60046">
        <ele>5</ele>
        <time>2023-06-10T14:16:40Z</time>
      </trkpt>
      <trkpt lat="50.31691" lon="1.6005">
        <ele>5</ele>
        <time>2023-06-10T14:16:42Z</time>
      </trkpt>
      <trkpt lat="50.31682" lon="1.60054">
        <ele>5</ele>
        <time>2023-06-10T14:16:44Z</time>
      </trkpt>
      <trkpt lat="50.31674" lon="1.60055">
        <ele>5</ele>
        <time>2023-06-10T14:16:46Z</time>
      </trkpt>
      <trkpt lat="50.31666" lon="1.60057">
        <ele>5</ele>
        <time>2023-06-10T14:16:48Z</time>
      </trkpt>
      <trkpt lat="50.31658" lon="1.6006">
        <ele>5</ele>
        <time>2023-06-10T14:16:50Z</time>
      </trkpt>
      <trkpt lat="50.3165" lon="1.60063">
        <ele>5</ele>
        <time>2023-06-10T14:16:52Z</time>
      </trkpt>
      <trkpt lat="50.31643" lon="1.60066">
        <ele>5</ele>
        <time>2023-06-10T14:16:54Z</time>
      </trkpt>
      <trkpt lat="50.31635" lon="1.6007">
        <ele>5</ele>
        <time>2023-06-10T14:16:56Z</time>
      </trkpt>
      <trkpt lat="50.31625" lon="1.60074">
        <ele>5</ele>
        <time>2023-06-10T14:16:58Z</time>
      </trkpt>
      <trkpt lat="50.31616" lon="1.60076">
        <ele>5</ele>
        <time>2023-06-10T14:17:00Z</time>
      </trkpt>
      <trkpt lat="50.31607" lon="1.60078">
        <ele>5</ele>
        <time>2023-06-10T14:17:02Z</time>
      </trkpt>
      <trkpt lat="50.31597" lon="1.6008">
        <ele>5</ele>
        <time>2023-06-10T14:17:04Z</time>
      </trkpt>
      <trkpt lat="50.31589" lon="1.60082">
        <ele>5</ele>
        <time>2023-06-10T14:17:06Z</time>
      </trkpt>
      <trkpt lat="50.3158" lon="1.60084">
        <ele>5</ele>
        <time>2023-06-10T14:17:08Z</time>
      </trkpt>
      <trkpt lat="50.31572" lon="1.60085">
        <ele>5</ele>
        <time>2023-06-10T14:17:10Z</time>
      </trkpt>
      <trkpt lat="50.31563" lon="1.60088">
        <ele>5</ele>
        <time>2023-06-10T14:17:12Z</time>
      </trkpt>
      <trkpt lat="50.31555" lon="1.60091">
        <ele>5</ele>
        <time>2023-06-10T14:17:14Z</time>
      </trkpt>
      <trkpt lat="50.31545" lon="1.60093">
        <ele>5</ele>
        <time>2023-06-10T14:17:16Z</time>
      </trkpt>
      <trkpt lat="50.31536" lon="1.60096">
        <ele>5</ele>
        <time>2023-06-10T14:17:18Z</time>
      </trkpt>
      <trkpt lat="50.31526" lon="1.60099">
        <ele>5</ele>
        <time>2023-06-10T14:17:20Z</time>
      </trkpt>
      <trkpt lat="50.31517" lon="1.60103">
        <ele>5</ele>
        <time>2023-06-10T14:17:22Z</time>
      </trkpt>
      <trkpt lat="50.31508" lon="1.60106">
        <ele>5</ele>
        <time>2023-06-10T14:17:24Z</time>
      </trkpt>
      <trkpt lat="50.315" lon="1.60111">
        <ele>5</ele>
        <time>2023-06-10T14:17:26Z</time>
      </trkpt>
      <trkpt lat="50.31491" lon="1.60117">
        <ele>5</ele>
        <time>2023-06-10T14:17:28Z</time>
      </trkpt>
      <trkpt lat="50.31483" lon="1.60124">
        <ele>5</ele>
        <time>2023-06-10T14:17:30Z</time>
      </trkpt>
      <trkpt lat="50.31474" lon="1.6013">
        <ele>5</ele>
        <time>2023-06-10T14:17:32Z</time>
      </trkpt>
      <trkpt lat="50.31466" lon="1.60138">
        <ele>5</ele>
        <time>2023-06-10T14:17:34Z</time>
      </trkpt>
      <trkpt lat="50.31459" lon="1.60145">
        <ele>5</ele>
        <time>2023-06-10T14:17:36Z</time>
      </trkpt>
      <trkpt lat="50.31452" lon="1.60152">
        <ele>5</ele>
        <time>2023-06-10T14:17:38Z</time>
      </trkpt>
      <trkpt lat="50.31445" lon="1.60161">
        <ele>5</ele>
        <time>2023-06-10T14:17:40Z</time>
      </trkpt>
      <trkpt lat="50.31438" lon="1.6017">
        <ele>5</ele>
        <time>2023-06-10T14:17:42Z</time>
      </trkpt>
      <trkpt lat="50.31431" lon="1.60181">
        <ele>5</ele>
        <time>2023-06-10T14:17:44Z</time>
      </trkpt>
      <trkpt lat="50.31424" lon="1.60193">
        <ele>5</ele>
        <time>2023-06-10T14:17:46Z</time>
      </trkpt>
      <trkpt lat="50.31418" lon="1.60204">
        <ele>5</ele>
        <time>2023-06-10T14:17:48Z</time>
      </trkpt>
      <trkpt lat="50.31411" lon="1.60216">
        <ele>5</ele>
        <time>2023-06-10T14:17:50Z</time>
      </trkpt>
      <trkpt lat="50.31406" lon="1.60229">
        <ele>4.8</ele>
        <time>2023-06-10T14:17:52Z</time>
      </trkpt>
      <trkpt lat="50.31403" lon="1.60241">
        <ele>4.7</ele>
        <time>2023-06-10T14:17:54Z</time>
      </trkpt>
      <trkpt lat="50.31399" lon="1.60253">
        <ele>4.7</ele>
        <time>2023-06-10T14:17:56Z</time>
      </trkpt>
      <trkpt lat="50.31394" lon="1.60265">
        <ele>4.9</ele>
        <time>2023-06-10T14:17:58Z</time>
      </trkpt>
      <trkpt lat="50.3139" lon="1.60277">
        <ele>5</ele>
        <time>2023-06-10T14:18:00Z</time>
      </trkpt>
      <trkpt lat="50.31384" lon="1.60288">
        <ele>4.9</ele>
        <time>2023-06-10T14:18:02Z</time>
      </trkpt>
      <trkpt lat="50.31379" lon="1.60299">
        <ele>4.9</ele>
        <time>2023-06-10T14:18:04Z</time>
      </trkpt>
      <trkpt lat="50.31375" lon="1.60311">
        <ele>5.1</ele>
        <time>2023-06-10T14:18:06Z</time>
      </trkpt>
      <trkpt lat="50.3137" lon="1.60322">
        <ele>5.2</ele>
        <time>2023-06-10T14:18:08Z</time>
      </trkpt>
      <trkpt lat="50.31365" lon="1.60334">
        <ele>5.1</ele>
        <time>2023-06-10T14:18:10Z</time>
      </trkpt>
      <trkpt lat="50.3136" lon="1.60343">
        <ele>5.3</ele>
        <time>2023-06-10T14:18:12Z</time>
      </trkpt>
      <trkpt lat="50.31355" lon="1.60352">
        <ele>5.5</ele>
        <time>2023-06-10T14:18:14Z</time>
      </trkpt>
      <trkpt lat="50.31351" lon="1.6036">
        <ele>5.6</ele>
        <time>2023-06-10T14:18:16Z</time>
      </trkpt>
      <trkpt lat="50.31347" lon="1.60369">
        <ele>5.3</ele>
        <time>2023-06-10T14:18:18Z</time>
      </trkpt>
      <trkpt lat="50.31345" lon="1.60377">
        <ele>5.2</ele>
        <time>2023-06-10T14:18:20Z</time>
      </trkpt>
      <trkpt lat="50.31343" lon="1.60384">
        <ele>5.1</ele>
        <time>2023-06-10T14:18:22Z</time>
      </trkpt>
      <trkpt lat="50.31342" lon="1.60393">
        <ele>5</ele>
        <time>2023-06-10T14:18:24Z</time>
      </trkpt>
      <trkpt lat="50.31341" lon="1.60402">
        <ele>5</ele>
        <time>2023-06-10T14:18:26Z</time>
      </trkpt>
      <trkpt lat="50.31337" lon="1.60411">
        <ele>5</ele>
        <time>2023-06-10T14:18:28Z</time>
      </trkpt>
      <trkpt lat="50.31332" lon="1.60419">
        <ele>5</ele>
        <time>2023-06-10T14:18:30Z</time>
      </trkpt>
      <trkpt lat="50.31326" lon="1.60427">
        <ele>5</ele>
        <time>2023-06-10T14:18:32Z</time>
      </trkpt>
      <trkpt lat="50.3132" lon="1.60432">
        <ele>5</ele>
        <time>2023-06-10T14:18:34Z</time>
      </trkpt>
      <trkpt lat="50.31314" lon="1.60436">
        <ele>5</ele>
        <time>2023-06-10T14:18:36Z</time>
      </trkpt>
      <trkpt lat="50.31308" lon="1.60441">
        <ele>5</ele>
        <time>2023-06-10T14:18:38Z</time>
      </trkpt>
      <trkpt lat="50.313" lon="1.60443">
        <ele>5</ele>
        <time>2023-06-10T14:18:40Z</time>
      </trkpt>
      <trkpt lat="50.31292" lon="1.60444">
        <ele>5</ele>
        <time>2023-06-10T14:18:42Z</time>
      </trkpt>
      <trkpt lat="50.31283" lon="1.60444">
        <ele>5</ele>
        <time>2023-06-10T14:18:44Z</time>
      </trkpt>
      <trkpt lat="50.31275" lon="1.60445">
        <ele>5</ele>
        <time>2023-06-10T14:18:46Z</time>
      </trkpt>
      <trkpt lat="50.31266" lon="1.60448">
        <ele>5</ele>
        <time>2023-06-10T14:18:48Z</time>
      </trkpt>
      <trkpt lat="50.31258" lon="1.60452">
        <ele>5</ele>
        <time>2023-06-10T14:18:50Z</time>
      </trkpt>
      <trkpt lat="50.31251" lon="1.60457">
        <ele>5</ele>
        <time>2023-06-10T14:18:52Z</time>
      </trkpt>
      <trkpt lat="50.31244" lon="1.60461">
        <ele>5</ele>
        <time>2023-06-10T14:18:54Z</time>
      </trkpt>
      <trkpt lat="50.31237" lon="1.60466">
        <ele>5</ele>
        <time>2023-06-10T14:18:56Z</time>
      </trkpt>
      <trkpt lat="50.31231" lon="1.60472">
        <ele>5</ele>
        <time>2023-06-10T14:18:58Z</time>
      </trkpt>
      <trkpt lat="50.31225" lon="1.60478">
        <ele>5</ele>
        <time>2023-06-10T14:19:00Z</time>
      </trkpt>
      <trkpt lat="50.3122" lon="1.60484">
        <ele>5</ele>
        <time>2023-06-10T14:19:02Z</time>
      </trkpt>
      <trkpt lat="50.31215" lon="1.60491">
        <ele>5</ele>
        <time>2023-06-10T14:19:04Z</time>
      </trkpt>
      <trkpt lat="50.31209" lon="1.60496">
        <ele>5</ele>
        <time>2023-06-10T14:19:06Z</time>
      </trkpt>
      <trkpt lat="50.31203" lon="1.60498">
        <ele>5</ele>
        <time>2023-06-10T14:19:08Z</time>
      </trkpt>
      <trkpt lat="50.31196" lon="1.60498">
        <ele>5</ele>
        <time>2023-06-10T14:19:10Z</time>
      </trkpt>
      <trkpt lat="50.31188" lon="1.60498">
        <ele>5</ele>
        <time>2023-06-10T14:19:12Z</time>
      </trkpt>
      <trkpt lat="50.31181" lon="1.60499">
        <ele>5</ele>
        <time>2023-06-10T14:19:14Z</time>
      </trkpt>
      <trkpt lat="50.31173" lon="1.60501">
        <ele>5</ele>
        <time>2023-06-10T14:19:16Z</time>
      </trkpt>
      <trkpt lat="50.31165" lon="1.60503">
        <ele>5</ele>
        <time>2023-06-10T14:19:18Z</time>
      </trkpt>
      <trkpt lat="50.31157" lon="1.60506">
        <ele>5</ele>
        <time>2023-06-10T14:19:20Z</time>
      </trkpt>
      <trkpt lat="50.31149" lon="1.6051">
        <ele>5</ele>
        <time>2023-06-10T14:19:22Z</time>
      </trkpt>
      <trkpt lat="50.31142" lon="1.60513">
        <ele>5</ele>
        <time>2023-06-10T14:19:24Z</time>
      </trkpt>
      <trkpt lat="50.31135" lon="1.60516">
        <ele>5</ele>
        <time>2023-06-10T14:19:26Z</time>
      </trkpt>
      <trkpt lat="50.31128" lon="1.6052">
        <ele>5</ele>
        <time>2023-06-10T14:19:28Z</time>
      </trkpt>
      <trkpt lat="50.31119" lon="1.60523">
        <ele>5</ele>
        <time>2023-06-10T14:19:30Z</time>
      </trkpt>
      <trkpt lat="50.31111" lon="1.60527">
        <ele>5</ele>
        <time>2023-06-10T14:19:32Z</time>
      </trkpt>
      <trkpt lat="50.31103" lon="1.60531">
        <ele>5</ele>
        <time>2023-06-10T14:19:34Z</time>
      </trkpt>
      <trkpt lat="50.31094" lon="1.60534">
        <ele>5</ele>
        <time>2023-06-10T14:19:36Z</time>
      </trkpt>
      <trkpt lat="50.31086" lon="1.60538">
        <ele>5</ele>
        <time>2023-06-10T14:19:38Z</time>
      </trkpt>
      <trkpt lat="50.31077" lon="1.60542">
        <ele>4.9</ele>
        <time>2023-06-10T14:19:40Z</time>
      </trkpt>
      <trkpt lat="50.31069" lon="1.60546">
        <ele>4.8</ele>
        <time>2023-06-10T14:19:42Z</time>
      </trkpt>
      <trkpt lat="50.3106" lon="1.6055">
        <ele>4.8</ele>
        <time>2023-06-10T14:19:44Z</time>
      </trkpt>
      <trkpt lat="50.3105" lon="1.60554">
        <ele>5</ele>
        <time>2023-06-10T14:19:46Z</time>
      </trkpt>
      <trkpt lat="50.31041" lon="1.60558">
        <ele>5</ele>
        <time>2023-06-10T14:19:48Z</time>
      </trkpt>
      <trkpt lat="50.31031" lon="1.60563">
        <ele>5</ele>
        <time>2023-06-10T14:19:50Z</time>
      </trkpt>
      <trkpt lat="50.31022" lon="1.60566">
        <ele>4.9</ele>
        <time>2023-06-10T14:19:52Z</time>
      </trkpt>
      <trkpt lat="50.31013" lon="1.60569">
        <ele>4.7</ele>
        <time>2023-06-10T14:19:54Z</time>
      </trkpt>
      <trkpt lat="50.31003" lon="1.60571">
        <ele>4.6</ele>
        <time>2023-06-10T14:19:56Z</time>
      </trkpt>
      <trkpt lat="50.30994" lon="1.60574">
        <ele>4.7</ele>
        <time>2023-06-10T14:19:58Z</time>
      </trkpt>
      <trkpt lat="50.30984" lon="1.60576">
        <ele>4.9</ele>
        <time>2023-06-10T14:20:00Z</time>
      </trkpt>
      <trkpt lat="50.30975" lon="1.60581">
        <ele>5</ele>
        <time>2023-06-10T14:20:02Z</time>
      </trkpt>
      <trkpt lat="50.30966" lon="1.60586">
        <ele>5</ele>
        <time>2023-06-10T14:20:04Z</time>
      </trkpt>
      <trkpt lat="50.30957" lon="1.60592">
        <ele>5</ele>
        <time>2023-06-10T14:20:06Z</time>
      </trkpt>
      <trkpt lat="50.30948" lon="1.60597">
        <ele>5</ele>
        <time>2023-06-10T14:20:08Z</time>
      </trkpt>
      <trkpt lat="50.3094" lon="1.60602">
        <ele>4.9</ele>
        <time>2023-06-10T14:20:10Z</time>
      </trkpt>
      <trkpt lat="50.30932" lon="1.60607">
        <ele>4.6</ele>
        <time>2023-06-10T14:20:12Z</time>
      </trkpt>
      <trkpt lat="50.30924" lon="1.60613">
        <ele>4.3</ele>
        <time>2023-06-10T14:20:14Z</time>
      </trkpt>
      <trkpt lat="50.30916" lon="1.6062">
        <ele>4</ele>
        <time>2023-06-10T14:20:16Z</time>
      </trkpt>
      <trkpt lat="50.30908" lon="1.60627">
        <ele>4.1</ele>
        <time>2023-06-10T14:20:18Z</time>
      </trkpt>
      <trkpt lat="50.30901" lon="1.60636">
        <ele>4.1</ele>
        <time>2023-06-10T14:20:20Z</time>
      </trkpt>
      <trkpt lat="50.30893" lon="1.60644">
        <ele>4</ele>
        <time>2023-06-10T14:20:22Z</time>
      </trkpt>
      <trkpt lat="50.30885" lon="1.60652">
        <ele>4</ele>
        <time>2023-06-10T14:20:24Z</time>
      </trkpt>
      <trkpt lat="50.30878" lon="1.60661">
        <ele>4</ele>
        <time>2023-06-10T14:20:26Z</time>
      </trkpt>
      <trkpt lat="50.3087" lon="1.6067">
        <ele>4</ele>
        <time>2023-06-10T14:20:28Z</time>
      </trkpt>
      <trkpt lat="50.30863" lon="1.60678">
        <ele>4</ele>
        <time>2023-06-10T14:20:30Z</time>
      </trkpt>
      <trkpt lat="50.30856" lon="1.60687">
        <ele>4.1</ele>
        <time>2023-06-10T14:20:32Z</time>
      </trkpt>
      <trkpt lat="50.30849" lon="1.60695">
        <ele>4</ele>
        <time>2023-06-10T14:20:34Z</time>
      </trkpt>
      <trkpt lat="50.30842" lon="1.60704">
        <ele>4.2</ele>
        <time>2023-06-10T14:20:36Z</time>
      </trkpt>
      <trkpt lat="50.30835" lon="1.60712">
        <ele>4.6</ele>
        <time>2023-06-10T14:20:38Z</time>
      </trkpt>
      <trkpt lat="50.30828" lon="1.60719">
        <ele>4.7</ele>
        <time>2023-06-10T14:20:40Z</time>
      </trkpt>
      <trkpt lat="50.30821" lon="1.60728">
        <ele>4.5</ele>
        <time>2023-06-10T14:20:42Z</time>
      </trkpt>
      <trkpt lat="50.30814" lon="1.60735">
        <ele>4.5</ele>
        <time>2023-06-10T14:20:44Z</time>
      </trkpt>
      <trkpt lat="50.30808" lon="1.60743">
        <ele>4.7</ele>
        <time>2023-06-10T14:20:46Z</time>
      </trkpt>
      <trkpt lat="50.30801" lon="1.60751">
        <ele>5</ele>
        <time>2023-06-10T14:20:48Z</time>
      </trkpt>
      <trkpt lat="50.30794" lon="1.6076">
        <ele>4.8</ele>
        <time>2023-06-10T14:20:50Z</time>
      </trkpt>
      <trkpt lat="50.30787" lon="1.60768">
        <ele>4.8</ele>
        <time>2023-06-10T14:20:52Z</time>
      </trkpt>
      <trkpt lat="50.30781" lon="1.60776">
        <ele>4.9</ele>
        <time>2023-06-10T14:20:54Z</time>
      </trkpt>
      <trkpt lat="50.30774" lon="1.60782">
        <ele>4.9</ele>
        <time>2023-06-10T14:20:56Z</time>
      </trkpt>
      <trkpt lat="50.30767" lon="1.60783">
        <ele>4.9</ele>
        <time>2023-06-10T14:20:58Z</time>
      </trkpt>
      <trkpt lat="50.30762" lon="1.60779">
        <ele>5</ele>
        <time>2023-06-10T14:21:00Z</time>
      </trkpt>
      <trkpt lat="50.30758" lon="1.60773">
        <ele>5</ele>
        <time>2023-06-10T14:21:02Z</time>
      </trkpt>
      <trkpt lat="50.30754" lon="1.60769">
        <ele>5</ele>
        <time>2023-06-10T14:21:04Z</time>
      </trkpt>
      <trkpt lat="50.30749" lon="1.60764">
        <ele>5</ele>
        <time>2023-06-10T14:21:06Z</time>
      </trkpt>
      <trkpt lat="50.30743" lon="1.60758">
        <ele>5</ele>
        <time>2023-06-10T14:21:08Z</time>
      </trkpt>
      <trkpt lat="50.30736" lon="1.60754">
        <ele>5</ele>
        <time>2023-06-10T14:21:10Z</time>
      </trkpt>
      <trkpt lat="50.30728" lon="1.60752">
        <ele>5</ele>
        <time>2023-06-10T14:21:12Z</time>
      </trkpt>
      <trkpt lat="50.3072" lon="1.60752">
        <ele>5</ele>
        <time>2023-06-10T14:21:14Z</time>
      </trkpt>
      <trkpt lat="50.30712" lon="1.60751">
        <ele>5</ele>
        <time>2023-06-10T14:21:16Z</time>
      </trkpt>
      <trkpt lat="50.30703" lon="1.60751">
        <ele>5</ele>
        <time>2023-06-10T14:21:18Z</time>
      </trkpt>
      <trkpt lat="50.30694" lon="1.60749">
        <ele>5</ele>
        <time>2023-06-10T14:21:20Z</time>
      </trkpt>
      <trkpt lat="50.30684" lon="1.60747">
        <ele>5</ele>
        <time>2023-06-10T14:21:22Z</time>
      </trkpt>
      <trkpt lat="50.30676" lon="1.60743">
        <ele>4.8</ele>
        <time>2023-06-10T14:21:24Z</time>
      </trkpt>
      <trkpt lat="50.30667" lon="1.60739">
        <ele>4.6</ele>
        <time>2023-06-10T14:21:26Z</time>
      </trkpt>
      <trkpt lat="50.30658" lon="1.60734">
        <ele>4.6</ele>
        <time>2023-06-10T14:21:28Z</time>
      </trkpt>
      <trkpt lat="50.30649" lon="1.60729">
        <ele>4.7</ele>
        <time>2023-06-10T14:21:30Z</time>
      </trkpt>
      <trkpt lat="50.3064" lon="1.60723">
        <ele>5</ele>
        <time>2023-06-10T14:21:32Z</time>
      </trkpt>
      <trkpt lat="50.30632" lon="1.60717">
        <ele>5</ele>
        <time>2023-06-10T14:21:34Z</time>
      </trkpt>
      <trkpt lat="50.30623" lon="1.60711">
        <ele>4.8</ele>
        <time>2023-06-10T14:21:36Z</time>
      </trkpt>
      <trkpt lat="50.30613" lon="1.60704">
        <ele>4.4</ele>
        <time>2023-06-10T14:21:38Z</time>
      </trkpt>
      <trkpt lat="50.30604" lon="1.60698">
        <ele>4.1</ele>
        <time>2023-06-10T14:21:40Z</time>
      </trkpt>
      <trkpt lat="50.30596" lon="1.60693">
        <ele>4</ele>
        <time>2023-06-10T14:21:42Z</time>
      </trkpt>
      <trkpt lat="50.30588" lon="1.60687">
        <ele>4.2</ele>
        <time>2023-06-10T14:21:44Z</time>
      </trkpt>
      <trkpt lat="50.3058" lon="1.60681">
        <ele>4.5</ele>
        <time>2023-06-10T14:21:46Z</time>
      </trkpt>
      <trkpt lat="50.30572" lon="1.60675">
        <ele>4.8</ele>
        <time>2023-06-10T14:21:48Z</time>
      </trkpt>
      <trkpt lat="50.30564" lon="1.60668">
        <ele>5</ele>
        <time>2023-06-10T14:21:50Z</time>
      </trkpt>
      <trkpt lat="50.30556" lon="1.60663">
        <ele>4.9</ele>
        <time>2023-06-10T14:21:52Z</time>
      </trkpt>
      <trkpt lat="50.30548" lon="1.60657">
        <ele>4.8</ele>
        <time>2023-06-10T14:21:54Z</time>
      </trkpt>
      <trkpt lat="50.3054" lon="1.60652">
        <ele>4.8</ele>
        <time>2023-06-10T14:21:56Z</time>
      </trkpt>
      <trkpt lat="50.30532" lon="1.60647">
        <ele>4.9</ele>
        <time>2023-06-10T14:21:58Z</time>
      </trkpt>
      <trkpt lat="50.30524" lon="1.60641">
        <ele>5</ele>
        <time>2023-06-10T14:22:00Z</time>
      </trkpt>
      <trkpt lat="50.30517" lon="1.60634">
        <ele>5</ele>
        <time>2023-06-10T14:22:02Z</time>
      </trkpt>
      <trkpt lat="50.30511" lon="1.60627">
        <ele>5</ele>
        <time>2023-06-10T14:22:04Z</time>
      </trkpt>
      <trkpt lat="50.30504" lon="1.60621">
        <ele>5</ele>
        <time>2023-06-10T14:22:06Z</time>
      </trkpt>
      <trkpt lat="50.30497" lon="1.60614">
        <ele>5</ele>
        <time>2023-06-10T14:22:08Z</time>
      </trkpt>
      <trkpt lat="50.3049" lon="1.60607">
        <ele>5</ele>
        <time>2023-06-10T14:22:10Z</time>
      </trkpt>
      <trkpt lat="50.30482" lon="1.606">
        <ele>5</ele>
        <time>2023-06-10T14:22:12Z</time>
      </trkpt>
      <trkpt lat="50.30474" lon="1.60591">
        <ele>5</ele>
        <time>2023-06-10T14:22:14Z</time>
      </trkpt>
      <trkpt lat="50.30467" lon="1.60582">
        <ele>5</ele>
        <time>2023-06-10T14:22:16Z</time>
      </trkpt>
      <trkpt lat="50.3046" lon="1.60574">
        <ele>5</ele>
        <time>2023-06-10T14:22:18Z</time>
      </trkpt>
      <trkpt lat="50.30453" lon="1.60567">
        <ele>5</ele>
        <time>2023-06-10T14:22:20Z</time>
      </trkpt>
      <trkpt lat="50.30445" lon="1.60562">
        <ele>5</ele>
        <time>2023-06-10T14:22:22Z</time>
      </trkpt>
      <trkpt lat="50.30438" lon="1.60557">
        <ele>5</ele>
        <time>2023-06-10T14:22:24Z</time>
      </trkpt>
      <trkpt lat="50.30429" lon="1.60552">
        <ele>5</ele>
        <time>2023-06-10T14:22:26Z</time>
      </trkpt>
      <trkpt lat="50.30421" lon="1.60546">
        <ele>5</ele>
        <time>2023-06-10T14:22:28Z</time>
      </trkpt>
      <trkpt lat="50.30413" lon="1.6054">
        <ele>5</ele>
        <time>2023-06-10T14:22:30Z</time>
      </trkpt>
      <trkpt lat="50.30405" lon="1.60531">
        <ele>5</ele>
        <time>2023-06-10T14:22:32Z</time>
      </trkpt>
      <trkpt lat="50.304" lon="1.6052">
        <ele>5</ele>
        <time>2023-06-10T14:22:34Z</time>
      </trkpt>
      <trkpt lat="50.30397" lon="1.60506">
        <ele>5</ele>
        <time>2023-06-10T14:22:36Z</time>
      </trkpt>
      <trkpt lat="50.30396" lon="1.60492">
        <ele>5</ele>
        <time>2023-06-10T14:22:38Z</time>
      </trkpt>
      <trkpt lat="50.30391" lon="1.6048">
        <ele>5</ele>
        <time>2023-06-10T14:22:40Z</time>
      </trkpt>
      <trkpt lat="50.30386" lon="1.6047">
        <ele>5</ele>
        <time>2023-06-10T14:22:42Z</time>
      </trkpt>
      <trkpt lat="50.3038" lon="1.6046">
        <ele>4.9</ele>
        <time>2023-06-10T14:22:44Z</time>
      </trkpt>
      <trkpt lat="50.30373" lon="1.6045">
        <ele>4.6</ele>
        <time>2023-06-10T14:22:46Z</time>
      </trkpt>
      <trkpt lat="50.30367" lon="1.6044">
        <ele>4.3</ele>
        <time>2023-06-10T14:22:48Z</time>
      </trkpt>
      <trkpt lat="50.3036" lon="1.60431">
        <ele>4.5</ele>
        <time>2023-06-10T14:22:50Z</time>
      </trkpt>
      <trkpt lat="50.30353" lon="1.6042">
        <ele>4.7</ele>
        <time>2023-06-10T14:22:52Z</time>
      </trkpt>
      <trkpt lat="50.30347" lon="1.60412">
        <ele>4.6</ele>
        <time>2023-06-10T14:22:54Z</time>
      </trkpt>
      <trkpt lat="50.30341" lon="1.60404">
        <ele>4.6</ele>
        <time>2023-06-10T14:22:56Z</time>
      </trkpt>
      <trkpt lat="50.30336" lon="1.60395">
        <ele>4.8</ele>
        <time>2023-06-10T14:22:58Z</time>
      </trkpt>
      <trkpt lat="50.3033" lon="1.60388">
        <ele>5</ele>
        <time>2023-06-10T14:23:00Z</time>
      </trkpt>
      <trkpt lat="50.30325" lon="1.60381">
        <ele>4.8</ele>
        <time>2023-06-10T14:23:02Z</time>
      </trkpt>
      <trkpt lat="50.3032" lon="1.60373">
        <ele>4.7</ele>
        <time>2023-06-10T14:23:04Z</time>
      </trkpt>
      <trkpt lat="50.30314" lon="1.60366">
        <ele>4.7</ele>
        <time>2023-06-10T14:23:06Z</time>
      </trkpt>
      <trkpt lat="50.30308" lon="1.60359">
        <ele>4.8</ele>
        <time>2023-06-10T14:23:08Z</time>
      </trkpt>
      <trkpt lat="50.30302" lon="1.60353">
        <ele>4.7</ele>
        <time>2023-06-10T14:23:10Z</time>
      </trkpt>
      <trkpt lat="50.30296" lon="1.60347">
        <ele>4.5</ele>
        <time>2023-06-10T14:23:12Z</time>
      </trkpt>
      <trkpt lat="50.3029" lon="1.60341">
        <ele>4.5</ele>
        <time>2023-06-10T14:23:14Z</time>
      </trkpt>
      <trkpt lat="50.30284" lon="1.60336">
        <ele>4.7</ele>
        <time>2023-06-10T14:23:16Z</time>
      </trkpt>
      <trkpt lat="50.30278" lon="1.60331">
        <ele>4.9</ele>
        <time>2023-06-10T14:23:18Z</time>
      </trkpt>
      <trkpt lat="50.30272" lon="1.60326">
        <ele>4.6</ele>
        <time>2023-06-10T14:23:20Z</time>
      </trkpt>
      <trkpt lat="50.30265" lon="1.60322">
        <ele>4.3</ele>
        <time>2023-06-10T14:23:22Z</time>
      </trkpt>
      <trkpt lat="50.30258" lon="1.60318">
        <ele>4.1</ele>
        <time>2023-06-10T14:23:24Z</time>
      </trkpt>
      <trkpt lat="50.30252" lon="1.60314">
        <ele>4</ele>
        <time>2023-06-10T14:23:26Z</time>
      </trkpt>
      <trkpt lat="50.30244" lon="1.6031">
        <ele>4.2</ele>
        <time>2023-06-10T14:23:28Z</time>
      </trkpt>
      <trkpt lat="50.30237" lon="1.60308">
        <ele>4.4</ele>
        <time>2023-06-10T14:23:30Z</time>
      </trkpt>
      <trkpt lat="50.3023" lon="1.60305">
        <ele>4.7</ele>
        <time>2023-06-10T14:23:32Z</time>
      </trkpt>
      <trkpt lat="50.30223" lon="1.60303">
        <ele>5</ele>
        <time>2023-06-10T14:23:34Z</time>
      </trkpt>
      <trkpt lat="50.30217" lon="1.60301">
        <ele>4.8</ele>
        <time>2023-06-10T14:23:36Z</time>
      </trkpt>
      <trkpt lat="50.3021" lon="1.603">
        <ele>4.6</ele>
        <time>2023-06-10T14:23:38Z</time>
      </trkpt>
      <trkpt lat="50.30203" lon="1.60298">
        <ele>4.3</ele>
        <time>2023-06-10T14:23:40Z</time>
      </trkpt>
      <trkpt lat="50.30196" lon="1.60297">
        <ele>4.1</ele>
        <time>2023-06-10T14:23:42Z</time>
      </trkpt>
      <trkpt lat="50.30189" lon="1.60296">
        <ele>4</ele>
        <time>2023-06-10T14:23:44Z</time>
      </trkpt>
      <trkpt lat="50.30181" lon="1.60293">
        <ele>4</ele>
        <time>2023-06-10T14:23:46Z</time>
      </trkpt>
      <trkpt lat="50.30174" lon="1.60292">
        <ele>4</ele>
        <time>2023-06-10T14:23:48Z</time>
      </trkpt>
      <trkpt lat="50.30168" lon="1.6029">
        <ele>4</ele>
        <time>2023-06-10T14:23:50Z</time>
      </trkpt>
      <trkpt lat="50.30162" lon="1.60288">
        <ele>4.2</ele>
        <time>2023-06-10T14:23:52Z</time>
      </trkpt>
      <trkpt lat="50.30156" lon="1.60287">
        <ele>4.4</ele>
        <time>2023-06-10T14:23:54Z</time>
      </trkpt>
      <trkpt lat="50.30149" lon="1.60286">
        <ele>4.6</ele>
        <time>2023-06-10T14:23:56Z</time>
      </trkpt>
      <trkpt lat="50.30141" lon="1.60285">
        <ele>4.9</ele>
        <time>2023-06-10T14:23:58Z</time>
      </trkpt>
      <trkpt lat="50.30134" lon="1.60285">
        <ele>5</ele>
        <time>2023-06-10T14:24:00Z</time>
      </trkpt>
      <trkpt lat="50.30127" lon="1.60284">
        <ele>5</ele>
        <time>2023-06-10T14:24:02Z</time>
      </trkpt>
      <trkpt lat="50.3012" lon="1.60282">
        <ele>5</ele>
        <time>2023-06-10T14:24:04Z</time>
      </trkpt>
      <trkpt lat="50.30112" lon="1.60281">
        <ele>5</ele>
        <time>2023-06-10T14:24:06Z</time>
      </trkpt>
      <trkpt lat="50.30105" lon="1.6028">
        <ele>5</ele>
        <time>2023-06-10T14:24:08Z</time>
      </trkpt>
      <trkpt lat="50.30097" lon="1.6028">
        <ele>5</ele>
        <time>2023-06-10T14:24:10Z</time>
      </trkpt>
      <trkpt lat="50.3009" lon="1.60279">
        <ele>5</ele>
        <time>2023-06-10T14:24:12Z</time>
      </trkpt>
      <trkpt lat="50.30082" lon="1.60278">
        <ele>5</ele>
        <time>2023-06-10T14:24:14Z</time>
      </trkpt>
      <trkpt lat="50.30076" lon="1.60275">
        <ele>4.7</ele>
        <time>2023-06-10T14:24:16Z</time>
      </trkpt>
      <trkpt lat="50.3007" lon="1.60271">
        <ele>4.7</ele>
        <time>2023-06-10T14:24:18Z</time>
      </trkpt>
      <trkpt lat="50.30066" lon="1.60266">
        <ele>4.6</ele>
        <time>2023-06-10T14:24:20Z</time>
      </trkpt>
      <trkpt lat="50.30061" lon="1.60261">
        <ele>4.7</ele>
        <time>2023-06-10T14:24:22Z</time>
      </trkpt>
      <trkpt lat="50.30055" lon="1.60255">
        <ele>4.8</ele>
        <time>2023-06-10T14:24:24Z</time>
      </trkpt>
      <trkpt lat="50.30047" lon="1.60251">
        <ele>5</ele>
        <time>2023-06-10T14:24:26Z</time>
      </trkpt>
      <trkpt lat="50.30039" lon="1.60248">
        <ele>5</ele>
        <time>2023-06-10T14:24:28Z</time>
      </trkpt>
      <trkpt lat="50.30031" lon="1.60244">
        <ele>5</ele>
        <time>2023-06-10T14:24:30Z</time>
      </trkpt>
      <trkpt lat="50.30023" lon="1.6024">
        <ele>5</ele>
        <time>2023-06-10T14:24:32Z</time>
      </trkpt>
      <trkpt lat="50.30015" lon="1.60237">
        <ele>5</ele>
        <time>2023-06-10T14:24:34Z</time>
      </trkpt>
      <trkpt lat="50.30007" lon="1.60234">
        <ele>5</ele>
        <time>2023-06-10T14:24:36Z</time>
      </trkpt>
      <trkpt lat="50.3" lon="1.60232">
        <ele>5</ele>
        <time>2023-06-10T14:24:38Z</time>
      </trkpt>
      <trkpt lat="50.29993" lon="1.60228">
        <ele>4.9</ele>
        <time>2023-06-10T14:24:40Z</time>
      </trkpt>
      <trkpt lat="50.29984" lon="1.60226">
        <ele>4.9</ele>
        <time>2023-06-10T14:24:42Z</time>
      </trkpt>
      <trkpt lat="50.29976" lon="1.60224">
        <ele>4.9</ele>
        <time>2023-06-10T14:24:44Z</time>
      </trkpt>
      <trkpt lat="50.29968" lon="1.60222">
        <ele>5</ele>
        <time>2023-06-10T14:24:46Z</time>
      </trkpt>
      <trkpt lat="50.2996" lon="1.6022">
        <ele>5</ele>
        <time>2023-06-10T14:24:48Z</time>
      </trkpt>
      <trkpt lat="50.29952" lon="1.60219">
        <ele>4.9</ele>
        <time>2023-06-10T14:24:50Z</time>
      </trkpt>
      <trkpt lat="50.29944" lon="1.60217">
        <ele>4.8</ele>
        <time>2023-06-10T14:24:52Z</time>
      </trkpt>
      <trkpt lat="50.29936" lon="1.60216">
        <ele>4.8</ele>
        <time>2023-06-10T14:24:54Z</time>
      </trkpt>
      <trkpt lat="50.29927" lon="1.60214">
        <ele>4.9</ele>
        <time>2023-06-10T14:24:56Z</time>
      </trkpt>
      <trkpt lat="50.29919" lon="1.60213">
        <ele>5</ele>
        <time>2023-06-10T14:24:58Z</time>
      </trkpt>
      <trkpt lat="50.29911" lon="1.60212">
        <ele>4.9</ele>
        <time>2023-06-10T14:25:00Z</time>
      </trkpt>
      <trkpt lat="50.29903" lon="1.60209">
        <ele>4.8</ele>
        <time>2023-06-10T14:25:02Z</time>
      </trkpt>
      <trkpt lat="50.29895" lon="1.60208">
        <ele>4.6</ele>
        <time>2023-06-10T14:25:04Z</time>
      </trkpt>
      <trkpt lat="50.29887" lon="1.60205">
        <ele>4.4</ele>
        <time>2023-06-10T14:25:06Z</time>
      </trkpt>
      <trkpt lat="50.29879" lon="1.60203">
        <ele>4.4</ele>
        <time>2023-06-10T14:25:08Z</time>
      </trkpt>
      <trkpt lat="50.29872" lon="1.60199">
        <ele>4.6</ele>
        <time>2023-06-10T14:25:10Z</time>
      </trkpt>
      <trkpt lat="50.29865" lon="1.60197">
        <ele>4.8</ele>
        <time>2023-06-10T14:25:12Z</time>
      </trkpt>
      <trkpt lat="50.29857" lon="1.60194">
        <ele>5</ele>
        <time>2023-06-10T14:25:14Z</time>
      </trkpt>
      <trkpt lat="50.29849" lon="1.60191">
        <ele>5</ele>
        <time>2023-06-10T14:25:16Z</time>
      </trkpt>
      <trkpt lat="50.29842" lon="1.60189">
        <ele>5</ele>
        <time>2023-06-10T14:25:18Z</time>
      </trkpt>
      <trkpt lat="50.29834" lon="1.60185">
        <ele>5</ele>
        <time>2023-06-10T14:25:20Z</time>
      </trkpt>
      <trkpt lat="50.29826" lon="1.60182">
        <ele>4.8</ele>
        <time>2023-06-10T14:25:22Z</time>
      </trkpt>
      <trkpt lat="50.29817" lon="1.6018">
        <ele>4.7</ele>
        <time>2023-06-10T14:25:24Z</time>
      </trkpt>
      <trkpt lat="50.2981" lon="1.60178">
        <ele>4.7</ele>
        <time>2023-06-10T14:25:26Z</time>
      </trkpt>
      <trkpt lat="50.29802" lon="1.60175">
        <ele>4.7</ele>
        <time>2023-06-10T14:25:28Z</time>
      </trkpt>
      <trkpt lat="50.29795" lon="1.60172">
        <ele>4.8</ele>
        <time>2023-06-10T14:25:30Z</time>
      </trkpt>
      <trkpt lat="50.29787" lon="1.6017">
        <ele>4.9</ele>
        <time>2023-06-10T14:25:32Z</time>
      </trkpt>
      <trkpt lat="50.29779" lon="1.60166">
        <ele>5</ele>
        <time>2023-06-10T14:25:34Z</time>
      </trkpt>
      <trkpt lat="50.2977" lon="1.60163">
        <ele>5</ele>
        <time>2023-06-10T14:25:36Z</time>
      </trkpt>
      <trkpt lat="50.29762" lon="1.60158">
        <ele>5</ele>
        <time>2023-06-10T14:25:38Z</time>
      </trkpt>
      <trkpt lat="50.29754" lon="1.60152">
        <ele>5</ele>
        <time>2023-06-10T14:25:40Z</time>
      </trkpt>
      <trkpt lat="50.29746" lon="1.60145">
        <ele>5</ele>
        <time>2023-06-10T14:25:42Z</time>
      </trkpt>
      <trkpt lat="50.2974" lon="1.60138">
        <ele>5</ele>
        <time>2023-06-10T14:25:44Z</time>
      </trkpt>
      <trkpt lat="50.29733" lon="1.60133">
        <ele>5</ele>
        <time>2023-06-10T14:25:46Z</time>
      </trkpt>
      <trkpt lat="50.29727" lon="1.60127">
        <ele>5</ele>
        <time>2023-06-10T14:25:48Z</time>
      </trkpt>
      <trkpt lat="50.2972" lon="1.60121">
        <ele>5</ele>
        <time>2023-06-10T14:25:50Z</time>
      </trkpt>
      <trkpt lat="50.29712" lon="1.60114">
        <ele>5</ele>
        <time>2023-06-10T14:25:52Z</time>
      </trkpt>
      <trkpt lat="50.29705" lon="1.60107">
        <ele>5</ele>
        <time>2023-06-10T14:25:54Z</time>
      </trkpt>
      <trkpt lat="50.29698" lon="1.601">
        <ele>5</ele>
        <time>2023-06-10T14:25:56Z</time>
      </trkpt>
      <trkpt lat="50.29692" lon="1.60094">
        <ele>5</ele>
        <time>2023-06-10T14:25:58Z</time>
      </trkpt>
      <trkpt lat="50.29686" lon="1.60088">
        <ele>4.9</ele>
        <time>2023-06-10T14:26:00Z</time>
      </trkpt>
      <trkpt lat="50.2968" lon="1.60083">
        <ele>5</ele>
        <time>2023-06-10T14:26:02Z</time>
      </trkpt>
      <trkpt lat="50.29674" lon="1.60077">
        <ele>5</ele>
        <time>2023-06-10T14:26:04Z</time>
      </trkpt>
      <trkpt lat="50.29668" lon="1.60072">
        <ele>5</ele>
        <time>2023-06-10T14:26:06Z</time>
      </trkpt>
      <trkpt lat="50.29662" lon="1.60067">
        <ele>5</ele>
        <time>2023-06-10T14:26:08Z</time>
      </trkpt>
      <trkpt lat="50.29657" lon="1.60062">
        <ele>5</ele>
        <time>2023-06-10T14:26:10Z</time>
      </trkpt>
      <trkpt lat="50.29652" lon="1.60058">
        <ele>5</ele>
        <time>2023-06-10T14:26:12Z</time>
      </trkpt>
      <trkpt lat="50.29647" lon="1.60055">
        <ele>5</ele>
        <time>2023-06-10T14:26:14Z</time>
      </trkpt>
      <trkpt lat="50.29642" lon="1.60054">
        <ele>5</ele>
        <time>2023-06-10T14:26:16Z</time>
      </trkpt>
      <trkpt lat="50.29636" lon="1.60054">
        <ele>5</ele>
        <time>2023-06-10T14:26:18Z</time>
      </trkpt>
      <trkpt lat="50.29632" lon="1.60049">
        <ele>4.8</ele>
        <time>2023-06-10T14:26:20Z</time>
      </trkpt>
      <trkpt lat="50.2963" lon="1.60039">
        <ele>4.6</ele>
        <time>2023-06-10T14:26:22Z</time>
      </trkpt>
      <trkpt lat="50.29628" lon="1.60028">
        <ele>4.4</ele>
        <time>2023-06-10T14:26:24Z</time>
      </trkpt>
      <trkpt lat="50.29627" lon="1.60015">
        <ele>4.4</ele>
        <time>2023-06-10T14:26:26Z</time>
      </trkpt>
      <trkpt lat="50.29626" lon="1.60003">
        <ele>4.5</ele>
        <time>2023-06-10T14:26:28Z</time>
      </trkpt>
      <trkpt lat="50.29626" lon="1.59992">
        <ele>4.5</ele>
        <time>2023-06-10T14:26:30Z</time>
      </trkpt>
      <trkpt lat="50.29626" lon="1.59981">
        <ele>4.5</ele>
        <time>2023-06-10T14:26:32Z</time>
      </trkpt>
      <trkpt lat="50.29626" lon="1.59968">
        <ele>4.5</ele>
        <time>2023-06-10T14:26:36Z</time>
      </trkpt>
      <trkpt lat="50.29626" lon="1.59961">
        <ele>4.5</ele>
        <time>2023-06-10T14:26:38Z</time>
      </trkpt>
      <trkpt lat="50.29626" lon="1.59952">
        <ele>4.4</ele>
        <time>2023-06-10T14:26:40Z</time>
      </trkpt>
      <trkpt lat="50.29627" lon="1.59943">
        <ele>4.4</ele>
        <time>2023-06-10T14:26:42Z</time>
      </trkpt>
      <trkpt lat="50.29627" lon="1.59932">
        <ele>4.4</ele>
        <time>2023-06-10T14:26:44Z</time>
      </trkpt>
      <trkpt lat="50.29627" lon="1.59921">
        <ele>4.4</ele>
        <time>2023-06-10T14:26:46Z</time>
      </trkpt>
      <trkpt lat="50.29627" lon="1.59911">
        <ele>4.5</ele>
        <time>2023-06-10T14:26:48Z</time>
      </trkpt>
      <trkpt lat="50.29627" lon="1.59899">
        <ele>4.8</ele>
        <time>2023-06-10T14:26:50Z</time>
      </trkpt>
      <trkpt lat="50.29627" lon="1.59886">
        <ele>5</ele>
        <time>2023-06-10T14:26:52Z</time>
      </trkpt>
      <trkpt lat="50.29627" lon="1.59874">
        <ele>5</ele>
        <time>2023-06-10T14:26:54Z</time>
      </trkpt>
      <trkpt lat="50.29626" lon="1.59861">
        <ele>5</ele>
        <time>2023-06-10T14:26:56Z</time>
      </trkpt>
      <trkpt lat="50.29625" lon="1.59848">
        <ele>5</ele>
        <time>2023-06-10T14:26:58Z</time>
      </trkpt>
      <trkpt lat="50.29625" lon="1.59835">
        <ele>5</ele>
        <time>2023-06-10T14:27:00Z</time>
      </trkpt>
      <trkpt lat="50.29625" lon="1.59824">
        <ele>5</ele>
        <time>2023-06-10T14:27:02Z</time>
      </trkpt>
      <trkpt lat="50.29624" lon="1.59811">
        <ele>5</ele>
        <time>2023-06-10T14:27:04Z</time>
      </trkpt>
      <trkpt lat="50.29623" lon="1.59799">
        <ele>5</ele>
        <time>2023-06-10T14:27:06Z</time>
      </trkpt>
      <trkpt lat="50.29622" lon="1.59787">
        <ele>5</ele>
        <time>2023-06-10T14:27:08Z</time>
      </trkpt>
      <trkpt lat="50.2962" lon="1.59774">
        <ele>5</ele>
        <time>2023-06-10T14:27:10Z</time>
      </trkpt>
      <trkpt lat="50.2962" lon="1.59761">
        <ele>5</ele>
        <time>2023-06-10T14:27:12Z</time>
      </trkpt>
      <trkpt lat="50.2962" lon="1.59749">
        <ele>5</ele>
        <time>2023-06-10T14:27:14Z</time>
      </trkpt>
      <trkpt lat="50.29619" lon="1.59737">
        <ele>5</ele>
        <time>2023-06-10T14:27:16Z</time>
      </trkpt>
      <trkpt lat="50.2962" lon="1.59724">
        <ele>5</ele>
        <time>2023-06-10T14:27:18Z</time>
      </trkpt>
      <trkpt lat="50.29621" lon="1.59711">
        <ele>4.7</ele>
        <time>2023-06-10T14:27:20Z</time>
      </trkpt>
      <trkpt lat="50.29621" lon="1.59698">
        <ele>4.4</ele>
        <time>2023-06-10T14:27:22Z</time>
      </trkpt>
      <trkpt lat="50.29621" lon="1.59686">
        <ele>4.4</ele>
        <time>2023-06-10T14:27:24Z</time>
      </trkpt>
      <trkpt lat="50.2962" lon="1.59675">
        <ele>4.3</ele>
        <time>2023-06-10T14:27:26Z</time>
      </trkpt>
      <trkpt lat="50.29618" lon="1.59663">
        <ele>4.4</ele>
        <time>2023-06-10T14:27:28Z</time>
      </trkpt>
      <trkpt lat="50.29617" lon="1.59651">
        <ele>4.7</ele>
        <time>2023-06-10T14:27:30Z</time>
      </trkpt>
      <trkpt lat="50.29617" lon="1.5964">
        <ele>5</ele>
        <time>2023-06-10T14:27:32Z</time>
      </trkpt>
      <trkpt lat="50.29617" lon="1.59628">
        <ele>5</ele>
        <time>2023-06-10T14:27:34Z</time>
      </trkpt>
      <trkpt lat="50.29617" lon="1.59617">
        <ele>5</ele>
        <time>2023-06-10T14:27:36Z</time>
      </trkpt>
      <trkpt lat="50.29611" lon="1.59609">
        <ele>5</ele>
        <time>2023-06-10T14:27:38Z</time>
      </trkpt>
      <trkpt lat="50.29604" lon="1.59606">
        <ele>4.9</ele>
        <time>2023-06-10T14:27:40Z</time>
      </trkpt>
      <trkpt lat="50.29596" lon="1.59602">
        <ele>4.8</ele>
        <time>2023-06-10T14:27:42Z</time>
      </trkpt>
      <trkpt lat="50.29588" lon="1.59599">
        <ele>4.6</ele>
        <time>2023-06-10T14:27:44Z</time>
      </trkpt>
      <trkpt lat="50.2958" lon="1.59597">
        <ele>4.6</ele>
        <time>2023-06-10T14:27:46Z</time>
      </trkpt>
      <trkpt lat="50.29572" lon="1.59596">
        <ele>4.7</ele>
        <time>2023-06-10T14:27:48Z</time>
      </trkpt>
      <trkpt lat="50.29564" lon="1.59594">
        <ele>4.8</ele>
        <time>2023-06-10T14:27:50Z</time>
      </trkpt>
      <trkpt lat="50.29557" lon="1.59592">
        <ele>5</ele>
        <time>2023-06-10T14:27:52Z</time>
      </trkpt>
      <trkpt lat="50.2955" lon="1.59591">
        <ele>5</ele>
        <time>2023-06-10T14:27:54Z</time>
      </trkpt>
      <trkpt lat="50.29542" lon="1.59589">
        <ele>5</ele>
        <time>2023-06-10T14:27:56Z</time>
      </trkpt>
      <trkpt lat="50.29535" lon="1.59586">
        <ele>5</ele>
        <time>2023-06-10T14:27:58Z</time>
      </trkpt>
      <trkpt lat="50.29527" lon="1.59584">
        <ele>5</ele>
        <time>2023-06-10T14:28:00Z</time>
      </trkpt>
      <trkpt lat="50.29519" lon="1.59581">
        <ele>5</ele>
        <time>2023-06-10T14:28:02Z</time>
      </trkpt>
      <trkpt lat="50.29511" lon="1.59579">
        <ele>5</ele>
        <time>2023-06-10T14:28:04Z</time>
      </trkpt>
      <trkpt lat="50.29503" lon="1.59575">
        <ele>5</ele>
        <time>2023-06-10T14:28:06Z</time>
      </trkpt>
      <trkpt lat="50.29495" lon="1.59573">
        <ele>5</ele>
        <time>2023-06-10T14:28:08Z</time>
      </trkpt>
      <trkpt lat="50.29487" lon="1.59571">
        <ele>5</ele>
        <time>2023-06-10T14:28:10Z</time>
      </trkpt>
      <trkpt lat="50.29479" lon="1.59569">
        <ele>5</ele>
        <time>2023-06-10T14:28:12Z</time>
      </trkpt>
      <trkpt lat="50.29471" lon="1.59566">
        <ele>5</ele>
        <time>2023-06-10T14:28:14Z</time>
      </trkpt>
      <trkpt lat="50.29463" lon="1.59565">
        <ele>5</ele>
        <time>2023-06-10T14:28:16Z</time>
      </trkpt>
      <trkpt lat="50.29455" lon="1.59563">
        <ele>5</ele>
        <time>2023-06-10T14:28:18Z</time>
      </trkpt>
      <trkpt lat="50.29448" lon="1.59562">
        <ele>5</ele>
        <time>2023-06-10T14:28:20Z</time>
      </trkpt>
      <trkpt lat="50.29441" lon="1.5956">
        <ele>5</ele>
        <time>2023-06-10T14:28:22Z</time>
      </trkpt>
      <trkpt lat="50.29434" lon="1.59558">
        <ele>5</ele>
        <time>2023-06-10T14:28:24Z</time>
      </trkpt>
      <trkpt lat="50.29426" lon="1.59557">
        <ele>5</ele>
        <time>2023-06-10T14:28:26Z</time>
      </trkpt>
      <trkpt lat="50.29417" lon="1.59556">
        <ele>5</ele>
        <time>2023-06-10T14:28:28Z</time>
      </trkpt>
      <trkpt lat="50.29409" lon="1.59554">
        <ele>5</ele>
        <time>2023-06-10T14:28:30Z</time>
      </trkpt>
      <trkpt lat="50.29401" lon="1.59551">
        <ele>4.9</ele>
        <time>2023-06-10T14:28:32Z</time>
      </trkpt>
      <trkpt lat="50.29392" lon="1.59549">
        <ele>4.8</ele>
        <time>2023-06-10T14:28:34Z</time>
      </trkpt>
      <trkpt lat="50.29384" lon="1.59547">
        <ele>4.7</ele>
        <time>2023-06-10T14:28:36Z</time>
      </trkpt>
      <trkpt lat="50.29376" lon="1.59545">
        <ele>4.8</ele>
        <time>2023-06-10T14:28:38Z</time>
      </trkpt>
      <trkpt lat="50.29367" lon="1.59542">
        <ele>4.9</ele>
        <time>2023-06-10T14:28:40Z</time>
      </trkpt>
      <trkpt lat="50.29359" lon="1.5954">
        <ele>5</ele>
        <time>2023-06-10T14:28:42Z</time>
      </trkpt>
      <trkpt lat="50.29351" lon="1.59537">
        <ele>5</ele>
        <time>2023-06-10T14:28:44Z</time>
      </trkpt>
      <trkpt lat="50.29343" lon="1.59535">
        <ele>5</ele>
        <time>2023-06-10T14:28:46Z</time>
      </trkpt>
      <trkpt lat="50.29335" lon="1.59533">
        <ele>5</ele>
        <time>2023-06-10T14:28:48Z</time>
      </trkpt>
      <trkpt lat="50.29326" lon="1.59531">
        <ele>5</ele>
        <time>2023-06-10T14:28:50Z</time>
      </trkpt>
      <trkpt lat="50.29318" lon="1.59528">
        <ele>5</ele>
        <time>2023-06-10T14:28:52Z</time>
      </trkpt>
      <trkpt lat="50.2931" lon="1.59525">
        <ele>4.9</ele>
        <time>2023-06-10T14:28:54Z</time>
      </trkpt>
      <trkpt lat="50.29302" lon="1.59522">
        <ele>4.8</ele>
        <time>2023-06-10T14:28:56Z</time>
      </trkpt>
      <trkpt lat="50.29294" lon="1.5952">
        <ele>4.8</ele>
        <time>2023-06-10T14:28:58Z</time>
      </trkpt>
      <trkpt lat="50.29286" lon="1.59518">
        <ele>4.9</ele>
        <time>2023-06-10T14:29:00Z</time>
      </trkpt>
      <trkpt lat="50.29278" lon="1.59518">
        <ele>5</ele>
        <time>2023-06-10T14:29:02Z</time>
      </trkpt>
      <trkpt lat="50.29271" lon="1.59518">
        <ele>5</ele>
        <time>2023-06-10T14:29:04Z</time>
      </trkpt>
      <trkpt lat="50.29266" lon="1.59518">
        <ele>5</ele>
        <time>2023-06-10T14:29:06Z</time>
      </trkpt>
      <trkpt lat="50.29261" lon="1.59519">
        <ele>5</ele>
        <time>2023-06-10T14:29:08Z</time>
      </trkpt>
      <trkpt lat="50.29256" lon="1.59519">
        <ele>5</ele>
        <time>2023-06-10T14:29:10Z</time>
      </trkpt>
      <trkpt lat="50.29251" lon="1.5952">
        <ele>5</ele>
        <time>2023-06-10T14:29:12Z</time>
      </trkpt>
      <trkpt lat="50.29243" lon="1.59523">
        <ele>5</ele>
        <time>2023-06-10T14:29:16Z</time>
      </trkpt>
      <trkpt lat="50.29236" lon="1.59526">
        <ele>5</ele>
        <time>2023-06-10T14:29:20Z</time>
      </trkpt>
      <trkpt lat="50.29232" lon="1.59528">
        <ele>5</ele>
        <time>2023-06-10T14:29:22Z</time>
      </trkpt>
      <trkpt lat="50.29226" lon="1.59531">
        <ele>5</ele>
        <time>2023-06-10T14:29:24Z</time>
      </trkpt>
      <trkpt lat="50.2922" lon="1.59534">
        <ele>5</ele>
        <time>2023-06-10T14:29:26Z</time>
      </trkpt>
      <trkpt lat="50.29214" lon="1.59536">
        <ele>5</ele>
        <time>2023-06-10T14:29:28Z</time>
      </trkpt>
      <trkpt lat="50.29208" lon="1.59538">
        <ele>5</ele>
        <time>2023-06-10T14:29:30Z</time>
      </trkpt>
      <trkpt lat="50.29203" lon="1.59541">
        <ele>5</ele>
        <time>2023-06-10T14:29:32Z</time>
      </trkpt>
      <trkpt lat="50.29196" lon="1.59544">
        <ele>5</ele>
        <time>2023-06-10T14:29:34Z</time>
      </trkpt>
      <trkpt lat="50.2919" lon="1.59546">
        <ele>5</ele>
        <time>2023-06-10T14:29:36Z</time>
      </trkpt>
      <trkpt lat="50.29183" lon="1.59546">
        <ele>5</ele>
        <time>2023-06-10T14:29:38Z</time>
      </trkpt>
      <trkpt lat="50.29176" lon="1.59544">
        <ele>5</ele>
        <time>2023-06-10T14:29:40Z</time>
      </trkpt>
      <trkpt lat="50.29171" lon="1.59538">
        <ele>5</ele>
        <time>2023-06-10T14:29:42Z</time>
      </trkpt>
      <trkpt lat="50.29165" lon="1.59529">
        <ele>5</ele>
        <time>2023-06-10T14:29:44Z</time>
      </trkpt>
      <trkpt lat="50.2916" lon="1.59521">
        <ele>5</ele>
        <time>2023-06-10T14:29:46Z</time>
      </trkpt>
      <trkpt lat="50.29154" lon="1.59513">
        <ele>5</ele>
        <time>2023-06-10T14:29:48Z</time>
      </trkpt>
      <trkpt lat="50.29149" lon="1.59506">
        <ele>5</ele>
        <time>2023-06-10T14:29:50Z</time>
      </trkpt>
      <trkpt lat="50.29145" lon="1.59499">
        <ele>5</ele>
        <time>2023-06-10T14:29:52Z</time>
      </trkpt>
      <trkpt lat="50.29141" lon="1.59493">
        <ele>5</ele>
        <time>2023-06-10T14:29:54Z</time>
      </trkpt>
      <trkpt lat="50.29139" lon="1.59486">
        <ele>5</ele>
        <time>2023-06-10T14:29:56Z</time>
      </trkpt>
      <trkpt lat="50.2914" lon="1.59478">
        <ele>5</ele>
        <time>2023-06-10T14:29:58Z</time>
      </trkpt>
      <trkpt lat="50.29138" lon="1.59467">
        <ele>5</ele>
        <time>2023-06-10T14:30:02Z</time>
      </trkpt>
      <trkpt lat="50.29132" lon="1.5946">
        <ele>5</ele>
        <time>2023-06-10T14:30:06Z</time>
      </trkpt>
      <trkpt lat="50.29126" lon="1.59458">
        <ele>5</ele>
        <time>2023-06-10T14:30:10Z</time>
      </trkpt>
      <trkpt lat="50.29121" lon="1.59463">
        <ele>5</ele>
        <time>2023-06-10T14:31:08Z</time>
      </trkpt>
      <trkpt lat="50.29126" lon="1.59465">
        <ele>5</ele>
        <time>2023-06-10T14:36:06Z</time>
      </trkpt>
      <trkpt lat="50.29135" lon="1.5947">
        <ele>5</ele>
        <time>2023-06-10T14:36:10Z</time>
      </trkpt>
      <trkpt lat="50.2914" lon="1.59469">
        <ele>5</ele>
        <time>2023-06-10T14:36:12Z</time>
      </trkpt>
      <trkpt lat="50.29144" lon="1.59463">
        <ele>5</ele>
        <time>2023-06-10T14:36:14Z</time>
      </trkpt>
      <trkpt lat="50.29145" lon="1.59453">
        <ele>5</ele>
        <time>2023-06-10T14:36:16Z</time>
      </trkpt>
      <trkpt lat="50.29147" lon="1.59443">
        <ele>5</ele>
        <time>2023-06-10T14:36:18Z</time>
      </trkpt>
      <trkpt lat="50.29148" lon="1.59432">
        <ele>5</ele>
        <time>2023-06-10T14:36:20Z</time>
      </trkpt>
      <trkpt lat="50.29149" lon="1.5942">
        <ele>5</ele>
        <time>2023-06-10T14:36:22Z</time>
      </trkpt>
      <trkpt lat="50.29149" lon="1.59407">
        <ele>4.8</ele>
        <time>2023-06-10T14:36:24Z</time>
      </trkpt>
      <trkpt lat="50.29149" lon="1.59393">
        <ele>4.5</ele>
        <time>2023-06-10T14:36:26Z</time>
      </trkpt>
      <trkpt lat="50.29149" lon="1.5938">
        <ele>4.6</ele>
        <time>2023-06-10T14:36:28Z</time>
      </trkpt>
      <trkpt lat="50.29149" lon="1.59368">
        <ele>4.8</ele>
        <time>2023-06-10T14:36:30Z</time>
      </trkpt>
      <trkpt lat="50.29148" lon="1.59355">
        <ele>5</ele>
        <time>2023-06-10T14:36:32Z</time>
      </trkpt>
      <trkpt lat="50.29147" lon="1.59342">
        <ele>5</ele>
        <time>2023-06-10T14:36:34Z</time>
      </trkpt>
      <trkpt lat="50.29147" lon="1.59327">
        <ele>5</ele>
        <time>2023-06-10T14:36:36Z</time>
      </trkpt>
      <trkpt lat="50.29147" lon="1.59314">
        <ele>5</ele>
        <time>2023-06-10T14:36:38Z</time>
      </trkpt>
      <trkpt lat="50.29147" lon="1.59301">
        <ele>5</ele>
        <time>2023-06-10T14:36:40Z</time>
      </trkpt>
      <trkpt lat="50.29146" lon="1.59289">
        <ele>5</ele>
        <time>2023-06-10T14:36:42Z</time>
      </trkpt>
      <trkpt lat="50.29145" lon="1.59276">
        <ele>5</ele>
        <time>2023-06-10T14:36:44Z</time>
      </trkpt>
      <trkpt lat="50.29144" lon="1.59263">
        <ele>5</ele>
        <time>2023-06-10T14:36:46Z</time>
      </trkpt>
      <trkpt lat="50.29143" lon="1.5925">
        <ele>5</ele>
        <time>2023-06-10T14:36:48Z</time>
      </trkpt>
      <trkpt lat="50.29142" lon="1.59236">
        <ele>5</ele>
        <time>2023-06-10T14:36:50Z</time>
      </trkpt>
      <trkpt lat="50.29142" lon="1.59222">
        <ele>5</ele>
        <time>2023-06-10T14:36:52Z</time>
      </trkpt>
      <trkpt lat="50.29144" lon="1.59208">
        <ele>5</ele>
        <time>2023-06-10T14:36:54Z</time>
      </trkpt>
      <trkpt lat="50.29146" lon="1.59194">
        <ele>5</ele>
        <time>2023-06-10T14:36:56Z</time>
      </trkpt>
      <trkpt lat="50.29149" lon="1.59181">
        <ele>5</ele>
        <time>2023-06-10T14:36:58Z</time>
      </trkpt>
      <trkpt lat="50.29152" lon="1.59169">
        <ele>5</ele>
        <time>2023-06-10T14:37:00Z</time>
      </trkpt>
      <trkpt lat="50.29154" lon="1.59155">
        <ele>5</ele>
        <time>2023-06-10T14:37:02Z</time>
      </trkpt>
      <trkpt lat="50.29157" lon="1.59141">
        <ele>5</ele>
        <time>2023-06-10T14:37:04Z</time>
      </trkpt>
      <trkpt lat="50.2916" lon="1.59127">
        <ele>5</ele>
        <time>2023-06-10T14:37:06Z</time>
      </trkpt>
      <trkpt lat="50.29162" lon="1.59114">
        <ele>5</ele>
        <time>2023-06-10T14:37:08Z</time>
      </trkpt>
      <trkpt lat="50.29164" lon="1.59101">
        <ele>5</ele>
        <time>2023-06-10T14:37:10Z</time>
      </trkpt>
      <trkpt lat="50.29165" lon="1.59087">
        <ele>5</ele>
        <time>2023-06-10T14:37:12Z</time>
      </trkpt>
      <trkpt lat="50.29166" lon="1.59073">
        <ele>5</ele>
        <time>2023-06-10T14:37:14Z</time>
      </trkpt>
      <trkpt lat="50.29167" lon="1.5906">
        <ele>5</ele>
        <time>2023-06-10T14:37:16Z</time>
      </trkpt>
      <trkpt lat="50.29168" lon="1.59046">
        <ele>5</ele>
        <time>2023-06-10T14:37:18Z</time>
      </trkpt>
      <trkpt lat="50.29168" lon="1.59032">
        <ele>5</ele>
        <time>2023-06-10T14:37:20Z</time>
      </trkpt>
      <trkpt lat="50.29169" lon="1.59018">
        <ele>5</ele>
        <time>2023-06-10T14:37:22Z</time>
      </trkpt>
      <trkpt lat="50.2917" lon="1.59004">
        <ele>5</ele>
        <time>2023-06-10T14:37:24Z</time>
      </trkpt>
      <trkpt lat="50.29171" lon="1.5899">
        <ele>5.4</ele>
        <time>2023-06-10T14:37:26Z</time>
      </trkpt>
      <trkpt lat="50.29172" lon="1.58976">
        <ele>5.8</ele>
        <time>2023-06-10T14:37:28Z</time>
      </trkpt>
      <trkpt lat="50.29172" lon="1.58963">
        <ele>6</ele>
        <time>2023-06-10T14:37:30Z</time>
      </trkpt>
      <trkpt lat="50.29173" lon="1.5895">
        <ele>6</ele>
        <time>2023-06-10T14:37:32Z</time>
      </trkpt>
      <trkpt lat="50.29173" lon="1.58937">
        <ele>6</ele>
        <time>2023-06-10T14:37:34Z</time>
      </trkpt>
      <trkpt lat="50.29174" lon="1.58924">
        <ele>6</ele>
        <time>2023-06-10T14:37:36Z</time>
      </trkpt>
      <trkpt lat="50.29173" lon="1.58911">
        <ele>6.1</ele>
        <time>2023-06-10T14:37:38Z</time>
      </trkpt>
      <trkpt lat="50.29168" lon="1.589">
        <ele>6.1</ele>
        <time>2023-06-10T14:37:40Z</time>
      </trkpt>
      <trkpt lat="50.29161" lon="1.58889">
        <ele>6</ele>
        <time>2023-06-10T14:37:42Z</time>
      </trkpt>
      <trkpt lat="50.29158" lon="1.58876">
        <ele>6.3</ele>
        <time>2023-06-10T14:37:44Z</time>
      </trkpt>
      <trkpt lat="50.29154" lon="1.58863">
        <ele>6.5</ele>
        <time>2023-06-10T14:37:46Z</time>
      </trkpt>
      <trkpt lat="50.29151" lon="1.58849">
        <ele>6.9</ele>
        <time>2023-06-10T14:37:48Z</time>
      </trkpt>
      <trkpt lat="50.29148" lon="1.58836">
        <ele>7.2</ele>
        <time>2023-06-10T14:37:50Z</time>
      </trkpt>
      <trkpt lat="50.29144" lon="1.58824">
        <ele>7.1</ele>
        <time>2023-06-10T14:37:52Z</time>
      </trkpt>
      <trkpt lat="50.29141" lon="1.58812">
        <ele>7</ele>
        <time>2023-06-10T14:37:54Z</time>
      </trkpt>
      <trkpt lat="50.29137" lon="1.58798">
        <ele>7</ele>
        <time>2023-06-10T14:37:56Z</time>
      </trkpt>
      <trkpt lat="50.29132" lon="1.58785">
        <ele>6.8</ele>
        <time>2023-06-10T14:37:58Z</time>
      </trkpt>
      <trkpt lat="50.29127" lon="1.58772">
        <ele>6.7</ele>
        <time>2023-06-10T14:38:00Z</time>
      </trkpt>
      <trkpt lat="50.29121" lon="1.5876">
        <ele>6.6</ele>
        <time>2023-06-10T14:38:02Z</time>
      </trkpt>
      <trkpt lat="50.29116" lon="1.58748">
        <ele>6.4</ele>
        <time>2023-06-10T14:38:04Z</time>
      </trkpt>
      <trkpt lat="50.29111" lon="1.58737">
        <ele>6.5</ele>
        <time>2023-06-10T14:38:06Z</time>
      </trkpt>
      <trkpt lat="50.29106" lon="1.58725">
        <ele>6.7</ele>
        <time>2023-06-10T14:38:08Z</time>
      </trkpt>
      <trkpt lat="50.29101" lon="1.58713">
        <ele>6.8</ele>
        <time>2023-06-10T14:38:10Z</time>
      </trkpt>
      <trkpt lat="50.29096" lon="1.58699">
        <ele>6.9</ele>
        <time>2023-06-10T14:38:12Z</time>
      </trkpt>
      <trkpt lat="50.29091" lon="1.58687">
        <ele>6.9</ele>
        <time>2023-06-10T14:38:14Z</time>
      </trkpt>
      <trkpt lat="50.29086" lon="1.58673">
        <ele>6.4</ele>
        <time>2023-06-10T14:38:16Z</time>
      </trkpt>
      <trkpt lat="50.29082" lon="1.5866">
        <ele>6.5</ele>
        <time>2023-06-10T14:38:18Z</time>
      </trkpt>
      <trkpt lat="50.29078" lon="1.58646">
        <ele>7.3</ele>
        <time>2023-06-10T14:38:20Z</time>
      </trkpt>
      <trkpt lat="50.29072" lon="1.58633">
        <ele>7.6</ele>
        <time>2023-06-10T14:38:22Z</time>
      </trkpt>
      <trkpt lat="50.29067" lon="1.5862">
        <ele>7.4</ele>
        <time>2023-06-10T14:38:24Z</time>
      </trkpt>
      <trkpt lat="50.29062" lon="1.58607">
        <ele>7.2</ele>
        <time>2023-06-10T14:38:26Z</time>
      </trkpt>
      <trkpt lat="50.29057" lon="1.58593">
        <ele>7</ele>
        <time>2023-06-10T14:38:28Z</time>
      </trkpt>
      <trkpt lat="50.29051" lon="1.58581">
        <ele>7.1</ele>
        <time>2023-06-10T14:38:30Z</time>
      </trkpt>
      <trkpt lat="50.29047" lon="1.58567">
        <ele>7.4</ele>
        <time>2023-06-10T14:38:32Z</time>
      </trkpt>
      <trkpt lat="50.29041" lon="1.58554">
        <ele>7.5</ele>
        <time>2023-06-10T14:38:34Z</time>
      </trkpt>
      <trkpt lat="50.29036" lon="1.58542">
        <ele>7.5</ele>
        <time>2023-06-10T14:38:36Z</time>
      </trkpt>
      <trkpt lat="50.29031" lon="1.58528">
        <ele>7.2</ele>
        <time>2023-06-10T14:38:38Z</time>
      </trkpt>
      <trkpt lat="50.29025" lon="1.58514">
        <ele>7.4</ele>
        <time>2023-06-10T14:38:40Z</time>
      </trkpt>
      <trkpt lat="50.2902" lon="1.585">
        <ele>7.4</ele>
        <time>2023-06-10T14:38:42Z</time>
      </trkpt>
      <trkpt lat="50.29013" lon="1.58486">
        <ele>7</ele>
        <time>2023-06-10T14:38:44Z</time>
      </trkpt>
      <trkpt lat="50.29007" lon="1.58472">
        <ele>7</ele>
        <time>2023-06-10T14:38:46Z</time>
      </trkpt>
      <trkpt lat="50.29001" lon="1.58458">
        <ele>7</ele>
        <time>2023-06-10T14:38:48Z</time>
      </trkpt>
      <trkpt lat="50.28994" lon="1.58444">
        <ele>6.8</ele>
        <time>2023-06-10T14:38:50Z</time>
      </trkpt>
      <trkpt lat="50.28986" lon="1.58432">
        <ele>6.9</ele>
        <time>2023-06-10T14:38:52Z</time>
      </trkpt>
      <trkpt lat="50.28977" lon="1.5842">
        <ele>7.1</ele>
        <time>2023-06-10T14:38:54Z</time>
      </trkpt>
      <trkpt lat="50.28969" lon="1.58409">
        <ele>7.1</ele>
        <time>2023-06-10T14:38:56Z</time>
      </trkpt>
      <trkpt lat="50.28962" lon="1.58397">
        <ele>7.1</ele>
        <time>2023-06-10T14:38:58Z</time>
      </trkpt>
      <trkpt lat="50.28957" lon="1.58384">
        <ele>7</ele>
        <time>2023-06-10T14:39:00Z</time>
      </trkpt>
      <trkpt lat="50.28951" lon="1.58372">
        <ele>7</ele>
        <time>2023-06-10T14:39:02Z</time>
      </trkpt>
      <trkpt lat="50.28946" lon="1.5836">
        <ele>7.1</ele>
        <time>2023-06-10T14:39:04Z</time>
      </trkpt>
      <trkpt lat="50.28942" lon="1.58348">
        <ele>6.9</ele>
        <time>2023-06-10T14:39:06Z</time>
      </trkpt>
      <trkpt lat="50.28937" lon="1.58336">
        <ele>7</ele>
        <time>2023-06-10T14:39:08Z</time>
      </trkpt>
      <trkpt lat="50.28933" lon="1.58324">
        <ele>7.2</ele>
        <time>2023-06-10T14:39:10Z</time>
      </trkpt>
      <trkpt lat="50.28928" lon="1.58311">
        <ele>7.3</ele>
        <time>2023-06-10T14:39:12Z</time>
      </trkpt>
      <trkpt lat="50.28923" lon="1.58298">
        <ele>7.2</ele>
        <time>2023-06-10T14:39:14Z</time>
      </trkpt>
      <trkpt lat="50.28918" lon="1.58287">
        <ele>7</ele>
        <time>2023-06-10T14:39:16Z</time>
      </trkpt>
      <trkpt lat="50.28913" lon="1.58275">
        <ele>7</ele>
        <time>2023-06-10T14:39:18Z</time>
      </trkpt>
      <trkpt lat="50.28908" lon="1.58264">
        <ele>7</ele>
        <time>2023-06-10T14:39:20Z</time>
      </trkpt>
      <trkpt lat="50.28902" lon="1.58253">
        <ele>7</ele>
        <time>2023-06-10T14:39:22Z</time>
      </trkpt>
      <trkpt lat="50.28897" lon="1.58242">
        <ele>7.1</ele>
        <time>2023-06-10T14:39:24Z</time>
      </trkpt>
      <trkpt lat="50.28891" lon="1.58232">
        <ele>7</ele>
        <time>2023-06-10T14:39:26Z</time>
      </trkpt>
      <trkpt lat="50.28884" lon="1.58222">
        <ele>7</ele>
        <time>2023-06-10T14:39:28Z</time>
      </trkpt>
      <trkpt lat="50.28878" lon="1.58211">
        <ele>7.2</ele>
        <time>2023-06-10T14:39:30Z</time>
      </trkpt>
      <trkpt lat="50.28872" lon="1.58202">
        <ele>7.3</ele>
        <time>2023-06-10T14:39:32Z</time>
      </trkpt>
      <trkpt lat="50.28866" lon="1.58193">
        <ele>7.2</ele>
        <time>2023-06-10T14:39:34Z</time>
      </trkpt>
      <trkpt lat="50.28859" lon="1.58184">
        <ele>7.3</ele>
        <time>2023-06-10T14:39:36Z</time>
      </trkpt>
      <trkpt lat="50.28853" lon="1.58174">
        <ele>7.5</ele>
        <time>2023-06-10T14:39:38Z</time>
      </trkpt>
      <trkpt lat="50.28847" lon="1.58163">
        <ele>7.6</ele>
        <time>2023-06-10T14:39:40Z</time>
      </trkpt>
      <trkpt lat="50.28843" lon="1.58153">
        <ele>7.7</ele>
        <time>2023-06-10T14:39:42Z</time>
      </trkpt>
      <trkpt lat="50.28841" lon="1.58139">
        <ele>8</ele>
        <time>2023-06-10T14:39:44Z</time>
      </trkpt>
      <trkpt lat="50.28836" lon="1.58128">
        <ele>8.4</ele>
        <time>2023-06-10T14:39:46Z</time>
      </trkpt>
      <trkpt lat="50.2883" lon="1.58119">
        <ele>8.5</ele>
        <time>2023-06-10T14:39:48Z</time>
      </trkpt>
      <trkpt lat="50.28825" lon="1.58109">
        <ele>8.4</ele>
        <time>2023-06-10T14:39:50Z</time>
      </trkpt>
      <trkpt lat="50.28819" lon="1.58099">
        <ele>8.2</ele>
        <time>2023-06-10T14:39:52Z</time>
      </trkpt>
      <trkpt lat="50.28814" lon="1.58089">
        <ele>8.1</ele>
        <time>2023-06-10T14:39:54Z</time>
      </trkpt>
      <trkpt lat="50.28809" lon="1.58079">
        <ele>8.1</ele>
        <time>2023-06-10T14:39:56Z</time>
      </trkpt>
      <trkpt lat="50.28804" lon="1.58069">
        <ele>7.9</ele>
        <time>2023-06-10T14:39:58Z</time>
      </trkpt>
      <trkpt lat="50.28798" lon="1.5806">
        <ele>7.7</ele>
        <time>2023-06-10T14:40:00Z</time>
      </trkpt>
      <trkpt lat="50.28794" lon="1.58051">
        <ele>7.6</ele>
        <time>2023-06-10T14:40:02Z</time>
      </trkpt>
      <trkpt lat="50.28788" lon="1.58045">
        <ele>7.6</ele>
        <time>2023-06-10T14:40:04Z</time>
      </trkpt>
      <trkpt lat="50.28782" lon="1.58039">
        <ele>7.7</ele>
        <time>2023-06-10T14:40:06Z</time>
      </trkpt>
      <trkpt lat="50.28775" lon="1.58034">
        <ele>7.7</ele>
        <time>2023-06-10T14:40:08Z</time>
      </trkpt>
      <trkpt lat="50.28766" lon="1.58033">
        <ele>7.5</ele>
        <time>2023-06-10T14:40:10Z</time>
      </trkpt>
      <trkpt lat="50.28757" lon="1.58033">
        <ele>7.2</ele>
        <time>2023-06-10T14:40:12Z</time>
      </trkpt>
      <trkpt lat="50.28748" lon="1.58035">
        <ele>7</ele>
        <time>2023-06-10T14:40:14Z</time>
      </trkpt>
      <trkpt lat="50.28739" lon="1.58036">
        <ele>7</ele>
        <time>2023-06-10T14:40:16Z</time>
      </trkpt>
      <trkpt lat="50.2873" lon="1.58037">
        <ele>7</ele>
        <time>2023-06-10T14:40:18Z</time>
      </trkpt>
      <trkpt lat="50.28722" lon="1.58038">
        <ele>7</ele>
        <time>2023-06-10T14:40:20Z</time>
      </trkpt>
      <trkpt lat="50.28713" lon="1.58039">
        <ele>7</ele>
        <time>2023-06-10T14:40:22Z</time>
      </trkpt>
      <trkpt lat="50.28703" lon="1.58038">
        <ele>7</ele>
        <time>2023-06-10T14:40:24Z</time>
      </trkpt>
      <trkpt lat="50.28694" lon="1.58038">
        <ele>7</ele>
        <time>2023-06-10T14:40:26Z</time>
      </trkpt>
      <trkpt lat="50.28685" lon="1.58039">
        <ele>7</ele>
        <time>2023-06-10T14:40:28Z</time>
      </trkpt>
      <trkpt lat="50.28675" lon="1.5804">
        <ele>7</ele>
        <time>2023-06-10T14:40:30Z</time>
      </trkpt>
      <trkpt lat="50.28666" lon="1.58041">
        <ele>7</ele>
        <time>2023-06-10T14:40:32Z</time>
      </trkpt>
      <trkpt lat="50.28655" lon="1.58044">
        <ele>7</ele>
        <time>2023-06-10T14:40:34Z</time>
      </trkpt>
      <trkpt lat="50.28646" lon="1.58047">
        <ele>7</ele>
        <time>2023-06-10T14:40:36Z</time>
      </trkpt>
      <trkpt lat="50.28636" lon="1.58049">
        <ele>7</ele>
        <time>2023-06-10T14:40:38Z</time>
      </trkpt>
      <trkpt lat="50.28627" lon="1.58051">
        <ele>7</ele>
        <time>2023-06-10T14:40:40Z</time>
      </trkpt>
      <trkpt lat="50.28619" lon="1.58053">
        <ele>7</ele>
        <time>2023-06-10T14:40:42Z</time>
      </trkpt>
      <trkpt lat="50.2861" lon="1.58055">
        <ele>7</ele>
        <time>2023-06-10T14:40:44Z</time>
      </trkpt>
      <trkpt lat="50.28602" lon="1.58057">
        <ele>7</ele>
        <time>2023-06-10T14:40:46Z</time>
      </trkpt>
      <trkpt lat="50.28592" lon="1.5806">
        <ele>7.1</ele>
        <time>2023-06-10T14:40:48Z</time>
      </trkpt>
      <trkpt lat="50.28584" lon="1.58061">
        <ele>7.2</ele>
        <time>2023-06-10T14:40:50Z</time>
      </trkpt>
      <trkpt lat="50.28574" lon="1.58063">
        <ele>7.2</ele>
        <time>2023-06-10T14:40:52Z</time>
      </trkpt>
      <trkpt lat="50.28566" lon="1.58065">
        <ele>7.1</ele>
        <time>2023-06-10T14:40:54Z</time>
      </trkpt>
      <trkpt lat="50.28557" lon="1.58067">
        <ele>7</ele>
        <time>2023-06-10T14:40:56Z</time>
      </trkpt>
      <trkpt lat="50.28549" lon="1.58068">
        <ele>7</ele>
        <time>2023-06-10T14:40:58Z</time>
      </trkpt>
      <trkpt lat="50.28542" lon="1.58071">
        <ele>7</ele>
        <time>2023-06-10T14:41:00Z</time>
      </trkpt>
      <trkpt lat="50.28538" lon="1.5808">
        <ele>7</ele>
        <time>2023-06-10T14:41:02Z</time>
      </trkpt>
      <trkpt lat="50.28533" lon="1.58089">
        <ele>7</ele>
        <time>2023-06-10T14:41:04Z</time>
      </trkpt>
      <trkpt lat="50.28526" lon="1.58097">
        <ele>7</ele>
        <time>2023-06-10T14:41:06Z</time>
      </trkpt>
      <trkpt lat="50.28517" lon="1.58103">
        <ele>7</ele>
        <time>2023-06-10T14:41:08Z</time>
      </trkpt>
      <trkpt lat="50.28507" lon="1.58105">
        <ele>7</ele>
        <time>2023-06-10T14:41:10Z</time>
      </trkpt>
      <trkpt lat="50.28498" lon="1.58106">
        <ele>7</ele>
        <time>2023-06-10T14:41:12Z</time>
      </trkpt>
      <trkpt lat="50.28489" lon="1.58107">
        <ele>7</ele>
        <time>2023-06-10T14:41:14Z</time>
      </trkpt>
      <trkpt lat="50.28483" lon="1.58107">
        <ele>7</ele>
        <time>2023-06-10T14:41:16Z</time>
      </trkpt>
      <trkpt lat="50.28476" lon="1.58107">
        <ele>7</ele>
        <time>2023-06-10T14:41:18Z</time>
      </trkpt>
      <trkpt lat="50.28471" lon="1.5811">
        <ele>7</ele>
        <time>2023-06-10T14:41:20Z</time>
      </trkpt>
      <trkpt lat="50.28463" lon="1.58113">
        <ele>6.9</ele>
        <time>2023-06-10T14:41:22Z</time>
      </trkpt>
      <trkpt lat="50.28456" lon="1.58117">
        <ele>6.8</ele>
        <time>2023-06-10T14:41:24Z</time>
      </trkpt>
      <trkpt lat="50.28448" lon="1.58121">
        <ele>6.6</ele>
        <time>2023-06-10T14:41:26Z</time>
      </trkpt>
      <trkpt lat="50.2844" lon="1.58123">
        <ele>6.6</ele>
        <time>2023-06-10T14:41:28Z</time>
      </trkpt>
      <trkpt lat="50.28432" lon="1.58126">
        <ele>6.7</ele>
        <time>2023-06-10T14:41:30Z</time>
      </trkpt>
      <trkpt lat="50.28424" lon="1.58129">
        <ele>6.8</ele>
        <time>2023-06-10T14:41:32Z</time>
      </trkpt>
      <trkpt lat="50.28416" lon="1.58131">
        <ele>7</ele>
        <time>2023-06-10T14:41:34Z</time>
      </trkpt>
      <trkpt lat="50.28407" lon="1.58134">
        <ele>7</ele>
        <time>2023-06-10T14:41:36Z</time>
      </trkpt>
      <trkpt lat="50.28399" lon="1.58134">
        <ele>7</ele>
        <time>2023-06-10T14:41:38Z</time>
      </trkpt>
      <trkpt lat="50.28391" lon="1.58138">
        <ele>7</ele>
        <time>2023-06-10T14:41:40Z</time>
      </trkpt>
      <trkpt lat="50.28384" lon="1.58142">
        <ele>6.9</ele>
        <time>2023-06-10T14:41:42Z</time>
      </trkpt>
      <trkpt lat="50.28376" lon="1.58146">
        <ele>6.7</ele>
        <time>2023-06-10T14:41:44Z</time>
      </trkpt>
      <trkpt lat="50.28368" lon="1.5815">
        <ele>6.6</ele>
        <time>2023-06-10T14:41:46Z</time>
      </trkpt>
      <trkpt lat="50.28359" lon="1.58154">
        <ele>6.5</ele>
        <time>2023-06-10T14:41:48Z</time>
      </trkpt>
      <trkpt lat="50.28352" lon="1.58157">
        <ele>6.6</ele>
        <time>2023-06-10T14:41:50Z</time>
      </trkpt>
      <trkpt lat="50.28344" lon="1.58161">
        <ele>6.7</ele>
        <time>2023-06-10T14:41:52Z</time>
      </trkpt>
      <trkpt lat="50.28336" lon="1.58164">
        <ele>6.9</ele>
        <time>2023-06-10T14:41:54Z</time>
      </trkpt>
      <trkpt lat="50.28329" lon="1.58167">
        <ele>7</ele>
        <time>2023-06-10T14:41:56Z</time>
      </trkpt>
      <trkpt lat="50.28321" lon="1.58169">
        <ele>6.9</ele>
        <time>2023-06-10T14:41:58Z</time>
      </trkpt>
      <trkpt lat="50.28315" lon="1.58171">
        <ele>6.9</ele>
        <time>2023-06-10T14:42:00Z</time>
      </trkpt>
      <trkpt lat="50.28307" lon="1.58174">
        <ele>7</ele>
        <time>2023-06-10T14:42:02Z</time>
      </trkpt>
      <trkpt lat="50.28301" lon="1.58179">
        <ele>7.3</ele>
        <time>2023-06-10T14:42:04Z</time>
      </trkpt>
      <trkpt lat="50.28294" lon="1.5819">
        <ele>7.8</ele>
        <time>2023-06-10T14:42:06Z</time>
      </trkpt>
      <trkpt lat="50.28291" lon="1.58201">
        <ele>7.9</ele>
        <time>2023-06-10T14:42:08Z</time>
      </trkpt>
      <trkpt lat="50.28287" lon="1.58212">
        <ele>8.1</ele>
        <time>2023-06-10T14:42:10Z</time>
      </trkpt>
      <trkpt lat="50.28283" lon="1.58222">
        <ele>8.4</ele>
        <time>2023-06-10T14:42:12Z</time>
      </trkpt>
      <trkpt lat="50.28279" lon="1.58233">
        <ele>8.1</ele>
        <time>2023-06-10T14:42:14Z</time>
      </trkpt>
      <trkpt lat="50.28274" lon="1.58244">
        <ele>7.4</ele>
        <time>2023-06-10T14:42:16Z</time>
      </trkpt>
      <trkpt lat="50.28268" lon="1.58253">
        <ele>6.9</ele>
        <time>2023-06-10T14:42:18Z</time>
      </trkpt>
      <trkpt lat="50.2826" lon="1.5826">
        <ele>6.9</ele>
        <time>2023-06-10T14:42:20Z</time>
      </trkpt>
      <trkpt lat="50.28254" lon="1.58268">
        <ele>6.9</ele>
        <time>2023-06-10T14:42:22Z</time>
      </trkpt>
      <trkpt lat="50.28247" lon="1.58275">
        <ele>7</ele>
        <time>2023-06-10T14:42:24Z</time>
      </trkpt>
      <trkpt lat="50.2824" lon="1.58284">
        <ele>6.8</ele>
        <time>2023-06-10T14:42:26Z</time>
      </trkpt>
      <trkpt lat="50.28232" lon="1.58292">
        <ele>6.5</ele>
        <time>2023-06-10T14:42:28Z</time>
      </trkpt>
      <trkpt lat="50.28223" lon="1.58299">
        <ele>6.2</ele>
        <time>2023-06-10T14:42:30Z</time>
      </trkpt>
      <trkpt lat="50.28214" lon="1.58307">
        <ele>6</ele>
        <time>2023-06-10T14:42:32Z</time>
      </trkpt>
      <trkpt lat="50.28206" lon="1.58313">
        <ele>6</ele>
        <time>2023-06-10T14:42:34Z</time>
      </trkpt>
      <trkpt lat="50.28199" lon="1.58319">
        <ele>6</ele>
        <time>2023-06-10T14:42:36Z</time>
      </trkpt>
      <trkpt lat="50.28194" lon="1.58322">
        <ele>6</ele>
        <time>2023-06-10T14:42:38Z</time>
      </trkpt>
      <trkpt lat="50.28187" lon="1.58326">
        <ele>6</ele>
        <time>2023-06-10T14:42:42Z</time>
      </trkpt>
      <trkpt lat="50.28183" lon="1.58319">
        <ele>6</ele>
        <time>2023-06-10T14:42:44Z</time>
      </trkpt>
      <trkpt lat="50.2818" lon="1.58309">
        <ele>6</ele>
        <time>2023-06-10T14:42:46Z</time>
      </trkpt>
      <trkpt lat="50.28177" lon="1.58299">
        <ele>6.1</ele>
        <time>2023-06-10T14:42:48Z</time>
      </trkpt>
      <trkpt lat="50.28173" lon="1.58288">
        <ele>6.1</ele>
        <time>2023-06-10T14:42:50Z</time>
      </trkpt>
      <trkpt lat="50.28169" lon="1.58276">
        <ele>6.2</ele>
        <time>2023-06-10T14:42:52Z</time>
      </trkpt>
      <trkpt lat="50.28166" lon="1.58264">
        <ele>6.5</ele>
        <time>2023-06-10T14:42:54Z</time>
      </trkpt>
      <trkpt lat="50.28162" lon="1.58252">
        <ele>6.8</ele>
        <time>2023-06-10T14:42:56Z</time>
      </trkpt>
      <trkpt lat="50.28158" lon="1.58241">
        <ele>6.7</ele>
        <time>2023-06-10T14:42:58Z</time>
      </trkpt>
      <trkpt lat="50.28154" lon="1.58229">
        <ele>6.5</ele>
        <time>2023-06-10T14:43:00Z</time>
      </trkpt>
      <trkpt lat="50.2815" lon="1.58217">
        <ele>6.5</ele>
        <time>2023-06-10T14:43:02Z</time>
      </trkpt>
      <trkpt lat="50.28146" lon="1.58206">
        <ele>6.7</ele>
        <time>2023-06-10T14:43:04Z</time>
      </trkpt>
      <trkpt lat="50.28143" lon="1.58195">
        <ele>7</ele>
        <time>2023-06-10T14:43:06Z</time>
      </trkpt>
      <trkpt lat="50.28139" lon="1.58184">
        <ele>7</ele>
        <time>2023-06-10T14:43:08Z</time>
      </trkpt>
      <trkpt lat="50.28136" lon="1.58172">
        <ele>7</ele>
        <time>2023-06-10T14:43:10Z</time>
      </trkpt>
      <trkpt lat="50.28132" lon="1.58161">
        <ele>7</ele>
        <time>2023-06-10T14:43:12Z</time>
      </trkpt>
      <trkpt lat="50.28129" lon="1.5815">
        <ele>7</ele>
        <time>2023-06-10T14:43:14Z</time>
      </trkpt>
      <trkpt lat="50.28124" lon="1.58139">
        <ele>7</ele>
        <time>2023-06-10T14:43:16Z</time>
      </trkpt>
      <trkpt lat="50.28121" lon="1.58128">
        <ele>7</ele>
        <time>2023-06-10T14:43:18Z</time>
      </trkpt>
      <trkpt lat="50.28117" lon="1.58117">
        <ele>7</ele>
        <time>2023-06-10T14:43:20Z</time>
      </trkpt>
      <trkpt lat="50.28113" lon="1.58107">
        <ele>7</ele>
        <time>2023-06-10T14:43:22Z</time>
      </trkpt>
      <trkpt lat="50.28107" lon="1.58099">
        <ele>6.9</ele>
        <time>2023-06-10T14:43:24Z</time>
      </trkpt>
      <trkpt lat="50.28102" lon="1.58089">
        <ele>6.7</ele>
        <time>2023-06-10T14:43:26Z</time>
      </trkpt>
      <trkpt lat="50.28097" lon="1.58076">
        <ele>6.9</ele>
        <time>2023-06-10T14:43:28Z</time>
      </trkpt>
      <trkpt lat="50.28093" lon="1.58064">
        <ele>7.3</ele>
        <time>2023-06-10T14:43:30Z</time>
      </trkpt>
      <trkpt lat="50.28088" lon="1.58052">
        <ele>7.4</ele>
        <time>2023-06-10T14:43:32Z</time>
      </trkpt>
      <trkpt lat="50.28084" lon="1.58038">
        <ele>7</ele>
        <time>2023-06-10T14:43:34Z</time>
      </trkpt>
      <trkpt lat="50.28079" lon="1.58024">
        <ele>7.1</ele>
        <time>2023-06-10T14:43:36Z</time>
      </trkpt>
      <trkpt lat="50.28075" lon="1.58011">
        <ele>7.7</ele>
        <time>2023-06-10T14:43:38Z</time>
      </trkpt>
      <trkpt lat="50.28071" lon="1.57998">
        <ele>8.1</ele>
        <time>2023-06-10T14:43:40Z</time>
      </trkpt>
      <trkpt lat="50.28067" lon="1.57986">
        <ele>7.8</ele>
        <time>2023-06-10T14:43:42Z</time>
      </trkpt>
      <trkpt lat="50.28063" lon="1.57974">
        <ele>7.5</ele>
        <time>2023-06-10T14:43:44Z</time>
      </trkpt>
      <trkpt lat="50.2806" lon="1.57962">
        <ele>7.3</ele>
        <time>2023-06-10T14:43:46Z</time>
      </trkpt>
      <trkpt lat="50.28057" lon="1.5795">
        <ele>7.1</ele>
        <time>2023-06-10T14:43:48Z</time>
      </trkpt>
      <trkpt lat="50.28053" lon="1.57937">
        <ele>7</ele>
        <time>2023-06-10T14:43:50Z</time>
      </trkpt>
      <trkpt lat="50.2805" lon="1.57925">
        <ele>7</ele>
        <time>2023-06-10T14:43:52Z</time>
      </trkpt>
      <trkpt lat="50.28046" lon="1.57915">
        <ele>7</ele>
        <time>2023-06-10T14:43:54Z</time>
      </trkpt>
      <trkpt lat="50.28044" lon="1.57905">
        <ele>7.2</ele>
        <time>2023-06-10T14:43:56Z</time>
      </trkpt>
      <trkpt lat="50.28041" lon="1.57895">
        <ele>7.4</ele>
        <time>2023-06-10T14:43:58Z</time>
      </trkpt>
      <trkpt lat="50.28038" lon="1.57886">
        <ele>7.4</ele>
        <time>2023-06-10T14:44:00Z</time>
      </trkpt>
      <trkpt lat="50.28035" lon="1.57877">
        <ele>7.5</ele>
        <time>2023-06-10T14:44:02Z</time>
      </trkpt>
      <trkpt lat="50.28031" lon="1.57868">
        <ele>7.3</ele>
        <time>2023-06-10T14:44:04Z</time>
      </trkpt>
      <trkpt lat="50.28025" lon="1.57861">
        <ele>7</ele>
        <time>2023-06-10T14:44:06Z</time>
      </trkpt>
      <trkpt lat="50.28017" lon="1.57858">
        <ele>7.1</ele>
        <time>2023-06-10T14:44:08Z</time>
      </trkpt>
      <trkpt lat="50.28009" lon="1.57856">
        <ele>7.2</ele>
        <time>2023-06-10T14:44:10Z</time>
      </trkpt>
      <trkpt lat="50.28" lon="1.57855">
        <ele>7.2</ele>
        <time>2023-06-10T14:44:12Z</time>
      </trkpt>
      <trkpt lat="50.27991" lon="1.57855">
        <ele>7.2</ele>
        <time>2023-06-10T14:44:14Z</time>
      </trkpt>
      <trkpt lat="50.27982" lon="1.57854">
        <ele>7.3</ele>
        <time>2023-06-10T14:44:16Z</time>
      </trkpt>
      <trkpt lat="50.27974" lon="1.57853">
        <ele>7.3</ele>
        <time>2023-06-10T14:44:18Z</time>
      </trkpt>
      <trkpt lat="50.27965" lon="1.57852">
        <ele>7.3</ele>
        <time>2023-06-10T14:44:20Z</time>
      </trkpt>
      <trkpt lat="50.27956" lon="1.5785">
        <ele>7.4</ele>
        <time>2023-06-10T14:44:22Z</time>
      </trkpt>
      <trkpt lat="50.27948" lon="1.57849">
        <ele>7.4</ele>
        <time>2023-06-10T14:44:24Z</time>
      </trkpt>
      <trkpt lat="50.2794" lon="1.57848">
        <ele>7.5</ele>
        <time>2023-06-10T14:44:26Z</time>
      </trkpt>
      <trkpt lat="50.27932" lon="1.57847">
        <ele>7.5</ele>
        <time>2023-06-10T14:44:28Z</time>
      </trkpt>
      <trkpt lat="50.27923" lon="1.57846">
        <ele>7.6</ele>
        <time>2023-06-10T14:44:30Z</time>
      </trkpt>
      <trkpt lat="50.27915" lon="1.57845">
        <ele>7.6</ele>
        <time>2023-06-10T14:44:32Z</time>
      </trkpt>
      <trkpt lat="50.27906" lon="1.57845">
        <ele>7.6</ele>
        <time>2023-06-10T14:44:34Z</time>
      </trkpt>
      <trkpt lat="50.27898" lon="1.57844">
        <ele>7.6</ele>
        <time>2023-06-10T14:44:36Z</time>
      </trkpt>
      <trkpt lat="50.2789" lon="1.57845">
        <ele>7.6</ele>
        <time>2023-06-10T14:44:38Z</time>
      </trkpt>
      <trkpt lat="50.27881" lon="1.57845">
        <ele>7.6</ele>
        <time>2023-06-10T14:44:40Z</time>
      </trkpt>
      <trkpt lat="50.27873" lon="1.57847">
        <ele>7.5</ele>
        <time>2023-06-10T14:44:42Z</time>
      </trkpt>
      <trkpt lat="50.27866" lon="1.5785">
        <ele>7.4</ele>
        <time>2023-06-10T14:44:44Z</time>
      </trkpt>
      <trkpt lat="50.27859" lon="1.57854">
        <ele>7.3</ele>
        <time>2023-06-10T14:44:46Z</time>
      </trkpt>
      <trkpt lat="50.27852" lon="1.57858">
        <ele>7.2</ele>
        <time>2023-06-10T14:44:48Z</time>
      </trkpt>
      <trkpt lat="50.27845" lon="1.57859">
        <ele>7.2</ele>
        <time>2023-06-10T14:44:50Z</time>
      </trkpt>
      <trkpt lat="50.2784" lon="1.57855">
        <ele>7.7</ele>
        <time>2023-06-10T14:44:52Z</time>
      </trkpt>
      <trkpt lat="50.27837" lon="1.5785">
        <ele>8.4</ele>
        <time>2023-06-10T14:44:54Z</time>
      </trkpt>
      <trkpt lat="50.27833" lon="1.57845">
        <ele>9.3</ele>
        <time>2023-06-10T14:44:56Z</time>
      </trkpt>
      <trkpt lat="50.27828" lon="1.57841">
        <ele>10.1</ele>
        <time>2023-06-10T14:44:58Z</time>
      </trkpt>
      <trkpt lat="50.27823" lon="1.57841">
        <ele>10.3</ele>
        <time>2023-06-10T14:45:00Z</time>
      </trkpt>
      <trkpt lat="50.27815" lon="1.57842">
        <ele>10.4</ele>
        <time>2023-06-10T14:45:02Z</time>
      </trkpt>
      <trkpt lat="50.27808" lon="1.57843">
        <ele>10.5</ele>
        <time>2023-06-10T14:45:04Z</time>
      </trkpt>
      <trkpt lat="50.278" lon="1.57845">
        <ele>10.2</ele>
        <time>2023-06-10T14:45:06Z</time>
      </trkpt>
      <trkpt lat="50.27791" lon="1.57849">
        <ele>9.6</ele>
        <time>2023-06-10T14:45:08Z</time>
      </trkpt>
      <trkpt lat="50.27783" lon="1.57851">
        <ele>9.2</ele>
        <time>2023-06-10T14:45:10Z</time>
      </trkpt>
      <trkpt lat="50.27774" lon="1.57853">
        <ele>8.9</ele>
        <time>2023-06-10T14:45:12Z</time>
      </trkpt>
      <trkpt lat="50.27766" lon="1.57855">
        <ele>9</ele>
        <time>2023-06-10T14:45:14Z</time>
      </trkpt>
      <trkpt lat="50.27757" lon="1.57853">
        <ele>9.4</ele>
        <time>2023-06-10T14:45:16Z</time>
      </trkpt>
      <trkpt lat="50.27749" lon="1.57854">
        <ele>9.5</ele>
        <time>2023-06-10T14:45:18Z</time>
      </trkpt>
      <trkpt lat="50.27742" lon="1.57856">
        <ele>9</ele>
        <time>2023-06-10T14:45:20Z</time>
      </trkpt>
      <trkpt lat="50.27735" lon="1.57862">
        <ele>8.4</ele>
        <time>2023-06-10T14:45:22Z</time>
      </trkpt>
      <trkpt lat="50.27725" lon="1.57874">
        <ele>7.6</ele>
        <time>2023-06-10T14:45:24Z</time>
      </trkpt>
      <trkpt lat="50.27717" lon="1.57886">
        <ele>7.1</ele>
        <time>2023-06-10T14:45:26Z</time>
      </trkpt>
      <trkpt lat="50.27708" lon="1.57894">
        <ele>7</ele>
        <time>2023-06-10T14:45:28Z</time>
      </trkpt>
      <trkpt lat="50.277" lon="1.57903">
        <ele>7</ele>
        <time>2023-06-10T14:45:30Z</time>
      </trkpt>
      <trkpt lat="50.27693" lon="1.57911">
        <ele>7</ele>
        <time>2023-06-10T14:45:32Z</time>
      </trkpt>
      <trkpt lat="50.27685" lon="1.5792">
        <ele>7</ele>
        <time>2023-06-10T14:45:34Z</time>
      </trkpt>
      <trkpt lat="50.27676" lon="1.57927">
        <ele>7</ele>
        <time>2023-06-10T14:45:36Z</time>
      </trkpt>
      <trkpt lat="50.27669" lon="1.57938">
        <ele>7</ele>
        <time>2023-06-10T14:45:38Z</time>
      </trkpt>
      <trkpt lat="50.2766" lon="1.57949">
        <ele>7</ele>
        <time>2023-06-10T14:45:40Z</time>
      </trkpt>
      <trkpt lat="50.27653" lon="1.57961">
        <ele>7</ele>
        <time>2023-06-10T14:45:42Z</time>
      </trkpt>
      <trkpt lat="50.27645" lon="1.57973">
        <ele>7</ele>
        <time>2023-06-10T14:45:44Z</time>
      </trkpt>
      <trkpt lat="50.27638" lon="1.57984">
        <ele>7</ele>
        <time>2023-06-10T14:45:46Z</time>
      </trkpt>
      <trkpt lat="50.27632" lon="1.57994">
        <ele>7</ele>
        <time>2023-06-10T14:45:48Z</time>
      </trkpt>
      <trkpt lat="50.27626" lon="1.58003">
        <ele>7</ele>
        <time>2023-06-10T14:45:50Z</time>
      </trkpt>
      <trkpt lat="50.27621" lon="1.58015">
        <ele>7</ele>
        <time>2023-06-10T14:45:52Z</time>
      </trkpt>
      <trkpt lat="50.27617" lon="1.58027">
        <ele>7</ele>
        <time>2023-06-10T14:45:54Z</time>
      </trkpt>
      <trkpt lat="50.27617" lon="1.58039">
        <ele>7</ele>
        <time>2023-06-10T14:45:56Z</time>
      </trkpt>
      <trkpt lat="50.27616" lon="1.58053">
        <ele>7</ele>
        <time>2023-06-10T14:45:58Z</time>
      </trkpt>
      <trkpt lat="50.27615" lon="1.58068">
        <ele>7</ele>
        <time>2023-06-10T14:46:00Z</time>
      </trkpt>
      <trkpt lat="50.27615" lon="1.58082">
        <ele>7</ele>
        <time>2023-06-10T14:46:02Z</time>
      </trkpt>
      <trkpt lat="50.27614" lon="1.58096">
        <ele>7</ele>
        <time>2023-06-10T14:46:04Z</time>
      </trkpt>
      <trkpt lat="50.27613" lon="1.58109">
        <ele>7</ele>
        <time>2023-06-10T14:46:06Z</time>
      </trkpt>
      <trkpt lat="50.2761" lon="1.58121">
        <ele>7</ele>
        <time>2023-06-10T14:46:08Z</time>
      </trkpt>
      <trkpt lat="50.27607" lon="1.58133">
        <ele>7</ele>
        <time>2023-06-10T14:46:10Z</time>
      </trkpt>
      <trkpt lat="50.27601" lon="1.58144">
        <ele>7</ele>
        <time>2023-06-10T14:46:12Z</time>
      </trkpt>
      <trkpt lat="50.27594" lon="1.58154">
        <ele>7</ele>
        <time>2023-06-10T14:46:14Z</time>
      </trkpt>
      <trkpt lat="50.27588" lon="1.58163">
        <ele>7</ele>
        <time>2023-06-10T14:46:16Z</time>
      </trkpt>
      <trkpt lat="50.27581" lon="1.58172">
        <ele>7</ele>
        <time>2023-06-10T14:46:18Z</time>
      </trkpt>
      <trkpt lat="50.27574" lon="1.58181">
        <ele>7</ele>
        <time>2023-06-10T14:46:20Z</time>
      </trkpt>
      <trkpt lat="50.27567" lon="1.58189">
        <ele>7</ele>
        <time>2023-06-10T14:46:22Z</time>
      </trkpt>
      <trkpt lat="50.27561" lon="1.58197">
        <ele>7</ele>
        <time>2023-06-10T14:46:24Z</time>
      </trkpt>
      <trkpt lat="50.27554" lon="1.58206">
        <ele>7</ele>
        <time>2023-06-10T14:46:26Z</time>
      </trkpt>
      <trkpt lat="50.27548" lon="1.58216">
        <ele>7</ele>
        <time>2023-06-10T14:46:28Z</time>
      </trkpt>
      <trkpt lat="50.27543" lon="1.58227">
        <ele>7</ele>
        <time>2023-06-10T14:46:30Z</time>
      </trkpt>
      <trkpt lat="50.2754" lon="1.58241">
        <ele>7</ele>
        <time>2023-06-10T14:46:32Z</time>
      </trkpt>
      <trkpt lat="50.27541" lon="1.58255">
        <ele>7</ele>
        <time>2023-06-10T14:46:34Z</time>
      </trkpt>
      <trkpt lat="50.27543" lon="1.58269">
        <ele>7</ele>
        <time>2023-06-10T14:46:36Z</time>
      </trkpt>
      <trkpt lat="50.27544" lon="1.58283">
        <ele>7</ele>
        <time>2023-06-10T14:46:38Z</time>
      </trkpt>
      <trkpt lat="50.27544" lon="1.58295">
        <ele>7</ele>
        <time>2023-06-10T14:46:40Z</time>
      </trkpt>
      <trkpt lat="50.27545" lon="1.58308">
        <ele>7</ele>
        <time>2023-06-10T14:46:42Z</time>
      </trkpt>
      <trkpt lat="50.27546" lon="1.58322">
        <ele>7</ele>
        <time>2023-06-10T14:46:44Z</time>
      </trkpt>
      <trkpt lat="50.27549" lon="1.58335">
        <ele>7</ele>
        <time>2023-06-10T14:46:46Z</time>
      </trkpt>
      <trkpt lat="50.27548" lon="1.58348">
        <ele>7</ele>
        <time>2023-06-10T14:46:48Z</time>
      </trkpt>
      <trkpt lat="50.27546" lon="1.58361">
        <ele>7</ele>
        <time>2023-06-10T14:46:50Z</time>
      </trkpt>
      <trkpt lat="50.27545" lon="1.58374">
        <ele>7</ele>
        <time>2023-06-10T14:46:52Z</time>
      </trkpt>
      <trkpt lat="50.27546" lon="1.58387">
        <ele>7</ele>
        <time>2023-06-10T14:46:54Z</time>
      </trkpt>
      <trkpt lat="50.27545" lon="1.58399">
        <ele>6.9</ele>
        <time>2023-06-10T14:46:56Z</time>
      </trkpt>
      <trkpt lat="50.27543" lon="1.58411">
        <ele>6.7</ele>
        <time>2023-06-10T14:46:58Z</time>
      </trkpt>
      <trkpt lat="50.27546" lon="1.58424">
        <ele>6.7</ele>
        <time>2023-06-10T14:47:00Z</time>
      </trkpt>
      <trkpt lat="50.27549" lon="1.58437">
        <ele>6.9</ele>
        <time>2023-06-10T14:47:02Z</time>
      </trkpt>
      <trkpt lat="50.27548" lon="1.58451">
        <ele>7</ele>
        <time>2023-06-10T14:47:04Z</time>
      </trkpt>
      <trkpt lat="50.27547" lon="1.58466">
        <ele>7</ele>
        <time>2023-06-10T14:47:06Z</time>
      </trkpt>
      <trkpt lat="50.27548" lon="1.5848">
        <ele>6.7</ele>
        <time>2023-06-10T14:47:08Z</time>
      </trkpt>
      <trkpt lat="50.27549" lon="1.58494">
        <ele>6.2</ele>
        <time>2023-06-10T14:47:10Z</time>
      </trkpt>
      <trkpt lat="50.27549" lon="1.58507">
        <ele>6</ele>
        <time>2023-06-10T14:47:12Z</time>
      </trkpt>
      <trkpt lat="50.27548" lon="1.58521">
        <ele>6</ele>
        <time>2023-06-10T14:47:14Z</time>
      </trkpt>
      <trkpt lat="50.27551" lon="1.58534">
        <ele>6</ele>
        <time>2023-06-10T14:47:16Z</time>
      </trkpt>
      <trkpt lat="50.27554" lon="1.58547">
        <ele>6</ele>
        <time>2023-06-10T14:47:18Z</time>
      </trkpt>
      <trkpt lat="50.27555" lon="1.5856">
        <ele>6</ele>
        <time>2023-06-10T14:47:20Z</time>
      </trkpt>
      <trkpt lat="50.27556" lon="1.58573">
        <ele>6</ele>
        <time>2023-06-10T14:47:22Z</time>
      </trkpt>
      <trkpt lat="50.27557" lon="1.58585">
        <ele>6</ele>
        <time>2023-06-10T14:47:24Z</time>
      </trkpt>
      <trkpt lat="50.27559" lon="1.58596">
        <ele>6</ele>
        <time>2023-06-10T14:47:26Z</time>
      </trkpt>
      <trkpt lat="50.27563" lon="1.58608">
        <ele>6</ele>
        <time>2023-06-10T14:47:28Z</time>
      </trkpt>
      <trkpt lat="50.27565" lon="1.58621">
        <ele>6</ele>
        <time>2023-06-10T14:47:30Z</time>
      </trkpt>
      <trkpt lat="50.27569" lon="1.58634">
        <ele>6</ele>
        <time>2023-06-10T14:47:32Z</time>
      </trkpt>
      <trkpt lat="50.27571" lon="1.58648">
        <ele>6</ele>
        <time>2023-06-10T14:47:34Z</time>
      </trkpt>
      <trkpt lat="50.27572" lon="1.58661">
        <ele>6</ele>
        <time>2023-06-10T14:47:36Z</time>
      </trkpt>
      <trkpt lat="50.27572" lon="1.58672">
        <ele>6</ele>
        <time>2023-06-10T14:47:38Z</time>
      </trkpt>
      <trkpt lat="50.27569" lon="1.58683">
        <ele>6</ele>
        <time>2023-06-10T14:47:40Z</time>
      </trkpt>
      <trkpt lat="50.27562" lon="1.58691">
        <ele>6</ele>
        <time>2023-06-10T14:47:42Z</time>
      </trkpt>
      <trkpt lat="50.27556" lon="1.58699">
        <ele>6</ele>
        <time>2023-06-10T14:47:44Z</time>
      </trkpt>
      <trkpt lat="50.27549" lon="1.58709">
        <ele>6.1</ele>
        <time>2023-06-10T14:47:46Z</time>
      </trkpt>
      <trkpt lat="50.27544" lon="1.58719">
        <ele>6</ele>
        <time>2023-06-10T14:47:48Z</time>
      </trkpt>
      <trkpt lat="50.2754" lon="1.5873">
        <ele>6.2</ele>
        <time>2023-06-10T14:47:50Z</time>
      </trkpt>
      <trkpt lat="50.2754" lon="1.58743">
        <ele>6.4</ele>
        <time>2023-06-10T14:47:52Z</time>
      </trkpt>
      <trkpt lat="50.27541" lon="1.58757">
        <ele>6.5</ele>
        <time>2023-06-10T14:47:54Z</time>
      </trkpt>
      <trkpt lat="50.27542" lon="1.58769">
        <ele>6.5</ele>
        <time>2023-06-10T14:47:56Z</time>
      </trkpt>
      <trkpt lat="50.27544" lon="1.58782">
        <ele>6.4</ele>
        <time>2023-06-10T14:47:58Z</time>
      </trkpt>
      <trkpt lat="50.27545" lon="1.58791">
        <ele>6.2</ele>
        <time>2023-06-10T14:48:00Z</time>
      </trkpt>
      <trkpt lat="50.27546" lon="1.58799">
        <ele>6.1</ele>
        <time>2023-06-10T14:48:02Z</time>
      </trkpt>
      <trkpt lat="50.27546" lon="1.58808">
        <ele>6</ele>
        <time>2023-06-10T14:48:04Z</time>
      </trkpt>
      <trkpt lat="50.27542" lon="1.58813">
        <ele>6</ele>
        <time>2023-06-10T14:48:06Z</time>
      </trkpt>
      <trkpt lat="50.27535" lon="1.58814">
        <ele>6</ele>
        <time>2023-06-10T14:48:08Z</time>
      </trkpt>
      <trkpt lat="50.27528" lon="1.58815">
        <ele>6</ele>
        <time>2023-06-10T14:48:10Z</time>
      </trkpt>
      <trkpt lat="50.27521" lon="1.58816">
        <ele>6.2</ele>
        <time>2023-06-10T14:48:12Z</time>
      </trkpt>
      <trkpt lat="50.27513" lon="1.58818">
        <ele>6.3</ele>
        <time>2023-06-10T14:48:14Z</time>
      </trkpt>
      <trkpt lat="50.27507" lon="1.5882">
        <ele>6.4</ele>
        <time>2023-06-10T14:48:16Z</time>
      </trkpt>
      <trkpt lat="50.275" lon="1.58822">
        <ele>6.4</ele>
        <time>2023-06-10T14:48:18Z</time>
      </trkpt>
      <trkpt lat="50.27494" lon="1.58824">
        <ele>6.5</ele>
        <time>2023-06-10T14:48:20Z</time>
      </trkpt>
      <trkpt lat="50.27489" lon="1.58825">
        <ele>6.6</ele>
        <time>2023-06-10T14:48:22Z</time>
      </trkpt>
      <trkpt lat="50.27484" lon="1.58826">
        <ele>6.7</ele>
        <time>2023-06-10T14:48:24Z</time>
      </trkpt>
      <trkpt lat="50.2748" lon="1.58827">
        <ele>6.8</ele>
        <time>2023-06-10T14:48:26Z</time>
      </trkpt>
      <trkpt lat="50.27475" lon="1.58828">
        <ele>6.9</ele>
        <time>2023-06-10T14:48:28Z</time>
      </trkpt>
      <trkpt lat="50.27469" lon="1.58829">
        <ele>7</ele>
        <time>2023-06-10T14:48:30Z</time>
      </trkpt>
      <trkpt lat="50.27464" lon="1.5883">
        <ele>7</ele>
        <time>2023-06-10T14:48:32Z</time>
      </trkpt>
      <trkpt lat="50.27459" lon="1.58832">
        <ele>7</ele>
        <time>2023-06-10T14:48:34Z</time>
      </trkpt>
      <trkpt lat="50.27454" lon="1.58833">
        <ele>7</ele>
        <time>2023-06-10T14:48:36Z</time>
      </trkpt>
      <trkpt lat="50.27449" lon="1.58834">
        <ele>7</ele>
        <time>2023-06-10T14:48:38Z</time>
      </trkpt>
      <trkpt lat="50.27445" lon="1.58835">
        <ele>6.9</ele>
        <time>2023-06-10T14:48:40Z</time>
      </trkpt>
      <trkpt lat="50.2744" lon="1.58836">
        <ele>6.7</ele>
        <time>2023-06-10T14:48:42Z</time>
      </trkpt>
      <trkpt lat="50.27435" lon="1.58838">
        <ele>6.5</ele>
        <time>2023-06-10T14:48:44Z</time>
      </trkpt>
      <trkpt lat="50.2743" lon="1.58839">
        <ele>6.4</ele>
        <time>2023-06-10T14:48:46Z</time>
      </trkpt>
      <trkpt lat="50.27422" lon="1.58834">
        <ele>6.2</ele>
        <time>2023-06-10T14:48:50Z</time>
      </trkpt>
      <trkpt lat="50.27417" lon="1.58825">
        <ele>6.3</ele>
        <time>2023-06-10T14:48:54Z</time>
      </trkpt>
      <trkpt lat="50.27412" lon="1.58815">
        <ele>6.7</ele>
        <time>2023-06-10T14:48:58Z</time>
      </trkpt>
      <trkpt lat="50.27408" lon="1.58809">
        <ele>6.9</ele>
        <time>2023-06-10T14:49:00Z</time>
      </trkpt>
      <trkpt lat="50.27403" lon="1.58804">
        <ele>6.9</ele>
        <time>2023-06-10T14:49:02Z</time>
      </trkpt>
      <trkpt lat="50.27399" lon="1.588">
        <ele>6.8</ele>
        <time>2023-06-10T14:49:04Z</time>
      </trkpt>
      <trkpt lat="50.27392" lon="1.58793">
        <ele>6.6</ele>
        <time>2023-06-10T14:49:08Z</time>
      </trkpt>
      <trkpt lat="50.27385" lon="1.58789">
        <ele>6.4</ele>
        <time>2023-06-10T14:49:12Z</time>
      </trkpt>
      <trkpt lat="50.27381" lon="1.58784">
        <ele>6.4</ele>
        <time>2023-06-10T14:49:16Z</time>
      </trkpt>
      <trkpt lat="50.27376" lon="1.58782">
        <ele>6.5</ele>
        <time>2023-06-10T14:49:32Z</time>
      </trkpt>
      <trkpt lat="50.27384" lon="1.58785">
        <ele>6.4</ele>
        <time>2023-06-10T14:50:26Z</time>
      </trkpt>
      <trkpt lat="50.27389" lon="1.58789">
        <ele>6.4</ele>
        <time>2023-06-10T14:50:28Z</time>
      </trkpt>
      <trkpt lat="50.27395" lon="1.58795">
        <ele>6.6</ele>
        <time>2023-06-10T14:50:30Z</time>
      </trkpt>
      <trkpt lat="50.274" lon="1.58801">
        <ele>6.8</ele>
        <time>2023-06-10T14:50:32Z</time>
      </trkpt>
      <trkpt lat="50.27405" lon="1.58806">
        <ele>7</ele>
        <time>2023-06-10T14:50:34Z</time>
      </trkpt>
      <trkpt lat="50.27409" lon="1.58813">
        <ele>6.7</ele>
        <time>2023-06-10T14:50:36Z</time>
      </trkpt>
      <trkpt lat="50.27413" lon="1.58819">
        <ele>6.5</ele>
        <time>2023-06-10T14:50:38Z</time>
      </trkpt>
      <trkpt lat="50.27417" lon="1.58824">
        <ele>6.3</ele>
        <time>2023-06-10T14:50:40Z</time>
      </trkpt>
      <trkpt lat="50.2742" lon="1.58831">
        <ele>6.2</ele>
        <time>2023-06-10T14:50:42Z</time>
      </trkpt>
      <trkpt lat="50.27425" lon="1.58838">
        <ele>6.2</ele>
        <time>2023-06-10T14:50:44Z</time>
      </trkpt>
      <trkpt lat="50.27431" lon="1.58841">
        <ele>6.4</ele>
        <time>2023-06-10T14:50:46Z</time>
      </trkpt>
      <trkpt lat="50.27437" lon="1.58841">
        <ele>6.6</ele>
        <time>2023-06-10T14:50:48Z</time>
      </trkpt>
      <trkpt lat="50.27444" lon="1.5884">
        <ele>6.7</ele>
        <time>2023-06-10T14:50:50Z</time>
      </trkpt>
      <trkpt lat="50.27449" lon="1.58838">
        <ele>6.8</ele>
        <time>2023-06-10T14:50:52Z</time>
      </trkpt>
      <trkpt lat="50.27454" lon="1.58837">
        <ele>6.9</ele>
        <time>2023-06-10T14:50:54Z</time>
      </trkpt>
      <trkpt lat="50.27461" lon="1.58834">
        <ele>7</ele>
        <time>2023-06-10T14:50:58Z</time>
      </trkpt>
      <trkpt lat="50.27468" lon="1.58831">
        <ele>7</ele>
        <time>2023-06-10T14:51:02Z</time>
      </trkpt>
      <trkpt lat="50.27472" lon="1.58827">
        <ele>7</ele>
        <time>2023-06-10T14:51:06Z</time>
      </trkpt>
      <trkpt lat="50.27474" lon="1.58835">
        <ele>6.9</ele>
        <time>2023-06-10T14:51:42Z</time>
      </trkpt>
      <trkpt lat="50.27473" lon="1.58843">
        <ele>6.6</ele>
        <time>2023-06-10T14:51:48Z</time>
      </trkpt>
      <trkpt lat="50.27474" lon="1.58851">
        <ele>6.3</ele>
        <time>2023-06-10T14:52:14Z</time>
      </trkpt>
      <trkpt lat="50.27472" lon="1.58844">
        <ele>6.6</ele>
        <time>2023-06-10T14:53:06Z</time>
      </trkpt>
      <trkpt lat="50.27468" lon="1.58836">
        <ele>6.9</ele>
        <time>2023-06-10T14:53:14Z</time>
      </trkpt>
      <trkpt lat="50.27461" lon="1.58835">
        <ele>6.9</ele>
        <time>2023-06-10T14:53:18Z</time>
      </trkpt>
      <trkpt lat="50.27451" lon="1.58835">
        <ele>6.9</ele>
        <time>2023-06-10T14:53:22Z</time>
      </trkpt>
      <trkpt lat="50.27445" lon="1.58837">
        <ele>6.9</ele>
        <time>2023-06-10T14:53:24Z</time>
      </trkpt>
      <trkpt lat="50.27439" lon="1.58838">
        <ele>6.7</ele>
        <time>2023-06-10T14:53:26Z</time>
      </trkpt>
      <trkpt lat="50.27433" lon="1.58838">
        <ele>6.5</ele>
        <time>2023-06-10T14:53:28Z</time>
      </trkpt>
      <trkpt lat="50.27428" lon="1.58837">
        <ele>6.3</ele>
        <time>2023-06-10T14:53:30Z</time>
      </trkpt>
      <trkpt lat="50.27422" lon="1.5883">
        <ele>6.3</ele>
        <time>2023-06-10T14:53:34Z</time>
      </trkpt>
      <trkpt lat="50.27415" lon="1.58822">
        <ele>6.4</ele>
        <time>2023-06-10T14:53:54Z</time>
      </trkpt>
      <trkpt lat="50.2741" lon="1.58815">
        <ele>6.7</ele>
        <time>2023-06-10T14:53:56Z</time>
      </trkpt>
      <trkpt lat="50.27405" lon="1.58807">
        <ele>6.9</ele>
        <time>2023-06-10T14:53:58Z</time>
      </trkpt>
      <trkpt lat="50.27399" lon="1.58801">
        <ele>6.8</ele>
        <time>2023-06-10T14:54:00Z</time>
      </trkpt>
      <trkpt lat="50.27392" lon="1.58794">
        <ele>6.6</ele>
        <time>2023-06-10T14:54:02Z</time>
      </trkpt>
      <trkpt lat="50.27386" lon="1.58788">
        <ele>6.4</ele>
        <time>2023-06-10T14:54:04Z</time>
      </trkpt>
      <trkpt lat="50.2738" lon="1.58783">
        <ele>6.4</ele>
        <time>2023-06-10T14:54:06Z</time>
      </trkpt>
      <trkpt lat="50.27375" lon="1.58778">
        <ele>6.5</ele>
        <time>2023-06-10T14:54:08Z</time>
      </trkpt>
      <trkpt lat="50.27369" lon="1.58773">
        <ele>6.7</ele>
        <time>2023-06-10T14:54:10Z</time>
      </trkpt>
      <trkpt lat="50.27362" lon="1.5877">
        <ele>7</ele>
        <time>2023-06-10T14:54:12Z</time>
      </trkpt>
      <trkpt lat="50.27356" lon="1.58764">
        <ele>7</ele>
        <time>2023-06-10T14:54:14Z</time>
      </trkpt>
      <trkpt lat="50.27349" lon="1.58759">
        <ele>7</ele>
        <time>2023-06-10T14:54:16Z</time>
      </trkpt>
      <trkpt lat="50.27343" lon="1.58755">
        <ele>7</ele>
        <time>2023-06-10T14:54:18Z</time>
      </trkpt>
      <trkpt lat="50.27337" lon="1.58752">
        <ele>7</ele>
        <time>2023-06-10T14:54:20Z</time>
      </trkpt>
      <trkpt lat="50.2733" lon="1.58749">
        <ele>7</ele>
        <time>2023-06-10T14:54:22Z</time>
      </trkpt>
      <trkpt lat="50.27322" lon="1.58746">
        <ele>7</ele>
        <time>2023-06-10T14:54:24Z</time>
      </trkpt>
      <trkpt lat="50.27314" lon="1.58745">
        <ele>7</ele>
        <time>2023-06-10T14:54:26Z</time>
      </trkpt>
      <trkpt lat="50.27306" lon="1.58743">
        <ele>7</ele>
        <time>2023-06-10T14:54:28Z</time>
      </trkpt>
      <trkpt lat="50.27298" lon="1.58742">
        <ele>7</ele>
        <time>2023-06-10T14:54:30Z</time>
      </trkpt>
      <trkpt lat="50.2729" lon="1.58742">
        <ele>7</ele>
        <time>2023-06-10T14:54:32Z</time>
      </trkpt>
      <trkpt lat="50.27284" lon="1.58739">
        <ele>7</ele>
        <time>2023-06-10T14:54:34Z</time>
      </trkpt>
      <trkpt lat="50.27279" lon="1.58732">
        <ele>7</ele>
        <time>2023-06-10T14:54:36Z</time>
      </trkpt>
      <trkpt lat="50.27272" lon="1.58725">
        <ele>7</ele>
        <time>2023-06-10T14:54:38Z</time>
      </trkpt>
      <trkpt lat="50.27263" lon="1.58722">
        <ele>7</ele>
        <time>2023-06-10T14:54:40Z</time>
      </trkpt>
      <trkpt lat="50.27254" lon="1.58721">
        <ele>7</ele>
        <time>2023-06-10T14:54:42Z</time>
      </trkpt>
      <trkpt lat="50.27246" lon="1.5872">
        <ele>7</ele>
        <time>2023-06-10T14:54:44Z</time>
      </trkpt>
      <trkpt lat="50.27238" lon="1.5872">
        <ele>7</ele>
        <time>2023-06-10T14:54:46Z</time>
      </trkpt>
      <trkpt lat="50.2723" lon="1.58723">
        <ele>7</ele>
        <time>2023-06-10T14:54:48Z</time>
      </trkpt>
      <trkpt lat="50.27223" lon="1.58728">
        <ele>7</ele>
        <time>2023-06-10T14:54:50Z</time>
      </trkpt>
      <trkpt lat="50.27216" lon="1.58733">
        <ele>7</ele>
        <time>2023-06-10T14:54:52Z</time>
      </trkpt>
      <trkpt lat="50.27209" lon="1.58735">
        <ele>7</ele>
        <time>2023-06-10T14:54:54Z</time>
      </trkpt>
      <trkpt lat="50.27201" lon="1.58737">
        <ele>7</ele>
        <time>2023-06-10T14:54:56Z</time>
      </trkpt>
      <trkpt lat="50.27193" lon="1.58737">
        <ele>7.1</ele>
        <time>2023-06-10T14:54:58Z</time>
      </trkpt>
      <trkpt lat="50.27184" lon="1.58737">
        <ele>7.6</ele>
        <time>2023-06-10T14:55:00Z</time>
      </trkpt>
      <trkpt lat="50.27176" lon="1.58739">
        <ele>8.1</ele>
        <time>2023-06-10T14:55:02Z</time>
      </trkpt>
      <trkpt lat="50.27168" lon="1.58741">
        <ele>8.6</ele>
        <time>2023-06-10T14:55:04Z</time>
      </trkpt>
      <trkpt lat="50.27162" lon="1.58745">
        <ele>8.8</ele>
        <time>2023-06-10T14:55:06Z</time>
      </trkpt>
      <trkpt lat="50.27154" lon="1.58751">
        <ele>9</ele>
        <time>2023-06-10T14:55:08Z</time>
      </trkpt>
      <trkpt lat="50.27147" lon="1.58756">
        <ele>9.1</ele>
        <time>2023-06-10T14:55:10Z</time>
      </trkpt>
      <trkpt lat="50.2714" lon="1.58762">
        <ele>9.4</ele>
        <time>2023-06-10T14:55:12Z</time>
      </trkpt>
      <trkpt lat="50.27131" lon="1.58768">
        <ele>8.9</ele>
        <time>2023-06-10T14:55:14Z</time>
      </trkpt>
      <trkpt lat="50.27125" lon="1.58778">
        <ele>8.5</ele>
        <time>2023-06-10T14:55:16Z</time>
      </trkpt>
      <trkpt lat="50.2712" lon="1.5879">
        <ele>7.5</ele>
        <time>2023-06-10T14:55:18Z</time>
      </trkpt>
      <trkpt lat="50.2711" lon="1.58798">
        <ele>7</ele>
        <time>2023-06-10T14:55:20Z</time>
      </trkpt>
      <trkpt lat="50.271" lon="1.588">
        <ele>6.6</ele>
        <time>2023-06-10T14:55:22Z</time>
      </trkpt>
      <trkpt lat="50.2709" lon="1.588">
        <ele>6.2</ele>
        <time>2023-06-10T14:55:24Z</time>
      </trkpt>
      <trkpt lat="50.2708" lon="1.588">
        <ele>6.1</ele>
        <time>2023-06-10T14:55:26Z</time>
      </trkpt>
      <trkpt lat="50.2707" lon="1.58803">
        <ele>6.4</ele>
        <time>2023-06-10T14:55:28Z</time>
      </trkpt>
      <trkpt lat="50.27061" lon="1.58809">
        <ele>6.8</ele>
        <time>2023-06-10T14:55:30Z</time>
      </trkpt>
      <trkpt lat="50.27052" lon="1.58814">
        <ele>7</ele>
        <time>2023-06-10T14:55:32Z</time>
      </trkpt>
      <trkpt lat="50.27044" lon="1.58818">
        <ele>7</ele>
        <time>2023-06-10T14:55:34Z</time>
      </trkpt>
      <trkpt lat="50.27036" lon="1.58823">
        <ele>7</ele>
        <time>2023-06-10T14:55:36Z</time>
      </trkpt>
      <trkpt lat="50.27028" lon="1.58828">
        <ele>7</ele>
        <time>2023-06-10T14:55:38Z</time>
      </trkpt>
      <trkpt lat="50.2702" lon="1.58832">
        <ele>7</ele>
        <time>2023-06-10T14:55:40Z</time>
      </trkpt>
      <trkpt lat="50.27012" lon="1.58841">
        <ele>7</ele>
        <time>2023-06-10T14:55:42Z</time>
      </trkpt>
      <trkpt lat="50.27007" lon="1.58851">
        <ele>7</ele>
        <time>2023-06-10T14:55:44Z</time>
      </trkpt>
      <trkpt lat="50.27002" lon="1.58862">
        <ele>7</ele>
        <time>2023-06-10T14:55:46Z</time>
      </trkpt>
      <trkpt lat="50.26995" lon="1.58869">
        <ele>7</ele>
        <time>2023-06-10T14:55:48Z</time>
      </trkpt>
      <trkpt lat="50.26988" lon="1.58874">
        <ele>6.8</ele>
        <time>2023-06-10T14:55:50Z</time>
      </trkpt>
      <trkpt lat="50.2698" lon="1.58878">
        <ele>6.6</ele>
        <time>2023-06-10T14:55:52Z</time>
      </trkpt>
      <trkpt lat="50.26971" lon="1.58883">
        <ele>6.2</ele>
        <time>2023-06-10T14:55:54Z</time>
      </trkpt>
      <trkpt lat="50.26962" lon="1.58887">
        <ele>6</ele>
        <time>2023-06-10T14:55:56Z</time>
      </trkpt>
      <trkpt lat="50.26954" lon="1.58894">
        <ele>6</ele>
        <time>2023-06-10T14:55:58Z</time>
      </trkpt>
      <trkpt lat="50.26947" lon="1.58899">
        <ele>6</ele>
        <time>2023-06-10T14:56:00Z</time>
      </trkpt>
      <trkpt lat="50.26939" lon="1.58905">
        <ele>6</ele>
        <time>2023-06-10T14:56:02Z</time>
      </trkpt>
      <trkpt lat="50.26931" lon="1.5891">
        <ele>6</ele>
        <time>2023-06-10T14:56:04Z</time>
      </trkpt>
      <trkpt lat="50.26924" lon="1.58916">
        <ele>6</ele>
        <time>2023-06-10T14:56:06Z</time>
      </trkpt>
      <trkpt lat="50.26918" lon="1.58918">
        <ele>6</ele>
        <time>2023-06-10T14:56:08Z</time>
      </trkpt>
      <trkpt lat="50.26912" lon="1.58917">
        <ele>6</ele>
        <time>2023-06-10T14:56:10Z</time>
      </trkpt>
      <trkpt lat="50.26906" lon="1.58915">
        <ele>6</ele>
        <time>2023-06-10T14:56:12Z</time>
      </trkpt>
      <trkpt lat="50.26896" lon="1.58914">
        <ele>6</ele>
        <time>2023-06-10T14:56:16Z</time>
      </trkpt>
      <trkpt lat="50.26891" lon="1.58913">
        <ele>6</ele>
        <time>2023-06-10T14:56:18Z</time>
      </trkpt>
      <trkpt lat="50.26883" lon="1.58912">
        <ele>6</ele>
        <time>2023-06-10T14:56:20Z</time>
      </trkpt>
      <trkpt lat="50.26876" lon="1.58911">
        <ele>6</ele>
        <time>2023-06-10T14:56:22Z</time>
      </trkpt>
      <trkpt lat="50.26869" lon="1.58909">
        <ele>6</ele>
        <time>2023-06-10T14:56:24Z</time>
      </trkpt>
      <trkpt lat="50.26863" lon="1.5891">
        <ele>6</ele>
        <time>2023-06-10T14:56:26Z</time>
      </trkpt>
      <trkpt lat="50.26856" lon="1.5891">
        <ele>6.2</ele>
        <time>2023-06-10T14:56:28Z</time>
      </trkpt>
      <trkpt lat="50.2685" lon="1.5891">
        <ele>6.4</ele>
        <time>2023-06-10T14:56:30Z</time>
      </trkpt>
      <trkpt lat="50.26843" lon="1.58909">
        <ele>6.7</ele>
        <time>2023-06-10T14:56:32Z</time>
      </trkpt>
      <trkpt lat="50.26836" lon="1.58905">
        <ele>6.9</ele>
        <time>2023-06-10T14:56:34Z</time>
      </trkpt>
      <trkpt lat="50.26829" lon="1.589">
        <ele>6.9</ele>
        <time>2023-06-10T14:56:36Z</time>
      </trkpt>
      <trkpt lat="50.26824" lon="1.58894">
        <ele>6.6</ele>
        <time>2023-06-10T14:56:38Z</time>
      </trkpt>
      <trkpt lat="50.26818" lon="1.58885">
        <ele>6.5</ele>
        <time>2023-06-10T14:56:40Z</time>
      </trkpt>
      <trkpt lat="50.26813" lon="1.58877">
        <ele>6.5</ele>
        <time>2023-06-10T14:56:42Z</time>
      </trkpt>
      <trkpt lat="50.26808" lon="1.58868">
        <ele>6.7</ele>
        <time>2023-06-10T14:56:44Z</time>
      </trkpt>
      <trkpt lat="50.26803" lon="1.58859">
        <ele>6.8</ele>
        <time>2023-06-10T14:56:46Z</time>
      </trkpt>
      <trkpt lat="50.26798" lon="1.58849">
        <ele>6.4</ele>
        <time>2023-06-10T14:56:48Z</time>
      </trkpt>
      <trkpt lat="50.26794" lon="1.58841">
        <ele>6.2</ele>
        <time>2023-06-10T14:56:50Z</time>
      </trkpt>
      <trkpt lat="50.26788" lon="1.58833">
        <ele>6</ele>
        <time>2023-06-10T14:56:52Z</time>
      </trkpt>
      <trkpt lat="50.26783" lon="1.58824">
        <ele>6</ele>
        <time>2023-06-10T14:56:54Z</time>
      </trkpt>
      <trkpt lat="50.26777" lon="1.58818">
        <ele>6</ele>
        <time>2023-06-10T14:56:56Z</time>
      </trkpt>
      <trkpt lat="50.26771" lon="1.58809">
        <ele>6</ele>
        <time>2023-06-10T14:56:58Z</time>
      </trkpt>
      <trkpt lat="50.26766" lon="1.58801">
        <ele>6.1</ele>
        <time>2023-06-10T14:57:00Z</time>
      </trkpt>
      <trkpt lat="50.2676" lon="1.58794">
        <ele>6.4</ele>
        <time>2023-06-10T14:57:02Z</time>
      </trkpt>
      <trkpt lat="50.26755" lon="1.58786">
        <ele>6.7</ele>
        <time>2023-06-10T14:57:04Z</time>
      </trkpt>
      <trkpt lat="50.26749" lon="1.58777">
        <ele>7</ele>
        <time>2023-06-10T14:57:06Z</time>
      </trkpt>
      <trkpt lat="50.26744" lon="1.58768">
        <ele>6.8</ele>
        <time>2023-06-10T14:57:08Z</time>
      </trkpt>
      <trkpt lat="50.26739" lon="1.5876">
        <ele>6.6</ele>
        <time>2023-06-10T14:57:10Z</time>
      </trkpt>
      <trkpt lat="50.26732" lon="1.58752">
        <ele>6.3</ele>
        <time>2023-06-10T14:57:12Z</time>
      </trkpt>
      <trkpt lat="50.26724" lon="1.58745">
        <ele>6.1</ele>
        <time>2023-06-10T14:57:14Z</time>
      </trkpt>
      <trkpt lat="50.26716" lon="1.5874">
        <ele>6</ele>
        <time>2023-06-10T14:57:16Z</time>
      </trkpt>
      <trkpt lat="50.26708" lon="1.58735">
        <ele>6</ele>
        <time>2023-06-10T14:57:18Z</time>
      </trkpt>
      <trkpt lat="50.26701" lon="1.58731">
        <ele>6</ele>
        <time>2023-06-10T14:57:20Z</time>
      </trkpt>
      <trkpt lat="50.26692" lon="1.58728">
        <ele>6.1</ele>
        <time>2023-06-10T14:57:22Z</time>
      </trkpt>
      <trkpt lat="50.26683" lon="1.58725">
        <ele>6.4</ele>
        <time>2023-06-10T14:57:24Z</time>
      </trkpt>
      <trkpt lat="50.26674" lon="1.58721">
        <ele>6.7</ele>
        <time>2023-06-10T14:57:26Z</time>
      </trkpt>
      <trkpt lat="50.26666" lon="1.58718">
        <ele>7.1</ele>
        <time>2023-06-10T14:57:28Z</time>
      </trkpt>
      <trkpt lat="50.26657" lon="1.58715">
        <ele>7.2</ele>
        <time>2023-06-10T14:57:30Z</time>
      </trkpt>
      <trkpt lat="50.26649" lon="1.5871">
        <ele>7.2</ele>
        <time>2023-06-10T14:57:32Z</time>
      </trkpt>
      <trkpt lat="50.26641" lon="1.58705">
        <ele>7.1</ele>
        <time>2023-06-10T14:57:34Z</time>
      </trkpt>
      <trkpt lat="50.26634" lon="1.587">
        <ele>7.6</ele>
        <time>2023-06-10T14:57:36Z</time>
      </trkpt>
      <trkpt lat="50.26627" lon="1.58696">
        <ele>8.3</ele>
        <time>2023-06-10T14:57:38Z</time>
      </trkpt>
      <trkpt lat="50.26621" lon="1.58692">
        <ele>8.9</ele>
        <time>2023-06-10T14:57:40Z</time>
      </trkpt>
      <trkpt lat="50.26616" lon="1.5869">
        <ele>9.5</ele>
        <time>2023-06-10T14:57:42Z</time>
      </trkpt>
      <trkpt lat="50.26608" lon="1.58682">
        <ele>10.4</ele>
        <time>2023-06-10T14:57:46Z</time>
      </trkpt>
      <trkpt lat="50.26603" lon="1.58681">
        <ele>10.9</ele>
        <time>2023-06-10T14:57:48Z</time>
      </trkpt>
      <trkpt lat="50.26595" lon="1.58678">
        <ele>11.8</ele>
        <time>2023-06-10T14:57:52Z</time>
      </trkpt>
      <trkpt lat="50.2659" lon="1.58676">
        <ele>12.3</ele>
        <time>2023-06-10T14:57:54Z</time>
      </trkpt>
      <trkpt lat="50.26585" lon="1.58675">
        <ele>12.9</ele>
        <time>2023-06-10T14:57:56Z</time>
      </trkpt>
      <trkpt lat="50.26578" lon="1.58677">
        <ele>12.8</ele>
        <time>2023-06-10T14:57:58Z</time>
      </trkpt>
      <trkpt lat="50.2657" lon="1.58676">
        <ele>12.5</ele>
        <time>2023-06-10T14:58:00Z</time>
      </trkpt>
      <trkpt lat="50.26563" lon="1.58675">
        <ele>12.3</ele>
        <time>2023-06-10T14:58:02Z</time>
      </trkpt>
      <trkpt lat="50.26557" lon="1.58672">
        <ele>12.1</ele>
        <time>2023-06-10T14:58:04Z</time>
      </trkpt>
      <trkpt lat="50.26548" lon="1.58668">
        <ele>11.7</ele>
        <time>2023-06-10T14:58:08Z</time>
      </trkpt>
      <trkpt lat="50.26541" lon="1.58664">
        <ele>11.4</ele>
        <time>2023-06-10T14:58:10Z</time>
      </trkpt>
      <trkpt lat="50.26534" lon="1.58662">
        <ele>11.1</ele>
        <time>2023-06-10T14:58:12Z</time>
      </trkpt>
      <trkpt lat="50.26524" lon="1.58662">
        <ele>10.7</ele>
        <time>2023-06-10T14:58:14Z</time>
      </trkpt>
      <trkpt lat="50.26513" lon="1.58665">
        <ele>10.4</ele>
        <time>2023-06-10T14:58:16Z</time>
      </trkpt>
      <trkpt lat="50.26505" lon="1.58666">
        <ele>10.1</ele>
        <time>2023-06-10T14:58:18Z</time>
      </trkpt>
      <trkpt lat="50.26495" lon="1.58666">
        <ele>9.8</ele>
        <time>2023-06-10T14:58:20Z</time>
      </trkpt>
      <trkpt lat="50.26485" lon="1.58662">
        <ele>9.4</ele>
        <time>2023-06-10T14:58:22Z</time>
      </trkpt>
      <trkpt lat="50.26475" lon="1.58664">
        <ele>9.2</ele>
        <time>2023-06-10T14:58:24Z</time>
      </trkpt>
      <trkpt lat="50.26466" lon="1.58672">
        <ele>8.5</ele>
        <time>2023-06-10T14:58:26Z</time>
      </trkpt>
      <trkpt lat="50.26456" lon="1.58684">
        <ele>7.5</ele>
        <time>2023-06-10T14:58:28Z</time>
      </trkpt>
      <trkpt lat="50.26446" lon="1.58695">
        <ele>7</ele>
        <time>2023-06-10T14:58:30Z</time>
      </trkpt>
      <trkpt lat="50.26437" lon="1.58701">
        <ele>7</ele>
        <time>2023-06-10T14:58:32Z</time>
      </trkpt>
      <trkpt lat="50.26428" lon="1.58709">
        <ele>7</ele>
        <time>2023-06-10T14:58:34Z</time>
      </trkpt>
      <trkpt lat="50.26417" lon="1.58715">
        <ele>7</ele>
        <time>2023-06-10T14:58:36Z</time>
      </trkpt>
      <trkpt lat="50.26408" lon="1.58718">
        <ele>6.7</ele>
        <time>2023-06-10T14:58:38Z</time>
      </trkpt>
      <trkpt lat="50.264" lon="1.58723">
        <ele>6.4</ele>
        <time>2023-06-10T14:58:40Z</time>
      </trkpt>
      <trkpt lat="50.26393" lon="1.58729">
        <ele>6.1</ele>
        <time>2023-06-10T14:58:42Z</time>
      </trkpt>
      <trkpt lat="50.26386" lon="1.58733">
        <ele>6</ele>
        <time>2023-06-10T14:58:46Z</time>
      </trkpt>
      <trkpt lat="50.26381" lon="1.58735">
        <ele>6</ele>
        <time>2023-06-10T14:58:48Z</time>
      </trkpt>
      <trkpt lat="50.26376" lon="1.58737">
        <ele>6</ele>
        <time>2023-06-10T14:58:50Z</time>
      </trkpt>
      <trkpt lat="50.26369" lon="1.58738">
        <ele>6</ele>
        <time>2023-06-10T14:58:52Z</time>
      </trkpt>
      <trkpt lat="50.26363" lon="1.58741">
        <ele>6</ele>
        <time>2023-06-10T14:58:54Z</time>
      </trkpt>
      <trkpt lat="50.26359" lon="1.58746">
        <ele>6</ele>
        <time>2023-06-10T14:58:56Z</time>
      </trkpt>
      <trkpt lat="50.26355" lon="1.5875">
        <ele>6</ele>
        <time>2023-06-10T14:58:58Z</time>
      </trkpt>
      <trkpt lat="50.26347" lon="1.58755">
        <ele>6</ele>
        <time>2023-06-10T14:59:02Z</time>
      </trkpt>
      <trkpt lat="50.26342" lon="1.58754">
        <ele>6</ele>
        <time>2023-06-10T14:59:04Z</time>
      </trkpt>
      <trkpt lat="50.26337" lon="1.58753">
        <ele>6</ele>
        <time>2023-06-10T14:59:06Z</time>
      </trkpt>
      <trkpt lat="50.26331" lon="1.58751">
        <ele>6.1</ele>
        <time>2023-06-10T14:59:08Z</time>
      </trkpt>
      <trkpt lat="50.26326" lon="1.58748">
        <ele>6.5</ele>
        <time>2023-06-10T14:59:10Z</time>
      </trkpt>
      <trkpt lat="50.26321" lon="1.58744">
        <ele>6.8</ele>
        <time>2023-06-10T14:59:12Z</time>
      </trkpt>
      <trkpt lat="50.2632" lon="1.58737">
        <ele>6.7</ele>
        <time>2023-06-10T14:59:14Z</time>
      </trkpt>
      <trkpt lat="50.26318" lon="1.58727">
        <ele>6.7</ele>
        <time>2023-06-10T14:59:16Z</time>
      </trkpt>
      <trkpt lat="50.26319" lon="1.58719">
        <ele>6.7</ele>
        <time>2023-06-10T14:59:18Z</time>
      </trkpt>
      <trkpt lat="50.26319" lon="1.58709">
        <ele>7</ele>
        <time>2023-06-10T14:59:20Z</time>
      </trkpt>
      <trkpt lat="50.2632" lon="1.58701">
        <ele>7.2</ele>
        <time>2023-06-10T14:59:22Z</time>
      </trkpt>
      <trkpt lat="50.26321" lon="1.58693">
        <ele>7.4</ele>
        <time>2023-06-10T14:59:24Z</time>
      </trkpt>
      <trkpt lat="50.26322" lon="1.58683">
        <ele>7.9</ele>
        <time>2023-06-10T14:59:26Z</time>
      </trkpt>
      <trkpt lat="50.26321" lon="1.58673">
        <ele>8.7</ele>
        <time>2023-06-10T14:59:28Z</time>
      </trkpt>
      <trkpt lat="50.26321" lon="1.58665">
        <ele>9.3</ele>
        <time>2023-06-10T14:59:30Z</time>
      </trkpt>
      <trkpt lat="50.26323" lon="1.58654">
        <ele>9.3</ele>
        <time>2023-06-10T14:59:32Z</time>
      </trkpt>
      <trkpt lat="50.26326" lon="1.58645">
        <ele>9.1</ele>
        <time>2023-06-10T14:59:34Z</time>
      </trkpt>
      <trkpt lat="50.2633" lon="1.58636">
        <ele>8.6</ele>
        <time>2023-06-10T14:59:36Z</time>
      </trkpt>
      <trkpt lat="50.26335" lon="1.58628">
        <ele>8.3</ele>
        <time>2023-06-10T14:59:38Z</time>
      </trkpt>
      <trkpt lat="50.26339" lon="1.5862">
        <ele>8.2</ele>
        <time>2023-06-10T14:59:40Z</time>
      </trkpt>
      <trkpt lat="50.26347" lon="1.58612">
        <ele>8</ele>
        <time>2023-06-10T14:59:42Z</time>
      </trkpt>
      <trkpt lat="50.26353" lon="1.58608">
        <ele>7.6</ele>
        <time>2023-06-10T14:59:44Z</time>
      </trkpt>
      <trkpt lat="50.2636" lon="1.58608">
        <ele>7.1</ele>
        <time>2023-06-10T14:59:46Z</time>
      </trkpt>
      <trkpt lat="50.26364" lon="1.5861">
        <ele>7</ele>
        <time>2023-06-10T15:00:00Z</time>
      </trkpt>
      <trkpt lat="50.2636" lon="1.58607">
        <ele>7.1</ele>
        <time>2023-06-10T15:00:38Z</time>
      </trkpt>
      <trkpt lat="50.26359" lon="1.58599">
        <ele>7.2</ele>
        <time>2023-06-10T15:00:44Z</time>
      </trkpt>
      <trkpt lat="50.26363" lon="1.58605">
        <ele>7</ele>
        <time>2023-06-10T15:01:08Z</time>
      </trkpt>
      <trkpt lat="50.26365" lon="1.58611">
        <ele>7</ele>
        <time>2023-06-10T15:25:12Z</time>
      </trkpt>
      <trkpt lat="50.26359" lon="1.58613">
        <ele>7</ele>
        <time>2023-06-10T15:26:42Z</time>
      </trkpt>
      <trkpt lat="50.26349" lon="1.58612">
        <ele>7.8</ele>
        <time>2023-06-10T15:26:46Z</time>
      </trkpt>
      <trkpt lat="50.26345" lon="1.58614">
        <ele>8.1</ele>
        <time>2023-06-10T15:26:48Z</time>
      </trkpt>
      <trkpt lat="50.26337" lon="1.58621">
        <ele>8.3</ele>
        <time>2023-06-10T15:26:52Z</time>
      </trkpt>
      <trkpt lat="50.26333" lon="1.58627">
        <ele>8.4</ele>
        <time>2023-06-10T15:26:54Z</time>
      </trkpt>
      <trkpt lat="50.26329" lon="1.58633">
        <ele>8.8</ele>
        <time>2023-06-10T15:26:56Z</time>
      </trkpt>
      <trkpt lat="50.26326" lon="1.5864">
        <ele>9.2</ele>
        <time>2023-06-10T15:26:58Z</time>
      </trkpt>
      <trkpt lat="50.26323" lon="1.58648">
        <ele>9.5</ele>
        <time>2023-06-10T15:27:00Z</time>
      </trkpt>
      <trkpt lat="50.26321" lon="1.58658">
        <ele>9.5</ele>
        <time>2023-06-10T15:27:02Z</time>
      </trkpt>
      <trkpt lat="50.26319" lon="1.58668">
        <ele>9.4</ele>
        <time>2023-06-10T15:27:04Z</time>
      </trkpt>
      <trkpt lat="50.26318" lon="1.5868">
        <ele>8.7</ele>
        <time>2023-06-10T15:27:06Z</time>
      </trkpt>
      <trkpt lat="50.26317" lon="1.5869">
        <ele>8.1</ele>
        <time>2023-06-10T15:27:08Z</time>
      </trkpt>
      <trkpt lat="50.26316" lon="1.58703">
        <ele>7.6</ele>
        <time>2023-06-10T15:27:10Z</time>
      </trkpt>
      <trkpt lat="50.26316" lon="1.58716">
        <ele>7.1</ele>
        <time>2023-06-10T15:27:12Z</time>
      </trkpt>
      <trkpt lat="50.26317" lon="1.58729">
        <ele>6.8</ele>
        <time>2023-06-10T15:27:14Z</time>
      </trkpt>
      <trkpt lat="50.2632" lon="1.58743">
        <ele>6.8</ele>
        <time>2023-06-10T15:27:16Z</time>
      </trkpt>
      <trkpt lat="50.26321" lon="1.58758">
        <ele>6.9</ele>
        <time>2023-06-10T15:27:18Z</time>
      </trkpt>
      <trkpt lat="50.26322" lon="1.58772">
        <ele>6.8</ele>
        <time>2023-06-10T15:27:20Z</time>
      </trkpt>
      <trkpt lat="50.26325" lon="1.58785">
        <ele>6.5</ele>
        <time>2023-06-10T15:27:22Z</time>
      </trkpt>
      <trkpt lat="50.2633" lon="1.58795">
        <ele>6.2</ele>
        <time>2023-06-10T15:27:24Z</time>
      </trkpt>
      <trkpt lat="50.26336" lon="1.58802">
        <ele>6</ele>
        <time>2023-06-10T15:27:26Z</time>
      </trkpt>
      <trkpt lat="50.26342" lon="1.58805">
        <ele>6</ele>
        <time>2023-06-10T15:27:28Z</time>
      </trkpt>
      <trkpt lat="50.26349" lon="1.58808">
        <ele>6</ele>
        <time>2023-06-10T15:27:30Z</time>
      </trkpt>
      <trkpt lat="50.26356" lon="1.5881">
        <ele>6</ele>
        <time>2023-06-10T15:27:32Z</time>
      </trkpt>
      <trkpt lat="50.26362" lon="1.58813">
        <ele>6</ele>
        <time>2023-06-10T15:27:34Z</time>
      </trkpt>
      <trkpt lat="50.26368" lon="1.58815">
        <ele>6</ele>
        <time>2023-06-10T15:27:36Z</time>
      </trkpt>
      <trkpt lat="50.26376" lon="1.5882">
        <ele>6</ele>
        <time>2023-06-10T15:27:38Z</time>
      </trkpt>
      <trkpt lat="50.26382" lon="1.58827">
        <ele>6</ele>
        <time>2023-06-10T15:27:40Z</time>
      </trkpt>
      <trkpt lat="50.26386" lon="1.58836">
        <ele>6</ele>
        <time>2023-06-10T15:27:42Z</time>
      </trkpt>
      <trkpt lat="50.26389" lon="1.58847">
        <ele>6</ele>
        <time>2023-06-10T15:27:44Z</time>
      </trkpt>
      <trkpt lat="50.26392" lon="1.58859">
        <ele>6.2</ele>
        <time>2023-06-10T15:27:46Z</time>
      </trkpt>
      <trkpt lat="50.26392" lon="1.58871">
        <ele>6.2</ele>
        <time>2023-06-10T15:27:48Z</time>
      </trkpt>
      <trkpt lat="50.26393" lon="1.58883">
        <ele>6.2</ele>
        <time>2023-06-10T15:27:50Z</time>
      </trkpt>
      <trkpt lat="50.26392" lon="1.58895">
        <ele>6.1</ele>
        <time>2023-06-10T15:27:52Z</time>
      </trkpt>
      <trkpt lat="50.26392" lon="1.58907">
        <ele>6.1</ele>
        <time>2023-06-10T15:27:54Z</time>
      </trkpt>
      <trkpt lat="50.2639" lon="1.58917">
        <ele>6</ele>
        <time>2023-06-10T15:27:56Z</time>
      </trkpt>
      <trkpt lat="50.26387" lon="1.58928">
        <ele>6</ele>
        <time>2023-06-10T15:27:58Z</time>
      </trkpt>
      <trkpt lat="50.26385" lon="1.58938">
        <ele>6</ele>
        <time>2023-06-10T15:28:00Z</time>
      </trkpt>
      <trkpt lat="50.26379" lon="1.58945">
        <ele>6</ele>
        <time>2023-06-10T15:28:02Z</time>
      </trkpt>
      <trkpt lat="50.26373" lon="1.58949">
        <ele>6</ele>
        <time>2023-06-10T15:28:04Z</time>
      </trkpt>
      <trkpt lat="50.26367" lon="1.58953">
        <ele>6</ele>
        <time>2023-06-10T15:28:06Z</time>
      </trkpt>
      <trkpt lat="50.26359" lon="1.58957">
        <ele>6</ele>
        <time>2023-06-10T15:28:08Z</time>
      </trkpt>
      <trkpt lat="50.26351" lon="1.5896">
        <ele>6</ele>
        <time>2023-06-10T15:28:10Z</time>
      </trkpt>
      <trkpt lat="50.26344" lon="1.58962">
        <ele>6</ele>
        <time>2023-06-10T15:28:12Z</time>
      </trkpt>
      <trkpt lat="50.26337" lon="1.58966">
        <ele>6</ele>
        <time>2023-06-10T15:28:14Z</time>
      </trkpt>
      <trkpt lat="50.26331" lon="1.58971">
        <ele>6</ele>
        <time>2023-06-10T15:28:16Z</time>
      </trkpt>
      <trkpt lat="50.26326" lon="1.58977">
        <ele>6</ele>
        <time>2023-06-10T15:28:18Z</time>
      </trkpt>
      <trkpt lat="50.26324" lon="1.58987">
        <ele>6.2</ele>
        <time>2023-06-10T15:28:20Z</time>
      </trkpt>
      <trkpt lat="50.26325" lon="1.58998">
        <ele>6.3</ele>
        <time>2023-06-10T15:28:22Z</time>
      </trkpt>
      <trkpt lat="50.26327" lon="1.59008">
        <ele>6.2</ele>
        <time>2023-06-10T15:28:24Z</time>
      </trkpt>
      <trkpt lat="50.26329" lon="1.59018">
        <ele>6.2</ele>
        <time>2023-06-10T15:28:26Z</time>
      </trkpt>
      <trkpt lat="50.26331" lon="1.59028">
        <ele>6.1</ele>
        <time>2023-06-10T15:28:28Z</time>
      </trkpt>
      <trkpt lat="50.26334" lon="1.59039">
        <ele>6</ele>
        <time>2023-06-10T15:28:30Z</time>
      </trkpt>
      <trkpt lat="50.26335" lon="1.59049">
        <ele>6</ele>
        <time>2023-06-10T15:28:32Z</time>
      </trkpt>
      <trkpt lat="50.26334" lon="1.59059">
        <ele>6</ele>
        <time>2023-06-10T15:28:34Z</time>
      </trkpt>
      <trkpt lat="50.26335" lon="1.59069">
        <ele>6</ele>
        <time>2023-06-10T15:28:36Z</time>
      </trkpt>
      <trkpt lat="50.26336" lon="1.59077">
        <ele>6</ele>
        <time>2023-06-10T15:28:38Z</time>
      </trkpt>
      <trkpt lat="50.26336" lon="1.59086">
        <ele>6</ele>
        <time>2023-06-10T15:28:40Z</time>
      </trkpt>
      <trkpt lat="50.26336" lon="1.59096">
        <ele>6</ele>
        <time>2023-06-10T15:28:42Z</time>
      </trkpt>
      <trkpt lat="50.26337" lon="1.59106">
        <ele>6</ele>
        <time>2023-06-10T15:28:44Z</time>
      </trkpt>
      <trkpt lat="50.26338" lon="1.59116">
        <ele>6</ele>
        <time>2023-06-10T15:28:46Z</time>
      </trkpt>
      <trkpt lat="50.26339" lon="1.59125">
        <ele>6</ele>
        <time>2023-06-10T15:28:48Z</time>
      </trkpt>
      <trkpt lat="50.26339" lon="1.59135">
        <ele>6</ele>
        <time>2023-06-10T15:28:50Z</time>
      </trkpt>
      <trkpt lat="50.2634" lon="1.59146">
        <ele>6</ele>
        <time>2023-06-10T15:28:52Z</time>
      </trkpt>
      <trkpt lat="50.26341" lon="1.59156">
        <ele>6</ele>
        <time>2023-06-10T15:28:54Z</time>
      </trkpt>
      <trkpt lat="50.26342" lon="1.59167">
        <ele>6</ele>
        <time>2023-06-10T15:28:56Z</time>
      </trkpt>
      <trkpt lat="50.26343" lon="1.59179">
        <ele>6</ele>
        <time>2023-06-10T15:28:58Z</time>
      </trkpt>
      <trkpt lat="50.26345" lon="1.59192">
        <ele>6</ele>
        <time>2023-06-10T15:29:00Z</time>
      </trkpt>
      <trkpt lat="50.26346" lon="1.59205">
        <ele>6</ele>
        <time>2023-06-10T15:29:02Z</time>
      </trkpt>
      <trkpt lat="50.26347" lon="1.59217">
        <ele>6</ele>
        <time>2023-06-10T15:29:04Z</time>
      </trkpt>
      <trkpt lat="50.26348" lon="1.59228">
        <ele>6</ele>
        <time>2023-06-10T15:29:06Z</time>
      </trkpt>
      <trkpt lat="50.2635" lon="1.5924">
        <ele>6</ele>
        <time>2023-06-10T15:29:08Z</time>
      </trkpt>
      <trkpt lat="50.26351" lon="1.59254">
        <ele>6.1</ele>
        <time>2023-06-10T15:29:10Z</time>
      </trkpt>
      <trkpt lat="50.26351" lon="1.59268">
        <ele>6.2</ele>
        <time>2023-06-10T15:29:12Z</time>
      </trkpt>
      <trkpt lat="50.26351" lon="1.5928">
        <ele>6.4</ele>
        <time>2023-06-10T15:29:14Z</time>
      </trkpt>
      <trkpt lat="50.26351" lon="1.59291">
        <ele>6.7</ele>
        <time>2023-06-10T15:29:16Z</time>
      </trkpt>
      <trkpt lat="50.26351" lon="1.593">
        <ele>6.9</ele>
        <time>2023-06-10T15:29:18Z</time>
      </trkpt>
      <trkpt lat="50.26351" lon="1.5931">
        <ele>6.9</ele>
        <time>2023-06-10T15:29:20Z</time>
      </trkpt>
      <trkpt lat="50.26351" lon="1.59324">
        <ele>6.8</ele>
        <time>2023-06-10T15:29:22Z</time>
      </trkpt>
      <trkpt lat="50.26353" lon="1.59334">
        <ele>6.7</ele>
        <time>2023-06-10T15:29:24Z</time>
      </trkpt>
      <trkpt lat="50.26351" lon="1.59346">
        <ele>6.7</ele>
        <time>2023-06-10T15:29:26Z</time>
      </trkpt>
      <trkpt lat="50.2635" lon="1.59358">
        <ele>6.6</ele>
        <time>2023-06-10T15:29:28Z</time>
      </trkpt>
      <trkpt lat="50.26348" lon="1.5937">
        <ele>6.9</ele>
        <time>2023-06-10T15:29:30Z</time>
      </trkpt>
      <trkpt lat="50.26347" lon="1.59381">
        <ele>7.2</ele>
        <time>2023-06-10T15:29:32Z</time>
      </trkpt>
      <trkpt lat="50.26347" lon="1.59391">
        <ele>7.4</ele>
        <time>2023-06-10T15:29:34Z</time>
      </trkpt>
      <trkpt lat="50.26346" lon="1.59402">
        <ele>7.2</ele>
        <time>2023-06-10T15:29:36Z</time>
      </trkpt>
      <trkpt lat="50.26343" lon="1.59414">
        <ele>7</ele>
        <time>2023-06-10T15:29:38Z</time>
      </trkpt>
      <trkpt lat="50.26341" lon="1.59425">
        <ele>7</ele>
        <time>2023-06-10T15:29:40Z</time>
      </trkpt>
      <trkpt lat="50.26337" lon="1.59435">
        <ele>7</ele>
        <time>2023-06-10T15:29:42Z</time>
      </trkpt>
      <trkpt lat="50.26337" lon="1.59445">
        <ele>7</ele>
        <time>2023-06-10T15:29:44Z</time>
      </trkpt>
      <trkpt lat="50.26334" lon="1.59455">
        <ele>7</ele>
        <time>2023-06-10T15:29:46Z</time>
      </trkpt>
      <trkpt lat="50.26332" lon="1.59464">
        <ele>7</ele>
        <time>2023-06-10T15:29:48Z</time>
      </trkpt>
      <trkpt lat="50.2633" lon="1.59473">
        <ele>7</ele>
        <time>2023-06-10T15:29:50Z</time>
      </trkpt>
      <trkpt lat="50.2633" lon="1.59484">
        <ele>7</ele>
        <time>2023-06-10T15:29:54Z</time>
      </trkpt>
      <trkpt lat="50.2633" lon="1.5947">
        <ele>7</ele>
        <time>2023-06-10T15:30:58Z</time>
      </trkpt>
      <trkpt lat="50.26331" lon="1.5946">
        <ele>7</ele>
        <time>2023-06-10T15:31:00Z</time>
      </trkpt>
      <trkpt lat="50.26333" lon="1.5945">
        <ele>7</ele>
        <time>2023-06-10T15:31:02Z</time>
      </trkpt>
      <trkpt lat="50.26334" lon="1.5944">
        <ele>7</ele>
        <time>2023-06-10T15:31:04Z</time>
      </trkpt>
      <trkpt lat="50.26338" lon="1.59426">
        <ele>7</ele>
        <time>2023-06-10T15:31:06Z</time>
      </trkpt>
      <trkpt lat="50.26341" lon="1.59413">
        <ele>7</ele>
        <time>2023-06-10T15:31:08Z</time>
      </trkpt>
      <trkpt lat="50.26343" lon="1.59401">
        <ele>7.2</ele>
        <time>2023-06-10T15:31:10Z</time>
      </trkpt>
      <trkpt lat="50.26343" lon="1.59391">
        <ele>7.3</ele>
        <time>2023-06-10T15:31:12Z</time>
      </trkpt>
      <trkpt lat="50.26345" lon="1.5938">
        <ele>7.1</ele>
        <time>2023-06-10T15:31:14Z</time>
      </trkpt>
      <trkpt lat="50.26346" lon="1.59367">
        <ele>6.7</ele>
        <time>2023-06-10T15:31:16Z</time>
      </trkpt>
      <trkpt lat="50.26347" lon="1.59355">
        <ele>6.5</ele>
        <time>2023-06-10T15:31:18Z</time>
      </trkpt>
      <trkpt lat="50.26348" lon="1.59344">
        <ele>6.5</ele>
        <time>2023-06-10T15:31:20Z</time>
      </trkpt>
      <trkpt lat="50.2635" lon="1.59332">
        <ele>6.6</ele>
        <time>2023-06-10T15:31:22Z</time>
      </trkpt>
      <trkpt lat="50.2635" lon="1.59322">
        <ele>6.8</ele>
        <time>2023-06-10T15:31:24Z</time>
      </trkpt>
      <trkpt lat="50.26351" lon="1.5931">
        <ele>6.9</ele>
        <time>2023-06-10T15:31:26Z</time>
      </trkpt>
      <trkpt lat="50.26351" lon="1.59297">
        <ele>6.8</ele>
        <time>2023-06-10T15:31:28Z</time>
      </trkpt>
      <trkpt lat="50.26351" lon="1.59284">
        <ele>6.5</ele>
        <time>2023-06-10T15:31:30Z</time>
      </trkpt>
      <trkpt lat="50.26351" lon="1.59271">
        <ele>6.3</ele>
        <time>2023-06-10T15:31:32Z</time>
      </trkpt>
      <trkpt lat="50.26351" lon="1.59256">
        <ele>6.1</ele>
        <time>2023-06-10T15:31:34Z</time>
      </trkpt>
      <trkpt lat="50.26351" lon="1.59241">
        <ele>6</ele>
        <time>2023-06-10T15:31:36Z</time>
      </trkpt>
      <trkpt lat="50.2635" lon="1.59226">
        <ele>6</ele>
        <time>2023-06-10T15:31:38Z</time>
      </trkpt>
      <trkpt lat="50.26349" lon="1.59212">
        <ele>6</ele>
        <time>2023-06-10T15:31:40Z</time>
      </trkpt>
      <trkpt lat="50.26348" lon="1.59198">
        <ele>6</ele>
        <time>2023-06-10T15:31:42Z</time>
      </trkpt>
      <trkpt lat="50.26347" lon="1.59183">
        <ele>6</ele>
        <time>2023-06-10T15:31:44Z</time>
      </trkpt>
      <trkpt lat="50.26344" lon="1.59168">
        <ele>6</ele>
        <time>2023-06-10T15:31:46Z</time>
      </trkpt>
      <trkpt lat="50.26342" lon="1.59153">
        <ele>6</ele>
        <time>2023-06-10T15:31:48Z</time>
      </trkpt>
      <trkpt lat="50.2634" lon="1.59139">
        <ele>6</ele>
        <time>2023-06-10T15:31:50Z</time>
      </trkpt>
      <trkpt lat="50.26339" lon="1.59123">
        <ele>6</ele>
        <time>2023-06-10T15:31:52Z</time>
      </trkpt>
      <trkpt lat="50.26338" lon="1.59107">
        <ele>6</ele>
        <time>2023-06-10T15:31:54Z</time>
      </trkpt>
      <trkpt lat="50.26337" lon="1.59091">
        <ele>6</ele>
        <time>2023-06-10T15:31:56Z</time>
      </trkpt>
      <trkpt lat="50.26337" lon="1.59075">
        <ele>6</ele>
        <time>2023-06-10T15:31:58Z</time>
      </trkpt>
      <trkpt lat="50.26337" lon="1.59059">
        <ele>6</ele>
        <time>2023-06-10T15:32:00Z</time>
      </trkpt>
      <trkpt lat="50.26336" lon="1.59043">
        <ele>6</ele>
        <time>2023-06-10T15:32:02Z</time>
      </trkpt>
      <trkpt lat="50.26333" lon="1.59029">
        <ele>6</ele>
        <time>2023-06-10T15:32:04Z</time>
      </trkpt>
      <trkpt lat="50.2633" lon="1.59016">
        <ele>6.1</ele>
        <time>2023-06-10T15:32:06Z</time>
      </trkpt>
      <trkpt lat="50.26327" lon="1.59004">
        <ele>6.2</ele>
        <time>2023-06-10T15:32:08Z</time>
      </trkpt>
      <trkpt lat="50.26325" lon="1.58991">
        <ele>6.2</ele>
        <time>2023-06-10T15:32:10Z</time>
      </trkpt>
      <trkpt lat="50.26325" lon="1.58979">
        <ele>6.1</ele>
        <time>2023-06-10T15:32:12Z</time>
      </trkpt>
      <trkpt lat="50.26325" lon="1.58966">
        <ele>6</ele>
        <time>2023-06-10T15:32:14Z</time>
      </trkpt>
      <trkpt lat="50.26326" lon="1.58953">
        <ele>6</ele>
        <time>2023-06-10T15:32:16Z</time>
      </trkpt>
      <trkpt lat="50.26326" lon="1.5894">
        <ele>6</ele>
        <time>2023-06-10T15:32:18Z</time>
      </trkpt>
      <trkpt lat="50.26327" lon="1.58927">
        <ele>6</ele>
        <time>2023-06-10T15:32:20Z</time>
      </trkpt>
      <trkpt lat="50.26327" lon="1.58914">
        <ele>6</ele>
        <time>2023-06-10T15:32:22Z</time>
      </trkpt>
      <trkpt lat="50.26327" lon="1.58901">
        <ele>6.1</ele>
        <time>2023-06-10T15:32:24Z</time>
      </trkpt>
      <trkpt lat="50.26327" lon="1.58887">
        <ele>6.2</ele>
        <time>2023-06-10T15:32:26Z</time>
      </trkpt>
      <trkpt lat="50.26327" lon="1.58875">
        <ele>6.2</ele>
        <time>2023-06-10T15:32:28Z</time>
      </trkpt>
      <trkpt lat="50.26328" lon="1.58864">
        <ele>6.2</ele>
        <time>2023-06-10T15:32:30Z</time>
      </trkpt>
      <trkpt lat="50.26327" lon="1.58853">
        <ele>6.2</ele>
        <time>2023-06-10T15:32:32Z</time>
      </trkpt>
      <trkpt lat="50.26328" lon="1.58842">
        <ele>6.2</ele>
        <time>2023-06-10T15:32:34Z</time>
      </trkpt>
      <trkpt lat="50.26329" lon="1.58831">
        <ele>6.2</ele>
        <time>2023-06-10T15:32:36Z</time>
      </trkpt>
      <trkpt lat="50.2633" lon="1.58821">
        <ele>6.1</ele>
        <time>2023-06-10T15:32:38Z</time>
      </trkpt>
      <trkpt lat="50.26329" lon="1.58813">
        <ele>6.1</ele>
        <time>2023-06-10T15:32:40Z</time>
      </trkpt>
      <trkpt lat="50.26324" lon="1.58803">
        <ele>6.4</ele>
        <time>2023-06-10T15:32:44Z</time>
      </trkpt>
      <trkpt lat="50.26324" lon="1.58792">
        <ele>6.5</ele>
        <time>2023-06-10T15:32:48Z</time>
      </trkpt>
      <trkpt lat="50.26325" lon="1.58779">
        <ele>6.6</ele>
        <time>2023-06-10T15:32:52Z</time>
      </trkpt>
      <trkpt lat="50.26324" lon="1.58767">
        <ele>6.7</ele>
        <time>2023-06-10T15:32:56Z</time>
      </trkpt>
      <trkpt lat="50.26323" lon="1.58755">
        <ele>6.7</ele>
        <time>2023-06-10T15:33:00Z</time>
      </trkpt>
      <trkpt lat="50.26322" lon="1.58748">
        <ele>6.8</ele>
        <time>2023-06-10T15:33:02Z</time>
      </trkpt>
      <trkpt lat="50.26322" lon="1.58735">
        <ele>6.5</ele>
        <time>2023-06-10T15:33:06Z</time>
      </trkpt>
      <trkpt lat="50.26322" lon="1.58726">
        <ele>6.3</ele>
        <time>2023-06-10T15:33:10Z</time>
      </trkpt>
      <trkpt lat="50.26321" lon="1.58734">
        <ele>6.6</ele>
        <time>2023-06-10T15:35:08Z</time>
      </trkpt>
      <trkpt lat="50.26322" lon="1.58745">
        <ele>6.7</ele>
        <time>2023-06-10T15:35:56Z</time>
      </trkpt>
      <trkpt lat="50.26325" lon="1.58756">
        <ele>6.6</ele>
        <time>2023-06-10T15:36:00Z</time>
      </trkpt>
      <trkpt lat="50.26326" lon="1.58764">
        <ele>6.5</ele>
        <time>2023-06-10T15:36:04Z</time>
      </trkpt>
      <trkpt lat="50.26327" lon="1.58772">
        <ele>6.4</ele>
        <time>2023-06-10T15:36:06Z</time>
      </trkpt>
      <trkpt lat="50.26328" lon="1.58781">
        <ele>6.4</ele>
        <time>2023-06-10T15:36:08Z</time>
      </trkpt>
      <trkpt lat="50.2633" lon="1.58793">
        <ele>6.2</ele>
        <time>2023-06-10T15:36:12Z</time>
      </trkpt>
      <trkpt lat="50.26333" lon="1.58799">
        <ele>6</ele>
        <time>2023-06-10T15:36:14Z</time>
      </trkpt>
      <trkpt lat="50.26338" lon="1.58803">
        <ele>6</ele>
        <time>2023-06-10T15:36:16Z</time>
      </trkpt>
      <trkpt lat="50.26344" lon="1.58807">
        <ele>6</ele>
        <time>2023-06-10T15:36:18Z</time>
      </trkpt>
      <trkpt lat="50.26352" lon="1.5881">
        <ele>6</ele>
        <time>2023-06-10T15:36:20Z</time>
      </trkpt>
      <trkpt lat="50.26359" lon="1.5881">
        <ele>6</ele>
        <time>2023-06-10T15:36:22Z</time>
      </trkpt>
      <trkpt lat="50.26366" lon="1.58813">
        <ele>6</ele>
        <time>2023-06-10T15:36:24Z</time>
      </trkpt>
      <trkpt lat="50.26372" lon="1.58814">
        <ele>6</ele>
        <time>2023-06-10T15:36:26Z</time>
      </trkpt>
      <trkpt lat="50.26377" lon="1.58815">
        <ele>6</ele>
        <time>2023-06-10T15:36:28Z</time>
      </trkpt>
      <trkpt lat="50.26384" lon="1.58814">
        <ele>6</ele>
        <time>2023-06-10T15:36:30Z</time>
      </trkpt>
      <trkpt lat="50.2639" lon="1.58809">
        <ele>6</ele>
        <time>2023-06-10T15:36:32Z</time>
      </trkpt>
      <trkpt lat="50.26389" lon="1.58798">
        <ele>6</ele>
        <time>2023-06-10T15:36:34Z</time>
      </trkpt>
      <trkpt lat="50.26389" lon="1.58787">
        <ele>6</ele>
        <time>2023-06-10T15:36:36Z</time>
      </trkpt>
      <trkpt lat="50.26389" lon="1.58775">
        <ele>6</ele>
        <time>2023-06-10T15:36:38Z</time>
      </trkpt>
      <trkpt lat="50.26389" lon="1.58763">
        <ele>6</ele>
        <time>2023-06-10T15:36:40Z</time>
      </trkpt>
      <trkpt lat="50.26389" lon="1.58753">
        <ele>6</ele>
        <time>2023-06-10T15:36:42Z</time>
      </trkpt>
      <trkpt lat="50.26391" lon="1.58743">
        <ele>6</ele>
        <time>2023-06-10T15:36:44Z</time>
      </trkpt>
      <trkpt lat="50.26393" lon="1.58733">
        <ele>6.1</ele>
        <time>2023-06-10T15:36:46Z</time>
      </trkpt>
      <trkpt lat="50.26398" lon="1.58729">
        <ele>6.2</ele>
        <time>2023-06-10T15:36:48Z</time>
      </trkpt>
      <trkpt lat="50.26403" lon="1.58724">
        <ele>6.5</ele>
        <time>2023-06-10T15:36:50Z</time>
      </trkpt>
      <trkpt lat="50.26408" lon="1.58719">
        <ele>6.7</ele>
        <time>2023-06-10T15:36:52Z</time>
      </trkpt>
      <trkpt lat="50.26416" lon="1.58714">
        <ele>7</ele>
        <time>2023-06-10T15:36:54Z</time>
      </trkpt>
      <trkpt lat="50.26425" lon="1.58712">
        <ele>7</ele>
        <time>2023-06-10T15:36:56Z</time>
      </trkpt>
      <trkpt lat="50.26429" lon="1.58709">
        <ele>7</ele>
        <time>2023-06-10T15:36:58Z</time>
      </trkpt>
      <trkpt lat="50.26434" lon="1.58706">
        <ele>7</ele>
        <time>2023-06-10T15:37:00Z</time>
      </trkpt>
      <trkpt lat="50.26441" lon="1.587">
        <ele>7</ele>
        <time>2023-06-10T15:37:02Z</time>
      </trkpt>
      <trkpt lat="50.26448" lon="1.58693">
        <ele>7</ele>
        <time>2023-06-10T15:37:04Z</time>
      </trkpt>
      <trkpt lat="50.26454" lon="1.58684">
        <ele>7.5</ele>
        <time>2023-06-10T15:37:06Z</time>
      </trkpt>
      <trkpt lat="50.26459" lon="1.58674">
        <ele>8.1</ele>
        <time>2023-06-10T15:37:08Z</time>
      </trkpt>
      <trkpt lat="50.26465" lon="1.58664">
        <ele>8.8</ele>
        <time>2023-06-10T15:37:10Z</time>
      </trkpt>
      <trkpt lat="50.26472" lon="1.5866">
        <ele>9.2</ele>
        <time>2023-06-10T15:37:12Z</time>
      </trkpt>
      <trkpt lat="50.26478" lon="1.58658">
        <ele>9.3</ele>
        <time>2023-06-10T15:37:14Z</time>
      </trkpt>
      <trkpt lat="50.26483" lon="1.58659">
        <ele>9.3</ele>
        <time>2023-06-10T15:37:16Z</time>
      </trkpt>
      <trkpt lat="50.26489" lon="1.58657">
        <ele>9.3</ele>
        <time>2023-06-10T15:37:18Z</time>
      </trkpt>
      <trkpt lat="50.26495" lon="1.58658">
        <ele>9.3</ele>
        <time>2023-06-10T15:37:20Z</time>
      </trkpt>
      <trkpt lat="50.26504" lon="1.58657">
        <ele>9.5</ele>
        <time>2023-06-10T15:37:22Z</time>
      </trkpt>
      <trkpt lat="50.2651" lon="1.58659">
        <ele>9.9</ele>
        <time>2023-06-10T15:37:24Z</time>
      </trkpt>
      <trkpt lat="50.26519" lon="1.58657">
        <ele>10.3</ele>
        <time>2023-06-10T15:37:26Z</time>
      </trkpt>
      <trkpt lat="50.26528" lon="1.58657">
        <ele>10.7</ele>
        <time>2023-06-10T15:37:28Z</time>
      </trkpt>
      <trkpt lat="50.26536" lon="1.58658">
        <ele>11.1</ele>
        <time>2023-06-10T15:37:30Z</time>
      </trkpt>
      <trkpt lat="50.26543" lon="1.58661">
        <ele>11.5</ele>
        <time>2023-06-10T15:37:32Z</time>
      </trkpt>
      <trkpt lat="50.26551" lon="1.58665">
        <ele>11.8</ele>
        <time>2023-06-10T15:37:34Z</time>
      </trkpt>
      <trkpt lat="50.26557" lon="1.58666">
        <ele>12.1</ele>
        <time>2023-06-10T15:37:36Z</time>
      </trkpt>
      <trkpt lat="50.26566" lon="1.58671">
        <ele>12.4</ele>
        <time>2023-06-10T15:37:38Z</time>
      </trkpt>
      <trkpt lat="50.26575" lon="1.58673">
        <ele>12.7</ele>
        <time>2023-06-10T15:37:40Z</time>
      </trkpt>
      <trkpt lat="50.26581" lon="1.58676">
        <ele>12.9</ele>
        <time>2023-06-10T15:37:42Z</time>
      </trkpt>
      <trkpt lat="50.26587" lon="1.5868">
        <ele>12.6</ele>
        <time>2023-06-10T15:37:44Z</time>
      </trkpt>
      <trkpt lat="50.26597" lon="1.58681">
        <ele>11.5</ele>
        <time>2023-06-10T15:37:48Z</time>
      </trkpt>
      <trkpt lat="50.26607" lon="1.58684">
        <ele>10.5</ele>
        <time>2023-06-10T15:37:50Z</time>
      </trkpt>
      <trkpt lat="50.26618" lon="1.58692">
        <ele>9.2</ele>
        <time>2023-06-10T15:37:52Z</time>
      </trkpt>
      <trkpt lat="50.26631" lon="1.587">
        <ele>7.8</ele>
        <time>2023-06-10T15:37:54Z</time>
      </trkpt>
      <trkpt lat="50.26644" lon="1.5871">
        <ele>7.1</ele>
        <time>2023-06-10T15:37:56Z</time>
      </trkpt>
      <trkpt lat="50.26657" lon="1.58718">
        <ele>7.1</ele>
        <time>2023-06-10T15:37:58Z</time>
      </trkpt>
      <trkpt lat="50.2667" lon="1.58724">
        <ele>6.9</ele>
        <time>2023-06-10T15:38:00Z</time>
      </trkpt>
      <trkpt lat="50.26682" lon="1.58729">
        <ele>6.5</ele>
        <time>2023-06-10T15:38:02Z</time>
      </trkpt>
      <trkpt lat="50.26695" lon="1.58733">
        <ele>6</ele>
        <time>2023-06-10T15:38:04Z</time>
      </trkpt>
      <trkpt lat="50.26706" lon="1.58738">
        <ele>6</ele>
        <time>2023-06-10T15:38:06Z</time>
      </trkpt>
      <trkpt lat="50.26717" lon="1.58745">
        <ele>6</ele>
        <time>2023-06-10T15:38:08Z</time>
      </trkpt>
      <trkpt lat="50.26727" lon="1.58752">
        <ele>6.2</ele>
        <time>2023-06-10T15:38:10Z</time>
      </trkpt>
      <trkpt lat="50.26735" lon="1.5876">
        <ele>6.4</ele>
        <time>2023-06-10T15:38:12Z</time>
      </trkpt>
      <trkpt lat="50.26741" lon="1.5877">
        <ele>6.7</ele>
        <time>2023-06-10T15:38:14Z</time>
      </trkpt>
      <trkpt lat="50.26747" lon="1.5878">
        <ele>6.8</ele>
        <time>2023-06-10T15:38:16Z</time>
      </trkpt>
      <trkpt lat="50.26753" lon="1.58788">
        <ele>6.6</ele>
        <time>2023-06-10T15:38:18Z</time>
      </trkpt>
      <trkpt lat="50.26759" lon="1.58797">
        <ele>6.3</ele>
        <time>2023-06-10T15:38:20Z</time>
      </trkpt>
      <trkpt lat="50.26765" lon="1.58805">
        <ele>6</ele>
        <time>2023-06-10T15:38:22Z</time>
      </trkpt>
      <trkpt lat="50.26771" lon="1.58814">
        <ele>6</ele>
        <time>2023-06-10T15:38:24Z</time>
      </trkpt>
      <trkpt lat="50.26777" lon="1.58824">
        <ele>6</ele>
        <time>2023-06-10T15:38:26Z</time>
      </trkpt>
      <trkpt lat="50.26783" lon="1.58832">
        <ele>6</ele>
        <time>2023-06-10T15:38:28Z</time>
      </trkpt>
      <trkpt lat="50.2679" lon="1.58841">
        <ele>6.1</ele>
        <time>2023-06-10T15:38:30Z</time>
      </trkpt>
      <trkpt lat="50.26796" lon="1.58851">
        <ele>6.4</ele>
        <time>2023-06-10T15:38:32Z</time>
      </trkpt>
      <trkpt lat="50.26802" lon="1.58861">
        <ele>6.9</ele>
        <time>2023-06-10T15:38:34Z</time>
      </trkpt>
      <trkpt lat="50.26809" lon="1.5887">
        <ele>6.6</ele>
        <time>2023-06-10T15:38:36Z</time>
      </trkpt>
      <trkpt lat="50.26814" lon="1.5888">
        <ele>6.4</ele>
        <time>2023-06-10T15:38:38Z</time>
      </trkpt>
      <trkpt lat="50.26821" lon="1.58889">
        <ele>6.6</ele>
        <time>2023-06-10T15:38:40Z</time>
      </trkpt>
      <trkpt lat="50.26829" lon="1.58897">
        <ele>6.8</ele>
        <time>2023-06-10T15:38:42Z</time>
      </trkpt>
      <trkpt lat="50.26837" lon="1.58903">
        <ele>6.9</ele>
        <time>2023-06-10T15:38:44Z</time>
      </trkpt>
      <trkpt lat="50.26847" lon="1.58906">
        <ele>6.5</ele>
        <time>2023-06-10T15:38:46Z</time>
      </trkpt>
      <trkpt lat="50.26855" lon="1.58908">
        <ele>6.2</ele>
        <time>2023-06-10T15:38:48Z</time>
      </trkpt>
      <trkpt lat="50.26863" lon="1.5891">
        <ele>6</ele>
        <time>2023-06-10T15:38:50Z</time>
      </trkpt>
      <trkpt lat="50.26871" lon="1.58911">
        <ele>6</ele>
        <time>2023-06-10T15:38:52Z</time>
      </trkpt>
      <trkpt lat="50.26878" lon="1.58913">
        <ele>6</ele>
        <time>2023-06-10T15:38:54Z</time>
      </trkpt>
      <trkpt lat="50.26886" lon="1.58917">
        <ele>6</ele>
        <time>2023-06-10T15:38:56Z</time>
      </trkpt>
      <trkpt lat="50.26893" lon="1.58917">
        <ele>6</ele>
        <time>2023-06-10T15:38:58Z</time>
      </trkpt>
      <trkpt lat="50.269" lon="1.58916">
        <ele>6</ele>
        <time>2023-06-10T15:39:00Z</time>
      </trkpt>
      <trkpt lat="50.26908" lon="1.58916">
        <ele>6</ele>
        <time>2023-06-10T15:39:02Z</time>
      </trkpt>
      <trkpt lat="50.26915" lon="1.58917">
        <ele>6</ele>
        <time>2023-06-10T15:39:04Z</time>
      </trkpt>
      <trkpt lat="50.26924" lon="1.58918">
        <ele>6</ele>
        <time>2023-06-10T15:39:06Z</time>
      </trkpt>
      <trkpt lat="50.26928" lon="1.58915">
        <ele>6</ele>
        <time>2023-06-10T15:39:08Z</time>
      </trkpt>
      <trkpt lat="50.26935" lon="1.5891">
        <ele>6</ele>
        <time>2023-06-10T15:39:30Z</time>
      </trkpt>
      <trkpt lat="50.26939" lon="1.58907">
        <ele>6</ele>
        <time>2023-06-10T15:39:32Z</time>
      </trkpt>
      <trkpt lat="50.26944" lon="1.58903">
        <ele>6</ele>
        <time>2023-06-10T15:39:34Z</time>
      </trkpt>
      <trkpt lat="50.2695" lon="1.58899">
        <ele>6</ele>
        <time>2023-06-10T15:39:36Z</time>
      </trkpt>
      <trkpt lat="50.26955" lon="1.58895">
        <ele>6</ele>
        <time>2023-06-10T15:39:38Z</time>
      </trkpt>
      <trkpt lat="50.26959" lon="1.58892">
        <ele>6</ele>
        <time>2023-06-10T15:39:40Z</time>
      </trkpt>
      <trkpt lat="50.26963" lon="1.5889">
        <ele>6</ele>
        <time>2023-06-10T15:39:42Z</time>
      </trkpt>
      <trkpt lat="50.26957" lon="1.58891">
        <ele>6</ele>
        <time>2023-06-10T15:40:02Z</time>
      </trkpt>
      <trkpt lat="50.26951" lon="1.58895">
        <ele>6</ele>
        <time>2023-06-10T15:40:04Z</time>
      </trkpt>
      <trkpt lat="50.26946" lon="1.58899">
        <ele>6</ele>
        <time>2023-06-10T15:40:06Z</time>
      </trkpt>
      <trkpt lat="50.2694" lon="1.58904">
        <ele>6</ele>
        <time>2023-06-10T15:40:08Z</time>
      </trkpt>
      <trkpt lat="50.26934" lon="1.58909">
        <ele>6</ele>
        <time>2023-06-10T15:40:10Z</time>
      </trkpt>
      <trkpt lat="50.26929" lon="1.58915">
        <ele>6</ele>
        <time>2023-06-10T15:40:12Z</time>
      </trkpt>
      <trkpt lat="50.26926" lon="1.58924">
        <ele>6</ele>
        <time>2023-06-10T15:40:14Z</time>
      </trkpt>
      <trkpt lat="50.26923" lon="1.58935">
        <ele>6</ele>
        <time>2023-06-10T15:40:16Z</time>
      </trkpt>
      <trkpt lat="50.26923" lon="1.58947">
        <ele>6.1</ele>
        <time>2023-06-10T15:40:18Z</time>
      </trkpt>
      <trkpt lat="50.26922" lon="1.58958">
        <ele>6.4</ele>
        <time>2023-06-10T15:40:20Z</time>
      </trkpt>
      <trkpt lat="50.26923" lon="1.58969">
        <ele>6.7</ele>
        <time>2023-06-10T15:40:22Z</time>
      </trkpt>
      <trkpt lat="50.26924" lon="1.58981">
        <ele>6.7</ele>
        <time>2023-06-10T15:40:24Z</time>
      </trkpt>
      <trkpt lat="50.26926" lon="1.58992">
        <ele>6.7</ele>
        <time>2023-06-10T15:40:26Z</time>
      </trkpt>
      <trkpt lat="50.26926" lon="1.59003">
        <ele>6.6</ele>
        <time>2023-06-10T15:40:28Z</time>
      </trkpt>
      <trkpt lat="50.26927" lon="1.59014">
        <ele>6.6</ele>
        <time>2023-06-10T15:40:30Z</time>
      </trkpt>
      <trkpt lat="50.26929" lon="1.59025">
        <ele>6.6</ele>
        <time>2023-06-10T15:40:32Z</time>
      </trkpt>
      <trkpt lat="50.2693" lon="1.59038">
        <ele>6.3</ele>
        <time>2023-06-10T15:40:34Z</time>
      </trkpt>
      <trkpt lat="50.26931" lon="1.5905">
        <ele>6.1</ele>
        <time>2023-06-10T15:40:36Z</time>
      </trkpt>
      <trkpt lat="50.26932" lon="1.59061">
        <ele>6</ele>
        <time>2023-06-10T15:40:38Z</time>
      </trkpt>
      <trkpt lat="50.26933" lon="1.5907">
        <ele>6</ele>
        <time>2023-06-10T15:40:40Z</time>
      </trkpt>
      <trkpt lat="50.26931" lon="1.59081">
        <ele>6</ele>
        <time>2023-06-10T15:40:44Z</time>
      </trkpt>
      <trkpt lat="50.26928" lon="1.59086">
        <ele>6</ele>
        <time>2023-06-10T15:40:48Z</time>
      </trkpt>
      <trkpt lat="50.26921" lon="1.59089">
        <ele>6</ele>
        <time>2023-06-10T15:40:52Z</time>
      </trkpt>
      <trkpt lat="50.26916" lon="1.59094">
        <ele>6</ele>
        <time>2023-06-10T15:40:54Z</time>
      </trkpt>
      <trkpt lat="50.26913" lon="1.59102">
        <ele>6</ele>
        <time>2023-06-10T15:40:56Z</time>
      </trkpt>
      <trkpt lat="50.26914" lon="1.59113">
        <ele>6</ele>
        <time>2023-06-10T15:40:58Z</time>
      </trkpt>
      <trkpt lat="50.26915" lon="1.59124">
        <ele>6</ele>
        <time>2023-06-10T15:41:00Z</time>
      </trkpt>
      <trkpt lat="50.26913" lon="1.59134">
        <ele>6</ele>
        <time>2023-06-10T15:41:02Z</time>
      </trkpt>
      <trkpt lat="50.26914" lon="1.59124">
        <ele>6</ele>
        <time>2023-06-10T15:41:40Z</time>
      </trkpt>
      <trkpt lat="50.26911" lon="1.59133">
        <ele>6</ele>
        <time>2023-06-10T15:42:16Z</time>
      </trkpt>
      <trkpt lat="50.26907" lon="1.59138">
        <ele>6</ele>
        <time>2023-06-10T15:42:18Z</time>
      </trkpt>
      <trkpt lat="50.26902" lon="1.59143">
        <ele>6</ele>
        <time>2023-06-10T15:42:20Z</time>
      </trkpt>
      <trkpt lat="50.26896" lon="1.59148">
        <ele>6</ele>
        <time>2023-06-10T15:42:22Z</time>
      </trkpt>
      <trkpt lat="50.2689" lon="1.59155">
        <ele>6</ele>
        <time>2023-06-10T15:42:24Z</time>
      </trkpt>
      <trkpt lat="50.26883" lon="1.59162">
        <ele>6</ele>
        <time>2023-06-10T15:42:26Z</time>
      </trkpt>
      <trkpt lat="50.26877" lon="1.59168">
        <ele>6</ele>
        <time>2023-06-10T15:42:28Z</time>
      </trkpt>
      <trkpt lat="50.2687" lon="1.59172">
        <ele>6</ele>
        <time>2023-06-10T15:42:30Z</time>
      </trkpt>
      <trkpt lat="50.26863" lon="1.59177">
        <ele>6</ele>
        <time>2023-06-10T15:42:32Z</time>
      </trkpt>
      <trkpt lat="50.26856" lon="1.59182">
        <ele>6</ele>
        <time>2023-06-10T15:42:34Z</time>
      </trkpt>
      <trkpt lat="50.2685" lon="1.59189">
        <ele>6</ele>
        <time>2023-06-10T15:42:36Z</time>
      </trkpt>
      <trkpt lat="50.26845" lon="1.59196">
        <ele>6</ele>
        <time>2023-06-10T15:42:38Z</time>
      </trkpt>
      <trkpt lat="50.26846" lon="1.59206">
        <ele>6</ele>
        <time>2023-06-10T15:42:40Z</time>
      </trkpt>
      <trkpt lat="50.26849" lon="1.59213">
        <ele>6</ele>
        <time>2023-06-10T15:42:42Z</time>
      </trkpt>
      <trkpt lat="50.26852" lon="1.59223">
        <ele>6</ele>
        <time>2023-06-10T15:42:44Z</time>
      </trkpt>
      <trkpt lat="50.26852" lon="1.59235">
        <ele>6</ele>
        <time>2023-06-10T15:42:46Z</time>
      </trkpt>
      <trkpt lat="50.26854" lon="1.59249">
        <ele>6</ele>
        <time>2023-06-10T15:42:48Z</time>
      </trkpt>
      <trkpt lat="50.26856" lon="1.59263">
        <ele>6</ele>
        <time>2023-06-10T15:42:50Z</time>
      </trkpt>
      <trkpt lat="50.26858" lon="1.59277">
        <ele>6</ele>
        <time>2023-06-10T15:42:52Z</time>
      </trkpt>
      <trkpt lat="50.26859" lon="1.59293">
        <ele>6</ele>
        <time>2023-06-10T15:42:54Z</time>
      </trkpt>
      <trkpt lat="50.26861" lon="1.59309">
        <ele>6</ele>
        <time>2023-06-10T15:42:56Z</time>
      </trkpt>
      <trkpt lat="50.26863" lon="1.59325">
        <ele>6</ele>
        <time>2023-06-10T15:42:58Z</time>
      </trkpt>
      <trkpt lat="50.26862" lon="1.59341">
        <ele>6</ele>
        <time>2023-06-10T15:43:00Z</time>
      </trkpt>
      <trkpt lat="50.26859" lon="1.59355">
        <ele>6</ele>
        <time>2023-06-10T15:43:02Z</time>
      </trkpt>
      <trkpt lat="50.26853" lon="1.59364">
        <ele>6</ele>
        <time>2023-06-10T15:43:04Z</time>
      </trkpt>
      <trkpt lat="50.26845" lon="1.59369">
        <ele>6</ele>
        <time>2023-06-10T15:43:06Z</time>
      </trkpt>
      <trkpt lat="50.26835" lon="1.59374">
        <ele>6</ele>
        <time>2023-06-10T15:43:08Z</time>
      </trkpt>
      <trkpt lat="50.26827" lon="1.59382">
        <ele>6</ele>
        <time>2023-06-10T15:43:10Z</time>
      </trkpt>
      <trkpt lat="50.26822" lon="1.59395">
        <ele>6</ele>
        <time>2023-06-10T15:43:12Z</time>
      </trkpt>
      <trkpt lat="50.26823" lon="1.5941">
        <ele>6</ele>
        <time>2023-06-10T15:43:14Z</time>
      </trkpt>
      <trkpt lat="50.26825" lon="1.59423">
        <ele>6.2</ele>
        <time>2023-06-10T15:43:16Z</time>
      </trkpt>
      <trkpt lat="50.26825" lon="1.59436">
        <ele>6.5</ele>
        <time>2023-06-10T15:43:18Z</time>
      </trkpt>
      <trkpt lat="50.26824" lon="1.59449">
        <ele>6.5</ele>
        <time>2023-06-10T15:43:20Z</time>
      </trkpt>
      <trkpt lat="50.26825" lon="1.59463">
        <ele>6.2</ele>
        <time>2023-06-10T15:43:22Z</time>
      </trkpt>
      <trkpt lat="50.26827" lon="1.59477">
        <ele>6</ele>
        <time>2023-06-10T15:43:24Z</time>
      </trkpt>
      <trkpt lat="50.26829" lon="1.59492">
        <ele>6</ele>
        <time>2023-06-10T15:43:26Z</time>
      </trkpt>
      <trkpt lat="50.2683" lon="1.59507">
        <ele>6</ele>
        <time>2023-06-10T15:43:28Z</time>
      </trkpt>
      <trkpt lat="50.26832" lon="1.59521">
        <ele>6</ele>
        <time>2023-06-10T15:43:30Z</time>
      </trkpt>
      <trkpt lat="50.26833" lon="1.59536">
        <ele>6</ele>
        <time>2023-06-10T15:43:32Z</time>
      </trkpt>
      <trkpt lat="50.26835" lon="1.59549">
        <ele>6</ele>
        <time>2023-06-10T15:43:34Z</time>
      </trkpt>
      <trkpt lat="50.26839" lon="1.59559">
        <ele>6</ele>
        <time>2023-06-10T15:43:36Z</time>
      </trkpt>
      <trkpt lat="50.2684" lon="1.59572">
        <ele>6.1</ele>
        <time>2023-06-10T15:43:38Z</time>
      </trkpt>
      <trkpt lat="50.26841" lon="1.59586">
        <ele>6.2</ele>
        <time>2023-06-10T15:43:40Z</time>
      </trkpt>
      <trkpt lat="50.26842" lon="1.59599">
        <ele>6.1</ele>
        <time>2023-06-10T15:43:42Z</time>
      </trkpt>
      <trkpt lat="50.26842" lon="1.59613">
        <ele>6</ele>
        <time>2023-06-10T15:43:44Z</time>
      </trkpt>
      <trkpt lat="50.2684" lon="1.59628">
        <ele>6</ele>
        <time>2023-06-10T15:43:46Z</time>
      </trkpt>
      <trkpt lat="50.26836" lon="1.59641">
        <ele>5.9</ele>
        <time>2023-06-10T15:43:48Z</time>
      </trkpt>
      <trkpt lat="50.26835" lon="1.59657">
        <ele>5.4</ele>
        <time>2023-06-10T15:43:50Z</time>
      </trkpt>
      <trkpt lat="50.26838" lon="1.59674">
        <ele>5.2</ele>
        <time>2023-06-10T15:43:52Z</time>
      </trkpt>
      <trkpt lat="50.26841" lon="1.59689">
        <ele>5.3</ele>
        <time>2023-06-10T15:43:54Z</time>
      </trkpt>
      <trkpt lat="50.26845" lon="1.59705">
        <ele>5.4</ele>
        <time>2023-06-10T15:43:56Z</time>
      </trkpt>
      <trkpt lat="50.26847" lon="1.59719">
        <ele>5.5</ele>
        <time>2023-06-10T15:43:58Z</time>
      </trkpt>
      <trkpt lat="50.2685" lon="1.59731">
        <ele>5.6</ele>
        <time>2023-06-10T15:44:00Z</time>
      </trkpt>
      <trkpt lat="50.26853" lon="1.59742">
        <ele>5.7</ele>
        <time>2023-06-10T15:44:02Z</time>
      </trkpt>
      <trkpt lat="50.26856" lon="1.59752">
        <ele>5.8</ele>
        <time>2023-06-10T15:44:04Z</time>
      </trkpt>
      <trkpt lat="50.26859" lon="1.5976">
        <ele>5.9</ele>
        <time>2023-06-10T15:44:06Z</time>
      </trkpt>
      <trkpt lat="50.26865" lon="1.59769">
        <ele>6</ele>
        <time>2023-06-10T15:44:08Z</time>
      </trkpt>
      <trkpt lat="50.26869" lon="1.59778">
        <ele>6</ele>
        <time>2023-06-10T15:44:10Z</time>
      </trkpt>
      <trkpt lat="50.26872" lon="1.59788">
        <ele>6</ele>
        <time>2023-06-10T15:44:12Z</time>
      </trkpt>
      <trkpt lat="50.26875" lon="1.59799">
        <ele>6</ele>
        <time>2023-06-10T15:44:14Z</time>
      </trkpt>
      <trkpt lat="50.26878" lon="1.59809">
        <ele>6</ele>
        <time>2023-06-10T15:44:16Z</time>
      </trkpt>
      <trkpt lat="50.26881" lon="1.5982">
        <ele>6</ele>
        <time>2023-06-10T15:44:18Z</time>
      </trkpt>
      <trkpt lat="50.26883" lon="1.59829">
        <ele>6</ele>
        <time>2023-06-10T15:44:20Z</time>
      </trkpt>
      <trkpt lat="50.26886" lon="1.59839">
        <ele>6</ele>
        <time>2023-06-10T15:44:22Z</time>
      </trkpt>
      <trkpt lat="50.26888" lon="1.59848">
        <ele>6</ele>
        <time>2023-06-10T15:44:24Z</time>
      </trkpt>
      <trkpt lat="50.26891" lon="1.59857">
        <ele>6</ele>
        <time>2023-06-10T15:44:26Z</time>
      </trkpt>
      <trkpt lat="50.26894" lon="1.59866">
        <ele>6.2</ele>
        <time>2023-06-10T15:44:28Z</time>
      </trkpt>
      <trkpt lat="50.26897" lon="1.59874">
        <ele>6.3</ele>
        <time>2023-06-10T15:44:30Z</time>
      </trkpt>
      <trkpt lat="50.26899" lon="1.59884">
        <ele>6.5</ele>
        <time>2023-06-10T15:44:32Z</time>
      </trkpt>
      <trkpt lat="50.26901" lon="1.59894">
        <ele>6.5</ele>
        <time>2023-06-10T15:44:34Z</time>
      </trkpt>
      <trkpt lat="50.26905" lon="1.59905">
        <ele>6.2</ele>
        <time>2023-06-10T15:44:36Z</time>
      </trkpt>
      <trkpt lat="50.26909" lon="1.59916">
        <ele>6</ele>
        <time>2023-06-10T15:44:38Z</time>
      </trkpt>
      <trkpt lat="50.26912" lon="1.59927">
        <ele>6</ele>
        <time>2023-06-10T15:44:40Z</time>
      </trkpt>
      <trkpt lat="50.26917" lon="1.5994">
        <ele>6</ele>
        <time>2023-06-10T15:44:42Z</time>
      </trkpt>
      <trkpt lat="50.26922" lon="1.59951">
        <ele>6</ele>
        <time>2023-06-10T15:44:44Z</time>
      </trkpt>
      <trkpt lat="50.26928" lon="1.59962">
        <ele>5.7</ele>
        <time>2023-06-10T15:44:46Z</time>
      </trkpt>
      <trkpt lat="50.26933" lon="1.59971">
        <ele>5.4</ele>
        <time>2023-06-10T15:44:48Z</time>
      </trkpt>
      <trkpt lat="50.26937" lon="1.59978">
        <ele>5.6</ele>
        <time>2023-06-10T15:44:50Z</time>
      </trkpt>
      <trkpt lat="50.2694" lon="1.59987">
        <ele>6.1</ele>
        <time>2023-06-10T15:44:52Z</time>
      </trkpt>
      <trkpt lat="50.26937" lon="1.59992">
        <ele>6.5</ele>
        <time>2023-06-10T15:44:54Z</time>
      </trkpt>
      <trkpt lat="50.26931" lon="1.59994">
        <ele>6.7</ele>
        <time>2023-06-10T15:44:56Z</time>
      </trkpt>
      <trkpt lat="50.26926" lon="1.59996">
        <ele>6.8</ele>
        <time>2023-06-10T15:44:58Z</time>
      </trkpt>
      <trkpt lat="50.26923" lon="1.60001">
        <ele>7</ele>
        <time>2023-06-10T15:45:00Z</time>
      </trkpt>
      <trkpt lat="50.26921" lon="1.60008">
        <ele>7</ele>
        <time>2023-06-10T15:45:38Z</time>
      </trkpt>
      <trkpt lat="50.26921" lon="1.60021">
        <ele>7</ele>
        <time>2023-06-10T15:45:42Z</time>
      </trkpt>
      <trkpt lat="50.26921" lon="1.60032">
        <ele>7</ele>
        <time>2023-06-10T15:45:44Z</time>
      </trkpt>
      <trkpt lat="50.26922" lon="1.60043">
        <ele>7</ele>
        <time>2023-06-10T15:45:46Z</time>
      </trkpt>
      <trkpt lat="50.26923" lon="1.60054">
        <ele>7</ele>
        <time>2023-06-10T15:45:48Z</time>
      </trkpt>
      <trkpt lat="50.26923" lon="1.60066">
        <ele>7</ele>
        <time>2023-06-10T15:45:50Z</time>
      </trkpt>
      <trkpt lat="50.26924" lon="1.60078">
        <ele>7</ele>
        <time>2023-06-10T15:45:52Z</time>
      </trkpt>
      <trkpt lat="50.26925" lon="1.60091">
        <ele>7</ele>
        <time>2023-06-10T15:45:54Z</time>
      </trkpt>
      <trkpt lat="50.26927" lon="1.60104">
        <ele>7</ele>
        <time>2023-06-10T15:45:56Z</time>
      </trkpt>
      <trkpt lat="50.2693" lon="1.60116">
        <ele>7</ele>
        <time>2023-06-10T15:45:58Z</time>
      </trkpt>
      <trkpt lat="50.26932" lon="1.60128">
        <ele>7</ele>
        <time>2023-06-10T15:46:00Z</time>
      </trkpt>
      <trkpt lat="50.26935" lon="1.6014">
        <ele>7</ele>
        <time>2023-06-10T15:46:02Z</time>
      </trkpt>
      <trkpt lat="50.26938" lon="1.60153">
        <ele>7</ele>
        <time>2023-06-10T15:46:04Z</time>
      </trkpt>
      <trkpt lat="50.2694" lon="1.60164">
        <ele>7</ele>
        <time>2023-06-10T15:46:06Z</time>
      </trkpt>
      <trkpt lat="50.26942" lon="1.60176">
        <ele>7</ele>
        <time>2023-06-10T15:46:08Z</time>
      </trkpt>
      <trkpt lat="50.2694" lon="1.60186">
        <ele>7</ele>
        <time>2023-06-10T15:46:10Z</time>
      </trkpt>
      <trkpt lat="50.26938" lon="1.60196">
        <ele>7</ele>
        <time>2023-06-10T15:46:12Z</time>
      </trkpt>
      <trkpt lat="50.26938" lon="1.60207">
        <ele>7</ele>
        <time>2023-06-10T15:46:14Z</time>
      </trkpt>
      <trkpt lat="50.26938" lon="1.6022">
        <ele>7</ele>
        <time>2023-06-10T15:46:16Z</time>
      </trkpt>
      <trkpt lat="50.26939" lon="1.60233">
        <ele>7.3</ele>
        <time>2023-06-10T15:46:18Z</time>
      </trkpt>
      <trkpt lat="50.26939" lon="1.60246">
        <ele>7.7</ele>
        <time>2023-06-10T15:46:20Z</time>
      </trkpt>
      <trkpt lat="50.2694" lon="1.6026">
        <ele>7.5</ele>
        <time>2023-06-10T15:46:22Z</time>
      </trkpt>
      <trkpt lat="50.2694" lon="1.60273">
        <ele>7.1</ele>
        <time>2023-06-10T15:46:24Z</time>
      </trkpt>
      <trkpt lat="50.26941" lon="1.60286">
        <ele>7</ele>
        <time>2023-06-10T15:46:26Z</time>
      </trkpt>
      <trkpt lat="50.26942" lon="1.60298">
        <ele>7</ele>
        <time>2023-06-10T15:46:28Z</time>
      </trkpt>
      <trkpt lat="50.26943" lon="1.60309">
        <ele>7</ele>
        <time>2023-06-10T15:46:30Z</time>
      </trkpt>
      <trkpt lat="50.26945" lon="1.60322">
        <ele>7</ele>
        <time>2023-06-10T15:46:32Z</time>
      </trkpt>
      <trkpt lat="50.26946" lon="1.60335">
        <ele>7</ele>
        <time>2023-06-10T15:46:34Z</time>
      </trkpt>
      <trkpt lat="50.26947" lon="1.60347">
        <ele>7</ele>
        <time>2023-06-10T15:46:36Z</time>
      </trkpt>
      <trkpt lat="50.2695" lon="1.6036">
        <ele>7</ele>
        <time>2023-06-10T15:46:38Z</time>
      </trkpt>
      <trkpt lat="50.2695" lon="1.60373">
        <ele>7</ele>
        <time>2023-06-10T15:46:40Z</time>
      </trkpt>
      <trkpt lat="50.26952" lon="1.60387">
        <ele>7</ele>
        <time>2023-06-10T15:46:42Z</time>
      </trkpt>
      <trkpt lat="50.26953" lon="1.60399">
        <ele>6.9</ele>
        <time>2023-06-10T15:46:44Z</time>
      </trkpt>
      <trkpt lat="50.26954" lon="1.60412">
        <ele>6.7</ele>
        <time>2023-06-10T15:46:46Z</time>
      </trkpt>
      <trkpt lat="50.26956" lon="1.60424">
        <ele>6.7</ele>
        <time>2023-06-10T15:46:48Z</time>
      </trkpt>
      <trkpt lat="50.26957" lon="1.60434">
        <ele>6.8</ele>
        <time>2023-06-10T15:46:50Z</time>
      </trkpt>
      <trkpt lat="50.26958" lon="1.60446">
        <ele>7</ele>
        <time>2023-06-10T15:46:52Z</time>
      </trkpt>
      <trkpt lat="50.26954" lon="1.60456">
        <ele>7</ele>
        <time>2023-06-10T15:46:54Z</time>
      </trkpt>
      <trkpt lat="50.26949" lon="1.60465">
        <ele>7</ele>
        <time>2023-06-10T15:46:56Z</time>
      </trkpt>
      <trkpt lat="50.26944" lon="1.60476">
        <ele>7</ele>
        <time>2023-06-10T15:46:58Z</time>
      </trkpt>
      <trkpt lat="50.26939" lon="1.60487">
        <ele>7</ele>
        <time>2023-06-10T15:47:00Z</time>
      </trkpt>
      <trkpt lat="50.26934" lon="1.605">
        <ele>7</ele>
        <time>2023-06-10T15:47:02Z</time>
      </trkpt>
      <trkpt lat="50.26928" lon="1.60513">
        <ele>7</ele>
        <time>2023-06-10T15:47:04Z</time>
      </trkpt>
      <trkpt lat="50.26922" lon="1.60524">
        <ele>7</ele>
        <time>2023-06-10T15:47:06Z</time>
      </trkpt>
      <trkpt lat="50.26917" lon="1.60535">
        <ele>7</ele>
        <time>2023-06-10T15:47:08Z</time>
      </trkpt>
      <trkpt lat="50.26912" lon="1.60547">
        <ele>7</ele>
        <time>2023-06-10T15:47:10Z</time>
      </trkpt>
      <trkpt lat="50.26906" lon="1.6056">
        <ele>7</ele>
        <time>2023-06-10T15:47:12Z</time>
      </trkpt>
      <trkpt lat="50.26901" lon="1.60572">
        <ele>7</ele>
        <time>2023-06-10T15:47:14Z</time>
      </trkpt>
      <trkpt lat="50.26895" lon="1.60583">
        <ele>7</ele>
        <time>2023-06-10T15:47:16Z</time>
      </trkpt>
      <trkpt lat="50.26889" lon="1.60594">
        <ele>6.6</ele>
        <time>2023-06-10T15:47:18Z</time>
      </trkpt>
      <trkpt lat="50.26883" lon="1.60605">
        <ele>6.2</ele>
        <time>2023-06-10T15:47:20Z</time>
      </trkpt>
      <trkpt lat="50.26877" lon="1.60618">
        <ele>6</ele>
        <time>2023-06-10T15:47:22Z</time>
      </trkpt>
      <trkpt lat="50.26872" lon="1.60631">
        <ele>6</ele>
        <time>2023-06-10T15:47:24Z</time>
      </trkpt>
      <trkpt lat="50.26866" lon="1.60643">
        <ele>6</ele>
        <time>2023-06-10T15:47:26Z</time>
      </trkpt>
      <trkpt lat="50.26861" lon="1.60656">
        <ele>6</ele>
        <time>2023-06-10T15:47:28Z</time>
      </trkpt>
      <trkpt lat="50.26855" lon="1.60667">
        <ele>6</ele>
        <time>2023-06-10T15:47:30Z</time>
      </trkpt>
      <trkpt lat="50.2685" lon="1.60678">
        <ele>6</ele>
        <time>2023-06-10T15:47:32Z</time>
      </trkpt>
      <trkpt lat="50.26844" lon="1.60688">
        <ele>6</ele>
        <time>2023-06-10T15:47:34Z</time>
      </trkpt>
      <trkpt lat="50.26837" lon="1.60698">
        <ele>6</ele>
        <time>2023-06-10T15:47:36Z</time>
      </trkpt>
      <trkpt lat="50.26831" lon="1.60708">
        <ele>6</ele>
        <time>2023-06-10T15:47:38Z</time>
      </trkpt>
      <trkpt lat="50.26827" lon="1.60719">
        <ele>5.8</ele>
        <time>2023-06-10T15:47:40Z</time>
      </trkpt>
      <trkpt lat="50.26822" lon="1.60729">
        <ele>5.5</ele>
        <time>2023-06-10T15:47:42Z</time>
      </trkpt>
      <trkpt lat="50.26819" lon="1.60739">
        <ele>5.2</ele>
        <time>2023-06-10T15:47:44Z</time>
      </trkpt>
      <trkpt lat="50.2682" lon="1.60751">
        <ele>5</ele>
        <time>2023-06-10T15:47:46Z</time>
      </trkpt>
      <trkpt lat="50.26824" lon="1.60761">
        <ele>5</ele>
        <time>2023-06-10T15:47:48Z</time>
      </trkpt>
      <trkpt lat="50.26828" lon="1.60773">
        <ele>5</ele>
        <time>2023-06-10T15:47:50Z</time>
      </trkpt>
      <trkpt lat="50.26832" lon="1.60784">
        <ele>5</ele>
        <time>2023-06-10T15:47:52Z</time>
      </trkpt>
      <trkpt lat="50.26837" lon="1.60796">
        <ele>5</ele>
        <time>2023-06-10T15:47:54Z</time>
      </trkpt>
      <trkpt lat="50.26842" lon="1.60808">
        <ele>5</ele>
        <time>2023-06-10T15:47:56Z</time>
      </trkpt>
      <trkpt lat="50.26846" lon="1.6082">
        <ele>5</ele>
        <time>2023-06-10T15:47:58Z</time>
      </trkpt>
      <trkpt lat="50.26848" lon="1.60835">
        <ele>5</ele>
        <time>2023-06-10T15:48:00Z</time>
      </trkpt>
      <trkpt lat="50.26849" lon="1.60849">
        <ele>5.3</ele>
        <time>2023-06-10T15:48:02Z</time>
      </trkpt>
      <trkpt lat="50.26853" lon="1.60862">
        <ele>5.7</ele>
        <time>2023-06-10T15:48:04Z</time>
      </trkpt>
      <trkpt lat="50.26857" lon="1.60874">
        <ele>5.4</ele>
        <time>2023-06-10T15:48:06Z</time>
      </trkpt>
      <trkpt lat="50.26861" lon="1.60887">
        <ele>5.1</ele>
        <time>2023-06-10T15:48:08Z</time>
      </trkpt>
      <trkpt lat="50.26866" lon="1.609">
        <ele>5.1</ele>
        <time>2023-06-10T15:48:10Z</time>
      </trkpt>
      <trkpt lat="50.26872" lon="1.60911">
        <ele>5.1</ele>
        <time>2023-06-10T15:48:12Z</time>
      </trkpt>
      <trkpt lat="50.26879" lon="1.60922">
        <ele>5</ele>
        <time>2023-06-10T15:48:14Z</time>
      </trkpt>
      <trkpt lat="50.26885" lon="1.60933">
        <ele>5</ele>
        <time>2023-06-10T15:48:16Z</time>
      </trkpt>
      <trkpt lat="50.26892" lon="1.60943">
        <ele>5.1</ele>
        <time>2023-06-10T15:48:18Z</time>
      </trkpt>
      <trkpt lat="50.26899" lon="1.60954">
        <ele>5.4</ele>
        <time>2023-06-10T15:48:20Z</time>
      </trkpt>
      <trkpt lat="50.26906" lon="1.60964">
        <ele>5.6</ele>
        <time>2023-06-10T15:48:22Z</time>
      </trkpt>
      <trkpt lat="50.26913" lon="1.60973">
        <ele>5.8</ele>
        <time>2023-06-10T15:48:24Z</time>
      </trkpt>
      <trkpt lat="50.26919" lon="1.60983">
        <ele>5.7</ele>
        <time>2023-06-10T15:48:26Z</time>
      </trkpt>
      <trkpt lat="50.26926" lon="1.60993">
        <ele>5.5</ele>
        <time>2023-06-10T15:48:28Z</time>
      </trkpt>
      <trkpt lat="50.26932" lon="1.61002">
        <ele>5.6</ele>
        <time>2023-06-10T15:48:30Z</time>
      </trkpt>
      <trkpt lat="50.26939" lon="1.61013">
        <ele>5.8</ele>
        <time>2023-06-10T15:48:32Z</time>
      </trkpt>
      <trkpt lat="50.26945" lon="1.61022">
        <ele>6</ele>
        <time>2023-06-10T15:48:34Z</time>
      </trkpt>
      <trkpt lat="50.2695" lon="1.61032">
        <ele>6</ele>
        <time>2023-06-10T15:48:36Z</time>
      </trkpt>
      <trkpt lat="50.26953" lon="1.61043">
        <ele>6</ele>
        <time>2023-06-10T15:48:38Z</time>
      </trkpt>
      <trkpt lat="50.26952" lon="1.61056">
        <ele>6</ele>
        <time>2023-06-10T15:48:40Z</time>
      </trkpt>
      <trkpt lat="50.26947" lon="1.61066">
        <ele>5.6</ele>
        <time>2023-06-10T15:48:42Z</time>
      </trkpt>
      <trkpt lat="50.2694" lon="1.61076">
        <ele>5.2</ele>
        <time>2023-06-10T15:48:44Z</time>
      </trkpt>
      <trkpt lat="50.26932" lon="1.61086">
        <ele>5</ele>
        <time>2023-06-10T15:48:46Z</time>
      </trkpt>
      <trkpt lat="50.26925" lon="1.61096">
        <ele>5</ele>
        <time>2023-06-10T15:48:48Z</time>
      </trkpt>
      <trkpt lat="50.26917" lon="1.61105">
        <ele>5</ele>
        <time>2023-06-10T15:48:50Z</time>
      </trkpt>
      <trkpt lat="50.2691" lon="1.61114">
        <ele>5</ele>
        <time>2023-06-10T15:48:52Z</time>
      </trkpt>
      <trkpt lat="50.26902" lon="1.61123">
        <ele>5</ele>
        <time>2023-06-10T15:48:54Z</time>
      </trkpt>
      <trkpt lat="50.26895" lon="1.61131">
        <ele>5</ele>
        <time>2023-06-10T15:48:56Z</time>
      </trkpt>
      <trkpt lat="50.26887" lon="1.61139">
        <ele>5</ele>
        <time>2023-06-10T15:48:58Z</time>
      </trkpt>
      <trkpt lat="50.26879" lon="1.61146">
        <ele>5</ele>
        <time>2023-06-10T15:49:00Z</time>
      </trkpt>
      <trkpt lat="50.26872" lon="1.61154">
        <ele>5</ele>
        <time>2023-06-10T15:49:02Z</time>
      </trkpt>
      <trkpt lat="50.26864" lon="1.61162">
        <ele>5</ele>
        <time>2023-06-10T15:49:04Z</time>
      </trkpt>
      <trkpt lat="50.26857" lon="1.6117">
        <ele>5</ele>
        <time>2023-06-10T15:49:06Z</time>
      </trkpt>
      <trkpt lat="50.26849" lon="1.61178">
        <ele>5</ele>
        <time>2023-06-10T15:49:08Z</time>
      </trkpt>
      <trkpt lat="50.26841" lon="1.61187">
        <ele>5</ele>
        <time>2023-06-10T15:49:10Z</time>
      </trkpt>
      <trkpt lat="50.26834" lon="1.61196">
        <ele>5</ele>
        <time>2023-06-10T15:49:12Z</time>
      </trkpt>
      <trkpt lat="50.26826" lon="1.61204">
        <ele>5</ele>
        <time>2023-06-10T15:49:14Z</time>
      </trkpt>
      <trkpt lat="50.26819" lon="1.61213">
        <ele>5</ele>
        <time>2023-06-10T15:49:16Z</time>
      </trkpt>
      <trkpt lat="50.26811" lon="1.61221">
        <ele>5</ele>
        <time>2023-06-10T15:49:18Z</time>
      </trkpt>
      <trkpt lat="50.26804" lon="1.6123">
        <ele>5</ele>
        <time>2023-06-10T15:49:20Z</time>
      </trkpt>
      <trkpt lat="50.26797" lon="1.61238">
        <ele>5.2</ele>
        <time>2023-06-10T15:49:22Z</time>
      </trkpt>
      <trkpt lat="50.2679" lon="1.61246">
        <ele>5.5</ele>
        <time>2023-06-10T15:49:24Z</time>
      </trkpt>
      <trkpt lat="50.26783" lon="1.61256">
        <ele>5.7</ele>
        <time>2023-06-10T15:49:26Z</time>
      </trkpt>
      <trkpt lat="50.26776" lon="1.61264">
        <ele>5.5</ele>
        <time>2023-06-10T15:49:28Z</time>
      </trkpt>
      <trkpt lat="50.26769" lon="1.61273">
        <ele>5.1</ele>
        <time>2023-06-10T15:49:30Z</time>
      </trkpt>
      <trkpt lat="50.26762" lon="1.61282">
        <ele>5</ele>
        <time>2023-06-10T15:49:32Z</time>
      </trkpt>
      <trkpt lat="50.26754" lon="1.6129">
        <ele>5</ele>
        <time>2023-06-10T15:49:34Z</time>
      </trkpt>
      <trkpt lat="50.26746" lon="1.61299">
        <ele>5</ele>
        <time>2023-06-10T15:49:36Z</time>
      </trkpt>
      <trkpt lat="50.26739" lon="1.61307">
        <ele>5</ele>
        <time>2023-06-10T15:49:38Z</time>
      </trkpt>
      <trkpt lat="50.26732" lon="1.61315">
        <ele>5</ele>
        <time>2023-06-10T15:49:40Z</time>
      </trkpt>
      <trkpt lat="50.26725" lon="1.61323">
        <ele>5</ele>
        <time>2023-06-10T15:49:42Z</time>
      </trkpt>
      <trkpt lat="50.26717" lon="1.61331">
        <ele>5</ele>
        <time>2023-06-10T15:49:44Z</time>
      </trkpt>
      <trkpt lat="50.2671" lon="1.61339">
        <ele>5</ele>
        <time>2023-06-10T15:49:46Z</time>
      </trkpt>
      <trkpt lat="50.26703" lon="1.61347">
        <ele>5</ele>
        <time>2023-06-10T15:49:48Z</time>
      </trkpt>
      <trkpt lat="50.26696" lon="1.61355">
        <ele>5</ele>
        <time>2023-06-10T15:49:50Z</time>
      </trkpt>
      <trkpt lat="50.26688" lon="1.61363">
        <ele>5</ele>
        <time>2023-06-10T15:49:52Z</time>
      </trkpt>
      <trkpt lat="50.26681" lon="1.61371">
        <ele>5</ele>
        <time>2023-06-10T15:49:54Z</time>
      </trkpt>
      <trkpt lat="50.26672" lon="1.61378">
        <ele>5</ele>
        <time>2023-06-10T15:49:56Z</time>
      </trkpt>
      <trkpt lat="50.26664" lon="1.61384">
        <ele>4.9</ele>
        <time>2023-06-10T15:49:58Z</time>
      </trkpt>
      <trkpt lat="50.26656" lon="1.61392">
        <ele>4.6</ele>
        <time>2023-06-10T15:50:00Z</time>
      </trkpt>
      <trkpt lat="50.26651" lon="1.61403">
        <ele>4.5</ele>
        <time>2023-06-10T15:50:02Z</time>
      </trkpt>
      <trkpt lat="50.26647" lon="1.61414">
        <ele>4.7</ele>
        <time>2023-06-10T15:50:04Z</time>
      </trkpt>
      <trkpt lat="50.26641" lon="1.61423">
        <ele>5</ele>
        <time>2023-06-10T15:50:06Z</time>
      </trkpt>
      <trkpt lat="50.26632" lon="1.61431">
        <ele>5</ele>
        <time>2023-06-10T15:50:08Z</time>
      </trkpt>
      <trkpt lat="50.26623" lon="1.61436">
        <ele>5</ele>
        <time>2023-06-10T15:50:10Z</time>
      </trkpt>
      <trkpt lat="50.26615" lon="1.61443">
        <ele>5</ele>
        <time>2023-06-10T15:50:12Z</time>
      </trkpt>
      <trkpt lat="50.26607" lon="1.61451">
        <ele>5</ele>
        <time>2023-06-10T15:50:14Z</time>
      </trkpt>
      <trkpt lat="50.26599" lon="1.61459">
        <ele>5</ele>
        <time>2023-06-10T15:50:16Z</time>
      </trkpt>
      <trkpt lat="50.26592" lon="1.61467">
        <ele>5</ele>
        <time>2023-06-10T15:50:18Z</time>
      </trkpt>
      <trkpt lat="50.26584" lon="1.61476">
        <ele>5</ele>
        <time>2023-06-10T15:50:20Z</time>
      </trkpt>
      <trkpt lat="50.26577" lon="1.61483">
        <ele>5</ele>
        <time>2023-06-10T15:50:22Z</time>
      </trkpt>
      <trkpt lat="50.26569" lon="1.61492">
        <ele>5</ele>
        <time>2023-06-10T15:50:24Z</time>
      </trkpt>
      <trkpt lat="50.26562" lon="1.615">
        <ele>5</ele>
        <time>2023-06-10T15:50:26Z</time>
      </trkpt>
      <trkpt lat="50.26554" lon="1.61509">
        <ele>5</ele>
        <time>2023-06-10T15:50:28Z</time>
      </trkpt>
      <trkpt lat="50.26547" lon="1.61517">
        <ele>5</ele>
        <time>2023-06-10T15:50:30Z</time>
      </trkpt>
      <trkpt lat="50.26539" lon="1.61526">
        <ele>5</ele>
        <time>2023-06-10T15:50:32Z</time>
      </trkpt>
      <trkpt lat="50.26532" lon="1.61534">
        <ele>5</ele>
        <time>2023-06-10T15:50:34Z</time>
      </trkpt>
      <trkpt lat="50.26525" lon="1.61543">
        <ele>5</ele>
        <time>2023-06-10T15:50:36Z</time>
      </trkpt>
      <trkpt lat="50.26517" lon="1.61552">
        <ele>5</ele>
        <time>2023-06-10T15:50:38Z</time>
      </trkpt>
      <trkpt lat="50.26508" lon="1.61559">
        <ele>5</ele>
        <time>2023-06-10T15:50:40Z</time>
      </trkpt>
      <trkpt lat="50.265" lon="1.61566">
        <ele>5</ele>
        <time>2023-06-10T15:50:42Z</time>
      </trkpt>
      <trkpt lat="50.26491" lon="1.61571">
        <ele>5</ele>
        <time>2023-06-10T15:50:44Z</time>
      </trkpt>
      <trkpt lat="50.26483" lon="1.61577">
        <ele>5</ele>
        <time>2023-06-10T15:50:46Z</time>
      </trkpt>
      <trkpt lat="50.26474" lon="1.61582">
        <ele>5</ele>
        <time>2023-06-10T15:50:48Z</time>
      </trkpt>
      <trkpt lat="50.26465" lon="1.61588">
        <ele>5</ele>
        <time>2023-06-10T15:50:50Z</time>
      </trkpt>
      <trkpt lat="50.26455" lon="1.61594">
        <ele>5</ele>
        <time>2023-06-10T15:50:52Z</time>
      </trkpt>
      <trkpt lat="50.26446" lon="1.616">
        <ele>5</ele>
        <time>2023-06-10T15:50:54Z</time>
      </trkpt>
      <trkpt lat="50.26436" lon="1.61607">
        <ele>5</ele>
        <time>2023-06-10T15:50:56Z</time>
      </trkpt>
      <trkpt lat="50.26426" lon="1.61613">
        <ele>5</ele>
        <time>2023-06-10T15:50:58Z</time>
      </trkpt>
      <trkpt lat="50.26417" lon="1.61619">
        <ele>5</ele>
        <time>2023-06-10T15:51:00Z</time>
      </trkpt>
      <trkpt lat="50.26407" lon="1.61623">
        <ele>4.8</ele>
        <time>2023-06-10T15:51:02Z</time>
      </trkpt>
      <trkpt lat="50.26398" lon="1.61629">
        <ele>4.8</ele>
        <time>2023-06-10T15:51:04Z</time>
      </trkpt>
      <trkpt lat="50.26388" lon="1.61635">
        <ele>4.8</ele>
        <time>2023-06-10T15:51:06Z</time>
      </trkpt>
      <trkpt lat="50.26379" lon="1.6164">
        <ele>4.7</ele>
        <time>2023-06-10T15:51:08Z</time>
      </trkpt>
      <trkpt lat="50.2637" lon="1.61645">
        <ele>4.5</ele>
        <time>2023-06-10T15:51:10Z</time>
      </trkpt>
      <trkpt lat="50.26361" lon="1.61651">
        <ele>4.4</ele>
        <time>2023-06-10T15:51:12Z</time>
      </trkpt>
      <trkpt lat="50.26352" lon="1.61657">
        <ele>4.6</ele>
        <time>2023-06-10T15:51:14Z</time>
      </trkpt>
      <trkpt lat="50.26343" lon="1.61662">
        <ele>4.8</ele>
        <time>2023-06-10T15:51:16Z</time>
      </trkpt>
      <trkpt lat="50.26333" lon="1.61668">
        <ele>5</ele>
        <time>2023-06-10T15:51:18Z</time>
      </trkpt>
      <trkpt lat="50.26324" lon="1.61673">
        <ele>5</ele>
        <time>2023-06-10T15:51:20Z</time>
      </trkpt>
      <trkpt lat="50.26315" lon="1.61679">
        <ele>5</ele>
        <time>2023-06-10T15:51:22Z</time>
      </trkpt>
      <trkpt lat="50.26305" lon="1.61685">
        <ele>5</ele>
        <time>2023-06-10T15:51:24Z</time>
      </trkpt>
      <trkpt lat="50.26295" lon="1.61691">
        <ele>5</ele>
        <time>2023-06-10T15:51:26Z</time>
      </trkpt>
      <trkpt lat="50.26285" lon="1.61697">
        <ele>5</ele>
        <time>2023-06-10T15:51:28Z</time>
      </trkpt>
      <trkpt lat="50.26276" lon="1.61703">
        <ele>5</ele>
        <time>2023-06-10T15:51:30Z</time>
      </trkpt>
      <trkpt lat="50.26267" lon="1.6171">
        <ele>4.6</ele>
        <time>2023-06-10T15:51:32Z</time>
      </trkpt>
      <trkpt lat="50.26258" lon="1.61715">
        <ele>4.3</ele>
        <time>2023-06-10T15:51:34Z</time>
      </trkpt>
      <trkpt lat="50.26249" lon="1.6172">
        <ele>4</ele>
        <time>2023-06-10T15:51:36Z</time>
      </trkpt>
      <trkpt lat="50.26239" lon="1.61723">
        <ele>4.4</ele>
        <time>2023-06-10T15:51:38Z</time>
      </trkpt>
      <trkpt lat="50.2623" lon="1.61723">
        <ele>4.7</ele>
        <time>2023-06-10T15:51:40Z</time>
      </trkpt>
      <trkpt lat="50.26221" lon="1.61727">
        <ele>5</ele>
        <time>2023-06-10T15:51:42Z</time>
      </trkpt>
      <trkpt lat="50.26214" lon="1.61738">
        <ele>5</ele>
        <time>2023-06-10T15:51:44Z</time>
      </trkpt>
      <trkpt lat="50.26208" lon="1.61749">
        <ele>5</ele>
        <time>2023-06-10T15:51:46Z</time>
      </trkpt>
      <trkpt lat="50.26203" lon="1.61762">
        <ele>5</ele>
        <time>2023-06-10T15:51:48Z</time>
      </trkpt>
      <trkpt lat="50.26197" lon="1.61774">
        <ele>5</ele>
        <time>2023-06-10T15:51:50Z</time>
      </trkpt>
      <trkpt lat="50.26192" lon="1.61786">
        <ele>5</ele>
        <time>2023-06-10T15:51:52Z</time>
      </trkpt>
      <trkpt lat="50.26185" lon="1.61798">
        <ele>5</ele>
        <time>2023-06-10T15:51:54Z</time>
      </trkpt>
      <trkpt lat="50.26178" lon="1.61809">
        <ele>5</ele>
        <time>2023-06-10T15:51:56Z</time>
      </trkpt>
      <trkpt lat="50.26172" lon="1.61819">
        <ele>5</ele>
        <time>2023-06-10T15:51:58Z</time>
      </trkpt>
      <trkpt lat="50.26164" lon="1.6183">
        <ele>5</ele>
        <time>2023-06-10T15:52:00Z</time>
      </trkpt>
      <trkpt lat="50.26159" lon="1.61842">
        <ele>5</ele>
        <time>2023-06-10T15:52:02Z</time>
      </trkpt>
      <trkpt lat="50.26154" lon="1.61855">
        <ele>5</ele>
        <time>2023-06-10T15:52:04Z</time>
      </trkpt>
      <trkpt lat="50.2615" lon="1.61869">
        <ele>5</ele>
        <time>2023-06-10T15:52:06Z</time>
      </trkpt>
      <trkpt lat="50.26148" lon="1.61884">
        <ele>5</ele>
        <time>2023-06-10T15:52:08Z</time>
      </trkpt>
      <trkpt lat="50.26148" lon="1.61898">
        <ele>5</ele>
        <time>2023-06-10T15:52:10Z</time>
      </trkpt>
      <trkpt lat="50.26147" lon="1.6191">
        <ele>5</ele>
        <time>2023-06-10T15:52:12Z</time>
      </trkpt>
      <trkpt lat="50.26144" lon="1.61923">
        <ele>5</ele>
        <time>2023-06-10T15:52:14Z</time>
      </trkpt>
      <trkpt lat="50.26142" lon="1.61935">
        <ele>5</ele>
        <time>2023-06-10T15:52:16Z</time>
      </trkpt>
      <trkpt lat="50.26137" lon="1.61946">
        <ele>4.9</ele>
        <time>2023-06-10T15:52:18Z</time>
      </trkpt>
      <trkpt lat="50.26132" lon="1.61957">
        <ele>4.7</ele>
        <time>2023-06-10T15:52:20Z</time>
      </trkpt>
      <trkpt lat="50.26127" lon="1.61968">
        <ele>4.5</ele>
        <time>2023-06-10T15:52:22Z</time>
      </trkpt>
      <trkpt lat="50.26121" lon="1.61979">
        <ele>4.7</ele>
        <time>2023-06-10T15:52:24Z</time>
      </trkpt>
      <trkpt lat="50.26116" lon="1.61991">
        <ele>4.9</ele>
        <time>2023-06-10T15:52:26Z</time>
      </trkpt>
      <trkpt lat="50.2611" lon="1.62003">
        <ele>5</ele>
        <time>2023-06-10T15:52:28Z</time>
      </trkpt>
      <trkpt lat="50.26106" lon="1.62017">
        <ele>5</ele>
        <time>2023-06-10T15:52:30Z</time>
      </trkpt>
      <trkpt lat="50.26101" lon="1.62029">
        <ele>5</ele>
        <time>2023-06-10T15:52:32Z</time>
      </trkpt>
      <trkpt lat="50.26097" lon="1.62041">
        <ele>5</ele>
        <time>2023-06-10T15:52:34Z</time>
      </trkpt>
      <trkpt lat="50.26093" lon="1.62053">
        <ele>5</ele>
        <time>2023-06-10T15:52:36Z</time>
      </trkpt>
      <trkpt lat="50.26089" lon="1.62065">
        <ele>5</ele>
        <time>2023-06-10T15:52:38Z</time>
      </trkpt>
      <trkpt lat="50.26085" lon="1.62076">
        <ele>5</ele>
        <time>2023-06-10T15:52:40Z</time>
      </trkpt>
      <trkpt lat="50.26081" lon="1.62088">
        <ele>5</ele>
        <time>2023-06-10T15:52:42Z</time>
      </trkpt>
      <trkpt lat="50.26077" lon="1.621">
        <ele>5</ele>
        <time>2023-06-10T15:52:44Z</time>
      </trkpt>
      <trkpt lat="50.26073" lon="1.62113">
        <ele>5</ele>
        <time>2023-06-10T15:52:46Z</time>
      </trkpt>
      <trkpt lat="50.26069" lon="1.62125">
        <ele>5</ele>
        <time>2023-06-10T15:52:48Z</time>
      </trkpt>
      <trkpt lat="50.26064" lon="1.62137">
        <ele>5</ele>
        <time>2023-06-10T15:52:50Z</time>
      </trkpt>
      <trkpt lat="50.2606" lon="1.62149">
        <ele>5.3</ele>
        <time>2023-06-10T15:52:52Z</time>
      </trkpt>
      <trkpt lat="50.26058" lon="1.62159">
        <ele>5.7</ele>
        <time>2023-06-10T15:52:54Z</time>
      </trkpt>
      <trkpt lat="50.26056" lon="1.62167">
        <ele>6</ele>
        <time>2023-06-10T15:52:56Z</time>
      </trkpt>
      <trkpt lat="50.26053" lon="1.62173">
        <ele>6.2</ele>
        <time>2023-06-10T15:53:10Z</time>
      </trkpt>
      <trkpt lat="50.26046" lon="1.62173">
        <ele>6</ele>
        <time>2023-06-10T15:53:14Z</time>
      </trkpt>
      <trkpt lat="50.26041" lon="1.62173">
        <ele>5.8</ele>
        <time>2023-06-10T15:53:16Z</time>
      </trkpt>
      <trkpt lat="50.26034" lon="1.62173">
        <ele>5.6</ele>
        <time>2023-06-10T15:53:18Z</time>
      </trkpt>
      <trkpt lat="50.26026" lon="1.62172">
        <ele>5.4</ele>
        <time>2023-06-10T15:53:20Z</time>
      </trkpt>
      <trkpt lat="50.26018" lon="1.62173">
        <ele>5.4</ele>
        <time>2023-06-10T15:53:22Z</time>
      </trkpt>
      <trkpt lat="50.26009" lon="1.62174">
        <ele>5.5</ele>
        <time>2023-06-10T15:53:24Z</time>
      </trkpt>
      <trkpt lat="50.25999" lon="1.62176">
        <ele>5.7</ele>
        <time>2023-06-10T15:53:26Z</time>
      </trkpt>
      <trkpt lat="50.25989" lon="1.62179">
        <ele>5.7</ele>
        <time>2023-06-10T15:53:28Z</time>
      </trkpt>
      <trkpt lat="50.25979" lon="1.6218">
        <ele>5.6</ele>
        <time>2023-06-10T15:53:30Z</time>
      </trkpt>
      <trkpt lat="50.25969" lon="1.62183">
        <ele>5.6</ele>
        <time>2023-06-10T15:53:32Z</time>
      </trkpt>
      <trkpt lat="50.25958" lon="1.62186">
        <ele>5.7</ele>
        <time>2023-06-10T15:53:34Z</time>
      </trkpt>
      <trkpt lat="50.25948" lon="1.6219">
        <ele>5.8</ele>
        <time>2023-06-10T15:53:36Z</time>
      </trkpt>
      <trkpt lat="50.25937" lon="1.62193">
        <ele>5.7</ele>
        <time>2023-06-10T15:53:38Z</time>
      </trkpt>
      <trkpt lat="50.25926" lon="1.62196">
        <ele>5.4</ele>
        <time>2023-06-10T15:53:40Z</time>
      </trkpt>
      <trkpt lat="50.25916" lon="1.62199">
        <ele>5.3</ele>
        <time>2023-06-10T15:53:42Z</time>
      </trkpt>
      <trkpt lat="50.25906" lon="1.62201">
        <ele>5.5</ele>
        <time>2023-06-10T15:53:44Z</time>
      </trkpt>
      <trkpt lat="50.25897" lon="1.62203">
        <ele>5.6</ele>
        <time>2023-06-10T15:53:46Z</time>
      </trkpt>
      <trkpt lat="50.25888" lon="1.62204">
        <ele>5.7</ele>
        <time>2023-06-10T15:53:48Z</time>
      </trkpt>
      <trkpt lat="50.25879" lon="1.62206">
        <ele>5.8</ele>
        <time>2023-06-10T15:53:50Z</time>
      </trkpt>
      <trkpt lat="50.25869" lon="1.62207">
        <ele>5.9</ele>
        <time>2023-06-10T15:53:52Z</time>
      </trkpt>
      <trkpt lat="50.25859" lon="1.62208">
        <ele>6</ele>
        <time>2023-06-10T15:53:54Z</time>
      </trkpt>
      <trkpt lat="50.25848" lon="1.62209">
        <ele>5.8</ele>
        <time>2023-06-10T15:53:56Z</time>
      </trkpt>
      <trkpt lat="50.25838" lon="1.6221">
        <ele>5.7</ele>
        <time>2023-06-10T15:53:58Z</time>
      </trkpt>
      <trkpt lat="50.25828" lon="1.62211">
        <ele>5.7</ele>
        <time>2023-06-10T15:54:00Z</time>
      </trkpt>
      <trkpt lat="50.25818" lon="1.62211">
        <ele>5.9</ele>
        <time>2023-06-10T15:54:02Z</time>
      </trkpt>
      <trkpt lat="50.25808" lon="1.62212">
        <ele>6.2</ele>
        <time>2023-06-10T15:54:04Z</time>
      </trkpt>
      <trkpt lat="50.25798" lon="1.62212">
        <ele>6.2</ele>
        <time>2023-06-10T15:54:06Z</time>
      </trkpt>
      <trkpt lat="50.25787" lon="1.62213">
        <ele>6.1</ele>
        <time>2023-06-10T15:54:08Z</time>
      </trkpt>
      <trkpt lat="50.25776" lon="1.62213">
        <ele>6</ele>
        <time>2023-06-10T15:54:10Z</time>
      </trkpt>
      <trkpt lat="50.25765" lon="1.62213">
        <ele>6.2</ele>
        <time>2023-06-10T15:54:12Z</time>
      </trkpt>
      <trkpt lat="50.25754" lon="1.62213">
        <ele>6.3</ele>
        <time>2023-06-10T15:54:14Z</time>
      </trkpt>
      <trkpt lat="50.25743" lon="1.62213">
        <ele>6.3</ele>
        <time>2023-06-10T15:54:16Z</time>
      </trkpt>
      <trkpt lat="50.25731" lon="1.62212">
        <ele>6.3</ele>
        <time>2023-06-10T15:54:18Z</time>
      </trkpt>
      <trkpt lat="50.2572" lon="1.62212">
        <ele>6.2</ele>
        <time>2023-06-10T15:54:20Z</time>
      </trkpt>
      <trkpt lat="50.25708" lon="1.62211">
        <ele>6.2</ele>
        <time>2023-06-10T15:54:22Z</time>
      </trkpt>
      <trkpt lat="50.25696" lon="1.6221">
        <ele>6.1</ele>
        <time>2023-06-10T15:54:24Z</time>
      </trkpt>
      <trkpt lat="50.25685" lon="1.62209">
        <ele>6.1</ele>
        <time>2023-06-10T15:54:26Z</time>
      </trkpt>
      <trkpt lat="50.25673" lon="1.62208">
        <ele>6</ele>
        <time>2023-06-10T15:54:28Z</time>
      </trkpt>
      <trkpt lat="50.25662" lon="1.62208">
        <ele>6</ele>
        <time>2023-06-10T15:54:30Z</time>
      </trkpt>
      <trkpt lat="50.2565" lon="1.62206">
        <ele>5.8</ele>
        <time>2023-06-10T15:54:32Z</time>
      </trkpt>
      <trkpt lat="50.25639" lon="1.62205">
        <ele>5.8</ele>
        <time>2023-06-10T15:54:34Z</time>
      </trkpt>
      <trkpt lat="50.25628" lon="1.62205">
        <ele>6</ele>
        <time>2023-06-10T15:54:36Z</time>
      </trkpt>
      <trkpt lat="50.25617" lon="1.62203">
        <ele>6.2</ele>
        <time>2023-06-10T15:54:38Z</time>
      </trkpt>
      <trkpt lat="50.25607" lon="1.62202">
        <ele>6.3</ele>
        <time>2023-06-10T15:54:40Z</time>
      </trkpt>
      <trkpt lat="50.25596" lon="1.62201">
        <ele>6.2</ele>
        <time>2023-06-10T15:54:42Z</time>
      </trkpt>
      <trkpt lat="50.25585" lon="1.622">
        <ele>6.2</ele>
        <time>2023-06-10T15:54:44Z</time>
      </trkpt>
      <trkpt lat="50.25575" lon="1.622">
        <ele>6.2</ele>
        <time>2023-06-10T15:54:46Z</time>
      </trkpt>
      <trkpt lat="50.25564" lon="1.62201">
        <ele>6.2</ele>
        <time>2023-06-10T15:54:48Z</time>
      </trkpt>
      <trkpt lat="50.25554" lon="1.62198">
        <ele>6.1</ele>
        <time>2023-06-10T15:54:50Z</time>
      </trkpt>
      <trkpt lat="50.25544" lon="1.62196">
        <ele>6.1</ele>
        <time>2023-06-10T15:54:52Z</time>
      </trkpt>
      <trkpt lat="50.25533" lon="1.62195">
        <ele>6</ele>
        <time>2023-06-10T15:54:54Z</time>
      </trkpt>
      <trkpt lat="50.25523" lon="1.62194">
        <ele>6</ele>
        <time>2023-06-10T15:54:56Z</time>
      </trkpt>
      <trkpt lat="50.25512" lon="1.62193">
        <ele>6</ele>
        <time>2023-06-10T15:54:58Z</time>
      </trkpt>
      <trkpt lat="50.25501" lon="1.62192">
        <ele>6</ele>
        <time>2023-06-10T15:55:00Z</time>
      </trkpt>
      <trkpt lat="50.25491" lon="1.62191">
        <ele>6</ele>
        <time>2023-06-10T15:55:02Z</time>
      </trkpt>
      <trkpt lat="50.25481" lon="1.62191">
        <ele>5.9</ele>
        <time>2023-06-10T15:55:04Z</time>
      </trkpt>
      <trkpt lat="50.2547" lon="1.6219">
        <ele>5.9</ele>
        <time>2023-06-10T15:55:06Z</time>
      </trkpt>
      <trkpt lat="50.2546" lon="1.62189">
        <ele>6.1</ele>
        <time>2023-06-10T15:55:08Z</time>
      </trkpt>
      <trkpt lat="50.2545" lon="1.62188">
        <ele>6.4</ele>
        <time>2023-06-10T15:55:10Z</time>
      </trkpt>
      <trkpt lat="50.2544" lon="1.62188">
        <ele>6.5</ele>
        <time>2023-06-10T15:55:12Z</time>
      </trkpt>
      <trkpt lat="50.2543" lon="1.62188">
        <ele>6.6</ele>
        <time>2023-06-10T15:55:14Z</time>
      </trkpt>
      <trkpt lat="50.25422" lon="1.62188">
        <ele>6.7</ele>
        <time>2023-06-10T15:55:16Z</time>
      </trkpt>
      <trkpt lat="50.25413" lon="1.62185">
        <ele>6.7</ele>
        <time>2023-06-10T15:55:18Z</time>
      </trkpt>
      <trkpt lat="50.25404" lon="1.62179">
        <ele>6.5</ele>
        <time>2023-06-10T15:55:20Z</time>
      </trkpt>
      <trkpt lat="50.25395" lon="1.62172">
        <ele>6.2</ele>
        <time>2023-06-10T15:55:22Z</time>
      </trkpt>
      <trkpt lat="50.25389" lon="1.62167">
        <ele>6</ele>
        <time>2023-06-10T15:55:24Z</time>
      </trkpt>
      <trkpt lat="50.25385" lon="1.6216">
        <ele>6.1</ele>
        <time>2023-06-10T15:55:26Z</time>
      </trkpt>
      <trkpt lat="50.25378" lon="1.62158">
        <ele>6.3</ele>
        <time>2023-06-10T15:55:28Z</time>
      </trkpt>
      <trkpt lat="50.2537" lon="1.62155">
        <ele>6.4</ele>
        <time>2023-06-10T15:55:30Z</time>
      </trkpt>
      <trkpt lat="50.25363" lon="1.62147">
        <ele>6.3</ele>
        <time>2023-06-10T15:55:32Z</time>
      </trkpt>
      <trkpt lat="50.25355" lon="1.62141">
        <ele>6.1</ele>
        <time>2023-06-10T15:55:34Z</time>
      </trkpt>
      <trkpt lat="50.25346" lon="1.62135">
        <ele>6</ele>
        <time>2023-06-10T15:55:36Z</time>
      </trkpt>
      <trkpt lat="50.25339" lon="1.6213">
        <ele>6</ele>
        <time>2023-06-10T15:55:38Z</time>
      </trkpt>
      <trkpt lat="50.25332" lon="1.62125">
        <ele>6</ele>
        <time>2023-06-10T15:55:40Z</time>
      </trkpt>
      <trkpt lat="50.25325" lon="1.62121">
        <ele>6.1</ele>
        <time>2023-06-10T15:55:42Z</time>
      </trkpt>
      <trkpt lat="50.25317" lon="1.62116">
        <ele>6.1</ele>
        <time>2023-06-10T15:55:44Z</time>
      </trkpt>
      <trkpt lat="50.25309" lon="1.62111">
        <ele>6</ele>
        <time>2023-06-10T15:55:46Z</time>
      </trkpt>
      <trkpt lat="50.25302" lon="1.62107">
        <ele>6.1</ele>
        <time>2023-06-10T15:55:48Z</time>
      </trkpt>
      <trkpt lat="50.25295" lon="1.62103">
        <ele>6.3</ele>
        <time>2023-06-10T15:55:50Z</time>
      </trkpt>
      <trkpt lat="50.25287" lon="1.62098">
        <ele>6.4</ele>
        <time>2023-06-10T15:55:52Z</time>
      </trkpt>
      <trkpt lat="50.25279" lon="1.62093">
        <ele>6.3</ele>
        <time>2023-06-10T15:55:54Z</time>
      </trkpt>
      <trkpt lat="50.2527" lon="1.62088">
        <ele>6.2</ele>
        <time>2023-06-10T15:55:56Z</time>
      </trkpt>
      <trkpt lat="50.25262" lon="1.62083">
        <ele>6</ele>
        <time>2023-06-10T15:55:58Z</time>
      </trkpt>
      <trkpt lat="50.25254" lon="1.62077">
        <ele>6</ele>
        <time>2023-06-10T15:56:00Z</time>
      </trkpt>
      <trkpt lat="50.25245" lon="1.62071">
        <ele>6</ele>
        <time>2023-06-10T15:56:02Z</time>
      </trkpt>
      <trkpt lat="50.25236" lon="1.62066">
        <ele>6</ele>
        <time>2023-06-10T15:56:04Z</time>
      </trkpt>
      <trkpt lat="50.25226" lon="1.6206">
        <ele>6</ele>
        <time>2023-06-10T15:56:06Z</time>
      </trkpt>
      <trkpt lat="50.25217" lon="1.62054">
        <ele>6</ele>
        <time>2023-06-10T15:56:08Z</time>
      </trkpt>
      <trkpt lat="50.25208" lon="1.62048">
        <ele>6</ele>
        <time>2023-06-10T15:56:10Z</time>
      </trkpt>
      <trkpt lat="50.252" lon="1.62042">
        <ele>6</ele>
        <time>2023-06-10T15:56:12Z</time>
      </trkpt>
      <trkpt lat="50.25191" lon="1.62037">
        <ele>6</ele>
        <time>2023-06-10T15:56:14Z</time>
      </trkpt>
      <trkpt lat="50.25183" lon="1.6203">
        <ele>6</ele>
        <time>2023-06-10T15:56:16Z</time>
      </trkpt>
      <trkpt lat="50.25174" lon="1.62026">
        <ele>6</ele>
        <time>2023-06-10T15:56:18Z</time>
      </trkpt>
      <trkpt lat="50.25165" lon="1.62022">
        <ele>6</ele>
        <time>2023-06-10T15:56:20Z</time>
      </trkpt>
      <trkpt lat="50.25155" lon="1.62017">
        <ele>6</ele>
        <time>2023-06-10T15:56:22Z</time>
      </trkpt>
      <trkpt lat="50.25145" lon="1.62013">
        <ele>6</ele>
        <time>2023-06-10T15:56:24Z</time>
      </trkpt>
      <trkpt lat="50.25135" lon="1.62008">
        <ele>6</ele>
        <time>2023-06-10T15:56:26Z</time>
      </trkpt>
      <trkpt lat="50.25124" lon="1.62003">
        <ele>6.1</ele>
        <time>2023-06-10T15:56:28Z</time>
      </trkpt>
      <trkpt lat="50.25114" lon="1.61998">
        <ele>6</ele>
        <time>2023-06-10T15:56:30Z</time>
      </trkpt>
      <trkpt lat="50.25104" lon="1.61993">
        <ele>6.2</ele>
        <time>2023-06-10T15:56:32Z</time>
      </trkpt>
      <trkpt lat="50.25094" lon="1.61988">
        <ele>6.4</ele>
        <time>2023-06-10T15:56:34Z</time>
      </trkpt>
      <trkpt lat="50.25082" lon="1.61983">
        <ele>6.4</ele>
        <time>2023-06-10T15:56:36Z</time>
      </trkpt>
      <trkpt lat="50.25071" lon="1.61977">
        <ele>6.2</ele>
        <time>2023-06-10T15:56:38Z</time>
      </trkpt>
      <trkpt lat="50.2506" lon="1.61972">
        <ele>6</ele>
        <time>2023-06-10T15:56:40Z</time>
      </trkpt>
      <trkpt lat="50.25049" lon="1.61966">
        <ele>6</ele>
        <time>2023-06-10T15:56:42Z</time>
      </trkpt>
      <trkpt lat="50.25038" lon="1.61961">
        <ele>6</ele>
        <time>2023-06-10T15:56:44Z</time>
      </trkpt>
      <trkpt lat="50.25028" lon="1.61956">
        <ele>6</ele>
        <time>2023-06-10T15:56:46Z</time>
      </trkpt>
      <trkpt lat="50.25018" lon="1.6195">
        <ele>6.1</ele>
        <time>2023-06-10T15:56:48Z</time>
      </trkpt>
      <trkpt lat="50.25009" lon="1.61946">
        <ele>6</ele>
        <time>2023-06-10T15:56:50Z</time>
      </trkpt>
      <trkpt lat="50.25" lon="1.61942">
        <ele>6</ele>
        <time>2023-06-10T15:56:52Z</time>
      </trkpt>
      <trkpt lat="50.24991" lon="1.61938">
        <ele>6.2</ele>
        <time>2023-06-10T15:56:54Z</time>
      </trkpt>
      <trkpt lat="50.24983" lon="1.61935">
        <ele>6.4</ele>
        <time>2023-06-10T15:56:56Z</time>
      </trkpt>
      <trkpt lat="50.24974" lon="1.6193">
        <ele>6.5</ele>
        <time>2023-06-10T15:56:58Z</time>
      </trkpt>
      <trkpt lat="50.24966" lon="1.61926">
        <ele>6.5</ele>
        <time>2023-06-10T15:57:00Z</time>
      </trkpt>
      <trkpt lat="50.24959" lon="1.61922">
        <ele>6.6</ele>
        <time>2023-06-10T15:57:02Z</time>
      </trkpt>
      <trkpt lat="50.24953" lon="1.61918">
        <ele>6.7</ele>
        <time>2023-06-10T15:57:04Z</time>
      </trkpt>
      <trkpt lat="50.24949" lon="1.61916">
        <ele>6.8</ele>
        <time>2023-06-10T15:57:06Z</time>
      </trkpt>
      <trkpt lat="50.24944" lon="1.61913">
        <ele>6.9</ele>
        <time>2023-06-10T15:57:08Z</time>
      </trkpt>
      <trkpt lat="50.24938" lon="1.61908">
        <ele>6.8</ele>
        <time>2023-06-10T15:57:10Z</time>
      </trkpt>
      <trkpt lat="50.24932" lon="1.61902">
        <ele>6.7</ele>
        <time>2023-06-10T15:57:12Z</time>
      </trkpt>
      <trkpt lat="50.24926" lon="1.61896">
        <ele>6.8</ele>
        <time>2023-06-10T15:57:14Z</time>
      </trkpt>
      <trkpt lat="50.24919" lon="1.6189">
        <ele>6.9</ele>
        <time>2023-06-10T15:57:16Z</time>
      </trkpt>
      <trkpt lat="50.24913" lon="1.61883">
        <ele>6.7</ele>
        <time>2023-06-10T15:57:18Z</time>
      </trkpt>
      <trkpt lat="50.24906" lon="1.61875">
        <ele>6.3</ele>
        <time>2023-06-10T15:57:20Z</time>
      </trkpt>
      <trkpt lat="50.24899" lon="1.61866">
        <ele>6.1</ele>
        <time>2023-06-10T15:57:22Z</time>
      </trkpt>
      <trkpt lat="50.24892" lon="1.61857">
        <ele>6</ele>
        <time>2023-06-10T15:57:24Z</time>
      </trkpt>
      <trkpt lat="50.24885" lon="1.61847">
        <ele>6</ele>
        <time>2023-06-10T15:57:26Z</time>
      </trkpt>
      <trkpt lat="50.24878" lon="1.61836">
        <ele>6</ele>
        <time>2023-06-10T15:57:28Z</time>
      </trkpt>
      <trkpt lat="50.2487" lon="1.61825">
        <ele>5.9</ele>
        <time>2023-06-10T15:57:30Z</time>
      </trkpt>
      <trkpt lat="50.24863" lon="1.61813">
        <ele>5.9</ele>
        <time>2023-06-10T15:57:32Z</time>
      </trkpt>
      <trkpt lat="50.24856" lon="1.61803">
        <ele>6.1</ele>
        <time>2023-06-10T15:57:34Z</time>
      </trkpt>
      <trkpt lat="50.24848" lon="1.61791">
        <ele>5.9</ele>
        <time>2023-06-10T15:57:36Z</time>
      </trkpt>
      <trkpt lat="50.24841" lon="1.6178">
        <ele>5.8</ele>
        <time>2023-06-10T15:57:38Z</time>
      </trkpt>
      <trkpt lat="50.24834" lon="1.61769">
        <ele>6</ele>
        <time>2023-06-10T15:57:40Z</time>
      </trkpt>
      <trkpt lat="50.24827" lon="1.61758">
        <ele>6</ele>
        <time>2023-06-10T15:57:42Z</time>
      </trkpt>
      <trkpt lat="50.2482" lon="1.61747">
        <ele>6</ele>
        <time>2023-06-10T15:57:44Z</time>
      </trkpt>
      <trkpt lat="50.24813" lon="1.61735">
        <ele>6</ele>
        <time>2023-06-10T15:57:46Z</time>
      </trkpt>
      <trkpt lat="50.24806" lon="1.61723">
        <ele>6</ele>
        <time>2023-06-10T15:57:48Z</time>
      </trkpt>
      <trkpt lat="50.24799" lon="1.61711">
        <ele>6.2</ele>
        <time>2023-06-10T15:57:50Z</time>
      </trkpt>
      <trkpt lat="50.24792" lon="1.617">
        <ele>6.5</ele>
        <time>2023-06-10T15:57:52Z</time>
      </trkpt>
      <trkpt lat="50.24784" lon="1.61688">
        <ele>6.6</ele>
        <time>2023-06-10T15:57:54Z</time>
      </trkpt>
      <trkpt lat="50.24777" lon="1.61677">
        <ele>6.4</ele>
        <time>2023-06-10T15:57:56Z</time>
      </trkpt>
      <trkpt lat="50.2477" lon="1.61667">
        <ele>6.3</ele>
        <time>2023-06-10T15:57:58Z</time>
      </trkpt>
      <trkpt lat="50.24763" lon="1.61655">
        <ele>6.5</ele>
        <time>2023-06-10T15:58:00Z</time>
      </trkpt>
      <trkpt lat="50.24756" lon="1.61645">
        <ele>6.8</ele>
        <time>2023-06-10T15:58:02Z</time>
      </trkpt>
      <trkpt lat="50.2475" lon="1.61633">
        <ele>6.8</ele>
        <time>2023-06-10T15:58:04Z</time>
      </trkpt>
      <trkpt lat="50.24744" lon="1.61622">
        <ele>6.5</ele>
        <time>2023-06-10T15:58:06Z</time>
      </trkpt>
      <trkpt lat="50.24738" lon="1.61613">
        <ele>6.5</ele>
        <time>2023-06-10T15:58:08Z</time>
      </trkpt>
      <trkpt lat="50.24733" lon="1.61604">
        <ele>6.5</ele>
        <time>2023-06-10T15:58:10Z</time>
      </trkpt>
      <trkpt lat="50.24729" lon="1.61598">
        <ele>6.5</ele>
        <time>2023-06-10T15:58:12Z</time>
      </trkpt>
      <trkpt lat="50.24724" lon="1.61597">
        <ele>6.5</ele>
        <time>2023-06-10T15:58:14Z</time>
      </trkpt>
      <trkpt lat="50.24718" lon="1.61598">
        <ele>6.6</ele>
        <time>2023-06-10T15:58:16Z</time>
      </trkpt>
      <trkpt lat="50.24711" lon="1.61602">
        <ele>6.8</ele>
        <time>2023-06-10T15:58:18Z</time>
      </trkpt>
      <trkpt lat="50.24702" lon="1.61606">
        <ele>7</ele>
        <time>2023-06-10T15:58:20Z</time>
      </trkpt>
      <trkpt lat="50.24693" lon="1.61611">
        <ele>7</ele>
        <time>2023-06-10T15:58:22Z</time>
      </trkpt>
      <trkpt lat="50.24684" lon="1.61615">
        <ele>7</ele>
        <time>2023-06-10T15:58:24Z</time>
      </trkpt>
      <trkpt lat="50.24675" lon="1.61621">
        <ele>7</ele>
        <time>2023-06-10T15:58:26Z</time>
      </trkpt>
      <trkpt lat="50.24667" lon="1.61625">
        <ele>7</ele>
        <time>2023-06-10T15:58:28Z</time>
      </trkpt>
      <trkpt lat="50.24658" lon="1.61629">
        <ele>6.8</ele>
        <time>2023-06-10T15:58:30Z</time>
      </trkpt>
      <trkpt lat="50.24648" lon="1.61634">
        <ele>6.5</ele>
        <time>2023-06-10T15:58:32Z</time>
      </trkpt>
      <trkpt lat="50.24639" lon="1.61639">
        <ele>6</ele>
        <time>2023-06-10T15:58:34Z</time>
      </trkpt>
      <trkpt lat="50.24629" lon="1.61644">
        <ele>6.2</ele>
        <time>2023-06-10T15:58:36Z</time>
      </trkpt>
      <trkpt lat="50.24619" lon="1.61649">
        <ele>6.4</ele>
        <time>2023-06-10T15:58:38Z</time>
      </trkpt>
      <trkpt lat="50.24609" lon="1.61653">
        <ele>6.5</ele>
        <time>2023-06-10T15:58:40Z</time>
      </trkpt>
      <trkpt lat="50.24599" lon="1.61659">
        <ele>6.5</ele>
        <time>2023-06-10T15:58:42Z</time>
      </trkpt>
      <trkpt lat="50.24589" lon="1.61663">
        <ele>6.3</ele>
        <time>2023-06-10T15:58:44Z</time>
      </trkpt>
      <trkpt lat="50.24579" lon="1.61668">
        <ele>6</ele>
        <time>2023-06-10T15:58:46Z</time>
      </trkpt>
      <trkpt lat="50.24569" lon="1.61672">
        <ele>6</ele>
        <time>2023-06-10T15:58:48Z</time>
      </trkpt>
      <trkpt lat="50.2456" lon="1.61678">
        <ele>6</ele>
        <time>2023-06-10T15:58:50Z</time>
      </trkpt>
      <trkpt lat="50.2455" lon="1.61685">
        <ele>5.9</ele>
        <time>2023-06-10T15:58:52Z</time>
      </trkpt>
      <trkpt lat="50.2454" lon="1.61691">
        <ele>5.6</ele>
        <time>2023-06-10T15:58:54Z</time>
      </trkpt>
      <trkpt lat="50.2453" lon="1.61699">
        <ele>5.2</ele>
        <time>2023-06-10T15:58:56Z</time>
      </trkpt>
      <trkpt lat="50.24521" lon="1.61707">
        <ele>5.5</ele>
        <time>2023-06-10T15:58:58Z</time>
      </trkpt>
      <trkpt lat="50.24513" lon="1.61716">
        <ele>5.5</ele>
        <time>2023-06-10T15:59:00Z</time>
      </trkpt>
      <trkpt lat="50.24504" lon="1.61725">
        <ele>5.2</ele>
        <time>2023-06-10T15:59:02Z</time>
      </trkpt>
      <trkpt lat="50.24495" lon="1.61734">
        <ele>5.5</ele>
        <time>2023-06-10T15:59:04Z</time>
      </trkpt>
      <trkpt lat="50.24487" lon="1.61744">
        <ele>5.9</ele>
        <time>2023-06-10T15:59:06Z</time>
      </trkpt>
      <trkpt lat="50.24479" lon="1.61753">
        <ele>6</ele>
        <time>2023-06-10T15:59:08Z</time>
      </trkpt>
      <trkpt lat="50.2447" lon="1.61764">
        <ele>6</ele>
        <time>2023-06-10T15:59:10Z</time>
      </trkpt>
      <trkpt lat="50.24462" lon="1.61774">
        <ele>5.7</ele>
        <time>2023-06-10T15:59:12Z</time>
      </trkpt>
      <trkpt lat="50.24453" lon="1.61783">
        <ele>5.5</ele>
        <time>2023-06-10T15:59:14Z</time>
      </trkpt>
      <trkpt lat="50.24445" lon="1.61792">
        <ele>5.5</ele>
        <time>2023-06-10T15:59:16Z</time>
      </trkpt>
      <trkpt lat="50.24436" lon="1.61801">
        <ele>5.9</ele>
        <time>2023-06-10T15:59:18Z</time>
      </trkpt>
      <trkpt lat="50.24428" lon="1.61812">
        <ele>5.9</ele>
        <time>2023-06-10T15:59:20Z</time>
      </trkpt>
      <trkpt lat="50.24419" lon="1.61821">
        <ele>5.5</ele>
        <time>2023-06-10T15:59:22Z</time>
      </trkpt>
      <trkpt lat="50.24412" lon="1.61829">
        <ele>5.2</ele>
        <time>2023-06-10T15:59:24Z</time>
      </trkpt>
      <trkpt lat="50.24404" lon="1.61833">
        <ele>5</ele>
        <time>2023-06-10T15:59:26Z</time>
      </trkpt>
      <trkpt lat="50.24396" lon="1.61833">
        <ele>5</ele>
        <time>2023-06-10T15:59:28Z</time>
      </trkpt>
      <trkpt lat="50.24387" lon="1.61832">
        <ele>5.1</ele>
        <time>2023-06-10T15:59:30Z</time>
      </trkpt>
      <trkpt lat="50.24378" lon="1.6183">
        <ele>5.5</ele>
        <time>2023-06-10T15:59:32Z</time>
      </trkpt>
      <trkpt lat="50.24368" lon="1.61828">
        <ele>5.8</ele>
        <time>2023-06-10T15:59:34Z</time>
      </trkpt>
      <trkpt lat="50.24358" lon="1.61826">
        <ele>6</ele>
        <time>2023-06-10T15:59:36Z</time>
      </trkpt>
      <trkpt lat="50.24348" lon="1.61823">
        <ele>5.8</ele>
        <time>2023-06-10T15:59:38Z</time>
      </trkpt>
      <trkpt lat="50.2434" lon="1.6182">
        <ele>5.6</ele>
        <time>2023-06-10T15:59:40Z</time>
      </trkpt>
      <trkpt lat="50.24332" lon="1.61817">
        <ele>5.4</ele>
        <time>2023-06-10T15:59:42Z</time>
      </trkpt>
      <trkpt lat="50.24324" lon="1.61813">
        <ele>5.5</ele>
        <time>2023-06-10T15:59:44Z</time>
      </trkpt>
      <trkpt lat="50.24318" lon="1.61808">
        <ele>5.6</ele>
        <time>2023-06-10T15:59:46Z</time>
      </trkpt>
      <trkpt lat="50.24313" lon="1.61805">
        <ele>5.7</ele>
        <time>2023-06-10T15:59:48Z</time>
      </trkpt>
      <trkpt lat="50.24308" lon="1.61803">
        <ele>5.7</ele>
        <time>2023-06-10T15:59:50Z</time>
      </trkpt>
      <trkpt lat="50.24303" lon="1.61802">
        <ele>5.7</ele>
        <time>2023-06-10T15:59:52Z</time>
      </trkpt>
      <trkpt lat="50.24298" lon="1.61799">
        <ele>5.6</ele>
        <time>2023-06-10T15:59:56Z</time>
      </trkpt>
      <trkpt lat="50.24291" lon="1.61801">
        <ele>5.6</ele>
        <time>2023-06-10T16:01:02Z</time>
      </trkpt>
      <trkpt lat="50.24282" lon="1.61797">
        <ele>5.4</ele>
        <time>2023-06-10T16:01:06Z</time>
      </trkpt>
      <trkpt lat="50.24276" lon="1.61795">
        <ele>5.3</ele>
        <time>2023-06-10T16:01:08Z</time>
      </trkpt>
      <trkpt lat="50.24269" lon="1.61794">
        <ele>5.1</ele>
        <time>2023-06-10T16:01:10Z</time>
      </trkpt>
      <trkpt lat="50.24262" lon="1.61792">
        <ele>5</ele>
        <time>2023-06-10T16:01:12Z</time>
      </trkpt>
      <trkpt lat="50.24255" lon="1.6179">
        <ele>4.9</ele>
        <time>2023-06-10T16:01:14Z</time>
      </trkpt>
      <trkpt lat="50.24248" lon="1.61788">
        <ele>4.8</ele>
        <time>2023-06-10T16:01:16Z</time>
      </trkpt>
      <trkpt lat="50.2424" lon="1.61787">
        <ele>4.9</ele>
        <time>2023-06-10T16:01:18Z</time>
      </trkpt>
      <trkpt lat="50.24232" lon="1.61785">
        <ele>5</ele>
        <time>2023-06-10T16:01:20Z</time>
      </trkpt>
      <trkpt lat="50.24223" lon="1.61783">
        <ele>5.1</ele>
        <time>2023-06-10T16:01:22Z</time>
      </trkpt>
      <trkpt lat="50.24215" lon="1.61781">
        <ele>5.1</ele>
        <time>2023-06-10T16:01:24Z</time>
      </trkpt>
      <trkpt lat="50.24206" lon="1.61779">
        <ele>5</ele>
        <time>2023-06-10T16:01:26Z</time>
      </trkpt>
      <trkpt lat="50.24198" lon="1.61776">
        <ele>4.9</ele>
        <time>2023-06-10T16:01:28Z</time>
      </trkpt>
      <trkpt lat="50.24189" lon="1.61774">
        <ele>5</ele>
        <time>2023-06-10T16:01:30Z</time>
      </trkpt>
      <trkpt lat="50.2418" lon="1.61772">
        <ele>5.2</ele>
        <time>2023-06-10T16:01:32Z</time>
      </trkpt>
      <trkpt lat="50.24171" lon="1.61769">
        <ele>5.3</ele>
        <time>2023-06-10T16:01:34Z</time>
      </trkpt>
      <trkpt lat="50.24162" lon="1.61767">
        <ele>5.3</ele>
        <time>2023-06-10T16:01:36Z</time>
      </trkpt>
      <trkpt lat="50.24153" lon="1.61764">
        <ele>5.3</ele>
        <time>2023-06-10T16:01:38Z</time>
      </trkpt>
      <trkpt lat="50.24144" lon="1.61762">
        <ele>5.3</ele>
        <time>2023-06-10T16:01:40Z</time>
      </trkpt>
      <trkpt lat="50.24134" lon="1.61759">
        <ele>5.3</ele>
        <time>2023-06-10T16:01:42Z</time>
      </trkpt>
      <trkpt lat="50.24125" lon="1.61757">
        <ele>5.3</ele>
        <time>2023-06-10T16:01:44Z</time>
      </trkpt>
      <trkpt lat="50.24115" lon="1.61754">
        <ele>5.2</ele>
        <time>2023-06-10T16:01:46Z</time>
      </trkpt>
      <trkpt lat="50.24105" lon="1.61752">
        <ele>5.1</ele>
        <time>2023-06-10T16:01:48Z</time>
      </trkpt>
      <trkpt lat="50.24095" lon="1.6175">
        <ele>5</ele>
        <time>2023-06-10T16:01:50Z</time>
      </trkpt>
      <trkpt lat="50.24086" lon="1.61748">
        <ele>4.9</ele>
        <time>2023-06-10T16:01:52Z</time>
      </trkpt>
      <trkpt lat="50.24078" lon="1.61746">
        <ele>5</ele>
        <time>2023-06-10T16:01:54Z</time>
      </trkpt>
      <trkpt lat="50.24069" lon="1.61743">
        <ele>5.2</ele>
        <time>2023-06-10T16:01:56Z</time>
      </trkpt>
      <trkpt lat="50.2406" lon="1.61741">
        <ele>5.3</ele>
        <time>2023-06-10T16:01:58Z</time>
      </trkpt>
      <trkpt lat="50.24051" lon="1.61739">
        <ele>5.3</ele>
        <time>2023-06-10T16:02:00Z</time>
      </trkpt>
      <trkpt lat="50.24042" lon="1.61736">
        <ele>5.3</ele>
        <time>2023-06-10T16:02:02Z</time>
      </trkpt>
      <trkpt lat="50.24034" lon="1.61735">
        <ele>5.3</ele>
        <time>2023-06-10T16:02:04Z</time>
      </trkpt>
      <trkpt lat="50.24026" lon="1.61733">
        <ele>5.4</ele>
        <time>2023-06-10T16:02:06Z</time>
      </trkpt>
      <trkpt lat="50.2402" lon="1.61732">
        <ele>5.3</ele>
        <time>2023-06-10T16:02:08Z</time>
      </trkpt>
      <trkpt lat="50.24015" lon="1.61732">
        <ele>5.3</ele>
        <time>2023-06-10T16:02:52Z</time>
      </trkpt>
      <trkpt lat="50.24007" lon="1.6173">
        <ele>5.3</ele>
        <time>2023-06-10T16:02:56Z</time>
      </trkpt>
      <trkpt lat="50.24002" lon="1.61728">
        <ele>5.2</ele>
        <time>2023-06-10T16:02:58Z</time>
      </trkpt>
      <trkpt lat="50.23995" lon="1.61726">
        <ele>5.3</ele>
        <time>2023-06-10T16:03:00Z</time>
      </trkpt>
      <trkpt lat="50.23988" lon="1.61724">
        <ele>5.5</ele>
        <time>2023-06-10T16:03:02Z</time>
      </trkpt>
      <trkpt lat="50.23981" lon="1.61723">
        <ele>5.7</ele>
        <time>2023-06-10T16:03:04Z</time>
      </trkpt>
      <trkpt lat="50.23973" lon="1.61721">
        <ele>5.9</ele>
        <time>2023-06-10T16:03:06Z</time>
      </trkpt>
      <trkpt lat="50.23965" lon="1.61718">
        <ele>5.9</ele>
        <time>2023-06-10T16:03:08Z</time>
      </trkpt>
      <trkpt lat="50.23958" lon="1.61716">
        <ele>5.8</ele>
        <time>2023-06-10T16:03:10Z</time>
      </trkpt>
      <trkpt lat="50.2395" lon="1.61714">
        <ele>5.7</ele>
        <time>2023-06-10T16:03:12Z</time>
      </trkpt>
      <trkpt lat="50.23942" lon="1.61711">
        <ele>5.6</ele>
        <time>2023-06-10T16:03:14Z</time>
      </trkpt>
      <trkpt lat="50.23934" lon="1.61709">
        <ele>5.5</ele>
        <time>2023-06-10T16:03:16Z</time>
      </trkpt>
      <trkpt lat="50.23925" lon="1.61707">
        <ele>5.5</ele>
        <time>2023-06-10T16:03:18Z</time>
      </trkpt>
      <trkpt lat="50.23916" lon="1.61705">
        <ele>5.4</ele>
        <time>2023-06-10T16:03:20Z</time>
      </trkpt>
      <trkpt lat="50.23907" lon="1.61703">
        <ele>5.5</ele>
        <time>2023-06-10T16:03:22Z</time>
      </trkpt>
      <trkpt lat="50.23898" lon="1.617">
        <ele>5.7</ele>
        <time>2023-06-10T16:03:24Z</time>
      </trkpt>
      <trkpt lat="50.23888" lon="1.61698">
        <ele>6</ele>
        <time>2023-06-10T16:03:26Z</time>
      </trkpt>
      <trkpt lat="50.23878" lon="1.61695">
        <ele>6</ele>
        <time>2023-06-10T16:03:28Z</time>
      </trkpt>
      <trkpt lat="50.23869" lon="1.61693">
        <ele>6</ele>
        <time>2023-06-10T16:03:30Z</time>
      </trkpt>
      <trkpt lat="50.23859" lon="1.61691">
        <ele>5.9</ele>
        <time>2023-06-10T16:03:32Z</time>
      </trkpt>
      <trkpt lat="50.2385" lon="1.61688">
        <ele>5.8</ele>
        <time>2023-06-10T16:03:34Z</time>
      </trkpt>
      <trkpt lat="50.2384" lon="1.61686">
        <ele>5.7</ele>
        <time>2023-06-10T16:03:36Z</time>
      </trkpt>
      <trkpt lat="50.2383" lon="1.61683">
        <ele>5.6</ele>
        <time>2023-06-10T16:03:38Z</time>
      </trkpt>
      <trkpt lat="50.2382" lon="1.6168">
        <ele>5.5</ele>
        <time>2023-06-10T16:03:40Z</time>
      </trkpt>
      <trkpt lat="50.23809" lon="1.61677">
        <ele>5.4</ele>
        <time>2023-06-10T16:03:42Z</time>
      </trkpt>
      <trkpt lat="50.23799" lon="1.61675">
        <ele>5.3</ele>
        <time>2023-06-10T16:03:44Z</time>
      </trkpt>
      <trkpt lat="50.23788" lon="1.61672">
        <ele>5.2</ele>
        <time>2023-06-10T16:03:46Z</time>
      </trkpt>
      <trkpt lat="50.23778" lon="1.6167">
        <ele>5.1</ele>
        <time>2023-06-10T16:03:48Z</time>
      </trkpt>
      <trkpt lat="50.23768" lon="1.61667">
        <ele>5.4</ele>
        <time>2023-06-10T16:03:50Z</time>
      </trkpt>
      <trkpt lat="50.23758" lon="1.61665">
        <ele>5.7</ele>
        <time>2023-06-10T16:03:52Z</time>
      </trkpt>
      <trkpt lat="50.23748" lon="1.61661">
        <ele>5.8</ele>
        <time>2023-06-10T16:03:54Z</time>
      </trkpt>
      <trkpt lat="50.23738" lon="1.61659">
        <ele>5.4</ele>
        <time>2023-06-10T16:03:56Z</time>
      </trkpt>
      <trkpt lat="50.23727" lon="1.61656">
        <ele>5.1</ele>
        <time>2023-06-10T16:03:58Z</time>
      </trkpt>
      <trkpt lat="50.23716" lon="1.61654">
        <ele>5.1</ele>
        <time>2023-06-10T16:04:00Z</time>
      </trkpt>
      <trkpt lat="50.23705" lon="1.61651">
        <ele>5.3</ele>
        <time>2023-06-10T16:04:02Z</time>
      </trkpt>
      <trkpt lat="50.23694" lon="1.61648">
        <ele>5.3</ele>
        <time>2023-06-10T16:04:04Z</time>
      </trkpt>
      <trkpt lat="50.23683" lon="1.61646">
        <ele>5.2</ele>
        <time>2023-06-10T16:04:06Z</time>
      </trkpt>
      <trkpt lat="50.23672" lon="1.61643">
        <ele>5.1</ele>
        <time>2023-06-10T16:04:08Z</time>
      </trkpt>
      <trkpt lat="50.23662" lon="1.6164">
        <ele>5</ele>
        <time>2023-06-10T16:04:10Z</time>
      </trkpt>
      <trkpt lat="50.23651" lon="1.61637">
        <ele>5</ele>
        <time>2023-06-10T16:04:12Z</time>
      </trkpt>
      <trkpt lat="50.23641" lon="1.61635">
        <ele>5</ele>
        <time>2023-06-10T16:04:14Z</time>
      </trkpt>
      <trkpt lat="50.2363" lon="1.61632">
        <ele>5</ele>
        <time>2023-06-10T16:04:16Z</time>
      </trkpt>
      <trkpt lat="50.23619" lon="1.6163">
        <ele>5</ele>
        <time>2023-06-10T16:04:18Z</time>
      </trkpt>
      <trkpt lat="50.23608" lon="1.61626">
        <ele>5</ele>
        <time>2023-06-10T16:04:20Z</time>
      </trkpt>
      <trkpt lat="50.23597" lon="1.61624">
        <ele>5</ele>
        <time>2023-06-10T16:04:22Z</time>
      </trkpt>
      <trkpt lat="50.23586" lon="1.61621">
        <ele>5</ele>
        <time>2023-06-10T16:04:24Z</time>
      </trkpt>
      <trkpt lat="50.23576" lon="1.61618">
        <ele>5.1</ele>
        <time>2023-06-10T16:04:26Z</time>
      </trkpt>
      <trkpt lat="50.23566" lon="1.61616">
        <ele>5.1</ele>
        <time>2023-06-10T16:04:28Z</time>
      </trkpt>
      <trkpt lat="50.23556" lon="1.61613">
        <ele>5.1</ele>
        <time>2023-06-10T16:04:30Z</time>
      </trkpt>
      <trkpt lat="50.23546" lon="1.6161">
        <ele>5.3</ele>
        <time>2023-06-10T16:04:32Z</time>
      </trkpt>
      <trkpt lat="50.23535" lon="1.61608">
        <ele>5.6</ele>
        <time>2023-06-10T16:04:34Z</time>
      </trkpt>
      <trkpt lat="50.23525" lon="1.61605">
        <ele>5.8</ele>
        <time>2023-06-10T16:04:36Z</time>
      </trkpt>
      <trkpt lat="50.23513" lon="1.61602">
        <ele>5.7</ele>
        <time>2023-06-10T16:04:38Z</time>
      </trkpt>
      <trkpt lat="50.23503" lon="1.61599">
        <ele>5.6</ele>
        <time>2023-06-10T16:04:40Z</time>
      </trkpt>
      <trkpt lat="50.23492" lon="1.61597">
        <ele>5.3</ele>
        <time>2023-06-10T16:04:42Z</time>
      </trkpt>
      <trkpt lat="50.23481" lon="1.61594">
        <ele>5.1</ele>
        <time>2023-06-10T16:04:44Z</time>
      </trkpt>
      <trkpt lat="50.2347" lon="1.61592">
        <ele>5</ele>
        <time>2023-06-10T16:04:46Z</time>
      </trkpt>
      <trkpt lat="50.23459" lon="1.61589">
        <ele>5.1</ele>
        <time>2023-06-10T16:04:48Z</time>
      </trkpt>
      <trkpt lat="50.23448" lon="1.61586">
        <ele>5.1</ele>
        <time>2023-06-10T16:04:50Z</time>
      </trkpt>
      <trkpt lat="50.23436" lon="1.61583">
        <ele>5.3</ele>
        <time>2023-06-10T16:04:52Z</time>
      </trkpt>
      <trkpt lat="50.23425" lon="1.6158">
        <ele>5.6</ele>
        <time>2023-06-10T16:04:54Z</time>
      </trkpt>
      <trkpt lat="50.23414" lon="1.61577">
        <ele>5.7</ele>
        <time>2023-06-10T16:04:56Z</time>
      </trkpt>
      <trkpt lat="50.23403" lon="1.61574">
        <ele>5.2</ele>
        <time>2023-06-10T16:04:58Z</time>
      </trkpt>
      <trkpt lat="50.23391" lon="1.61572">
        <ele>4.7</ele>
        <time>2023-06-10T16:05:00Z</time>
      </trkpt>
      <trkpt lat="50.2338" lon="1.61568">
        <ele>4.6</ele>
        <time>2023-06-10T16:05:02Z</time>
      </trkpt>
      <trkpt lat="50.23369" lon="1.61565">
        <ele>4.6</ele>
        <time>2023-06-10T16:05:04Z</time>
      </trkpt>
      <trkpt lat="50.23357" lon="1.61562">
        <ele>4.6</ele>
        <time>2023-06-10T16:05:06Z</time>
      </trkpt>
      <trkpt lat="50.23346" lon="1.61559">
        <ele>4.7</ele>
        <time>2023-06-10T16:05:08Z</time>
      </trkpt>
      <trkpt lat="50.23335" lon="1.61558">
        <ele>5</ele>
        <time>2023-06-10T16:05:10Z</time>
      </trkpt>
      <trkpt lat="50.23326" lon="1.61555">
        <ele>5</ele>
        <time>2023-06-10T16:05:12Z</time>
      </trkpt>
      <trkpt lat="50.23317" lon="1.61553">
        <ele>4.9</ele>
        <time>2023-06-10T16:05:14Z</time>
      </trkpt>
      <trkpt lat="50.2331" lon="1.61551">
        <ele>4.8</ele>
        <time>2023-06-10T16:05:16Z</time>
      </trkpt>
      <trkpt lat="50.23302" lon="1.61549">
        <ele>4.8</ele>
        <time>2023-06-10T16:05:18Z</time>
      </trkpt>
      <trkpt lat="50.23293" lon="1.61547">
        <ele>4.7</ele>
        <time>2023-06-10T16:05:20Z</time>
      </trkpt>
      <trkpt lat="50.23285" lon="1.61545">
        <ele>4.6</ele>
        <time>2023-06-10T16:05:22Z</time>
      </trkpt>
      <trkpt lat="50.23276" lon="1.61543">
        <ele>4.6</ele>
        <time>2023-06-10T16:05:24Z</time>
      </trkpt>
      <trkpt lat="50.23267" lon="1.6154">
        <ele>4.8</ele>
        <time>2023-06-10T16:05:26Z</time>
      </trkpt>
      <trkpt lat="50.23258" lon="1.61538">
        <ele>5.1</ele>
        <time>2023-06-10T16:05:28Z</time>
      </trkpt>
      <trkpt lat="50.23249" lon="1.61536">
        <ele>5.3</ele>
        <time>2023-06-10T16:05:30Z</time>
      </trkpt>
      <trkpt lat="50.23241" lon="1.61533">
        <ele>5.2</ele>
        <time>2023-06-10T16:05:32Z</time>
      </trkpt>
      <trkpt lat="50.23232" lon="1.61531">
        <ele>5.1</ele>
        <time>2023-06-10T16:05:34Z</time>
      </trkpt>
      <trkpt lat="50.23222" lon="1.61528">
        <ele>5</ele>
        <time>2023-06-10T16:05:36Z</time>
      </trkpt>
      <trkpt lat="50.23213" lon="1.61526">
        <ele>5</ele>
        <time>2023-06-10T16:05:38Z</time>
      </trkpt>
      <trkpt lat="50.23204" lon="1.61524">
        <ele>5</ele>
        <time>2023-06-10T16:05:40Z</time>
      </trkpt>
      <trkpt lat="50.23194" lon="1.61522">
        <ele>5</ele>
        <time>2023-06-10T16:05:42Z</time>
      </trkpt>
      <trkpt lat="50.23184" lon="1.61519">
        <ele>5.2</ele>
        <time>2023-06-10T16:05:44Z</time>
      </trkpt>
      <trkpt lat="50.23174" lon="1.61516">
        <ele>5.4</ele>
        <time>2023-06-10T16:05:46Z</time>
      </trkpt>
      <trkpt lat="50.23164" lon="1.61514">
        <ele>5.4</ele>
        <time>2023-06-10T16:05:48Z</time>
      </trkpt>
      <trkpt lat="50.23153" lon="1.61511">
        <ele>5.2</ele>
        <time>2023-06-10T16:05:50Z</time>
      </trkpt>
      <trkpt lat="50.23143" lon="1.61509">
        <ele>5.1</ele>
        <time>2023-06-10T16:05:52Z</time>
      </trkpt>
      <trkpt lat="50.23134" lon="1.61506">
        <ele>5</ele>
        <time>2023-06-10T16:05:54Z</time>
      </trkpt>
      <trkpt lat="50.23124" lon="1.61504">
        <ele>5.1</ele>
        <time>2023-06-10T16:05:56Z</time>
      </trkpt>
      <trkpt lat="50.23115" lon="1.61501">
        <ele>5</ele>
        <time>2023-06-10T16:05:58Z</time>
      </trkpt>
      <trkpt lat="50.23105" lon="1.61498">
        <ele>5.2</ele>
        <time>2023-06-10T16:06:00Z</time>
      </trkpt>
      <trkpt lat="50.23095" lon="1.61496">
        <ele>5.5</ele>
        <time>2023-06-10T16:06:02Z</time>
      </trkpt>
      <trkpt lat="50.23086" lon="1.61494">
        <ele>5.7</ele>
        <time>2023-06-10T16:06:04Z</time>
      </trkpt>
      <trkpt lat="50.23077" lon="1.61491">
        <ele>5.7</ele>
        <time>2023-06-10T16:06:06Z</time>
      </trkpt>
      <trkpt lat="50.23068" lon="1.61489">
        <ele>5.6</ele>
        <time>2023-06-10T16:06:08Z</time>
      </trkpt>
      <trkpt lat="50.23059" lon="1.61487">
        <ele>5.5</ele>
        <time>2023-06-10T16:06:10Z</time>
      </trkpt>
      <trkpt lat="50.23051" lon="1.61485">
        <ele>5.6</ele>
        <time>2023-06-10T16:06:12Z</time>
      </trkpt>
      <trkpt lat="50.23043" lon="1.61483">
        <ele>5.7</ele>
        <time>2023-06-10T16:06:14Z</time>
      </trkpt>
      <trkpt lat="50.23035" lon="1.61482">
        <ele>5.8</ele>
        <time>2023-06-10T16:06:16Z</time>
      </trkpt>
      <trkpt lat="50.23027" lon="1.6148">
        <ele>6</ele>
        <time>2023-06-10T16:06:18Z</time>
      </trkpt>
      <trkpt lat="50.23018" lon="1.61478">
        <ele>5.7</ele>
        <time>2023-06-10T16:06:20Z</time>
      </trkpt>
      <trkpt lat="50.23008" lon="1.61475">
        <ele>5.4</ele>
        <time>2023-06-10T16:06:22Z</time>
      </trkpt>
      <trkpt lat="50.22999" lon="1.61472">
        <ele>5</ele>
        <time>2023-06-10T16:06:24Z</time>
      </trkpt>
      <trkpt lat="50.22989" lon="1.61468">
        <ele>5.5</ele>
        <time>2023-06-10T16:06:26Z</time>
      </trkpt>
      <trkpt lat="50.2298" lon="1.61465">
        <ele>5.8</ele>
        <time>2023-06-10T16:06:28Z</time>
      </trkpt>
      <trkpt lat="50.22971" lon="1.61461">
        <ele>6</ele>
        <time>2023-06-10T16:06:30Z</time>
      </trkpt>
      <trkpt lat="50.22962" lon="1.61458">
        <ele>6</ele>
        <time>2023-06-10T16:06:32Z</time>
      </trkpt>
      <trkpt lat="50.22953" lon="1.61455">
        <ele>6</ele>
        <time>2023-06-10T16:06:34Z</time>
      </trkpt>
      <trkpt lat="50.22944" lon="1.61451">
        <ele>6</ele>
        <time>2023-06-10T16:06:36Z</time>
      </trkpt>
      <trkpt lat="50.22935" lon="1.61446">
        <ele>6</ele>
        <time>2023-06-10T16:06:38Z</time>
      </trkpt>
      <trkpt lat="50.22925" lon="1.61443">
        <ele>6</ele>
        <time>2023-06-10T16:06:40Z</time>
      </trkpt>
      <trkpt lat="50.22916" lon="1.61439">
        <ele>6</ele>
        <time>2023-06-10T16:06:42Z</time>
      </trkpt>
      <trkpt lat="50.22908" lon="1.61436">
        <ele>5.8</ele>
        <time>2023-06-10T16:06:44Z</time>
      </trkpt>
      <trkpt lat="50.22901" lon="1.61434">
        <ele>5.6</ele>
        <time>2023-06-10T16:06:46Z</time>
      </trkpt>
      <trkpt lat="50.22894" lon="1.6143">
        <ele>5.6</ele>
        <time>2023-06-10T16:06:48Z</time>
      </trkpt>
      <trkpt lat="50.22889" lon="1.6142">
        <ele>5.9</ele>
        <time>2023-06-10T16:06:50Z</time>
      </trkpt>
      <trkpt lat="50.22882" lon="1.61414">
        <ele>6</ele>
        <time>2023-06-10T16:06:52Z</time>
      </trkpt>
      <trkpt lat="50.22874" lon="1.61411">
        <ele>6</ele>
        <time>2023-06-10T16:06:54Z</time>
      </trkpt>
      <trkpt lat="50.22867" lon="1.61408">
        <ele>6</ele>
        <time>2023-06-10T16:06:56Z</time>
      </trkpt>
      <trkpt lat="50.2286" lon="1.61404">
        <ele>6</ele>
        <time>2023-06-10T16:06:58Z</time>
      </trkpt>
      <trkpt lat="50.22855" lon="1.61397">
        <ele>6</ele>
        <time>2023-06-10T16:07:02Z</time>
      </trkpt>
      <trkpt lat="50.22847" lon="1.61395">
        <ele>6</ele>
        <time>2023-06-10T16:07:06Z</time>
      </trkpt>
      <trkpt lat="50.22842" lon="1.61395">
        <ele>6</ele>
        <time>2023-06-10T16:07:08Z</time>
      </trkpt>
      <trkpt lat="50.22838" lon="1.61401">
        <ele>6</ele>
        <time>2023-06-10T16:07:10Z</time>
      </trkpt>
      <trkpt lat="50.22832" lon="1.61404">
        <ele>6</ele>
        <time>2023-06-10T16:07:12Z</time>
      </trkpt>
      <trkpt lat="50.22825" lon="1.61402">
        <ele>5.8</ele>
        <time>2023-06-10T16:07:14Z</time>
      </trkpt>
      <trkpt lat="50.22817" lon="1.614">
        <ele>5.6</ele>
        <time>2023-06-10T16:07:16Z</time>
      </trkpt>
      <trkpt lat="50.22808" lon="1.61397">
        <ele>5.3</ele>
        <time>2023-06-10T16:07:18Z</time>
      </trkpt>
      <trkpt lat="50.22799" lon="1.61395">
        <ele>5.4</ele>
        <time>2023-06-10T16:07:20Z</time>
      </trkpt>
      <trkpt lat="50.2279" lon="1.61395">
        <ele>5.6</ele>
        <time>2023-06-10T16:07:22Z</time>
      </trkpt>
      <trkpt lat="50.22782" lon="1.61393">
        <ele>5.9</ele>
        <time>2023-06-10T16:07:24Z</time>
      </trkpt>
      <trkpt lat="50.22774" lon="1.61391">
        <ele>6</ele>
        <time>2023-06-10T16:07:26Z</time>
      </trkpt>
      <trkpt lat="50.22767" lon="1.61387">
        <ele>6.1</ele>
        <time>2023-06-10T16:07:28Z</time>
      </trkpt>
      <trkpt lat="50.22758" lon="1.61385">
        <ele>6.1</ele>
        <time>2023-06-10T16:07:30Z</time>
      </trkpt>
      <trkpt lat="50.2275" lon="1.61383">
        <ele>6.2</ele>
        <time>2023-06-10T16:07:32Z</time>
      </trkpt>
      <trkpt lat="50.22741" lon="1.61381">
        <ele>6.3</ele>
        <time>2023-06-10T16:07:34Z</time>
      </trkpt>
      <trkpt lat="50.22733" lon="1.61378">
        <ele>6.4</ele>
        <time>2023-06-10T16:07:36Z</time>
      </trkpt>
      <trkpt lat="50.22725" lon="1.61374">
        <ele>6.6</ele>
        <time>2023-06-10T16:07:38Z</time>
      </trkpt>
      <trkpt lat="50.22718" lon="1.61371">
        <ele>6.6</ele>
        <time>2023-06-10T16:07:40Z</time>
      </trkpt>
      <trkpt lat="50.2271" lon="1.61368">
        <ele>6.7</ele>
        <time>2023-06-10T16:07:42Z</time>
      </trkpt>
      <trkpt lat="50.22702" lon="1.61365">
        <ele>6.9</ele>
        <time>2023-06-10T16:07:44Z</time>
      </trkpt>
      <trkpt lat="50.22695" lon="1.61363">
        <ele>6.9</ele>
        <time>2023-06-10T16:07:46Z</time>
      </trkpt>
      <trkpt lat="50.22688" lon="1.6136">
        <ele>7.2</ele>
        <time>2023-06-10T16:07:48Z</time>
      </trkpt>
      <trkpt lat="50.22682" lon="1.61358">
        <ele>7.4</ele>
        <time>2023-06-10T16:07:50Z</time>
      </trkpt>
      <trkpt lat="50.22677" lon="1.61354">
        <ele>7.6</ele>
        <time>2023-06-10T16:07:52Z</time>
      </trkpt>
      <trkpt lat="50.22669" lon="1.6135">
        <ele>7.9</ele>
        <time>2023-06-10T16:07:55Z</time>
      </trkpt>
      <trkpt lat="50.22663" lon="1.61348">
        <ele>8.1</ele>
        <time>2023-06-10T16:07:57Z</time>
      </trkpt>
      <trkpt lat="50.22657" lon="1.61346">
        <ele>8.4</ele>
        <time>2023-06-10T16:07:59Z</time>
      </trkpt>
      <trkpt lat="50.2265" lon="1.61344">
        <ele>8.6</ele>
        <time>2023-06-10T16:08:01Z</time>
      </trkpt>
      <trkpt lat="50.22644" lon="1.61342">
        <ele>8.8</ele>
        <time>2023-06-10T16:08:03Z</time>
      </trkpt>
      <trkpt lat="50.22638" lon="1.61342">
        <ele>9</ele>
        <time>2023-06-10T16:08:05Z</time>
      </trkpt>
      <trkpt lat="50.22632" lon="1.61341">
        <ele>9</ele>
        <time>2023-06-10T16:08:07Z</time>
      </trkpt>
      <trkpt lat="50.22625" lon="1.61341">
        <ele>9</ele>
        <time>2023-06-10T16:08:09Z</time>
      </trkpt>
      <trkpt lat="50.22619" lon="1.61342">
        <ele>9</ele>
        <time>2023-06-10T16:08:11Z</time>
      </trkpt>
      <trkpt lat="50.22612" lon="1.61342">
        <ele>9</ele>
        <time>2023-06-10T16:08:13Z</time>
      </trkpt>
      <trkpt lat="50.22606" lon="1.61343">
        <ele>9</ele>
        <time>2023-06-10T16:08:15Z</time>
      </trkpt>
      <trkpt lat="50.22599" lon="1.61343">
        <ele>9</ele>
        <time>2023-06-10T16:08:17Z</time>
      </trkpt>
      <trkpt lat="50.22592" lon="1.61344">
        <ele>9</ele>
        <time>2023-06-10T16:08:19Z</time>
      </trkpt>
      <trkpt lat="50.22585" lon="1.61345">
        <ele>9</ele>
        <time>2023-06-10T16:08:21Z</time>
      </trkpt>
      <trkpt lat="50.22578" lon="1.61345">
        <ele>9.1</ele>
        <time>2023-06-10T16:08:23Z</time>
      </trkpt>
      <trkpt lat="50.22571" lon="1.61347">
        <ele>9.2</ele>
        <time>2023-06-10T16:08:25Z</time>
      </trkpt>
      <trkpt lat="50.22563" lon="1.61348">
        <ele>9.4</ele>
        <time>2023-06-10T16:08:27Z</time>
      </trkpt>
      <trkpt lat="50.22555" lon="1.61349">
        <ele>9.5</ele>
        <time>2023-06-10T16:08:29Z</time>
      </trkpt>
      <trkpt lat="50.22547" lon="1.6135">
        <ele>9.4</ele>
        <time>2023-06-10T16:08:31Z</time>
      </trkpt>
      <trkpt lat="50.2254" lon="1.6135">
        <ele>9.3</ele>
        <time>2023-06-10T16:08:33Z</time>
      </trkpt>
      <trkpt lat="50.22533" lon="1.61351">
        <ele>9.1</ele>
        <time>2023-06-10T16:08:35Z</time>
      </trkpt>
      <trkpt lat="50.22526" lon="1.61351">
        <ele>9</ele>
        <time>2023-06-10T16:08:37Z</time>
      </trkpt>
      <trkpt lat="50.22519" lon="1.61351">
        <ele>9.2</ele>
        <time>2023-06-10T16:08:39Z</time>
      </trkpt>
      <trkpt lat="50.22511" lon="1.61352">
        <ele>9.4</ele>
        <time>2023-06-10T16:08:41Z</time>
      </trkpt>
      <trkpt lat="50.22504" lon="1.61353">
        <ele>9.6</ele>
        <time>2023-06-10T16:08:43Z</time>
      </trkpt>
      <trkpt lat="50.22496" lon="1.61353">
        <ele>9.7</ele>
        <time>2023-06-10T16:08:45Z</time>
      </trkpt>
      <trkpt lat="50.2249" lon="1.61354">
        <ele>9.7</ele>
        <time>2023-06-10T16:08:47Z</time>
      </trkpt>
      <trkpt lat="50.22483" lon="1.61355">
        <ele>9.8</ele>
        <time>2023-06-10T16:08:49Z</time>
      </trkpt>
      <trkpt lat="50.22476" lon="1.61356">
        <ele>9.8</ele>
        <time>2023-06-10T16:08:51Z</time>
      </trkpt>
      <trkpt lat="50.22469" lon="1.61357">
        <ele>9.9</ele>
        <time>2023-06-10T16:08:53Z</time>
      </trkpt>
      <trkpt lat="50.22463" lon="1.61359">
        <ele>9.9</ele>
        <time>2023-06-10T16:08:55Z</time>
      </trkpt>
      <trkpt lat="50.22456" lon="1.61359">
        <ele>9.9</ele>
        <time>2023-06-10T16:08:57Z</time>
      </trkpt>
      <trkpt lat="50.22449" lon="1.6136">
        <ele>10</ele>
        <time>2023-06-10T16:08:59Z</time>
      </trkpt>
      <trkpt lat="50.22442" lon="1.61361">
        <ele>10</ele>
        <time>2023-06-10T16:09:01Z</time>
      </trkpt>
      <trkpt lat="50.22435" lon="1.61363">
        <ele>9.9</ele>
        <time>2023-06-10T16:09:03Z</time>
      </trkpt>
      <trkpt lat="50.22428" lon="1.61368">
        <ele>9.9</ele>
        <time>2023-06-10T16:09:05Z</time>
      </trkpt>
      <trkpt lat="50.22421" lon="1.61374">
        <ele>9.9</ele>
        <time>2023-06-10T16:09:07Z</time>
      </trkpt>
      <trkpt lat="50.22415" lon="1.6138">
        <ele>10</ele>
        <time>2023-06-10T16:09:09Z</time>
      </trkpt>
      <trkpt lat="50.22409" lon="1.61386">
        <ele>10</ele>
        <time>2023-06-10T16:09:11Z</time>
      </trkpt>
      <trkpt lat="50.22403" lon="1.61392">
        <ele>10</ele>
        <time>2023-06-10T16:09:13Z</time>
      </trkpt>
      <trkpt lat="50.22398" lon="1.61398">
        <ele>10</ele>
        <time>2023-06-10T16:09:15Z</time>
      </trkpt>
      <trkpt lat="50.22392" lon="1.61405">
        <ele>10</ele>
        <time>2023-06-10T16:09:17Z</time>
      </trkpt>
      <trkpt lat="50.22387" lon="1.6141">
        <ele>10</ele>
        <time>2023-06-10T16:09:19Z</time>
      </trkpt>
      <trkpt lat="50.22381" lon="1.6141">
        <ele>10</ele>
        <time>2023-06-10T16:09:21Z</time>
      </trkpt>
      <trkpt lat="50.22376" lon="1.61411">
        <ele>10</ele>
        <time>2023-06-10T16:09:23Z</time>
      </trkpt>
      <trkpt lat="50.22372" lon="1.61407">
        <ele>10</ele>
        <time>2023-06-10T16:09:25Z</time>
      </trkpt>
      <trkpt lat="50.22369" lon="1.61398">
        <ele>10</ele>
        <time>2023-06-10T16:09:27Z</time>
      </trkpt>
      <trkpt lat="50.22368" lon="1.61386">
        <ele>9.9</ele>
        <time>2023-06-10T16:09:29Z</time>
      </trkpt>
      <trkpt lat="50.22366" lon="1.61373">
        <ele>9.4</ele>
        <time>2023-06-10T16:09:31Z</time>
      </trkpt>
      <trkpt lat="50.22363" lon="1.61359">
        <ele>8.9</ele>
        <time>2023-06-10T16:09:33Z</time>
      </trkpt>
      <trkpt lat="50.22359" lon="1.61348">
        <ele>8.6</ele>
        <time>2023-06-10T16:09:35Z</time>
      </trkpt>
      <trkpt lat="50.22357" lon="1.6134">
        <ele>8.4</ele>
        <time>2023-06-10T16:09:39Z</time>
      </trkpt>
      <trkpt lat="50.22351" lon="1.61335">
        <ele>8.4</ele>
        <time>2023-06-10T16:09:43Z</time>
      </trkpt>
      <trkpt lat="50.22346" lon="1.61334">
        <ele>8.6</ele>
        <time>2023-06-10T16:09:45Z</time>
      </trkpt>
      <trkpt lat="50.2234" lon="1.61336">
        <ele>8.8</ele>
        <time>2023-06-10T16:09:47Z</time>
      </trkpt>
      <trkpt lat="50.22334" lon="1.61339">
        <ele>9</ele>
        <time>2023-06-10T16:09:49Z</time>
      </trkpt>
      <trkpt lat="50.22328" lon="1.61342">
        <ele>8.5</ele>
        <time>2023-06-10T16:09:51Z</time>
      </trkpt>
      <trkpt lat="50.22322" lon="1.61347">
        <ele>8.1</ele>
        <time>2023-06-10T16:09:53Z</time>
      </trkpt>
      <trkpt lat="50.22315" lon="1.61352">
        <ele>8.1</ele>
        <time>2023-06-10T16:09:55Z</time>
      </trkpt>
      <trkpt lat="50.22308" lon="1.61357">
        <ele>8.5</ele>
        <time>2023-06-10T16:09:57Z</time>
      </trkpt>
      <trkpt lat="50.22301" lon="1.61363">
        <ele>8.6</ele>
        <time>2023-06-10T16:09:59Z</time>
      </trkpt>
      <trkpt lat="50.22295" lon="1.61367">
        <ele>8.3</ele>
        <time>2023-06-10T16:10:01Z</time>
      </trkpt>
      <trkpt lat="50.22289" lon="1.61372">
        <ele>8.3</ele>
        <time>2023-06-10T16:10:03Z</time>
      </trkpt>
      <trkpt lat="50.22282" lon="1.61378">
        <ele>8.6</ele>
        <time>2023-06-10T16:10:05Z</time>
      </trkpt>
      <trkpt lat="50.22276" lon="1.61384">
        <ele>9.1</ele>
        <time>2023-06-10T16:10:07Z</time>
      </trkpt>
      <trkpt lat="50.22269" lon="1.61389">
        <ele>9.4</ele>
        <time>2023-06-10T16:10:09Z</time>
      </trkpt>
      <trkpt lat="50.22262" lon="1.61395">
        <ele>9.2</ele>
        <time>2023-06-10T16:10:11Z</time>
      </trkpt>
      <trkpt lat="50.22254" lon="1.61401">
        <ele>9.1</ele>
        <time>2023-06-10T16:10:13Z</time>
      </trkpt>
      <trkpt lat="50.22247" lon="1.61408">
        <ele>9.1</ele>
        <time>2023-06-10T16:10:15Z</time>
      </trkpt>
      <trkpt lat="50.2224" lon="1.61414">
        <ele>9.3</ele>
        <time>2023-06-10T16:10:17Z</time>
      </trkpt>
      <trkpt lat="50.22232" lon="1.61419">
        <ele>9.4</ele>
        <time>2023-06-10T16:10:19Z</time>
      </trkpt>
      <trkpt lat="50.22225" lon="1.61426">
        <ele>9.1</ele>
        <time>2023-06-10T16:10:21Z</time>
      </trkpt>
      <trkpt lat="50.22218" lon="1.61431">
        <ele>8.8</ele>
        <time>2023-06-10T16:10:23Z</time>
      </trkpt>
      <trkpt lat="50.22211" lon="1.61436">
        <ele>8.8</ele>
        <time>2023-06-10T16:10:25Z</time>
      </trkpt>
      <trkpt lat="50.22204" lon="1.61442">
        <ele>9.4</ele>
        <time>2023-06-10T16:10:27Z</time>
      </trkpt>
      <trkpt lat="50.22198" lon="1.61448">
        <ele>9.9</ele>
        <time>2023-06-10T16:10:29Z</time>
      </trkpt>
      <trkpt lat="50.22191" lon="1.61454">
        <ele>9.6</ele>
        <time>2023-06-10T16:10:31Z</time>
      </trkpt>
      <trkpt lat="50.22184" lon="1.6146">
        <ele>9.2</ele>
        <time>2023-06-10T16:10:33Z</time>
      </trkpt>
      <trkpt lat="50.22177" lon="1.61467">
        <ele>9.4</ele>
        <time>2023-06-10T16:10:35Z</time>
      </trkpt>
      <trkpt lat="50.2217" lon="1.61473">
        <ele>10</ele>
        <time>2023-06-10T16:10:37Z</time>
      </trkpt>
      <trkpt lat="50.22163" lon="1.61479">
        <ele>9.8</ele>
        <time>2023-06-10T16:10:39Z</time>
      </trkpt>
      <trkpt lat="50.22156" lon="1.61485">
        <ele>9.5</ele>
        <time>2023-06-10T16:10:41Z</time>
      </trkpt>
      <trkpt lat="50.2215" lon="1.61492">
        <ele>9.6</ele>
        <time>2023-06-10T16:10:43Z</time>
      </trkpt>
      <trkpt lat="50.22143" lon="1.61498">
        <ele>9.9</ele>
        <time>2023-06-10T16:10:45Z</time>
      </trkpt>
      <trkpt lat="50.22136" lon="1.61505">
        <ele>9.7</ele>
        <time>2023-06-10T16:10:47Z</time>
      </trkpt>
      <trkpt lat="50.22129" lon="1.61511">
        <ele>9.1</ele>
        <time>2023-06-10T16:10:49Z</time>
      </trkpt>
      <trkpt lat="50.22122" lon="1.61518">
        <ele>8.8</ele>
        <time>2023-06-10T16:10:51Z</time>
      </trkpt>
      <trkpt lat="50.22115" lon="1.61526">
        <ele>9</ele>
        <time>2023-06-10T16:10:53Z</time>
      </trkpt>
      <trkpt lat="50.22107" lon="1.61534">
        <ele>8.8</ele>
        <time>2023-06-10T16:10:55Z</time>
      </trkpt>
      <trkpt lat="50.22098" lon="1.61542">
        <ele>8.6</ele>
        <time>2023-06-10T16:10:57Z</time>
      </trkpt>
      <trkpt lat="50.22089" lon="1.6155">
        <ele>8.8</ele>
        <time>2023-06-10T16:10:59Z</time>
      </trkpt>
      <trkpt lat="50.22081" lon="1.61558">
        <ele>8.8</ele>
        <time>2023-06-10T16:11:01Z</time>
      </trkpt>
      <trkpt lat="50.22073" lon="1.61566">
        <ele>8.2</ele>
        <time>2023-06-10T16:11:03Z</time>
      </trkpt>
      <trkpt lat="50.22065" lon="1.61573">
        <ele>7.8</ele>
        <time>2023-06-10T16:11:05Z</time>
      </trkpt>
      <trkpt lat="50.22057" lon="1.6158">
        <ele>7.7</ele>
        <time>2023-06-10T16:11:07Z</time>
      </trkpt>
      <trkpt lat="50.22048" lon="1.61588">
        <ele>7.3</ele>
        <time>2023-06-10T16:11:09Z</time>
      </trkpt>
      <trkpt lat="50.2204" lon="1.61596">
        <ele>7.1</ele>
        <time>2023-06-10T16:11:11Z</time>
      </trkpt>
      <trkpt lat="50.22031" lon="1.61606">
        <ele>7.5</ele>
        <time>2023-06-10T16:11:13Z</time>
      </trkpt>
      <trkpt lat="50.22023" lon="1.61615">
        <ele>7.6</ele>
        <time>2023-06-10T16:11:15Z</time>
      </trkpt>
      <trkpt lat="50.22014" lon="1.61624">
        <ele>7.2</ele>
        <time>2023-06-10T16:11:17Z</time>
      </trkpt>
      <trkpt lat="50.22006" lon="1.61633">
        <ele>7.5</ele>
        <time>2023-06-10T16:11:19Z</time>
      </trkpt>
      <trkpt lat="50.21999" lon="1.61641">
        <ele>7.9</ele>
        <time>2023-06-10T16:11:21Z</time>
      </trkpt>
      <trkpt lat="50.21991" lon="1.6165">
        <ele>7.4</ele>
        <time>2023-06-10T16:11:23Z</time>
      </trkpt>
      <trkpt lat="50.21983" lon="1.61657">
        <ele>7.4</ele>
        <time>2023-06-10T16:11:25Z</time>
      </trkpt>
      <trkpt lat="50.21975" lon="1.61666">
        <ele>7.9</ele>
        <time>2023-06-10T16:11:27Z</time>
      </trkpt>
      <trkpt lat="50.21966" lon="1.61675">
        <ele>7.5</ele>
        <time>2023-06-10T16:11:29Z</time>
      </trkpt>
      <trkpt lat="50.21958" lon="1.61684">
        <ele>7.1</ele>
        <time>2023-06-10T16:11:31Z</time>
      </trkpt>
      <trkpt lat="50.21949" lon="1.61694">
        <ele>7.2</ele>
        <time>2023-06-10T16:11:33Z</time>
      </trkpt>
      <trkpt lat="50.21942" lon="1.61704">
        <ele>7.5</ele>
        <time>2023-06-10T16:11:35Z</time>
      </trkpt>
      <trkpt lat="50.21934" lon="1.61712">
        <ele>7.5</ele>
        <time>2023-06-10T16:11:37Z</time>
      </trkpt>
      <trkpt lat="50.21927" lon="1.6172">
        <ele>7.6</ele>
        <time>2023-06-10T16:11:39Z</time>
      </trkpt>
      <trkpt lat="50.2192" lon="1.61728">
        <ele>7.4</ele>
        <time>2023-06-10T16:11:41Z</time>
      </trkpt>
      <trkpt lat="50.21914" lon="1.61737">
        <ele>7.3</ele>
        <time>2023-06-10T16:11:43Z</time>
      </trkpt>
      <trkpt lat="50.21906" lon="1.61745">
        <ele>7.1</ele>
        <time>2023-06-10T16:11:45Z</time>
      </trkpt>
      <trkpt lat="50.21899" lon="1.61753">
        <ele>6.8</ele>
        <time>2023-06-10T16:11:47Z</time>
      </trkpt>
      <trkpt lat="50.21891" lon="1.61762">
        <ele>6.6</ele>
        <time>2023-06-10T16:11:49Z</time>
      </trkpt>
      <trkpt lat="50.21884" lon="1.61772">
        <ele>6.6</ele>
        <time>2023-06-10T16:11:51Z</time>
      </trkpt>
      <trkpt lat="50.21876" lon="1.61781">
        <ele>6.7</ele>
        <time>2023-06-10T16:11:53Z</time>
      </trkpt>
      <trkpt lat="50.2187" lon="1.61789">
        <ele>6.7</ele>
        <time>2023-06-10T16:11:55Z</time>
      </trkpt>
      <trkpt lat="50.21864" lon="1.61797">
        <ele>6.8</ele>
        <time>2023-06-10T16:11:57Z</time>
      </trkpt>
      <trkpt lat="50.21857" lon="1.61805">
        <ele>6.7</ele>
        <time>2023-06-10T16:11:59Z</time>
      </trkpt>
      <trkpt lat="50.21851" lon="1.61814">
        <ele>6.8</ele>
        <time>2023-06-10T16:12:01Z</time>
      </trkpt>
      <trkpt lat="50.21845" lon="1.61822">
        <ele>6.7</ele>
        <time>2023-06-10T16:12:03Z</time>
      </trkpt>
      <trkpt lat="50.2184" lon="1.6183">
        <ele>6.6</ele>
        <time>2023-06-10T16:12:05Z</time>
      </trkpt>
      <trkpt lat="50.2184" lon="1.61841">
        <ele>6.9</ele>
        <time>2023-06-10T16:12:07Z</time>
      </trkpt>
      <trkpt lat="50.21844" lon="1.61851">
        <ele>7.3</ele>
        <time>2023-06-10T16:12:09Z</time>
      </trkpt>
      <trkpt lat="50.21848" lon="1.6186">
        <ele>7.5</ele>
        <time>2023-06-10T16:12:11Z</time>
      </trkpt>
      <trkpt lat="50.21853" lon="1.61867">
        <ele>7.8</ele>
        <time>2023-06-10T16:12:13Z</time>
      </trkpt>
      <trkpt lat="50.21856" lon="1.61875">
        <ele>7.9</ele>
        <time>2023-06-10T16:12:15Z</time>
      </trkpt>
      <trkpt lat="50.21859" lon="1.61883">
        <ele>8</ele>
        <time>2023-06-10T16:12:17Z</time>
      </trkpt>
      <trkpt lat="50.21863" lon="1.61892">
        <ele>8.2</ele>
        <time>2023-06-10T16:12:19Z</time>
      </trkpt>
      <trkpt lat="50.21866" lon="1.61901">
        <ele>8.5</ele>
        <time>2023-06-10T16:12:21Z</time>
      </trkpt>
      <trkpt lat="50.21868" lon="1.61911">
        <ele>8.8</ele>
        <time>2023-06-10T16:12:23Z</time>
      </trkpt>
      <trkpt lat="50.21867" lon="1.61919">
        <ele>9</ele>
        <time>2023-06-10T16:12:25Z</time>
      </trkpt>
      <trkpt lat="50.21862" lon="1.61925">
        <ele>9</ele>
        <time>2023-06-10T16:12:27Z</time>
      </trkpt>
      <trkpt lat="50.21857" lon="1.61932">
        <ele>9</ele>
        <time>2023-06-10T16:12:29Z</time>
      </trkpt>
      <trkpt lat="50.21852" lon="1.61938">
        <ele>9</ele>
        <time>2023-06-10T16:12:31Z</time>
      </trkpt>
      <trkpt lat="50.21846" lon="1.61942">
        <ele>9</ele>
        <time>2023-06-10T16:12:33Z</time>
      </trkpt>
      <trkpt lat="50.21841" lon="1.61947">
        <ele>8.9</ele>
        <time>2023-06-10T16:12:35Z</time>
      </trkpt>
      <trkpt lat="50.21836" lon="1.61952">
        <ele>8.7</ele>
        <time>2023-06-10T16:12:37Z</time>
      </trkpt>
      <trkpt lat="50.21832" lon="1.61957">
        <ele>8.6</ele>
        <time>2023-06-10T16:12:39Z</time>
      </trkpt>
      <trkpt lat="50.21828" lon="1.61962">
        <ele>8.4</ele>
        <time>2023-06-10T16:12:41Z</time>
      </trkpt>
      <trkpt lat="50.21825" lon="1.61967">
        <ele>8.2</ele>
        <time>2023-06-10T16:12:43Z</time>
      </trkpt>
      <trkpt lat="50.2182" lon="1.61972">
        <ele>8</ele>
        <time>2023-06-10T16:12:47Z</time>
      </trkpt>
      <trkpt lat="50.21816" lon="1.61966">
        <ele>8.2</ele>
        <time>2023-06-10T16:12:57Z</time>
      </trkpt>
    </trkseg>
  </trk>
</gpx>